<?xml version='1.0' encoding='UTF-8'?><gpx version="1.1" creator="JPX - https://github.com/jenetics/jpx" xmlns="http://www.topografix.com/GPX/1/1"><trk><trkseg><trkpt lat="45.53177168677138" lon="11.365102009628714"><ele>95.0</ele><time>2026-04-12T05:20:45.752Z</time></trkpt><trkpt lat="45.53188010881151" lon="11.365147855617677"><ele>95.0</ele><time>2026-04-12T05:20:47.752Z</time></trkpt><trkpt lat="45.531946842039865" lon="11.365156575911318"><ele>95.0</ele><time>2026-04-12T05:20:48.752Z</time></trkpt><trkpt lat="45.53202341778803" lon="11.36516099819432"><ele>95.0</ele><time>2026-04-12T05:20:50.752Z</time></trkpt><trkpt lat="45.53211909133715" lon="11.365113648213436"><ele>95.0</ele><time>2026-04-12T05:20:51.752Z</time></trkpt><trkpt lat="45.53221580911668" lon="11.365020938869737"><ele>95.25</ele><time>2026-04-12T05:20:52.752Z</time></trkpt><trkpt lat="45.532316497772584" lon="11.364979041986405"><ele>95.5</ele><time>2026-04-12T05:20:53.752Z</time></trkpt><trkpt lat="45.53240577156473" lon="11.364897678464105"><ele>95.75</ele><time>2026-04-12T05:20:54.752Z</time></trkpt><trkpt lat="45.53251480666372" lon="11.364720875727714"><ele>96.0</ele><time>2026-04-12T05:20:55.752Z</time></trkpt><trkpt lat="45.532589808482825" lon="11.364617575668863"><ele>96.25</ele><time>2026-04-12T05:20:57.752Z</time></trkpt><trkpt lat="45.532691341073544" lon="11.364769334237687"><ele>96.5</ele><time>2026-04-12T05:20:58.752Z</time></trkpt><trkpt lat="45.53281259543643" lon="11.364846696607191"><ele>96.75</ele><time>2026-04-12T05:20:59.752Z</time></trkpt><trkpt lat="45.53295771931976" lon="11.364937725024962"><ele>97.0</ele><time>2026-04-12T05:21:00.752Z</time></trkpt><trkpt lat="45.533132291035336" lon="11.365034761851383"><ele>97.0</ele><time>2026-04-12T05:21:01.752Z</time></trkpt><trkpt lat="45.53331802369039" lon="11.365148272137631"><ele>97.0</ele><time>2026-04-12T05:21:02.752Z</time></trkpt><trkpt lat="45.53350022169582" lon="11.36528954886242"><ele>97.0</ele><time>2026-04-12T05:21:03.752Z</time></trkpt><trkpt lat="45.53364251066842" lon="11.36542999098867"><ele>97.33333333333334</ele><time>2026-04-12T05:21:04.752Z</time></trkpt><trkpt lat="45.533786323783765" lon="11.365546393342209"><ele>97.66666666666666</ele><time>2026-04-12T05:21:05.752Z</time></trkpt><trkpt lat="45.53392886283549" lon="11.365698790473841"><ele>98.0</ele><time>2026-04-12T05:21:06.752Z</time></trkpt><trkpt lat="45.53407032930393" lon="11.365851217128792"><ele>98.0</ele><time>2026-04-12T05:21:07.752Z</time></trkpt><trkpt lat="45.53416284458215" lon="11.365985025253751"><ele>98.0</ele><time>2026-04-12T05:21:08.752Z</time></trkpt><trkpt lat="45.53428024165433" lon="11.366119499743629"><ele>98.0</ele><time>2026-04-12T05:21:09.752Z</time></trkpt><trkpt lat="45.53440082799452" lon="11.36626672978295"><ele>98.0</ele><time>2026-04-12T05:21:10.752Z</time></trkpt><trkpt lat="45.53446081851299" lon="11.366498066856444"><ele>98.0</ele><time>2026-04-12T05:21:11.752Z</time></trkpt><trkpt lat="45.534501075529086" lon="11.366770011066468"><ele>98.0</ele><time>2026-04-12T05:21:12.752Z</time></trkpt><trkpt lat="45.534547644720675" lon="11.36706143719604"><ele>98.0</ele><time>2026-04-12T05:21:13.752Z</time></trkpt><trkpt lat="45.53462308394888" lon="11.367378251504576"><ele>98.0</ele><time>2026-04-12T05:21:14.752Z</time></trkpt><trkpt lat="45.534670145541746" lon="11.367694130177961"><ele>98.0</ele><time>2026-04-12T05:21:15.752Z</time></trkpt><trkpt lat="45.534731768353495" lon="11.367948530647233"><ele>98.0</ele><time>2026-04-12T05:21:16.752Z</time></trkpt><trkpt lat="45.53481343746545" lon="11.368168463990498"><ele>98.33333333333333</ele><time>2026-04-12T05:21:17.752Z</time></trkpt><trkpt lat="45.53488702012696" lon="11.368385359414615"><ele>98.66666666666666</ele><time>2026-04-12T05:21:18.752Z</time></trkpt><trkpt lat="45.534985084252135" lon="11.368586861540173"><ele>99.0</ele><time>2026-04-12T05:21:19.752Z</time></trkpt><trkpt lat="45.535077748144815" lon="11.368809390773563"><ele>98.75</ele><time>2026-04-12T05:21:20.752Z</time></trkpt><trkpt lat="45.535152356507034" lon="11.368988282433644"><ele>98.5</ele><time>2026-04-12T05:21:21.752Z</time></trkpt><trkpt lat="45.53522927909488" lon="11.369140046927383"><ele>98.25</ele><time>2026-04-12T05:21:22.752Z</time></trkpt><trkpt lat="45.53530019155323" lon="11.369272089289533"><ele>98.0</ele><time>2026-04-12T05:21:23.752Z</time></trkpt><trkpt lat="45.535370682275854" lon="11.369386978114472"><ele>97.33333333333333</ele><time>2026-04-12T05:21:24.752Z</time></trkpt><trkpt lat="45.53551443915944" lon="11.36943833661475"><ele>96.66666666666666</ele><time>2026-04-12T05:21:25.752Z</time></trkpt><trkpt lat="45.53565313955239" lon="11.369517957426673"><ele>96.0</ele><time>2026-04-12T05:21:26.752Z</time></trkpt><trkpt lat="45.53580612080301" lon="11.369605139703792"><ele>96.66666666666666</ele><time>2026-04-12T05:21:27.752Z</time></trkpt><trkpt lat="45.5359718031616" lon="11.369715526551639"><ele>97.33333333333333</ele><time>2026-04-12T05:21:28.752Z</time></trkpt><trkpt lat="45.53613962639826" lon="11.369856821380123"><ele>98.0</ele><time>2026-04-12T05:21:29.752Z</time></trkpt><trkpt lat="45.53630319551781" lon="11.370045417557705"><ele>98.0</ele><time>2026-04-12T05:21:30.752Z</time></trkpt><trkpt lat="45.536494642295075" lon="11.370289774904231"><ele>98.0</ele><time>2026-04-12T05:21:31.752Z</time></trkpt><trkpt lat="45.5366699027864" lon="11.370503798852765"><ele>98.33333333333333</ele><time>2026-04-12T05:21:32.752Z</time></trkpt><trkpt lat="45.5368152634857" lon="11.370697590674249"><ele>98.66666666666666</ele><time>2026-04-12T05:21:33.752Z</time></trkpt><trkpt lat="45.53695134087537" lon="11.370861755696806"><ele>99.0</ele><time>2026-04-12T05:21:34.752Z</time></trkpt><trkpt lat="45.537084113630605" lon="11.371003721217543"><ele>99.33333333333334</ele><time>2026-04-12T05:21:35.752Z</time></trkpt><trkpt lat="45.53721316416318" lon="11.371145982113813"><ele>99.66666666666667</ele><time>2026-04-12T05:21:36.752Z</time></trkpt><trkpt lat="45.53735766274802" lon="11.371277168260683"><ele>100.0</ele><time>2026-04-12T05:21:37.752Z</time></trkpt><trkpt lat="45.53750609474112" lon="11.37139662347171"><ele>100.0</ele><time>2026-04-12T05:21:38.752Z</time></trkpt><trkpt lat="45.5376548891232" lon="11.371512284000962"><ele>100.0</ele><time>2026-04-12T05:21:39.752Z</time></trkpt><trkpt lat="45.53780568496392" lon="11.37163148576858"><ele>100.0</ele><time>2026-04-12T05:21:40.752Z</time></trkpt><trkpt lat="45.53794203620048" lon="11.371754936254332"><ele>100.0</ele><time>2026-04-12T05:21:41.752Z</time></trkpt><trkpt lat="45.53806079303332" lon="11.371877463125394"><ele>100.0</ele><time>2026-04-12T05:21:42.752Z</time></trkpt><trkpt lat="45.5381720486821" lon="11.371991409927906"><ele>100.0</ele><time>2026-04-12T05:21:43.752Z</time></trkpt><trkpt lat="45.53826956849754" lon="11.372121237259247"><ele>100.0</ele><time>2026-04-12T05:21:44.752Z</time></trkpt><trkpt lat="45.538373160057226" lon="11.372203936353044"><ele>100.0</ele><time>2026-04-12T05:21:45.752Z</time></trkpt><trkpt lat="45.538463567376965" lon="11.37230122282166"><ele>100.0</ele><time>2026-04-12T05:21:46.752Z</time></trkpt><trkpt lat="45.53854589802022" lon="11.372395973934045"><ele>100.0</ele><time>2026-04-12T05:21:47.752Z</time></trkpt><trkpt lat="45.53862374548864" lon="11.372471200970866"><ele>100.0</ele><time>2026-04-12T05:21:48.752Z</time></trkpt><trkpt lat="45.53869859098505" lon="11.37255588040056"><ele>100.0</ele><time>2026-04-12T05:21:49.752Z</time></trkpt><trkpt lat="45.538768549581455" lon="11.372629040849807"><ele>99.85714285714286</ele><time>2026-04-12T05:21:50.752Z</time></trkpt><trkpt lat="45.53883336593004" lon="11.372697718513553"><ele>99.71428571428572</ele><time>2026-04-12T05:21:51.752Z</time></trkpt><trkpt lat="45.53889329481075" lon="11.372762096857688"><ele>99.57142857142858</ele><time>2026-04-12T05:21:52.752Z</time></trkpt><trkpt lat="45.538952341607065" lon="11.372827310357914"><ele>99.42857142857143</ele><time>2026-04-12T05:21:53.752Z</time></trkpt><trkpt lat="45.53900467515636" lon="11.37288078664271"><ele>99.28571428571428</ele><time>2026-04-12T05:21:54.752Z</time></trkpt><trkpt lat="45.53905955024106" lon="11.372942488685272"><ele>99.14285714285715</ele><time>2026-04-12T05:21:55.752Z</time></trkpt><trkpt lat="45.53911020058359" lon="11.372999143349375"><ele>99.0</ele><time>2026-04-12T05:21:56.752Z</time></trkpt><trkpt lat="45.53921635321341" lon="11.373105813088463"><ele>99.5</ele><time>2026-04-12T05:21:58.752Z</time></trkpt><trkpt lat="45.53933224072185" lon="11.373160695818319"><ele>100.0</ele><time>2026-04-12T05:22:00.752Z</time></trkpt><trkpt lat="45.539440668352604" lon="11.37315918685317"><ele>100.5</ele><time>2026-04-12T05:22:02.752Z</time></trkpt><trkpt lat="45.53956771376634" lon="11.373190854719043"><ele>101.0</ele><time>2026-04-12T05:22:04.752Z</time></trkpt><trkpt lat="45.539662288626396" lon="11.373231727055407"><ele>101.0</ele><time>2026-04-12T05:22:05.752Z</time></trkpt><trkpt lat="45.539747203730265" lon="11.373283999379435"><ele>101.0</ele><time>2026-04-12T05:22:06.752Z</time></trkpt><trkpt lat="45.539814773245915" lon="11.373368601777939"><ele>101.0</ele><time>2026-04-12T05:22:07.752Z</time></trkpt><trkpt lat="45.53989564182449" lon="11.373483689225871"><ele>101.0</ele><time>2026-04-12T05:22:08.752Z</time></trkpt><trkpt lat="45.539974653428516" lon="11.373625382924327"><ele>101.0</ele><time>2026-04-12T05:22:09.752Z</time></trkpt><trkpt lat="45.54008360056913" lon="11.373802499102007"><ele>101.33333333333333</ele><time>2026-04-12T05:22:10.752Z</time></trkpt><trkpt lat="45.540214433177326" lon="11.374013747741046"><ele>101.66666666666666</ele><time>2026-04-12T05:22:11.752Z</time></trkpt><trkpt lat="45.5403754862073" lon="11.374247876454296"><ele>102.0</ele><time>2026-04-12T05:22:12.752Z</time></trkpt><trkpt lat="45.54056157964753" lon="11.374495957520683"><ele>102.0</ele><time>2026-04-12T05:22:13.752Z</time></trkpt><trkpt lat="45.54075166235664" lon="11.374731752437192"><ele>102.0</ele><time>2026-04-12T05:22:14.752Z</time></trkpt><trkpt lat="45.54092562221882" lon="11.374920537053747"><ele>102.0</ele><time>2026-04-12T05:22:15.752Z</time></trkpt><trkpt lat="45.541110787627474" lon="11.375114645799787"><ele>102.0</ele><time>2026-04-12T05:22:16.752Z</time></trkpt><trkpt lat="45.54131409738195" lon="11.375324664218649"><ele>102.0</ele><time>2026-04-12T05:22:17.752Z</time></trkpt><trkpt lat="45.541529148484955" lon="11.375557648087131"><ele>102.0</ele><time>2026-04-12T05:22:18.752Z</time></trkpt><trkpt lat="45.54176262151484" lon="11.375809916519474"><ele>102.0</ele><time>2026-04-12T05:22:19.752Z</time></trkpt><trkpt lat="45.54200731479101" lon="11.376064554181182"><ele>102.0</ele><time>2026-04-12T05:22:20.752Z</time></trkpt><trkpt lat="45.54222909280683" lon="11.376291450281045"><ele>103.0</ele><time>2026-04-12T05:22:21.752Z</time></trkpt><trkpt lat="45.5424183403315" lon="11.376485207561517"><ele>104.0</ele><time>2026-04-12T05:22:22.752Z</time></trkpt><trkpt lat="45.54259211835644" lon="11.376674418540324"><ele>104.0</ele><time>2026-04-12T05:22:23.752Z</time></trkpt><trkpt lat="45.54274852070048" lon="11.37687672633696"><ele>104.0</ele><time>2026-04-12T05:22:24.752Z</time></trkpt><trkpt lat="45.54288117525516" lon="11.377066878985792"><ele>104.0</ele><time>2026-04-12T05:22:25.752Z</time></trkpt><trkpt lat="45.54299433821395" lon="11.377254080648541"><ele>104.33333333333333</ele><time>2026-04-12T05:22:26.752Z</time></trkpt><trkpt lat="45.54311430512804" lon="11.377436084523467"><ele>104.66666666666666</ele><time>2026-04-12T05:22:27.752Z</time></trkpt><trkpt lat="45.54322421235067" lon="11.37764490885449"><ele>105.0</ele><time>2026-04-12T05:22:28.752Z</time></trkpt><trkpt lat="45.543337002518506" lon="11.377847224686525"><ele>104.0</ele><time>2026-04-12T05:22:29.752Z</time></trkpt><trkpt lat="45.54344465429745" lon="11.37802384911985"><ele>103.0</ele><time>2026-04-12T05:22:30.752Z</time></trkpt><trkpt lat="45.543533119703405" lon="11.378188353478022"><ele>102.0</ele><time>2026-04-12T05:22:31.752Z</time></trkpt><trkpt lat="45.5435897740058" lon="11.37834065044641"><ele>101.0</ele><time>2026-04-12T05:22:32.752Z</time></trkpt><trkpt lat="45.543627341478846" lon="11.378504494308498"><ele>101.0</ele><time>2026-04-12T05:22:33.752Z</time></trkpt><trkpt lat="45.543635639684574" lon="11.37865407326717"><ele>101.0</ele><time>2026-04-12T05:22:34.752Z</time></trkpt><trkpt lat="45.54364985529328" lon="11.3787959009111"><ele>101.0</ele><time>2026-04-12T05:22:35.752Z</time></trkpt><trkpt lat="45.543708245581804" lon="11.378899204144082"><ele>101.0</ele><time>2026-04-12T05:22:36.752Z</time></trkpt><trkpt lat="45.54381122546692" lon="11.378962647937076"><ele>101.0</ele><time>2026-04-12T05:22:37.752Z</time></trkpt><trkpt lat="45.54393581240665" lon="11.37900407846123"><ele>102.66666666666666</ele><time>2026-04-12T05:22:38.752Z</time></trkpt><trkpt lat="45.54407786523897" lon="11.379074395758074"><ele>104.33333333333334</ele><time>2026-04-12T05:22:39.752Z</time></trkpt><trkpt lat="45.54421463535865" lon="11.379217655997598"><ele>106.0</ele><time>2026-04-12T05:22:40.752Z</time></trkpt><trkpt lat="45.54434690103784" lon="11.379437180551394"><ele>106.0</ele><time>2026-04-12T05:22:41.752Z</time></trkpt><trkpt lat="45.54452765506087" lon="11.379609806956493"><ele>106.0</ele><time>2026-04-12T05:22:42.752Z</time></trkpt><trkpt lat="45.54471324962623" lon="11.37978697613089"><ele>106.0</ele><time>2026-04-12T05:22:43.752Z</time></trkpt><trkpt lat="45.54489087925544" lon="11.379925119916743"><ele>107.0</ele><time>2026-04-12T05:22:44.752Z</time></trkpt><trkpt lat="45.545067706046595" lon="11.380034757047287"><ele>108.0</ele><time>2026-04-12T05:22:45.752Z</time></trkpt><trkpt lat="45.545268416034766" lon="11.380129606428483"><ele>109.0</ele><time>2026-04-12T05:22:46.752Z</time></trkpt><trkpt lat="45.545486735904774" lon="11.380234062420383"><ele>109.5</ele><time>2026-04-12T05:22:47.752Z</time></trkpt><trkpt lat="45.54571089316323" lon="11.380355928666482"><ele>110.0</ele><time>2026-04-12T05:22:48.753Z</time></trkpt><trkpt lat="45.54594325712105" lon="11.380482412810206"><ele>110.0</ele><time>2026-04-12T05:22:49.753Z</time></trkpt><trkpt lat="45.54615775769149" lon="11.380597361065355"><ele>110.0</ele><time>2026-04-12T05:22:50.753Z</time></trkpt><trkpt lat="45.5463437576257" lon="11.38073044667706"><ele>110.0</ele><time>2026-04-12T05:22:51.753Z</time></trkpt><trkpt lat="45.54652755079045" lon="11.380822025029827"><ele>110.33333333333333</ele><time>2026-04-12T05:22:52.753Z</time></trkpt><trkpt lat="45.54670864165995" lon="11.380945609499657"><ele>110.66666666666666</ele><time>2026-04-12T05:22:53.753Z</time></trkpt><trkpt lat="45.54687190395942" lon="11.3811109623318"><ele>111.0</ele><time>2026-04-12T05:22:54.753Z</time></trkpt><trkpt lat="45.54703807757818" lon="11.381260232020903"><ele>111.33333333333334</ele><time>2026-04-12T05:22:55.753Z</time></trkpt><trkpt lat="45.54720593987163" lon="11.381393278639111"><ele>111.66666666666667</ele><time>2026-04-12T05:22:56.753Z</time></trkpt><trkpt lat="45.547370618712186" lon="11.381538654505368"><ele>112.0</ele><time>2026-04-12T05:22:57.753Z</time></trkpt><trkpt lat="45.54753289466158" lon="11.38168129156225"><ele>112.0</ele><time>2026-04-12T05:22:58.753Z</time></trkpt><trkpt lat="45.54769855324751" lon="11.381830305247997"><ele>112.0</ele><time>2026-04-12T05:22:59.753Z</time></trkpt><trkpt lat="45.54786684840105" lon="11.38198404406792"><ele>112.0</ele><time>2026-04-12T05:23:00.753Z</time></trkpt><trkpt lat="45.548041601433006" lon="11.38214257465486"><ele>111.66666666666667</ele><time>2026-04-12T05:23:01.753Z</time></trkpt><trkpt lat="45.54821238135451" lon="11.382294885575766"><ele>111.33333333333334</ele><time>2026-04-12T05:23:02.753Z</time></trkpt><trkpt lat="45.54837698428337" lon="11.382440618956558"><ele>111.0</ele><time>2026-04-12T05:23:03.753Z</time></trkpt><trkpt lat="45.54852759985882" lon="11.382574191758199"><ele>111.0</ele><time>2026-04-12T05:23:04.753Z</time></trkpt><trkpt lat="45.54867168852324" lon="11.382703115993703"><ele>111.0</ele><time>2026-04-12T05:23:05.753Z</time></trkpt><trkpt lat="45.54880497923186" lon="11.382820340032744"><ele>111.0</ele><time>2026-04-12T05:23:06.753Z</time></trkpt><trkpt lat="45.5489302708684" lon="11.382924384184932"><ele>111.0</ele><time>2026-04-12T05:23:07.753Z</time></trkpt><trkpt lat="45.549045797605785" lon="11.383020037670503"><ele>111.0</ele><time>2026-04-12T05:23:08.753Z</time></trkpt><trkpt lat="45.54915082176988" lon="11.38309359778242"><ele>111.0</ele><time>2026-04-12T05:23:09.753Z</time></trkpt><trkpt lat="45.54924989341199" lon="11.383169134410927"><ele>111.0</ele><time>2026-04-12T05:23:10.753Z</time></trkpt><trkpt lat="45.54932311675699" lon="11.383225815521634"><ele>111.0</ele><time>2026-04-12T05:23:11.753Z</time></trkpt><trkpt lat="45.54931152413198" lon="11.38345703341759"><ele>111.0</ele><time>2026-04-12T05:23:12.753Z</time></trkpt><trkpt lat="45.54934531252395" lon="11.383631102008975"><ele>111.0</ele><time>2026-04-12T05:23:13.753Z</time></trkpt><trkpt lat="45.549401528922054" lon="11.38378124340324"><ele>111.0</ele><time>2026-04-12T05:23:14.753Z</time></trkpt><trkpt lat="45.54944786547025" lon="11.38390776677134"><ele>111.0</ele><time>2026-04-12T05:23:15.753Z</time></trkpt><trkpt lat="45.549563738827494" lon="11.383969295085636"><ele>111.25</ele><time>2026-04-12T05:23:16.753Z</time></trkpt><trkpt lat="45.54968411106385" lon="11.384000507184682"><ele>111.5</ele><time>2026-04-12T05:23:17.753Z</time></trkpt><trkpt lat="45.54979653766719" lon="11.384002699740899"><ele>111.75</ele><time>2026-04-12T05:23:18.753Z</time></trkpt><trkpt lat="45.549904619380214" lon="11.383940805666281"><ele>112.0</ele><time>2026-04-12T05:23:19.753Z</time></trkpt><trkpt lat="45.549991455678416" lon="11.383849590603372"><ele>112.0</ele><time>2026-04-12T05:23:20.753Z</time></trkpt><trkpt lat="45.5500524490062" lon="11.383728823904915"><ele>111.99999999999999</ele><time>2026-04-12T05:23:21.753Z</time></trkpt><trkpt lat="45.55009247615867" lon="11.383574125528103"><ele>111.99999999999999</ele><time>2026-04-12T05:23:22.753Z</time></trkpt><trkpt lat="45.550107893822094" lon="11.383418672701804"><ele>112.0</ele><time>2026-04-12T05:23:23.753Z</time></trkpt><trkpt lat="45.55011337828817" lon="11.383268698462794"><ele>112.0</ele><time>2026-04-12T05:23:24.753Z</time></trkpt><trkpt lat="45.550116787509545" lon="11.383114549791404"><ele>112.25</ele><time>2026-04-12T05:23:25.753Z</time></trkpt><trkpt lat="45.550164284382575" lon="11.382964358075583"><ele>112.5</ele><time>2026-04-12T05:23:26.753Z</time></trkpt><trkpt lat="45.550227070997856" lon="11.382818862096983"><ele>112.75</ele><time>2026-04-12T05:23:27.753Z</time></trkpt><trkpt lat="45.550387902713226" lon="11.382751742724531"><ele>113.0</ele><time>2026-04-12T05:23:28.753Z</time></trkpt><trkpt lat="45.55054007087512" lon="11.382616023412215"><ele>113.33333333333333</ele><time>2026-04-12T05:23:29.753Z</time></trkpt><trkpt lat="45.55069789852684" lon="11.382462682540538"><ele>113.66666666666666</ele><time>2026-04-12T05:23:30.753Z</time></trkpt><trkpt lat="45.55087165275063" lon="11.382263026579887"><ele>114.0</ele><time>2026-04-12T05:23:31.753Z</time></trkpt><trkpt lat="45.55105735326063" lon="11.382075851640064"><ele>114.5</ele><time>2026-04-12T05:23:32.753Z</time></trkpt><trkpt lat="45.551273068508706" lon="11.381870508708186"><ele>115.0</ele><time>2026-04-12T05:23:33.753Z</time></trkpt><trkpt lat="45.55149458913992" lon="11.38163929993537"><ele>115.0</ele><time>2026-04-12T05:23:34.753Z</time></trkpt><trkpt lat="45.551740658388816" lon="11.38139747616367"><ele>115.0</ele><time>2026-04-12T05:23:35.753Z</time></trkpt><trkpt lat="45.551993016407124" lon="11.381138751381565"><ele>115.0</ele><time>2026-04-12T05:23:36.753Z</time></trkpt><trkpt lat="45.55222702623006" lon="11.380905285784362"><ele>115.0</ele><time>2026-04-12T05:23:37.753Z</time></trkpt><trkpt lat="45.55243209682346" lon="11.380695954561919"><ele>114.66666666666667</ele><time>2026-04-12T05:23:38.753Z</time></trkpt><trkpt lat="45.552615500470594" lon="11.380511008794977"><ele>114.33333333333334</ele><time>2026-04-12T05:23:39.753Z</time></trkpt><trkpt lat="45.55280454173527" lon="11.380342688846524"><ele>114.0</ele><time>2026-04-12T05:23:40.753Z</time></trkpt><trkpt lat="45.55299825257875" lon="11.380189268345257"><ele>114.0</ele><time>2026-04-12T05:23:41.753Z</time></trkpt><trkpt lat="45.55319700227599" lon="11.38004417712351"><ele>114.0</ele><time>2026-04-12T05:23:42.753Z</time></trkpt><trkpt lat="45.55339724654743" lon="11.379930338640257"><ele>114.0</ele><time>2026-04-12T05:23:43.753Z</time></trkpt><trkpt lat="45.55359003303466" lon="11.379829673575728"><ele>114.33333333333334</ele><time>2026-04-12T05:23:44.753Z</time></trkpt><trkpt lat="45.55376598903566" lon="11.379749494340759"><ele>114.66666666666667</ele><time>2026-04-12T05:23:45.753Z</time></trkpt><trkpt lat="45.55394024728061" lon="11.37967337051371"><ele>115.0</ele><time>2026-04-12T05:23:46.753Z</time></trkpt><trkpt lat="45.55411858948957" lon="11.379606906833583"><ele>115.0</ele><time>2026-04-12T05:23:47.753Z</time></trkpt><trkpt lat="45.55423827080463" lon="11.37958073803426"><ele>115.0</ele><time>2026-04-12T05:23:48.753Z</time></trkpt><trkpt lat="45.5543846306941" lon="11.379530572587308"><ele>115.0</ele><time>2026-04-12T05:23:49.753Z</time></trkpt><trkpt lat="45.55450516470366" lon="11.379499716131882"><ele>115.0</ele><time>2026-04-12T05:23:50.753Z</time></trkpt><trkpt lat="45.55461883640297" lon="11.379439394506107"><ele>115.2</ele><time>2026-04-12T05:23:51.753Z</time></trkpt><trkpt lat="45.55471915066993" lon="11.379489997425718"><ele>115.4</ele><time>2026-04-12T05:23:52.753Z</time></trkpt><trkpt lat="45.55478410640655" lon="11.379483334989617"><ele>115.6</ele><time>2026-04-12T05:23:53.753Z</time></trkpt><trkpt lat="45.55480821756805" lon="11.379241881396094"><ele>115.8</ele><time>2026-04-12T05:23:54.753Z</time></trkpt><trkpt lat="45.55484859627485" lon="11.379142167523883"><ele>116.0</ele><time>2026-04-12T05:23:56.753Z</time></trkpt><trkpt lat="45.554917036555175" lon="11.379106158491853"><ele>116.0</ele><time>2026-04-12T05:23:58.753Z</time></trkpt><trkpt lat="45.554936570580004" lon="11.379284788646007"><ele>116.0</ele><time>2026-04-12T05:23:59.753Z</time></trkpt><trkpt lat="45.55493631502678" lon="11.37909945800142"><ele>116.0</ele><time>2026-04-12T05:24:01.753Z</time></trkpt><trkpt lat="45.55486982020314" lon="11.378973456075258"><ele>116.0</ele><time>2026-04-12T05:25:28.754Z</time></trkpt><trkpt lat="45.55486823461514" lon="11.379111142967698"><ele>115.99999999999999</ele><time>2026-04-12T05:26:37.754Z</time></trkpt><trkpt lat="45.55491501947325" lon="11.379178447255244"><ele>116.0</ele><time>2026-04-12T05:26:41.754Z</time></trkpt><trkpt lat="45.55494935083454" lon="11.379264812903411"><ele>116.0</ele><time>2026-04-12T05:26:44.754Z</time></trkpt><trkpt lat="45.55500776761328" lon="11.379419096013917"><ele>116.0</ele><time>2026-04-12T05:26:47.754Z</time></trkpt><trkpt lat="45.555073734087365" lon="11.379485555750197"><ele>115.99999999999999</ele><time>2026-04-12T05:26:49.754Z</time></trkpt><trkpt lat="45.55514334834182" lon="11.379505328773606"><ele>116.0</ele><time>2026-04-12T05:26:50.754Z</time></trkpt><trkpt lat="45.55526248463145" lon="11.379507986766287"><ele>115.66666666666666</ele><time>2026-04-12T05:26:51.754Z</time></trkpt><trkpt lat="45.55542353890885" lon="11.379497867051176"><ele>115.33333333333334</ele><time>2026-04-12T05:26:52.754Z</time></trkpt><trkpt lat="45.55562817337543" lon="11.379465026811731"><ele>115.0</ele><time>2026-04-12T05:26:53.754Z</time></trkpt><trkpt lat="45.55586427520979" lon="11.3794205524367"><ele>115.0</ele><time>2026-04-12T05:26:54.754Z</time></trkpt><trkpt lat="45.55607110536679" lon="11.37938802101372"><ele>115.0</ele><time>2026-04-12T05:26:55.754Z</time></trkpt><trkpt lat="45.556246598685846" lon="11.379365875096875"><ele>115.0</ele><time>2026-04-12T05:26:56.754Z</time></trkpt><trkpt lat="45.55641889216371" lon="11.379345385795846"><ele>115.66666666666667</ele><time>2026-04-12T05:26:57.754Z</time></trkpt><trkpt lat="45.55659780877757" lon="11.37932278060166"><ele>116.33333333333334</ele><time>2026-04-12T05:26:58.754Z</time></trkpt><trkpt lat="45.55678133286984" lon="11.379314849139075"><ele>117.0</ele><time>2026-04-12T05:26:59.754Z</time></trkpt><trkpt lat="45.55695329837626" lon="11.379288919207479"><ele>117.25</ele><time>2026-04-12T05:27:00.755Z</time></trkpt><trkpt lat="45.557104908575106" lon="11.379270550334576"><ele>117.5</ele><time>2026-04-12T05:27:01.755Z</time></trkpt><trkpt lat="45.55724344916092" lon="11.37927967896254"><ele>117.75</ele><time>2026-04-12T05:27:02.755Z</time></trkpt><trkpt lat="45.55738107635929" lon="11.379276449024896"><ele>118.0</ele><time>2026-04-12T05:27:03.755Z</time></trkpt><trkpt lat="45.557522481385675" lon="11.379267933733372"><ele>118.0</ele><time>2026-04-12T05:27:04.755Z</time></trkpt><trkpt lat="45.55764851071342" lon="11.379273142455043"><ele>118.0</ele><time>2026-04-12T05:27:05.755Z</time></trkpt><trkpt lat="45.55777136092253" lon="11.37928515958171"><ele>118.0</ele><time>2026-04-12T05:27:06.755Z</time></trkpt><trkpt lat="45.55791178508521" lon="11.379239133998144"><ele>118.0</ele><time>2026-04-12T05:27:07.755Z</time></trkpt><trkpt lat="45.558068439231114" lon="11.379182767979694"><ele>118.66666666666667</ele><time>2026-04-12T05:27:08.755Z</time></trkpt><trkpt lat="45.55824837224435" lon="11.379165502269519"><ele>119.33333333333334</ele><time>2026-04-12T05:27:09.755Z</time></trkpt><trkpt lat="45.55844887041409" lon="11.37913902901286"><ele>120.0</ele><time>2026-04-12T05:27:10.755Z</time></trkpt><trkpt lat="45.558669254813616" lon="11.379113219898386"><ele>121.0</ele><time>2026-04-12T05:27:11.755Z</time></trkpt><trkpt lat="45.55890893306853" lon="11.379098072129647"><ele>122.0</ele><time>2026-04-12T05:27:12.755Z</time></trkpt><trkpt lat="45.55917703615559" lon="11.379073621641465"><ele>122.0</ele><time>2026-04-12T05:27:13.755Z</time></trkpt><trkpt lat="45.55945980075822" lon="11.379037586653517"><ele>122.0</ele><time>2026-04-12T05:27:14.755Z</time></trkpt><trkpt lat="45.55976621725759" lon="11.378998277238393"><ele>121.5</ele><time>2026-04-12T05:27:15.755Z</time></trkpt><trkpt lat="45.56006262557883" lon="11.378966746500053"><ele>121.0</ele><time>2026-04-12T05:27:16.755Z</time></trkpt><trkpt lat="45.56032508568727" lon="11.378936443313115"><ele>122.5</ele><time>2026-04-12T05:27:17.755Z</time></trkpt><trkpt lat="45.56056559421066" lon="11.378919132135223"><ele>124.0</ele><time>2026-04-12T05:27:18.755Z</time></trkpt><trkpt lat="45.560788811969374" lon="11.378897260370298"><ele>124.0</ele><time>2026-04-12T05:27:19.755Z</time></trkpt><trkpt lat="45.561004797345824" lon="11.378871227615587"><ele>124.0</ele><time>2026-04-12T05:27:20.755Z</time></trkpt><trkpt lat="45.56121139175054" lon="11.378844401841704"><ele>124.0</ele><time>2026-04-12T05:27:21.755Z</time></trkpt><trkpt lat="45.561403194094744" lon="11.378785250881508"><ele>124.0</ele><time>2026-04-12T05:27:22.755Z</time></trkpt><trkpt lat="45.561577133288154" lon="11.37869085333815"><ele>124.0</ele><time>2026-04-12T05:27:23.755Z</time></trkpt><trkpt lat="45.56174268095809" lon="11.37855601879617"><ele>124.0</ele><time>2026-04-12T05:27:24.755Z</time></trkpt><trkpt lat="45.561881283394946" lon="11.378403603856933"><ele>124.0</ele><time>2026-04-12T05:27:25.755Z</time></trkpt><trkpt lat="45.562003485850475" lon="11.378234170027335"><ele>124.0</ele><time>2026-04-12T05:27:26.755Z</time></trkpt><trkpt lat="45.56210179021671" lon="11.378047086238436"><ele>124.0</ele><time>2026-04-12T05:27:27.755Z</time></trkpt><trkpt lat="45.56219355439737" lon="11.37781397760239"><ele>124.66666666666667</ele><time>2026-04-12T05:27:28.755Z</time></trkpt><trkpt lat="45.56227841050098" lon="11.377564020383666"><ele>125.33333333333334</ele><time>2026-04-12T05:27:29.755Z</time></trkpt><trkpt lat="45.562355345026354" lon="11.377344627653077"><ele>126.0</ele><time>2026-04-12T05:27:30.755Z</time></trkpt><trkpt lat="45.56243502965249" lon="11.37715535598209"><ele>126.0</ele><time>2026-04-12T05:27:31.755Z</time></trkpt><trkpt lat="45.562508283735966" lon="11.376988712590443"><ele>126.0</ele><time>2026-04-12T05:27:32.755Z</time></trkpt><trkpt lat="45.56258042803999" lon="11.376826421972368"><ele>126.0</ele><time>2026-04-12T05:27:33.755Z</time></trkpt><trkpt lat="45.56266851678458" lon="11.376679357840443"><ele>126.0</ele><time>2026-04-12T05:27:34.755Z</time></trkpt><trkpt lat="45.56277145085917" lon="11.376551382099207"><ele>126.0</ele><time>2026-04-12T05:27:35.755Z</time></trkpt><trkpt lat="45.56286155550907" lon="11.376430041345676"><ele>126.0</ele><time>2026-04-12T05:27:36.755Z</time></trkpt><trkpt lat="45.56295242507267" lon="11.376302112432771"><ele>126.0</ele><time>2026-04-12T05:27:37.755Z</time></trkpt><trkpt lat="45.563032401951865" lon="11.376187882223226"><ele>126.0</ele><time>2026-04-12T05:27:38.755Z</time></trkpt><trkpt lat="45.56311508092792" lon="11.376074757381197"><ele>126.25</ele><time>2026-04-12T05:27:39.755Z</time></trkpt><trkpt lat="45.56320602841708" lon="11.375972564085329"><ele>126.5</ele><time>2026-04-12T05:27:40.755Z</time></trkpt><trkpt lat="45.56329609780557" lon="11.375831329672568"><ele>126.75</ele><time>2026-04-12T05:27:41.755Z</time></trkpt><trkpt lat="45.56340205350579" lon="11.375673469124155"><ele>127.0</ele><time>2026-04-12T05:27:42.755Z</time></trkpt><trkpt lat="45.56350597235991" lon="11.37552495354444"><ele>127.0</ele><time>2026-04-12T05:27:43.755Z</time></trkpt><trkpt lat="45.56360784275653" lon="11.375392804111081"><ele>127.0</ele><time>2026-04-12T05:27:44.755Z</time></trkpt><trkpt lat="45.56370158420057" lon="11.375262937828847"><ele>127.0</ele><time>2026-04-12T05:27:45.755Z</time></trkpt><trkpt lat="45.563782168362565" lon="11.375140090572732"><ele>127.0</ele><time>2026-04-12T05:27:46.755Z</time></trkpt><trkpt lat="45.563858680747074" lon="11.375015447562665"><ele>127.0</ele><time>2026-04-12T05:27:47.755Z</time></trkpt><trkpt lat="45.56393405017067" lon="11.3749051814152"><ele>126.99999999999999</ele><time>2026-04-12T05:27:48.755Z</time></trkpt><trkpt lat="45.56400092400065" lon="11.374793948038437"><ele>126.99999999999999</ele><time>2026-04-12T05:27:49.755Z</time></trkpt><trkpt lat="45.56407749289339" lon="11.374666094927374"><ele>127.0</ele><time>2026-04-12T05:27:50.755Z</time></trkpt><trkpt lat="45.56415760082511" lon="11.374545739075261"><ele>127.0</ele><time>2026-04-12T05:27:51.755Z</time></trkpt><trkpt lat="45.56424807256833" lon="11.374406220623964"><ele>127.66666666666667</ele><time>2026-04-12T05:27:52.755Z</time></trkpt><trkpt lat="45.5643642401212" lon="11.374303024912296"><ele>128.33333333333334</ele><time>2026-04-12T05:27:53.755Z</time></trkpt><trkpt lat="45.56450700617665" lon="11.374236752800511"><ele>129.0</ele><time>2026-04-12T05:27:54.755Z</time></trkpt><trkpt lat="45.564670080482195" lon="11.374249897956417"><ele>129.33333333333334</ele><time>2026-04-12T05:27:55.755Z</time></trkpt><trkpt lat="45.564823322948605" lon="11.374253186309945"><ele>129.66666666666669</ele><time>2026-04-12T05:27:56.755Z</time></trkpt><trkpt lat="45.56500356401493" lon="11.37422956517492"><ele>130.0</ele><time>2026-04-12T05:27:57.755Z</time></trkpt><trkpt lat="45.56513197919754" lon="11.374219434589648"><ele>130.0</ele><time>2026-04-12T05:27:58.755Z</time></trkpt><trkpt lat="45.565230746628906" lon="11.374209001583948"><ele>130.0</ele><time>2026-04-12T05:27:59.755Z</time></trkpt><trkpt lat="45.56530113201988" lon="11.37418825769888"><ele>130.0</ele><time>2026-04-12T05:28:00.755Z</time></trkpt><trkpt lat="45.56533367636151" lon="11.373966457533394"><ele>130.0</ele><time>2026-04-12T05:28:02.755Z</time></trkpt><trkpt lat="45.56522035283909" lon="11.37382592332246"><ele>130.16666666666669</ele><time>2026-04-12T05:28:04.755Z</time></trkpt><trkpt lat="45.56517747233975" lon="11.373723169355364"><ele>130.33333333333334</ele><time>2026-04-12T05:28:05.755Z</time></trkpt><trkpt lat="45.56518188034093" lon="11.37360232106151"><ele>130.5</ele><time>2026-04-12T05:28:06.755Z</time></trkpt><trkpt lat="45.565157386287225" lon="11.373511865683039"><ele>130.66666666666666</ele><time>2026-04-12T05:28:07.755Z</time></trkpt><trkpt lat="45.56513218548803" lon="11.373407980744291"><ele>130.83333333333331</ele><time>2026-04-12T05:28:08.755Z</time></trkpt><trkpt lat="45.565114393979655" lon="11.37330203477446"><ele>131.0</ele><time>2026-04-12T05:28:09.755Z</time></trkpt><trkpt lat="45.56510785157885" lon="11.373159862559573"><ele>131.16666666666666</ele><time>2026-04-12T05:28:10.755Z</time></trkpt><trkpt lat="45.565106326003004" lon="11.372987771029374"><ele>131.33333333333331</ele><time>2026-04-12T05:28:11.755Z</time></trkpt><trkpt lat="45.56510601103875" lon="11.37284978122204"><ele>131.5</ele><time>2026-04-12T05:28:12.755Z</time></trkpt><trkpt lat="45.5651053496287" lon="11.372729214303021"><ele>131.66666666666666</ele><time>2026-04-12T05:28:13.755Z</time></trkpt><trkpt lat="45.5650968278637" lon="11.372622151473331"><ele>131.83333333333334</ele><time>2026-04-12T05:28:14.755Z</time></trkpt><trkpt lat="45.56510496096256" lon="11.372526792643136"><ele>132.0</ele><time>2026-04-12T05:28:15.755Z</time></trkpt><trkpt lat="45.5650999151874" lon="11.372409607979922"><ele>132.0</ele><time>2026-04-12T05:28:16.755Z</time></trkpt><trkpt lat="45.565091668252855" lon="11.37231234399604"><ele>132.0</ele><time>2026-04-12T05:28:17.755Z</time></trkpt><trkpt lat="45.56502765827912" lon="11.372220612497204"><ele>132.0</ele><time>2026-04-12T05:28:19.755Z</time></trkpt><trkpt lat="45.565093790313455" lon="11.372178035051503"><ele>132.0</ele><time>2026-04-12T05:28:21.755Z</time></trkpt><trkpt lat="45.56498149843565" lon="11.372235406618035"><ele>132.0</ele><time>2026-04-12T05:28:24.755Z</time></trkpt><trkpt lat="45.565103471356075" lon="11.372223930756663"><ele>132.0</ele><time>2026-04-12T05:28:40.755Z</time></trkpt><trkpt lat="45.56497457945606" lon="11.372275694275164"><ele>132.0</ele><time>2026-04-12T05:28:58.755Z</time></trkpt><trkpt lat="45.56491219106463" lon="11.372238842661616"><ele>132.0</ele><time>2026-04-12T05:29:39.757Z</time></trkpt><trkpt lat="45.56485885424046" lon="11.372174998461926"><ele>132.0</ele><time>2026-04-12T05:29:46.757Z</time></trkpt><trkpt lat="45.56493887836809" lon="11.372111554583832"><ele>132.0</ele><time>2026-04-12T05:30:23.757Z</time></trkpt><trkpt lat="45.56487969276524" lon="11.3721585590662"><ele>132.0</ele><time>2026-04-12T05:32:54.758Z</time></trkpt><trkpt lat="45.56482346790674" lon="11.372203211721056"><ele>132.0</ele><time>2026-04-12T05:34:17.759Z</time></trkpt><trkpt lat="45.56502674172715" lon="11.372233126323085"><ele>132.0</ele><time>2026-04-12T05:34:53.759Z</time></trkpt><trkpt lat="45.56510666297922" lon="11.372358597997598"><ele>132.0</ele><time>2026-04-12T05:35:05.759Z</time></trkpt><trkpt lat="45.564960892135375" lon="11.372420386810017"><ele>132.0</ele><time>2026-04-12T05:35:07.759Z</time></trkpt><trkpt lat="45.565036327592075" lon="11.37248418312902"><ele>132.0</ele><time>2026-04-12T05:35:09.759Z</time></trkpt><trkpt lat="45.565078696871964" lon="11.37255787746523"><ele>132.0</ele><time>2026-04-12T05:35:14.759Z</time></trkpt><trkpt lat="45.564931955637135" lon="11.372499656015401"><ele>132.0</ele><time>2026-04-12T05:35:16.759Z</time></trkpt><trkpt lat="45.564832878720935" lon="11.372465713556906"><ele>132.0</ele><time>2026-04-12T05:35:22.759Z</time></trkpt><trkpt lat="45.56476815082132" lon="11.372366893085996"><ele>132.0</ele><time>2026-04-12T05:35:38.76Z</time></trkpt><trkpt lat="45.56471029893908" lon="11.372310477472332"><ele>132.0</ele><time>2026-04-12T05:35:46.76Z</time></trkpt><trkpt lat="45.56480127066096" lon="11.372408280798778"><ele>132.0</ele><time>2026-04-12T05:36:01.76Z</time></trkpt><trkpt lat="45.56489292784107" lon="11.372372694616196"><ele>132.0</ele><time>2026-04-12T05:36:05.76Z</time></trkpt><trkpt lat="45.564955603454216" lon="11.372360766699446"><ele>132.0</ele><time>2026-04-12T05:36:09.76Z</time></trkpt><trkpt lat="45.56483927417656" lon="11.37235486640192"><ele>132.0</ele><time>2026-04-12T05:36:29.76Z</time></trkpt><trkpt lat="45.56477692094939" lon="11.372385668012095"><ele>132.0</ele><time>2026-04-12T05:38:31.76Z</time></trkpt><trkpt lat="45.56454611480781" lon="11.37217671611474"><ele>132.0</ele><time>2026-04-12T05:39:12.76Z</time></trkpt><trkpt lat="45.56476731601545" lon="11.372371398745083"><ele>132.0</ele><time>2026-04-12T05:39:18.76Z</time></trkpt><trkpt lat="45.56454611480781" lon="11.37217671611474"><ele>132.0</ele><time>2026-04-12T05:39:31.76Z</time></trkpt><trkpt lat="45.564818413203405" lon="11.372340749802385"><ele>132.0</ele><time>2026-04-12T05:40:21.259Z</time></trkpt><trkpt lat="45.56479934811291" lon="11.372185645261602"><ele>132.0</ele><time>2026-04-12T05:40:38.761Z</time></trkpt><trkpt lat="45.564877466334266" lon="11.372225286926925"><ele>132.0</ele><time>2026-04-12T05:40:42.761Z</time></trkpt><trkpt lat="45.56493707424872" lon="11.372276823312484"><ele>132.0</ele><time>2026-04-12T05:40:46.761Z</time></trkpt><trkpt lat="45.56500856977769" lon="11.372251699999282"><ele>132.0</ele><time>2026-04-12T05:40:53.761Z</time></trkpt><trkpt lat="45.56510968766258" lon="11.372454506132797"><ele>132.0</ele><time>2026-04-12T05:43:14.762Z</time></trkpt><trkpt lat="45.56510558247568" lon="11.372549409055422"><ele>132.0</ele><time>2026-04-12T05:43:15.762Z</time></trkpt><trkpt lat="45.565099293454445" lon="11.372644106374334"><ele>132.0</ele><time>2026-04-12T05:43:16.762Z</time></trkpt><trkpt lat="45.5650725349099" lon="11.372768224601279"><ele>132.0</ele><time>2026-04-12T05:43:17.762Z</time></trkpt><trkpt lat="45.565072903102205" lon="11.372929531100686"><ele>132.0</ele><time>2026-04-12T05:43:18.762Z</time></trkpt><trkpt lat="45.56507373167899" lon="11.373089348509362"><ele>132.0</ele><time>2026-04-12T05:43:19.762Z</time></trkpt><trkpt lat="45.565076137304466" lon="11.373228875081443"><ele>131.83333333333334</ele><time>2026-04-12T05:43:20.762Z</time></trkpt><trkpt lat="45.565082977613955" lon="11.373349685796368"><ele>131.66666666666666</ele><time>2026-04-12T05:43:21.762Z</time></trkpt><trkpt lat="45.565097572435576" lon="11.373460871994865"><ele>131.5</ele><time>2026-04-12T05:43:22.762Z</time></trkpt><trkpt lat="45.565105270261135" lon="11.373586276345643"><ele>131.33333333333331</ele><time>2026-04-12T05:43:23.762Z</time></trkpt><trkpt lat="45.56515261495477" lon="11.373687309522207"><ele>131.16666666666666</ele><time>2026-04-12T05:43:24.762Z</time></trkpt><trkpt lat="45.56518771551944" lon="11.37379773743075"><ele>131.0</ele><time>2026-04-12T05:43:25.762Z</time></trkpt><trkpt lat="45.56522545644913" lon="11.373912253447545"><ele>130.75</ele><time>2026-04-12T05:43:26.762Z</time></trkpt><trkpt lat="45.56525865778102" lon="11.374017727291735"><ele>130.5</ele><time>2026-04-12T05:43:27.762Z</time></trkpt><trkpt lat="45.56530912474237" lon="11.374163139900302"><ele>130.25</ele><time>2026-04-12T05:43:29.762Z</time></trkpt><trkpt lat="45.56508335443311" lon="11.374232380359048"><ele>130.0</ele><time>2026-04-12T05:43:35.762Z</time></trkpt><trkpt lat="45.56511524248431" lon="11.37440942895745"><ele>130.0</ele><time>2026-04-12T05:43:36.762Z</time></trkpt><trkpt lat="45.56512241512546" lon="11.374513859355579"><ele>130.0</ele><time>2026-04-12T05:43:37.762Z</time></trkpt><trkpt lat="45.56513150917043" lon="11.374640506426887"><ele>130.0</ele><time>2026-04-12T05:43:38.762Z</time></trkpt><trkpt lat="45.56513570779531" lon="11.37475019594167"><ele>130.0</ele><time>2026-04-12T05:43:39.762Z</time></trkpt><trkpt lat="45.565132457130815" lon="11.374942661586003"><ele>130.0</ele><time>2026-04-12T05:43:41.762Z</time></trkpt><trkpt lat="45.565166540247425" lon="11.375092758506659"><ele>129.8</ele><time>2026-04-12T05:43:43.762Z</time></trkpt><trkpt lat="45.565206515702705" lon="11.37516369882151"><ele>129.6</ele><time>2026-04-12T05:43:44.762Z</time></trkpt><trkpt lat="45.56529404969443" lon="11.375191919577343"><ele>129.4</ele><time>2026-04-12T05:43:45.762Z</time></trkpt><trkpt lat="45.56540661891104" lon="11.375224871646699"><ele>129.2</ele><time>2026-04-12T05:43:46.762Z</time></trkpt><trkpt lat="45.56554187213032" lon="11.375275246671235"><ele>129.0</ele><time>2026-04-12T05:43:47.762Z</time></trkpt><trkpt lat="45.565686610670326" lon="11.375345756002844"><ele>130.25</ele><time>2026-04-12T05:43:48.763Z</time></trkpt><trkpt lat="45.56582484779954" lon="11.375381257989972"><ele>131.5</ele><time>2026-04-12T05:43:49.763Z</time></trkpt><trkpt lat="45.56594892203385" lon="11.375456565344855"><ele>132.75</ele><time>2026-04-12T05:43:50.763Z</time></trkpt><trkpt lat="45.566070712364" lon="11.37550872068686"><ele>134.0</ele><time>2026-04-12T05:43:51.763Z</time></trkpt><trkpt lat="45.56621240662512" lon="11.375567417675596"><ele>134.33333333333331</ele><time>2026-04-12T05:43:52.763Z</time></trkpt><trkpt lat="45.566359588380436" lon="11.375648986106484"><ele>134.66666666666666</ele><time>2026-04-12T05:43:53.763Z</time></trkpt><trkpt lat="45.56650763333492" lon="11.375718244335292"><ele>135.0</ele><time>2026-04-12T05:43:54.763Z</time></trkpt><trkpt lat="45.56666173193774" lon="11.375778922684061"><ele>135.0</ele><time>2026-04-12T05:43:55.763Z</time></trkpt><trkpt lat="45.5668181800708" lon="11.375843658052743"><ele>135.0</ele><time>2026-04-12T05:43:56.763Z</time></trkpt><trkpt lat="45.56697621215364" lon="11.37590016110568"><ele>135.0</ele><time>2026-04-12T05:43:57.763Z</time></trkpt><trkpt lat="45.56712654444978" lon="11.375915145347442"><ele>135.25</ele><time>2026-04-12T05:43:58.763Z</time></trkpt><trkpt lat="45.56726345099924" lon="11.375926866942304"><ele>135.5</ele><time>2026-04-12T05:43:59.763Z</time></trkpt><trkpt lat="45.56740217986143" lon="11.37593961013859"><ele>135.75</ele><time>2026-04-12T05:44:00.763Z</time></trkpt><trkpt lat="45.56752804434916" lon="11.375955882055111"><ele>136.0</ele><time>2026-04-12T05:44:01.763Z</time></trkpt><trkpt lat="45.567646873791006" lon="11.375994671285616"><ele>136.0</ele><time>2026-04-12T05:44:02.763Z</time></trkpt><trkpt lat="45.56774435522186" lon="11.37601960753889"><ele>136.0</ele><time>2026-04-12T05:44:03.763Z</time></trkpt><trkpt lat="45.567817681022305" lon="11.376026294567561"><ele>136.0</ele><time>2026-04-12T05:44:04.763Z</time></trkpt><trkpt lat="45.567883212550036" lon="11.376050906638847"><ele>136.0</ele><time>2026-04-12T05:44:05.763Z</time></trkpt><trkpt lat="45.56793351890777" lon="11.376111805418807"><ele>136.0</ele><time>2026-04-12T05:44:06.763Z</time></trkpt><trkpt lat="45.56799711512041" lon="11.376140266626823"><ele>136.0</ele><time>2026-04-12T05:44:07.763Z</time></trkpt><trkpt lat="45.56808708833344" lon="11.376159539879676"><ele>135.25</ele><time>2026-04-12T05:44:08.763Z</time></trkpt><trkpt lat="45.56820314259231" lon="11.376166119907639"><ele>134.5</ele><time>2026-04-12T05:44:09.763Z</time></trkpt><trkpt lat="45.56834061485161" lon="11.376205810355927"><ele>133.75</ele><time>2026-04-12T05:44:10.763Z</time></trkpt><trkpt lat="45.56845791338123" lon="11.376238782346258"><ele>133.0</ele><time>2026-04-12T05:44:11.763Z</time></trkpt><trkpt lat="45.56858194316189" lon="11.37629743943002"><ele>133.25</ele><time>2026-04-12T05:44:12.763Z</time></trkpt><trkpt lat="45.568717020766435" lon="11.376335125305381"><ele>133.5</ele><time>2026-04-12T05:44:13.763Z</time></trkpt><trkpt lat="45.56885735455995" lon="11.376373871072607"><ele>133.75</ele><time>2026-04-12T05:44:14.763Z</time></trkpt><trkpt lat="45.56901011203864" lon="11.376417618580039"><ele>134.0</ele><time>2026-04-12T05:44:15.763Z</time></trkpt><trkpt lat="45.56915782311359" lon="11.376465374339427"><ele>133.5</ele><time>2026-04-12T05:44:16.763Z</time></trkpt><trkpt lat="45.56929558464097" lon="11.376497229606823"><ele>133.0</ele><time>2026-04-12T05:44:17.763Z</time></trkpt><trkpt lat="45.569437141860554" lon="11.376536200112621"><ele>132.5</ele><time>2026-04-12T05:44:18.763Z</time></trkpt><trkpt lat="45.569569562489214" lon="11.376568813209317"><ele>132.0</ele><time>2026-04-12T05:44:19.763Z</time></trkpt><trkpt lat="45.56968871771556" lon="11.376603990393788"><ele>132.0</ele><time>2026-04-12T05:44:20.763Z</time></trkpt><trkpt lat="45.56978652667218" lon="11.376680158873718"><ele>132.0</ele><time>2026-04-12T05:44:21.763Z</time></trkpt><trkpt lat="45.569904933223214" lon="11.376631369078936"><ele>132.0</ele><time>2026-04-12T05:44:22.763Z</time></trkpt><trkpt lat="45.57002044650456" lon="11.376655461822182"><ele>132.0</ele><time>2026-04-12T05:44:23.763Z</time></trkpt><trkpt lat="45.57014859525592" lon="11.376699184804506"><ele>132.0</ele><time>2026-04-12T05:44:24.763Z</time></trkpt><trkpt lat="45.57029161783567" lon="11.376763706466116"><ele>132.0</ele><time>2026-04-12T05:44:25.763Z</time></trkpt><trkpt lat="45.57045258540793" lon="11.37681573507432"><ele>132.0</ele><time>2026-04-12T05:44:26.763Z</time></trkpt><trkpt lat="45.57063091067031" lon="11.376848103476531"><ele>133.0</ele><time>2026-04-12T05:44:27.763Z</time></trkpt><trkpt lat="45.57081028242469" lon="11.376899835093244"><ele>134.0</ele><time>2026-04-12T05:44:28.763Z</time></trkpt><trkpt lat="45.57098163806843" lon="11.376950595413854"><ele>135.0</ele><time>2026-04-12T05:44:29.763Z</time></trkpt><trkpt lat="45.57113939352491" lon="11.376992023135267"><ele>135.0</ele><time>2026-04-12T05:44:30.763Z</time></trkpt><trkpt lat="45.57128698522435" lon="11.377039963675639"><ele>135.0</ele><time>2026-04-12T05:44:31.763Z</time></trkpt><trkpt lat="45.571416574169966" lon="11.377069957260112"><ele>135.0</ele><time>2026-04-12T05:44:32.763Z</time></trkpt><trkpt lat="45.57152948368906" lon="11.377078888175468"><ele>135.0</ele><time>2026-04-12T05:44:33.763Z</time></trkpt><trkpt lat="45.57163043547507" lon="11.377072255650797"><ele>135.0</ele><time>2026-04-12T05:44:34.763Z</time></trkpt><trkpt lat="45.5717175098713" lon="11.377059025579303"><ele>135.0</ele><time>2026-04-12T05:44:35.763Z</time></trkpt><trkpt lat="45.571792407618155" lon="11.377104326557625"><ele>135.0</ele><time>2026-04-12T05:44:36.763Z</time></trkpt><trkpt lat="45.57185983489392" lon="11.377179674146712"><ele>135.0</ele><time>2026-04-12T05:44:37.763Z</time></trkpt><trkpt lat="45.5718976546719" lon="11.37730696229573"><ele>135.0</ele><time>2026-04-12T05:44:38.763Z</time></trkpt><trkpt lat="45.5719198670439" lon="11.377470394108991"><ele>135.0</ele><time>2026-04-12T05:44:39.763Z</time></trkpt><trkpt lat="45.57192743801835" lon="11.377655886064018"><ele>135.0</ele><time>2026-04-12T05:44:40.763Z</time></trkpt><trkpt lat="45.571938594135226" lon="11.377866711545861"><ele>135.0</ele><time>2026-04-12T05:44:41.763Z</time></trkpt><trkpt lat="45.57193978782982" lon="11.378100033995372"><ele>135.0</ele><time>2026-04-12T05:44:42.763Z</time></trkpt><trkpt lat="45.57194998505654" lon="11.378350529258592"><ele>135.0</ele><time>2026-04-12T05:44:43.763Z</time></trkpt><trkpt lat="45.57195583825953" lon="11.378598001096188"><ele>135.0</ele><time>2026-04-12T05:44:44.763Z</time></trkpt><trkpt lat="45.571963537243285" lon="11.37881570754232"><ele>135.0</ele><time>2026-04-12T05:44:45.763Z</time></trkpt><trkpt lat="45.57195997469707" lon="11.379036768705225"><ele>134.75</ele><time>2026-04-12T05:44:46.763Z</time></trkpt><trkpt lat="45.571960475610034" lon="11.379254512777218"><ele>134.5</ele><time>2026-04-12T05:44:47.763Z</time></trkpt><trkpt lat="45.57196188945482" lon="11.379464042034094"><ele>134.25</ele><time>2026-04-12T05:44:48.763Z</time></trkpt><trkpt lat="45.571959330937894" lon="11.379672082944772"><ele>134.0</ele><time>2026-04-12T05:44:49.763Z</time></trkpt><trkpt lat="45.57195406530755" lon="11.37986332036736"><ele>133.8</ele><time>2026-04-12T05:44:50.763Z</time></trkpt><trkpt lat="45.57194840839606" lon="11.380038120134017"><ele>133.60000000000002</ele><time>2026-04-12T05:44:51.763Z</time></trkpt><trkpt lat="45.57194279856985" lon="11.380200876080776"><ele>133.4</ele><time>2026-04-12T05:44:52.763Z</time></trkpt><trkpt lat="45.57194923272468" lon="11.380344579244259"><ele>133.20000000000002</ele><time>2026-04-12T05:44:53.763Z</time></trkpt><trkpt lat="45.57189705309831" lon="11.380470581119637"><ele>133.0</ele><time>2026-04-12T05:44:54.763Z</time></trkpt><trkpt lat="45.571833169443785" lon="11.38059083546834"><ele>133.5</ele><time>2026-04-12T05:44:55.763Z</time></trkpt><trkpt lat="45.57175807719547" lon="11.380715470034053"><ele>134.0</ele><time>2026-04-12T05:44:56.763Z</time></trkpt><trkpt lat="45.57165885685309" lon="11.380839736196913"><ele>134.5</ele><time>2026-04-12T05:44:57.763Z</time></trkpt><trkpt lat="45.57153729957091" lon="11.380969971089675"><ele>135.0</ele><time>2026-04-12T05:44:58.763Z</time></trkpt><trkpt lat="45.57136001401743" lon="11.381047424899656"><ele>135.0</ele><time>2026-04-12T05:44:59.763Z</time></trkpt><trkpt lat="45.57116208409096" lon="11.381139884776253"><ele>135.0</ele><time>2026-04-12T05:45:00.763Z</time></trkpt><trkpt lat="45.57094968292373" lon="11.381226131432724"><ele>135.0</ele><time>2026-04-12T05:45:01.763Z</time></trkpt><trkpt lat="45.57076181334015" lon="11.381314082121285"><ele>134.33333333333334</ele><time>2026-04-12T05:45:02.763Z</time></trkpt><trkpt lat="45.5705693012099" lon="11.381415681130562"><ele>133.66666666666669</ele><time>2026-04-12T05:45:03.763Z</time></trkpt><trkpt lat="45.57037000850061" lon="11.381526927447375"><ele>133.0</ele><time>2026-04-12T05:45:04.763Z</time></trkpt><trkpt lat="45.57017189055214" lon="11.381651467259399"><ele>132.66666666666669</ele><time>2026-04-12T05:45:05.763Z</time></trkpt><trkpt lat="45.56996652708237" lon="11.381777632159425"><ele>132.33333333333334</ele><time>2026-04-12T05:45:06.763Z</time></trkpt><trkpt lat="45.56976195126243" lon="11.3819078533922"><ele>132.0</ele><time>2026-04-12T05:45:07.763Z</time></trkpt><trkpt lat="45.56957696922177" lon="11.382045096139617"><ele>131.33333333333334</ele><time>2026-04-12T05:45:08.763Z</time></trkpt><trkpt lat="45.56940161774537" lon="11.38218068036895"><ele>130.66666666666669</ele><time>2026-04-12T05:45:09.763Z</time></trkpt><trkpt lat="45.56921634710556" lon="11.382309158301885"><ele>130.0</ele><time>2026-04-12T05:45:10.763Z</time></trkpt><trkpt lat="45.569021044234354" lon="11.382432601284995"><ele>130.0</ele><time>2026-04-12T05:45:11.763Z</time></trkpt><trkpt lat="45.56884896575694" lon="11.382555061128006"><ele>130.0</ele><time>2026-04-12T05:45:12.763Z</time></trkpt><trkpt lat="45.56869251888476" lon="11.38266329400941"><ele>130.0</ele><time>2026-04-12T05:45:13.763Z</time></trkpt><trkpt lat="45.56855111443188" lon="11.382757946352978"><ele>130.0</ele><time>2026-04-12T05:45:14.763Z</time></trkpt><trkpt lat="45.568431077347185" lon="11.382852961288291"><ele>130.0</ele><time>2026-04-12T05:45:15.763Z</time></trkpt><trkpt lat="45.56832866788123" lon="11.382947157576467"><ele>130.0</ele><time>2026-04-12T05:45:16.763Z</time></trkpt><trkpt lat="45.56824966941531" lon="11.383063377523529"><ele>130.0</ele><time>2026-04-12T05:45:17.763Z</time></trkpt><trkpt lat="45.56817817631634" lon="11.383174281595842"><ele>130.0</ele><time>2026-04-12T05:45:18.763Z</time></trkpt><trkpt lat="45.568168795049914" lon="11.383321565713853"><ele>130.0</ele><time>2026-04-12T05:45:19.763Z</time></trkpt><trkpt lat="45.56814308052556" lon="11.383449718325485"><ele>130.0</ele><time>2026-04-12T05:45:20.763Z</time></trkpt><trkpt lat="45.568121283979956" lon="11.383572382080596"><ele>130.0</ele><time>2026-04-12T05:45:21.763Z</time></trkpt><trkpt lat="45.56808063444363" lon="11.38369291778606"><ele>130.0</ele><time>2026-04-12T05:45:22.763Z</time></trkpt><trkpt lat="45.567997800090986" lon="11.38379350724156"><ele>130.4</ele><time>2026-04-12T05:45:23.763Z</time></trkpt><trkpt lat="45.567940671383994" lon="11.383919750668891"><ele>130.8</ele><time>2026-04-12T05:45:24.763Z</time></trkpt><trkpt lat="45.56792408735056" lon="11.384060996408717"><ele>131.2</ele><time>2026-04-12T05:45:25.763Z</time></trkpt><trkpt lat="45.567932656269356" lon="11.384200719450853"><ele>131.6</ele><time>2026-04-12T05:45:26.763Z</time></trkpt><trkpt lat="45.567969188902545" lon="11.384331987998376"><ele>132.0</ele><time>2026-04-12T05:45:27.763Z</time></trkpt><trkpt lat="45.568043385961445" lon="11.384429994855608"><ele>132.0</ele><time>2026-04-12T05:45:28.763Z</time></trkpt><trkpt lat="45.56813431693993" lon="11.38449967907842"><ele>132.0</ele><time>2026-04-12T05:45:29.763Z</time></trkpt><trkpt lat="45.56823927897132" lon="11.384526956648903"><ele>132.0</ele><time>2026-04-12T05:45:30.763Z</time></trkpt><trkpt lat="45.56834564744337" lon="11.384497047201664"><ele>132.0</ele><time>2026-04-12T05:45:31.763Z</time></trkpt><trkpt lat="45.56844883319874" lon="11.384410989103294"><ele>132.0</ele><time>2026-04-12T05:45:32.763Z</time></trkpt><trkpt lat="45.568535905845536" lon="11.384276554624503"><ele>132.0</ele><time>2026-04-12T05:45:33.763Z</time></trkpt><trkpt lat="45.56860992040075" lon="11.384157127813891"><ele>132.0</ele><time>2026-04-12T05:45:34.763Z</time></trkpt><trkpt lat="45.56871561796341" lon="11.384094195556626"><ele>132.0</ele><time>2026-04-12T05:45:35.763Z</time></trkpt><trkpt lat="45.56884905105556" lon="11.384070360629552"><ele>132.0</ele><time>2026-04-12T05:45:36.763Z</time></trkpt><trkpt lat="45.56899904217767" lon="11.384063019952622"><ele>132.0</ele><time>2026-04-12T05:45:37.763Z</time></trkpt><trkpt lat="45.56917242397053" lon="11.384057274541828"><ele>132.0</ele><time>2026-04-12T05:45:38.763Z</time></trkpt><trkpt lat="45.569365894276515" lon="11.384045486523775"><ele>132.0</ele><time>2026-04-12T05:45:39.763Z</time></trkpt><trkpt lat="45.56955213328453" lon="11.384025917765792"><ele>132.0</ele><time>2026-04-12T05:45:40.763Z</time></trkpt><trkpt lat="45.569718649854956" lon="11.383994636935547"><ele>132.0</ele><time>2026-04-12T05:45:41.763Z</time></trkpt><trkpt lat="45.56986462171359" lon="11.38396745779644"><ele>132.0</ele><time>2026-04-12T05:45:42.763Z</time></trkpt><trkpt lat="45.5700123950075" lon="11.383957401540481"><ele>132.0</ele><time>2026-04-12T05:45:43.763Z</time></trkpt><trkpt lat="45.57015970178495" lon="11.383941780571845"><ele>132.0</ele><time>2026-04-12T05:45:44.763Z</time></trkpt><trkpt lat="45.57029568290928" lon="11.383931644811994"><ele>132.0</ele><time>2026-04-12T05:45:45.763Z</time></trkpt><trkpt lat="45.57041961064392" lon="11.3839136376863"><ele>132.0</ele><time>2026-04-12T05:45:46.763Z</time></trkpt><trkpt lat="45.57052152098983" lon="11.383902411916285"><ele>131.83333333333334</ele><time>2026-04-12T05:45:47.763Z</time></trkpt><trkpt lat="45.57060798955631" lon="11.383899380606092"><ele>131.66666666666666</ele><time>2026-04-12T05:45:48.763Z</time></trkpt><trkpt lat="45.57069636736191" lon="11.383898100615085"><ele>131.5</ele><time>2026-04-12T05:45:49.763Z</time></trkpt><trkpt lat="45.57077683951099" lon="11.383930690905766"><ele>131.33333333333331</ele><time>2026-04-12T05:45:50.763Z</time></trkpt><trkpt lat="45.57083238629912" lon="11.383996272146968"><ele>131.16666666666666</ele><time>2026-04-12T05:45:51.763Z</time></trkpt><trkpt lat="45.57088266417004" lon="11.384068447694322"><ele>131.0</ele><time>2026-04-12T05:45:52.763Z</time></trkpt><trkpt lat="45.57097111223725" lon="11.384163259856944"><ele>131.0</ele><time>2026-04-12T05:45:54.764Z</time></trkpt><trkpt lat="45.57095482932505" lon="11.384005585985225"><ele>131.0</ele><time>2026-04-12T05:46:11.764Z</time></trkpt><trkpt lat="45.57087749486185" lon="11.384003162357798"><ele>131.0</ele><time>2026-04-12T05:46:12.764Z</time></trkpt><trkpt lat="45.57081713284031" lon="11.383973788221313"><ele>131.0</ele><time>2026-04-12T05:46:13.764Z</time></trkpt><trkpt lat="45.57069733165021" lon="11.383931449216815"><ele>131.0</ele><time>2026-04-12T05:46:15.764Z</time></trkpt><trkpt lat="45.57062203228073" lon="11.383935944058912"><ele>131.0</ele><time>2026-04-12T05:46:16.764Z</time></trkpt><trkpt lat="45.57051364665178" lon="11.383910546310808"><ele>131.0</ele><time>2026-04-12T05:46:17.764Z</time></trkpt><trkpt lat="45.57034205264997" lon="11.383885387665611"><ele>131.0</ele><time>2026-04-12T05:46:18.764Z</time></trkpt><trkpt lat="45.57015770863182" lon="11.383890943517143"><ele>131.2</ele><time>2026-04-12T05:46:19.764Z</time></trkpt><trkpt lat="45.57002046293024" lon="11.383914033823876"><ele>131.39999999999998</ele><time>2026-04-12T05:46:20.764Z</time></trkpt><trkpt lat="45.56991415310168" lon="11.383931745482117"><ele>131.6</ele><time>2026-04-12T05:46:21.764Z</time></trkpt><trkpt lat="45.569839308916706" lon="11.38393365660396"><ele>131.79999999999998</ele><time>2026-04-12T05:46:22.764Z</time></trkpt><trkpt lat="45.56973371609458" lon="11.383836075709464"><ele>132.0</ele><time>2026-04-12T05:46:24.764Z</time></trkpt><trkpt lat="45.56967904678128" lon="11.383709731797806"><ele>132.0</ele><time>2026-04-12T05:46:26.764Z</time></trkpt><trkpt lat="45.56967156027182" lon="11.383579509597975"><ele>132.0</ele><time>2026-04-12T05:46:27.764Z</time></trkpt><trkpt lat="45.56960159079759" lon="11.383702752445027"><ele>132.0</ele><time>2026-04-12T05:46:30.764Z</time></trkpt><trkpt lat="45.56953131580066" lon="11.383803539989032"><ele>132.0</ele><time>2026-04-12T05:49:57.765Z</time></trkpt><trkpt lat="45.56943532006858" lon="11.383906929592708"><ele>132.0</ele><time>2026-04-12T05:49:58.765Z</time></trkpt><trkpt lat="45.56947825455127" lon="11.384017686963217"><ele>132.0</ele><time>2026-04-12T05:50:00.765Z</time></trkpt><trkpt lat="45.5696041035686" lon="11.384075701770152"><ele>132.0</ele><time>2026-04-12T05:50:02.765Z</time></trkpt><trkpt lat="45.56968424949766" lon="11.38404084679233"><ele>132.0</ele><time>2026-04-12T05:50:03.765Z</time></trkpt><trkpt lat="45.569753123703016" lon="11.38403524641375"><ele>132.0</ele><time>2026-04-12T05:50:04.765Z</time></trkpt><trkpt lat="45.569833726878414" lon="11.38402444024793"><ele>132.0</ele><time>2026-04-12T05:50:05.765Z</time></trkpt><trkpt lat="45.569952890643556" lon="11.383981674381843"><ele>132.0</ele><time>2026-04-12T05:50:06.766Z</time></trkpt><trkpt lat="45.570092561242184" lon="11.383952966704362"><ele>132.0</ele><time>2026-04-12T05:50:07.766Z</time></trkpt><trkpt lat="45.57023023493944" lon="11.383934393121534"><ele>132.0</ele><time>2026-04-12T05:50:08.766Z</time></trkpt><trkpt lat="45.570338277198964" lon="11.383925202509932"><ele>132.0</ele><time>2026-04-12T05:50:09.766Z</time></trkpt><trkpt lat="45.57045739481139" lon="11.38391843406858"><ele>131.75</ele><time>2026-04-12T05:50:10.766Z</time></trkpt><trkpt lat="45.570576766455396" lon="11.383903568658942"><ele>131.5</ele><time>2026-04-12T05:50:11.766Z</time></trkpt><trkpt lat="45.57071436369478" lon="11.383876242146215"><ele>131.25</ele><time>2026-04-12T05:50:12.766Z</time></trkpt><trkpt lat="45.570860502696995" lon="11.383855588315223"><ele>131.0</ele><time>2026-04-12T05:50:13.766Z</time></trkpt><trkpt lat="45.5709870262878" lon="11.383828822299858"><ele>131.75</ele><time>2026-04-12T05:50:14.766Z</time></trkpt><trkpt lat="45.57110199074956" lon="11.383798822743"><ele>132.5</ele><time>2026-04-12T05:50:15.766Z</time></trkpt><trkpt lat="45.57122943187649" lon="11.383788465525102"><ele>133.25</ele><time>2026-04-12T05:50:16.766Z</time></trkpt><trkpt lat="45.57137523919625" lon="11.383787145566014"><ele>134.0</ele><time>2026-04-12T05:50:17.766Z</time></trkpt><trkpt lat="45.571545406546605" lon="11.383772159377159"><ele>134.0</ele><time>2026-04-12T05:50:18.766Z</time></trkpt><trkpt lat="45.5717166776585" lon="11.383781580102564"><ele>134.0</ele><time>2026-04-12T05:50:19.766Z</time></trkpt><trkpt lat="45.57190046356689" lon="11.383762680293177"><ele>134.0</ele><time>2026-04-12T05:50:20.766Z</time></trkpt><trkpt lat="45.572057696313216" lon="11.383724808446825"><ele>134.0</ele><time>2026-04-12T05:50:21.766Z</time></trkpt><trkpt lat="45.572249321062564" lon="11.383706529961527"><ele>134.0</ele><time>2026-04-12T05:50:22.766Z</time></trkpt><trkpt lat="45.5724395426361" lon="11.383687000241002"><ele>134.0</ele><time>2026-04-12T05:50:23.766Z</time></trkpt><trkpt lat="45.572648733970404" lon="11.383648651169425"><ele>134.66666666666666</ele><time>2026-04-12T05:50:24.766Z</time></trkpt><trkpt lat="45.572878052055785" lon="11.383636866076259"><ele>135.33333333333334</ele><time>2026-04-12T05:50:25.766Z</time></trkpt><trkpt lat="45.573096782546315" lon="11.383608681373085"><ele>136.0</ele><time>2026-04-12T05:50:26.766Z</time></trkpt><trkpt lat="45.573315702079995" lon="11.383591378017153"><ele>136.0</ele><time>2026-04-12T05:50:27.766Z</time></trkpt><trkpt lat="45.57355851598495" lon="11.383569473248969"><ele>136.0</ele><time>2026-04-12T05:50:28.766Z</time></trkpt><trkpt lat="45.57379099832619" lon="11.383534251498814"><ele>136.0</ele><time>2026-04-12T05:50:29.766Z</time></trkpt><trkpt lat="45.57400201161387" lon="11.383514178194844"><ele>136.0</ele><time>2026-04-12T05:50:30.766Z</time></trkpt><trkpt lat="45.5742222817449" lon="11.38349548526438"><ele>136.0</ele><time>2026-04-12T05:50:31.766Z</time></trkpt><trkpt lat="45.574440993700584" lon="11.383466373736717"><ele>136.0</ele><time>2026-04-12T05:50:32.766Z</time></trkpt><trkpt lat="45.5746563238089" lon="11.383430750082429"><ele>136.0</ele><time>2026-04-12T05:50:33.766Z</time></trkpt><trkpt lat="45.574869247070296" lon="11.3834030866035"><ele>136.0</ele><time>2026-04-12T05:50:34.766Z</time></trkpt><trkpt lat="45.57508331234359" lon="11.383375342477878"><ele>136.0</ele><time>2026-04-12T05:50:35.766Z</time></trkpt><trkpt lat="45.575298044598306" lon="11.383346703854102"><ele>136.0</ele><time>2026-04-12T05:50:36.766Z</time></trkpt><trkpt lat="45.57551681139606" lon="11.383330516177432"><ele>136.0</ele><time>2026-04-12T05:50:37.766Z</time></trkpt><trkpt lat="45.57572831789332" lon="11.383309883110114"><ele>136.33333333333334</ele><time>2026-04-12T05:50:38.766Z</time></trkpt><trkpt lat="45.57594244590712" lon="11.383296421733125"><ele>136.66666666666666</ele><time>2026-04-12T05:50:39.766Z</time></trkpt><trkpt lat="45.576151786358786" lon="11.383284092663542"><ele>137.0</ele><time>2026-04-12T05:50:40.766Z</time></trkpt><trkpt lat="45.57636601177291" lon="11.383266047458008"><ele>137.0</ele><time>2026-04-12T05:50:41.766Z</time></trkpt><trkpt lat="45.576573067781965" lon="11.383241935929865"><ele>137.0</ele><time>2026-04-12T05:50:42.766Z</time></trkpt><trkpt lat="45.5767774651742" lon="11.38321558965709"><ele>137.0</ele><time>2026-04-12T05:50:43.766Z</time></trkpt><trkpt lat="45.576982504964064" lon="11.383193244495219"><ele>137.66666666666666</ele><time>2026-04-12T05:50:44.766Z</time></trkpt><trkpt lat="45.57718538444544" lon="11.383176016580592"><ele>138.33333333333334</ele><time>2026-04-12T05:50:45.766Z</time></trkpt><trkpt lat="45.57738237168983" lon="11.38315538163316"><ele>139.0</ele><time>2026-04-12T05:50:46.766Z</time></trkpt><trkpt lat="45.577583544355946" lon="11.383133897364422"><ele>139.0</ele><time>2026-04-12T05:50:47.766Z</time></trkpt><trkpt lat="45.5777840830727" lon="11.38309444962078"><ele>139.0</ele><time>2026-04-12T05:50:48.766Z</time></trkpt><trkpt lat="45.57798322108758" lon="11.383042409869267"><ele>139.0</ele><time>2026-04-12T05:50:49.766Z</time></trkpt><trkpt lat="45.57818356563812" lon="11.382976153727377"><ele>139.66666666666669</ele><time>2026-04-12T05:50:50.766Z</time></trkpt><trkpt lat="45.57838186068147" lon="11.38291056567402"><ele>140.33333333333334</ele><time>2026-04-12T05:50:51.766Z</time></trkpt><trkpt lat="45.57856124976618" lon="11.38284325673745"><ele>141.0</ele><time>2026-04-12T05:50:52.766Z</time></trkpt><trkpt lat="45.578727215112586" lon="11.38278310795275"><ele>141.66666666666666</ele><time>2026-04-12T05:50:53.766Z</time></trkpt><trkpt lat="45.57888210374767" lon="11.382725781830501"><ele>142.33333333333331</ele><time>2026-04-12T05:50:54.766Z</time></trkpt><trkpt lat="45.57902460680107" lon="11.382670821009063"><ele>143.0</ele><time>2026-04-12T05:50:55.766Z</time></trkpt><trkpt lat="45.579161763762805" lon="11.382613846306846"><ele>143.0</ele><time>2026-04-12T05:50:56.766Z</time></trkpt><trkpt lat="45.5792899352065" lon="11.382557082180316"><ele>143.0</ele><time>2026-04-12T05:50:57.766Z</time></trkpt><trkpt lat="45.57941775565033" lon="11.382499559543874"><ele>143.0</ele><time>2026-04-12T05:50:58.766Z</time></trkpt><trkpt lat="45.57954847470406" lon="11.382452718369798"><ele>143.0</ele><time>2026-04-12T05:50:59.766Z</time></trkpt><trkpt lat="45.579661948788626" lon="11.382399603318778"><ele>143.20000000000002</ele><time>2026-04-12T05:51:00.766Z</time></trkpt><trkpt lat="45.57977216282267" lon="11.382354936019786"><ele>143.4</ele><time>2026-04-12T05:51:01.766Z</time></trkpt><trkpt lat="45.579876163778486" lon="11.382315015823337"><ele>143.60000000000002</ele><time>2026-04-12T05:51:02.766Z</time></trkpt><trkpt lat="45.57997732989612" lon="11.38227764704261"><ele>143.8</ele><time>2026-04-12T05:51:03.766Z</time></trkpt><trkpt lat="45.5800750557155" lon="11.382237430677792"><ele>144.0</ele><time>2026-04-12T05:51:04.766Z</time></trkpt><trkpt lat="45.58019815890802" lon="11.382198834169621"><ele>143.75</ele><time>2026-04-12T05:51:05.766Z</time></trkpt><trkpt lat="45.580328804544415" lon="11.382161152308012"><ele>143.5</ele><time>2026-04-12T05:51:06.766Z</time></trkpt><trkpt lat="45.58047868347227" lon="11.382129466064228"><ele>143.25</ele><time>2026-04-12T05:51:07.766Z</time></trkpt><trkpt lat="45.580636383136714" lon="11.382069152258499"><ele>143.0</ele><time>2026-04-12T05:51:08.766Z</time></trkpt><trkpt lat="45.58077943970863" lon="11.382017817269212"><ele>143.33333333333331</ele><time>2026-04-12T05:51:09.766Z</time></trkpt><trkpt lat="45.58092948629341" lon="11.381970601664502"><ele>143.66666666666666</ele><time>2026-04-12T05:51:10.766Z</time></trkpt><trkpt lat="45.581088957478315" lon="11.381916830754648"><ele>144.0</ele><time>2026-04-12T05:51:11.766Z</time></trkpt><trkpt lat="45.5812579787297" lon="11.38185403631213"><ele>144.0</ele><time>2026-04-12T05:51:12.766Z</time></trkpt><trkpt lat="45.58143069209502" lon="11.381800227869757"><ele>144.0</ele><time>2026-04-12T05:51:13.766Z</time></trkpt><trkpt lat="45.58157980524372" lon="11.381747412352038"><ele>144.0</ele><time>2026-04-12T05:51:14.766Z</time></trkpt><trkpt lat="45.58173301458829" lon="11.381693481386863"><ele>144.0</ele><time>2026-04-12T05:51:15.766Z</time></trkpt><trkpt lat="45.581872468215266" lon="11.3815844407297"><ele>144.0</ele><time>2026-04-12T05:51:16.766Z</time></trkpt><trkpt lat="45.58204520364908" lon="11.381579838072291"><ele>144.0</ele><time>2026-04-12T05:51:17.766Z</time></trkpt><trkpt lat="45.58222725142976" lon="11.381508333636345"><ele>143.33333333333334</ele><time>2026-04-12T05:51:18.766Z</time></trkpt><trkpt lat="45.5824200132763" lon="11.381440481559157"><ele>142.66666666666669</ele><time>2026-04-12T05:51:19.766Z</time></trkpt><trkpt lat="45.58262191181433" lon="11.381376449359914"><ele>142.0</ele><time>2026-04-12T05:51:20.766Z</time></trkpt><trkpt lat="45.58280708518198" lon="11.381301365587634"><ele>143.66666666666669</ele><time>2026-04-12T05:51:21.766Z</time></trkpt><trkpt lat="45.582983026943346" lon="11.381237157567206"><ele>145.33333333333334</ele><time>2026-04-12T05:51:22.766Z</time></trkpt><trkpt lat="45.583146229321535" lon="11.381174593066698"><ele>147.0</ele><time>2026-04-12T05:51:23.766Z</time></trkpt><trkpt lat="45.5833211348038" lon="11.381111518593633"><ele>147.0</ele><time>2026-04-12T05:51:24.766Z</time></trkpt><trkpt lat="45.58349329067617" lon="11.381048569706977"><ele>147.0</ele><time>2026-04-12T05:51:25.766Z</time></trkpt><trkpt lat="45.583672478066994" lon="11.380984290250028"><ele>147.0</ele><time>2026-04-12T05:51:26.766Z</time></trkpt><trkpt lat="45.58384694185955" lon="11.380916931067617"><ele>147.0</ele><time>2026-04-12T05:51:27.766Z</time></trkpt><trkpt lat="45.58402597637031" lon="11.380850576237648"><ele>147.0</ele><time>2026-04-12T05:51:28.766Z</time></trkpt><trkpt lat="45.58421734827872" lon="11.380779648864959"><ele>147.0</ele><time>2026-04-12T05:51:29.766Z</time></trkpt><trkpt lat="45.584419928111444" lon="11.38070813109006"><ele>146.5</ele><time>2026-04-12T05:51:30.766Z</time></trkpt><trkpt lat="45.584633524310455" lon="11.380610877914005"><ele>146.0</ele><time>2026-04-12T05:51:31.766Z</time></trkpt><trkpt lat="45.58485780548208" lon="11.380551091072627"><ele>146.5</ele><time>2026-04-12T05:51:32.766Z</time></trkpt><trkpt lat="45.585091065168704" lon="11.380467281899568"><ele>147.0</ele><time>2026-04-12T05:51:33.766Z</time></trkpt><trkpt lat="45.58532705825881" lon="11.380382490627197"><ele>146.5</ele><time>2026-04-12T05:51:34.766Z</time></trkpt><trkpt lat="45.58557241649774" lon="11.380293290495526"><ele>146.0</ele><time>2026-04-12T05:51:35.766Z</time></trkpt><trkpt lat="45.58582563582566" lon="11.380195502669482"><ele>146.0</ele><time>2026-04-12T05:51:36.766Z</time></trkpt><trkpt lat="45.58608338905822" lon="11.380059018686607"><ele>146.0</ele><time>2026-04-12T05:51:37.766Z</time></trkpt><trkpt lat="45.58635281254914" lon="11.37993518122327"><ele>146.5</ele><time>2026-04-12T05:51:38.766Z</time></trkpt><trkpt lat="45.58661140059416" lon="11.3798085224916"><ele>147.0</ele><time>2026-04-12T05:51:39.766Z</time></trkpt><trkpt lat="45.58684986553228" lon="11.379684956099991"><ele>148.0</ele><time>2026-04-12T05:51:40.766Z</time></trkpt><trkpt lat="45.587070267378344" lon="11.379564470620517"><ele>149.0</ele><time>2026-04-12T05:51:41.766Z</time></trkpt><trkpt lat="45.58728107798552" lon="11.379452254873696"><ele>149.0</ele><time>2026-04-12T05:51:42.766Z</time></trkpt><trkpt lat="45.587483333415804" lon="11.379360602409205"><ele>149.0</ele><time>2026-04-12T05:51:43.766Z</time></trkpt><trkpt lat="45.587669807099225" lon="11.379256389809264"><ele>149.0</ele><time>2026-04-12T05:51:44.766Z</time></trkpt><trkpt lat="45.5878423440132" lon="11.379158037487285"><ele>149.0</ele><time>2026-04-12T05:51:45.766Z</time></trkpt><trkpt lat="45.58801285285581" lon="11.379057487973641"><ele>149.0</ele><time>2026-04-12T05:51:46.766Z</time></trkpt><trkpt lat="45.588178683927765" lon="11.378958436276825"><ele>149.0</ele><time>2026-04-12T05:51:47.766Z</time></trkpt><trkpt lat="45.58833699532512" lon="11.378877629407436"><ele>149.33333333333331</ele><time>2026-04-12T05:51:48.766Z</time></trkpt><trkpt lat="45.588492851508846" lon="11.37877552257831"><ele>149.66666666666666</ele><time>2026-04-12T05:51:49.766Z</time></trkpt><trkpt lat="45.58865370380475" lon="11.378693682146901"><ele>150.0</ele><time>2026-04-12T05:51:50.766Z</time></trkpt><trkpt lat="45.58881455050106" lon="11.378599652075607"><ele>150.0</ele><time>2026-04-12T05:51:51.766Z</time></trkpt><trkpt lat="45.58897874159417" lon="11.378508715457832"><ele>150.0</ele><time>2026-04-12T05:51:52.766Z</time></trkpt><trkpt lat="45.58913898417602" lon="11.378405170252355"><ele>150.0</ele><time>2026-04-12T05:51:53.766Z</time></trkpt><trkpt lat="45.58930293617514" lon="11.378307006335564"><ele>150.0</ele><time>2026-04-12T05:51:54.766Z</time></trkpt><trkpt lat="45.58946913911802" lon="11.378210485515243"><ele>150.0</ele><time>2026-04-12T05:51:55.766Z</time></trkpt><trkpt lat="45.589635616874304" lon="11.378086519364771"><ele>150.0</ele><time>2026-04-12T05:51:56.766Z</time></trkpt><trkpt lat="45.589797923056665" lon="11.377944068423007"><ele>149.33333333333334</ele><time>2026-04-12T05:51:57.766Z</time></trkpt><trkpt lat="45.589960380212275" lon="11.377787872317754"><ele>148.66666666666669</ele><time>2026-04-12T05:51:58.766Z</time></trkpt><trkpt lat="45.59012669744684" lon="11.377637547533853"><ele>148.0</ele><time>2026-04-12T05:51:59.766Z</time></trkpt><trkpt lat="45.59029077749664" lon="11.377503220011095"><ele>149.0</ele><time>2026-04-12T05:52:00.766Z</time></trkpt><trkpt lat="45.59044547213736" lon="11.377401342092902"><ele>150.0</ele><time>2026-04-12T05:52:01.766Z</time></trkpt><trkpt lat="45.5906133045928" lon="11.377344109010055"><ele>151.0</ele><time>2026-04-12T05:52:02.766Z</time></trkpt><trkpt lat="45.590781373002116" lon="11.377336323801337"><ele>151.0</ele><time>2026-04-12T05:52:03.766Z</time></trkpt><trkpt lat="45.59093262879159" lon="11.377328018519773"><ele>151.0</ele><time>2026-04-12T05:52:04.766Z</time></trkpt><trkpt lat="45.59107878371272" lon="11.377316517203932"><ele>151.0</ele><time>2026-04-12T05:52:05.766Z</time></trkpt><trkpt lat="45.591210611054294" lon="11.377272208375107"><ele>151.0</ele><time>2026-04-12T05:52:06.766Z</time></trkpt><trkpt lat="45.59132820795022" lon="11.37717691756395"><ele>152.0</ele><time>2026-04-12T05:52:07.766Z</time></trkpt><trkpt lat="45.59143503899126" lon="11.377046830260406"><ele>153.0</ele><time>2026-04-12T05:52:08.766Z</time></trkpt><trkpt lat="45.59152298864043" lon="11.376885489960001"><ele>154.0</ele><time>2026-04-12T05:52:09.766Z</time></trkpt><trkpt lat="45.591594433844705" lon="11.376743403741896"><ele>155.0</ele><time>2026-04-12T05:52:10.766Z</time></trkpt><trkpt lat="45.591680493969115" lon="11.376639213326621"><ele>155.0</ele><time>2026-04-12T05:52:11.766Z</time></trkpt><trkpt lat="45.591779821595054" lon="11.37658047737277"><ele>155.0</ele><time>2026-04-12T05:52:12.767Z</time></trkpt><trkpt lat="45.59187024945776" lon="11.376518896256943"><ele>155.0</ele><time>2026-04-12T05:52:13.767Z</time></trkpt><trkpt lat="45.59193554823945" lon="11.37638952648698"><ele>155.0</ele><time>2026-04-12T05:52:14.767Z</time></trkpt><trkpt lat="45.59197072928909" lon="11.3762453373444"><ele>155.0</ele><time>2026-04-12T05:52:15.767Z</time></trkpt><trkpt lat="45.591963962905034" lon="11.37609042166626"><ele>154.8</ele><time>2026-04-12T05:52:16.767Z</time></trkpt><trkpt lat="45.59193613265668" lon="11.37594912515439"><ele>154.6</ele><time>2026-04-12T05:52:17.767Z</time></trkpt><trkpt lat="45.591865632049405" lon="11.375831457118569"><ele>154.4</ele><time>2026-04-12T05:52:18.767Z</time></trkpt><trkpt lat="45.591759795429944" lon="11.37578658889847"><ele>154.2</ele><time>2026-04-12T05:52:19.767Z</time></trkpt><trkpt lat="45.59165677128023" lon="11.375730506412243"><ele>154.0</ele><time>2026-04-12T05:52:20.767Z</time></trkpt><trkpt lat="45.59155052363597" lon="11.375787014507496"><ele>154.0</ele><time>2026-04-12T05:52:21.767Z</time></trkpt><trkpt lat="45.59145483247079" lon="11.375914252910668"><ele>154.0</ele><time>2026-04-12T05:52:22.767Z</time></trkpt><trkpt lat="45.59137724248319" lon="11.37604603653805"><ele>154.0</ele><time>2026-04-12T05:52:23.767Z</time></trkpt><trkpt lat="45.59128371516794" lon="11.376177003650364"><ele>154.0</ele><time>2026-04-12T05:52:24.767Z</time></trkpt><trkpt lat="45.591176001893984" lon="11.376247268472774"><ele>153.8</ele><time>2026-04-12T05:52:25.767Z</time></trkpt><trkpt lat="45.591088287371846" lon="11.376288506701005"><ele>153.60000000000002</ele><time>2026-04-12T05:52:26.767Z</time></trkpt><trkpt lat="45.59103704366211" lon="11.376393047894046"><ele>153.4</ele><time>2026-04-12T05:52:28.767Z</time></trkpt><trkpt lat="45.59092634961738" lon="11.376368902226629"><ele>153.20000000000002</ele><time>2026-04-12T05:58:53.77Z</time></trkpt><trkpt lat="45.59088041694502" lon="11.37645848928287"><ele>153.0</ele><time>2026-04-12T06:02:38.771Z</time></trkpt><trkpt lat="45.590744663384676" lon="11.376541367001323"><ele>152.66666666666666</ele><time>2026-04-12T06:02:40.771Z</time></trkpt><trkpt lat="45.590678943657146" lon="11.376626181301054"><ele>152.33333333333334</ele><time>2026-04-12T06:02:41.771Z</time></trkpt><trkpt lat="45.590582522370966" lon="11.376662194279428"><ele>152.0</ele><time>2026-04-12T06:02:42.772Z</time></trkpt><trkpt lat="45.590501889088415" lon="11.376677797307869"><ele>151.66666666666669</ele><time>2026-04-12T06:02:43.772Z</time></trkpt><trkpt lat="45.59043733664782" lon="11.376669342412196"><ele>151.33333333333334</ele><time>2026-04-12T06:02:44.772Z</time></trkpt><trkpt lat="45.59037127160973" lon="11.37666380130684"><ele>151.0</ele><time>2026-04-12T06:02:45.772Z</time></trkpt><trkpt lat="45.59026888284791" lon="11.376694523169652"><ele>150.6</ele><time>2026-04-12T06:02:47.772Z</time></trkpt><trkpt lat="45.59016932762537" lon="11.376702362837442"><ele>150.2</ele><time>2026-04-12T06:02:49.772Z</time></trkpt><trkpt lat="45.59004627356547" lon="11.376711456225797"><ele>149.8</ele><time>2026-04-12T06:02:51.772Z</time></trkpt><trkpt lat="45.58993605613395" lon="11.376715138658499"><ele>149.4</ele><time>2026-04-12T06:02:53.772Z</time></trkpt><trkpt lat="45.5898508750828" lon="11.376712017775505"><ele>149.0</ele><time>2026-04-12T06:02:54.772Z</time></trkpt><trkpt lat="45.58968036154768" lon="11.376737320272944"><ele>149.0</ele><time>2026-04-12T06:02:55.772Z</time></trkpt><trkpt lat="45.58958033343896" lon="11.376744970738105"><ele>149.0</ele><time>2026-04-12T06:02:56.772Z</time></trkpt><trkpt lat="45.58949644352673" lon="11.376748555551966"><ele>149.0</ele><time>2026-04-12T06:02:57.772Z</time></trkpt><trkpt lat="45.589416292637324" lon="11.376740085142831"><ele>149.0</ele><time>2026-04-12T06:02:58.772Z</time></trkpt><trkpt lat="45.58934336132979" lon="11.376732625564031"><ele>149.0</ele><time>2026-04-12T06:02:59.772Z</time></trkpt><trkpt lat="45.58928063854176" lon="11.376721887229284"><ele>149.0</ele><time>2026-04-12T06:03:00.772Z</time></trkpt><trkpt lat="45.58921380383942" lon="11.376695776787933"><ele>149.16666666666666</ele><time>2026-04-12T06:03:01.772Z</time></trkpt><trkpt lat="45.5891437276494" lon="11.376655378518596"><ele>149.33333333333331</ele><time>2026-04-12T06:03:02.772Z</time></trkpt><trkpt lat="45.58906737330262" lon="11.376600512114669"><ele>149.5</ele><time>2026-04-12T06:03:03.772Z</time></trkpt><trkpt lat="45.58900120429462" lon="11.376542655920007"><ele>149.66666666666666</ele><time>2026-04-12T06:03:04.772Z</time></trkpt><trkpt lat="45.58892549900172" lon="11.376467634263417"><ele>149.83333333333334</ele><time>2026-04-12T06:03:05.772Z</time></trkpt><trkpt lat="45.58883707815405" lon="11.376378682120784"><ele>150.0</ele><time>2026-04-12T06:03:06.772Z</time></trkpt><trkpt lat="45.58874507708388" lon="11.376283594962018"><ele>150.5</ele><time>2026-04-12T06:03:07.772Z</time></trkpt><trkpt lat="45.588626905603675" lon="11.376163356325398"><ele>151.0</ele><time>2026-04-12T06:03:08.772Z</time></trkpt><trkpt lat="45.58852707977214" lon="11.376063370190682"><ele>151.5</ele><time>2026-04-12T06:03:09.772Z</time></trkpt><trkpt lat="45.588399406736876" lon="11.376014816726714"><ele>152.0</ele><time>2026-04-12T06:03:10.772Z</time></trkpt><trkpt lat="45.588282958584024" lon="11.376053190685253"><ele>152.0</ele><time>2026-04-12T06:03:11.772Z</time></trkpt><trkpt lat="45.588157735260424" lon="11.376069049442563"><ele>152.0</ele><time>2026-04-12T06:03:12.772Z</time></trkpt><trkpt lat="45.5880243285372" lon="11.376169818091142"><ele>152.0</ele><time>2026-04-12T06:03:13.772Z</time></trkpt><trkpt lat="45.58789212583074" lon="11.376315828959205"><ele>152.0</ele><time>2026-04-12T06:03:14.772Z</time></trkpt><trkpt lat="45.58776031107859" lon="11.376470524825432"><ele>150.66666666666666</ele><time>2026-04-12T06:03:15.772Z</time></trkpt><trkpt lat="45.58763856372142" lon="11.376644854751394"><ele>149.33333333333334</ele><time>2026-04-12T06:03:16.772Z</time></trkpt><trkpt lat="45.587539722945984" lon="11.37681024277008"><ele>148.0</ele><time>2026-04-12T06:03:17.772Z</time></trkpt><trkpt lat="45.58743290546278" lon="11.37699830185922"><ele>148.0</ele><time>2026-04-12T06:03:18.772Z</time></trkpt><trkpt lat="45.587319006083845" lon="11.377170722488172"><ele>148.0</ele><time>2026-04-12T06:03:19.772Z</time></trkpt><trkpt lat="45.58721977127303" lon="11.37734730166109"><ele>148.0</ele><time>2026-04-12T06:03:20.772Z</time></trkpt><trkpt lat="45.58713540599906" lon="11.377509543058746"><ele>148.0</ele><time>2026-04-12T06:03:21.772Z</time></trkpt><trkpt lat="45.58707092387989" lon="11.377679931336962"><ele>148.0</ele><time>2026-04-12T06:03:22.772Z</time></trkpt><trkpt lat="45.58701699597065" lon="11.377859238730021"><ele>148.0</ele><time>2026-04-12T06:03:23.772Z</time></trkpt><trkpt lat="45.58701703018535" lon="11.378045674198647"><ele>148.0</ele><time>2026-04-12T06:03:24.772Z</time></trkpt><trkpt lat="45.58700161692388" lon="11.378233633770856"><ele>148.0</ele><time>2026-04-12T06:03:25.772Z</time></trkpt><trkpt lat="45.58700613169278" lon="11.378432311988306"><ele>148.0</ele><time>2026-04-12T06:03:26.772Z</time></trkpt><trkpt lat="45.58705266200807" lon="11.378609527141483"><ele>148.0</ele><time>2026-04-12T06:03:27.772Z</time></trkpt><trkpt lat="45.587117017623534" lon="11.378781454984162"><ele>148.0</ele><time>2026-04-12T06:03:28.772Z</time></trkpt><trkpt lat="45.58721038192643" lon="11.378900330056933"><ele>148.25</ele><time>2026-04-12T06:03:29.772Z</time></trkpt><trkpt lat="45.58731397668805" lon="11.378995955458365"><ele>148.5</ele><time>2026-04-12T06:03:30.772Z</time></trkpt><trkpt lat="45.587430287659714" lon="11.379050753245334"><ele>148.75</ele><time>2026-04-12T06:03:31.772Z</time></trkpt><trkpt lat="45.587625108519894" lon="11.379014469239019"><ele>149.0</ele><time>2026-04-12T06:03:32.772Z</time></trkpt><trkpt lat="45.587754338440405" lon="11.378933728565691"><ele>149.66666666666666</ele><time>2026-04-12T06:03:33.772Z</time></trkpt><trkpt lat="45.58786248190698" lon="11.378797319759963"><ele>150.33333333333334</ele><time>2026-04-12T06:03:34.772Z</time></trkpt><trkpt lat="45.58793927076262" lon="11.378606641403243"><ele>151.0</ele><time>2026-04-12T06:03:35.772Z</time></trkpt><trkpt lat="45.58803546826299" lon="11.378419357726933"><ele>151.0</ele><time>2026-04-12T06:03:36.772Z</time></trkpt><trkpt lat="45.588098159580625" lon="11.378220807685992"><ele>151.0</ele><time>2026-04-12T06:03:37.772Z</time></trkpt><trkpt lat="45.58818830659737" lon="11.378061585453532"><ele>151.0</ele><time>2026-04-12T06:03:38.772Z</time></trkpt><trkpt lat="45.58829090743725" lon="11.37793011453599"><ele>151.0</ele><time>2026-04-12T06:03:39.772Z</time></trkpt><trkpt lat="45.58841203540952" lon="11.377847880114913"><ele>150.0</ele><time>2026-04-12T06:03:40.772Z</time></trkpt><trkpt lat="45.58854810035232" lon="11.377786363638846"><ele>149.0</ele><time>2026-04-12T06:03:41.772Z</time></trkpt><trkpt lat="45.58871092076525" lon="11.377729690283468"><ele>148.0</ele><time>2026-04-12T06:03:42.772Z</time></trkpt><trkpt lat="45.58889502155231" lon="11.377738064391709"><ele>148.0</ele><time>2026-04-12T06:03:43.772Z</time></trkpt><trkpt lat="45.58913176930234" lon="11.377776990520728"><ele>148.0</ele><time>2026-04-12T06:03:44.772Z</time></trkpt><trkpt lat="45.58935142120478" lon="11.377824212840881"><ele>148.0</ele><time>2026-04-12T06:03:45.772Z</time></trkpt><trkpt lat="45.5895843931907" lon="11.377871373533448"><ele>148.0</ele><time>2026-04-12T06:03:46.772Z</time></trkpt><trkpt lat="45.589815503056776" lon="11.377927105169176"><ele>148.0</ele><time>2026-04-12T06:03:47.772Z</time></trkpt><trkpt lat="45.5900406458983" lon="11.377967231393102"><ele>148.0</ele><time>2026-04-12T06:03:48.772Z</time></trkpt><trkpt lat="45.590270782599006" lon="11.37799870686631"><ele>149.66666666666669</ele><time>2026-04-12T06:03:49.79Z</time></trkpt><trkpt lat="45.590491937814946" lon="11.37803998217587"><ele>151.33333333333334</ele><time>2026-04-12T06:03:50.787Z</time></trkpt><trkpt lat="45.590704347546996" lon="11.378083708247022"><ele>153.0</ele><time>2026-04-12T06:03:51.772Z</time></trkpt><trkpt lat="45.59091774090899" lon="11.378273244560711"><ele>153.0</ele><time>2026-04-12T06:03:52.772Z</time></trkpt><trkpt lat="45.59112253436081" lon="11.378322802460225"><ele>153.0</ele><time>2026-04-12T06:03:53.772Z</time></trkpt><trkpt lat="45.59134099433674" lon="11.378413377870466"><ele>153.0</ele><time>2026-04-12T06:03:54.772Z</time></trkpt><trkpt lat="45.59156591271514" lon="11.378555941733925"><ele>153.5</ele><time>2026-04-12T06:03:55.772Z</time></trkpt><trkpt lat="45.59178740126647" lon="11.378679912326746"><ele>154.0</ele><time>2026-04-12T06:03:56.772Z</time></trkpt><trkpt lat="45.59200492507361" lon="11.378773241196859"><ele>153.0</ele><time>2026-04-12T06:03:57.772Z</time></trkpt><trkpt lat="45.59222975517066" lon="11.3788721117982"><ele>152.0</ele><time>2026-04-12T06:03:58.786Z</time></trkpt><trkpt lat="45.592453667698976" lon="11.378970236074716"><ele>152.0</ele><time>2026-04-12T06:03:59.786Z</time></trkpt><trkpt lat="45.592667734182974" lon="11.379104628092323"><ele>152.0</ele><time>2026-04-12T06:04:00.785Z</time></trkpt><trkpt lat="45.592880049694415" lon="11.379242638100294"><ele>150.0</ele><time>2026-04-12T06:04:01.789Z</time></trkpt><trkpt lat="45.595025774133944" lon="11.380795994784107"><ele>150.0</ele><time>2026-04-12T06:04:10.772Z</time></trkpt><trkpt lat="45.59526963759218" lon="11.380944899565485"><ele>150.0</ele><time>2026-04-12T06:04:11.772Z</time></trkpt><trkpt lat="45.595468715152904" lon="11.38106057126836"><ele>149.5</ele><time>2026-04-12T06:04:12.772Z</time></trkpt><trkpt lat="45.59571714084592" lon="11.381186292386687"><ele>149.0</ele><time>2026-04-12T06:04:13.772Z</time></trkpt><trkpt lat="45.59595739824694" lon="11.381354600567668"><ele>149.5</ele><time>2026-04-12T06:04:14.772Z</time></trkpt><trkpt lat="45.59619956874637" lon="11.381481279303113"><ele>150.0</ele><time>2026-04-12T06:04:15.772Z</time></trkpt><trkpt lat="45.59642601313569" lon="11.381610930269485"><ele>150.0</ele><time>2026-04-12T06:04:16.772Z</time></trkpt><trkpt lat="45.596681226582476" lon="11.3817724489397"><ele>150.0</ele><time>2026-04-12T06:04:17.772Z</time></trkpt><trkpt lat="45.596923153170685" lon="11.381918388543575"><ele>151.0</ele><time>2026-04-12T06:04:18.772Z</time></trkpt><trkpt lat="45.59714169229659" lon="11.382038003206452"><ele>152.0</ele><time>2026-04-12T06:04:19.772Z</time></trkpt><trkpt lat="45.59736023976697" lon="11.382135850348405"><ele>152.5</ele><time>2026-04-12T06:04:20.772Z</time></trkpt><trkpt lat="45.59760243821945" lon="11.382282408394586"><ele>153.0</ele><time>2026-04-12T06:04:21.772Z</time></trkpt><trkpt lat="45.597835302269814" lon="11.382403331272545"><ele>153.0</ele><time>2026-04-12T06:04:22.772Z</time></trkpt><trkpt lat="45.598075330030575" lon="11.382535042230405"><ele>153.0</ele><time>2026-04-12T06:04:23.79Z</time></trkpt><trkpt lat="45.59830951265854" lon="11.382648916287346"><ele>153.0</ele><time>2026-04-12T06:04:24.788Z</time></trkpt><trkpt lat="45.59854678812461" lon="11.382785622847114"><ele>153.0</ele><time>2026-04-12T06:04:25.789Z</time></trkpt><trkpt lat="45.59878105446904" lon="11.382914736839952"><ele>151.0</ele><time>2026-04-12T06:04:26.789Z</time></trkpt><trkpt lat="45.59922544289902" lon="11.383222220476142"><ele>151.0</ele><time>2026-04-12T06:04:28.772Z</time></trkpt><trkpt lat="45.59945541989833" lon="11.383343997534805"><ele>151.0</ele><time>2026-04-12T06:04:29.772Z</time></trkpt><trkpt lat="45.59970871558209" lon="11.38350754058991"><ele>151.0</ele><time>2026-04-12T06:04:30.772Z</time></trkpt><trkpt lat="45.599938691713525" lon="11.38361410379435"><ele>151.0</ele><time>2026-04-12T06:04:31.772Z</time></trkpt><trkpt lat="45.60019367704619" lon="11.383696775241534"><ele>151.0</ele><time>2026-04-12T06:04:32.772Z</time></trkpt><trkpt lat="45.60045504568887" lon="11.383799705965352"><ele>151.0</ele><time>2026-04-12T06:04:33.772Z</time></trkpt><trkpt lat="45.60062773768108" lon="11.383868903394864"><ele>150.5</ele><time>2026-04-12T06:04:34.772Z</time></trkpt><trkpt lat="45.60087515508306" lon="11.383965357085316"><ele>150.0</ele><time>2026-04-12T06:04:35.772Z</time></trkpt><trkpt lat="45.60113171202271" lon="11.38404943970284"><ele>149.0</ele><time>2026-04-12T06:04:36.772Z</time></trkpt><trkpt lat="45.60137810304478" lon="11.384129270610977"><ele>148.0</ele><time>2026-04-12T06:04:37.772Z</time></trkpt><trkpt lat="45.601626774518664" lon="11.384197372210558"><ele>148.0</ele><time>2026-04-12T06:04:38.772Z</time></trkpt><trkpt lat="45.60187750835236" lon="11.384267420005095"><ele>148.0</ele><time>2026-04-12T06:04:39.772Z</time></trkpt><trkpt lat="45.60213338407706" lon="11.38434299722648"><ele>148.5</ele><time>2026-04-12T06:04:40.789Z</time></trkpt><trkpt lat="45.60238327543629" lon="11.38441791323962"><ele>149.0</ele><time>2026-04-12T06:04:41.788Z</time></trkpt><trkpt lat="45.60263762725548" lon="11.38449402605995"><ele>149.0</ele><time>2026-04-12T06:04:42.788Z</time></trkpt><trkpt lat="45.6028924566422" lon="11.384565542438457"><ele>149.0</ele><time>2026-04-12T06:04:43.789Z</time></trkpt><trkpt lat="45.60352033456649" lon="11.384710071363262"><ele>151.0</ele><time>2026-04-12T06:05:07.66Z</time></trkpt><trkpt lat="45.6044862069852" lon="11.385017458342556"><ele>152.0</ele><time>2026-04-12T06:05:08.66Z</time></trkpt><trkpt lat="45.60546071166524" lon="11.385264579907457"><ele>154.0</ele><time>2026-04-12T06:05:09.661Z</time></trkpt><trkpt lat="45.6063521" lon="11.3854238"><ele>155.0</ele><time>2026-04-12T06:05:10.661Z</time></trkpt><trkpt lat="45.60733113497328" lon="11.385631853496898"><ele>157.0</ele><time>2026-04-12T06:05:14.662Z</time></trkpt><trkpt lat="45.608309116518356" lon="11.385837623237558"><ele>159.0</ele><time>2026-04-12T06:05:15.66Z</time></trkpt><trkpt lat="45.60928938628306" lon="11.386036792848808"><ele>162.0</ele><time>2026-04-12T06:05:16.661Z</time></trkpt><trkpt lat="45.61026973101874" lon="11.386235615779976"><ele>170.0</ele><time>2026-04-12T06:05:17.661Z</time></trkpt><trkpt lat="45.61124810191436" lon="11.386438642325022"><ele>172.0</ele><time>2026-04-12T06:05:18.66Z</time></trkpt><trkpt lat="45.61222777246334" lon="11.38664698977945"><ele>182.0</ele><time>2026-04-12T06:05:19.661Z</time></trkpt><trkpt lat="45.61319717181864" lon="11.386923191244437"><ele>195.0</ele><time>2026-04-12T06:05:20.66Z</time></trkpt><trkpt lat="45.61414508668811" lon="11.387327989168524"><ele>214.0</ele><time>2026-04-12T06:05:21.661Z</time></trkpt><trkpt lat="45.61507896311685" lon="11.387794546904772"><ele>247.0</ele><time>2026-04-12T06:05:22.66Z</time></trkpt><trkpt lat="45.61600681445323" lon="11.388285227229934"><ele>288.0</ele><time>2026-04-12T06:05:23.66Z</time></trkpt><trkpt lat="45.616931763139135" lon="11.388787004867698"><ele>390.0</ele><time>2026-04-12T06:05:24.66Z</time></trkpt><trkpt lat="45.617853579521984" lon="11.389300333536513"><ele>442.0</ele><time>2026-04-12T06:05:25.66Z</time></trkpt><trkpt lat="45.618772968685555" lon="11.389822379049741"><ele>475.0</ele><time>2026-04-12T06:05:26.66Z</time></trkpt><trkpt lat="45.619690910606465" lon="11.390350846525944"><ele>464.0</ele><time>2026-04-12T06:05:27.661Z</time></trkpt><trkpt lat="45.620604920795" lon="11.390892904371052"><ele>435.0</ele><time>2026-04-12T06:05:28.661Z</time></trkpt><trkpt lat="45.62149324127531" lon="11.391511768103078"><ele>424.0</ele><time>2026-04-12T06:05:29.66Z</time></trkpt><trkpt lat="45.622393043866616" lon="11.392103296296783"><ele>338.0</ele><time>2026-04-12T06:05:30.662Z</time></trkpt><trkpt lat="45.62329039553212" lon="11.392697097054619"><ele>259.0</ele><time>2026-04-12T06:05:31.661Z</time></trkpt><trkpt lat="45.62418475635064" lon="11.39329814985386"><ele>217.0</ele><time>2026-04-12T06:05:32.66Z</time></trkpt><trkpt lat="45.625070419749186" lon="11.393928888632438"><ele>187.0</ele><time>2026-04-12T06:05:33.661Z</time></trkpt><trkpt lat="45.62594566346143" lon="11.394586052066225"><ele>208.0</ele><time>2026-04-12T06:05:34.66Z</time></trkpt><trkpt lat="45.62680370414937" lon="11.395288841209812"><ele>225.0</ele><time>2026-04-12T06:05:35.66Z</time></trkpt><trkpt lat="45.627642074199976" lon="11.396040623461788"><ele>219.0</ele><time>2026-04-12T06:05:36.661Z</time></trkpt><trkpt lat="45.62847065699651" lon="11.396812374090194"><ele>251.0</ele><time>2026-04-12T06:05:37.661Z</time></trkpt><trkpt lat="45.62929404178978" lon="11.397592538636381"><ele>285.0</ele><time>2026-04-12T06:05:38.66Z</time></trkpt><trkpt lat="45.63011653849377" lon="11.398377131027846"><ele>255.0</ele><time>2026-04-12T06:05:39.66Z</time></trkpt><trkpt lat="45.63093387302725" lon="11.39917491879207"><ele>233.0</ele><time>2026-04-12T06:05:40.661Z</time></trkpt><trkpt lat="45.631724861305734" lon="11.400020086886114"><ele>253.0</ele><time>2026-04-12T06:05:41.66Z</time></trkpt><trkpt lat="45.6325004113411" lon="11.40089648870028"><ele>272.0</ele><time>2026-04-12T06:05:42.66Z</time></trkpt><trkpt lat="45.63324708595536" lon="11.401822258950173"><ele>312.0</ele><time>2026-04-12T06:05:43.661Z</time></trkpt><trkpt lat="45.6339413995177" lon="11.402828886842475"><ele>357.0</ele><time>2026-04-12T06:05:44.661Z</time></trkpt><trkpt lat="45.63462083846387" lon="11.403854711837054"><ele>351.0</ele><time>2026-04-12T06:05:45.661Z</time></trkpt><trkpt lat="45.63529467690446" lon="11.404886011153025"><ele>321.0</ele><time>2026-04-12T06:05:46.66Z</time></trkpt><trkpt lat="45.63596427337056" lon="11.40592572044905"><ele>317.0</ele><time>2026-04-12T06:05:47.661Z</time></trkpt><trkpt lat="45.63664458747039" lon="11.406949483738034"><ele>306.0</ele><time>2026-04-12T06:05:48.66Z</time></trkpt><trkpt lat="45.637330976552875" lon="11.407965857695642"><ele>264.0</ele><time>2026-04-12T06:05:49.66Z</time></trkpt><trkpt lat="45.637995949193005" lon="11.409012183936941"><ele>267.0</ele><time>2026-04-12T06:05:50.661Z</time></trkpt><trkpt lat="45.638642079961855" lon="11.41008093896187"><ele>273.0</ele><time>2026-04-12T06:05:51.661Z</time></trkpt><trkpt lat="45.6392851076506" lon="11.41115188934879"><ele>276.0</ele><time>2026-04-12T06:05:52.661Z</time></trkpt><trkpt lat="45.63993365749401" lon="11.412219224737843"><ele>259.0</ele><time>2026-04-12T06:05:53.661Z</time></trkpt><trkpt lat="45.640537769875216" lon="11.413336626147233"><ele>249.0</ele><time>2026-04-12T06:05:54.662Z</time></trkpt><trkpt lat="45.641102482192856" lon="11.41449332883991"><ele>189.0</ele><time>2026-04-12T06:05:55.66Z</time></trkpt><trkpt lat="45.64165493718632" lon="11.415665635707656"><ele>166.0</ele><time>2026-04-12T06:05:56.661Z</time></trkpt><trkpt lat="45.6421739976991" lon="11.416865114859181"><ele>151.0</ele><time>2026-04-12T06:05:57.661Z</time></trkpt><trkpt lat="45.642629170682255" lon="11.418117310586947"><ele>151.0</ele><time>2026-04-12T06:05:58.66Z</time></trkpt><trkpt lat="45.6430697888493" lon="11.419380787259804"><ele>135.0</ele><time>2026-04-12T06:05:59.66Z</time></trkpt><trkpt lat="45.64351092320731" lon="11.420643920011013"><ele>94.0</ele><time>2026-04-12T06:06:00.661Z</time></trkpt><trkpt lat="45.643952382619794" lon="11.421906931166456"><ele>89.0</ele><time>2026-04-12T06:06:01.661Z</time></trkpt><trkpt lat="45.64439444513716" lon="11.423170424085441"><ele>92.0</ele><time>2026-04-12T06:06:02.661Z</time></trkpt><trkpt lat="45.64483599792966" lon="11.424431934485128"><ele>93.0</ele><time>2026-04-12T06:06:03.66Z</time></trkpt><trkpt lat="45.645277678527975" lon="11.425696090713751"><ele>94.0</ele><time>2026-04-12T06:06:04.661Z</time></trkpt><trkpt lat="45.64571946224945" lon="11.426957322514241"><ele>91.0</ele><time>2026-04-12T06:06:05.66Z</time></trkpt><trkpt lat="45.6461025774904" lon="11.428328678022536"><ele>92.0</ele><time>2026-04-12T06:08:09.772Z</time></trkpt><trkpt lat="45.64619128693802" lon="11.428703787760933"><ele>93.0</ele><time>2026-04-12T06:08:10.772Z</time></trkpt><trkpt lat="45.64629713963607" lon="11.428939124976672"><ele>93.0</ele><time>2026-04-12T06:08:11.772Z</time></trkpt><trkpt lat="45.646417742909506" lon="11.429266385582668"><ele>93.0</ele><time>2026-04-12T06:08:12.772Z</time></trkpt><trkpt lat="45.64652280167667" lon="11.429591093457226"><ele>93.5</ele><time>2026-04-12T06:08:13.772Z</time></trkpt><trkpt lat="45.646622270036204" lon="11.429928873125478"><ele>94.0</ele><time>2026-04-12T06:08:14.772Z</time></trkpt><trkpt lat="45.64671903283154" lon="11.430244636765902"><ele>93.0</ele><time>2026-04-12T06:08:15.772Z</time></trkpt><trkpt lat="45.64679977109024" lon="11.430578164684029"><ele>92.0</ele><time>2026-04-12T06:08:16.772Z</time></trkpt><trkpt lat="45.64688908716948" lon="11.430919860801085"><ele>92.0</ele><time>2026-04-12T06:08:17.772Z</time></trkpt><trkpt lat="45.64697607351067" lon="11.431267403909363"><ele>92.0</ele><time>2026-04-12T06:08:18.775Z</time></trkpt><trkpt lat="45.64706319525298" lon="11.431612103443655"><ele>91.5</ele><time>2026-04-12T06:08:19.775Z</time></trkpt><trkpt lat="45.647135143810644" lon="11.431974954422378"><ele>91.0</ele><time>2026-04-12T06:08:20.775Z</time></trkpt><trkpt lat="45.64721286409" lon="11.432344779917894"><ele>90.0</ele><time>2026-04-12T06:08:21.775Z</time></trkpt><trkpt lat="45.647290755743626" lon="11.43271059690718"><ele>89.0</ele><time>2026-04-12T06:08:22.775Z</time></trkpt><trkpt lat="45.64736743262045" lon="11.433069017396582"><ele>88.5</ele><time>2026-04-12T06:08:23.775Z</time></trkpt><trkpt lat="45.64743362573111" lon="11.43343203990257"><ele>88.0</ele><time>2026-04-12T06:08:24.775Z</time></trkpt><trkpt lat="45.647500938285205" lon="11.433804751364928"><ele>88.5</ele><time>2026-04-12T06:08:25.775Z</time></trkpt><trkpt lat="45.647571452052226" lon="11.434169561365495"><ele>89.0</ele><time>2026-04-12T06:08:26.775Z</time></trkpt><trkpt lat="45.647636858417016" lon="11.434533337626227"><ele>89.5</ele><time>2026-04-12T06:08:27.775Z</time></trkpt><trkpt lat="45.64769744330887" lon="11.434899227177027"><ele>90.0</ele><time>2026-04-12T06:08:28.775Z</time></trkpt><trkpt lat="45.64775980769175" lon="11.435257511671745"><ele>89.5</ele><time>2026-04-12T06:08:29.775Z</time></trkpt><trkpt lat="45.647820261152184" lon="11.435614520884386"><ele>89.0</ele><time>2026-04-12T06:08:30.775Z</time></trkpt><trkpt lat="45.64788451105674" lon="11.435967380777074"><ele>88.5</ele><time>2026-04-12T06:08:31.775Z</time></trkpt><trkpt lat="45.64793785208803" lon="11.436319886059826"><ele>88.0</ele><time>2026-04-12T06:08:32.775Z</time></trkpt><trkpt lat="45.64799932465404" lon="11.436667981796907"><ele>88.0</ele><time>2026-04-12T06:08:33.775Z</time></trkpt><trkpt lat="45.64805776414315" lon="11.437021511703835"><ele>88.0</ele><time>2026-04-12T06:08:34.775Z</time></trkpt><trkpt lat="45.648109547766964" lon="11.437371633495092"><ele>88.5</ele><time>2026-04-12T06:08:35.775Z</time></trkpt><trkpt lat="45.64816519020822" lon="11.43772789704929"><ele>89.0</ele><time>2026-04-12T06:08:36.775Z</time></trkpt><trkpt lat="45.64822178210649" lon="11.438069139621497"><ele>89.5</ele><time>2026-04-12T06:08:37.775Z</time></trkpt><trkpt lat="45.6482714266561" lon="11.438423347721749"><ele>90.0</ele><time>2026-04-12T06:08:38.775Z</time></trkpt><trkpt lat="45.64832641048784" lon="11.438769454518757"><ele>90.5</ele><time>2026-04-12T06:08:39.775Z</time></trkpt><trkpt lat="45.648377681069526" lon="11.43911849360843"><ele>91.0</ele><time>2026-04-12T06:08:40.775Z</time></trkpt><trkpt lat="45.648431029837056" lon="11.43945467330734"><ele>91.5</ele><time>2026-04-12T06:08:41.775Z</time></trkpt><trkpt lat="45.648476863663284" lon="11.439798726615502"><ele>92.0</ele><time>2026-04-12T06:08:42.775Z</time></trkpt><trkpt lat="45.64851272554226" lon="11.44014200183693"><ele>91.0</ele><time>2026-04-12T06:08:43.775Z</time></trkpt><trkpt lat="45.64855007955337" lon="11.440486178717173"><ele>90.0</ele><time>2026-04-12T06:08:44.775Z</time></trkpt><trkpt lat="45.64858192416601" lon="11.440823060038324"><ele>90.0</ele><time>2026-04-12T06:08:45.775Z</time></trkpt><trkpt lat="45.64861055016108" lon="11.441165927478117"><ele>90.0</ele><time>2026-04-12T06:08:46.775Z</time></trkpt><trkpt lat="45.64864044641668" lon="11.441506702906247"><ele>90.0</ele><time>2026-04-12T06:08:47.775Z</time></trkpt><trkpt lat="45.64866641254244" lon="11.441854903880895"><ele>90.0</ele><time>2026-04-12T06:08:48.775Z</time></trkpt><trkpt lat="45.64868951654838" lon="11.442199422104544"><ele>90.0</ele><time>2026-04-12T06:08:49.775Z</time></trkpt><trkpt lat="45.64870680758893" lon="11.442551637203982"><ele>90.0</ele><time>2026-04-12T06:08:50.775Z</time></trkpt><trkpt lat="45.64873103218761" lon="11.442906654107768"><ele>90.0</ele><time>2026-04-12T06:08:51.775Z</time></trkpt><trkpt lat="45.64874714483257" lon="11.443261906127507"><ele>90.0</ele><time>2026-04-12T06:08:52.775Z</time></trkpt><trkpt lat="45.64875672754131" lon="11.443626276400925"><ele>89.5</ele><time>2026-04-12T06:08:53.775Z</time></trkpt><trkpt lat="45.648767329404095" lon="11.443990119148907"><ele>89.0</ele><time>2026-04-12T06:08:54.775Z</time></trkpt><trkpt lat="45.64877808605299" lon="11.444355880612306"><ele>89.0</ele><time>2026-04-12T06:08:55.775Z</time></trkpt><trkpt lat="45.64878427021126" lon="11.444722359904432"><ele>89.0</ele><time>2026-04-12T06:08:56.775Z</time></trkpt><trkpt lat="45.64878811227639" lon="11.445091351274444"><ele>89.0</ele><time>2026-04-12T06:08:57.775Z</time></trkpt><trkpt lat="45.64879028157665" lon="11.445454693750486"><ele>89.0</ele><time>2026-04-12T06:08:58.775Z</time></trkpt><trkpt lat="45.64878908514062" lon="11.445823507093818"><ele>89.0</ele><time>2026-04-12T06:08:59.775Z</time></trkpt><trkpt lat="45.64878556858131" lon="11.446191697474111"><ele>89.0</ele><time>2026-04-12T06:09:00.775Z</time></trkpt><trkpt lat="45.6487822725298" lon="11.446555756807108"><ele>89.0</ele><time>2026-04-12T06:09:01.775Z</time></trkpt><trkpt lat="45.64877361407472" lon="11.446923780138924"><ele>89.0</ele><time>2026-04-12T06:09:02.775Z</time></trkpt><trkpt lat="45.64876357873782" lon="11.447292890822093"><ele>89.0</ele><time>2026-04-12T06:09:03.775Z</time></trkpt><trkpt lat="45.648754048100365" lon="11.447659474170297"><ele>89.0</ele><time>2026-04-12T06:09:04.775Z</time></trkpt><trkpt lat="45.64873985352832" lon="11.448032677775748"><ele>89.0</ele><time>2026-04-12T06:09:05.775Z</time></trkpt><trkpt lat="45.648727719886416" lon="11.448407560486762"><ele>89.0</ele><time>2026-04-12T06:09:06.775Z</time></trkpt><trkpt lat="45.64871634487317" lon="11.448782892492627"><ele>88.5</ele><time>2026-04-12T06:09:07.775Z</time></trkpt><trkpt lat="45.64870604384747" lon="11.449151331281032"><ele>88.0</ele><time>2026-04-12T06:09:08.775Z</time></trkpt><trkpt lat="45.648691298389295" lon="11.449519782505226"><ele>87.5</ele><time>2026-04-12T06:09:09.775Z</time></trkpt><trkpt lat="45.64868402736503" lon="11.449886137474277"><ele>87.0</ele><time>2026-04-12T06:09:10.775Z</time></trkpt><trkpt lat="45.648677303057596" lon="11.450255989814599"><ele>87.5</ele><time>2026-04-12T06:09:11.775Z</time></trkpt><trkpt lat="45.64867222131018" lon="11.450626629291916"><ele>88.0</ele><time>2026-04-12T06:09:12.775Z</time></trkpt><trkpt lat="45.64867543060783" lon="11.450997467705092"><ele>88.5</ele><time>2026-04-12T06:09:13.775Z</time></trkpt><trkpt lat="45.64867121569457" lon="11.451370556403091"><ele>89.0</ele><time>2026-04-12T06:09:14.775Z</time></trkpt><trkpt lat="45.64867825724007" lon="11.451742954697046"><ele>89.0</ele><time>2026-04-12T06:09:15.775Z</time></trkpt><trkpt lat="45.648690413551215" lon="11.452119406227723"><ele>89.0</ele><time>2026-04-12T06:09:16.775Z</time></trkpt><trkpt lat="45.64870022555687" lon="11.452500343883345"><ele>88.0</ele><time>2026-04-12T06:09:17.775Z</time></trkpt><trkpt lat="45.64870886282159" lon="11.452880749852012"><ele>87.0</ele><time>2026-04-12T06:09:18.775Z</time></trkpt><trkpt lat="45.64873020883074" lon="11.453254701654677"><ele>86.5</ele><time>2026-04-12T06:09:19.775Z</time></trkpt><trkpt lat="45.64875630587619" lon="11.453633517179066"><ele>86.0</ele><time>2026-04-12T06:09:20.775Z</time></trkpt><trkpt lat="45.64878412630278" lon="11.454011352092007"><ele>85.5</ele><time>2026-04-12T06:09:21.775Z</time></trkpt><trkpt lat="45.64881495638983" lon="11.454394421973902"><ele>85.0</ele><time>2026-04-12T06:09:22.775Z</time></trkpt><trkpt lat="45.64885090625173" lon="11.454778951781869"><ele>85.0</ele><time>2026-04-12T06:09:23.775Z</time></trkpt><trkpt lat="45.648892330275345" lon="11.45515669335429"><ele>85.0</ele><time>2026-04-12T06:09:24.775Z</time></trkpt><trkpt lat="45.648938820169" lon="11.455537545906843"><ele>85.0</ele><time>2026-04-12T06:09:25.775Z</time></trkpt><trkpt lat="45.648989257822514" lon="11.455917427427664"><ele>85.0</ele><time>2026-04-12T06:09:26.775Z</time></trkpt><trkpt lat="45.64904248181682" lon="11.456298685797757"><ele>85.0</ele><time>2026-04-12T06:09:27.775Z</time></trkpt><trkpt lat="45.649099825926704" lon="11.456676967152589"><ele>85.0</ele><time>2026-04-12T06:09:28.775Z</time></trkpt><trkpt lat="45.6491549478601" lon="11.457053795321292"><ele>86.0</ele><time>2026-04-12T06:09:29.775Z</time></trkpt><trkpt lat="45.64921793164684" lon="11.457413536622251"><ele>87.0</ele><time>2026-04-12T06:09:30.775Z</time></trkpt><trkpt lat="45.649286697459445" lon="11.457772938615678"><ele>87.5</ele><time>2026-04-12T06:09:31.775Z</time></trkpt><trkpt lat="45.64935778279314" lon="11.458131536902325"><ele>88.0</ele><time>2026-04-12T06:09:32.775Z</time></trkpt><trkpt lat="45.64942952152994" lon="11.458485760651577"><ele>87.0</ele><time>2026-04-12T06:09:33.775Z</time></trkpt><trkpt lat="45.649499187120696" lon="11.458835866357433"><ele>86.0</ele><time>2026-04-12T06:09:34.775Z</time></trkpt><trkpt lat="45.64957451752272" lon="11.459178691970871"><ele>86.0</ele><time>2026-04-12T06:09:35.775Z</time></trkpt><trkpt lat="45.64965533635642" lon="11.459521280050957"><ele>86.0</ele><time>2026-04-12T06:09:36.775Z</time></trkpt><trkpt lat="45.64973795836963" lon="11.45986865926362"><ele>86.0</ele><time>2026-04-12T06:09:37.775Z</time></trkpt><trkpt lat="45.64982506643177" lon="11.460215797165214"><ele>86.0</ele><time>2026-04-12T06:09:38.775Z</time></trkpt><trkpt lat="45.64991718792421" lon="11.460556432667502"><ele>85.0</ele><time>2026-04-12T06:09:39.775Z</time></trkpt><trkpt lat="45.65001418220773" lon="11.460900030350116"><ele>84.0</ele><time>2026-04-12T06:09:40.775Z</time></trkpt><trkpt lat="45.65011461968114" lon="11.46123738697152"><ele>84.0</ele><time>2026-04-12T06:09:41.775Z</time></trkpt><trkpt lat="45.6502171924238" lon="11.46157449367083"><ele>84.0</ele><time>2026-04-12T06:09:42.775Z</time></trkpt><trkpt lat="45.65031758142878" lon="11.461906181383673"><ele>82.5</ele><time>2026-04-12T06:09:43.775Z</time></trkpt><trkpt lat="45.650421791653244" lon="11.462235361259292"><ele>81.0</ele><time>2026-04-12T06:09:44.775Z</time></trkpt><trkpt lat="45.65051553907932" lon="11.46256883968079"><ele>81.0</ele><time>2026-04-12T06:09:45.775Z</time></trkpt><trkpt lat="45.65061253111932" lon="11.462909385440943"><ele>81.0</ele><time>2026-04-12T06:09:46.775Z</time></trkpt><trkpt lat="45.65071584954986" lon="11.46324026340122"><ele>81.0</ele><time>2026-04-12T06:09:47.775Z</time></trkpt><trkpt lat="45.650817979505554" lon="11.463568844594853"><ele>81.0</ele><time>2026-04-12T06:09:48.775Z</time></trkpt><trkpt lat="45.65091744894915" lon="11.463901708028269"><ele>81.0</ele><time>2026-04-12T06:09:49.775Z</time></trkpt><trkpt lat="45.65101893629151" lon="11.464227142319396"><ele>81.0</ele><time>2026-04-12T06:09:50.775Z</time></trkpt><trkpt lat="45.651122422270184" lon="11.464557466315915"><ele>81.0</ele><time>2026-04-12T06:09:51.775Z</time></trkpt><trkpt lat="45.65122251445469" lon="11.464883299550628"><ele>81.0</ele><time>2026-04-12T06:09:52.775Z</time></trkpt><trkpt lat="45.651320023604214" lon="11.46521323086203"><ele>80.5</ele><time>2026-04-12T06:09:53.775Z</time></trkpt><trkpt lat="45.65141769947043" lon="11.465546349006116"><ele>80.0</ele><time>2026-04-12T06:09:54.775Z</time></trkpt><trkpt lat="45.651518514474304" lon="11.465877366500605"><ele>80.0</ele><time>2026-04-12T06:09:55.775Z</time></trkpt><trkpt lat="45.65161951798745" lon="11.466207843107304"><ele>80.0</ele><time>2026-04-12T06:09:56.775Z</time></trkpt><trkpt lat="45.65172506277089" lon="11.466538637701298"><ele>81.5</ele><time>2026-04-12T06:09:57.775Z</time></trkpt><trkpt lat="45.65183250104013" lon="11.466872150655298"><ele>83.0</ele><time>2026-04-12T06:09:58.775Z</time></trkpt><trkpt lat="45.65193834625469" lon="11.467206269401768"><ele>83.0</ele><time>2026-04-12T06:09:59.775Z</time></trkpt><trkpt lat="45.65205461365105" lon="11.467537599629637"><ele>83.0</ele><time>2026-04-12T06:10:00.775Z</time></trkpt><trkpt lat="45.65217179906484" lon="11.467868552842486"><ele>82.0</ele><time>2026-04-12T06:10:01.775Z</time></trkpt><trkpt lat="45.65229525236471" lon="11.468200881650894"><ele>81.0</ele><time>2026-04-12T06:10:02.775Z</time></trkpt><trkpt lat="45.652416549113426" lon="11.468535340504292"><ele>81.5</ele><time>2026-04-12T06:10:03.775Z</time></trkpt><trkpt lat="45.652538649923" lon="11.468879608853777"><ele>82.0</ele><time>2026-04-12T06:10:04.775Z</time></trkpt><trkpt lat="45.65266923958732" lon="11.469210925879409"><ele>81.5</ele><time>2026-04-12T06:10:05.775Z</time></trkpt><trkpt lat="45.65279436504528" lon="11.469555207448517"><ele>81.0</ele><time>2026-04-12T06:10:06.775Z</time></trkpt><trkpt lat="45.652935149748124" lon="11.469891619235192"><ele>81.0</ele><time>2026-04-12T06:10:07.775Z</time></trkpt><trkpt lat="45.65307695827424" lon="11.470223801481968"><ele>81.0</ele><time>2026-04-12T06:10:08.775Z</time></trkpt><trkpt lat="45.65321492537005" lon="11.470552807438382"><ele>80.5</ele><time>2026-04-12T06:10:09.775Z</time></trkpt><trkpt lat="45.653352845964804" lon="11.470884651462528"><ele>80.0</ele><time>2026-04-12T06:10:10.775Z</time></trkpt><trkpt lat="45.65349681880226" lon="11.471209602945098"><ele>80.5</ele><time>2026-04-12T06:10:11.775Z</time></trkpt><trkpt lat="45.65364235297216" lon="11.471533485598831"><ele>81.0</ele><time>2026-04-12T06:10:12.775Z</time></trkpt><trkpt lat="45.65378798939524" lon="11.471857759721498"><ele>81.0</ele><time>2026-04-12T06:10:13.775Z</time></trkpt><trkpt lat="45.65393674612627" lon="11.472171480595469"><ele>81.0</ele><time>2026-04-12T06:10:14.775Z</time></trkpt><trkpt lat="45.65408887226061" lon="11.47248231262501"><ele>81.0</ele><time>2026-04-12T06:10:15.775Z</time></trkpt><trkpt lat="45.65424224240522" lon="11.472792420618816"><ele>81.0</ele><time>2026-04-12T06:10:16.775Z</time></trkpt><trkpt lat="45.65439418292735" lon="11.473102873670978"><ele>82.0</ele><time>2026-04-12T06:10:17.775Z</time></trkpt><trkpt lat="45.654551224916915" lon="11.473419580517334"><ele>83.0</ele><time>2026-04-12T06:10:18.792Z</time></trkpt><trkpt lat="45.654709541952215" lon="11.47372959981387"><ele>82.0</ele><time>2026-04-12T06:10:19.792Z</time></trkpt><trkpt lat="45.65486881941572" lon="11.4740376553825"><ele>81.0</ele><time>2026-04-12T06:10:20.792Z</time></trkpt><trkpt lat="45.65502937970132" lon="11.47434401032133"><ele>79.0</ele><time>2026-04-12T06:10:21.789Z</time></trkpt><trkpt lat="45.65574949316257" lon="11.475557920325949"><ele>79.0</ele><time>2026-04-12T06:10:25.775Z</time></trkpt><trkpt lat="45.65598227027646" lon="11.475827142351475"><ele>79.0</ele><time>2026-04-12T06:10:26.775Z</time></trkpt><trkpt lat="45.65617805388132" lon="11.476113094731229"><ele>79.5</ele><time>2026-04-12T06:10:27.775Z</time></trkpt><trkpt lat="45.65635992967808" lon="11.476417643769071"><ele>80.0</ele><time>2026-04-12T06:10:28.775Z</time></trkpt><trkpt lat="45.65654669593161" lon="11.47672440551204"><ele>80.0</ele><time>2026-04-12T06:10:29.775Z</time></trkpt><trkpt lat="45.656735655112016" lon="11.477031625926598"><ele>80.0</ele><time>2026-04-12T06:10:30.775Z</time></trkpt><trkpt lat="45.65692521734095" lon="11.477340731496527"><ele>80.5</ele><time>2026-04-12T06:10:31.776Z</time></trkpt><trkpt lat="45.657117516755136" lon="11.477652413358925"><ele>81.0</ele><time>2026-04-12T06:10:32.776Z</time></trkpt><trkpt lat="45.657310320021324" lon="11.47796242224013"><ele>81.0</ele><time>2026-04-12T06:10:33.776Z</time></trkpt><trkpt lat="45.65750234067092" lon="11.478281879040104"><ele>81.0</ele><time>2026-04-12T06:10:34.792Z</time></trkpt><trkpt lat="45.65769207930675" lon="11.478599611458103"><ele>80.0</ele><time>2026-04-12T06:10:35.793Z</time></trkpt><trkpt lat="45.657875802528565" lon="11.478922719745688"><ele>79.0</ele><time>2026-04-12T06:10:36.791Z</time></trkpt><trkpt lat="45.65805745780996" lon="11.479250058758815"><ele>79.0</ele><time>2026-04-12T06:10:37.791Z</time></trkpt><trkpt lat="45.65829791132887" lon="11.479538166906199"><ele>79.0</ele><time>2026-04-12T06:10:38.776Z</time></trkpt><trkpt lat="45.65847534728104" lon="11.479870735562065"><ele>79.0</ele><time>2026-04-12T06:10:39.776Z</time></trkpt><trkpt lat="45.65860125207122" lon="11.480251185241588"><ele>79.0</ele><time>2026-04-12T06:10:40.776Z</time></trkpt><trkpt lat="45.65875936527027" lon="11.480582894585982"><ele>79.0</ele><time>2026-04-12T06:10:41.776Z</time></trkpt><trkpt lat="45.65890732154798" lon="11.480929578475346"><ele>79.0</ele><time>2026-04-12T06:10:42.776Z</time></trkpt><trkpt lat="45.65905848086321" lon="11.481267061230135"><ele>79.0</ele><time>2026-04-12T06:10:43.776Z</time></trkpt><trkpt lat="45.65921297037638" lon="11.481604842965455"><ele>79.0</ele><time>2026-04-12T06:10:44.776Z</time></trkpt><trkpt lat="45.65935924394126" lon="11.48194863823127"><ele>79.5</ele><time>2026-04-12T06:10:45.776Z</time></trkpt><trkpt lat="45.65950514312512" lon="11.482288890687396"><ele>80.0</ele><time>2026-04-12T06:10:46.776Z</time></trkpt><trkpt lat="45.659639530331994" lon="11.482632966663026"><ele>80.0</ele><time>2026-04-12T06:10:47.776Z</time></trkpt><trkpt lat="45.659774166025855" lon="11.48297067469365"><ele>80.0</ele><time>2026-04-12T06:10:48.776Z</time></trkpt><trkpt lat="45.65989140768542" lon="11.483321987452713"><ele>80.0</ele><time>2026-04-12T06:10:49.776Z</time></trkpt><trkpt lat="45.66000754413841" lon="11.483665330575269"><ele>80.0</ele><time>2026-04-12T06:10:50.776Z</time></trkpt><trkpt lat="45.660124053360306" lon="11.484003594248904"><ele>79.5</ele><time>2026-04-12T06:10:51.776Z</time></trkpt><trkpt lat="45.660239107296675" lon="11.484342940060412"><ele>79.0</ele><time>2026-04-12T06:10:52.776Z</time></trkpt><trkpt lat="45.66034819868196" lon="11.484686086175845"><ele>80.0</ele><time>2026-04-12T06:10:53.776Z</time></trkpt><trkpt lat="45.660452130490455" lon="11.485023286858913"><ele>81.0</ele><time>2026-04-12T06:10:54.776Z</time></trkpt><trkpt lat="45.660550172802395" lon="11.485360200139016"><ele>80.5</ele><time>2026-04-12T06:10:55.776Z</time></trkpt><trkpt lat="45.6606422083757" lon="11.485705358751588"><ele>80.0</ele><time>2026-04-12T06:10:56.776Z</time></trkpt><trkpt lat="45.66073465350967" lon="11.486048178274388"><ele>79.0</ele><time>2026-04-12T06:10:57.776Z</time></trkpt><trkpt lat="45.66081962466684" lon="11.48638863402571"><ele>78.0</ele><time>2026-04-12T06:10:58.776Z</time></trkpt><trkpt lat="45.66090521538894" lon="11.48672354030249"><ele>78.0</ele><time>2026-04-12T06:10:59.776Z</time></trkpt><trkpt lat="45.660988926372276" lon="11.487068384771376"><ele>78.0</ele><time>2026-04-12T06:11:00.776Z</time></trkpt><trkpt lat="45.66107093706633" lon="11.487409078708383"><ele>78.5</ele><time>2026-04-12T06:11:01.776Z</time></trkpt><trkpt lat="45.661147819509296" lon="11.487747880693217"><ele>79.0</ele><time>2026-04-12T06:11:02.776Z</time></trkpt><trkpt lat="45.661238517769185" lon="11.48807472968113"><ele>79.0</ele><time>2026-04-12T06:11:03.776Z</time></trkpt><trkpt lat="45.66132006018271" lon="11.48841255816661"><ele>79.0</ele><time>2026-04-12T06:11:04.776Z</time></trkpt><trkpt lat="45.661403776537426" lon="11.488755370345814"><ele>79.0</ele><time>2026-04-12T06:11:05.776Z</time></trkpt><trkpt lat="45.661479044452236" lon="11.489102692559564"><ele>79.0</ele><time>2026-04-12T06:11:06.776Z</time></trkpt><trkpt lat="45.661555975586566" lon="11.489446802217644"><ele>79.5</ele><time>2026-04-12T06:11:07.776Z</time></trkpt><trkpt lat="45.66164129261567" lon="11.489792504928719"><ele>80.0</ele><time>2026-04-12T06:11:08.776Z</time></trkpt><trkpt lat="45.66172110814239" lon="11.490136348787432"><ele>79.5</ele><time>2026-04-12T06:11:09.776Z</time></trkpt><trkpt lat="45.661804894840074" lon="11.490481597176911"><ele>79.0</ele><time>2026-04-12T06:11:10.776Z</time></trkpt><trkpt lat="45.66189088712748" lon="11.490827831731188"><ele>80.0</ele><time>2026-04-12T06:11:11.776Z</time></trkpt><trkpt lat="45.6619737206942" lon="11.491176156744412"><ele>81.0</ele><time>2026-04-12T06:11:12.776Z</time></trkpt><trkpt lat="45.662055517773865" lon="11.491525400732478"><ele>81.0</ele><time>2026-04-12T06:11:13.776Z</time></trkpt><trkpt lat="45.66213901816807" lon="11.491879839005927"><ele>81.0</ele><time>2026-04-12T06:11:14.79Z</time></trkpt><trkpt lat="45.66222077084375" lon="11.492229203336315"><ele>80.0</ele><time>2026-04-12T06:11:15.79Z</time></trkpt><trkpt lat="45.662302575153454" lon="11.492575653956395"><ele>79.0</ele><time>2026-04-12T06:11:16.789Z</time></trkpt><trkpt lat="45.662384326497715" lon="11.492923151755049"><ele>79.0</ele><time>2026-04-12T06:11:17.789Z</time></trkpt><trkpt lat="45.66246495329723" lon="11.493270347337793"><ele>79.0</ele><time>2026-04-12T06:11:18.788Z</time></trkpt><trkpt lat="45.663413344924955" lon="11.497597983117679"><ele>79.0</ele><time>2026-04-12T06:11:30.776Z</time></trkpt><trkpt lat="45.66349749131284" lon="11.497946823670388"><ele>79.0</ele><time>2026-04-12T06:11:31.776Z</time></trkpt><trkpt lat="45.66362225944215" lon="11.498246222487833"><ele>78.0</ele><time>2026-04-12T06:11:32.776Z</time></trkpt><trkpt lat="45.66371982124661" lon="11.498588291916676"><ele>77.0</ele><time>2026-04-12T06:11:33.776Z</time></trkpt><trkpt lat="45.663809329533635" lon="11.498968600575136"><ele>77.0</ele><time>2026-04-12T06:11:34.776Z</time></trkpt><trkpt lat="45.66391320530175" lon="11.49929611898817"><ele>77.0</ele><time>2026-04-12T06:11:35.776Z</time></trkpt><trkpt lat="45.663996216578546" lon="11.49965243468622"><ele>77.0</ele><time>2026-04-12T06:11:36.776Z</time></trkpt><trkpt lat="45.66408256784691" lon="11.500003292385905"><ele>77.0</ele><time>2026-04-12T06:11:37.776Z</time></trkpt><trkpt lat="45.66417034527487" lon="11.50035724825806"><ele>79.0</ele><time>2026-04-12T06:11:38.791Z</time></trkpt><trkpt lat="45.66468961541137" lon="11.50216410868941"><ele>79.0</ele><time>2026-04-12T06:11:43.776Z</time></trkpt><trkpt lat="45.66478562186214" lon="11.50251907825364"><ele>79.0</ele><time>2026-04-12T06:11:44.776Z</time></trkpt><trkpt lat="45.664772962140304" lon="11.50293284361016"><ele>78.0</ele><time>2026-04-12T06:11:45.776Z</time></trkpt><trkpt lat="45.66486728671712" lon="11.503246234393748"><ele>77.0</ele><time>2026-04-12T06:11:46.776Z</time></trkpt><trkpt lat="45.66497914193637" lon="11.50360323398755"><ele>75.5</ele><time>2026-04-12T06:11:47.776Z</time></trkpt><trkpt lat="45.665053339195865" lon="11.503967941103891"><ele>74.0</ele><time>2026-04-12T06:11:48.776Z</time></trkpt><trkpt lat="45.66512160133641" lon="11.504340298473645"><ele>75.0</ele><time>2026-04-12T06:11:49.776Z</time></trkpt><trkpt lat="45.665209818160186" lon="11.504681795349372"><ele>76.0</ele><time>2026-04-12T06:11:50.776Z</time></trkpt><trkpt lat="45.665275611309106" lon="11.505019277396588"><ele>77.0</ele><time>2026-04-12T06:11:51.776Z</time></trkpt><trkpt lat="45.66535691889852" lon="11.505358550193453"><ele>78.0</ele><time>2026-04-12T06:11:52.776Z</time></trkpt><trkpt lat="45.66544302929236" lon="11.505707118716252"><ele>78.0</ele><time>2026-04-12T06:11:53.776Z</time></trkpt><trkpt lat="45.66549703496982" lon="11.5060746554634"><ele>78.0</ele><time>2026-04-12T06:11:54.776Z</time></trkpt><trkpt lat="45.665585443302824" lon="11.506421492889254"><ele>77.5</ele><time>2026-04-12T06:11:55.776Z</time></trkpt><trkpt lat="45.665668542982196" lon="11.506764521306376"><ele>77.0</ele><time>2026-04-12T06:11:56.776Z</time></trkpt><trkpt lat="45.665754496722265" lon="11.50710557297032"><ele>76.0</ele><time>2026-04-12T06:11:57.776Z</time></trkpt><trkpt lat="45.6658418734677" lon="11.507454020722948"><ele>75.0</ele><time>2026-04-12T06:11:58.776Z</time></trkpt><trkpt lat="45.66592072175604" lon="11.507804756157462"><ele>75.0</ele><time>2026-04-12T06:11:59.776Z</time></trkpt><trkpt lat="45.66600721703233" lon="11.50815475256766"><ele>75.0</ele><time>2026-04-12T06:12:00.776Z</time></trkpt><trkpt lat="45.66608498445159" lon="11.508517093240108"><ele>75.5</ele><time>2026-04-12T06:12:01.776Z</time></trkpt><trkpt lat="45.666169638846924" lon="11.508872817191062"><ele>76.0</ele><time>2026-04-12T06:12:02.776Z</time></trkpt><trkpt lat="45.66625110882109" lon="11.509224625907219"><ele>76.0</ele><time>2026-04-12T06:12:03.776Z</time></trkpt><trkpt lat="45.66633756758069" lon="11.509571572036803"><ele>76.0</ele><time>2026-04-12T06:12:04.776Z</time></trkpt><trkpt lat="45.666430503888186" lon="11.509909707998512"><ele>76.0</ele><time>2026-04-12T06:12:05.776Z</time></trkpt><trkpt lat="45.66653737948223" lon="11.510245084675022"><ele>76.0</ele><time>2026-04-12T06:12:06.776Z</time></trkpt><trkpt lat="45.66664583572501" lon="11.510576285397866"><ele>76.5</ele><time>2026-04-12T06:12:07.776Z</time></trkpt><trkpt lat="45.66675049492489" lon="11.510904605629937"><ele>77.0</ele><time>2026-04-12T06:12:08.776Z</time></trkpt><trkpt lat="45.66686904183128" lon="11.511225932211172"><ele>77.0</ele><time>2026-04-12T06:12:09.776Z</time></trkpt><trkpt lat="45.66699660607343" lon="11.51154122472813"><ele>77.0</ele><time>2026-04-12T06:12:10.776Z</time></trkpt><trkpt lat="45.66712431211832" lon="11.511854879726927"><ele>76.5</ele><time>2026-04-12T06:12:11.776Z</time></trkpt><trkpt lat="45.66726187871922" lon="11.51216043189299"><ele>76.0</ele><time>2026-04-12T06:12:12.776Z</time></trkpt><trkpt lat="45.66740047841447" lon="11.512465284607645"><ele>76.0</ele><time>2026-04-12T06:12:13.776Z</time></trkpt><trkpt lat="45.667545611277305" lon="11.512761222537083"><ele>76.0</ele><time>2026-04-12T06:12:14.776Z</time></trkpt><trkpt lat="45.667691300535076" lon="11.513046985458367"><ele>77.0</ele><time>2026-04-12T06:12:15.776Z</time></trkpt><trkpt lat="45.66784243260687" lon="11.51332448063539"><ele>78.0</ele><time>2026-04-12T06:12:16.776Z</time></trkpt><trkpt lat="45.66799785516261" lon="11.513594462066951"><ele>78.5</ele><time>2026-04-12T06:12:17.776Z</time></trkpt><trkpt lat="45.66816036544192" lon="11.513866071645772"><ele>79.0</ele><time>2026-04-12T06:12:18.776Z</time></trkpt><trkpt lat="45.66833603146798" lon="11.514127593609684"><ele>79.0</ele><time>2026-04-12T06:12:19.776Z</time></trkpt><trkpt lat="45.668506208584844" lon="11.514386751621348"><ele>79.0</ele><time>2026-04-12T06:12:20.776Z</time></trkpt><trkpt lat="45.668687743753885" lon="11.514635992625008"><ele>79.0</ele><time>2026-04-12T06:12:21.776Z</time></trkpt><trkpt lat="45.66887237764633" lon="11.514877646786752"><ele>79.0</ele><time>2026-04-12T06:12:22.776Z</time></trkpt><trkpt lat="45.669058094941654" lon="11.515116251145328"><ele>79.0</ele><time>2026-04-12T06:12:23.776Z</time></trkpt><trkpt lat="45.669253968143565" lon="11.515344589896781"><ele>79.0</ele><time>2026-04-12T06:12:24.776Z</time></trkpt><trkpt lat="45.66945000908387" lon="11.515565632164817"><ele>79.0</ele><time>2026-04-12T06:12:25.776Z</time></trkpt><trkpt lat="45.66964818090521" lon="11.515781027005378"><ele>79.0</ele><time>2026-04-12T06:12:26.776Z</time></trkpt><trkpt lat="45.669850957954154" lon="11.515993296629334"><ele>79.0</ele><time>2026-04-12T06:12:27.776Z</time></trkpt><trkpt lat="45.67005398555243" lon="11.516201617630852"><ele>79.0</ele><time>2026-04-12T06:12:28.776Z</time></trkpt><trkpt lat="45.670258694937246" lon="11.51640886346528"><ele>80.0</ele><time>2026-04-12T06:12:29.776Z</time></trkpt><trkpt lat="45.67047029380509" lon="11.516599621059957"><ele>81.0</ele><time>2026-04-12T06:12:30.776Z</time></trkpt><trkpt lat="45.670689424123665" lon="11.516789604421612"><ele>81.0</ele><time>2026-04-12T06:12:31.795Z</time></trkpt><trkpt lat="45.67090946049879" lon="11.516965169134581"><ele>81.0</ele><time>2026-04-12T06:12:32.793Z</time></trkpt><trkpt lat="45.67112922252489" lon="11.517131721652778"><ele>80.0</ele><time>2026-04-12T06:12:33.776Z</time></trkpt><trkpt lat="45.67135545900061" lon="11.517303942617653"><ele>79.0</ele><time>2026-04-12T06:12:34.776Z</time></trkpt><trkpt lat="45.67157736901908" lon="11.517431908195007"><ele>79.0</ele><time>2026-04-12T06:12:35.776Z</time></trkpt><trkpt lat="45.671806908492684" lon="11.517566554374124"><ele>79.0</ele><time>2026-04-12T06:12:36.776Z</time></trkpt><trkpt lat="45.672042449263095" lon="11.517693825001647"><ele>79.5</ele><time>2026-04-12T06:12:37.776Z</time></trkpt><trkpt lat="45.672276861343136" lon="11.517813508216989"><ele>80.0</ele><time>2026-04-12T06:12:38.776Z</time></trkpt><trkpt lat="45.67250808996467" lon="11.517931254903576"><ele>80.0</ele><time>2026-04-12T06:12:39.777Z</time></trkpt><trkpt lat="45.67274684795773" lon="11.518038104919333"><ele>80.0</ele><time>2026-04-12T06:12:40.777Z</time></trkpt><trkpt lat="45.67298966303782" lon="11.518146862604848"><ele>78.5</ele><time>2026-04-12T06:12:41.777Z</time></trkpt><trkpt lat="45.67324019501876" lon="11.518242000410941"><ele>77.0</ele><time>2026-04-12T06:12:42.777Z</time></trkpt><trkpt lat="45.6734887093535" lon="11.518312997022083"><ele>78.0</ele><time>2026-04-12T06:12:43.777Z</time></trkpt><trkpt lat="45.67373838897809" lon="11.518377303102886"><ele>79.0</ele><time>2026-04-12T06:12:44.777Z</time></trkpt><trkpt lat="45.67399523326168" lon="11.518434370901591"><ele>79.0</ele><time>2026-04-12T06:12:45.777Z</time></trkpt><trkpt lat="45.67425588980683" lon="11.51847272917285"><ele>79.0</ele><time>2026-04-12T06:12:46.777Z</time></trkpt><trkpt lat="45.67452216218654" lon="11.518515016959928"><ele>81.0</ele><time>2026-04-12T06:12:47.777Z</time></trkpt><trkpt lat="45.67478978422204" lon="11.518562676028761"><ele>83.0</ele><time>2026-04-12T06:12:48.777Z</time></trkpt><trkpt lat="45.675059007127714" lon="11.518604793096618"><ele>82.5</ele><time>2026-04-12T06:12:49.778Z</time></trkpt><trkpt lat="45.67531929414644" lon="11.518652702866483"><ele>82.0</ele><time>2026-04-12T06:12:50.778Z</time></trkpt><trkpt lat="45.675564284006064" lon="11.51869014493641"><ele>82.0</ele><time>2026-04-12T06:12:51.778Z</time></trkpt><trkpt lat="45.67579920217645" lon="11.518724441760346"><ele>82.0</ele><time>2026-04-12T06:12:52.778Z</time></trkpt><trkpt lat="45.67603705446335" lon="11.51875767657544"><ele>83.0</ele><time>2026-04-12T06:12:53.778Z</time></trkpt><trkpt lat="45.676275600263104" lon="11.5187902380708"><ele>84.0</ele><time>2026-04-12T06:12:54.778Z</time></trkpt><trkpt lat="45.67651673692715" lon="11.518840188591966"><ele>84.0</ele><time>2026-04-12T06:12:55.778Z</time></trkpt><trkpt lat="45.67676258085583" lon="11.51888256479396"><ele>84.0</ele><time>2026-04-12T06:12:56.778Z</time></trkpt><trkpt lat="45.677010163786036" lon="11.518923851471092"><ele>84.0</ele><time>2026-04-12T06:12:57.778Z</time></trkpt><trkpt lat="45.67726665880676" lon="11.518955595403897"><ele>84.0</ele><time>2026-04-12T06:12:58.778Z</time></trkpt><trkpt lat="45.677517836341394" lon="11.518996257438149"><ele>84.0</ele><time>2026-04-12T06:12:59.778Z</time></trkpt><trkpt lat="45.677772986219" lon="11.519036273035729"><ele>84.0</ele><time>2026-04-12T06:13:00.778Z</time></trkpt><trkpt lat="45.6780309792682" lon="11.519084727348396"><ele>84.0</ele><time>2026-04-12T06:13:01.778Z</time></trkpt><trkpt lat="45.67829173313664" lon="11.519143042550011"><ele>84.0</ele><time>2026-04-12T06:13:02.778Z</time></trkpt><trkpt lat="45.67854948754763" lon="11.519201499620696"><ele>85.0</ele><time>2026-04-12T06:13:03.778Z</time></trkpt><trkpt lat="45.678811396774755" lon="11.51927105435474"><ele>86.0</ele><time>2026-04-12T06:13:04.778Z</time></trkpt><trkpt lat="45.679069037834324" lon="11.519350983797013"><ele>86.0</ele><time>2026-04-12T06:13:05.778Z</time></trkpt><trkpt lat="45.67932485635727" lon="11.51943976264479"><ele>86.0</ele><time>2026-04-12T06:13:06.778Z</time></trkpt><trkpt lat="45.67958327120194" lon="11.519536015358401"><ele>86.5</ele><time>2026-04-12T06:13:07.778Z</time></trkpt><trkpt lat="45.67983785248871" lon="11.519641384256056"><ele>87.0</ele><time>2026-04-12T06:13:08.778Z</time></trkpt><trkpt lat="45.68008175123382" lon="11.519770486251241"><ele>87.0</ele><time>2026-04-12T06:13:09.778Z</time></trkpt><trkpt lat="45.68033335667022" lon="11.519885474745324"><ele>87.0</ele><time>2026-04-12T06:13:10.778Z</time></trkpt><trkpt lat="45.6805838664556" lon="11.520029511577542"><ele>87.0</ele><time>2026-04-12T06:13:11.778Z</time></trkpt><trkpt lat="45.6808311960244" lon="11.520181635506809"><ele>87.0</ele><time>2026-04-12T06:13:12.778Z</time></trkpt><trkpt lat="45.681078362261196" lon="11.520338871350146"><ele>87.0</ele><time>2026-04-12T06:13:13.778Z</time></trkpt><trkpt lat="45.681325112384606" lon="11.52049816614629"><ele>87.0</ele><time>2026-04-12T06:13:14.778Z</time></trkpt><trkpt lat="45.681568929178894" lon="11.52066742250665"><ele>87.0</ele><time>2026-04-12T06:13:15.778Z</time></trkpt><trkpt lat="45.681805377801524" lon="11.520854008061223"><ele>87.0</ele><time>2026-04-12T06:13:16.778Z</time></trkpt><trkpt lat="45.68203931429625" lon="11.521048558654442"><ele>87.0</ele><time>2026-04-12T06:13:17.778Z</time></trkpt><trkpt lat="45.68226983175817" lon="11.521249922733846"><ele>87.0</ele><time>2026-04-12T06:13:18.778Z</time></trkpt><trkpt lat="45.68249655287057" lon="11.521462509655775"><ele>87.0</ele><time>2026-04-12T06:13:19.778Z</time></trkpt><trkpt lat="45.6827203166282" lon="11.521670622939546"><ele>87.0</ele><time>2026-04-12T06:13:20.778Z</time></trkpt><trkpt lat="45.682943083225" lon="11.521887709626952"><ele>88.0</ele><time>2026-04-12T06:13:21.778Z</time></trkpt><trkpt lat="45.6831603145831" lon="11.522123101946367"><ele>89.0</ele><time>2026-04-12T06:13:22.778Z</time></trkpt><trkpt lat="45.68337493464097" lon="11.52236477652774"><ele>89.0</ele><time>2026-04-12T06:13:23.778Z</time></trkpt><trkpt lat="45.68358671834772" lon="11.522604979133812"><ele>89.0</ele><time>2026-04-12T06:13:24.778Z</time></trkpt><trkpt lat="45.68379130754956" lon="11.522859717291166"><ele>89.5</ele><time>2026-04-12T06:13:25.778Z</time></trkpt><trkpt lat="45.68399139979492" lon="11.523125270681737"><ele>90.0</ele><time>2026-04-12T06:13:26.778Z</time></trkpt><trkpt lat="45.684196792532255" lon="11.523385595192789"><ele>90.0</ele><time>2026-04-12T06:13:27.778Z</time></trkpt><trkpt lat="45.684392287218316" lon="11.523649960381634"><ele>90.0</ele><time>2026-04-12T06:13:28.778Z</time></trkpt><trkpt lat="45.68458974366552" lon="11.523924064286586"><ele>89.5</ele><time>2026-04-12T06:13:29.778Z</time></trkpt><trkpt lat="45.68477743224772" lon="11.524217853756006"><ele>89.0</ele><time>2026-04-12T06:13:30.778Z</time></trkpt><trkpt lat="45.68496292563813" lon="11.524512006669942"><ele>90.0</ele><time>2026-04-12T06:13:31.778Z</time></trkpt><trkpt lat="45.685151919015816" lon="11.52480689354916"><ele>91.0</ele><time>2026-04-12T06:13:32.778Z</time></trkpt><trkpt lat="45.68533373711983" lon="11.525120392147088"><ele>92.5</ele><time>2026-04-12T06:13:33.778Z</time></trkpt><trkpt lat="45.68551749401096" lon="11.52542798356893"><ele>94.0</ele><time>2026-04-12T06:13:34.778Z</time></trkpt><trkpt lat="45.68570356136353" lon="11.52571990204805"><ele>94.0</ele><time>2026-04-12T06:13:35.778Z</time></trkpt><trkpt lat="45.68588575891441" lon="11.52601727997819"><ele>94.0</ele><time>2026-04-12T06:13:36.778Z</time></trkpt><trkpt lat="45.686074839824386" lon="11.526295522923242"><ele>94.5</ele><time>2026-04-12T06:13:37.778Z</time></trkpt><trkpt lat="45.68626013834301" lon="11.526583689712231"><ele>95.0</ele><time>2026-04-12T06:13:38.778Z</time></trkpt><trkpt lat="45.686447926046476" lon="11.526873746999463"><ele>94.0</ele><time>2026-04-12T06:13:39.795Z</time></trkpt><trkpt lat="45.68663026096778" lon="11.527154877909183"><ele>93.0</ele><time>2026-04-12T06:13:40.79Z</time></trkpt><trkpt lat="45.68681301123704" lon="11.52743559549821"><ele>93.0</ele><time>2026-04-12T06:13:41.794Z</time></trkpt><trkpt lat="45.686992060267585" lon="11.527712898934416"><ele>93.0</ele><time>2026-04-12T06:13:42.793Z</time></trkpt><trkpt lat="45.687169001388696" lon="11.527988695418484"><ele>99.0</ele><time>2026-04-12T06:13:43.79Z</time></trkpt><trkpt lat="45.68882468409393" lon="11.53053383580898"><ele>101.0</ele><time>2026-04-12T06:13:53.815Z</time></trkpt><trkpt lat="45.68947953765893" lon="11.5315378026915"><ele>102.0</ele><time>2026-04-12T06:13:58.256Z</time></trkpt><trkpt lat="45.69010547366523" lon="11.532622184615146"><ele>102.0</ele><time>2026-04-12T06:14:00.778Z</time></trkpt><trkpt lat="45.690243151958015" lon="11.532852954106984"><ele>102.0</ele><time>2026-04-12T06:14:01.778Z</time></trkpt><trkpt lat="45.690392637316435" lon="11.533120309826007"><ele>102.5</ele><time>2026-04-12T06:14:02.778Z</time></trkpt><trkpt lat="45.69055690513661" lon="11.533376149776354"><ele>103.0</ele><time>2026-04-12T06:14:03.778Z</time></trkpt><trkpt lat="45.69071606009127" lon="11.533647546990121"><ele>102.0</ele><time>2026-04-12T06:14:04.778Z</time></trkpt><trkpt lat="45.69087102638138" lon="11.533916154294449"><ele>101.0</ele><time>2026-04-12T06:14:05.778Z</time></trkpt><trkpt lat="45.69102576357013" lon="11.53418013195406"><ele>101.5</ele><time>2026-04-12T06:14:06.778Z</time></trkpt><trkpt lat="45.691186115950366" lon="11.53444930107283"><ele>102.0</ele><time>2026-04-12T06:14:07.778Z</time></trkpt><trkpt lat="45.691344385585055" lon="11.534709323121348"><ele>102.5</ele><time>2026-04-12T06:14:08.778Z</time></trkpt><trkpt lat="45.6914894535553" lon="11.534990283146714"><ele>103.0</ele><time>2026-04-12T06:14:09.778Z</time></trkpt><trkpt lat="45.69163952556205" lon="11.535265879629707"><ele>103.0</ele><time>2026-04-12T06:14:10.778Z</time></trkpt><trkpt lat="45.69178674436878" lon="11.535540180261666"><ele>103.0</ele><time>2026-04-12T06:14:11.778Z</time></trkpt><trkpt lat="45.69192407589542" lon="11.535816309670688"><ele>102.5</ele><time>2026-04-12T06:14:12.778Z</time></trkpt><trkpt lat="45.69205934222227" lon="11.536094703540513"><ele>102.0</ele><time>2026-04-12T06:14:13.778Z</time></trkpt><trkpt lat="45.692193627057826" lon="11.536384112326717"><ele>102.0</ele><time>2026-04-12T06:14:14.778Z</time></trkpt><trkpt lat="45.69232299397712" lon="11.536680245852057"><ele>102.0</ele><time>2026-04-12T06:14:15.778Z</time></trkpt><trkpt lat="45.69244993081275" lon="11.536981279381173"><ele>103.0</ele><time>2026-04-12T06:14:16.778Z</time></trkpt><trkpt lat="45.69256904343352" lon="11.537284359104598"><ele>104.0</ele><time>2026-04-12T06:14:17.778Z</time></trkpt><trkpt lat="45.69268683889559" lon="11.53759577506033"><ele>104.0</ele><time>2026-04-12T06:14:18.778Z</time></trkpt><trkpt lat="45.69280223011042" lon="11.537900248765672"><ele>104.0</ele><time>2026-04-12T06:14:19.778Z</time></trkpt><trkpt lat="45.69291232640505" lon="11.538207699278137"><ele>104.0</ele><time>2026-04-12T06:14:20.778Z</time></trkpt><trkpt lat="45.69301650004805" lon="11.53852075184697"><ele>104.0</ele><time>2026-04-12T06:14:21.778Z</time></trkpt><trkpt lat="45.693111863415226" lon="11.538831894507599"><ele>105.0</ele><time>2026-04-12T06:14:22.778Z</time></trkpt><trkpt lat="45.6932081657231" lon="11.5391456449007"><ele>106.0</ele><time>2026-04-12T06:14:23.778Z</time></trkpt><trkpt lat="45.69330299074554" lon="11.539465923842759"><ele>105.0</ele><time>2026-04-12T06:14:24.793Z</time></trkpt><trkpt lat="45.693386897164395" lon="11.53978450302731"><ele>104.0</ele><time>2026-04-12T06:14:25.789Z</time></trkpt><trkpt lat="45.693465384196806" lon="11.540108716764243"><ele>104.0</ele><time>2026-04-12T06:14:26.794Z</time></trkpt><trkpt lat="45.69353980929261" lon="11.540439671419616"><ele>104.0</ele><time>2026-04-12T06:14:27.795Z</time></trkpt><trkpt lat="45.69361218412415" lon="11.540761312420496"><ele>104.0</ele><time>2026-04-12T06:14:28.778Z</time></trkpt><trkpt lat="45.693789233256375" lon="11.541051698265333"><ele>104.0</ele><time>2026-04-12T06:14:29.778Z</time></trkpt><trkpt lat="45.693823865610355" lon="11.541360879206138"><ele>104.5</ele><time>2026-04-12T06:14:30.778Z</time></trkpt><trkpt lat="45.69384022186965" lon="11.541768839431821"><ele>105.0</ele><time>2026-04-12T06:14:31.778Z</time></trkpt><trkpt lat="45.69387469074977" lon="11.542132929953654"><ele>104.0</ele><time>2026-04-12T06:14:32.778Z</time></trkpt><trkpt lat="45.69394505915522" lon="11.542460718850961"><ele>103.0</ele><time>2026-04-12T06:14:33.778Z</time></trkpt><trkpt lat="45.69399202162019" lon="11.542808294001677"><ele>102.5</ele><time>2026-04-12T06:14:34.778Z</time></trkpt><trkpt lat="45.69404616361006" lon="11.543131767668463"><ele>102.0</ele><time>2026-04-12T06:14:35.778Z</time></trkpt><trkpt lat="45.69408579453111" lon="11.543476358590365"><ele>102.0</ele><time>2026-04-12T06:14:36.778Z</time></trkpt><trkpt lat="45.694131067270696" lon="11.543811466303342"><ele>102.0</ele><time>2026-04-12T06:14:37.778Z</time></trkpt><trkpt lat="45.694174141094784" lon="11.544155662008455"><ele>102.0</ele><time>2026-04-12T06:14:38.778Z</time></trkpt><trkpt lat="45.69420843102806" lon="11.544499479056475"><ele>102.0</ele><time>2026-04-12T06:14:39.778Z</time></trkpt><trkpt lat="45.69425013352844" lon="11.54483937863885"><ele>103.0</ele><time>2026-04-12T06:14:40.778Z</time></trkpt><trkpt lat="45.694289906138565" lon="11.545181759240357"><ele>104.0</ele><time>2026-04-12T06:14:41.778Z</time></trkpt><trkpt lat="45.69433414773046" lon="11.545524087125836"><ele>104.0</ele><time>2026-04-12T06:14:42.778Z</time></trkpt><trkpt lat="45.694376598040606" lon="11.545870805086153"><ele>104.0</ele><time>2026-04-12T06:14:43.778Z</time></trkpt><trkpt lat="45.69441894274886" lon="11.546222077712306"><ele>103.0</ele><time>2026-04-12T06:14:44.778Z</time></trkpt><trkpt lat="45.694463785098556" lon="11.54657582954983"><ele>102.0</ele><time>2026-04-12T06:14:45.779Z</time></trkpt><trkpt lat="45.69450813197197" lon="11.546926043891206"><ele>102.5</ele><time>2026-04-12T06:14:46.779Z</time></trkpt><trkpt lat="45.694544140856976" lon="11.54728173333197"><ele>103.0</ele><time>2026-04-12T06:14:47.779Z</time></trkpt><trkpt lat="45.694578781568524" lon="11.547643869972775"><ele>102.0</ele><time>2026-04-12T06:14:48.779Z</time></trkpt><trkpt lat="45.69461878684199" lon="11.548005101466435"><ele>101.0</ele><time>2026-04-12T06:14:49.779Z</time></trkpt><trkpt lat="45.694660036533776" lon="11.548369574123463"><ele>98.0</ele><time>2026-04-12T06:14:50.779Z</time></trkpt><trkpt lat="45.694700875093666" lon="11.548737153408057"><ele>95.0</ele><time>2026-04-12T06:14:51.779Z</time></trkpt><trkpt lat="45.69473826259706" lon="11.549109793286862"><ele>95.0</ele><time>2026-04-12T06:14:52.779Z</time></trkpt><trkpt lat="45.69477844545776" lon="11.549487385937516"><ele>95.0</ele><time>2026-04-12T06:14:53.779Z</time></trkpt><trkpt lat="45.6948152747528" lon="11.549868100747133"><ele>95.5</ele><time>2026-04-12T06:14:54.779Z</time></trkpt><trkpt lat="45.69485687612399" lon="11.55024164953709"><ele>96.0</ele><time>2026-04-12T06:14:55.779Z</time></trkpt><trkpt lat="45.69489499705686" lon="11.550614333134915"><ele>98.0</ele><time>2026-04-12T06:14:56.779Z</time></trkpt><trkpt lat="45.69491961271043" lon="11.551002559107046"><ele>100.0</ele><time>2026-04-12T06:14:57.779Z</time></trkpt><trkpt lat="45.694950049278354" lon="11.551380440859626"><ele>100.5</ele><time>2026-04-12T06:14:58.779Z</time></trkpt><trkpt lat="45.694989883283995" lon="11.551745083171866"><ele>101.0</ele><time>2026-04-12T06:14:59.779Z</time></trkpt><trkpt lat="45.69502476309007" lon="11.55211749153853"><ele>101.0</ele><time>2026-04-12T06:15:00.779Z</time></trkpt><trkpt lat="45.69506302957801" lon="11.552482101817018"><ele>101.0</ele><time>2026-04-12T06:15:01.779Z</time></trkpt><trkpt lat="45.6950962349521" lon="11.552850188963705"><ele>100.5</ele><time>2026-04-12T06:15:02.779Z</time></trkpt><trkpt lat="45.695127129603065" lon="11.553216552955341"><ele>100.0</ele><time>2026-04-12T06:15:03.779Z</time></trkpt><trkpt lat="45.695157791457476" lon="11.553584913589605"><ele>100.0</ele><time>2026-04-12T06:15:04.779Z</time></trkpt><trkpt lat="45.695191348305976" lon="11.553952888185174"><ele>100.0</ele><time>2026-04-12T06:15:05.779Z</time></trkpt><trkpt lat="45.69522355637663" lon="11.554314963019259"><ele>102.0</ele><time>2026-04-12T06:15:06.779Z</time></trkpt><trkpt lat="45.69525836552084" lon="11.554677685436818"><ele>104.0</ele><time>2026-04-12T06:15:07.779Z</time></trkpt><trkpt lat="45.69529051124569" lon="11.555040323777924"><ele>104.5</ele><time>2026-04-12T06:15:08.779Z</time></trkpt><trkpt lat="45.695321207438575" lon="11.555401969261014"><ele>105.0</ele><time>2026-04-12T06:15:09.779Z</time></trkpt><trkpt lat="45.69534867263507" lon="11.555766699114528"><ele>105.0</ele><time>2026-04-12T06:15:10.779Z</time></trkpt><trkpt lat="45.695375686135534" lon="11.556130743249586"><ele>105.0</ele><time>2026-04-12T06:15:11.779Z</time></trkpt><trkpt lat="45.695400919048325" lon="11.556493389544572"><ele>105.0</ele><time>2026-04-12T06:15:12.779Z</time></trkpt><trkpt lat="45.69541958866018" lon="11.556858403566524"><ele>105.0</ele><time>2026-04-12T06:15:13.779Z</time></trkpt><trkpt lat="45.69544300261462" lon="11.55722656613246"><ele>104.0</ele><time>2026-04-12T06:15:14.779Z</time></trkpt><trkpt lat="45.6954637018176" lon="11.557601426191837"><ele>103.0</ele><time>2026-04-12T06:15:15.779Z</time></trkpt><trkpt lat="45.69548663945356" lon="11.557982477065103"><ele>103.0</ele><time>2026-04-12T06:15:16.779Z</time></trkpt><trkpt lat="45.6955076556743" lon="11.558360120379872"><ele>103.0</ele><time>2026-04-12T06:15:17.779Z</time></trkpt><trkpt lat="45.69552355902243" lon="11.558752348822365"><ele>103.0</ele><time>2026-04-12T06:15:18.779Z</time></trkpt><trkpt lat="45.695543030967976" lon="11.559150382048927"><ele>103.0</ele><time>2026-04-12T06:15:19.779Z</time></trkpt><trkpt lat="45.69556394019899" lon="11.559554209771347"><ele>102.5</ele><time>2026-04-12T06:15:20.779Z</time></trkpt><trkpt lat="45.695589446399495" lon="11.559963153145874"><ele>102.0</ele><time>2026-04-12T06:15:21.779Z</time></trkpt><trkpt lat="45.69560840209926" lon="11.560383925502457"><ele>102.0</ele><time>2026-04-12T06:15:22.779Z</time></trkpt><trkpt lat="45.695630462375775" lon="11.560799608558861"><ele>102.0</ele><time>2026-04-12T06:15:23.779Z</time></trkpt><trkpt lat="45.69565132657911" lon="11.561185600345347"><ele>101.5</ele><time>2026-04-12T06:15:24.779Z</time></trkpt><trkpt lat="45.6956694403541" lon="11.561549794555653"><ele>101.0</ele><time>2026-04-12T06:15:25.779Z</time></trkpt><trkpt lat="45.69568112506342" lon="11.561898123925314"><ele>101.0</ele><time>2026-04-12T06:15:26.779Z</time></trkpt><trkpt lat="45.69569315536908" lon="11.562233560754448"><ele>101.0</ele><time>2026-04-12T06:15:27.779Z</time></trkpt><trkpt lat="45.695698637554095" lon="11.562554635108706"><ele>101.0</ele><time>2026-04-12T06:15:28.779Z</time></trkpt><trkpt lat="45.69570697830984" lon="11.56288418865992"><ele>101.0</ele><time>2026-04-12T06:15:29.779Z</time></trkpt><trkpt lat="45.695721938912826" lon="11.56320509038297"><ele>101.0</ele><time>2026-04-12T06:15:30.779Z</time></trkpt><trkpt lat="45.69573285341504" lon="11.563535651905212"><ele>101.0</ele><time>2026-04-12T06:15:31.779Z</time></trkpt><trkpt lat="45.69573972576599" lon="11.563865342281073"><ele>101.5</ele><time>2026-04-12T06:15:32.779Z</time></trkpt><trkpt lat="45.69574224988054" lon="11.564205068908953"><ele>102.0</ele><time>2026-04-12T06:15:33.779Z</time></trkpt><trkpt lat="45.69575633404103" lon="11.564551899890102"><ele>101.0</ele><time>2026-04-12T06:15:34.779Z</time></trkpt><trkpt lat="45.695769985397575" lon="11.56491872384293"><ele>100.0</ele><time>2026-04-12T06:15:35.779Z</time></trkpt><trkpt lat="45.69578317531158" lon="11.565274144163208"><ele>98.5</ele><time>2026-04-12T06:15:36.779Z</time></trkpt><trkpt lat="45.695788902595325" lon="11.565633853457731"><ele>97.0</ele><time>2026-04-12T06:15:37.779Z</time></trkpt><trkpt lat="45.695792247960476" lon="11.565998370202378"><ele>96.5</ele><time>2026-04-12T06:15:38.779Z</time></trkpt><trkpt lat="45.695797962290236" lon="11.566355756503963"><ele>96.0</ele><time>2026-04-12T06:15:39.779Z</time></trkpt><trkpt lat="45.695805888478446" lon="11.566721557154604"><ele>97.0</ele><time>2026-04-12T06:15:40.779Z</time></trkpt><trkpt lat="45.69581656192637" lon="11.567083398964893"><ele>98.0</ele><time>2026-04-12T06:15:41.779Z</time></trkpt><trkpt lat="45.69582529395746" lon="11.56745592203715"><ele>98.0</ele><time>2026-04-12T06:15:42.779Z</time></trkpt><trkpt lat="45.695840190122574" lon="11.567823034017517"><ele>98.0</ele><time>2026-04-12T06:15:43.779Z</time></trkpt><trkpt lat="45.69585293921566" lon="11.56819328182558"><ele>97.5</ele><time>2026-04-12T06:15:44.779Z</time></trkpt><trkpt lat="45.69585743690751" lon="11.568568112399868"><ele>97.0</ele><time>2026-04-12T06:15:45.779Z</time></trkpt><trkpt lat="45.695864301027584" lon="11.568948675127178"><ele>96.5</ele><time>2026-04-12T06:15:46.779Z</time></trkpt><trkpt lat="45.69587999844607" lon="11.569325615059553"><ele>96.0</ele><time>2026-04-12T06:15:47.779Z</time></trkpt><trkpt lat="45.69589680750701" lon="11.569693118425647"><ele>96.0</ele><time>2026-04-12T06:15:48.779Z</time></trkpt><trkpt lat="45.695915264005365" lon="11.570054949489217"><ele>96.0</ele><time>2026-04-12T06:15:49.779Z</time></trkpt><trkpt lat="45.69592992349283" lon="11.570417407491254"><ele>95.5</ele><time>2026-04-12T06:15:50.779Z</time></trkpt><trkpt lat="45.69595215551971" lon="11.570779428845874"><ele>95.0</ele><time>2026-04-12T06:15:51.779Z</time></trkpt><trkpt lat="45.695982779481525" lon="11.57113596124934"><ele>95.0</ele><time>2026-04-12T06:15:52.779Z</time></trkpt><trkpt lat="45.69600917798148" lon="11.57149181350278"><ele>95.0</ele><time>2026-04-12T06:15:53.779Z</time></trkpt><trkpt lat="45.69603754285418" lon="11.571846857255306"><ele>95.0</ele><time>2026-04-12T06:15:54.779Z</time></trkpt><trkpt lat="45.69606903153928" lon="11.572199776425553"><ele>95.0</ele><time>2026-04-12T06:15:55.779Z</time></trkpt><trkpt lat="45.69610478723364" lon="11.572554910304765"><ele>95.0</ele><time>2026-04-12T06:15:56.779Z</time></trkpt><trkpt lat="45.69613957823389" lon="11.572911819534701"><ele>95.0</ele><time>2026-04-12T06:15:57.779Z</time></trkpt><trkpt lat="45.69618054462018" lon="11.573266249729233"><ele>95.0</ele><time>2026-04-12T06:15:58.779Z</time></trkpt><trkpt lat="45.696221576990936" lon="11.573624098916662"><ele>95.0</ele><time>2026-04-12T06:15:59.779Z</time></trkpt><trkpt lat="45.69626819645989" lon="11.573988031561242"><ele>95.0</ele><time>2026-04-12T06:16:00.779Z</time></trkpt><trkpt lat="45.696316742753815" lon="11.574354791531237"><ele>95.0</ele><time>2026-04-12T06:16:01.779Z</time></trkpt><trkpt lat="45.69636255668638" lon="11.574725305180696"><ele>95.5</ele><time>2026-04-12T06:16:02.779Z</time></trkpt><trkpt lat="45.696418253156295" lon="11.575096460753102"><ele>96.0</ele><time>2026-04-12T06:16:03.779Z</time></trkpt><trkpt lat="45.69647238072887" lon="11.575470842186245"><ele>95.0</ele><time>2026-04-12T06:16:04.779Z</time></trkpt><trkpt lat="45.696528811933" lon="11.575844979402484"><ele>94.0</ele><time>2026-04-12T06:16:05.779Z</time></trkpt><trkpt lat="45.69658831998609" lon="11.576213377681341"><ele>93.5</ele><time>2026-04-12T06:16:06.779Z</time></trkpt><trkpt lat="45.69665392873391" lon="11.576581710676233"><ele>93.0</ele><time>2026-04-12T06:16:07.779Z</time></trkpt><trkpt lat="45.696719909100274" lon="11.576954561767797"><ele>92.0</ele><time>2026-04-12T06:16:08.779Z</time></trkpt><trkpt lat="45.69678721789328" lon="11.577330073862617"><ele>91.0</ele><time>2026-04-12T06:16:09.779Z</time></trkpt><trkpt lat="45.69685750427334" lon="11.577700294852376"><ele>92.5</ele><time>2026-04-12T06:16:10.779Z</time></trkpt><trkpt lat="45.69693251668792" lon="11.578069916101395"><ele>94.0</ele><time>2026-04-12T06:16:11.779Z</time></trkpt><trkpt lat="45.69701452568484" lon="11.578431189524032"><ele>94.5</ele><time>2026-04-12T06:16:12.779Z</time></trkpt><trkpt lat="45.697093819712094" lon="11.57879162113171"><ele>95.0</ele><time>2026-04-12T06:16:13.779Z</time></trkpt><trkpt lat="45.69717544621207" lon="11.57914674987564"><ele>95.0</ele><time>2026-04-12T06:16:14.779Z</time></trkpt><trkpt lat="45.69725984158895" lon="11.579498028605498"><ele>95.0</ele><time>2026-04-12T06:16:15.779Z</time></trkpt><trkpt lat="45.697345315696644" lon="11.579848614292294"><ele>95.0</ele><time>2026-04-12T06:16:16.779Z</time></trkpt><trkpt lat="45.69742841825913" lon="11.580219540486853"><ele>95.0</ele><time>2026-04-12T06:16:17.779Z</time></trkpt><trkpt lat="45.697510330516316" lon="11.580566347420906"><ele>94.5</ele><time>2026-04-12T06:16:18.779Z</time></trkpt><trkpt lat="45.697588994699466" lon="11.580914801650252"><ele>94.0</ele><time>2026-04-12T06:16:19.779Z</time></trkpt><trkpt lat="45.69768121305233" lon="11.581255828732454"><ele>93.5</ele><time>2026-04-12T06:16:20.779Z</time></trkpt><trkpt lat="45.69777375094251" lon="11.581595837300139"><ele>93.0</ele><time>2026-04-12T06:16:21.779Z</time></trkpt><trkpt lat="45.69787271637146" lon="11.581927756050264"><ele>92.5</ele><time>2026-04-12T06:16:22.779Z</time></trkpt><trkpt lat="45.69797141586982" lon="11.582260730796126"><ele>92.0</ele><time>2026-04-12T06:16:23.779Z</time></trkpt><trkpt lat="45.69806195087546" lon="11.582600442116666"><ele>91.5</ele><time>2026-04-12T06:16:24.779Z</time></trkpt><trkpt lat="45.69815808587329" lon="11.582936131360869"><ele>91.0</ele><time>2026-04-12T06:16:25.779Z</time></trkpt><trkpt lat="45.698243443600845" lon="11.583274872268094"><ele>91.0</ele><time>2026-04-12T06:16:26.779Z</time></trkpt><trkpt lat="45.698344062880444" lon="11.583595948898948"><ele>91.0</ele><time>2026-04-12T06:16:27.779Z</time></trkpt><trkpt lat="45.69844218846002" lon="11.58392963870136"><ele>90.5</ele><time>2026-04-12T06:16:28.779Z</time></trkpt><trkpt lat="45.698536950788295" lon="11.584262121281713"><ele>90.0</ele><time>2026-04-12T06:16:29.779Z</time></trkpt><trkpt lat="45.69863653116458" lon="11.584592991679804"><ele>90.0</ele><time>2026-04-12T06:16:30.779Z</time></trkpt><trkpt lat="45.698731256676794" lon="11.58493220957427"><ele>90.0</ele><time>2026-04-12T06:16:31.779Z</time></trkpt><trkpt lat="45.6988271172479" lon="11.585274756055854"><ele>90.0</ele><time>2026-04-12T06:16:32.779Z</time></trkpt><trkpt lat="45.69893200200698" lon="11.585619338710265"><ele>90.0</ele><time>2026-04-12T06:16:33.779Z</time></trkpt><trkpt lat="45.6990345286243" lon="11.58596612589578"><ele>90.5</ele><time>2026-04-12T06:16:34.779Z</time></trkpt><trkpt lat="45.69912999150396" lon="11.586319655763356"><ele>91.0</ele><time>2026-04-12T06:16:35.779Z</time></trkpt><trkpt lat="45.69922920901843" lon="11.586674946503155"><ele>90.5</ele><time>2026-04-12T06:16:36.779Z</time></trkpt><trkpt lat="45.69932677490195" lon="11.587032399721203"><ele>90.0</ele><time>2026-04-12T06:16:37.779Z</time></trkpt><trkpt lat="45.699425556910725" lon="11.587391782411094"><ele>89.5</ele><time>2026-04-12T06:16:38.779Z</time></trkpt><trkpt lat="45.69953343560247" lon="11.587742699061202"><ele>89.0</ele><time>2026-04-12T06:16:39.779Z</time></trkpt><trkpt lat="45.69964617420122" lon="11.588095093567343"><ele>88.5</ele><time>2026-04-12T06:16:40.779Z</time></trkpt><trkpt lat="45.699755237753436" lon="11.588449095761005"><ele>88.0</ele><time>2026-04-12T06:16:41.779Z</time></trkpt><trkpt lat="45.69986417573646" lon="11.588800504602741"><ele>88.0</ele><time>2026-04-12T06:16:42.779Z</time></trkpt><trkpt lat="45.699972575418045" lon="11.589152505483428"><ele>88.0</ele><time>2026-04-12T06:16:43.779Z</time></trkpt><trkpt lat="45.70008068860988" lon="11.58950201911434"><ele>87.5</ele><time>2026-04-12T06:16:44.779Z</time></trkpt><trkpt lat="45.70018360779052" lon="11.589851602956529"><ele>87.0</ele><time>2026-04-12T06:16:45.779Z</time></trkpt><trkpt lat="45.70028680722102" lon="11.59019692011385"><ele>85.5</ele><time>2026-04-12T06:16:46.779Z</time></trkpt><trkpt lat="45.7003887682653" lon="11.590543443799605"><ele>84.0</ele><time>2026-04-12T06:16:47.779Z</time></trkpt><trkpt lat="45.70048577435113" lon="11.59088464358356"><ele>84.0</ele><time>2026-04-12T06:16:48.779Z</time></trkpt><trkpt lat="45.70058503004655" lon="11.59122548483391"><ele>84.0</ele><time>2026-04-12T06:16:49.779Z</time></trkpt><trkpt lat="45.700686541473736" lon="11.59156380986651"><ele>84.0</ele><time>2026-04-12T06:16:50.779Z</time></trkpt><trkpt lat="45.70078998248611" lon="11.591902916737459"><ele>84.0</ele><time>2026-04-12T06:16:51.78Z</time></trkpt><trkpt lat="45.70089332067169" lon="11.592240641847061"><ele>85.0</ele><time>2026-04-12T06:16:52.78Z</time></trkpt><trkpt lat="45.70099777472342" lon="11.592577807602554"><ele>86.0</ele><time>2026-04-12T06:16:53.78Z</time></trkpt><trkpt lat="45.70110177623288" lon="11.592920650522734"><ele>84.0</ele><time>2026-04-12T06:16:54.78Z</time></trkpt><trkpt lat="45.70120619828789" lon="11.593256385051028"><ele>82.0</ele><time>2026-04-12T06:16:55.78Z</time></trkpt><trkpt lat="45.70130409816302" lon="11.59359678801215"><ele>82.0</ele><time>2026-04-12T06:16:56.78Z</time></trkpt><trkpt lat="45.70140305518759" lon="11.59393664375284"><ele>82.0</ele><time>2026-04-12T06:16:57.78Z</time></trkpt><trkpt lat="45.701502136089445" lon="11.594279280162207"><ele>82.5</ele><time>2026-04-12T06:16:58.78Z</time></trkpt><trkpt lat="45.70160177341157" lon="11.594623226578763"><ele>83.0</ele><time>2026-04-12T06:16:59.78Z</time></trkpt><trkpt lat="45.70170325968139" lon="11.594964179770319"><ele>83.0</ele><time>2026-04-12T06:17:00.78Z</time></trkpt><trkpt lat="45.701802720272376" lon="11.595309239991927"><ele>83.0</ele><time>2026-04-12T06:17:01.78Z</time></trkpt><trkpt lat="45.701901313348095" lon="11.595651765345028"><ele>82.0</ele><time>2026-04-12T06:17:02.78Z</time></trkpt><trkpt lat="45.70200340273889" lon="11.595998432438455"><ele>81.0</ele><time>2026-04-12T06:17:03.78Z</time></trkpt><trkpt lat="45.70210683116633" lon="11.596345027517359"><ele>81.0</ele><time>2026-04-12T06:17:04.78Z</time></trkpt><trkpt lat="45.70220609030354" lon="11.596697348823877"><ele>81.0</ele><time>2026-04-12T06:17:05.78Z</time></trkpt><trkpt lat="45.70230524801509" lon="11.59704274999407"><ele>80.5</ele><time>2026-04-12T06:17:06.78Z</time></trkpt><trkpt lat="45.7024040263142" lon="11.597390481472855"><ele>80.0</ele><time>2026-04-12T06:17:07.78Z</time></trkpt><trkpt lat="45.702507289970825" lon="11.597733503729678"><ele>80.5</ele><time>2026-04-12T06:17:08.78Z</time></trkpt><trkpt lat="45.70260625742592" lon="11.59807409034559"><ele>81.0</ele><time>2026-04-12T06:17:09.78Z</time></trkpt><trkpt lat="45.702706270343995" lon="11.598415571217789"><ele>79.0</ele><time>2026-04-12T06:17:10.78Z</time></trkpt><trkpt lat="45.70280958378146" lon="11.59874931115077"><ele>77.0</ele><time>2026-04-12T06:17:11.78Z</time></trkpt><trkpt lat="45.70291182120144" lon="11.599091831324733"><ele>77.0</ele><time>2026-04-12T06:17:12.78Z</time></trkpt><trkpt lat="45.70301510485014" lon="11.599427176534903"><ele>77.0</ele><time>2026-04-12T06:17:13.78Z</time></trkpt><trkpt lat="45.703121132481336" lon="11.599762441768002"><ele>77.0</ele><time>2026-04-12T06:17:14.78Z</time></trkpt><trkpt lat="45.703231009443414" lon="11.600093513950386"><ele>77.0</ele><time>2026-04-12T06:17:15.78Z</time></trkpt><trkpt lat="45.70334434371117" lon="11.600422928561201"><ele>77.0</ele><time>2026-04-12T06:17:16.78Z</time></trkpt><trkpt lat="45.70345319257963" lon="11.600756493091792"><ele>77.0</ele><time>2026-04-12T06:17:17.78Z</time></trkpt><trkpt lat="45.70356040687517" lon="11.601088976041396"><ele>77.0</ele><time>2026-04-12T06:17:18.78Z</time></trkpt><trkpt lat="45.703668914452486" lon="11.601419433462139"><ele>77.0</ele><time>2026-04-12T06:17:19.78Z</time></trkpt><trkpt lat="45.70377944094518" lon="11.601752638717256"><ele>76.5</ele><time>2026-04-12T06:17:20.78Z</time></trkpt><trkpt lat="45.70389098256654" lon="11.60207860189423"><ele>76.0</ele><time>2026-04-12T06:17:21.78Z</time></trkpt><trkpt lat="45.70400195415772" lon="11.602401080480753"><ele>76.0</ele><time>2026-04-12T06:17:22.78Z</time></trkpt><trkpt lat="45.704109210357544" lon="11.602728379191342"><ele>76.0</ele><time>2026-04-12T06:17:23.78Z</time></trkpt><trkpt lat="45.70422049792255" lon="11.603056558336274"><ele>76.0</ele><time>2026-04-12T06:17:24.78Z</time></trkpt><trkpt lat="45.704336037580056" lon="11.603375765801124"><ele>76.0</ele><time>2026-04-12T06:17:25.78Z</time></trkpt><trkpt lat="45.70444996529837" lon="11.603694276074982"><ele>77.0</ele><time>2026-04-12T06:17:26.78Z</time></trkpt><trkpt lat="45.70455808885955" lon="11.60401725994886"><ele>78.0</ele><time>2026-04-12T06:17:27.78Z</time></trkpt><trkpt lat="45.70467186402214" lon="11.604339316130595"><ele>78.0</ele><time>2026-04-12T06:17:28.78Z</time></trkpt><trkpt lat="45.70478912996493" lon="11.604655461903604"><ele>78.0</ele><time>2026-04-12T06:17:29.78Z</time></trkpt><trkpt lat="45.70490415740415" lon="11.604979117565547"><ele>78.0</ele><time>2026-04-12T06:17:30.78Z</time></trkpt><trkpt lat="45.7050217959622" lon="11.605304050280846"><ele>78.0</ele><time>2026-04-12T06:17:31.78Z</time></trkpt><trkpt lat="45.70513561987087" lon="11.605631083185111"><ele>78.0</ele><time>2026-04-12T06:17:32.78Z</time></trkpt><trkpt lat="45.705252930668685" lon="11.60595732606164"><ele>78.0</ele><time>2026-04-12T06:17:33.78Z</time></trkpt><trkpt lat="45.705363409949875" lon="11.606288572331517"><ele>77.5</ele><time>2026-04-12T06:17:34.78Z</time></trkpt><trkpt lat="45.70547423072829" lon="11.606622883052518"><ele>77.0</ele><time>2026-04-12T06:17:35.78Z</time></trkpt><trkpt lat="45.70558157974882" lon="11.606959669096932"><ele>78.0</ele><time>2026-04-12T06:17:36.78Z</time></trkpt><trkpt lat="45.705694770515905" lon="11.607296138714885"><ele>79.0</ele><time>2026-04-12T06:17:37.78Z</time></trkpt><trkpt lat="45.705807128962064" lon="11.607636755992809"><ele>79.0</ele><time>2026-04-12T06:17:38.78Z</time></trkpt><trkpt lat="45.70591695158779" lon="11.607975421202891"><ele>79.0</ele><time>2026-04-12T06:17:39.78Z</time></trkpt><trkpt lat="45.706027565124586" lon="11.608322666346236"><ele>78.5</ele><time>2026-04-12T06:17:40.78Z</time></trkpt><trkpt lat="45.70613243103541" lon="11.608668842172538"><ele>78.0</ele><time>2026-04-12T06:17:41.78Z</time></trkpt><trkpt lat="45.70623957387495" lon="11.609010608457881"><ele>78.0</ele><time>2026-04-12T06:17:42.78Z</time></trkpt><trkpt lat="45.706342975153056" lon="11.609352144157661"><ele>78.0</ele><time>2026-04-12T06:17:43.78Z</time></trkpt><trkpt lat="45.70644335820678" lon="11.609699233513448"><ele>77.5</ele><time>2026-04-12T06:17:44.78Z</time></trkpt><trkpt lat="45.7065461081922" lon="11.610044535163768"><ele>77.0</ele><time>2026-04-12T06:17:45.78Z</time></trkpt><trkpt lat="45.70664840871064" lon="11.610388589141095"><ele>77.0</ele><time>2026-04-12T06:17:46.78Z</time></trkpt><trkpt lat="45.7067458745978" lon="11.610732984092634"><ele>77.0</ele><time>2026-04-12T06:17:47.78Z</time></trkpt><trkpt lat="45.706843874277666" lon="11.611075705973631"><ele>76.5</ele><time>2026-04-12T06:17:48.78Z</time></trkpt><trkpt lat="45.70694346555693" lon="11.611419621340865"><ele>76.0</ele><time>2026-04-12T06:17:49.78Z</time></trkpt><trkpt lat="45.70703938561346" lon="11.611763135100675"><ele>76.5</ele><time>2026-04-12T06:17:50.78Z</time></trkpt><trkpt lat="45.70712894179596" lon="11.612107867451128"><ele>77.0</ele><time>2026-04-12T06:17:51.78Z</time></trkpt><trkpt lat="45.70721217300221" lon="11.612460818658956"><ele>77.0</ele><time>2026-04-12T06:17:52.78Z</time></trkpt><trkpt lat="45.707301286695284" lon="11.612806530886905"><ele>77.0</ele><time>2026-04-12T06:17:53.78Z</time></trkpt><trkpt lat="45.70738950216734" lon="11.613154894077446"><ele>77.5</ele><time>2026-04-12T06:17:54.78Z</time></trkpt><trkpt lat="45.70747633444692" lon="11.613501941025405"><ele>78.0</ele><time>2026-04-12T06:17:55.78Z</time></trkpt><trkpt lat="45.707566508258175" lon="11.613849119610965"><ele>78.0</ele><time>2026-04-12T06:17:56.78Z</time></trkpt><trkpt lat="45.707653200496274" lon="11.614199903278838"><ele>78.0</ele><time>2026-04-12T06:17:57.78Z</time></trkpt><trkpt lat="45.70773560440292" lon="11.614553797561143"><ele>78.0</ele><time>2026-04-12T06:17:58.78Z</time></trkpt><trkpt lat="45.70781868297575" lon="11.614907447336083"><ele>78.0</ele><time>2026-04-12T06:17:59.78Z</time></trkpt><trkpt lat="45.70789577561917" lon="11.615265334368704"><ele>78.0</ele><time>2026-04-12T06:18:00.78Z</time></trkpt><trkpt lat="45.70797377314157" lon="11.61562180367305"><ele>78.0</ele><time>2026-04-12T06:18:01.78Z</time></trkpt><trkpt lat="45.70804733388087" lon="11.615978740267241"><ele>76.5</ele><time>2026-04-12T06:18:02.78Z</time></trkpt><trkpt lat="45.708115841507876" lon="11.616344887328305"><ele>75.0</ele><time>2026-04-12T06:18:03.78Z</time></trkpt><trkpt lat="45.70818897603756" lon="11.616706016326694"><ele>75.5</ele><time>2026-04-12T06:18:04.78Z</time></trkpt><trkpt lat="45.708261636991104" lon="11.61706820922276"><ele>76.0</ele><time>2026-04-12T06:18:05.78Z</time></trkpt><trkpt lat="45.70833363814641" lon="11.617427520503394"><ele>76.0</ele><time>2026-04-12T06:18:06.78Z</time></trkpt><trkpt lat="45.70840301898838" lon="11.617795870706718"><ele>76.0</ele><time>2026-04-12T06:18:07.78Z</time></trkpt><trkpt lat="45.7084741853925" lon="11.618164936209569"><ele>76.5</ele><time>2026-04-12T06:18:08.78Z</time></trkpt><trkpt lat="45.70854275159028" lon="11.618537163044692"><ele>77.0</ele><time>2026-04-12T06:18:09.78Z</time></trkpt><trkpt lat="45.708605587698905" lon="11.618911435366305"><ele>77.5</ele><time>2026-04-12T06:18:10.78Z</time></trkpt><trkpt lat="45.70867030172608" lon="11.619287451700544"><ele>78.0</ele><time>2026-04-12T06:18:11.78Z</time></trkpt><trkpt lat="45.70873736340266" lon="11.619661962528253"><ele>78.0</ele><time>2026-04-12T06:18:12.78Z</time></trkpt><trkpt lat="45.708802298067006" lon="11.62003467849502"><ele>78.0</ele><time>2026-04-12T06:18:13.78Z</time></trkpt><trkpt lat="45.708863018012075" lon="11.620404667455848"><ele>78.5</ele><time>2026-04-12T06:18:14.78Z</time></trkpt><trkpt lat="45.70892473946131" lon="11.620767575000244"><ele>79.0</ele><time>2026-04-12T06:18:15.78Z</time></trkpt><trkpt lat="45.70898563968496" lon="11.62113309693031"><ele>78.5</ele><time>2026-04-12T06:18:16.78Z</time></trkpt><trkpt lat="45.70904637990751" lon="11.621502602936859"><ele>78.0</ele><time>2026-04-12T06:18:17.78Z</time></trkpt><trkpt lat="45.70910679511362" lon="11.621866916677314"><ele>78.0</ele><time>2026-04-12T06:18:18.78Z</time></trkpt><trkpt lat="45.7091674187782" lon="11.622228833959618"><ele>78.0</ele><time>2026-04-12T06:18:19.78Z</time></trkpt><trkpt lat="45.709229437657676" lon="11.622586936742529"><ele>78.5</ele><time>2026-04-12T06:18:20.78Z</time></trkpt><trkpt lat="45.709285996002734" lon="11.62294383221647"><ele>79.0</ele><time>2026-04-12T06:18:21.78Z</time></trkpt><trkpt lat="45.70934336520872" lon="11.623296082724325"><ele>79.0</ele><time>2026-04-12T06:18:22.78Z</time></trkpt><trkpt lat="45.70940201052889" lon="11.623646243383256"><ele>79.0</ele><time>2026-04-12T06:18:23.78Z</time></trkpt><trkpt lat="45.709457273064494" lon="11.623994585978126"><ele>78.0</ele><time>2026-04-12T06:18:24.78Z</time></trkpt><trkpt lat="45.70951003253251" lon="11.624337893437463"><ele>77.0</ele><time>2026-04-12T06:18:25.78Z</time></trkpt><trkpt lat="45.70956259565248" lon="11.62467913483203"><ele>77.0</ele><time>2026-04-12T06:18:26.78Z</time></trkpt><trkpt lat="45.70961956926955" lon="11.625020393423808"><ele>77.0</ele><time>2026-04-12T06:18:27.78Z</time></trkpt><trkpt lat="45.70968008388288" lon="11.625356189130692"><ele>77.5</ele><time>2026-04-12T06:18:28.78Z</time></trkpt><trkpt lat="45.70974343254761" lon="11.625686577215955"><ele>78.0</ele><time>2026-04-12T06:18:29.78Z</time></trkpt><trkpt lat="45.70981444675513" lon="11.626016242882452"><ele>78.0</ele><time>2026-04-12T06:18:30.78Z</time></trkpt><trkpt lat="45.709891479242124" lon="11.626340483080703"><ele>78.0</ele><time>2026-04-12T06:18:31.78Z</time></trkpt><trkpt lat="45.709972276865216" lon="11.626662819002195"><ele>78.0</ele><time>2026-04-12T06:18:32.78Z</time></trkpt><trkpt lat="45.71005949883793" lon="11.626978078287234"><ele>78.0</ele><time>2026-04-12T06:18:33.78Z</time></trkpt><trkpt lat="45.71014143618031" lon="11.627295421717212"><ele>78.0</ele><time>2026-04-12T06:18:34.78Z</time></trkpt><trkpt lat="45.71023084459746" lon="11.627610879734112"><ele>78.0</ele><time>2026-04-12T06:18:35.78Z</time></trkpt><trkpt lat="45.710323255912776" lon="11.62792427793873"><ele>78.5</ele><time>2026-04-12T06:18:36.78Z</time></trkpt><trkpt lat="45.71041923820154" lon="11.628233483510254"><ele>79.0</ele><time>2026-04-12T06:18:37.78Z</time></trkpt><trkpt lat="45.71051676605293" lon="11.628540660254801"><ele>78.5</ele><time>2026-04-12T06:18:38.78Z</time></trkpt><trkpt lat="45.710621142020635" lon="11.628840622211358"><ele>78.0</ele><time>2026-04-12T06:18:39.78Z</time></trkpt><trkpt lat="45.71072533810358" lon="11.62914094532774"><ele>78.0</ele><time>2026-04-12T06:18:40.78Z</time></trkpt><trkpt lat="45.710828235454755" lon="11.629439987020266"><ele>78.0</ele><time>2026-04-12T06:18:41.78Z</time></trkpt><trkpt lat="45.71093752942472" lon="11.629737158981388"><ele>77.0</ele><time>2026-04-12T06:18:42.78Z</time></trkpt><trkpt lat="45.711058487405175" lon="11.630024307358951"><ele>76.0</ele><time>2026-04-12T06:18:43.78Z</time></trkpt><trkpt lat="45.711178228985275" lon="11.630311305603737"><ele>75.5</ele><time>2026-04-12T06:18:44.78Z</time></trkpt><trkpt lat="45.711303360008515" lon="11.630594756508518"><ele>75.0</ele><time>2026-04-12T06:18:45.78Z</time></trkpt><trkpt lat="45.71143031192439" lon="11.630876747493703"><ele>75.0</ele><time>2026-04-12T06:18:46.78Z</time></trkpt><trkpt lat="45.711560519276006" lon="11.631155819858602"><ele>75.0</ele><time>2026-04-12T06:18:47.78Z</time></trkpt><trkpt lat="45.71169715951647" lon="11.631423917259243"><ele>75.0</ele><time>2026-04-12T06:18:48.78Z</time></trkpt><trkpt lat="45.711827389061455" lon="11.63168881475858"><ele>75.0</ele><time>2026-04-12T06:18:49.78Z</time></trkpt><trkpt lat="45.7119713882002" lon="11.631959317407912"><ele>75.5</ele><time>2026-04-12T06:18:50.78Z</time></trkpt><trkpt lat="45.7121190309159" lon="11.632220264438976"><ele>76.0</ele><time>2026-04-12T06:18:51.78Z</time></trkpt><trkpt lat="45.71226878766458" lon="11.632478818993235"><ele>76.0</ele><time>2026-04-12T06:18:52.78Z</time></trkpt><trkpt lat="45.71242191194852" lon="11.6327335260082"><ele>76.0</ele><time>2026-04-12T06:18:53.78Z</time></trkpt><trkpt lat="45.712579689276815" lon="11.632986700629017"><ele>76.5</ele><time>2026-04-12T06:18:54.78Z</time></trkpt><trkpt lat="45.712744574404226" lon="11.633243902517782"><ele>77.0</ele><time>2026-04-12T06:18:55.78Z</time></trkpt><trkpt lat="45.712913272413935" lon="11.633505893991632"><ele>77.0</ele><time>2026-04-12T06:18:56.78Z</time></trkpt><trkpt lat="45.713089090850666" lon="11.63376486750395"><ele>77.0</ele><time>2026-04-12T06:18:57.781Z</time></trkpt><trkpt lat="45.713278969620895" lon="11.634021996580369"><ele>77.0</ele><time>2026-04-12T06:18:58.781Z</time></trkpt><trkpt lat="45.71346145634194" lon="11.634284850986782"><ele>77.0</ele><time>2026-04-12T06:18:59.781Z</time></trkpt><trkpt lat="45.713647562373176" lon="11.634555766372287"><ele>78.5</ele><time>2026-04-12T06:19:00.781Z</time></trkpt><trkpt lat="45.71384693388217" lon="11.634812562003527"><ele>80.0</ele><time>2026-04-12T06:19:01.781Z</time></trkpt><trkpt lat="45.714046827439276" lon="11.635062395345331"><ele>80.0</ele><time>2026-04-12T06:19:02.781Z</time></trkpt><trkpt lat="45.714251247331205" lon="11.635309729456571"><ele>80.0</ele><time>2026-04-12T06:19:03.781Z</time></trkpt><trkpt lat="45.71446077109563" lon="11.635544732063925"><ele>79.5</ele><time>2026-04-12T06:19:04.781Z</time></trkpt><trkpt lat="45.71468290309451" lon="11.63576427077103"><ele>79.0</ele><time>2026-04-12T06:19:05.781Z</time></trkpt><trkpt lat="45.71490871943238" lon="11.635983460406656"><ele>78.5</ele><time>2026-04-12T06:19:06.781Z</time></trkpt><trkpt lat="45.71513484284175" lon="11.63620910066601"><ele>78.0</ele><time>2026-04-12T06:19:07.781Z</time></trkpt><trkpt lat="45.71536373704156" lon="11.636444275203909"><ele>78.0</ele><time>2026-04-12T06:19:08.781Z</time></trkpt><trkpt lat="45.71559937088749" lon="11.636692154130778"><ele>78.0</ele><time>2026-04-12T06:19:09.781Z</time></trkpt><trkpt lat="45.71583778566158" lon="11.636936834568356"><ele>79.0</ele><time>2026-04-12T06:19:10.781Z</time></trkpt><trkpt lat="45.71605444100514" lon="11.637170364766725"><ele>80.0</ele><time>2026-04-12T06:19:11.781Z</time></trkpt><trkpt lat="45.71626677234613" lon="11.637402942829834"><ele>80.0</ele><time>2026-04-12T06:19:12.781Z</time></trkpt><trkpt lat="45.71648078056387" lon="11.637618746595095"><ele>80.0</ele><time>2026-04-12T06:19:13.781Z</time></trkpt><trkpt lat="45.716690340160426" lon="11.637831657187165"><ele>80.0</ele><time>2026-04-12T06:19:14.781Z</time></trkpt><trkpt lat="45.71688959157158" lon="11.638039604656884"><ele>80.0</ele><time>2026-04-12T06:19:15.781Z</time></trkpt><trkpt lat="45.71706112774126" lon="11.638230788844277"><ele>80.5</ele><time>2026-04-12T06:19:16.781Z</time></trkpt><trkpt lat="45.71724553194551" lon="11.63843377228073"><ele>81.0</ele><time>2026-04-12T06:19:17.781Z</time></trkpt><trkpt lat="45.71742441179114" lon="11.638629951727475"><ele>81.0</ele><time>2026-04-12T06:19:18.781Z</time></trkpt><trkpt lat="45.71761704864471" lon="11.63881864970084"><ele>81.0</ele><time>2026-04-12T06:19:19.781Z</time></trkpt><trkpt lat="45.717798680606776" lon="11.639013848542824"><ele>82.0</ele><time>2026-04-12T06:19:20.781Z</time></trkpt><trkpt lat="45.71799017907733" lon="11.639208033616391"><ele>83.0</ele><time>2026-04-12T06:19:21.781Z</time></trkpt><trkpt lat="45.718174327408605" lon="11.639384832752437"><ele>82.66666666666667</ele><time>2026-04-12T06:19:22.781Z</time></trkpt><trkpt lat="45.71835603330606" lon="11.639563366810851"><ele>82.33333333333333</ele><time>2026-04-12T06:19:23.781Z</time></trkpt><trkpt lat="45.718538231344105" lon="11.639739021053808"><ele>82.0</ele><time>2026-04-12T06:19:24.781Z</time></trkpt><trkpt lat="45.71872401992905" lon="11.639923578246984"><ele>82.0</ele><time>2026-04-12T06:19:25.781Z</time></trkpt><trkpt lat="45.718905895921644" lon="11.640110276962288"><ele>82.0</ele><time>2026-04-12T06:19:26.781Z</time></trkpt><trkpt lat="45.71909170015574" lon="11.640301672405679"><ele>81.5</ele><time>2026-04-12T06:19:27.781Z</time></trkpt><trkpt lat="45.71928101507524" lon="11.640489654244629"><ele>81.0</ele><time>2026-04-12T06:19:28.781Z</time></trkpt><trkpt lat="45.71947152457621" lon="11.64068133607094"><ele>81.0</ele><time>2026-04-12T06:19:29.781Z</time></trkpt><trkpt lat="45.719665595574064" lon="11.640882811809764"><ele>81.0</ele><time>2026-04-12T06:19:30.781Z</time></trkpt><trkpt lat="45.719863325901" lon="11.641088935151158"><ele>81.0</ele><time>2026-04-12T06:19:31.781Z</time></trkpt><trkpt lat="45.72006431772098" lon="11.64129733595932"><ele>81.0</ele><time>2026-04-12T06:19:32.781Z</time></trkpt><trkpt lat="45.72026898845145" lon="11.641506995912605"><ele>81.0</ele><time>2026-04-12T06:19:33.781Z</time></trkpt><trkpt lat="45.7204733430493" lon="11.641721123515403"><ele>81.0</ele><time>2026-04-12T06:19:34.781Z</time></trkpt><trkpt lat="45.7206785761657" lon="11.641928309080791"><ele>81.5</ele><time>2026-04-12T06:19:35.781Z</time></trkpt><trkpt lat="45.720885909673605" lon="11.64213912036211"><ele>82.0</ele><time>2026-04-12T06:19:36.781Z</time></trkpt><trkpt lat="45.72109421627939" lon="11.642356783370124"><ele>82.0</ele><time>2026-04-12T06:19:37.781Z</time></trkpt><trkpt lat="45.72130294044115" lon="11.642578415980823"><ele>82.0</ele><time>2026-04-12T06:19:38.781Z</time></trkpt><trkpt lat="45.721512935677474" lon="11.642796802272644"><ele>81.5</ele><time>2026-04-12T06:19:39.781Z</time></trkpt><trkpt lat="45.721723080418066" lon="11.643017888072926"><ele>81.0</ele><time>2026-04-12T06:19:40.781Z</time></trkpt><trkpt lat="45.72193711962586" lon="11.643231053811949"><ele>81.0</ele><time>2026-04-12T06:19:41.781Z</time></trkpt><trkpt lat="45.722151406990655" lon="11.64344816647212"><ele>81.0</ele><time>2026-04-12T06:19:42.781Z</time></trkpt><trkpt lat="45.72237041760226" lon="11.643670245169345"><ele>81.0</ele><time>2026-04-12T06:19:43.781Z</time></trkpt><trkpt lat="45.72258943038335" lon="11.64389932428272"><ele>81.0</ele><time>2026-04-12T06:19:44.781Z</time></trkpt><trkpt lat="45.72282076247494" lon="11.644140383496007"><ele>81.0</ele><time>2026-04-12T06:19:45.781Z</time></trkpt><trkpt lat="45.72306723346377" lon="11.644386844945384"><ele>81.0</ele><time>2026-04-12T06:19:46.781Z</time></trkpt><trkpt lat="45.723310276977585" lon="11.644635134172107"><ele>81.0</ele><time>2026-04-12T06:19:47.781Z</time></trkpt><trkpt lat="45.723539169670275" lon="11.644891406552526"><ele>81.0</ele><time>2026-04-12T06:19:48.781Z</time></trkpt><trkpt lat="45.7237706287214" lon="11.645138855283648"><ele>81.5</ele><time>2026-04-12T06:19:49.781Z</time></trkpt><trkpt lat="45.723986790970926" lon="11.645397149680901"><ele>82.0</ele><time>2026-04-12T06:19:50.781Z</time></trkpt><trkpt lat="45.724195101711906" lon="11.645650767978303"><ele>82.0</ele><time>2026-04-12T06:19:51.781Z</time></trkpt><trkpt lat="45.724390039138235" lon="11.645919428603403"><ele>82.0</ele><time>2026-04-12T06:19:52.781Z</time></trkpt><trkpt lat="45.72458197254145" lon="11.64618855315312"><ele>82.5</ele><time>2026-04-12T06:19:53.781Z</time></trkpt><trkpt lat="45.724766882317226" lon="11.64646278361599"><ele>83.0</ele><time>2026-04-12T06:19:54.781Z</time></trkpt><trkpt lat="45.72494766520748" lon="11.646741257799269"><ele>83.0</ele><time>2026-04-12T06:19:55.781Z</time></trkpt><trkpt lat="45.72511902175946" lon="11.647036299179714"><ele>83.0</ele><time>2026-04-12T06:19:56.781Z</time></trkpt><trkpt lat="45.725282876520716" lon="11.647332322702926"><ele>83.0</ele><time>2026-04-12T06:19:57.781Z</time></trkpt><trkpt lat="45.725441180413604" lon="11.64763532031812"><ele>83.0</ele><time>2026-04-12T06:19:58.781Z</time></trkpt><trkpt lat="45.725592691541266" lon="11.647937138465045"><ele>82.5</ele><time>2026-04-12T06:19:59.781Z</time></trkpt><trkpt lat="45.72573558048152" lon="11.648244527630034"><ele>82.0</ele><time>2026-04-12T06:20:00.781Z</time></trkpt><trkpt lat="45.7258705712355" lon="11.64855083177967"><ele>82.0</ele><time>2026-04-12T06:20:01.781Z</time></trkpt><trkpt lat="45.72599565578229" lon="11.648862386484254"><ele>82.0</ele><time>2026-04-12T06:20:02.781Z</time></trkpt><trkpt lat="45.726112923780164" lon="11.649175790510249"><ele>82.5</ele><time>2026-04-12T06:20:03.781Z</time></trkpt><trkpt lat="45.72622226318956" lon="11.649493843410927"><ele>83.0</ele><time>2026-04-12T06:20:04.781Z</time></trkpt><trkpt lat="45.72631538757512" lon="11.649819611842114"><ele>83.0</ele><time>2026-04-12T06:20:05.781Z</time></trkpt><trkpt lat="45.72641558020042" lon="11.650135689180278"><ele>83.0</ele><time>2026-04-12T06:20:06.781Z</time></trkpt><trkpt lat="45.72650360068815" lon="11.650462411600154"><ele>84.0</ele><time>2026-04-12T06:20:07.781Z</time></trkpt><trkpt lat="45.726585928752954" lon="11.650791251623996"><ele>85.0</ele><time>2026-04-12T06:20:08.781Z</time></trkpt><trkpt lat="45.72665993346501" lon="11.651123919993374"><ele>85.5</ele><time>2026-04-12T06:20:09.781Z</time></trkpt><trkpt lat="45.72672718157816" lon="11.651467326752709"><ele>86.0</ele><time>2026-04-12T06:20:10.798Z</time></trkpt><trkpt lat="45.726786541261745" lon="11.65180984733209"><ele>87.0</ele><time>2026-04-12T06:20:11.798Z</time></trkpt><trkpt lat="45.72683881272735" lon="11.652155231329727"><ele>88.0</ele><time>2026-04-12T06:20:12.794Z</time></trkpt><trkpt lat="45.726881268688764" lon="11.652505142146902"><ele>88.5</ele><time>2026-04-12T06:20:13.794Z</time></trkpt><trkpt lat="45.72692038403856" lon="11.65285551441428"><ele>89.0</ele><time>2026-04-12T06:20:14.793Z</time></trkpt><trkpt lat="45.7269485624499" lon="11.653214994942044"><ele>89.0</ele><time>2026-04-12T06:20:15.798Z</time></trkpt><trkpt lat="45.7269756272217" lon="11.653571380244937"><ele>89.0</ele><time>2026-04-12T06:20:16.799Z</time></trkpt><trkpt lat="45.72699660665334" lon="11.653930299087678"><ele>85.0</ele><time>2026-04-12T06:20:17.798Z</time></trkpt><trkpt lat="45.72712858013375" lon="11.658164983671794"><ele>86.0</ele><time>2026-04-12T06:20:31.362Z</time></trkpt><trkpt lat="45.72732153883652" lon="11.659380229714012"><ele>87.0</ele><time>2026-04-12T06:20:32.781Z</time></trkpt><trkpt lat="45.72739982576137" lon="11.659661716567152"><ele>88.0</ele><time>2026-04-12T06:20:33.781Z</time></trkpt><trkpt lat="45.72745482905227" lon="11.659994519252423"><ele>88.0</ele><time>2026-04-12T06:20:34.781Z</time></trkpt><trkpt lat="45.727538917511836" lon="11.660333467188208"><ele>88.0</ele><time>2026-04-12T06:20:35.781Z</time></trkpt><trkpt lat="45.72762032442888" lon="11.660681896853822"><ele>88.0</ele><time>2026-04-12T06:20:36.781Z</time></trkpt><trkpt lat="45.72770182803902" lon="11.66100715248696"><ele>88.0</ele><time>2026-04-12T06:20:37.781Z</time></trkpt><trkpt lat="45.72777507536011" lon="11.661347625292978"><ele>87.5</ele><time>2026-04-12T06:20:38.781Z</time></trkpt><trkpt lat="45.7278587286332" lon="11.66169222715649"><ele>87.0</ele><time>2026-04-12T06:20:39.781Z</time></trkpt><trkpt lat="45.727946754067695" lon="11.66202474719633"><ele>87.0</ele><time>2026-04-12T06:20:40.781Z</time></trkpt><trkpt lat="45.728036469635455" lon="11.662365916975162"><ele>87.0</ele><time>2026-04-12T06:20:41.781Z</time></trkpt><trkpt lat="45.72810715636982" lon="11.662705859152508"><ele>86.5</ele><time>2026-04-12T06:20:42.781Z</time></trkpt><trkpt lat="45.728205423755895" lon="11.66303607847626"><ele>86.0</ele><time>2026-04-12T06:20:43.781Z</time></trkpt><trkpt lat="45.728311348134895" lon="11.66336446250563"><ele>86.0</ele><time>2026-04-12T06:20:44.781Z</time></trkpt><trkpt lat="45.72842046195164" lon="11.663683021679978"><ele>86.0</ele><time>2026-04-12T06:20:45.781Z</time></trkpt><trkpt lat="45.72853824526529" lon="11.663998071307232"><ele>86.0</ele><time>2026-04-12T06:20:46.781Z</time></trkpt><trkpt lat="45.72864755240045" lon="11.664315902837057"><ele>86.0</ele><time>2026-04-12T06:20:47.781Z</time></trkpt><trkpt lat="45.72876165212381" lon="11.664631701650782"><ele>86.0</ele><time>2026-04-12T06:20:48.781Z</time></trkpt><trkpt lat="45.72888369399027" lon="11.664938943877054"><ele>86.0</ele><time>2026-04-12T06:20:49.781Z</time></trkpt><trkpt lat="45.72900936309304" lon="11.665248111139451"><ele>86.0</ele><time>2026-04-12T06:20:50.799Z</time></trkpt><trkpt lat="45.72913420923837" lon="11.66555264993128"><ele>86.0</ele><time>2026-04-12T06:20:51.799Z</time></trkpt><trkpt lat="45.72926327005038" lon="11.665853722180769"><ele>86.0</ele><time>2026-04-12T06:20:52.8Z</time></trkpt><trkpt lat="45.729394604363996" lon="11.666151931596781"><ele>86.0</ele><time>2026-04-12T06:20:53.798Z</time></trkpt><trkpt lat="45.72952805891486" lon="11.666449826393317"><ele>85.0</ele><time>2026-04-12T06:20:54.799Z</time></trkpt><trkpt lat="45.72982840244261" lon="11.667079729970235"><ele>85.0</ele><time>2026-04-12T06:20:56.781Z</time></trkpt><trkpt lat="45.729975788567465" lon="11.667367161027316"><ele>85.0</ele><time>2026-04-12T06:20:57.781Z</time></trkpt><trkpt lat="45.7301498267289" lon="11.667634787125065"><ele>85.0</ele><time>2026-04-12T06:20:58.781Z</time></trkpt><trkpt lat="45.730328572512335" lon="11.667883564158073"><ele>85.0</ele><time>2026-04-12T06:20:59.781Z</time></trkpt><trkpt lat="45.73047015544829" lon="11.668148888757232"><ele>85.0</ele><time>2026-04-12T06:21:00.781Z</time></trkpt><trkpt lat="45.730640829788335" lon="11.66841542078489"><ele>85.0</ele><time>2026-04-12T06:21:01.781Z</time></trkpt><trkpt lat="45.73081690418283" lon="11.668681558176905"><ele>85.5</ele><time>2026-04-12T06:21:02.781Z</time></trkpt><trkpt lat="45.73099958416193" lon="11.66894871821236"><ele>86.0</ele><time>2026-04-12T06:21:03.782Z</time></trkpt><trkpt lat="45.73118201314509" lon="11.669206592163663"><ele>86.0</ele><time>2026-04-12T06:21:04.782Z</time></trkpt><trkpt lat="45.731371937275156" lon="11.669456540703644"><ele>86.0</ele><time>2026-04-12T06:21:05.782Z</time></trkpt><trkpt lat="45.731569774385136" lon="11.669709482128138"><ele>86.0</ele><time>2026-04-12T06:21:06.782Z</time></trkpt><trkpt lat="45.731767850794476" lon="11.669959830726075"><ele>86.0</ele><time>2026-04-12T06:21:07.782Z</time></trkpt><trkpt lat="45.731961131688266" lon="11.67020138132785"><ele>86.5</ele><time>2026-04-12T06:21:08.782Z</time></trkpt><trkpt lat="45.732148537617945" lon="11.670435715863263"><ele>87.0</ele><time>2026-04-12T06:21:09.782Z</time></trkpt><trkpt lat="45.732330099107344" lon="11.67066786586693"><ele>87.0</ele><time>2026-04-12T06:21:10.782Z</time></trkpt><trkpt lat="45.73250949554915" lon="11.670900118041898"><ele>87.0</ele><time>2026-04-12T06:21:11.782Z</time></trkpt><trkpt lat="45.73268893723233" lon="11.671128261316648"><ele>87.5</ele><time>2026-04-12T06:21:12.782Z</time></trkpt><trkpt lat="45.732862774727096" lon="11.671361981951346"><ele>88.0</ele><time>2026-04-12T06:21:13.782Z</time></trkpt><trkpt lat="45.73303527329285" lon="11.671592743470155"><ele>88.0</ele><time>2026-04-12T06:21:14.782Z</time></trkpt><trkpt lat="45.73321024827972" lon="11.671821945605972"><ele>88.0</ele><time>2026-04-12T06:21:15.782Z</time></trkpt><trkpt lat="45.73337641806865" lon="11.672053610817212"><ele>88.0</ele><time>2026-04-12T06:21:16.782Z</time></trkpt><trkpt lat="45.73353980225628" lon="11.672290223514047"><ele>88.0</ele><time>2026-04-12T06:21:17.782Z</time></trkpt><trkpt lat="45.733693874778595" lon="11.672546516280427"><ele>88.5</ele><time>2026-04-12T06:21:18.782Z</time></trkpt><trkpt lat="45.733849232996825" lon="11.672792897700491"><ele>89.0</ele><time>2026-04-12T06:21:19.782Z</time></trkpt><trkpt lat="45.73399891995057" lon="11.673051139680108"><ele>89.0</ele><time>2026-04-12T06:21:20.782Z</time></trkpt><trkpt lat="45.73415827260205" lon="11.673303740591834"><ele>89.0</ele><time>2026-04-12T06:21:21.782Z</time></trkpt><trkpt lat="45.734305159728116" lon="11.673575784961736"><ele>87.5</ele><time>2026-04-12T06:21:22.782Z</time></trkpt><trkpt lat="45.734447935386925" lon="11.673847778002239"><ele>86.0</ele><time>2026-04-12T06:21:23.782Z</time></trkpt><trkpt lat="45.73458742968348" lon="11.6741352859059"><ele>86.0</ele><time>2026-04-12T06:21:24.782Z</time></trkpt><trkpt lat="45.734725249960114" lon="11.67442625271986"><ele>86.0</ele><time>2026-04-12T06:21:25.782Z</time></trkpt><trkpt lat="45.73486450489268" lon="11.674711971028536"><ele>86.5</ele><time>2026-04-12T06:21:26.782Z</time></trkpt><trkpt lat="45.734998067790215" lon="11.675011756532458"><ele>87.0</ele><time>2026-04-12T06:21:27.782Z</time></trkpt><trkpt lat="45.735131030130766" lon="11.675314141337232"><ele>87.5</ele><time>2026-04-12T06:21:28.782Z</time></trkpt><trkpt lat="45.73526282021804" lon="11.675626547858679"><ele>88.0</ele><time>2026-04-12T06:21:29.782Z</time></trkpt><trkpt lat="45.73537189291306" lon="11.675961394921844"><ele>87.5</ele><time>2026-04-12T06:21:30.782Z</time></trkpt><trkpt lat="45.735494129030116" lon="11.67628760778283"><ele>87.0</ele><time>2026-04-12T06:21:31.782Z</time></trkpt><trkpt lat="45.735614502671396" lon="11.676610804723046"><ele>87.0</ele><time>2026-04-12T06:21:32.782Z</time></trkpt><trkpt lat="45.735741188405264" lon="11.676935389402175"><ele>87.0</ele><time>2026-04-12T06:21:33.782Z</time></trkpt><trkpt lat="45.73586404560182" lon="11.67726237475255"><ele>87.0</ele><time>2026-04-12T06:21:34.782Z</time></trkpt><trkpt lat="45.73598533130211" lon="11.677592166152483"><ele>87.0</ele><time>2026-04-12T06:21:35.782Z</time></trkpt><trkpt lat="45.73609177450139" lon="11.677933782394065"><ele>87.0</ele><time>2026-04-12T06:21:36.782Z</time></trkpt><trkpt lat="45.73620800424535" lon="11.67827174749914"><ele>87.0</ele><time>2026-04-12T06:21:37.782Z</time></trkpt><trkpt lat="45.736332475414265" lon="11.678594493125177"><ele>87.5</ele><time>2026-04-12T06:21:38.782Z</time></trkpt><trkpt lat="45.73645322496673" lon="11.678922764866854"><ele>88.0</ele><time>2026-04-12T06:21:39.782Z</time></trkpt><trkpt lat="45.73657473818787" lon="11.67924467970451"><ele>88.5</ele><time>2026-04-12T06:21:40.782Z</time></trkpt><trkpt lat="45.736692153604494" lon="11.679562696864199"><ele>89.0</ele><time>2026-04-12T06:21:41.782Z</time></trkpt><trkpt lat="45.73681491744231" lon="11.679878236168866"><ele>88.0</ele><time>2026-04-12T06:21:42.782Z</time></trkpt><trkpt lat="45.73693507961027" lon="11.68019718951076"><ele>87.0</ele><time>2026-04-12T06:21:43.782Z</time></trkpt><trkpt lat="45.73705508383229" lon="11.680514172040157"><ele>87.0</ele><time>2026-04-12T06:21:44.782Z</time></trkpt><trkpt lat="45.73717635451082" lon="11.680831803479375"><ele>87.0</ele><time>2026-04-12T06:21:45.782Z</time></trkpt><trkpt lat="45.73729083441617" lon="11.681153535073172"><ele>87.0</ele><time>2026-04-12T06:21:46.782Z</time></trkpt><trkpt lat="45.73740797451819" lon="11.681472946749825"><ele>87.0</ele><time>2026-04-12T06:21:47.782Z</time></trkpt><trkpt lat="45.737523173089365" lon="11.681792252517488"><ele>87.5</ele><time>2026-04-12T06:21:48.782Z</time></trkpt><trkpt lat="45.73763564050638" lon="11.682116051425426"><ele>88.0</ele><time>2026-04-12T06:21:49.782Z</time></trkpt><trkpt lat="45.73774352668753" lon="11.682445580514793"><ele>88.0</ele><time>2026-04-12T06:21:50.782Z</time></trkpt><trkpt lat="45.737847218637285" lon="11.682778807822103"><ele>88.0</ele><time>2026-04-12T06:21:51.782Z</time></trkpt><trkpt lat="45.73794200699611" lon="11.68312177768793"><ele>88.0</ele><time>2026-04-12T06:21:52.782Z</time></trkpt><trkpt lat="45.738024741693756" lon="11.683465725127915"><ele>88.0</ele><time>2026-04-12T06:21:53.782Z</time></trkpt><trkpt lat="45.73810883630177" lon="11.683813788421135"><ele>87.5</ele><time>2026-04-12T06:21:54.782Z</time></trkpt><trkpt lat="45.73817611215135" lon="11.684170993368378"><ele>87.0</ele><time>2026-04-12T06:21:55.782Z</time></trkpt><trkpt lat="45.738242322998325" lon="11.684521893086055"><ele>87.0</ele><time>2026-04-12T06:21:56.782Z</time></trkpt><trkpt lat="45.738299263776156" lon="11.684866564620389"><ele>87.0</ele><time>2026-04-12T06:21:57.782Z</time></trkpt><trkpt lat="45.7383468470915" lon="11.685196983107483"><ele>87.0</ele><time>2026-04-12T06:21:58.782Z</time></trkpt><trkpt lat="45.73838961397241" lon="11.68552943308968"><ele>87.0</ele><time>2026-04-12T06:21:59.782Z</time></trkpt><trkpt lat="45.73843049943357" lon="11.68586410828291"><ele>87.0</ele><time>2026-04-12T06:22:00.782Z</time></trkpt><trkpt lat="45.738460739150575" lon="11.686205389615909"><ele>87.0</ele><time>2026-04-12T06:22:01.782Z</time></trkpt><trkpt lat="45.7384842518781" lon="11.686541810040582"><ele>87.0</ele><time>2026-04-12T06:22:02.782Z</time></trkpt><trkpt lat="45.738503900236566" lon="11.686882289871967"><ele>87.0</ele><time>2026-04-12T06:22:03.782Z</time></trkpt><trkpt lat="45.73851790584882" lon="11.68722630490588"><ele>87.0</ele><time>2026-04-12T06:22:04.782Z</time></trkpt><trkpt lat="45.73852681375971" lon="11.687574193026514"><ele>87.0</ele><time>2026-04-12T06:22:05.782Z</time></trkpt><trkpt lat="45.738535311377724" lon="11.687920205606506"><ele>87.5</ele><time>2026-04-12T06:22:06.782Z</time></trkpt><trkpt lat="45.73854351177712" lon="11.688267475145363"><ele>88.0</ele><time>2026-04-12T06:22:07.782Z</time></trkpt><trkpt lat="45.738549197424845" lon="11.688620159188842"><ele>88.0</ele><time>2026-04-12T06:22:08.782Z</time></trkpt><trkpt lat="45.73855280260432" lon="11.688963050069303"><ele>88.0</ele><time>2026-04-12T06:22:09.782Z</time></trkpt><trkpt lat="45.738562423798356" lon="11.689296981113298"><ele>89.0</ele><time>2026-04-12T06:22:10.782Z</time></trkpt><trkpt lat="45.73857039579526" lon="11.689622006654467"><ele>90.0</ele><time>2026-04-12T06:22:11.782Z</time></trkpt><trkpt lat="45.738576182651855" lon="11.689953051678495"><ele>89.0</ele><time>2026-04-12T06:22:12.782Z</time></trkpt><trkpt lat="45.73858298173842" lon="11.690283736386569"><ele>88.0</ele><time>2026-04-12T06:22:13.782Z</time></trkpt><trkpt lat="45.73859192075548" lon="11.69061155994729"><ele>88.0</ele><time>2026-04-12T06:22:14.782Z</time></trkpt><trkpt lat="45.73859552481093" lon="11.690941442355985"><ele>88.0</ele><time>2026-04-12T06:22:15.782Z</time></trkpt><trkpt lat="45.738596688584586" lon="11.691273688414032"><ele>88.0</ele><time>2026-04-12T06:22:16.782Z</time></trkpt><trkpt lat="45.73859750609677" lon="11.691609408688107"><ele>88.0</ele><time>2026-04-12T06:22:17.782Z</time></trkpt><trkpt lat="45.73860152210467" lon="11.691946140051066"><ele>88.0</ele><time>2026-04-12T06:22:18.782Z</time></trkpt><trkpt lat="45.73860654719685" lon="11.692284960004201"><ele>88.0</ele><time>2026-04-12T06:22:19.782Z</time></trkpt><trkpt lat="45.73861507609747" lon="11.69262622576736"><ele>87.5</ele><time>2026-04-12T06:22:20.782Z</time></trkpt><trkpt lat="45.7386160794742" lon="11.69297638697792"><ele>87.0</ele><time>2026-04-12T06:22:21.782Z</time></trkpt><trkpt lat="45.738616953825726" lon="11.693322144672868"><ele>87.0</ele><time>2026-04-12T06:22:22.782Z</time></trkpt><trkpt lat="45.738612435905836" lon="11.693677517365437"><ele>87.0</ele><time>2026-04-12T06:22:23.782Z</time></trkpt><trkpt lat="45.73860123518437" lon="11.694031229323214"><ele>87.0</ele><time>2026-04-12T06:22:24.782Z</time></trkpt><trkpt lat="45.73858832753951" lon="11.694388192661302"><ele>87.0</ele><time>2026-04-12T06:22:25.782Z</time></trkpt><trkpt lat="45.73858193188865" lon="11.694744574829572"><ele>87.5</ele><time>2026-04-12T06:22:26.782Z</time></trkpt><trkpt lat="45.73857257042178" lon="11.69510433257555"><ele>88.0</ele><time>2026-04-12T06:22:27.782Z</time></trkpt><trkpt lat="45.73856492961935" lon="11.695469434302977"><ele>88.0</ele><time>2026-04-12T06:22:28.782Z</time></trkpt><trkpt lat="45.738554471117105" lon="11.695831479102184"><ele>88.0</ele><time>2026-04-12T06:22:29.782Z</time></trkpt><trkpt lat="45.73854181264607" lon="11.69619811592371"><ele>87.0</ele><time>2026-04-12T06:22:30.782Z</time></trkpt><trkpt lat="45.73852823663259" lon="11.696562246716827"><ele>86.0</ele><time>2026-04-12T06:22:31.782Z</time></trkpt><trkpt lat="45.73851253875574" lon="11.696922670400067"><ele>86.0</ele><time>2026-04-12T06:22:32.782Z</time></trkpt><trkpt lat="45.738494801236556" lon="11.697282438388115"><ele>86.0</ele><time>2026-04-12T06:22:33.782Z</time></trkpt><trkpt lat="45.73848121905098" lon="11.697644651672674"><ele>87.0</ele><time>2026-04-12T06:22:34.782Z</time></trkpt><trkpt lat="45.73846474441332" lon="11.6980021226686"><ele>88.0</ele><time>2026-04-12T06:22:35.782Z</time></trkpt><trkpt lat="45.73844933292518" lon="11.698360868424253"><ele>89.0</ele><time>2026-04-12T06:22:36.782Z</time></trkpt><trkpt lat="45.73843087196552" lon="11.698719259104688"><ele>90.0</ele><time>2026-04-12T06:22:37.782Z</time></trkpt><trkpt lat="45.73841161601909" lon="11.699072815897017"><ele>88.0</ele><time>2026-04-12T06:22:38.782Z</time></trkpt><trkpt lat="45.73839190126872" lon="11.699423849341095"><ele>86.0</ele><time>2026-04-12T06:22:39.782Z</time></trkpt><trkpt lat="45.73837279915927" lon="11.699776672858192"><ele>86.0</ele><time>2026-04-12T06:22:40.782Z</time></trkpt><trkpt lat="45.738350820937235" lon="11.70012546218471"><ele>86.0</ele><time>2026-04-12T06:22:41.782Z</time></trkpt><trkpt lat="45.738329711334686" lon="11.70047543969298"><ele>87.0</ele><time>2026-04-12T06:22:42.782Z</time></trkpt><trkpt lat="45.73830322425364" lon="11.700826856212348"><ele>88.0</ele><time>2026-04-12T06:22:43.782Z</time></trkpt><trkpt lat="45.738274214302805" lon="11.701158062826536"><ele>88.33333333333333</ele><time>2026-04-12T06:22:44.782Z</time></trkpt><trkpt lat="45.73825286703398" lon="11.701470694252471"><ele>88.66666666666667</ele><time>2026-04-12T06:22:45.782Z</time></trkpt><trkpt lat="45.73822980759504" lon="11.70177994868339"><ele>89.0</ele><time>2026-04-12T06:22:46.782Z</time></trkpt><trkpt lat="45.73820554332484" lon="11.70209322852211"><ele>90.0</ele><time>2026-04-12T06:22:47.782Z</time></trkpt><trkpt lat="45.73817935949243" lon="11.702418013427312"><ele>91.0</ele><time>2026-04-12T06:22:48.782Z</time></trkpt><trkpt lat="45.73816098445927" lon="11.70274020614743"><ele>91.0</ele><time>2026-04-12T06:22:49.782Z</time></trkpt><trkpt lat="45.73813980249454" lon="11.703063879429672"><ele>91.0</ele><time>2026-04-12T06:22:50.782Z</time></trkpt><trkpt lat="45.738113122169466" lon="11.703390978865924"><ele>91.0</ele><time>2026-04-12T06:22:51.782Z</time></trkpt><trkpt lat="45.73809378606064" lon="11.703723277518298"><ele>91.0</ele><time>2026-04-12T06:22:52.782Z</time></trkpt><trkpt lat="45.738070274332564" lon="11.704058416311936"><ele>91.0</ele><time>2026-04-12T06:22:53.782Z</time></trkpt><trkpt lat="45.73804513560196" lon="11.704392507591182"><ele>91.0</ele><time>2026-04-12T06:22:54.782Z</time></trkpt><trkpt lat="45.73802045549366" lon="11.704726216393263"><ele>90.5</ele><time>2026-04-12T06:22:55.782Z</time></trkpt><trkpt lat="45.737996252845306" lon="11.705058986262783"><ele>90.0</ele><time>2026-04-12T06:22:56.782Z</time></trkpt><trkpt lat="45.73796963353643" lon="11.705395003689206"><ele>90.0</ele><time>2026-04-12T06:22:57.782Z</time></trkpt><trkpt lat="45.737946211171796" lon="11.705732751573516"><ele>90.0</ele><time>2026-04-12T06:22:58.782Z</time></trkpt><trkpt lat="45.73792300432145" lon="11.706069890543269"><ele>90.5</ele><time>2026-04-12T06:22:59.782Z</time></trkpt><trkpt lat="45.73789293168374" lon="11.706405108286338"><ele>91.0</ele><time>2026-04-12T06:23:00.782Z</time></trkpt><trkpt lat="45.737867243226965" lon="11.706738946513408"><ele>91.5</ele><time>2026-04-12T06:23:01.782Z</time></trkpt><trkpt lat="45.73784269222703" lon="11.707069496590316"><ele>92.0</ele><time>2026-04-12T06:23:02.782Z</time></trkpt><trkpt lat="45.737815349810745" lon="11.707401282092771"><ele>92.0</ele><time>2026-04-12T06:23:03.782Z</time></trkpt><trkpt lat="45.73778718178945" lon="11.707743314360258"><ele>92.0</ele><time>2026-04-12T06:23:04.782Z</time></trkpt><trkpt lat="45.73775902227676" lon="11.708085981084945"><ele>92.0</ele><time>2026-04-12T06:23:05.782Z</time></trkpt><trkpt lat="45.737730938806386" lon="11.70843881402966"><ele>92.0</ele><time>2026-04-12T06:23:06.782Z</time></trkpt><trkpt lat="45.73770386609898" lon="11.708786914814501"><ele>93.0</ele><time>2026-04-12T06:23:07.782Z</time></trkpt><trkpt lat="45.73767910644703" lon="11.709136892742846"><ele>94.0</ele><time>2026-04-12T06:23:08.782Z</time></trkpt><trkpt lat="45.73765714205101" lon="11.709495019569061"><ele>94.5</ele><time>2026-04-12T06:23:09.783Z</time></trkpt><trkpt lat="45.737643585752025" lon="11.709852379846092"><ele>95.0</ele><time>2026-04-12T06:23:10.783Z</time></trkpt><trkpt lat="45.737630083038205" lon="11.71020608273099"><ele>95.33333333333334</ele><time>2026-04-12T06:23:11.783Z</time></trkpt><trkpt lat="45.73761300878179" lon="11.710532371899289"><ele>95.66666666666667</ele><time>2026-04-12T06:23:12.783Z</time></trkpt><trkpt lat="45.737606156144665" lon="11.710848185227858"><ele>96.0</ele><time>2026-04-12T06:23:13.784Z</time></trkpt><trkpt lat="45.73760957297429" lon="11.711172321792805"><ele>95.0</ele><time>2026-04-12T06:23:14.784Z</time></trkpt><trkpt lat="45.73761488838737" lon="11.711497714049138"><ele>94.0</ele><time>2026-04-12T06:23:15.784Z</time></trkpt><trkpt lat="45.73761956165053" lon="11.711829149424352"><ele>93.5</ele><time>2026-04-12T06:23:16.784Z</time></trkpt><trkpt lat="45.737628836004426" lon="11.712162290584152"><ele>93.0</ele><time>2026-04-12T06:23:17.784Z</time></trkpt><trkpt lat="45.73763853893633" lon="11.712502527333143"><ele>95.0</ele><time>2026-04-12T06:23:18.784Z</time></trkpt><trkpt lat="45.737653473464974" lon="11.712849344247815"><ele>97.0</ele><time>2026-04-12T06:23:19.784Z</time></trkpt><trkpt lat="45.737680518424014" lon="11.713191630806765"><ele>97.0</ele><time>2026-04-12T06:23:20.784Z</time></trkpt><trkpt lat="45.73771363562962" lon="11.713539856935554"><ele>97.0</ele><time>2026-04-12T06:23:21.784Z</time></trkpt><trkpt lat="45.73775094787573" lon="11.713890250660992"><ele>95.5</ele><time>2026-04-12T06:23:22.784Z</time></trkpt><trkpt lat="45.73778488366241" lon="11.714247888895844"><ele>94.0</ele><time>2026-04-12T06:23:23.784Z</time></trkpt><trkpt lat="45.73782266970025" lon="11.714620760159931"><ele>94.0</ele><time>2026-04-12T06:23:24.784Z</time></trkpt><trkpt lat="45.73785844184113" lon="11.715004467271703"><ele>94.0</ele><time>2026-04-12T06:23:25.784Z</time></trkpt><trkpt lat="45.73789695097676" lon="11.715404750068645"><ele>94.5</ele><time>2026-04-12T06:23:26.784Z</time></trkpt><trkpt lat="45.737933949635384" lon="11.715824216873111"><ele>95.0</ele><time>2026-04-12T06:23:27.784Z</time></trkpt><trkpt lat="45.73796513440791" lon="11.716233231917796"><ele>95.0</ele><time>2026-04-12T06:23:28.784Z</time></trkpt><trkpt lat="45.73799677075991" lon="11.716640159563458"><ele>95.0</ele><time>2026-04-12T06:23:29.784Z</time></trkpt><trkpt lat="45.738030805782344" lon="11.717024446818822"><ele>95.5</ele><time>2026-04-12T06:23:30.784Z</time></trkpt><trkpt lat="45.738056446612816" lon="11.71738778755689"><ele>96.0</ele><time>2026-04-12T06:23:31.784Z</time></trkpt><trkpt lat="45.73809778388645" lon="11.717748055460621"><ele>96.0</ele><time>2026-04-12T06:23:32.784Z</time></trkpt><trkpt lat="45.73813088422797" lon="11.718105961773787"><ele>96.0</ele><time>2026-04-12T06:23:33.784Z</time></trkpt><trkpt lat="45.73816644695358" lon="11.718461104013873"><ele>96.0</ele><time>2026-04-12T06:23:34.784Z</time></trkpt><trkpt lat="45.73820230542481" lon="11.718807630774307"><ele>96.0</ele><time>2026-04-12T06:23:35.784Z</time></trkpt><trkpt lat="45.73823450139827" lon="11.719146463764567"><ele>96.0</ele><time>2026-04-12T06:23:36.784Z</time></trkpt><trkpt lat="45.73826426610546" lon="11.719478265145314"><ele>96.0</ele><time>2026-04-12T06:23:37.784Z</time></trkpt><trkpt lat="45.73829351179682" lon="11.719806429331717"><ele>96.0</ele><time>2026-04-12T06:23:38.784Z</time></trkpt><trkpt lat="45.73832076179912" lon="11.720131782948332"><ele>96.0</ele><time>2026-04-12T06:23:39.784Z</time></trkpt><trkpt lat="45.7383471206756" lon="11.720456901657212"><ele>95.0</ele><time>2026-04-12T06:23:40.784Z</time></trkpt><trkpt lat="45.7383741094696" lon="11.720786303025886"><ele>94.0</ele><time>2026-04-12T06:23:41.784Z</time></trkpt><trkpt lat="45.73840724995599" lon="11.721108030495763"><ele>94.0</ele><time>2026-04-12T06:23:42.784Z</time></trkpt><trkpt lat="45.738435098382105" lon="11.721437774804018"><ele>94.0</ele><time>2026-04-12T06:23:43.784Z</time></trkpt><trkpt lat="45.73846304834898" lon="11.721760037766064"><ele>95.0</ele><time>2026-04-12T06:23:44.784Z</time></trkpt><trkpt lat="45.73849049057059" lon="11.722085370774465"><ele>96.0</ele><time>2026-04-12T06:23:45.784Z</time></trkpt><trkpt lat="45.738522047525265" lon="11.722402449580958"><ele>96.0</ele><time>2026-04-12T06:23:46.784Z</time></trkpt><trkpt lat="45.73854793850111" lon="11.722724979044948"><ele>96.0</ele><time>2026-04-12T06:23:47.784Z</time></trkpt><trkpt lat="45.73857046229856" lon="11.723048248997321"><ele>96.0</ele><time>2026-04-12T06:23:48.784Z</time></trkpt><trkpt lat="45.73859467564336" lon="11.723357475882212"><ele>96.0</ele><time>2026-04-12T06:23:49.784Z</time></trkpt><trkpt lat="45.738626832624405" lon="11.723665887898578"><ele>96.0</ele><time>2026-04-12T06:23:50.784Z</time></trkpt><trkpt lat="45.73865346063868" lon="11.723988535594142"><ele>96.0</ele><time>2026-04-12T06:23:51.784Z</time></trkpt><trkpt lat="45.73867757853018" lon="11.724318391543598"><ele>96.0</ele><time>2026-04-12T06:23:52.784Z</time></trkpt><trkpt lat="45.738702940390915" lon="11.724649376455385"><ele>97.0</ele><time>2026-04-12T06:23:53.784Z</time></trkpt><trkpt lat="45.73872416552904" lon="11.724992718394796"><ele>98.0</ele><time>2026-04-12T06:23:54.784Z</time></trkpt><trkpt lat="45.73873866313458" lon="11.725349734072966"><ele>98.0</ele><time>2026-04-12T06:23:55.784Z</time></trkpt><trkpt lat="45.73874473634597" lon="11.725714848863985"><ele>98.0</ele><time>2026-04-12T06:23:56.784Z</time></trkpt><trkpt lat="45.73875121338249" lon="11.726072322975725"><ele>98.0</ele><time>2026-04-12T06:23:57.784Z</time></trkpt><trkpt lat="45.7387506060026" lon="11.7264336828923"><ele>98.0</ele><time>2026-04-12T06:23:58.784Z</time></trkpt><trkpt lat="45.738744342322754" lon="11.726796067473169"><ele>98.0</ele><time>2026-04-12T06:23:59.784Z</time></trkpt><trkpt lat="45.738728829156514" lon="11.727156484860144"><ele>98.0</ele><time>2026-04-12T06:24:00.784Z</time></trkpt><trkpt lat="45.73870406286954" lon="11.727514144075055"><ele>96.5</ele><time>2026-04-12T06:24:01.784Z</time></trkpt><trkpt lat="45.738679264263155" lon="11.727875944376263"><ele>95.0</ele><time>2026-04-12T06:24:02.784Z</time></trkpt><trkpt lat="45.7386502939838" lon="11.728234313976891"><ele>95.5</ele><time>2026-04-12T06:24:03.784Z</time></trkpt><trkpt lat="45.738614852066014" lon="11.72858902047434"><ele>96.0</ele><time>2026-04-12T06:24:04.784Z</time></trkpt><trkpt lat="45.73857209360834" lon="11.728942760213192"><ele>95.5</ele><time>2026-04-12T06:24:05.784Z</time></trkpt><trkpt lat="45.73852777061874" lon="11.72929360691845"><ele>95.0</ele><time>2026-04-12T06:24:06.784Z</time></trkpt><trkpt lat="45.73848003380179" lon="11.729645823896655"><ele>95.0</ele><time>2026-04-12T06:24:07.784Z</time></trkpt><trkpt lat="45.73842589631498" lon="11.729994891582514"><ele>95.0</ele><time>2026-04-12T06:24:08.784Z</time></trkpt><trkpt lat="45.738365253745236" lon="11.730340061347258"><ele>96.5</ele><time>2026-04-12T06:24:09.784Z</time></trkpt><trkpt lat="45.73829840807616" lon="11.730683978608479"><ele>98.0</ele><time>2026-04-12T06:24:10.784Z</time></trkpt><trkpt lat="45.738230003487736" lon="11.731026405556854"><ele>99.0</ele><time>2026-04-12T06:24:11.784Z</time></trkpt><trkpt lat="45.73815434406133" lon="11.7313746407317"><ele>100.0</ele><time>2026-04-12T06:24:12.784Z</time></trkpt><trkpt lat="45.73807920117067" lon="11.731721317583427"><ele>99.5</ele><time>2026-04-12T06:24:13.784Z</time></trkpt><trkpt lat="45.73800474969483" lon="11.73207894420617"><ele>99.0</ele><time>2026-04-12T06:24:14.784Z</time></trkpt><trkpt lat="45.73792464550547" lon="11.732429884947107"><ele>99.5</ele><time>2026-04-12T06:24:15.784Z</time></trkpt><trkpt lat="45.737837872142286" lon="11.732781696221327"><ele>100.0</ele><time>2026-04-12T06:24:16.784Z</time></trkpt><trkpt lat="45.737758799038836" lon="11.73313313954853"><ele>100.0</ele><time>2026-04-12T06:24:17.784Z</time></trkpt><trkpt lat="45.73767468211226" lon="11.733487798487324"><ele>100.0</ele><time>2026-04-12T06:24:18.784Z</time></trkpt><trkpt lat="45.73759579176213" lon="11.733836257804109"><ele>100.0</ele><time>2026-04-12T06:24:19.784Z</time></trkpt><trkpt lat="45.737515230881094" lon="11.734191267728706"><ele>100.0</ele><time>2026-04-12T06:24:20.784Z</time></trkpt><trkpt lat="45.73743478223676" lon="11.734549593761693"><ele>100.0</ele><time>2026-04-12T06:24:21.784Z</time></trkpt><trkpt lat="45.73735156946739" lon="11.734907591128335"><ele>100.0</ele><time>2026-04-12T06:24:22.784Z</time></trkpt><trkpt lat="45.73726714235686" lon="11.735268997289085"><ele>100.5</ele><time>2026-04-12T06:24:23.784Z</time></trkpt><trkpt lat="45.737187557641896" lon="11.735620063599795"><ele>101.0</ele><time>2026-04-12T06:24:24.784Z</time></trkpt><trkpt lat="45.737105001064556" lon="11.735975851048313"><ele>100.5</ele><time>2026-04-12T06:24:25.784Z</time></trkpt><trkpt lat="45.73702082912574" lon="11.736334806068404"><ele>100.0</ele><time>2026-04-12T06:24:26.784Z</time></trkpt><trkpt lat="45.736943230073344" lon="11.736688264436259"><ele>100.5</ele><time>2026-04-12T06:24:27.784Z</time></trkpt><trkpt lat="45.73686589706877" lon="11.737041068381817"><ele>101.0</ele><time>2026-04-12T06:24:28.784Z</time></trkpt><trkpt lat="45.736782743998226" lon="11.73738989017288"><ele>101.0</ele><time>2026-04-12T06:24:29.784Z</time></trkpt><trkpt lat="45.73669525545441" lon="11.7377411970583"><ele>101.0</ele><time>2026-04-12T06:24:30.784Z</time></trkpt><trkpt lat="45.736617172590925" lon="11.738091224201577"><ele>101.0</ele><time>2026-04-12T06:24:31.784Z</time></trkpt><trkpt lat="45.736543456851805" lon="11.738441067123727"><ele>101.0</ele><time>2026-04-12T06:24:32.784Z</time></trkpt><trkpt lat="45.736479614200185" lon="11.738797955450611"><ele>100.5</ele><time>2026-04-12T06:24:33.784Z</time></trkpt><trkpt lat="45.73642820003816" lon="11.739156273651647"><ele>100.0</ele><time>2026-04-12T06:24:34.784Z</time></trkpt><trkpt lat="45.73638363239263" lon="11.739516978943866"><ele>99.5</ele><time>2026-04-12T06:24:35.784Z</time></trkpt><trkpt lat="45.73634806082537" lon="11.739879007419251"><ele>99.0</ele><time>2026-04-12T06:24:36.784Z</time></trkpt><trkpt lat="45.73631701043185" lon="11.74023994828736"><ele>100.0</ele><time>2026-04-12T06:24:37.784Z</time></trkpt><trkpt lat="45.73629362733433" lon="11.740604671527024"><ele>101.0</ele><time>2026-04-12T06:24:38.784Z</time></trkpt><trkpt lat="45.73626874726651" lon="11.74096900967504"><ele>102.0</ele><time>2026-04-12T06:24:39.784Z</time></trkpt><trkpt lat="45.73625412191326" lon="11.74133541927598"><ele>103.0</ele><time>2026-04-12T06:24:40.784Z</time></trkpt><trkpt lat="45.73623688479416" lon="11.741702328924667"><ele>103.0</ele><time>2026-04-12T06:24:41.784Z</time></trkpt><trkpt lat="45.73621981894839" lon="11.742071803872253"><ele>103.0</ele><time>2026-04-12T06:24:42.784Z</time></trkpt><trkpt lat="45.73620105970287" lon="11.742439509067935"><ele>103.0</ele><time>2026-04-12T06:24:43.784Z</time></trkpt><trkpt lat="45.73618063350797" lon="11.742800105725749"><ele>103.0</ele><time>2026-04-12T06:24:44.784Z</time></trkpt><trkpt lat="45.7361570621682" lon="11.743150168515026"><ele>103.0</ele><time>2026-04-12T06:24:45.784Z</time></trkpt><trkpt lat="45.73613778367485" lon="11.743497097455712"><ele>103.0</ele><time>2026-04-12T06:24:46.784Z</time></trkpt><trkpt lat="45.73611675943997" lon="11.743846694124766"><ele>102.5</ele><time>2026-04-12T06:24:47.784Z</time></trkpt><trkpt lat="45.73609781953359" lon="11.744188699384715"><ele>102.0</ele><time>2026-04-12T06:24:48.784Z</time></trkpt><trkpt lat="45.73608077751524" lon="11.74453436375826"><ele>101.5</ele><time>2026-04-12T06:24:49.784Z</time></trkpt><trkpt lat="45.73606485774622" lon="11.744877434652853"><ele>101.0</ele><time>2026-04-12T06:24:50.784Z</time></trkpt><trkpt lat="45.73604586948255" lon="11.74522469708085"><ele>101.0</ele><time>2026-04-12T06:24:51.784Z</time></trkpt><trkpt lat="45.736022323749296" lon="11.745575488922706"><ele>101.0</ele><time>2026-04-12T06:24:52.784Z</time></trkpt><trkpt lat="45.735998777640894" lon="11.74593535401079"><ele>101.0</ele><time>2026-04-12T06:24:53.784Z</time></trkpt><trkpt lat="45.73597787439907" lon="11.74628679857557"><ele>101.0</ele><time>2026-04-12T06:24:54.784Z</time></trkpt><trkpt lat="45.73595789564132" lon="11.746641114348954"><ele>101.0</ele><time>2026-04-12T06:24:55.784Z</time></trkpt><trkpt lat="45.73593554031377" lon="11.746999097647068"><ele>101.0</ele><time>2026-04-12T06:24:56.784Z</time></trkpt><trkpt lat="45.73591831653917" lon="11.747355059882484"><ele>101.0</ele><time>2026-04-12T06:24:57.784Z</time></trkpt><trkpt lat="45.73589614305903" lon="11.747710190764513"><ele>101.0</ele><time>2026-04-12T06:24:58.784Z</time></trkpt><trkpt lat="45.7358732443806" lon="11.748069911692967"><ele>101.5</ele><time>2026-04-12T06:24:59.784Z</time></trkpt><trkpt lat="45.73584882092309" lon="11.748434403059383"><ele>102.0</ele><time>2026-04-12T06:25:00.784Z</time></trkpt><trkpt lat="45.73582812389918" lon="11.748795531181125"><ele>102.0</ele><time>2026-04-12T06:25:01.784Z</time></trkpt><trkpt lat="45.735812506324685" lon="11.749160161728376"><ele>102.0</ele><time>2026-04-12T06:25:02.784Z</time></trkpt><trkpt lat="45.7358040826613" lon="11.749527018604509"><ele>101.5</ele><time>2026-04-12T06:25:03.784Z</time></trkpt><trkpt lat="45.735796819250936" lon="11.749893816429298"><ele>101.0</ele><time>2026-04-12T06:25:04.784Z</time></trkpt><trkpt lat="45.735795595909856" lon="11.750255324609457"><ele>102.5</ele><time>2026-04-12T06:25:05.784Z</time></trkpt><trkpt lat="45.735803193583735" lon="11.750605992377485"><ele>104.0</ele><time>2026-04-12T06:25:06.784Z</time></trkpt><trkpt lat="45.735812550252376" lon="11.75095446101804"><ele>102.5</ele><time>2026-04-12T06:25:07.784Z</time></trkpt><trkpt lat="45.73583099256439" lon="11.751301561708773"><ele>101.0</ele><time>2026-04-12T06:25:08.784Z</time></trkpt><trkpt lat="45.735855013226555" lon="11.751643307632015"><ele>101.0</ele><time>2026-04-12T06:25:09.784Z</time></trkpt><trkpt lat="45.735880632441436" lon="11.75198844562153"><ele>101.0</ele><time>2026-04-12T06:25:10.784Z</time></trkpt><trkpt lat="45.73591198858856" lon="11.752328566274333"><ele>101.0</ele><time>2026-04-12T06:25:11.784Z</time></trkpt><trkpt lat="45.73595416483786" lon="11.75266379496373"><ele>101.0</ele><time>2026-04-12T06:25:12.784Z</time></trkpt><trkpt lat="45.735997871986704" lon="11.75299898756867"><ele>101.0</ele><time>2026-04-12T06:25:13.784Z</time></trkpt><trkpt lat="45.73604220820359" lon="11.75333196852697"><ele>101.0</ele><time>2026-04-12T06:25:14.784Z</time></trkpt><trkpt lat="45.73608512173359" lon="11.753665057836713"><ele>101.0</ele><time>2026-04-12T06:25:15.785Z</time></trkpt><trkpt lat="45.73612932439796" lon="11.753990665809145"><ele>101.0</ele><time>2026-04-12T06:25:16.785Z</time></trkpt><trkpt lat="45.73617470131302" lon="11.754310624262617"><ele>100.0</ele><time>2026-04-12T06:25:17.785Z</time></trkpt><trkpt lat="45.73621604206576" lon="11.754629653585758"><ele>99.0</ele><time>2026-04-12T06:25:18.785Z</time></trkpt><trkpt lat="45.73625519142655" lon="11.75495192227061"><ele>100.0</ele><time>2026-04-12T06:25:19.785Z</time></trkpt><trkpt lat="45.73629526453142" lon="11.755277742507749"><ele>101.0</ele><time>2026-04-12T06:25:20.785Z</time></trkpt><trkpt lat="45.736340658969304" lon="11.75559883527842"><ele>101.0</ele><time>2026-04-12T06:25:21.785Z</time></trkpt><trkpt lat="45.73638342983049" lon="11.755926683932284"><ele>101.0</ele><time>2026-04-12T06:25:22.785Z</time></trkpt><trkpt lat="45.736427099135824" lon="11.756257120040994"><ele>101.0</ele><time>2026-04-12T06:25:23.785Z</time></trkpt><trkpt lat="45.73647178833779" lon="11.756590971412177"><ele>101.0</ele><time>2026-04-12T06:25:24.785Z</time></trkpt><trkpt lat="45.73652095737098" lon="11.75691561331438"><ele>100.5</ele><time>2026-04-12T06:25:25.785Z</time></trkpt><trkpt lat="45.73658060596981" lon="11.757230641818271"><ele>100.0</ele><time>2026-04-12T06:25:26.785Z</time></trkpt><trkpt lat="45.73662145263119" lon="11.757568383473336"><ele>100.5</ele><time>2026-04-12T06:25:27.785Z</time></trkpt><trkpt lat="45.73666187225718" lon="11.757908765800709"><ele>101.0</ele><time>2026-04-12T06:25:28.785Z</time></trkpt><trkpt lat="45.7366997396548" lon="11.75825102612372"><ele>101.5</ele><time>2026-04-12T06:25:29.785Z</time></trkpt><trkpt lat="45.736725798132795" lon="11.758598831154565"><ele>102.0</ele><time>2026-04-12T06:25:30.785Z</time></trkpt><trkpt lat="45.73677238288963" lon="11.758935494653317"><ele>102.0</ele><time>2026-04-12T06:25:31.785Z</time></trkpt><trkpt lat="45.73682139356985" lon="11.759269659488899"><ele>102.0</ele><time>2026-04-12T06:25:32.785Z</time></trkpt><trkpt lat="45.73687057964377" lon="11.759603805203918"><ele>102.5</ele><time>2026-04-12T06:25:33.785Z</time></trkpt><trkpt lat="45.736919551883986" lon="11.759935555092426"><ele>103.0</ele><time>2026-04-12T06:25:34.785Z</time></trkpt><trkpt lat="45.736966898716645" lon="11.760266757778455"><ele>103.0</ele><time>2026-04-12T06:25:35.785Z</time></trkpt><trkpt lat="45.73701356597806" lon="11.760597985354691"><ele>103.0</ele><time>2026-04-12T06:25:36.785Z</time></trkpt><trkpt lat="45.73705939177573" lon="11.760941595144597"><ele>102.0</ele><time>2026-04-12T06:25:37.785Z</time></trkpt><trkpt lat="45.7371060683617" lon="11.76127492464967"><ele>101.0</ele><time>2026-04-12T06:25:38.785Z</time></trkpt><trkpt lat="45.73715186059583" lon="11.761611539298185"><ele>101.0</ele><time>2026-04-12T06:25:39.785Z</time></trkpt><trkpt lat="45.73719852733861" lon="11.761951366370742"><ele>101.0</ele><time>2026-04-12T06:25:40.785Z</time></trkpt><trkpt lat="45.73725207714215" lon="11.762284670943039"><ele>101.0</ele><time>2026-04-12T06:25:41.785Z</time></trkpt><trkpt lat="45.73729845735255" lon="11.762636047410679"><ele>101.0</ele><time>2026-04-12T06:25:42.785Z</time></trkpt><trkpt lat="45.73735084107802" lon="11.762973469530799"><ele>101.0</ele><time>2026-04-12T06:25:43.785Z</time></trkpt><trkpt lat="45.73740184013801" lon="11.763312845480984"><ele>101.0</ele><time>2026-04-12T06:25:44.785Z</time></trkpt><trkpt lat="45.73745730692624" lon="11.76364440580342"><ele>102.0</ele><time>2026-04-12T06:25:45.785Z</time></trkpt><trkpt lat="45.73750904554861" lon="11.763977396387933"><ele>103.0</ele><time>2026-04-12T06:25:46.785Z</time></trkpt><trkpt lat="45.7375635577176" lon="11.76430832265245"><ele>102.5</ele><time>2026-04-12T06:25:47.785Z</time></trkpt><trkpt lat="45.7376219218262" lon="11.764637846433844"><ele>102.0</ele><time>2026-04-12T06:25:48.785Z</time></trkpt><trkpt lat="45.7376711874777" lon="11.764975359151245"><ele>102.0</ele><time>2026-04-12T06:25:49.785Z</time></trkpt><trkpt lat="45.73772458152616" lon="11.765303929888868"><ele>102.0</ele><time>2026-04-12T06:25:50.785Z</time></trkpt><trkpt lat="45.737778759604254" lon="11.765629861046648"><ele>102.0</ele><time>2026-04-12T06:25:51.785Z</time></trkpt><trkpt lat="45.73783922671199" lon="11.765966296434781"><ele>102.0</ele><time>2026-04-12T06:25:52.785Z</time></trkpt><trkpt lat="45.73790000927909" lon="11.766338180927058"><ele>102.0</ele><time>2026-04-12T06:25:53.785Z</time></trkpt><trkpt lat="45.7379601152827" lon="11.766678913395891"><ele>102.0</ele><time>2026-04-12T06:25:54.785Z</time></trkpt><trkpt lat="45.7380179133208" lon="11.766985686783153"><ele>102.33333333333334</ele><time>2026-04-12T06:25:55.785Z</time></trkpt><trkpt lat="45.73806624263994" lon="11.767274227822085"><ele>102.66666666666667</ele><time>2026-04-12T06:25:56.785Z</time></trkpt><trkpt lat="45.7381064715574" lon="11.767542485218547"><ele>103.0</ele><time>2026-04-12T06:25:57.785Z</time></trkpt><trkpt lat="45.73814530599405" lon="11.767794146596767"><ele>103.33333333333334</ele><time>2026-04-12T06:25:58.785Z</time></trkpt><trkpt lat="45.73816521851997" lon="11.768042213939559"><ele>103.66666666666666</ele><time>2026-04-12T06:25:59.785Z</time></trkpt><trkpt lat="45.738168802181455" lon="11.768283723709784"><ele>104.0</ele><time>2026-04-12T06:26:00.785Z</time></trkpt><trkpt lat="45.73818458468288" lon="11.768518498095201"><ele>103.66666666666666</ele><time>2026-04-12T06:26:01.785Z</time></trkpt><trkpt lat="45.738218312516764" lon="11.768756125044234"><ele>103.33333333333334</ele><time>2026-04-12T06:26:02.785Z</time></trkpt><trkpt lat="45.73825459899971" lon="11.768980977324661"><ele>103.0</ele><time>2026-04-12T06:26:03.785Z</time></trkpt><trkpt lat="45.73828338818569" lon="11.769204057880742"><ele>102.25</ele><time>2026-04-12T06:26:04.785Z</time></trkpt><trkpt lat="45.738317667203894" lon="11.769415630253045"><ele>101.5</ele><time>2026-04-12T06:26:05.785Z</time></trkpt><trkpt lat="45.73836440177538" lon="11.769604816074962"><ele>100.75</ele><time>2026-04-12T06:26:06.785Z</time></trkpt><trkpt lat="45.73840314114196" lon="11.769772797686379"><ele>100.0</ele><time>2026-04-12T06:26:07.785Z</time></trkpt><trkpt lat="45.73843322988791" lon="11.7698960122642"><ele>100.0</ele><time>2026-04-12T06:26:08.785Z</time></trkpt><trkpt lat="45.73844790147589" lon="11.770013251929631"><ele>100.0</ele><time>2026-04-12T06:26:09.785Z</time></trkpt><trkpt lat="45.7384760258739" lon="11.770180351039642"><ele>100.0</ele><time>2026-04-12T06:26:11.785Z</time></trkpt><trkpt lat="45.73850290243693" lon="11.770339048296458"><ele>100.0</ele><time>2026-04-12T06:26:13.785Z</time></trkpt><trkpt lat="45.73851752917565" lon="11.770429349305635"><ele>100.0</ele><time>2026-04-12T06:26:14.785Z</time></trkpt><trkpt lat="45.738533629429426" lon="11.770527594276938"><ele>100.16666666666667</ele><time>2026-04-12T06:26:15.785Z</time></trkpt><trkpt lat="45.73855469152734" lon="11.77063176707126"><ele>100.33333333333334</ele><time>2026-04-12T06:26:16.785Z</time></trkpt><trkpt lat="45.73857063105085" lon="11.770755420906461"><ele>100.5</ele><time>2026-04-12T06:26:17.785Z</time></trkpt><trkpt lat="45.738593761777594" lon="11.770881692666613"><ele>100.66666666666666</ele><time>2026-04-12T06:26:18.785Z</time></trkpt><trkpt lat="45.73862217148639" lon="11.771007617245502"><ele>100.83333333333333</ele><time>2026-04-12T06:26:19.785Z</time></trkpt><trkpt lat="45.73864404263199" lon="11.771121117714015"><ele>101.0</ele><time>2026-04-12T06:26:20.785Z</time></trkpt><trkpt lat="45.73866020924087" lon="11.771217773050704"><ele>100.99999999999999</ele><time>2026-04-12T06:26:21.785Z</time></trkpt><trkpt lat="45.73867480725079" lon="11.771309228276087"><ele>101.0</ele><time>2026-04-12T06:26:22.785Z</time></trkpt><trkpt lat="45.738684001908624" lon="11.771399145463446"><ele>101.0</ele><time>2026-04-12T06:26:23.785Z</time></trkpt><trkpt lat="45.73867616418933" lon="11.771491127613814"><ele>101.0</ele><time>2026-04-12T06:26:24.785Z</time></trkpt><trkpt lat="45.73866481464233" lon="11.771648587244021"><ele>100.99999999999999</ele><time>2026-04-12T06:26:26.785Z</time></trkpt><trkpt lat="45.738678524037134" lon="11.771752910106855"><ele>101.0</ele><time>2026-04-12T06:26:28.785Z</time></trkpt><trkpt lat="45.7387896404173" lon="11.771967331140399"><ele>101.0</ele><time>2026-04-12T06:27:10.785Z</time></trkpt><trkpt lat="45.73883064038149" lon="11.772107800367593"><ele>101.0</ele><time>2026-04-12T06:27:11.785Z</time></trkpt><trkpt lat="45.73884470238179" lon="11.772325808084958"><ele>101.0</ele><time>2026-04-12T06:27:12.785Z</time></trkpt><trkpt lat="45.73889090643676" lon="11.7725763377263"><ele>101.0</ele><time>2026-04-12T06:27:13.785Z</time></trkpt><trkpt lat="45.7389567216371" lon="11.77279675844893"><ele>101.0</ele><time>2026-04-12T06:27:14.785Z</time></trkpt><trkpt lat="45.73895705364157" lon="11.77297825337983"><ele>101.0</ele><time>2026-04-12T06:27:15.785Z</time></trkpt><trkpt lat="45.738962718167116" lon="11.773129803006718"><ele>101.0</ele><time>2026-04-12T06:27:16.785Z</time></trkpt><trkpt lat="45.73896447520921" lon="11.773276327261797"><ele>101.0</ele><time>2026-04-12T06:27:17.785Z</time></trkpt><trkpt lat="45.7389591653674" lon="11.773433266224137"><ele>101.0</ele><time>2026-04-12T06:27:18.785Z</time></trkpt><trkpt lat="45.73895029600072" lon="11.773577804098533"><ele>101.0</ele><time>2026-04-12T06:27:19.785Z</time></trkpt><trkpt lat="45.73894689967144" lon="11.77371227655668"><ele>101.0</ele><time>2026-04-12T06:27:20.785Z</time></trkpt><trkpt lat="45.738937931012934" lon="11.77388153327268"><ele>101.0</ele><time>2026-04-12T06:27:21.786Z</time></trkpt><trkpt lat="45.73893540466221" lon="11.774059956339912"><ele>101.0</ele><time>2026-04-12T06:27:22.786Z</time></trkpt><trkpt lat="45.738956175651744" lon="11.774234578100158"><ele>100.75</ele><time>2026-04-12T06:27:23.786Z</time></trkpt><trkpt lat="45.739006064048816" lon="11.774377923066691"><ele>100.5</ele><time>2026-04-12T06:27:24.786Z</time></trkpt><trkpt lat="45.73909391536961" lon="11.77450471505298"><ele>100.25</ele><time>2026-04-12T06:27:25.786Z</time></trkpt><trkpt lat="45.739206466264754" lon="11.77459643068907"><ele>100.0</ele><time>2026-04-12T06:27:26.786Z</time></trkpt><trkpt lat="45.73934330699037" lon="11.774614635704689"><ele>100.4</ele><time>2026-04-12T06:27:27.786Z</time></trkpt><trkpt lat="45.73946292578505" lon="11.774586694466308"><ele>100.8</ele><time>2026-04-12T06:27:28.786Z</time></trkpt><trkpt lat="45.73955972544133" lon="11.77453057052213"><ele>101.19999999999999</ele><time>2026-04-12T06:27:29.786Z</time></trkpt><trkpt lat="45.73964406715915" lon="11.774431873786831"><ele>101.6</ele><time>2026-04-12T06:27:30.786Z</time></trkpt><trkpt lat="45.73970652832598" lon="11.774306091218474"><ele>102.0</ele><time>2026-04-12T06:27:31.786Z</time></trkpt><trkpt lat="45.73976068773612" lon="11.774171015745292"><ele>102.19999999999999</ele><time>2026-04-12T06:27:32.786Z</time></trkpt><trkpt lat="45.739817966685614" lon="11.774054402021765"><ele>102.4</ele><time>2026-04-12T06:27:33.786Z</time></trkpt><trkpt lat="45.73990153416602" lon="11.77397712502647"><ele>102.6</ele><time>2026-04-12T06:27:34.786Z</time></trkpt><trkpt lat="45.73999972236944" lon="11.77394489014185"><ele>102.80000000000001</ele><time>2026-04-12T06:27:35.786Z</time></trkpt><trkpt lat="45.74009081376818" lon="11.773923586480748"><ele>103.0</ele><time>2026-04-12T06:27:36.786Z</time></trkpt><trkpt lat="45.74019599911187" lon="11.773928439733107"><ele>102.5</ele><time>2026-04-12T06:27:37.786Z</time></trkpt><trkpt lat="45.74030381521468" lon="11.773965873520817"><ele>102.0</ele><time>2026-04-12T06:27:38.786Z</time></trkpt><trkpt lat="45.74040703803377" lon="11.774057543507926"><ele>101.5</ele><time>2026-04-12T06:27:39.786Z</time></trkpt><trkpt lat="45.74048712437738" lon="11.774185878103342"><ele>101.0</ele><time>2026-04-12T06:27:40.786Z</time></trkpt><trkpt lat="45.740558459853474" lon="11.774322167294148"><ele>101.5</ele><time>2026-04-12T06:27:41.786Z</time></trkpt><trkpt lat="45.74064373093613" lon="11.77445201283217"><ele>102.0</ele><time>2026-04-12T06:27:42.786Z</time></trkpt><trkpt lat="45.7407244481962" lon="11.774578072538104"><ele>102.5</ele><time>2026-04-12T06:27:43.786Z</time></trkpt><trkpt lat="45.74080873093099" lon="11.774700371259458"><ele>103.0</ele><time>2026-04-12T06:27:44.786Z</time></trkpt><trkpt lat="45.74088544428719" lon="11.774836868746958"><ele>103.0</ele><time>2026-04-12T06:27:45.786Z</time></trkpt><trkpt lat="45.740978420424064" lon="11.774922550400989"><ele>103.0</ele><time>2026-04-12T06:27:46.786Z</time></trkpt><trkpt lat="45.74106816454252" lon="11.774973914072909"><ele>103.0</ele><time>2026-04-12T06:27:47.786Z</time></trkpt><trkpt lat="45.74115282572193" lon="11.775032433755944"><ele>103.0</ele><time>2026-04-12T06:27:48.786Z</time></trkpt><trkpt lat="45.74122544277891" lon="11.775119520561907"><ele>103.0</ele><time>2026-04-12T06:27:49.786Z</time></trkpt><trkpt lat="45.741266681528025" lon="11.775240876581485"><ele>103.00000000000001</ele><time>2026-04-12T06:27:50.786Z</time></trkpt><trkpt lat="45.741318031511064" lon="11.775328654997324"><ele>103.0</ele><time>2026-04-12T06:27:51.786Z</time></trkpt><trkpt lat="45.74138451983122" lon="11.775390613037695"><ele>103.0</ele><time>2026-04-12T06:27:52.786Z</time></trkpt><trkpt lat="45.741456798303716" lon="11.775422821447574"><ele>103.0</ele><time>2026-04-12T06:27:53.786Z</time></trkpt><trkpt lat="45.74154009689075" lon="11.775434847416808"><ele>103.00000000000001</ele><time>2026-04-12T06:27:54.786Z</time></trkpt><trkpt lat="45.74161117201957" lon="11.775409608013018"><ele>103.0</ele><time>2026-04-12T06:27:55.786Z</time></trkpt><trkpt lat="45.74169900436041" lon="11.775576670832244"><ele>103.0</ele><time>2026-04-12T06:27:56.786Z</time></trkpt><trkpt lat="45.74178177041542" lon="11.775684782955354"><ele>103.0</ele><time>2026-04-12T06:27:57.786Z</time></trkpt><trkpt lat="45.74188985491158" lon="11.775749991954449"><ele>103.0</ele><time>2026-04-12T06:27:58.786Z</time></trkpt><trkpt lat="45.74200618375745" lon="11.77582697210663"><ele>103.0</ele><time>2026-04-12T06:27:59.786Z</time></trkpt><trkpt lat="45.74214174663566" lon="11.775895670854444"><ele>102.66666666666667</ele><time>2026-04-12T06:28:00.786Z</time></trkpt><trkpt lat="45.742305356808295" lon="11.775958553057588"><ele>102.33333333333334</ele><time>2026-04-12T06:28:01.786Z</time></trkpt><trkpt lat="45.74248575108476" lon="11.775997124867892"><ele>102.0</ele><time>2026-04-12T06:28:02.786Z</time></trkpt><trkpt lat="45.74265125863011" lon="11.776013286583153"><ele>102.66666666666666</ele><time>2026-04-12T06:28:03.786Z</time></trkpt><trkpt lat="45.742811079890096" lon="11.776024428251556"><ele>103.33333333333333</ele><time>2026-04-12T06:28:04.786Z</time></trkpt><trkpt lat="45.74298079078349" lon="11.776037975775253"><ele>104.0</ele><time>2026-04-12T06:28:05.786Z</time></trkpt><trkpt lat="45.7431516820897" lon="11.776058198932668"><ele>104.0</ele><time>2026-04-12T06:28:06.786Z</time></trkpt><trkpt lat="45.743328616347725" lon="11.776074133879039"><ele>104.0</ele><time>2026-04-12T06:28:07.786Z</time></trkpt><trkpt lat="45.74351276559909" lon="11.776165563110796"><ele>104.0</ele><time>2026-04-12T06:28:08.786Z</time></trkpt><trkpt lat="45.74369688838349" lon="11.776199803779734"><ele>103.66666666666666</ele><time>2026-04-12T06:28:09.786Z</time></trkpt><trkpt lat="45.74388567628304" lon="11.776214057400583"><ele>103.33333333333334</ele><time>2026-04-12T06:28:10.786Z</time></trkpt><trkpt lat="45.74411038206434" lon="11.776278676251895"><ele>103.0</ele><time>2026-04-12T06:28:11.786Z</time></trkpt><trkpt lat="45.744339123462936" lon="11.776282972212817"><ele>103.0</ele><time>2026-04-12T06:28:12.786Z</time></trkpt><trkpt lat="45.744558700129566" lon="11.776293544085481"><ele>103.0</ele><time>2026-04-12T06:28:13.786Z</time></trkpt><trkpt lat="45.7447577926689" lon="11.776313161011476"><ele>103.0</ele><time>2026-04-12T06:28:14.786Z</time></trkpt><trkpt lat="45.74495015330856" lon="11.776320770961895"><ele>103.0</ele><time>2026-04-12T06:28:15.786Z</time></trkpt><trkpt lat="45.745139743214814" lon="11.77631993789916"><ele>103.0</ele><time>2026-04-12T06:28:16.786Z</time></trkpt><trkpt lat="45.745320247547305" lon="11.776327592670622"><ele>103.0</ele><time>2026-04-12T06:28:17.786Z</time></trkpt><trkpt lat="45.74550008016944" lon="11.776324749095993"><ele>103.0</ele><time>2026-04-12T06:28:18.786Z</time></trkpt><trkpt lat="45.745679977327306" lon="11.77630738441977"><ele>103.0</ele><time>2026-04-12T06:28:19.786Z</time></trkpt><trkpt lat="45.74587725286569" lon="11.77630520797667"><ele>103.0</ele><time>2026-04-12T06:28:20.786Z</time></trkpt><trkpt lat="45.74607853099259" lon="11.776303727971024"><ele>103.0</ele><time>2026-04-12T06:28:21.786Z</time></trkpt><trkpt lat="45.7462962756267" lon="11.776298534252929"><ele>103.0</ele><time>2026-04-12T06:28:22.786Z</time></trkpt><trkpt lat="45.746524719057845" lon="11.776292478535266"><ele>103.0</ele><time>2026-04-12T06:28:23.786Z</time></trkpt><trkpt lat="45.7467481305653" lon="11.77628527227044"><ele>104.0</ele><time>2026-04-12T06:28:24.786Z</time></trkpt><trkpt lat="45.746959664376746" lon="11.776281178017499"><ele>105.0</ele><time>2026-04-12T06:28:25.786Z</time></trkpt><trkpt lat="45.74718455259726" lon="11.776277353291952"><ele>106.0</ele><time>2026-04-12T06:28:26.786Z</time></trkpt><trkpt lat="45.747425909403574" lon="11.77626220558249"><ele>106.0</ele><time>2026-04-12T06:28:27.786Z</time></trkpt><trkpt lat="45.74768464698633" lon="11.776248845500948"><ele>106.0</ele><time>2026-04-12T06:28:28.786Z</time></trkpt><trkpt lat="45.74794247112061" lon="11.776244864847957"><ele>105.5</ele><time>2026-04-12T06:28:29.786Z</time></trkpt><trkpt lat="45.748182673259336" lon="11.776240846406633"><ele>105.0</ele><time>2026-04-12T06:28:30.786Z</time></trkpt><trkpt lat="45.748410375328874" lon="11.776245008496277"><ele>105.0</ele><time>2026-04-12T06:28:31.786Z</time></trkpt><trkpt lat="45.74863232826492" lon="11.776249738578885"><ele>105.0</ele><time>2026-04-12T06:28:32.786Z</time></trkpt><trkpt lat="45.748860456517434" lon="11.776257444936853"><ele>105.0</ele><time>2026-04-12T06:28:33.786Z</time></trkpt><trkpt lat="45.749085648771626" lon="11.776257645800568"><ele>105.0</ele><time>2026-04-12T06:28:34.786Z</time></trkpt><trkpt lat="45.74932304092957" lon="11.776253482441204"><ele>105.5</ele><time>2026-04-12T06:28:35.786Z</time></trkpt><trkpt lat="45.74955854885269" lon="11.776248981890376"><ele>106.0</ele><time>2026-04-12T06:28:36.786Z</time></trkpt><trkpt lat="45.74978615629487" lon="11.77624344743773"><ele>106.0</ele><time>2026-04-12T06:28:37.786Z</time></trkpt><trkpt lat="45.75001410008377" lon="11.776242741211085"><ele>106.0</ele><time>2026-04-12T06:28:38.786Z</time></trkpt><trkpt lat="45.75023928737646" lon="11.776236023721985"><ele>106.0</ele><time>2026-04-12T06:28:39.786Z</time></trkpt><trkpt lat="45.75046242555913" lon="11.77622552243792"><ele>106.0</ele><time>2026-04-12T06:28:40.786Z</time></trkpt><trkpt lat="45.75068397985302" lon="11.776210899016034"><ele>106.0</ele><time>2026-04-12T06:28:41.786Z</time></trkpt><trkpt lat="45.75091267496096" lon="11.776199983206906"><ele>106.5</ele><time>2026-04-12T06:28:42.786Z</time></trkpt><trkpt lat="45.75114783190745" lon="11.776187220868419"><ele>107.0</ele><time>2026-04-12T06:28:43.786Z</time></trkpt><trkpt lat="45.751391674132" lon="11.776172240993045"><ele>107.0</ele><time>2026-04-12T06:28:44.786Z</time></trkpt><trkpt lat="45.75163887663328" lon="11.776150722625426"><ele>107.0</ele><time>2026-04-12T06:28:45.786Z</time></trkpt><trkpt lat="45.751889760552395" lon="11.77611399189728"><ele>107.5</ele><time>2026-04-12T06:28:46.786Z</time></trkpt><trkpt lat="45.75215135969705" lon="11.776060786401251"><ele>108.0</ele><time>2026-04-12T06:28:47.786Z</time></trkpt><trkpt lat="45.75240822680763" lon="11.776039901948103"><ele>108.0</ele><time>2026-04-12T06:28:48.786Z</time></trkpt><trkpt lat="45.752661087137895" lon="11.775947782719157"><ele>108.0</ele><time>2026-04-12T06:28:49.786Z</time></trkpt><trkpt lat="45.75291211650915" lon="11.775885841919044"><ele>108.0</ele><time>2026-04-12T06:28:50.786Z</time></trkpt><trkpt lat="45.753152918671205" lon="11.775824054369252"><ele>108.0</ele><time>2026-04-12T06:28:51.786Z</time></trkpt><trkpt lat="45.75338382041109" lon="11.775761791755876"><ele>108.5</ele><time>2026-04-12T06:28:52.786Z</time></trkpt><trkpt lat="45.75360880890677" lon="11.775693101901545"><ele>109.0</ele><time>2026-04-12T06:28:53.786Z</time></trkpt><trkpt lat="45.75383119354749" lon="11.775619121290326"><ele>109.0</ele><time>2026-04-12T06:28:54.786Z</time></trkpt><trkpt lat="45.75405260571029" lon="11.775544925846766"><ele>109.0</ele><time>2026-04-12T06:28:55.786Z</time></trkpt><trkpt lat="45.75427065429513" lon="11.775458646419361"><ele>109.0</ele><time>2026-04-12T06:28:56.786Z</time></trkpt><trkpt lat="45.754483797565705" lon="11.775370224524309"><ele>109.0</ele><time>2026-04-12T06:28:57.786Z</time></trkpt><trkpt lat="45.75469734987877" lon="11.775281525900184"><ele>109.0</ele><time>2026-04-12T06:28:58.786Z</time></trkpt><trkpt lat="45.75490695634161" lon="11.775195705253957"><ele>108.33333333333334</ele><time>2026-04-12T06:28:59.786Z</time></trkpt><trkpt lat="45.75511793524034" lon="11.775104670682483"><ele>107.66666666666666</ele><time>2026-04-12T06:29:00.786Z</time></trkpt><trkpt lat="45.75532758728003" lon="11.775009700140576"><ele>107.0</ele><time>2026-04-12T06:29:01.786Z</time></trkpt><trkpt lat="45.75554088726702" lon="11.774912954817795"><ele>108.33333333333333</ele><time>2026-04-12T06:29:02.786Z</time></trkpt><trkpt lat="45.7557551924585" lon="11.774818834041877"><ele>109.66666666666666</ele><time>2026-04-12T06:29:03.786Z</time></trkpt><trkpt lat="45.755970207433364" lon="11.774726191315263"><ele>111.0</ele><time>2026-04-12T06:29:04.786Z</time></trkpt><trkpt lat="45.75618692065994" lon="11.774634481556827"><ele>111.0</ele><time>2026-04-12T06:29:05.786Z</time></trkpt><trkpt lat="45.756397829655015" lon="11.774540188586839"><ele>111.0</ele><time>2026-04-12T06:29:06.786Z</time></trkpt><trkpt lat="45.75660874701952" lon="11.774440157052478"><ele>111.0</ele><time>2026-04-12T06:29:07.786Z</time></trkpt><trkpt lat="45.75681721393177" lon="11.774342209506099"><ele>111.0</ele><time>2026-04-12T06:29:08.786Z</time></trkpt><trkpt lat="45.7570281557461" lon="11.774246129434404"><ele>111.0</ele><time>2026-04-12T06:29:09.786Z</time></trkpt><trkpt lat="45.75724267172019" lon="11.774144458096782"><ele>111.0</ele><time>2026-04-12T06:29:10.786Z</time></trkpt><trkpt lat="45.75745152159135" lon="11.77403539752783"><ele>111.0</ele><time>2026-04-12T06:29:11.786Z</time></trkpt><trkpt lat="45.757655048246946" lon="11.773926511204017"><ele>111.0</ele><time>2026-04-12T06:29:12.786Z</time></trkpt><trkpt lat="45.75785328329727" lon="11.773819455206878"><ele>111.0</ele><time>2026-04-12T06:29:13.786Z</time></trkpt><trkpt lat="45.758047450949356" lon="11.773711627510485"><ele>111.0</ele><time>2026-04-12T06:29:14.786Z</time></trkpt><trkpt lat="45.75824170738181" lon="11.773597374847892"><ele>111.0</ele><time>2026-04-12T06:29:15.786Z</time></trkpt><trkpt lat="45.758440770965066" lon="11.773479452648246"><ele>111.0</ele><time>2026-04-12T06:29:16.786Z</time></trkpt><trkpt lat="45.75864218808974" lon="11.773364586855902"><ele>110.66666666666666</ele><time>2026-04-12T06:29:17.786Z</time></trkpt><trkpt lat="45.75882800737122" lon="11.773254532531254"><ele>110.33333333333333</ele><time>2026-04-12T06:29:18.786Z</time></trkpt><trkpt lat="45.75901177893095" lon="11.773129978797455"><ele>110.0</ele><time>2026-04-12T06:29:19.786Z</time></trkpt><trkpt lat="45.75920095925717" lon="11.773005637397151"><ele>111.33333333333333</ele><time>2026-04-12T06:29:20.786Z</time></trkpt><trkpt lat="45.7594018354495" lon="11.772872588524969"><ele>112.66666666666666</ele><time>2026-04-12T06:29:21.786Z</time></trkpt><trkpt lat="45.759606525563676" lon="11.772728952288467"><ele>114.0</ele><time>2026-04-12T06:29:22.786Z</time></trkpt><trkpt lat="45.75982290805683" lon="11.772576849825638"><ele>114.0</ele><time>2026-04-12T06:29:23.786Z</time></trkpt><trkpt lat="45.76004376190631" lon="11.77241875665597"><ele>114.0</ele><time>2026-04-12T06:29:24.786Z</time></trkpt><trkpt lat="45.760259710029466" lon="11.772252214193205"><ele>113.66666666666666</ele><time>2026-04-12T06:29:25.786Z</time></trkpt><trkpt lat="45.76045485452095" lon="11.772094304851297"><ele>113.33333333333333</ele><time>2026-04-12T06:29:26.786Z</time></trkpt><trkpt lat="45.76063860522548" lon="11.771950196087461"><ele>113.0</ele><time>2026-04-12T06:29:27.787Z</time></trkpt><trkpt lat="45.760807864575234" lon="11.77181869116932"><ele>113.66666666666666</ele><time>2026-04-12T06:29:28.787Z</time></trkpt><trkpt lat="45.76097481047097" lon="11.77168726657764"><ele>114.33333333333334</ele><time>2026-04-12T06:29:29.787Z</time></trkpt><trkpt lat="45.76113063225673" lon="11.771563570463076"><ele>115.0</ele><time>2026-04-12T06:29:30.787Z</time></trkpt><trkpt lat="45.761284421661706" lon="11.771451424290785"><ele>115.0</ele><time>2026-04-12T06:29:31.787Z</time></trkpt><trkpt lat="45.76142908379041" lon="11.771342129785932"><ele>115.0</ele><time>2026-04-12T06:29:32.787Z</time></trkpt><trkpt lat="45.76156839647193" lon="11.771231723186492"><ele>115.0</ele><time>2026-04-12T06:29:33.787Z</time></trkpt><trkpt lat="45.76170210396468" lon="11.77112288199604"><ele>114.75</ele><time>2026-04-12T06:29:34.787Z</time></trkpt><trkpt lat="45.76182903257481" lon="11.77101656732526"><ele>114.5</ele><time>2026-04-12T06:29:35.787Z</time></trkpt><trkpt lat="45.76195231851461" lon="11.77092419689536"><ele>114.25</ele><time>2026-04-12T06:29:36.787Z</time></trkpt><trkpt lat="45.76205908054874" lon="11.770840102851485"><ele>114.0</ele><time>2026-04-12T06:29:37.787Z</time></trkpt><trkpt lat="45.76215126017106" lon="11.770770072369404"><ele>114.0</ele><time>2026-04-12T06:29:38.787Z</time></trkpt><trkpt lat="45.762258200364634" lon="11.770736129718227"><ele>114.0</ele><time>2026-04-12T06:29:39.787Z</time></trkpt><trkpt lat="45.762355466822534" lon="11.770745226800331"><ele>114.0</ele><time>2026-04-12T06:29:40.787Z</time></trkpt><trkpt lat="45.762456384043915" lon="11.770792842130263"><ele>114.0</ele><time>2026-04-12T06:29:41.787Z</time></trkpt><trkpt lat="45.76254472445709" lon="11.77088190658257"><ele>114.0</ele><time>2026-04-12T06:29:42.787Z</time></trkpt><trkpt lat="45.76260786566531" lon="11.771008189596"><ele>114.5</ele><time>2026-04-12T06:29:43.787Z</time></trkpt><trkpt lat="45.76264292432705" lon="11.771167797170227"><ele>115.0</ele><time>2026-04-12T06:29:44.787Z</time></trkpt><trkpt lat="45.762670616984224" lon="11.771329529525623"><ele>115.5</ele><time>2026-04-12T06:29:45.787Z</time></trkpt><trkpt lat="45.76268769860255" lon="11.771490197650675"><ele>116.0</ele><time>2026-04-12T06:29:46.787Z</time></trkpt><trkpt lat="45.762712183237134" lon="11.771637503769115"><ele>116.19999999999999</ele><time>2026-04-12T06:29:47.787Z</time></trkpt><trkpt lat="45.76274902466075" lon="11.771789689408322"><ele>116.39999999999999</ele><time>2026-04-12T06:29:48.787Z</time></trkpt><trkpt lat="45.762786785256736" lon="11.771935460051951"><ele>116.6</ele><time>2026-04-12T06:29:49.787Z</time></trkpt><trkpt lat="45.76282339732382" lon="11.772075678145082"><ele>116.8</ele><time>2026-04-12T06:29:50.787Z</time></trkpt><trkpt lat="45.7628574990109" lon="11.772208935871431"><ele>117.0</ele><time>2026-04-12T06:29:51.787Z</time></trkpt><trkpt lat="45.762882633738194" lon="11.77233172690544"><ele>116.39999999999999</ele><time>2026-04-12T06:29:52.787Z</time></trkpt><trkpt lat="45.76290746384338" lon="11.772449290225424"><ele>115.79999999999998</ele><time>2026-04-12T06:29:53.787Z</time></trkpt><trkpt lat="45.762918163692326" lon="11.77258096278485"><ele>115.2</ele><time>2026-04-12T06:29:54.787Z</time></trkpt><trkpt lat="45.76289943365826" lon="11.772737436992243"><ele>114.6</ele><time>2026-04-12T06:29:55.787Z</time></trkpt><trkpt lat="45.7628449562623" lon="11.772892337905907"><ele>114.0</ele><time>2026-04-12T06:29:56.787Z</time></trkpt><trkpt lat="45.76277449159054" lon="11.773007438233133"><ele>114.5</ele><time>2026-04-12T06:29:57.787Z</time></trkpt><trkpt lat="45.7626967030722" lon="11.773074187060645"><ele>115.0</ele><time>2026-04-12T06:29:58.787Z</time></trkpt><trkpt lat="45.76262407179562" lon="11.77312364209124"><ele>115.5</ele><time>2026-04-12T06:29:59.787Z</time></trkpt><trkpt lat="45.76256521708297" lon="11.773192083027137"><ele>116.0</ele><time>2026-04-12T06:30:00.787Z</time></trkpt><trkpt lat="45.762488045575495" lon="11.773193618389213"><ele>116.5</ele><time>2026-04-12T06:30:01.787Z</time></trkpt><trkpt lat="45.76242765772226" lon="11.773221156728974"><ele>117.0</ele><time>2026-04-12T06:30:02.787Z</time></trkpt><trkpt lat="45.76233851915067" lon="11.77332899779492"><ele>117.0</ele><time>2026-04-12T06:30:04.787Z</time></trkpt><trkpt lat="45.762324857683076" lon="11.77343378995159"><ele>117.0</ele><time>2026-04-12T06:30:05.787Z</time></trkpt><trkpt lat="45.762339625728636" lon="11.77356706991195"><ele>117.0</ele><time>2026-04-12T06:30:06.787Z</time></trkpt><trkpt lat="45.762369368761284" lon="11.773702825854496"><ele>117.0</ele><time>2026-04-12T06:30:07.787Z</time></trkpt><trkpt lat="45.762387432023374" lon="11.773825477450687"><ele>117.0</ele><time>2026-04-12T06:30:08.787Z</time></trkpt><trkpt lat="45.76239711222395" lon="11.773945360176416"><ele>117.0</ele><time>2026-04-12T06:30:09.787Z</time></trkpt><trkpt lat="45.76240858272294" lon="11.774075382875376"><ele>116.8</ele><time>2026-04-12T06:30:10.787Z</time></trkpt><trkpt lat="45.7624269127012" lon="11.774206531600873"><ele>116.6</ele><time>2026-04-12T06:30:11.787Z</time></trkpt><trkpt lat="45.76244679302723" lon="11.774340431862926"><ele>116.39999999999999</ele><time>2026-04-12T06:30:12.787Z</time></trkpt><trkpt lat="45.76245722831361" lon="11.774473532310378"><ele>116.19999999999999</ele><time>2026-04-12T06:30:13.787Z</time></trkpt><trkpt lat="45.76246814870745" lon="11.774606032297406"><ele>116.0</ele><time>2026-04-12T06:30:14.787Z</time></trkpt><trkpt lat="45.762476284026526" lon="11.774726202608948"><ele>115.83333333333333</ele><time>2026-04-12T06:30:15.787Z</time></trkpt><trkpt lat="45.76247005748938" lon="11.774819477071654"><ele>115.66666666666666</ele><time>2026-04-12T06:30:16.787Z</time></trkpt><trkpt lat="45.762497426539575" lon="11.774937885437952"><ele>115.5</ele><time>2026-04-12T06:30:18.787Z</time></trkpt><trkpt lat="45.762443496168544" lon="11.775034008713861"><ele>115.33333333333334</ele><time>2026-04-12T06:30:19.787Z</time></trkpt><trkpt lat="45.7624849550229" lon="11.775192123412532"><ele>115.16666666666667</ele><time>2026-04-12T06:30:21.787Z</time></trkpt><trkpt lat="45.76255216674303" lon="11.775226511371136"><ele>115.0</ele><time>2026-04-12T06:30:22.787Z</time></trkpt><trkpt lat="45.762627793152646" lon="11.775196722347577"><ele>114.8</ele><time>2026-04-12T06:30:23.787Z</time></trkpt><trkpt lat="45.76270410221364" lon="11.77511810347581"><ele>114.6</ele><time>2026-04-12T06:30:24.787Z</time></trkpt><trkpt lat="45.76279278999741" lon="11.77503611966525"><ele>114.4</ele><time>2026-04-12T06:30:25.787Z</time></trkpt><trkpt lat="45.762895767388436" lon="11.775003059028997"><ele>114.2</ele><time>2026-04-12T06:30:26.787Z</time></trkpt><trkpt lat="45.762986870762" lon="11.77497887948735"><ele>114.0</ele><time>2026-04-12T06:30:27.787Z</time></trkpt><trkpt lat="45.763084232989364" lon="11.77495701083439"><ele>114.0</ele><time>2026-04-12T06:30:28.787Z</time></trkpt><trkpt lat="45.76319524852559" lon="11.77493164499066"><ele>114.0</ele><time>2026-04-12T06:30:29.787Z</time></trkpt><trkpt lat="45.7633194421129" lon="11.774884569923136"><ele>114.0</ele><time>2026-04-12T06:30:30.787Z</time></trkpt><trkpt lat="45.7634521792372" lon="11.774833634645317"><ele>114.0</ele><time>2026-04-12T06:30:31.787Z</time></trkpt><trkpt lat="45.763602599126145" lon="11.774790048552786"><ele>115.0</ele><time>2026-04-12T06:30:32.787Z</time></trkpt><trkpt lat="45.763767489268396" lon="11.77473631651177"><ele>116.0</ele><time>2026-04-12T06:30:33.787Z</time></trkpt><trkpt lat="45.76393727738264" lon="11.774681049807235"><ele>117.0</ele><time>2026-04-12T06:30:34.787Z</time></trkpt><trkpt lat="45.764088127699324" lon="11.774633368700774"><ele>117.0</ele><time>2026-04-12T06:30:35.787Z</time></trkpt><trkpt lat="45.764238153386906" lon="11.774591536567804"><ele>117.0</ele><time>2026-04-12T06:30:36.787Z</time></trkpt><trkpt lat="45.76439150410523" lon="11.774548197653324"><ele>117.0</ele><time>2026-04-12T06:30:37.787Z</time></trkpt><trkpt lat="45.76455181645697" lon="11.774501709465138"><ele>117.0</ele><time>2026-04-12T06:30:38.787Z</time></trkpt><trkpt lat="45.764716147995856" lon="11.774454988393911"><ele>117.0</ele><time>2026-04-12T06:30:39.787Z</time></trkpt><trkpt lat="45.764860153590206" lon="11.774389068452306"><ele>117.0</ele><time>2026-04-12T06:30:40.787Z</time></trkpt><trkpt lat="45.76500842840489" lon="11.774335424061379"><ele>117.0</ele><time>2026-04-12T06:30:41.787Z</time></trkpt><trkpt lat="45.765167047996975" lon="11.774295185922938"><ele>117.0</ele><time>2026-04-12T06:30:42.787Z</time></trkpt><trkpt lat="45.76532748307332" lon="11.774274433028065"><ele>117.0</ele><time>2026-04-12T06:30:43.787Z</time></trkpt><trkpt lat="45.7654827503633" lon="11.77428332130773"><ele>117.25</ele><time>2026-04-12T06:30:44.787Z</time></trkpt><trkpt lat="45.76562411453131" lon="11.774335387187381"><ele>117.5</ele><time>2026-04-12T06:30:45.787Z</time></trkpt><trkpt lat="45.76575081662086" lon="11.774400632151854"><ele>117.75</ele><time>2026-04-12T06:30:46.787Z</time></trkpt><trkpt lat="45.76586020574677" lon="11.774485984104153"><ele>118.0</ele><time>2026-04-12T06:30:47.787Z</time></trkpt><trkpt lat="45.76596744333142" lon="11.774554065583443"><ele>118.80000000000001</ele><time>2026-04-12T06:30:48.787Z</time></trkpt><trkpt lat="45.76606451267373" lon="11.774617342613256"><ele>119.60000000000001</ele><time>2026-04-12T06:30:49.787Z</time></trkpt><trkpt lat="45.76615666962833" lon="11.774677128197284"><ele>120.39999999999999</ele><time>2026-04-12T06:30:50.787Z</time></trkpt><trkpt lat="45.76624201994457" lon="11.774732881473566"><ele>121.19999999999999</ele><time>2026-04-12T06:30:51.787Z</time></trkpt><trkpt lat="45.76632363345093" lon="11.774790498296362"><ele>122.0</ele><time>2026-04-12T06:30:52.787Z</time></trkpt><trkpt lat="45.76640882540536" lon="11.77486856692704"><ele>122.0</ele><time>2026-04-12T06:30:53.787Z</time></trkpt><trkpt lat="45.766489426609844" lon="11.774968663847279"><ele>121.99999999999999</ele><time>2026-04-12T06:30:54.787Z</time></trkpt><trkpt lat="45.76654788727616" lon="11.775101050318924"><ele>121.99999999999999</ele><time>2026-04-12T06:30:55.787Z</time></trkpt><trkpt lat="45.76659280349332" lon="11.775241912861803"><ele>122.0</ele><time>2026-04-12T06:30:56.787Z</time></trkpt><trkpt lat="45.76663616040538" lon="11.775356374240712"><ele>122.0</ele><time>2026-04-12T06:30:57.787Z</time></trkpt><trkpt lat="45.76666496918772" lon="11.775477018838682"><ele>121.83333333333333</ele><time>2026-04-12T06:30:58.787Z</time></trkpt><trkpt lat="45.76669873521039" lon="11.775609915664269"><ele>121.66666666666666</ele><time>2026-04-12T06:30:59.787Z</time></trkpt><trkpt lat="45.76673711189985" lon="11.775710680033985"><ele>121.5</ele><time>2026-04-12T06:31:00.787Z</time></trkpt><trkpt lat="45.76679488961767" lon="11.775790520733784"><ele>121.33333333333334</ele><time>2026-04-12T06:31:01.787Z</time></trkpt><trkpt lat="45.76686278632584" lon="11.775816620643862"><ele>121.16666666666667</ele><time>2026-04-12T06:31:02.787Z</time></trkpt><trkpt lat="45.76693441736899" lon="11.775795224420817"><ele>121.0</ele><time>2026-04-12T06:31:03.787Z</time></trkpt><trkpt lat="45.76701950604588" lon="11.775730287953886"><ele>121.0</ele><time>2026-04-12T06:31:04.787Z</time></trkpt><trkpt lat="45.76711426330457" lon="11.775652359362272"><ele>121.0</ele><time>2026-04-12T06:31:05.787Z</time></trkpt><trkpt lat="45.76721669541349" lon="11.775578316658182"><ele>121.0</ele><time>2026-04-12T06:31:06.787Z</time></trkpt><trkpt lat="45.76732960825406" lon="11.77548744080812"><ele>121.0</ele><time>2026-04-12T06:31:07.787Z</time></trkpt><trkpt lat="45.76745025138852" lon="11.775392866493934"><ele>121.0</ele><time>2026-04-12T06:31:08.787Z</time></trkpt><trkpt lat="45.76756123289743" lon="11.775303347382978"><ele>121.0</ele><time>2026-04-12T06:31:09.787Z</time></trkpt><trkpt lat="45.767656256658896" lon="11.77522358280365"><ele>121.0</ele><time>2026-04-12T06:31:10.787Z</time></trkpt><trkpt lat="45.76775119430652" lon="11.775157947415462"><ele>121.0</ele><time>2026-04-12T06:31:11.787Z</time></trkpt><trkpt lat="45.76782535686607" lon="11.775097646795464"><ele>121.0</ele><time>2026-04-12T06:31:12.787Z</time></trkpt><trkpt lat="45.76790361230253" lon="11.775052892931138"><ele>121.0</ele><time>2026-04-12T06:31:13.787Z</time></trkpt><trkpt lat="45.76798775522306" lon="11.774992213672002"><ele>121.0</ele><time>2026-04-12T06:31:14.787Z</time></trkpt><trkpt lat="45.768076550646114" lon="11.774948748387706"><ele>121.0</ele><time>2026-04-12T06:31:15.787Z</time></trkpt><trkpt lat="45.7681832804561" lon="11.7749183177014"><ele>121.0</ele><time>2026-04-12T06:31:16.787Z</time></trkpt><trkpt lat="45.76829698138687" lon="11.774889044955579"><ele>121.0</ele><time>2026-04-12T06:31:17.787Z</time></trkpt><trkpt lat="45.76839910500404" lon="11.774871921190169"><ele>121.0</ele><time>2026-04-12T06:31:18.787Z</time></trkpt><trkpt lat="45.76849140491662" lon="11.774847910465768"><ele>121.0</ele><time>2026-04-12T06:31:19.787Z</time></trkpt><trkpt lat="45.768579587059" lon="11.774824781824645"><ele>121.0</ele><time>2026-04-12T06:31:20.787Z</time></trkpt><trkpt lat="45.76866242619005" lon="11.7748092751053"><ele>121.0</ele><time>2026-04-12T06:31:21.787Z</time></trkpt><trkpt lat="45.76876052409524" lon="11.774795778421627"><ele>121.0</ele><time>2026-04-12T06:31:22.787Z</time></trkpt><trkpt lat="45.768862657462556" lon="11.774774777441463"><ele>120.75</ele><time>2026-04-12T06:31:23.787Z</time></trkpt><trkpt lat="45.76897941594852" lon="11.774751824671258"><ele>120.5</ele><time>2026-04-12T06:31:24.787Z</time></trkpt><trkpt lat="45.769092803603634" lon="11.77472757722081"><ele>120.25</ele><time>2026-04-12T06:31:25.787Z</time></trkpt><trkpt lat="45.7691999069601" lon="11.774697058185486"><ele>120.0</ele><time>2026-04-12T06:31:26.787Z</time></trkpt><trkpt lat="45.76931845879345" lon="11.774660867702032"><ele>120.75</ele><time>2026-04-12T06:31:27.787Z</time></trkpt><trkpt lat="45.769440110881526" lon="11.774623997141461"><ele>121.5</ele><time>2026-04-12T06:31:28.787Z</time></trkpt><trkpt lat="45.76957376106709" lon="11.77456003708119"><ele>122.25</ele><time>2026-04-12T06:31:29.787Z</time></trkpt><trkpt lat="45.76971342947522" lon="11.77448252313846"><ele>123.0</ele><time>2026-04-12T06:31:30.787Z</time></trkpt><trkpt lat="45.76986708302699" lon="11.774401084451375"><ele>123.0</ele><time>2026-04-12T06:31:31.787Z</time></trkpt><trkpt lat="45.770021188308384" lon="11.774312645286491"><ele>123.0</ele><time>2026-04-12T06:31:32.787Z</time></trkpt><trkpt lat="45.77017862295316" lon="11.774223720822322"><ele>123.0</ele><time>2026-04-12T06:31:33.788Z</time></trkpt><trkpt lat="45.77033465702922" lon="11.774135535480363"><ele>123.0</ele><time>2026-04-12T06:31:34.788Z</time></trkpt><trkpt lat="45.77047811135993" lon="11.774047499995241"><ele>123.0</ele><time>2026-04-12T06:31:35.788Z</time></trkpt><trkpt lat="45.77062701755957" lon="11.773966880873436"><ele>123.0</ele><time>2026-04-12T06:31:36.788Z</time></trkpt><trkpt lat="45.77077849248284" lon="11.773887148155133"><ele>123.0</ele><time>2026-04-12T06:31:37.788Z</time></trkpt><trkpt lat="45.770936396925634" lon="11.77380466780766"><ele>123.0</ele><time>2026-04-12T06:31:38.788Z</time></trkpt><trkpt lat="45.77108817880857" lon="11.77371636025987"><ele>123.0</ele><time>2026-04-12T06:31:39.788Z</time></trkpt><trkpt lat="45.77124364378344" lon="11.773634521224215"><ele>123.0</ele><time>2026-04-12T06:31:40.788Z</time></trkpt><trkpt lat="45.771397776813764" lon="11.773549115672699"><ele>123.0</ele><time>2026-04-12T06:31:41.788Z</time></trkpt><trkpt lat="45.771555123466705" lon="11.773464991518393"><ele>123.0</ele><time>2026-04-12T06:31:42.788Z</time></trkpt><trkpt lat="45.771706447882806" lon="11.773379408208443"><ele>123.66666666666666</ele><time>2026-04-12T06:31:43.788Z</time></trkpt><trkpt lat="45.77185993371027" lon="11.773293079401471"><ele>124.33333333333333</ele><time>2026-04-12T06:31:44.788Z</time></trkpt><trkpt lat="45.772009968084355" lon="11.773219824140064"><ele>125.0</ele><time>2026-04-12T06:31:45.788Z</time></trkpt><trkpt lat="45.77216178301468" lon="11.773139460128888"><ele>125.0</ele><time>2026-04-12T06:31:46.788Z</time></trkpt><trkpt lat="45.772315724830136" lon="11.773050751561804"><ele>125.0</ele><time>2026-04-12T06:31:47.788Z</time></trkpt><trkpt lat="45.7724703997847" lon="11.772969147700985"><ele>125.0</ele><time>2026-04-12T06:31:48.788Z</time></trkpt><trkpt lat="45.77262623593379" lon="11.772883465762327"><ele>124.66666666666666</ele><time>2026-04-12T06:31:49.788Z</time></trkpt><trkpt lat="45.7727805411415" lon="11.772795936286798"><ele>124.33333333333334</ele><time>2026-04-12T06:31:50.788Z</time></trkpt><trkpt lat="45.77292035297182" lon="11.772716480812147"><ele>124.0</ele><time>2026-04-12T06:31:51.788Z</time></trkpt><trkpt lat="45.77306410374106" lon="11.772639563139615"><ele>124.0</ele><time>2026-04-12T06:31:52.788Z</time></trkpt><trkpt lat="45.7731991165973" lon="11.772567031553233"><ele>124.0</ele><time>2026-04-12T06:31:53.788Z</time></trkpt><trkpt lat="45.773329753529524" lon="11.77249864008892"><ele>124.0</ele><time>2026-04-12T06:31:54.788Z</time></trkpt><trkpt lat="45.77345171952372" lon="11.772422685973947"><ele>124.0</ele><time>2026-04-12T06:31:55.788Z</time></trkpt><trkpt lat="45.77356889290592" lon="11.772351543667412"><ele>124.25</ele><time>2026-04-12T06:31:56.788Z</time></trkpt><trkpt lat="45.77368218264124" lon="11.77229428696217"><ele>124.5</ele><time>2026-04-12T06:31:57.788Z</time></trkpt><trkpt lat="45.77379079719925" lon="11.772226253737005"><ele>124.75</ele><time>2026-04-12T06:31:58.788Z</time></trkpt><trkpt lat="45.773901337733044" lon="11.77216542905413"><ele>125.0</ele><time>2026-04-12T06:31:59.788Z</time></trkpt><trkpt lat="45.77399356737009" lon="11.772122812378928"><ele>124.99999999999999</ele><time>2026-04-12T06:32:00.788Z</time></trkpt><trkpt lat="45.774067688951995" lon="11.772082836548135"><ele>125.0</ele><time>2026-04-12T06:32:01.788Z</time></trkpt><trkpt lat="45.7741416101619" lon="11.772022350356965"><ele>125.0</ele><time>2026-04-12T06:32:03.788Z</time></trkpt><trkpt lat="45.77419733710492" lon="11.771956311593534"><ele>125.0</ele><time>2026-04-12T06:32:07.788Z</time></trkpt><trkpt lat="45.77424869363627" lon="11.771902422612516"><ele>124.99999999999999</ele><time>2026-04-12T06:32:09.788Z</time></trkpt><trkpt lat="45.77432269544563" lon="11.771867120933063"><ele>125.0</ele><time>2026-04-12T06:32:11.788Z</time></trkpt><trkpt lat="45.77440116267143" lon="11.771879851390489"><ele>125.2</ele><time>2026-04-12T06:32:13.788Z</time></trkpt><trkpt lat="45.77446091137742" lon="11.77192637446754"><ele>125.4</ele><time>2026-04-12T06:32:16.788Z</time></trkpt><trkpt lat="45.77453422457984" lon="11.77190337452216"><ele>125.6</ele><time>2026-04-12T06:32:21.788Z</time></trkpt><trkpt lat="45.77453376207549" lon="11.771710259194894"><ele>125.8</ele><time>2026-04-12T06:32:23.788Z</time></trkpt><trkpt lat="45.774478989526294" lon="11.771554582579565"><ele>126.0</ele><time>2026-04-12T06:32:25.788Z</time></trkpt><trkpt lat="45.77448760737897" lon="11.771426038174384"><ele>125.8</ele><time>2026-04-12T06:32:26.788Z</time></trkpt><trkpt lat="45.774522118227594" lon="11.771279398189707"><ele>125.6</ele><time>2026-04-12T06:32:27.788Z</time></trkpt><trkpt lat="45.774560373906446" lon="11.771159187763049"><ele>125.4</ele><time>2026-04-12T06:32:28.788Z</time></trkpt><trkpt lat="45.77461464292153" lon="11.771052065341028"><ele>125.2</ele><time>2026-04-12T06:32:29.788Z</time></trkpt><trkpt lat="45.77471300455208" lon="11.770964584977966"><ele>125.0</ele><time>2026-04-12T06:32:30.788Z</time></trkpt><trkpt lat="45.774830669548436" lon="11.77090581534195"><ele>125.0</ele><time>2026-04-12T06:32:31.788Z</time></trkpt><trkpt lat="45.774965785405385" lon="11.770852903581973"><ele>125.0</ele><time>2026-04-12T06:32:32.788Z</time></trkpt><trkpt lat="45.775083014086775" lon="11.770790344891248"><ele>125.0</ele><time>2026-04-12T06:32:33.788Z</time></trkpt><trkpt lat="45.775205825295046" lon="11.77072605392121"><ele>125.0</ele><time>2026-04-12T06:32:34.788Z</time></trkpt><trkpt lat="45.77533048512741" lon="11.770669445312905"><ele>125.25</ele><time>2026-04-12T06:32:35.788Z</time></trkpt><trkpt lat="45.77545182309658" lon="11.770601750932405"><ele>125.5</ele><time>2026-04-12T06:32:36.788Z</time></trkpt><trkpt lat="45.77557727052904" lon="11.770530715012343"><ele>125.75</ele><time>2026-04-12T06:32:37.788Z</time></trkpt><trkpt lat="45.77570345430982" lon="11.770454602057551"><ele>126.0</ele><time>2026-04-12T06:32:38.788Z</time></trkpt><trkpt lat="45.77584010978657" lon="11.77039346996602"><ele>126.0</ele><time>2026-04-12T06:32:39.788Z</time></trkpt><trkpt lat="45.775988398882696" lon="11.77036168178281"><ele>126.0</ele><time>2026-04-12T06:32:40.788Z</time></trkpt><trkpt lat="45.776134110472405" lon="11.770321623069957"><ele>126.0</ele><time>2026-04-12T06:32:41.788Z</time></trkpt><trkpt lat="45.77629395970184" lon="11.770289843199182"><ele>126.0</ele><time>2026-04-12T06:32:42.788Z</time></trkpt><trkpt lat="45.77644993070354" lon="11.770278535070963"><ele>126.0</ele><time>2026-04-12T06:32:43.788Z</time></trkpt><trkpt lat="45.77660063206558" lon="11.770259936573176"><ele>126.0</ele><time>2026-04-12T06:32:44.788Z</time></trkpt><trkpt lat="45.776762849737146" lon="11.770235838025968"><ele>126.0</ele><time>2026-04-12T06:32:45.788Z</time></trkpt><trkpt lat="45.77691977656018" lon="11.770197042939401"><ele>126.0</ele><time>2026-04-12T06:32:46.788Z</time></trkpt><trkpt lat="45.777089617230466" lon="11.77011411526739"><ele>126.0</ele><time>2026-04-12T06:32:47.788Z</time></trkpt><trkpt lat="45.777264382712204" lon="11.770011492449578"><ele>126.66666666666666</ele><time>2026-04-12T06:32:48.788Z</time></trkpt><trkpt lat="45.777417358419704" lon="11.769907365682908"><ele>127.33333333333333</ele><time>2026-04-12T06:32:49.788Z</time></trkpt><trkpt lat="45.77755710725036" lon="11.769825208741603"><ele>128.0</ele><time>2026-04-12T06:32:50.788Z</time></trkpt><trkpt lat="45.7776906674052" lon="11.769784268569934"><ele>128.0</ele><time>2026-04-12T06:32:51.788Z</time></trkpt><trkpt lat="45.77779846648852" lon="11.769764445507233"><ele>128.0</ele><time>2026-04-12T06:32:52.788Z</time></trkpt><trkpt lat="45.77789881295397" lon="11.769760840176447"><ele>128.0</ele><time>2026-04-12T06:32:53.788Z</time></trkpt><trkpt lat="45.7779884915428" lon="11.769768385514576"><ele>128.0</ele><time>2026-04-12T06:32:54.788Z</time></trkpt><trkpt lat="45.77806589640481" lon="11.769755252002362"><ele>128.0</ele><time>2026-04-12T06:32:55.788Z</time></trkpt><trkpt lat="45.778137787702924" lon="11.769706995729676"><ele>127.99999999999999</ele><time>2026-04-12T06:32:56.788Z</time></trkpt><trkpt lat="45.77820441229384" lon="11.769642186382477"><ele>128.0</ele><time>2026-04-12T06:32:57.788Z</time></trkpt><trkpt lat="45.77824943930118" lon="11.769569488735343"><ele>128.0</ele><time>2026-04-12T06:32:58.788Z</time></trkpt><trkpt lat="45.77829659355392" lon="11.769505497283891"><ele>128.0</ele><time>2026-04-12T06:32:59.788Z</time></trkpt><trkpt lat="45.778392905128065" lon="11.7693747663884"><ele>127.99999999999999</ele><time>2026-04-12T06:33:01.788Z</time></trkpt><trkpt lat="45.778437093809764" lon="11.769292970829003"><ele>128.0</ele><time>2026-04-12T06:33:02.788Z</time></trkpt><trkpt lat="45.778490601600474" lon="11.76922073899755"><ele>128.4</ele><time>2026-04-12T06:33:03.788Z</time></trkpt><trkpt lat="45.77854805618612" lon="11.769139388513146"><ele>128.8</ele><time>2026-04-12T06:33:04.788Z</time></trkpt><trkpt lat="45.77860881696264" lon="11.769046884264656"><ele>129.2</ele><time>2026-04-12T06:33:05.788Z</time></trkpt><trkpt lat="45.778682267364104" lon="11.768953757294442"><ele>129.6</ele><time>2026-04-12T06:33:06.788Z</time></trkpt><trkpt lat="45.77876417256104" lon="11.768838982655144"><ele>130.0</ele><time>2026-04-12T06:33:07.788Z</time></trkpt><trkpt lat="45.7788420196716" lon="11.76874232343549"><ele>130.0</ele><time>2026-04-12T06:33:08.788Z</time></trkpt><trkpt lat="45.77892056424372" lon="11.768660181461081"><ele>130.0</ele><time>2026-04-12T06:33:09.788Z</time></trkpt><trkpt lat="45.77900547853549" lon="11.768583101146774"><ele>130.0</ele><time>2026-04-12T06:33:10.788Z</time></trkpt><trkpt lat="45.779094790848816" lon="11.768498575926781"><ele>130.0</ele><time>2026-04-12T06:33:11.788Z</time></trkpt><trkpt lat="45.77920068628085" lon="11.76844000437834"><ele>130.0</ele><time>2026-04-12T06:33:12.788Z</time></trkpt><trkpt lat="45.77928907100316" lon="11.768407543355476"><ele>130.0</ele><time>2026-04-12T06:33:13.788Z</time></trkpt><trkpt lat="45.779378377773966" lon="11.768381477995472"><ele>130.0</ele><time>2026-04-12T06:33:15.788Z</time></trkpt><trkpt lat="45.7794700810417" lon="11.76834291167658"><ele>130.0</ele><time>2026-04-12T06:33:31.788Z</time></trkpt><trkpt lat="45.779620872691076" lon="11.768263447217638"><ele>130.0</ele><time>2026-04-12T06:33:33.788Z</time></trkpt><trkpt lat="45.77974401838123" lon="11.768208947964743"><ele>130.0</ele><time>2026-04-12T06:33:34.788Z</time></trkpt><trkpt lat="45.77985265559938" lon="11.768146923420902"><ele>130.0</ele><time>2026-04-12T06:33:35.788Z</time></trkpt><trkpt lat="45.779943052918995" lon="11.768110956583461"><ele>130.0</ele><time>2026-04-12T06:33:36.788Z</time></trkpt><trkpt lat="45.78001540734636" lon="11.76808104878058"><ele>130.0</ele><time>2026-04-12T06:33:37.788Z</time></trkpt><trkpt lat="45.78009291022358" lon="11.76804617922912"><ele>130.0</ele><time>2026-04-12T06:33:38.788Z</time></trkpt><trkpt lat="45.78017175328949" lon="11.76799854134603"><ele>130.0</ele><time>2026-04-12T06:33:39.79Z</time></trkpt><trkpt lat="45.780268773735095" lon="11.767944508748796"><ele>130.0</ele><time>2026-04-12T06:33:40.79Z</time></trkpt><trkpt lat="45.78037130273252" lon="11.767888912180169"><ele>130.0</ele><time>2026-04-12T06:33:41.79Z</time></trkpt><trkpt lat="45.780467740756976" lon="11.76783894533524"><ele>130.0</ele><time>2026-04-12T06:33:42.79Z</time></trkpt><trkpt lat="45.780587048789386" lon="11.767789360864674"><ele>130.0</ele><time>2026-04-12T06:33:43.79Z</time></trkpt><trkpt lat="45.78072030728064" lon="11.76772941613097"><ele>130.33333333333334</ele><time>2026-04-12T06:33:44.79Z</time></trkpt><trkpt lat="45.78087675118446" lon="11.76764820173249"><ele>130.66666666666666</ele><time>2026-04-12T06:33:45.79Z</time></trkpt><trkpt lat="45.78101727269347" lon="11.767587126678594"><ele>131.0</ele><time>2026-04-12T06:33:46.79Z</time></trkpt><trkpt lat="45.78115261412831" lon="11.767528079604661"><ele>131.0</ele><time>2026-04-12T06:33:47.79Z</time></trkpt><trkpt lat="45.78129991361003" lon="11.767464342512227"><ele>131.0</ele><time>2026-04-12T06:33:48.79Z</time></trkpt><trkpt lat="45.78145354335344" lon="11.767399104501447"><ele>131.0</ele><time>2026-04-12T06:33:49.79Z</time></trkpt><trkpt lat="45.781597479141" lon="11.767322092811455"><ele>131.0</ele><time>2026-04-12T06:33:50.79Z</time></trkpt><trkpt lat="45.78173135602513" lon="11.767251096899754"><ele>131.0</ele><time>2026-04-12T06:33:51.79Z</time></trkpt><trkpt lat="45.78185767606705" lon="11.767193165622592"><ele>131.0</ele><time>2026-04-12T06:33:52.79Z</time></trkpt><trkpt lat="45.78199153188262" lon="11.767135098327723"><ele>131.0</ele><time>2026-04-12T06:33:53.79Z</time></trkpt><trkpt lat="45.782133501050964" lon="11.76707637912209"><ele>131.66666666666666</ele><time>2026-04-12T06:33:54.79Z</time></trkpt><trkpt lat="45.78227886989066" lon="11.767006828545659"><ele>132.33333333333334</ele><time>2026-04-12T06:33:55.79Z</time></trkpt><trkpt lat="45.78243388547904" lon="11.76693438670114"><ele>133.0</ele><time>2026-04-12T06:33:56.79Z</time></trkpt><trkpt lat="45.78258577217018" lon="11.766861143689576"><ele>132.66666666666669</ele><time>2026-04-12T06:33:57.79Z</time></trkpt><trkpt lat="45.78274350456623" lon="11.76678797752862"><ele>132.33333333333334</ele><time>2026-04-12T06:33:58.79Z</time></trkpt><trkpt lat="45.78289452519169" lon="11.76671406371809"><ele>132.0</ele><time>2026-04-12T06:33:59.79Z</time></trkpt><trkpt lat="45.78303780060314" lon="11.766639198020902"><ele>132.0</ele><time>2026-04-12T06:34:00.79Z</time></trkpt><trkpt lat="45.783177337902615" lon="11.766564816088154"><ele>132.0</ele><time>2026-04-12T06:34:01.79Z</time></trkpt><trkpt lat="45.783326461978966" lon="11.766516219635701"><ele>132.0</ele><time>2026-04-12T06:34:02.79Z</time></trkpt><trkpt lat="45.78347806023677" lon="11.766446519532671"><ele>132.66666666666666</ele><time>2026-04-12T06:34:03.79Z</time></trkpt><trkpt lat="45.783618394329544" lon="11.766354517791449"><ele>133.33333333333331</ele><time>2026-04-12T06:34:04.79Z</time></trkpt><trkpt lat="45.783784388837745" lon="11.766305984813467"><ele>134.0</ele><time>2026-04-12T06:34:05.79Z</time></trkpt><trkpt lat="45.78393982326741" lon="11.76622373236746"><ele>134.0</ele><time>2026-04-12T06:34:06.79Z</time></trkpt><trkpt lat="45.78409929362598" lon="11.76613402296574"><ele>134.0</ele><time>2026-04-12T06:34:07.79Z</time></trkpt><trkpt lat="45.78427193336754" lon="11.766084146905133"><ele>134.0</ele><time>2026-04-12T06:34:08.79Z</time></trkpt><trkpt lat="45.784431720518754" lon="11.766002508400028"><ele>137.33333333333331</ele><time>2026-04-12T06:34:09.79Z</time></trkpt><trkpt lat="45.78459124412404" lon="11.76590395996517"><ele>140.66666666666666</ele><time>2026-04-12T06:34:10.79Z</time></trkpt><trkpt lat="45.78475661607232" lon="11.765820075308028"><ele>144.0</ele><time>2026-04-12T06:34:11.79Z</time></trkpt><trkpt lat="45.78493092502126" lon="11.765757876214925"><ele>144.0</ele><time>2026-04-12T06:34:12.79Z</time></trkpt><trkpt lat="45.78509833835589" lon="11.765662097493774"><ele>144.0</ele><time>2026-04-12T06:34:13.79Z</time></trkpt><trkpt lat="45.78528164642033" lon="11.765597031385251"><ele>144.0</ele><time>2026-04-12T06:34:14.79Z</time></trkpt><trkpt lat="45.78545326453352" lon="11.765507969759726"><ele>144.0</ele><time>2026-04-12T06:34:15.79Z</time></trkpt><trkpt lat="45.78562059598536" lon="11.765412347653914"><ele>144.0</ele><time>2026-04-12T06:34:16.79Z</time></trkpt><trkpt lat="45.78578138290216" lon="11.76534644600249"><ele>144.0</ele><time>2026-04-12T06:34:17.79Z</time></trkpt><trkpt lat="45.78592913636325" lon="11.765280212228454"><ele>144.75</ele><time>2026-04-12T06:34:18.79Z</time></trkpt><trkpt lat="45.78607693423115" lon="11.765210890125351"><ele>145.5</ele><time>2026-04-12T06:34:19.79Z</time></trkpt><trkpt lat="45.78621137390636" lon="11.765144217245012"><ele>146.25</ele><time>2026-04-12T06:34:20.79Z</time></trkpt><trkpt lat="45.7863428889502" lon="11.765086431809891"><ele>147.0</ele><time>2026-04-12T06:34:21.79Z</time></trkpt><trkpt lat="45.786457047533574" lon="11.76502433016191"><ele>147.2</ele><time>2026-04-12T06:34:22.79Z</time></trkpt><trkpt lat="45.786553018981984" lon="11.764948787717255"><ele>147.39999999999998</ele><time>2026-04-12T06:34:23.79Z</time></trkpt><trkpt lat="45.78662659586235" lon="11.764883144367273"><ele>147.60000000000002</ele><time>2026-04-12T06:34:24.79Z</time></trkpt><trkpt lat="45.78668882547736" lon="11.764834151985896"><ele>147.8</ele><time>2026-04-12T06:34:25.79Z</time></trkpt><trkpt lat="45.78674720222641" lon="11.764800094960671"><ele>148.0</ele><time>2026-04-12T06:34:26.79Z</time></trkpt><trkpt lat="45.786891872603704" lon="11.764800442981262"><ele>149.0</ele><time>2026-04-12T06:34:28.79Z</time></trkpt><trkpt lat="45.786981485887026" lon="11.764776243126585"><ele>150.0</ele><time>2026-04-12T06:34:29.79Z</time></trkpt><trkpt lat="45.787068774150505" lon="11.764714599288189"><ele>151.0</ele><time>2026-04-12T06:34:30.79Z</time></trkpt><trkpt lat="45.787169745275314" lon="11.764681043876168"><ele>152.0</ele><time>2026-04-12T06:34:31.79Z</time></trkpt><trkpt lat="45.787272862698" lon="11.764676002401654"><ele>153.0</ele><time>2026-04-12T06:34:32.79Z</time></trkpt><trkpt lat="45.78738071722215" lon="11.764675742383103"><ele>153.0</ele><time>2026-04-12T06:34:33.79Z</time></trkpt><trkpt lat="45.78749072338852" lon="11.764662106932299"><ele>153.0</ele><time>2026-04-12T06:34:34.79Z</time></trkpt><trkpt lat="45.78759087157931" lon="11.764631043968565"><ele>153.0</ele><time>2026-04-12T06:34:35.79Z</time></trkpt><trkpt lat="45.78768046866301" lon="11.764600421990748"><ele>153.0</ele><time>2026-04-12T06:34:36.79Z</time></trkpt><trkpt lat="45.78777680015956" lon="11.764569392499538"><ele>153.0</ele><time>2026-04-12T06:34:37.79Z</time></trkpt><trkpt lat="45.78788189144465" lon="11.764532753582063"><ele>152.75</ele><time>2026-04-12T06:34:38.79Z</time></trkpt><trkpt lat="45.787992194783236" lon="11.764497859690104"><ele>152.5</ele><time>2026-04-12T06:34:39.79Z</time></trkpt><trkpt lat="45.788105367141256" lon="11.76446316096361"><ele>152.25</ele><time>2026-04-12T06:34:40.79Z</time></trkpt><trkpt lat="45.78822648901461" lon="11.76441730298541"><ele>152.0</ele><time>2026-04-12T06:34:41.79Z</time></trkpt><trkpt lat="45.78834748473485" lon="11.764372008515105"><ele>152.0</ele><time>2026-04-12T06:34:42.79Z</time></trkpt><trkpt lat="45.7884751822048" lon="11.764330983774592"><ele>152.0</ele><time>2026-04-12T06:34:43.79Z</time></trkpt><trkpt lat="45.78860345662399" lon="11.764269931655845"><ele>152.0</ele><time>2026-04-12T06:34:44.79Z</time></trkpt><trkpt lat="45.788732426045655" lon="11.764202165489724"><ele>152.0</ele><time>2026-04-12T06:34:45.79Z</time></trkpt><trkpt lat="45.78885840401207" lon="11.764126718763187"><ele>152.0</ele><time>2026-04-12T06:34:46.79Z</time></trkpt><trkpt lat="45.788981332533815" lon="11.764053952336946"><ele>152.0</ele><time>2026-04-12T06:34:47.79Z</time></trkpt><trkpt lat="45.789102937312045" lon="11.763972997989251"><ele>152.0</ele><time>2026-04-12T06:34:48.79Z</time></trkpt><trkpt lat="45.78922799052003" lon="11.763893445523477"><ele>152.0</ele><time>2026-04-12T06:34:49.79Z</time></trkpt><trkpt lat="45.789356726575704" lon="11.763818604066376"><ele>152.0</ele><time>2026-04-12T06:34:50.79Z</time></trkpt><trkpt lat="45.78948680362409" lon="11.763744106307149"><ele>152.0</ele><time>2026-04-12T06:34:51.79Z</time></trkpt><trkpt lat="45.78961219692613" lon="11.763671066736823"><ele>152.0</ele><time>2026-04-12T06:34:52.79Z</time></trkpt><trkpt lat="45.789737113677816" lon="11.76359656782615"><ele>152.0</ele><time>2026-04-12T06:34:53.79Z</time></trkpt><trkpt lat="45.78984713753523" lon="11.763523946727927"><ele>152.0</ele><time>2026-04-12T06:34:54.79Z</time></trkpt><trkpt lat="45.78996279006514" lon="11.76345283629194"><ele>152.0</ele><time>2026-04-12T06:34:55.79Z</time></trkpt><trkpt lat="45.790079022973025" lon="11.763391660110265"><ele>152.0</ele><time>2026-04-12T06:34:56.79Z</time></trkpt><trkpt lat="45.79020330829121" lon="11.76332335707607"><ele>152.0</ele><time>2026-04-12T06:34:57.79Z</time></trkpt><trkpt lat="45.79032990911418" lon="11.763247123617084"><ele>152.75</ele><time>2026-04-12T06:34:58.79Z</time></trkpt><trkpt lat="45.79045540940863" lon="11.76317338164054"><ele>153.5</ele><time>2026-04-12T06:34:59.79Z</time></trkpt><trkpt lat="45.79058348212731" lon="11.763090813815698"><ele>154.25</ele><time>2026-04-12T06:35:00.79Z</time></trkpt><trkpt lat="45.79071896620478" lon="11.763013221218285"><ele>155.0</ele><time>2026-04-12T06:35:01.79Z</time></trkpt><trkpt lat="45.79085830569213" lon="11.762927771771682"><ele>155.0</ele><time>2026-04-12T06:35:02.79Z</time></trkpt><trkpt lat="45.79100068347579" lon="11.76283955055885"><ele>155.0</ele><time>2026-04-12T06:35:03.79Z</time></trkpt><trkpt lat="45.79113745490757" lon="11.762753603793891"><ele>155.0</ele><time>2026-04-12T06:35:04.79Z</time></trkpt><trkpt lat="45.791261065348905" lon="11.762671532906314"><ele>155.0</ele><time>2026-04-12T06:35:05.79Z</time></trkpt><trkpt lat="45.79138148136311" lon="11.762577307636956"><ele>155.25</ele><time>2026-04-12T06:35:06.79Z</time></trkpt><trkpt lat="45.79149487410357" lon="11.762468564931938"><ele>155.5</ele><time>2026-04-12T06:35:07.79Z</time></trkpt><trkpt lat="45.79160596473144" lon="11.762356454491968"><ele>155.75</ele><time>2026-04-12T06:35:08.79Z</time></trkpt><trkpt lat="45.791717802339626" lon="11.762235151012378"><ele>156.0</ele><time>2026-04-12T06:35:09.79Z</time></trkpt><trkpt lat="45.791832719512854" lon="11.762105929554748"><ele>156.25</ele><time>2026-04-12T06:35:10.79Z</time></trkpt><trkpt lat="45.79194175863748" lon="11.761988248575783"><ele>156.5</ele><time>2026-04-12T06:35:11.79Z</time></trkpt><trkpt lat="45.792049569390706" lon="11.761876225163768"><ele>156.75</ele><time>2026-04-12T06:35:12.79Z</time></trkpt><trkpt lat="45.79216132777163" lon="11.761756233410242"><ele>157.0</ele><time>2026-04-12T06:35:13.79Z</time></trkpt><trkpt lat="45.79227975893061" lon="11.76163396895209"><ele>157.25</ele><time>2026-04-12T06:35:14.79Z</time></trkpt><trkpt lat="45.792390181807825" lon="11.761523232216543"><ele>157.5</ele><time>2026-04-12T06:35:15.79Z</time></trkpt><trkpt lat="45.79249149417507" lon="11.761417111423818"><ele>157.75</ele><time>2026-04-12T06:35:16.79Z</time></trkpt><trkpt lat="45.79258766702905" lon="11.7613148084697"><ele>158.0</ele><time>2026-04-12T06:35:17.79Z</time></trkpt><trkpt lat="45.79267323056166" lon="11.76122216774208"><ele>158.75</ele><time>2026-04-12T06:35:18.79Z</time></trkpt><trkpt lat="45.79276621684097" lon="11.761132180368852"><ele>159.5</ele><time>2026-04-12T06:35:19.79Z</time></trkpt><trkpt lat="45.792856613497186" lon="11.76103728134576"><ele>160.25</ele><time>2026-04-12T06:35:20.79Z</time></trkpt><trkpt lat="45.79295339423502" lon="11.760931718592213"><ele>161.0</ele><time>2026-04-12T06:35:21.79Z</time></trkpt><trkpt lat="45.79305519102267" lon="11.760826674135142"><ele>161.0</ele><time>2026-04-12T06:35:22.79Z</time></trkpt><trkpt lat="45.7931629318963" lon="11.760720413469869"><ele>161.0</ele><time>2026-04-12T06:35:23.79Z</time></trkpt><trkpt lat="45.79327754950416" lon="11.760610421961431"><ele>161.0</ele><time>2026-04-12T06:35:24.79Z</time></trkpt><trkpt lat="45.79338802158737" lon="11.760498131223489"><ele>161.0</ele><time>2026-04-12T06:35:25.79Z</time></trkpt><trkpt lat="45.79348676316377" lon="11.760401322188663"><ele>161.0</ele><time>2026-04-12T06:35:26.79Z</time></trkpt><trkpt lat="45.79359190933945" lon="11.760327083317712"><ele>161.0</ele><time>2026-04-12T06:35:27.79Z</time></trkpt><trkpt lat="45.793715956608665" lon="11.760266840502215"><ele>161.0</ele><time>2026-04-12T06:35:28.79Z</time></trkpt><trkpt lat="45.79384561788542" lon="11.760207841365629"><ele>161.0</ele><time>2026-04-12T06:35:29.79Z</time></trkpt><trkpt lat="45.793971623437734" lon="11.760153487686283"><ele>161.4</ele><time>2026-04-12T06:35:30.79Z</time></trkpt><trkpt lat="45.79408995956456" lon="11.760105897248613"><ele>161.8</ele><time>2026-04-12T06:35:31.79Z</time></trkpt><trkpt lat="45.79420179992586" lon="11.760074490375764"><ele>162.20000000000002</ele><time>2026-04-12T06:35:32.79Z</time></trkpt><trkpt lat="45.7943051452846" lon="11.760045992386232"><ele>162.60000000000002</ele><time>2026-04-12T06:35:33.79Z</time></trkpt><trkpt lat="45.79440782025656" lon="11.76002260411258"><ele>163.0</ele><time>2026-04-12T06:35:34.79Z</time></trkpt><trkpt lat="45.79450539738665" lon="11.76000210971349"><ele>163.8</ele><time>2026-04-12T06:35:35.79Z</time></trkpt><trkpt lat="45.79459563842613" lon="11.759973200325897"><ele>164.60000000000002</ele><time>2026-04-12T06:35:36.79Z</time></trkpt><trkpt lat="45.79468726737537" lon="11.759948030318734"><ele>165.39999999999998</ele><time>2026-04-12T06:35:37.79Z</time></trkpt><trkpt lat="45.79478494632581" lon="11.7599193089154"><ele>166.2</ele><time>2026-04-12T06:35:38.79Z</time></trkpt><trkpt lat="45.79488052674756" lon="11.759892115691954"><ele>167.0</ele><time>2026-04-12T06:35:39.79Z</time></trkpt><trkpt lat="45.79498225924368" lon="11.759853540702123"><ele>167.0</ele><time>2026-04-12T06:35:40.79Z</time></trkpt><trkpt lat="45.79508706186973" lon="11.759824048025473"><ele>167.0</ele><time>2026-04-12T06:35:41.79Z</time></trkpt><trkpt lat="45.79518323090386" lon="11.75979450381617"><ele>167.0</ele><time>2026-04-12T06:35:42.79Z</time></trkpt><trkpt lat="45.79526483847031" lon="11.759766021172435"><ele>167.0</ele><time>2026-04-12T06:35:43.79Z</time></trkpt><trkpt lat="45.79533695338465" lon="11.75973719100812"><ele>167.0</ele><time>2026-04-12T06:35:44.79Z</time></trkpt><trkpt lat="45.79540450900682" lon="11.759711332547456"><ele>167.0</ele><time>2026-04-12T06:35:45.791Z</time></trkpt><trkpt lat="45.79551573977545" lon="11.759596239219324"><ele>168.16666666666666</ele><time>2026-04-12T06:35:47.791Z</time></trkpt><trkpt lat="45.7955856240566" lon="11.759524809528099"><ele>169.33333333333331</ele><time>2026-04-12T06:35:48.791Z</time></trkpt><trkpt lat="45.79564713133436" lon="11.75944383526393"><ele>170.5</ele><time>2026-04-12T06:35:49.791Z</time></trkpt><trkpt lat="45.795690333840106" lon="11.759361284797944"><ele>171.66666666666666</ele><time>2026-04-12T06:35:50.791Z</time></trkpt><trkpt lat="45.79573346144596" lon="11.759293987743277"><ele>172.83333333333334</ele><time>2026-04-12T06:35:51.791Z</time></trkpt><trkpt lat="45.79578901336008" lon="11.75921005489447"><ele>174.0</ele><time>2026-04-12T06:35:54.791Z</time></trkpt><trkpt lat="45.7958595689368" lon="11.75917090221419"><ele>174.0</ele><time>2026-04-12T06:36:29.791Z</time></trkpt><trkpt lat="45.79589160028729" lon="11.759043789810322"><ele>174.0</ele><time>2026-04-12T06:36:31.791Z</time></trkpt><trkpt lat="45.79596078776852" lon="11.758899313690147"><ele>174.0</ele><time>2026-04-12T06:36:33.791Z</time></trkpt><trkpt lat="45.79599780726454" lon="11.758798568909917"><ele>174.0</ele><time>2026-04-12T06:36:34.791Z</time></trkpt><trkpt lat="45.79604200565919" lon="11.758693745485278"><ele>174.0</ele><time>2026-04-12T06:36:35.791Z</time></trkpt><trkpt lat="45.796090213713754" lon="11.758617161432948"><ele>173.5</ele><time>2026-04-12T06:36:36.791Z</time></trkpt><trkpt lat="45.79614763562289" lon="11.758573583208989"><ele>173.0</ele><time>2026-04-12T06:36:37.791Z</time></trkpt><trkpt lat="45.796227515123626" lon="11.758559493252557"><ele>172.5</ele><time>2026-04-12T06:36:38.791Z</time></trkpt><trkpt lat="45.79630325276814" lon="11.758552049768461"><ele>172.0</ele><time>2026-04-12T06:36:39.791Z</time></trkpt><trkpt lat="45.796341145641385" lon="11.758400144854715"><ele>171.5</ele><time>2026-04-12T06:36:41.791Z</time></trkpt><trkpt lat="45.79631305331369" lon="11.758314665420743"><ele>171.0</ele><time>2026-04-12T06:36:42.791Z</time></trkpt><trkpt lat="45.7962403565037" lon="11.758244396515542"><ele>170.66666666666666</ele><time>2026-04-12T06:36:43.791Z</time></trkpt><trkpt lat="45.796167654855466" lon="11.75821292287865"><ele>170.33333333333334</ele><time>2026-04-12T06:36:44.791Z</time></trkpt><trkpt lat="45.79610191803856" lon="11.75817534825666"><ele>170.0</ele><time>2026-04-12T06:36:45.791Z</time></trkpt><trkpt lat="45.79603229195683" lon="11.758119837821658"><ele>169.66666666666669</ele><time>2026-04-12T06:36:46.791Z</time></trkpt><trkpt lat="45.795956859522384" lon="11.75804624594715"><ele>169.33333333333334</ele><time>2026-04-12T06:36:47.791Z</time></trkpt><trkpt lat="45.795877191504076" lon="11.757995144410707"><ele>169.0</ele><time>2026-04-12T06:36:48.791Z</time></trkpt><trkpt lat="45.79578926888443" lon="11.757971583396913"><ele>168.83333333333334</ele><time>2026-04-12T06:36:49.791Z</time></trkpt><trkpt lat="45.795713790182845" lon="11.757932083006157"><ele>168.66666666666669</ele><time>2026-04-12T06:36:50.791Z</time></trkpt><trkpt lat="45.79563250123009" lon="11.757890109941963"><ele>168.5</ele><time>2026-04-12T06:36:51.791Z</time></trkpt><trkpt lat="45.79555598713254" lon="11.757828076229641"><ele>168.33333333333334</ele><time>2026-04-12T06:36:52.791Z</time></trkpt><trkpt lat="45.795473227132916" lon="11.757794361069475"><ele>168.16666666666666</ele><time>2026-04-12T06:36:53.791Z</time></trkpt><trkpt lat="45.79539197097794" lon="11.757755653817085"><ele>168.0</ele><time>2026-04-12T06:36:54.791Z</time></trkpt><trkpt lat="45.79532832328349" lon="11.757733198105322"><ele>167.83333333333334</ele><time>2026-04-12T06:36:55.791Z</time></trkpt><trkpt lat="45.79525573761038" lon="11.7576993534148"><ele>167.66666666666666</ele><time>2026-04-12T06:36:56.791Z</time></trkpt><trkpt lat="45.79518505555248" lon="11.757660959650861"><ele>167.5</ele><time>2026-04-12T06:36:57.791Z</time></trkpt><trkpt lat="45.795108885067194" lon="11.7576200949493"><ele>167.33333333333331</ele><time>2026-04-12T06:36:58.791Z</time></trkpt><trkpt lat="45.79503779513263" lon="11.757591352467996"><ele>167.16666666666666</ele><time>2026-04-12T06:36:59.791Z</time></trkpt><trkpt lat="45.79496315418397" lon="11.757560566696581"><ele>167.0</ele><time>2026-04-12T06:37:00.791Z</time></trkpt><trkpt lat="45.79489570149963" lon="11.757522760028824"><ele>166.6</ele><time>2026-04-12T06:37:01.791Z</time></trkpt><trkpt lat="45.79481571610474" lon="11.757481278596387"><ele>166.2</ele><time>2026-04-12T06:37:02.791Z</time></trkpt><trkpt lat="45.794730982507886" lon="11.75744058102964"><ele>165.8</ele><time>2026-04-12T06:37:03.791Z</time></trkpt><trkpt lat="45.79464584785723" lon="11.757387449121339"><ele>165.4</ele><time>2026-04-12T06:37:04.791Z</time></trkpt><trkpt lat="45.79456456435009" lon="11.757336475533068"><ele>165.0</ele><time>2026-04-12T06:37:05.791Z</time></trkpt><trkpt lat="45.79446995291329" lon="11.757307290674794"><ele>165.0</ele><time>2026-04-12T06:37:06.791Z</time></trkpt><trkpt lat="45.79437143966032" lon="11.757237158032298"><ele>165.0</ele><time>2026-04-12T06:37:07.791Z</time></trkpt><trkpt lat="45.794252896098435" lon="11.7571709397124"><ele>165.0</ele><time>2026-04-12T06:37:08.791Z</time></trkpt><trkpt lat="45.794104811105456" lon="11.757090854623982"><ele>165.0</ele><time>2026-04-12T06:37:09.791Z</time></trkpt><trkpt lat="45.79394667145691" lon="11.757017461812795"><ele>164.33333333333334</ele><time>2026-04-12T06:37:10.791Z</time></trkpt><trkpt lat="45.793804199203436" lon="11.756949161975577"><ele>163.66666666666669</ele><time>2026-04-12T06:37:11.791Z</time></trkpt><trkpt lat="45.79365611975298" lon="11.756861419835607"><ele>163.0</ele><time>2026-04-12T06:37:12.791Z</time></trkpt><trkpt lat="45.79349216533035" lon="11.756790875635236"><ele>162.0</ele><time>2026-04-12T06:37:13.791Z</time></trkpt><trkpt lat="45.793329983769425" lon="11.756701674760714"><ele>161.0</ele><time>2026-04-12T06:37:14.791Z</time></trkpt><trkpt lat="45.79315746843765" lon="11.756610056451926"><ele>160.0</ele><time>2026-04-12T06:37:15.791Z</time></trkpt><trkpt lat="45.79298406025914" lon="11.756513905202683"><ele>160.0</ele><time>2026-04-12T06:37:16.791Z</time></trkpt><trkpt lat="45.79278552229045" lon="11.756406131637606"><ele>160.0</ele><time>2026-04-12T06:37:17.791Z</time></trkpt><trkpt lat="45.792571771552126" lon="11.756292028824532"><ele>160.0</ele><time>2026-04-12T06:37:18.791Z</time></trkpt><trkpt lat="45.792340315412545" lon="11.756153966072837"><ele>159.0</ele><time>2026-04-12T06:37:19.791Z</time></trkpt><trkpt lat="45.79211087686247" lon="11.756028936250264"><ele>158.0</ele><time>2026-04-12T06:37:20.791Z</time></trkpt><trkpt lat="45.791912953377384" lon="11.755925665246115"><ele>157.33333333333331</ele><time>2026-04-12T06:37:21.791Z</time></trkpt><trkpt lat="45.79172447123854" lon="11.755837358098104"><ele>156.66666666666666</ele><time>2026-04-12T06:37:22.791Z</time></trkpt><trkpt lat="45.791545440236185" lon="11.755763922883606"><ele>156.0</ele><time>2026-04-12T06:37:23.791Z</time></trkpt><trkpt lat="45.79137498802921" lon="11.755695465678818"><ele>156.0</ele><time>2026-04-12T06:37:24.791Z</time></trkpt><trkpt lat="45.79122073129279" lon="11.755618738163575"><ele>156.0</ele><time>2026-04-12T06:37:25.791Z</time></trkpt><trkpt lat="45.79107131709497" lon="11.755543735510841"><ele>156.0</ele><time>2026-04-12T06:37:26.791Z</time></trkpt><trkpt lat="45.79093015145026" lon="11.755471046591799"><ele>156.0</ele><time>2026-04-12T06:37:27.791Z</time></trkpt><trkpt lat="45.790784530324366" lon="11.755403764201851"><ele>156.0</ele><time>2026-04-12T06:37:28.791Z</time></trkpt><trkpt lat="45.79063076283239" lon="11.755313966388444"><ele>156.0</ele><time>2026-04-12T06:37:29.791Z</time></trkpt><trkpt lat="45.79049581684192" lon="11.755256832609607"><ele>155.75</ele><time>2026-04-12T06:37:30.791Z</time></trkpt><trkpt lat="45.79036091352031" lon="11.755203050081871"><ele>155.5</ele><time>2026-04-12T06:37:31.791Z</time></trkpt><trkpt lat="45.790224637066956" lon="11.755153335485385"><ele>155.25</ele><time>2026-04-12T06:37:32.791Z</time></trkpt><trkpt lat="45.79010430892103" lon="11.75513300571466"><ele>155.0</ele><time>2026-04-12T06:37:33.791Z</time></trkpt><trkpt lat="45.7900092434939" lon="11.755105782316576"><ele>154.8</ele><time>2026-04-12T06:37:34.791Z</time></trkpt><trkpt lat="45.78991872329149" lon="11.755085709292695"><ele>154.6</ele><time>2026-04-12T06:37:35.791Z</time></trkpt><trkpt lat="45.78983541338641" lon="11.755071256005373"><ele>154.4</ele><time>2026-04-12T06:37:36.791Z</time></trkpt><trkpt lat="45.78973520301959" lon="11.755083330653507"><ele>154.2</ele><time>2026-04-12T06:37:38.791Z</time></trkpt><trkpt lat="45.789654439016054" lon="11.755086529643835"><ele>154.0</ele><time>2026-04-12T06:37:40.791Z</time></trkpt><trkpt lat="45.78955937323199" lon="11.75507358496557"><ele>154.0</ele><time>2026-04-12T06:37:42.791Z</time></trkpt><trkpt lat="45.78948375484306" lon="11.755058862842677"><ele>154.0</ele><time>2026-04-12T06:37:43.791Z</time></trkpt><trkpt lat="45.789394880492715" lon="11.755049199882876"><ele>154.0</ele><time>2026-04-12T06:37:44.791Z</time></trkpt><trkpt lat="45.78928973481437" lon="11.755029346146891"><ele>154.0</ele><time>2026-04-12T06:37:45.791Z</time></trkpt><trkpt lat="45.78916329604052" lon="11.754999618313375"><ele>154.0</ele><time>2026-04-12T06:37:46.791Z</time></trkpt><trkpt lat="45.789057561320085" lon="11.754970025462184"><ele>154.0</ele><time>2026-04-12T06:37:47.791Z</time></trkpt><trkpt lat="45.78895158934095" lon="11.754942594844104"><ele>154.0</ele><time>2026-04-12T06:37:48.791Z</time></trkpt><trkpt lat="45.78884340191817" lon="11.75490822410935"><ele>154.0</ele><time>2026-04-12T06:37:49.791Z</time></trkpt><trkpt lat="45.78874134181342" lon="11.754888843310505"><ele>154.0</ele><time>2026-04-12T06:37:50.791Z</time></trkpt><trkpt lat="45.78864561213532" lon="11.754860643515832"><ele>154.0</ele><time>2026-04-12T06:37:51.792Z</time></trkpt><trkpt lat="45.788563815751544" lon="11.754838992866096"><ele>153.4</ele><time>2026-04-12T06:37:52.792Z</time></trkpt><trkpt lat="45.78850055329454" lon="11.754824518789206"><ele>152.8</ele><time>2026-04-12T06:37:53.792Z</time></trkpt><trkpt lat="45.78841447642411" lon="11.754806317057389"><ele>152.2</ele><time>2026-04-12T06:37:55.792Z</time></trkpt><trkpt lat="45.78830890937872" lon="11.754767274238397"><ele>151.6</ele><time>2026-04-12T06:37:57.792Z</time></trkpt><trkpt lat="45.788193316301886" lon="11.75472479200252"><ele>151.0</ele><time>2026-04-12T06:37:59.792Z</time></trkpt><trkpt lat="45.78811442113727" lon="11.754687946143822"><ele>151.0</ele><time>2026-04-12T06:38:00.792Z</time></trkpt><trkpt lat="45.788038454651016" lon="11.754668589674788"><ele>151.0</ele><time>2026-04-12T06:38:01.792Z</time></trkpt><trkpt lat="45.78796918705802" lon="11.754644929012423"><ele>151.0</ele><time>2026-04-12T06:38:02.792Z</time></trkpt><trkpt lat="45.78785434121786" lon="11.7546271056182"><ele>151.0</ele><time>2026-04-12T06:38:04.792Z</time></trkpt><trkpt lat="45.7877796747157" lon="11.754611249830317"><ele>151.0</ele><time>2026-04-12T06:38:06.792Z</time></trkpt><trkpt lat="45.787732356489634" lon="11.754812018606456"><ele>151.0</ele><time>2026-04-12T06:38:09.792Z</time></trkpt><trkpt lat="45.78773401569428" lon="11.754905134749531"><ele>151.0</ele><time>2026-04-12T06:38:12.792Z</time></trkpt><trkpt lat="45.7878218915785" lon="11.754833603579419"><ele>151.0</ele><time>2026-04-12T06:38:16.792Z</time></trkpt><trkpt lat="45.7878592504814" lon="11.754757089840965"><ele>151.0</ele><time>2026-04-12T06:38:39.792Z</time></trkpt><trkpt lat="45.78798224287914" lon="11.754740577726551"><ele>151.0</ele><time>2026-04-12T06:39:06.792Z</time></trkpt><trkpt lat="45.7882130851677" lon="11.754824857971869"><ele>151.0</ele><time>2026-04-12T06:39:14.792Z</time></trkpt><trkpt lat="45.78827844177296" lon="11.75482305564003"><ele>151.0</ele><time>2026-04-12T06:39:52.792Z</time></trkpt><trkpt lat="45.78835440687408" lon="11.754849216927411"><ele>151.0</ele><time>2026-04-12T06:39:56.792Z</time></trkpt><trkpt lat="45.788428116735304" lon="11.754859862146196"><ele>151.0</ele><time>2026-04-12T06:39:59.793Z</time></trkpt><trkpt lat="45.7884977387573" lon="11.754882046113496"><ele>151.0</ele><time>2026-04-12T06:40:00.793Z</time></trkpt><trkpt lat="45.788583765794556" lon="11.754909854000445"><ele>151.0</ele><time>2026-04-12T06:40:01.793Z</time></trkpt><trkpt lat="45.78865883936971" lon="11.754933820616564"><ele>151.75</ele><time>2026-04-12T06:40:02.793Z</time></trkpt><trkpt lat="45.78873787133337" lon="11.754960985178066"><ele>152.5</ele><time>2026-04-12T06:40:03.793Z</time></trkpt><trkpt lat="45.78884323257454" lon="11.754988403811778"><ele>153.25</ele><time>2026-04-12T06:40:04.793Z</time></trkpt><trkpt lat="45.78895911212176" lon="11.755024964796686"><ele>154.0</ele><time>2026-04-12T06:40:05.793Z</time></trkpt><trkpt lat="45.789102194353774" lon="11.755065768111841"><ele>154.0</ele><time>2026-04-12T06:40:06.793Z</time></trkpt><trkpt lat="45.78925937262119" lon="11.755096664404485"><ele>154.0</ele><time>2026-04-12T06:40:07.793Z</time></trkpt><trkpt lat="45.78939534575439" lon="11.755123138228855"><ele>154.0</ele><time>2026-04-12T06:40:08.793Z</time></trkpt><trkpt lat="45.789539517286826" lon="11.755138803429276"><ele>154.0</ele><time>2026-04-12T06:40:09.793Z</time></trkpt><trkpt lat="45.789702155488094" lon="11.755143372142845"><ele>154.0</ele><time>2026-04-12T06:40:10.793Z</time></trkpt><trkpt lat="45.78988444523378" lon="11.755154978597218"><ele>154.0</ele><time>2026-04-12T06:40:11.793Z</time></trkpt><trkpt lat="45.790052430868016" lon="11.755177886453163"><ele>154.0</ele><time>2026-04-12T06:40:12.793Z</time></trkpt><trkpt lat="45.790196727611125" lon="11.755206085490922"><ele>154.5</ele><time>2026-04-12T06:40:13.793Z</time></trkpt><trkpt lat="45.790337219405195" lon="11.755246153703544"><ele>155.0</ele><time>2026-04-12T06:40:14.793Z</time></trkpt><trkpt lat="45.790475849242284" lon="11.75530661833392"><ele>155.5</ele><time>2026-04-12T06:40:15.793Z</time></trkpt><trkpt lat="45.79060876914607" lon="11.755372274932064"><ele>156.0</ele><time>2026-04-12T06:40:16.793Z</time></trkpt><trkpt lat="45.79074259495663" lon="11.755438352232629"><ele>156.0</ele><time>2026-04-12T06:40:17.793Z</time></trkpt><trkpt lat="45.79087384671568" lon="11.755507485670776"><ele>156.0</ele><time>2026-04-12T06:40:18.793Z</time></trkpt><trkpt lat="45.79100605625602" lon="11.755582640371115"><ele>156.0</ele><time>2026-04-12T06:40:19.793Z</time></trkpt><trkpt lat="45.79114770732204" lon="11.755651922423151"><ele>156.0</ele><time>2026-04-12T06:40:20.793Z</time></trkpt><trkpt lat="45.791286211198134" lon="11.755727772445129"><ele>156.0</ele><time>2026-04-12T06:40:21.793Z</time></trkpt><trkpt lat="45.7914310436293" lon="11.755803303666136"><ele>156.0</ele><time>2026-04-12T06:40:22.793Z</time></trkpt><trkpt lat="45.79156713357612" lon="11.755871838942642"><ele>156.0</ele><time>2026-04-12T06:40:23.793Z</time></trkpt><trkpt lat="45.791703150394824" lon="11.755942148460383"><ele>156.0</ele><time>2026-04-12T06:40:24.793Z</time></trkpt><trkpt lat="45.791835325455715" lon="11.756010933197553"><ele>156.75</ele><time>2026-04-12T06:40:25.793Z</time></trkpt><trkpt lat="45.79195972577388" lon="11.756073700313705"><ele>157.5</ele><time>2026-04-12T06:40:26.793Z</time></trkpt><trkpt lat="45.79208278921968" lon="11.756138013341008"><ele>158.25</ele><time>2026-04-12T06:40:27.793Z</time></trkpt><trkpt lat="45.79220040570568" lon="11.756204340608528"><ele>159.0</ele><time>2026-04-12T06:40:28.793Z</time></trkpt><trkpt lat="45.7922872849351" lon="11.756244673711429"><ele>159.0</ele><time>2026-04-12T06:40:29.793Z</time></trkpt><trkpt lat="45.79238359580423" lon="11.756288187140166"><ele>159.0</ele><time>2026-04-12T06:40:31.793Z</time></trkpt><trkpt lat="45.79253170046302" lon="11.756266419472084"><ele>159.0</ele><time>2026-04-12T06:40:35.793Z</time></trkpt><trkpt lat="45.79256942825029" lon="11.7561718508155"><ele>159.0</ele><time>2026-04-12T06:40:39.793Z</time></trkpt><trkpt lat="45.7925981603571" lon="11.756067847536835"><ele>159.0</ele><time>2026-04-12T06:41:23.793Z</time></trkpt><trkpt lat="45.79250259067903" lon="11.756097666228266"><ele>159.0</ele><time>2026-04-12T06:46:21.794Z</time></trkpt><trkpt lat="45.79255889577847" lon="11.756171240959587"><ele>159.0</ele><time>2026-04-12T07:14:57.807Z</time></trkpt><trkpt lat="45.792498459666476" lon="11.756209452424926"><ele>159.0</ele><time>2026-04-12T07:15:26.807Z</time></trkpt><trkpt lat="45.79247051665805" lon="11.756341748609112"><ele>159.0</ele><time>2026-04-12T07:15:42.807Z</time></trkpt><trkpt lat="45.79255542805369" lon="11.756413480240331"><ele>159.0</ele><time>2026-04-12T07:15:44.807Z</time></trkpt><trkpt lat="45.792627073352456" lon="11.756463207085964"><ele>159.0</ele><time>2026-04-12T07:15:46.807Z</time></trkpt><trkpt lat="45.79269474710265" lon="11.756500679923175"><ele>159.16666666666666</ele><time>2026-04-12T07:15:48.808Z</time></trkpt><trkpt lat="45.79276095130165" lon="11.75654368402451"><ele>159.33333333333334</ele><time>2026-04-12T07:15:50.808Z</time></trkpt><trkpt lat="45.792766845350116" lon="11.756643944210811"><ele>159.5</ele><time>2026-04-12T07:16:11.808Z</time></trkpt><trkpt lat="45.79287709427119" lon="11.756669615364826"><ele>159.66666666666669</ele><time>2026-04-12T07:16:13.808Z</time></trkpt><trkpt lat="45.79293810843372" lon="11.756710218670507"><ele>159.83333333333334</ele><time>2026-04-12T07:16:14.808Z</time></trkpt><trkpt lat="45.79301105257273" lon="11.756720438516771"><ele>160.0</ele><time>2026-04-12T07:16:15.808Z</time></trkpt><trkpt lat="45.79307266622471" lon="11.756753393593362"><ele>160.0</ele><time>2026-04-12T07:16:16.808Z</time></trkpt><trkpt lat="45.7931491075481" lon="11.756772144032972"><ele>160.0</ele><time>2026-04-12T07:16:17.808Z</time></trkpt><trkpt lat="45.793206874347796" lon="11.75680963939916"><ele>160.0</ele><time>2026-04-12T07:16:18.808Z</time></trkpt><trkpt lat="45.79327434654815" lon="11.75681916426583"><ele>160.0</ele><time>2026-04-12T07:16:20.808Z</time></trkpt><trkpt lat="45.793353107231106" lon="11.756837431297086"><ele>160.0</ele><time>2026-04-12T07:16:22.808Z</time></trkpt><trkpt lat="45.79345797091613" lon="11.756894082864257"><ele>160.0</ele><time>2026-04-12T07:16:28.808Z</time></trkpt><trkpt lat="45.79356301274465" lon="11.756933536851088"><ele>160.5</ele><time>2026-04-12T07:16:30.808Z</time></trkpt><trkpt lat="45.793626464166756" lon="11.756970111966568"><ele>161.0</ele><time>2026-04-12T07:16:31.808Z</time></trkpt><trkpt lat="45.79368902109295" lon="11.756988112673222"><ele>161.5</ele><time>2026-04-12T07:16:32.808Z</time></trkpt><trkpt lat="45.79379357074597" lon="11.757047202587737"><ele>162.0</ele><time>2026-04-12T07:16:34.808Z</time></trkpt><trkpt lat="45.79385388658545" lon="11.757107374990394"><ele>162.5</ele><time>2026-04-12T07:16:35.808Z</time></trkpt><trkpt lat="45.79391885898674" lon="11.757153455566057"><ele>163.0</ele><time>2026-04-12T07:16:36.808Z</time></trkpt><trkpt lat="45.79403769396218" lon="11.757209107966409"><ele>163.0</ele><time>2026-04-12T07:16:38.808Z</time></trkpt><trkpt lat="45.7940988489033" lon="11.757249790454456"><ele>163.0</ele><time>2026-04-12T07:16:39.808Z</time></trkpt><trkpt lat="45.794162575406304" lon="11.757281412381921"><ele>163.0</ele><time>2026-04-12T07:16:40.808Z</time></trkpt><trkpt lat="45.79423132460325" lon="11.757298960130822"><ele>163.0</ele><time>2026-04-12T07:16:41.808Z</time></trkpt><trkpt lat="45.794305092750804" lon="11.757354690697705"><ele>163.0</ele><time>2026-04-12T07:16:42.808Z</time></trkpt><trkpt lat="45.79437592036201" lon="11.75738917651783"><ele>163.0</ele><time>2026-04-12T07:16:43.808Z</time></trkpt><trkpt lat="45.794457974983295" lon="11.757412944161667"><ele>163.0</ele><time>2026-04-12T07:16:44.808Z</time></trkpt><trkpt lat="45.79452005870068" lon="11.757448131745203"><ele>163.33333333333334</ele><time>2026-04-12T07:16:45.808Z</time></trkpt><trkpt lat="45.794591373703085" lon="11.757477708648121"><ele>163.66666666666669</ele><time>2026-04-12T07:16:46.808Z</time></trkpt><trkpt lat="45.79466381939028" lon="11.757504554128136"><ele>164.0</ele><time>2026-04-12T07:16:47.808Z</time></trkpt><trkpt lat="45.79474642288181" lon="11.75753406337068"><ele>164.33333333333334</ele><time>2026-04-12T07:16:48.808Z</time></trkpt><trkpt lat="45.79482713485061" lon="11.75760532227716"><ele>164.66666666666666</ele><time>2026-04-12T07:16:49.808Z</time></trkpt><trkpt lat="45.79492484130178" lon="11.757642415666792"><ele>165.0</ele><time>2026-04-12T07:16:50.808Z</time></trkpt><trkpt lat="45.79506398136941" lon="11.757715570303713"><ele>165.75</ele><time>2026-04-12T07:16:51.808Z</time></trkpt><trkpt lat="45.79519537291739" lon="11.757757612549744"><ele>166.5</ele><time>2026-04-12T07:16:52.808Z</time></trkpt><trkpt lat="45.795306203050444" lon="11.757846162756497"><ele>167.25</ele><time>2026-04-12T07:16:53.808Z</time></trkpt><trkpt lat="45.79540862654954" lon="11.757919630866354"><ele>168.0</ele><time>2026-04-12T07:16:54.808Z</time></trkpt><trkpt lat="45.79550050201306" lon="11.757941782361312"><ele>168.0</ele><time>2026-04-12T07:16:55.808Z</time></trkpt><trkpt lat="45.795581504222035" lon="11.75800393648101"><ele>168.0</ele><time>2026-04-12T07:16:56.808Z</time></trkpt><trkpt lat="45.79566335119767" lon="11.75802704975398"><ele>168.0</ele><time>2026-04-12T07:16:57.808Z</time></trkpt><trkpt lat="45.795729955094345" lon="11.758034502674748"><ele>168.0</ele><time>2026-04-12T07:16:58.808Z</time></trkpt><trkpt lat="45.795792065148554" lon="11.758087287493158"><ele>168.0</ele><time>2026-04-12T07:16:59.808Z</time></trkpt><trkpt lat="45.79586542971906" lon="11.758126251783606"><ele>168.0</ele><time>2026-04-12T07:17:00.808Z</time></trkpt><trkpt lat="45.7959909022554" lon="11.758205230313505"><ele>168.2</ele><time>2026-04-12T07:17:02.808Z</time></trkpt><trkpt lat="45.796059334022516" lon="11.758234819986372"><ele>168.4</ele><time>2026-04-12T07:17:03.808Z</time></trkpt><trkpt lat="45.79610492674308" lon="11.75832906046747"><ele>168.6</ele><time>2026-04-12T07:17:04.808Z</time></trkpt><trkpt lat="45.79618601090464" lon="11.758495515051601"><ele>168.79999999999998</ele><time>2026-04-12T07:17:06.808Z</time></trkpt><trkpt lat="45.79623648041388" lon="11.75859484927266"><ele>169.0</ele><time>2026-04-12T07:17:07.808Z</time></trkpt><trkpt lat="45.796314605660605" lon="11.758617037259835"><ele>169.33333333333334</ele><time>2026-04-12T07:17:08.808Z</time></trkpt><trkpt lat="45.79636634789349" lon="11.758696383174632"><ele>169.66666666666669</ele><time>2026-04-12T07:17:09.808Z</time></trkpt><trkpt lat="45.796420417554415" lon="11.758777196009593"><ele>170.0</ele><time>2026-04-12T07:17:10.808Z</time></trkpt><trkpt lat="45.79647578454318" lon="11.758873846230161"><ele>170.33333333333334</ele><time>2026-04-12T07:17:11.808Z</time></trkpt><trkpt lat="45.796529081728586" lon="11.758954360297606"><ele>170.66666666666666</ele><time>2026-04-12T07:17:12.808Z</time></trkpt><trkpt lat="45.79659516895467" lon="11.759040429463186"><ele>171.0</ele><time>2026-04-12T07:17:13.808Z</time></trkpt><trkpt lat="45.796675682260194" lon="11.759149668861117"><ele>171.0</ele><time>2026-04-12T07:17:14.808Z</time></trkpt><trkpt lat="45.79676215036441" lon="11.759244928185351"><ele>171.0</ele><time>2026-04-12T07:17:15.808Z</time></trkpt><trkpt lat="45.79684249499039" lon="11.759329240877518"><ele>171.0</ele><time>2026-04-12T07:17:16.808Z</time></trkpt><trkpt lat="45.796881480877495" lon="11.759433731488466"><ele>171.0</ele><time>2026-04-12T07:17:17.808Z</time></trkpt><trkpt lat="45.79694419699793" lon="11.75954465630389"><ele>171.0</ele><time>2026-04-12T07:17:18.808Z</time></trkpt><trkpt lat="45.7970157187704" lon="11.759627312063516"><ele>171.20000000000002</ele><time>2026-04-12T07:17:19.808Z</time></trkpt><trkpt lat="45.797081192468596" lon="11.759736832240863"><ele>171.4</ele><time>2026-04-12T07:17:20.808Z</time></trkpt><trkpt lat="45.7971552672452" lon="11.759833455677601"><ele>171.6</ele><time>2026-04-12T07:17:21.808Z</time></trkpt><trkpt lat="45.79723271385916" lon="11.759932988707968"><ele>171.8</ele><time>2026-04-12T07:17:22.808Z</time></trkpt><trkpt lat="45.79731668659881" lon="11.760039464992017"><ele>172.0</ele><time>2026-04-12T07:17:23.808Z</time></trkpt><trkpt lat="45.79738343692394" lon="11.760160140260448"><ele>172.8</ele><time>2026-04-12T07:17:24.808Z</time></trkpt><trkpt lat="45.79745329487694" lon="11.760243984187941"><ele>173.6</ele><time>2026-04-12T07:17:25.808Z</time></trkpt><trkpt lat="45.79753551679231" lon="11.760355848849109"><ele>174.4</ele><time>2026-04-12T07:17:26.808Z</time></trkpt><trkpt lat="45.797600507540956" lon="11.760495111829929"><ele>175.20000000000002</ele><time>2026-04-12T07:17:27.808Z</time></trkpt><trkpt lat="45.797678705466815" lon="11.760599354733456"><ele>176.0</ele><time>2026-04-12T07:17:28.808Z</time></trkpt><trkpt lat="45.79774903184448" lon="11.760690672126273"><ele>176.0</ele><time>2026-04-12T07:17:29.808Z</time></trkpt><trkpt lat="45.79783079172702" lon="11.760805413202656"><ele>176.0</ele><time>2026-04-12T07:17:30.808Z</time></trkpt><trkpt lat="45.79790601968159" lon="11.760954299649901"><ele>176.0</ele><time>2026-04-12T07:17:31.808Z</time></trkpt><trkpt lat="45.7979927788553" lon="11.76108698394056"><ele>176.0</ele><time>2026-04-12T07:17:32.808Z</time></trkpt><trkpt lat="45.79808690722091" lon="11.761211051816561"><ele>177.0</ele><time>2026-04-12T07:17:33.808Z</time></trkpt><trkpt lat="45.798179052250234" lon="11.761341097642747"><ele>178.0</ele><time>2026-04-12T07:17:34.808Z</time></trkpt><trkpt lat="45.7982723445678" lon="11.761478138612322"><ele>179.0</ele><time>2026-04-12T07:17:35.808Z</time></trkpt><trkpt lat="45.798361085521094" lon="11.76160929163194"><ele>180.0</ele><time>2026-04-12T07:17:36.808Z</time></trkpt><trkpt lat="45.79844941475823" lon="11.761747598294566"><ele>181.33333333333334</ele><time>2026-04-12T07:17:37.808Z</time></trkpt><trkpt lat="45.79855105395721" lon="11.761897723073233"><ele>182.66666666666669</ele><time>2026-04-12T07:17:38.808Z</time></trkpt><trkpt lat="45.79867623672741" lon="11.762050537411996"><ele>184.0</ele><time>2026-04-12T07:17:39.808Z</time></trkpt><trkpt lat="45.798772240788665" lon="11.762245782058368"><ele>184.0</ele><time>2026-04-12T07:17:40.808Z</time></trkpt><trkpt lat="45.79890612392333" lon="11.762416809858856"><ele>184.0</ele><time>2026-04-12T07:17:41.808Z</time></trkpt><trkpt lat="45.798989294231944" lon="11.762581031117254"><ele>184.0</ele><time>2026-04-12T07:17:42.808Z</time></trkpt><trkpt lat="45.79909132397829" lon="11.762702581859838"><ele>185.5</ele><time>2026-04-12T07:17:43.808Z</time></trkpt><trkpt lat="45.79920982621202" lon="11.762830367650988"><ele>187.0</ele><time>2026-04-12T07:17:44.808Z</time></trkpt><trkpt lat="45.79934797476059" lon="11.762899747416729"><ele>188.5</ele><time>2026-04-12T07:17:45.808Z</time></trkpt><trkpt lat="45.79946450733472" lon="11.762981179395844"><ele>190.0</ele><time>2026-04-12T07:17:46.808Z</time></trkpt><trkpt lat="45.79958519923054" lon="11.763050236846315"><ele>190.0</ele><time>2026-04-12T07:17:47.808Z</time></trkpt><trkpt lat="45.79970525612052" lon="11.763108963732403"><ele>190.0</ele><time>2026-04-12T07:17:48.808Z</time></trkpt><trkpt lat="45.79983382301148" lon="11.763174153504387"><ele>190.0</ele><time>2026-04-12T07:17:49.808Z</time></trkpt><trkpt lat="45.799972822218564" lon="11.763239692436274"><ele>190.0</ele><time>2026-04-12T07:17:50.808Z</time></trkpt><trkpt lat="45.80010732102774" lon="11.763311669963125"><ele>189.5</ele><time>2026-04-12T07:17:51.808Z</time></trkpt><trkpt lat="45.80024699360893" lon="11.763381951269414"><ele>189.0</ele><time>2026-04-12T07:17:52.808Z</time></trkpt><trkpt lat="45.800381497293934" lon="11.763443410553391"><ele>188.5</ele><time>2026-04-12T07:17:53.808Z</time></trkpt><trkpt lat="45.800533161061125" lon="11.763485157855802"><ele>188.0</ele><time>2026-04-12T07:17:54.808Z</time></trkpt><trkpt lat="45.800669789144315" lon="11.76359389000709"><ele>190.0</ele><time>2026-04-12T07:17:55.808Z</time></trkpt><trkpt lat="45.80082543306732" lon="11.763672170445952"><ele>192.0</ele><time>2026-04-12T07:17:56.808Z</time></trkpt><trkpt lat="45.80097923012522" lon="11.76375544739492"><ele>194.0</ele><time>2026-04-12T07:17:57.808Z</time></trkpt><trkpt lat="45.80113289028457" lon="11.763821438504468"><ele>195.0</ele><time>2026-04-12T07:17:58.808Z</time></trkpt><trkpt lat="45.80128371556003" lon="11.763885242163914"><ele>196.0</ele><time>2026-04-12T07:17:59.808Z</time></trkpt><trkpt lat="45.80143071476606" lon="11.763952176550397"><ele>197.0</ele><time>2026-04-12T07:18:00.808Z</time></trkpt><trkpt lat="45.80156709876817" lon="11.764022397122854"><ele>197.0</ele><time>2026-04-12T07:18:01.808Z</time></trkpt><trkpt lat="45.80170634868" lon="11.764095375173946"><ele>197.0</ele><time>2026-04-12T07:18:02.808Z</time></trkpt><trkpt lat="45.80181643033126" lon="11.764191927647795"><ele>197.0</ele><time>2026-04-12T07:18:03.808Z</time></trkpt><trkpt lat="45.80192552425674" lon="11.764342710028796"><ele>197.0</ele><time>2026-04-12T07:18:04.808Z</time></trkpt><trkpt lat="45.80202220082986" lon="11.764517818520307"><ele>198.0</ele><time>2026-04-12T07:18:05.808Z</time></trkpt><trkpt lat="45.802124358539736" lon="11.764686672595037"><ele>199.0</ele><time>2026-04-12T07:18:06.808Z</time></trkpt><trkpt lat="45.802226875347344" lon="11.764819785945003"><ele>200.0</ele><time>2026-04-12T07:18:07.808Z</time></trkpt><trkpt lat="45.80231772361363" lon="11.764968068793507"><ele>201.0</ele><time>2026-04-12T07:18:08.808Z</time></trkpt><trkpt lat="45.80239798161764" lon="11.765123911632632"><ele>201.5</ele><time>2026-04-12T07:18:09.808Z</time></trkpt><trkpt lat="45.802487172826496" lon="11.765263394068345"><ele>202.0</ele><time>2026-04-12T07:18:10.808Z</time></trkpt><trkpt lat="45.80257598362833" lon="11.765412947562652"><ele>202.5</ele><time>2026-04-12T07:18:11.808Z</time></trkpt><trkpt lat="45.802662451308606" lon="11.765573272604605"><ele>203.0</ele><time>2026-04-12T07:18:12.808Z</time></trkpt><trkpt lat="45.80273547455538" lon="11.765744387257298"><ele>200.5</ele><time>2026-04-12T07:18:13.808Z</time></trkpt><trkpt lat="45.802815924682676" lon="11.765910884091438"><ele>198.0</ele><time>2026-04-12T07:18:14.808Z</time></trkpt><trkpt lat="45.80287526227794" lon="11.766051565319326"><ele>195.5</ele><time>2026-04-12T07:18:15.808Z</time></trkpt><trkpt lat="45.802921653119235" lon="11.766221233823174"><ele>193.0</ele><time>2026-04-12T07:18:16.808Z</time></trkpt><trkpt lat="45.80293380458017" lon="11.766403172989069"><ele>192.5</ele><time>2026-04-12T07:18:17.808Z</time></trkpt><trkpt lat="45.80294930284238" lon="11.766619329500426"><ele>192.0</ele><time>2026-04-12T07:18:18.808Z</time></trkpt><trkpt lat="45.80296896769984" lon="11.766820693039625"><ele>191.5</ele><time>2026-04-12T07:18:19.808Z</time></trkpt><trkpt lat="45.80300485183433" lon="11.767026956705584"><ele>191.0</ele><time>2026-04-12T07:18:20.808Z</time></trkpt><trkpt lat="45.803060905672275" lon="11.767209796511054"><ele>190.75</ele><time>2026-04-12T07:18:21.808Z</time></trkpt><trkpt lat="45.803124480470665" lon="11.767381506363689"><ele>190.5</ele><time>2026-04-12T07:18:22.808Z</time></trkpt><trkpt lat="45.80319884352282" lon="11.767554567094177"><ele>190.25</ele><time>2026-04-12T07:18:23.808Z</time></trkpt><trkpt lat="45.80327398813403" lon="11.76771395946516"><ele>190.0</ele><time>2026-04-12T07:18:24.808Z</time></trkpt><trkpt lat="45.803352057465474" lon="11.767885777072381"><ele>189.25</ele><time>2026-04-12T07:18:25.808Z</time></trkpt><trkpt lat="45.803430263184474" lon="11.76805584641386"><ele>188.5</ele><time>2026-04-12T07:18:26.808Z</time></trkpt><trkpt lat="45.80350429617476" lon="11.768230682725596"><ele>187.75</ele><time>2026-04-12T07:18:27.808Z</time></trkpt><trkpt lat="45.803572780898286" lon="11.768403838304339"><ele>187.0</ele><time>2026-04-12T07:18:28.808Z</time></trkpt><trkpt lat="45.803647666537074" lon="11.768584131399168"><ele>186.75</ele><time>2026-04-12T07:18:29.808Z</time></trkpt><trkpt lat="45.80372236692149" lon="11.768744454078247"><ele>186.5</ele><time>2026-04-12T07:18:30.808Z</time></trkpt><trkpt lat="45.80380075659761" lon="11.768923081780509"><ele>186.25</ele><time>2026-04-12T07:18:31.808Z</time></trkpt><trkpt lat="45.80387976458302" lon="11.769102580125594"><ele>186.0</ele><time>2026-04-12T07:18:32.808Z</time></trkpt><trkpt lat="45.80395602205416" lon="11.769295298523042"><ele>185.33333333333334</ele><time>2026-04-12T07:18:33.808Z</time></trkpt><trkpt lat="45.804039184905825" lon="11.769492908319727"><ele>184.66666666666669</ele><time>2026-04-12T07:18:34.808Z</time></trkpt><trkpt lat="45.80411975026863" lon="11.769697472691979"><ele>184.0</ele><time>2026-04-12T07:18:35.808Z</time></trkpt><trkpt lat="45.804205514770736" lon="11.769907047181517"><ele>184.0</ele><time>2026-04-12T07:18:36.808Z</time></trkpt><trkpt lat="45.8042863965846" lon="11.770125180902905"><ele>184.0</ele><time>2026-04-12T07:18:37.808Z</time></trkpt><trkpt lat="45.80435860163568" lon="11.770355750369736"><ele>184.0</ele><time>2026-04-12T07:18:38.808Z</time></trkpt><trkpt lat="45.804431020744595" lon="11.770564248494862"><ele>183.66666666666669</ele><time>2026-04-12T07:18:39.808Z</time></trkpt><trkpt lat="45.80450621277178" lon="11.770778520020636"><ele>183.33333333333334</ele><time>2026-04-12T07:18:40.808Z</time></trkpt><trkpt lat="45.804579190428974" lon="11.771011367524338"><ele>183.0</ele><time>2026-04-12T07:18:41.808Z</time></trkpt><trkpt lat="45.804652371549444" lon="11.771229844361843"><ele>182.33333333333334</ele><time>2026-04-12T07:18:42.808Z</time></trkpt><trkpt lat="45.80473665112266" lon="11.771441031330369"><ele>181.66666666666669</ele><time>2026-04-12T07:18:43.808Z</time></trkpt><trkpt lat="45.804815355096046" lon="11.771657504387564"><ele>181.0</ele><time>2026-04-12T07:18:44.808Z</time></trkpt><trkpt lat="45.80488919725337" lon="11.771867618543151"><ele>180.0</ele><time>2026-04-12T07:18:45.808Z</time></trkpt><trkpt lat="45.804957937370474" lon="11.772081974792833"><ele>179.0</ele><time>2026-04-12T07:18:46.808Z</time></trkpt><trkpt lat="45.80503500163819" lon="11.772265078743002"><ele>178.0</ele><time>2026-04-12T07:18:47.808Z</time></trkpt><trkpt lat="45.80511066479301" lon="11.77245375336351"><ele>178.0</ele><time>2026-04-12T07:18:48.808Z</time></trkpt><trkpt lat="45.80514986223286" lon="11.772637052559793"><ele>178.0</ele><time>2026-04-12T07:18:49.808Z</time></trkpt><trkpt lat="45.80520581075568" lon="11.772796568748733"><ele>178.0</ele><time>2026-04-12T07:18:50.808Z</time></trkpt><trkpt lat="45.80526224938247" lon="11.772956525316866"><ele>178.0</ele><time>2026-04-12T07:18:51.808Z</time></trkpt><trkpt lat="45.80531515206709" lon="11.773081391029546"><ele>177.60000000000002</ele><time>2026-04-12T07:18:52.808Z</time></trkpt><trkpt lat="45.8053762505476" lon="11.773209018954912"><ele>177.20000000000002</ele><time>2026-04-12T07:18:53.808Z</time></trkpt><trkpt lat="45.80543689063166" lon="11.77331296557445"><ele>176.8</ele><time>2026-04-12T07:18:54.808Z</time></trkpt><trkpt lat="45.805484612613704" lon="11.773420138915245"><ele>176.4</ele><time>2026-04-12T07:18:55.808Z</time></trkpt><trkpt lat="45.80552570403096" lon="11.773545780722682"><ele>176.0</ele><time>2026-04-12T07:18:56.808Z</time></trkpt><trkpt lat="45.80557016143981" lon="11.773656330365872"><ele>176.0</ele><time>2026-04-12T07:18:57.808Z</time></trkpt><trkpt lat="45.80563039759779" lon="11.773785543056565"><ele>176.0</ele><time>2026-04-12T07:18:58.808Z</time></trkpt><trkpt lat="45.805690265471355" lon="11.773938744962892"><ele>176.0</ele><time>2026-04-12T07:18:59.808Z</time></trkpt><trkpt lat="45.80573629736028" lon="11.774087406496307"><ele>176.0</ele><time>2026-04-12T07:19:00.808Z</time></trkpt><trkpt lat="45.80579661076896" lon="11.77423705227904"><ele>176.0</ele><time>2026-04-12T07:19:01.808Z</time></trkpt><trkpt lat="45.80583349016537" lon="11.774381765448839"><ele>176.0</ele><time>2026-04-12T07:19:02.808Z</time></trkpt><trkpt lat="45.80588058176033" lon="11.774499089792892"><ele>176.0</ele><time>2026-04-12T07:19:03.808Z</time></trkpt><trkpt lat="45.805931159037044" lon="11.77463245780576"><ele>176.0</ele><time>2026-04-12T07:19:04.808Z</time></trkpt><trkpt lat="45.805981749805" lon="11.77475161453154"><ele>176.0</ele><time>2026-04-12T07:19:05.808Z</time></trkpt><trkpt lat="45.80601704244956" lon="11.77490302810338"><ele>176.0</ele><time>2026-04-12T07:19:06.808Z</time></trkpt><trkpt lat="45.806062974627004" lon="11.775038128332634"><ele>176.0</ele><time>2026-04-12T07:19:07.808Z</time></trkpt><trkpt lat="45.806116856424964" lon="11.775198121998775"><ele>176.0</ele><time>2026-04-12T07:19:08.808Z</time></trkpt><trkpt lat="45.80617459096762" lon="11.775369555874637"><ele>176.0</ele><time>2026-04-12T07:19:09.808Z</time></trkpt><trkpt lat="45.80626932202946" lon="11.775503304722186"><ele>175.75</ele><time>2026-04-12T07:19:10.808Z</time></trkpt><trkpt lat="45.806334941209755" lon="11.775684482756914"><ele>175.5</ele><time>2026-04-12T07:19:11.808Z</time></trkpt><trkpt lat="45.80638258552101" lon="11.775874704846185"><ele>175.25</ele><time>2026-04-12T07:19:12.808Z</time></trkpt><trkpt lat="45.806450472785066" lon="11.776060950512994"><ele>175.0</ele><time>2026-04-12T07:19:13.808Z</time></trkpt><trkpt lat="45.80651756368589" lon="11.776250154592528"><ele>174.66666666666669</ele><time>2026-04-12T07:19:14.808Z</time></trkpt><trkpt lat="45.8065376447533" lon="11.77645976895155"><ele>174.33333333333334</ele><time>2026-04-12T07:19:15.808Z</time></trkpt><trkpt lat="45.80659994319109" lon="11.776686753171013"><ele>174.0</ele><time>2026-04-12T07:19:16.808Z</time></trkpt><trkpt lat="45.80667317475353" lon="11.776890953065521"><ele>173.66666666666666</ele><time>2026-04-12T07:19:17.808Z</time></trkpt><trkpt lat="45.80674232772534" lon="11.777116985648112"><ele>173.33333333333331</ele><time>2026-04-12T07:19:18.808Z</time></trkpt><trkpt lat="45.806792723330865" lon="11.777308192545657"><ele>173.0</ele><time>2026-04-12T07:19:19.808Z</time></trkpt><trkpt lat="45.80685662390164" lon="11.777524601891292"><ele>173.0</ele><time>2026-04-12T07:19:20.808Z</time></trkpt><trkpt lat="45.8069333558787" lon="11.777743594300663"><ele>173.0</ele><time>2026-04-12T07:19:21.808Z</time></trkpt><trkpt lat="45.80701124501001" lon="11.777952000657423"><ele>173.0</ele><time>2026-04-12T07:19:22.808Z</time></trkpt><trkpt lat="45.80707376860632" lon="11.778162420176495"><ele>173.0</ele><time>2026-04-12T07:19:23.808Z</time></trkpt><trkpt lat="45.80714482238009" lon="11.77837245557554"><ele>173.0</ele><time>2026-04-12T07:19:24.808Z</time></trkpt><trkpt lat="45.80721201316555" lon="11.778602387695532"><ele>173.0</ele><time>2026-04-12T07:19:25.808Z</time></trkpt><trkpt lat="45.807281374061205" lon="11.778798789216433"><ele>172.5</ele><time>2026-04-12T07:19:26.808Z</time></trkpt><trkpt lat="45.80734816905034" lon="11.778995755902907"><ele>172.0</ele><time>2026-04-12T07:19:27.808Z</time></trkpt><trkpt lat="45.807409342699856" lon="11.77917818967214"><ele>171.5</ele><time>2026-04-12T07:19:28.808Z</time></trkpt><trkpt lat="45.807462839177006" lon="11.779357623255402"><ele>171.0</ele><time>2026-04-12T07:19:29.808Z</time></trkpt><trkpt lat="45.80752228335774" lon="11.77954415162321"><ele>171.0</ele><time>2026-04-12T07:19:30.808Z</time></trkpt><trkpt lat="45.80757614169622" lon="11.779664912590823"><ele>171.0</ele><time>2026-04-12T07:19:31.808Z</time></trkpt><trkpt lat="45.807621567698355" lon="11.779813985918619"><ele>171.0</ele><time>2026-04-12T07:19:32.808Z</time></trkpt><trkpt lat="45.80767031368381" lon="11.779950931857329"><ele>171.0</ele><time>2026-04-12T07:19:33.808Z</time></trkpt><trkpt lat="45.8077060856748" lon="11.780111999859779"><ele>171.0</ele><time>2026-04-12T07:19:34.808Z</time></trkpt><trkpt lat="45.807766370304236" lon="11.780250918597092"><ele>172.5</ele><time>2026-04-12T07:19:35.808Z</time></trkpt><trkpt lat="45.80781421840406" lon="11.780444548202334"><ele>174.0</ele><time>2026-04-12T07:19:36.808Z</time></trkpt><trkpt lat="45.80786780037205" lon="11.780612919166416"><ele>175.5</ele><time>2026-04-12T07:19:37.808Z</time></trkpt><trkpt lat="45.80792221946542" lon="11.780781855476835"><ele>177.0</ele><time>2026-04-12T07:19:38.808Z</time></trkpt><trkpt lat="45.80797956340504" lon="11.780959961181363"><ele>177.0</ele><time>2026-04-12T07:19:39.808Z</time></trkpt><trkpt lat="45.808049780648055" lon="11.781153823042064"><ele>177.0</ele><time>2026-04-12T07:19:40.808Z</time></trkpt><trkpt lat="45.80811738046786" lon="11.781389608368809"><ele>177.0</ele><time>2026-04-12T07:19:41.808Z</time></trkpt><trkpt lat="45.808194914434466" lon="11.781632519443278"><ele>176.66666666666666</ele><time>2026-04-12T07:19:42.808Z</time></trkpt><trkpt lat="45.808280231864856" lon="11.781852356986484"><ele>176.33333333333331</ele><time>2026-04-12T07:19:43.808Z</time></trkpt><trkpt lat="45.80835520316505" lon="11.782082760604645"><ele>176.0</ele><time>2026-04-12T07:19:44.808Z</time></trkpt><trkpt lat="45.80841196660227" lon="11.7823125364821"><ele>176.0</ele><time>2026-04-12T07:19:45.808Z</time></trkpt><trkpt lat="45.80848103661476" lon="11.782528930350983"><ele>176.0</ele><time>2026-04-12T07:19:46.808Z</time></trkpt><trkpt lat="45.808549676118" lon="11.782743975566092"><ele>176.0</ele><time>2026-04-12T07:19:47.808Z</time></trkpt><trkpt lat="45.808618778967165" lon="11.782960472370483"><ele>177.33333333333331</ele><time>2026-04-12T07:19:48.808Z</time></trkpt><trkpt lat="45.80869943562504" lon="11.783213056911482"><ele>178.66666666666666</ele><time>2026-04-12T07:19:49.808Z</time></trkpt><trkpt lat="45.808769773003434" lon="11.783433123883402"><ele>180.0</ele><time>2026-04-12T07:19:50.808Z</time></trkpt><trkpt lat="45.808832987629195" lon="11.783676587960292"><ele>180.0</ele><time>2026-04-12T07:19:51.808Z</time></trkpt><trkpt lat="45.80892069066677" lon="11.783948981480703"><ele>180.0</ele><time>2026-04-12T07:19:52.808Z</time></trkpt><trkpt lat="45.8089920416127" lon="11.784229841573964"><ele>180.0</ele><time>2026-04-12T07:19:53.808Z</time></trkpt><trkpt lat="45.809081495019164" lon="11.784491307160767"><ele>179.33333333333334</ele><time>2026-04-12T07:19:54.808Z</time></trkpt><trkpt lat="45.809182166300005" lon="11.784746034425208"><ele>178.66666666666669</ele><time>2026-04-12T07:19:55.808Z</time></trkpt><trkpt lat="45.80925454240765" lon="11.784991201213657"><ele>178.0</ele><time>2026-04-12T07:19:56.808Z</time></trkpt><trkpt lat="45.809337015726506" lon="11.785227263535994"><ele>180.0</ele><time>2026-04-12T07:19:57.808Z</time></trkpt><trkpt lat="45.80941077173811" lon="11.785470182087591"><ele>182.0</ele><time>2026-04-12T07:19:58.808Z</time></trkpt><trkpt lat="45.809461868219465" lon="11.78570175958438"><ele>184.0</ele><time>2026-04-12T07:19:59.808Z</time></trkpt><trkpt lat="45.80952803421308" lon="11.785941386578296"><ele>183.0</ele><time>2026-04-12T07:20:00.809Z</time></trkpt><trkpt lat="45.8096036402317" lon="11.786154462432407"><ele>182.0</ele><time>2026-04-12T07:20:01.809Z</time></trkpt><trkpt lat="45.80966775968371" lon="11.786359236333885"><ele>181.0</ele><time>2026-04-12T07:20:02.809Z</time></trkpt><trkpt lat="45.80974170791214" lon="11.786558024028096"><ele>181.0</ele><time>2026-04-12T07:20:03.809Z</time></trkpt><trkpt lat="45.80980852630276" lon="11.78675844981608"><ele>181.0</ele><time>2026-04-12T07:20:04.809Z</time></trkpt><trkpt lat="45.80988305208498" lon="11.786964073122691"><ele>181.0</ele><time>2026-04-12T07:20:05.809Z</time></trkpt><trkpt lat="45.80996926361933" lon="11.787126092240396"><ele>181.33333333333334</ele><time>2026-04-12T07:20:06.809Z</time></trkpt><trkpt lat="45.81007418831609" lon="11.787286297555156"><ele>181.66666666666666</ele><time>2026-04-12T07:20:07.809Z</time></trkpt><trkpt lat="45.810205824311474" lon="11.787453452841984"><ele>182.0</ele><time>2026-04-12T07:20:08.809Z</time></trkpt><trkpt lat="45.81033466427874" lon="11.78762931679262"><ele>181.75</ele><time>2026-04-12T07:20:09.809Z</time></trkpt><trkpt lat="45.810464407790136" lon="11.787745694741586"><ele>181.5</ele><time>2026-04-12T07:20:10.809Z</time></trkpt><trkpt lat="45.8105607316625" lon="11.787859417011433"><ele>181.25</ele><time>2026-04-12T07:20:11.809Z</time></trkpt><trkpt lat="45.810654973541276" lon="11.78797180093065"><ele>181.0</ele><time>2026-04-12T07:20:12.809Z</time></trkpt><trkpt lat="45.81075533340982" lon="11.78809559998438"><ele>181.0</ele><time>2026-04-12T07:20:13.809Z</time></trkpt><trkpt lat="45.81086661115773" lon="11.78822608618261"><ele>181.0</ele><time>2026-04-12T07:20:14.809Z</time></trkpt><trkpt lat="45.8109911659067" lon="11.788344102905773"><ele>181.0</ele><time>2026-04-12T07:20:15.809Z</time></trkpt><trkpt lat="45.81109319976437" lon="11.788480682712038"><ele>181.0</ele><time>2026-04-12T07:20:16.809Z</time></trkpt><trkpt lat="45.81119544958418" lon="11.788601394500434"><ele>181.75</ele><time>2026-04-12T07:20:17.809Z</time></trkpt><trkpt lat="45.81130481733018" lon="11.788730580079859"><ele>182.5</ele><time>2026-04-12T07:20:18.809Z</time></trkpt><trkpt lat="45.81142243560583" lon="11.788853330505658"><ele>183.25</ele><time>2026-04-12T07:20:19.809Z</time></trkpt><trkpt lat="45.81152566327291" lon="11.788976378832123"><ele>184.0</ele><time>2026-04-12T07:20:20.809Z</time></trkpt><trkpt lat="45.81161454743335" lon="11.78909213971246"><ele>184.0</ele><time>2026-04-12T07:20:21.809Z</time></trkpt><trkpt lat="45.81172268089292" lon="11.78920050468473"><ele>184.0</ele><time>2026-04-12T07:20:22.809Z</time></trkpt><trkpt lat="45.81184413318093" lon="11.78934738244167"><ele>184.0</ele><time>2026-04-12T07:20:23.809Z</time></trkpt><trkpt lat="45.81197887776793" lon="11.789528014238874"><ele>185.66666666666669</ele><time>2026-04-12T07:20:24.809Z</time></trkpt><trkpt lat="45.81213800827398" lon="11.789702210056996"><ele>187.33333333333334</ele><time>2026-04-12T07:20:25.809Z</time></trkpt><trkpt lat="45.812292677913284" lon="11.789851853140087"><ele>189.0</ele><time>2026-04-12T07:20:26.809Z</time></trkpt><trkpt lat="45.81241942002087" lon="11.790025338872503"><ele>189.33333333333334</ele><time>2026-04-12T07:20:27.809Z</time></trkpt><trkpt lat="45.81255600090384" lon="11.79018064225866"><ele>189.66666666666669</ele><time>2026-04-12T07:20:28.809Z</time></trkpt><trkpt lat="45.81269707743479" lon="11.790324775610964"><ele>190.0</ele><time>2026-04-12T07:20:29.809Z</time></trkpt><trkpt lat="45.81285237901871" lon="11.790528763756566"><ele>190.0</ele><time>2026-04-12T07:20:30.809Z</time></trkpt><trkpt lat="45.81303403310821" lon="11.790738203645239"><ele>190.0</ele><time>2026-04-12T07:20:31.809Z</time></trkpt><trkpt lat="45.813244274369964" lon="11.790954222655696"><ele>190.5</ele><time>2026-04-12T07:20:32.809Z</time></trkpt><trkpt lat="45.813459751413795" lon="11.791190825255134"><ele>191.0</ele><time>2026-04-12T07:20:33.809Z</time></trkpt><trkpt lat="45.81364459656468" lon="11.791406899502867"><ele>191.0</ele><time>2026-04-12T07:20:34.809Z</time></trkpt><trkpt lat="45.81383505712483" lon="11.791598070761847"><ele>191.0</ele><time>2026-04-12T07:20:35.809Z</time></trkpt><trkpt lat="45.81401243329782" lon="11.791773856091377"><ele>191.0</ele><time>2026-04-12T07:20:36.809Z</time></trkpt><trkpt lat="45.81414687415992" lon="11.79201825361025"><ele>191.33333333333331</ele><time>2026-04-12T07:20:37.809Z</time></trkpt><trkpt lat="45.81431635133278" lon="11.792177007569956"><ele>191.66666666666666</ele><time>2026-04-12T07:20:38.809Z</time></trkpt><trkpt lat="45.814508473415266" lon="11.792327092424152"><ele>192.0</ele><time>2026-04-12T07:20:39.809Z</time></trkpt><trkpt lat="45.81470068761328" lon="11.792470390401071"><ele>192.0</ele><time>2026-04-12T07:20:40.809Z</time></trkpt><trkpt lat="45.81486905461499" lon="11.792600562481937"><ele>192.0</ele><time>2026-04-12T07:20:41.809Z</time></trkpt><trkpt lat="45.814984522924625" lon="11.792721329446497"><ele>192.0</ele><time>2026-04-12T07:20:42.809Z</time></trkpt><trkpt lat="45.81511153429644" lon="11.792898487447815"><ele>191.33333333333334</ele><time>2026-04-12T07:20:43.809Z</time></trkpt><trkpt lat="45.815224541147586" lon="11.793131180283458"><ele>190.66666666666669</ele><time>2026-04-12T07:20:44.809Z</time></trkpt><trkpt lat="45.81532278141245" lon="11.79339492646343"><ele>190.0</ele><time>2026-04-12T07:20:45.809Z</time></trkpt><trkpt lat="45.815396669731356" lon="11.793731918581363"><ele>188.0</ele><time>2026-04-12T07:20:46.809Z</time></trkpt><trkpt lat="45.81544578311606" lon="11.794042685607277"><ele>186.0</ele><time>2026-04-12T07:20:47.809Z</time></trkpt><trkpt lat="45.81543537083259" lon="11.794428115523516"><ele>186.0</ele><time>2026-04-12T07:20:48.809Z</time></trkpt><trkpt lat="45.81542257793917" lon="11.794852637020448"><ele>186.0</ele><time>2026-04-12T07:20:49.809Z</time></trkpt><trkpt lat="45.815435485040624" lon="11.795223659679058"><ele>185.0</ele><time>2026-04-12T07:20:50.809Z</time></trkpt><trkpt lat="45.81543418893424" lon="11.795567590161143"><ele>184.0</ele><time>2026-04-12T07:20:51.809Z</time></trkpt><trkpt lat="45.815430564256346" lon="11.795934209524033"><ele>183.0</ele><time>2026-04-12T07:20:52.809Z</time></trkpt><trkpt lat="45.81543014405997" lon="11.79633868673486"><ele>182.0</ele><time>2026-04-12T07:20:53.809Z</time></trkpt><trkpt lat="45.81542426388692" lon="11.796736049827818"><ele>184.0</ele><time>2026-04-12T07:20:54.809Z</time></trkpt><trkpt lat="45.815425277881566" lon="11.797121266502469"><ele>186.0</ele><time>2026-04-12T07:20:55.809Z</time></trkpt><trkpt lat="45.81542757637289" lon="11.79748024999316"><ele>187.33333333333334</ele><time>2026-04-12T07:20:56.809Z</time></trkpt><trkpt lat="45.81542925598832" lon="11.797795159593987"><ele>188.66666666666669</ele><time>2026-04-12T07:20:57.809Z</time></trkpt><trkpt lat="45.81543344580383" lon="11.798100863477499"><ele>190.0</ele><time>2026-04-12T07:20:58.809Z</time></trkpt><trkpt lat="45.81542232137593" lon="11.798374732414798"><ele>191.0</ele><time>2026-04-12T07:20:59.809Z</time></trkpt><trkpt lat="45.81542079575994" lon="11.79863082944317"><ele>192.0</ele><time>2026-04-12T07:21:00.809Z</time></trkpt><trkpt lat="45.81542426302002" lon="11.798885703972395"><ele>193.0</ele><time>2026-04-12T07:21:01.809Z</time></trkpt><trkpt lat="45.81542018920135" lon="11.799142555757097"><ele>193.33333333333331</ele><time>2026-04-12T07:21:02.809Z</time></trkpt><trkpt lat="45.815427073158716" lon="11.799395638703084"><ele>193.66666666666669</ele><time>2026-04-12T07:21:03.809Z</time></trkpt><trkpt lat="45.815414463563044" lon="11.799645964022325"><ele>194.0</ele><time>2026-04-12T07:21:04.809Z</time></trkpt><trkpt lat="45.81541410102323" lon="11.79991782465191"><ele>195.0</ele><time>2026-04-12T07:21:05.809Z</time></trkpt><trkpt lat="45.815419072830146" lon="11.80017687571892"><ele>196.0</ele><time>2026-04-12T07:21:06.809Z</time></trkpt><trkpt lat="45.81544656278789" lon="11.800433923111507"><ele>197.0</ele><time>2026-04-12T07:21:07.809Z</time></trkpt><trkpt lat="45.81545817381715" lon="11.800712053401577"><ele>197.0</ele><time>2026-04-12T07:21:08.809Z</time></trkpt><trkpt lat="45.81548105465153" lon="11.800963796786638"><ele>197.0</ele><time>2026-04-12T07:21:09.809Z</time></trkpt><trkpt lat="45.81550933479532" lon="11.80120041733249"><ele>197.0</ele><time>2026-04-12T07:21:10.809Z</time></trkpt><trkpt lat="45.81551620613327" lon="11.801453251644142"><ele>197.33333333333334</ele><time>2026-04-12T07:21:11.809Z</time></trkpt><trkpt lat="45.81553143833899" lon="11.801688687520846"><ele>197.66666666666669</ele><time>2026-04-12T07:21:12.809Z</time></trkpt><trkpt lat="45.81555332524436" lon="11.801939151582104"><ele>198.0</ele><time>2026-04-12T07:21:13.809Z</time></trkpt><trkpt lat="45.81557068951199" lon="11.802186462142913"><ele>198.66666666666669</ele><time>2026-04-12T07:21:14.809Z</time></trkpt><trkpt lat="45.81559993312033" lon="11.802404738195172"><ele>199.33333333333334</ele><time>2026-04-12T07:21:15.809Z</time></trkpt><trkpt lat="45.81562910107086" lon="11.802640324484257"><ele>200.0</ele><time>2026-04-12T07:21:16.809Z</time></trkpt><trkpt lat="45.815649648196796" lon="11.802876598990034"><ele>200.33333333333334</ele><time>2026-04-12T07:21:17.809Z</time></trkpt><trkpt lat="45.81567215447643" lon="11.803114577985113"><ele>200.66666666666669</ele><time>2026-04-12T07:21:18.809Z</time></trkpt><trkpt lat="45.81569700896836" lon="11.803349462271983"><ele>201.0</ele><time>2026-04-12T07:21:19.809Z</time></trkpt><trkpt lat="45.815725718508936" lon="11.803586623377875"><ele>200.0</ele><time>2026-04-12T07:21:20.809Z</time></trkpt><trkpt lat="45.81575416731125" lon="11.80382641108709"><ele>199.0</ele><time>2026-04-12T07:21:21.809Z</time></trkpt><trkpt lat="45.815775755079166" lon="11.804062433295714"><ele>198.0</ele><time>2026-04-12T07:21:22.809Z</time></trkpt><trkpt lat="45.81579945053689" lon="11.80429231860326"><ele>198.0</ele><time>2026-04-12T07:21:23.809Z</time></trkpt><trkpt lat="45.81582460620883" lon="11.804500379055671"><ele>198.0</ele><time>2026-04-12T07:21:24.809Z</time></trkpt><trkpt lat="45.81583734567804" lon="11.804693158253766"><ele>198.0</ele><time>2026-04-12T07:21:25.809Z</time></trkpt><trkpt lat="45.815850622622484" lon="11.804863084544072"><ele>198.0</ele><time>2026-04-12T07:21:26.809Z</time></trkpt><trkpt lat="45.81586904868615" lon="11.805032458702307"><ele>198.4</ele><time>2026-04-12T07:21:27.809Z</time></trkpt><trkpt lat="45.81588756790738" lon="11.805190059674059"><ele>198.8</ele><time>2026-04-12T07:21:28.809Z</time></trkpt><trkpt lat="45.81589891371978" lon="11.805345246825365"><ele>199.2</ele><time>2026-04-12T07:21:29.809Z</time></trkpt><trkpt lat="45.815918146409416" lon="11.805491973874704"><ele>199.6</ele><time>2026-04-12T07:21:30.809Z</time></trkpt><trkpt lat="45.81592298203183" lon="11.805619034653795"><ele>200.0</ele><time>2026-04-12T07:21:31.809Z</time></trkpt><trkpt lat="45.815952901097376" lon="11.80576066157449"><ele>200.0</ele><time>2026-04-12T07:21:32.809Z</time></trkpt><trkpt lat="45.8159620629763" lon="11.805862429233093"><ele>200.0</ele><time>2026-04-12T07:21:33.809Z</time></trkpt><trkpt lat="45.81596981624353" lon="11.80595673874099"><ele>200.0</ele><time>2026-04-12T07:21:34.809Z</time></trkpt><trkpt lat="45.81598052543065" lon="11.806114683911954"><ele>200.0</ele><time>2026-04-12T07:21:36.809Z</time></trkpt><trkpt lat="45.815985925038" lon="11.806251413674088"><ele>200.0</ele><time>2026-04-12T07:21:38.809Z</time></trkpt><trkpt lat="45.81593394432188" lon="11.806439545879117"><ele>200.8</ele><time>2026-04-12T07:21:40.809Z</time></trkpt><trkpt lat="45.81592074414144" lon="11.806558923062285"><ele>201.6</ele><time>2026-04-12T07:21:41.809Z</time></trkpt><trkpt lat="45.81596880791735" lon="11.806678762908371"><ele>202.39999999999998</ele><time>2026-04-12T07:21:42.809Z</time></trkpt><trkpt lat="45.81605057784045" lon="11.8067812291123"><ele>203.2</ele><time>2026-04-12T07:21:43.809Z</time></trkpt><trkpt lat="45.81613967905304" lon="11.80690953366336"><ele>204.0</ele><time>2026-04-12T07:21:44.809Z</time></trkpt><trkpt lat="45.816182223312474" lon="11.807100080991527"><ele>205.0</ele><time>2026-04-12T07:21:45.809Z</time></trkpt><trkpt lat="45.81624081577358" lon="11.807302960218175"><ele>206.0</ele><time>2026-04-12T07:21:46.809Z</time></trkpt><trkpt lat="45.81627931816162" lon="11.807503429396798"><ele>207.0</ele><time>2026-04-12T07:21:47.809Z</time></trkpt><trkpt lat="45.81632542277312" lon="11.807707629879264"><ele>208.0</ele><time>2026-04-12T07:21:48.809Z</time></trkpt><trkpt lat="45.816378215348365" lon="11.807941451983874"><ele>208.0</ele><time>2026-04-12T07:21:49.809Z</time></trkpt><trkpt lat="45.81642927192971" lon="11.808167584987599"><ele>208.0</ele><time>2026-04-12T07:21:50.809Z</time></trkpt><trkpt lat="45.81647143771581" lon="11.808354340029508"><ele>208.0</ele><time>2026-04-12T07:21:51.809Z</time></trkpt><trkpt lat="45.81651356082052" lon="11.808540906423154"><ele>208.0</ele><time>2026-04-12T07:21:52.809Z</time></trkpt><trkpt lat="45.81655733764946" lon="11.808734797065894"><ele>208.25</ele><time>2026-04-12T07:21:53.809Z</time></trkpt><trkpt lat="45.816603684184315" lon="11.808940069064866"><ele>208.5</ele><time>2026-04-12T07:21:54.809Z</time></trkpt><trkpt lat="45.81666156687254" lon="11.809131440145821"><ele>208.75</ele><time>2026-04-12T07:21:55.809Z</time></trkpt><trkpt lat="45.81669548365174" lon="11.809315670489152"><ele>209.0</ele><time>2026-04-12T07:21:56.809Z</time></trkpt><trkpt lat="45.816727779705474" lon="11.809484710301058"><ele>209.0</ele><time>2026-04-12T07:21:57.809Z</time></trkpt><trkpt lat="45.816765743649924" lon="11.809644839726822"><ele>209.0</ele><time>2026-04-12T07:21:58.809Z</time></trkpt><trkpt lat="45.81679829771615" lon="11.80980071432178"><ele>209.0</ele><time>2026-04-12T07:21:59.809Z</time></trkpt><trkpt lat="45.81682965229251" lon="11.80995903616087"><ele>209.0</ele><time>2026-04-12T07:22:00.809Z</time></trkpt><trkpt lat="45.81685392963952" lon="11.81012524620474"><ele>210.5</ele><time>2026-04-12T07:22:01.809Z</time></trkpt><trkpt lat="45.81688419202095" lon="11.810289700832465"><ele>212.0</ele><time>2026-04-12T07:22:02.809Z</time></trkpt><trkpt lat="45.81692364316429" lon="11.81046614700189"><ele>213.5</ele><time>2026-04-12T07:22:03.809Z</time></trkpt><trkpt lat="45.81697579432726" lon="11.810664939042065"><ele>215.0</ele><time>2026-04-12T07:22:04.809Z</time></trkpt><trkpt lat="45.8170418305611" lon="11.810859374644252"><ele>215.0</ele><time>2026-04-12T07:22:05.809Z</time></trkpt><trkpt lat="45.81707642492708" lon="11.81105097925304"><ele>215.0</ele><time>2026-04-12T07:22:06.81Z</time></trkpt><trkpt lat="45.81712600765729" lon="11.81125279262283"><ele>215.0</ele><time>2026-04-12T07:22:07.81Z</time></trkpt><trkpt lat="45.817153505537746" lon="11.811460593508624"><ele>215.0</ele><time>2026-04-12T07:22:08.81Z</time></trkpt><trkpt lat="45.81719764791721" lon="11.811697639186892"><ele>214.66666666666669</ele><time>2026-04-12T07:22:09.81Z</time></trkpt><trkpt lat="45.81726347805732" lon="11.811922765220945"><ele>214.33333333333331</ele><time>2026-04-12T07:22:10.81Z</time></trkpt><trkpt lat="45.81728146643812" lon="11.812150321416988"><ele>214.0</ele><time>2026-04-12T07:22:11.81Z</time></trkpt><trkpt lat="45.81734864062557" lon="11.812386632825879"><ele>214.0</ele><time>2026-04-12T07:22:12.81Z</time></trkpt><trkpt lat="45.81742486941055" lon="11.812602073341669"><ele>214.0</ele><time>2026-04-12T07:22:13.81Z</time></trkpt><trkpt lat="45.817483576273155" lon="11.812804039416433"><ele>214.0</ele><time>2026-04-12T07:22:14.81Z</time></trkpt><trkpt lat="45.81752834351184" lon="11.813021057553918"><ele>214.0</ele><time>2026-04-12T07:22:15.81Z</time></trkpt><trkpt lat="45.817572828428325" lon="11.813237468314103"><ele>214.0</ele><time>2026-04-12T07:22:16.81Z</time></trkpt><trkpt lat="45.817627844865555" lon="11.813429401259699"><ele>214.0</ele><time>2026-04-12T07:22:17.81Z</time></trkpt><trkpt lat="45.817686335502394" lon="11.813639313853422"><ele>215.75</ele><time>2026-04-12T07:22:18.81Z</time></trkpt><trkpt lat="45.81773166061336" lon="11.81383110828169"><ele>217.5</ele><time>2026-04-12T07:22:19.81Z</time></trkpt><trkpt lat="45.817769564483584" lon="11.814017428067531"><ele>219.25</ele><time>2026-04-12T07:22:20.81Z</time></trkpt><trkpt lat="45.81780987630994" lon="11.814178851615125"><ele>221.0</ele><time>2026-04-12T07:22:21.81Z</time></trkpt><trkpt lat="45.81783944082229" lon="11.814335486858756"><ele>221.0</ele><time>2026-04-12T07:22:22.81Z</time></trkpt><trkpt lat="45.81787083060807" lon="11.814484101549697"><ele>221.00000000000003</ele><time>2026-04-12T07:22:23.81Z</time></trkpt><trkpt lat="45.817903701069824" lon="11.814626500366675"><ele>221.00000000000003</ele><time>2026-04-12T07:22:24.81Z</time></trkpt><trkpt lat="45.81793188797271" lon="11.814748140984374"><ele>221.0</ele><time>2026-04-12T07:22:25.81Z</time></trkpt><trkpt lat="45.81797131823873" lon="11.814892931312391"><ele>221.0</ele><time>2026-04-12T07:22:26.81Z</time></trkpt><trkpt lat="45.8180043965278" lon="11.815057841405093"><ele>221.0</ele><time>2026-04-12T07:22:27.81Z</time></trkpt><trkpt lat="45.81804824692862" lon="11.815225264012794"><ele>221.0</ele><time>2026-04-12T07:22:28.81Z</time></trkpt><trkpt lat="45.81808301407934" lon="11.81539041319011"><ele>221.0</ele><time>2026-04-12T07:22:29.81Z</time></trkpt><trkpt lat="45.81811325550214" lon="11.81554450910478"><ele>221.0</ele><time>2026-04-12T07:22:30.81Z</time></trkpt><trkpt lat="45.818143030320265" lon="11.81567297019531"><ele>221.0</ele><time>2026-04-12T07:22:31.81Z</time></trkpt><trkpt lat="45.81818374904139" lon="11.815825359541893"><ele>221.00000000000003</ele><time>2026-04-12T07:22:32.81Z</time></trkpt><trkpt lat="45.81823488696336" lon="11.8159341974583"><ele>221.00000000000003</ele><time>2026-04-12T07:22:33.81Z</time></trkpt><trkpt lat="45.8182570186705" lon="11.816042986193645"><ele>221.0</ele><time>2026-04-12T07:22:34.81Z</time></trkpt><trkpt lat="45.81831380195103" lon="11.81614255279895"><ele>221.0</ele><time>2026-04-12T07:22:35.81Z</time></trkpt><trkpt lat="45.8183571461493" lon="11.816246437297558"><ele>221.4</ele><time>2026-04-12T07:22:36.81Z</time></trkpt><trkpt lat="45.81838990977336" lon="11.816371450173659"><ele>221.8</ele><time>2026-04-12T07:22:37.81Z</time></trkpt><trkpt lat="45.81845376706792" lon="11.816491933766407"><ele>222.20000000000002</ele><time>2026-04-12T07:22:38.81Z</time></trkpt><trkpt lat="45.818516430585" lon="11.81663584666225"><ele>222.60000000000002</ele><time>2026-04-12T07:22:39.81Z</time></trkpt><trkpt lat="45.81856706235429" lon="11.816806356363136"><ele>223.0</ele><time>2026-04-12T07:22:40.81Z</time></trkpt><trkpt lat="45.81862025439099" lon="11.816937298341022"><ele>224.4</ele><time>2026-04-12T07:22:41.81Z</time></trkpt><trkpt lat="45.81867047036302" lon="11.817061306793152"><ele>225.8</ele><time>2026-04-12T07:22:42.81Z</time></trkpt><trkpt lat="45.818720045472865" lon="11.817183729100934"><ele>227.2</ele><time>2026-04-12T07:22:43.81Z</time></trkpt><trkpt lat="45.8187759082674" lon="11.817315626388018"><ele>228.6</ele><time>2026-04-12T07:22:44.81Z</time></trkpt><trkpt lat="45.81883282076033" lon="11.817451911897653"><ele>230.0</ele><time>2026-04-12T07:22:45.81Z</time></trkpt><trkpt lat="45.81890016771746" lon="11.81757692551506"><ele>230.5</ele><time>2026-04-12T07:22:46.81Z</time></trkpt><trkpt lat="45.81894860127916" lon="11.817729165896342"><ele>231.0</ele><time>2026-04-12T07:22:47.81Z</time></trkpt><trkpt lat="45.819018647205695" lon="11.81785575673938"><ele>231.5</ele><time>2026-04-12T07:22:48.81Z</time></trkpt><trkpt lat="45.819076863139166" lon="11.818000123821555"><ele>232.0</ele><time>2026-04-12T07:22:49.81Z</time></trkpt><trkpt lat="45.819133030518366" lon="11.818145975943166"><ele>232.0</ele><time>2026-04-12T07:22:50.81Z</time></trkpt><trkpt lat="45.81919979959828" lon="11.818301332258068"><ele>232.0</ele><time>2026-04-12T07:22:51.81Z</time></trkpt><trkpt lat="45.81926231063376" lon="11.818470008088436"><ele>232.0</ele><time>2026-04-12T07:22:52.81Z</time></trkpt><trkpt lat="45.81933264289517" lon="11.818639631237065"><ele>232.0</ele><time>2026-04-12T07:22:53.81Z</time></trkpt><trkpt lat="45.81940106918216" lon="11.818807638293421"><ele>233.25</ele><time>2026-04-12T07:22:54.81Z</time></trkpt><trkpt lat="45.81948384345612" lon="11.818980694153248"><ele>234.5</ele><time>2026-04-12T07:22:55.81Z</time></trkpt><trkpt lat="45.81955157868997" lon="11.819167914607442"><ele>235.75</ele><time>2026-04-12T07:22:56.81Z</time></trkpt><trkpt lat="45.81962478289159" lon="11.81933891350566"><ele>237.0</ele><time>2026-04-12T07:22:57.81Z</time></trkpt><trkpt lat="45.81968815799817" lon="11.819508200557037"><ele>237.75</ele><time>2026-04-12T07:22:58.81Z</time></trkpt><trkpt lat="45.81975266604158" lon="11.819679039185091"><ele>238.5</ele><time>2026-04-12T07:22:59.81Z</time></trkpt><trkpt lat="45.81979070181382" lon="11.819860833709333"><ele>239.25</ele><time>2026-04-12T07:23:00.81Z</time></trkpt><trkpt lat="45.81980356878359" lon="11.820055014607386"><ele>240.0</ele><time>2026-04-12T07:23:01.81Z</time></trkpt><trkpt lat="45.81982874936483" lon="11.82025460233257"><ele>240.75</ele><time>2026-04-12T07:23:02.81Z</time></trkpt><trkpt lat="45.81986924706678" lon="11.820448338332902"><ele>241.5</ele><time>2026-04-12T07:23:03.81Z</time></trkpt><trkpt lat="45.819898476901166" lon="11.820651877379715"><ele>242.25</ele><time>2026-04-12T07:23:04.81Z</time></trkpt><trkpt lat="45.81992518494966" lon="11.820854475928913"><ele>243.0</ele><time>2026-04-12T07:23:05.81Z</time></trkpt><trkpt lat="45.81995646516977" lon="11.821056378470319"><ele>243.5</ele><time>2026-04-12T07:23:06.81Z</time></trkpt><trkpt lat="45.82000444651224" lon="11.821243106494597"><ele>244.0</ele><time>2026-04-12T07:23:07.81Z</time></trkpt><trkpt lat="45.82003710224921" lon="11.821435632194985"><ele>244.5</ele><time>2026-04-12T07:23:08.81Z</time></trkpt><trkpt lat="45.8200652418411" lon="11.821603534186226"><ele>245.0</ele><time>2026-04-12T07:23:09.81Z</time></trkpt><trkpt lat="45.82009496629698" lon="11.821750853243756"><ele>244.6</ele><time>2026-04-12T07:23:10.81Z</time></trkpt><trkpt lat="45.820120698970975" lon="11.82189360899157"><ele>244.2</ele><time>2026-04-12T07:23:11.81Z</time></trkpt><trkpt lat="45.82015051423998" lon="11.822036164782146"><ele>243.8</ele><time>2026-04-12T07:23:12.81Z</time></trkpt><trkpt lat="45.82018517277128" lon="11.822181235793755"><ele>243.4</ele><time>2026-04-12T07:23:13.81Z</time></trkpt><trkpt lat="45.82022198334789" lon="11.82233871145425"><ele>243.0</ele><time>2026-04-12T07:23:14.81Z</time></trkpt><trkpt lat="45.82025976946307" lon="11.82250535515577"><ele>244.4</ele><time>2026-04-12T07:23:15.81Z</time></trkpt><trkpt lat="45.82029165756174" lon="11.822671070535305"><ele>245.8</ele><time>2026-04-12T07:23:16.81Z</time></trkpt><trkpt lat="45.82032575895484" lon="11.822824251727983"><ele>247.2</ele><time>2026-04-12T07:23:17.81Z</time></trkpt><trkpt lat="45.82035468033246" lon="11.822968322658229"><ele>248.6</ele><time>2026-04-12T07:23:18.81Z</time></trkpt><trkpt lat="45.82037269416129" lon="11.82310375429693"><ele>250.0</ele><time>2026-04-12T07:23:19.81Z</time></trkpt><trkpt lat="45.82040190017956" lon="11.82323270249037"><ele>249.99999999999997</ele><time>2026-04-12T07:23:20.81Z</time></trkpt><trkpt lat="45.82044472134443" lon="11.82334917126857"><ele>250.0</ele><time>2026-04-12T07:23:21.81Z</time></trkpt><trkpt lat="45.82047087846501" lon="11.823461856307818"><ele>250.0</ele><time>2026-04-12T07:23:22.81Z</time></trkpt><trkpt lat="45.820500252650575" lon="11.823578832676187"><ele>250.0</ele><time>2026-04-12T07:23:23.81Z</time></trkpt><trkpt lat="45.820528219087876" lon="11.823695644456578"><ele>249.99999999999997</ele><time>2026-04-12T07:23:24.81Z</time></trkpt><trkpt lat="45.82053859715953" lon="11.823801410911553"><ele>250.0</ele><time>2026-04-12T07:23:25.81Z</time></trkpt><trkpt lat="45.820561308154424" lon="11.823956302964893"><ele>250.0</ele><time>2026-04-12T07:23:26.81Z</time></trkpt><trkpt lat="45.820602058630755" lon="11.824118038953229"><ele>250.0</ele><time>2026-04-12T07:23:27.81Z</time></trkpt><trkpt lat="45.82064105290727" lon="11.824278543818677"><ele>250.0</ele><time>2026-04-12T07:23:28.81Z</time></trkpt><trkpt lat="45.82068895612794" lon="11.82445586332246"><ele>250.0</ele><time>2026-04-12T07:23:29.81Z</time></trkpt><trkpt lat="45.82072199429186" lon="11.824663865516417"><ele>249.66666666666666</ele><time>2026-04-12T07:23:30.81Z</time></trkpt><trkpt lat="45.82076536566276" lon="11.824864740881416"><ele>249.33333333333331</ele><time>2026-04-12T07:23:31.81Z</time></trkpt><trkpt lat="45.8208165806314" lon="11.825071969007626"><ele>249.0</ele><time>2026-04-12T07:23:32.81Z</time></trkpt><trkpt lat="45.82086456574023" lon="11.825286652488098"><ele>250.0</ele><time>2026-04-12T07:23:33.81Z</time></trkpt><trkpt lat="45.82091723820843" lon="11.825507963571802"><ele>251.0</ele><time>2026-04-12T07:23:34.81Z</time></trkpt><trkpt lat="45.82096704328242" lon="11.825736496691569"><ele>252.0</ele><time>2026-04-12T07:23:35.81Z</time></trkpt><trkpt lat="45.821026786434786" lon="11.825972122430874"><ele>253.66666666666669</ele><time>2026-04-12T07:23:36.81Z</time></trkpt><trkpt lat="45.82108404447049" lon="11.826206144718286"><ele>255.33333333333334</ele><time>2026-04-12T07:23:37.81Z</time></trkpt><trkpt lat="45.82113993097148" lon="11.826441880980916"><ele>257.0</ele><time>2026-04-12T07:23:38.81Z</time></trkpt><trkpt lat="45.821192347971646" lon="11.826659592091842"><ele>257.5</ele><time>2026-04-12T07:23:39.81Z</time></trkpt><trkpt lat="45.8212409183968" lon="11.826860268765303"><ele>258.0</ele><time>2026-04-12T07:23:40.81Z</time></trkpt><trkpt lat="45.82129165893743" lon="11.82705302181875"><ele>258.5</ele><time>2026-04-12T07:23:41.81Z</time></trkpt><trkpt lat="45.821341440833244" lon="11.827228289915395"><ele>259.0</ele><time>2026-04-12T07:23:42.81Z</time></trkpt><trkpt lat="45.82138172369608" lon="11.82738385241583"><ele>259.0</ele><time>2026-04-12T07:23:43.81Z</time></trkpt><trkpt lat="45.82141766616805" lon="11.827520298842558"><ele>259.0</ele><time>2026-04-12T07:23:44.81Z</time></trkpt><trkpt lat="45.82145412650078" lon="11.827653323595865"><ele>259.0</ele><time>2026-04-12T07:23:45.81Z</time></trkpt><trkpt lat="45.82147307889298" lon="11.827787401750744"><ele>259.0</ele><time>2026-04-12T07:23:46.81Z</time></trkpt><trkpt lat="45.821501645497165" lon="11.827898499025537"><ele>259.0</ele><time>2026-04-12T07:23:47.81Z</time></trkpt><trkpt lat="45.8215442759609" lon="11.828000149449974"><ele>259.2</ele><time>2026-04-12T07:23:48.81Z</time></trkpt><trkpt lat="45.8215729056034" lon="11.828118972961972"><ele>259.4</ele><time>2026-04-12T07:23:49.81Z</time></trkpt><trkpt lat="45.821609316138975" lon="11.828245874661938"><ele>259.6</ele><time>2026-04-12T07:23:50.81Z</time></trkpt><trkpt lat="45.8216426823552" lon="11.828375377771255"><ele>259.8</ele><time>2026-04-12T07:23:51.81Z</time></trkpt><trkpt lat="45.821673818340045" lon="11.828504730958073"><ele>260.0</ele><time>2026-04-12T07:23:52.81Z</time></trkpt><trkpt lat="45.821693916159575" lon="11.828643611948698"><ele>260.0</ele><time>2026-04-12T07:23:53.81Z</time></trkpt><trkpt lat="45.82173013946598" lon="11.828787614706279"><ele>260.0</ele><time>2026-04-12T07:23:54.81Z</time></trkpt><trkpt lat="45.821776716208696" lon="11.828924957997655"><ele>260.0</ele><time>2026-04-12T07:23:55.81Z</time></trkpt><trkpt lat="45.82178606715151" lon="11.829074146075074"><ele>260.0</ele><time>2026-04-12T07:23:56.81Z</time></trkpt><trkpt lat="45.82175022610343" lon="11.82921026361891"><ele>260.0</ele><time>2026-04-12T07:23:57.81Z</time></trkpt><trkpt lat="45.82169408546193" lon="11.829311647167605"><ele>260.1666666666667</ele><time>2026-04-12T07:23:58.81Z</time></trkpt><trkpt lat="45.82163289060462" lon="11.829391737279687"><ele>260.33333333333337</ele><time>2026-04-12T07:23:59.81Z</time></trkpt><trkpt lat="45.8216219305798" lon="11.829502944008437"><ele>260.5</ele><time>2026-04-12T07:24:00.81Z</time></trkpt><trkpt lat="45.821651073443746" lon="11.829608227398126"><ele>260.6666666666667</ele><time>2026-04-12T07:24:01.81Z</time></trkpt><trkpt lat="45.821729496691866" lon="11.829682255548565"><ele>260.8333333333333</ele><time>2026-04-12T07:24:02.81Z</time></trkpt><trkpt lat="45.82182581041435" lon="11.829718829744492"><ele>261.0</ele><time>2026-04-12T07:24:03.81Z</time></trkpt><trkpt lat="45.82192622601377" lon="11.829732986286254"><ele>261.6</ele><time>2026-04-12T07:24:04.81Z</time></trkpt><trkpt lat="45.82201845981837" lon="11.829795299208001"><ele>262.20000000000005</ele><time>2026-04-12T07:24:05.81Z</time></trkpt><trkpt lat="45.82209563008199" lon="11.829899927556392"><ele>262.79999999999995</ele><time>2026-04-12T07:24:06.81Z</time></trkpt><trkpt lat="45.82217602102904" lon="11.830011360751746"><ele>263.4</ele><time>2026-04-12T07:24:07.81Z</time></trkpt><trkpt lat="45.822240938593374" lon="11.830145191311683"><ele>264.0</ele><time>2026-04-12T07:24:08.81Z</time></trkpt><trkpt lat="45.82230566239038" lon="11.830287828997706"><ele>264.25</ele><time>2026-04-12T07:24:09.81Z</time></trkpt><trkpt lat="45.82234208672395" lon="11.830393804877628"><ele>264.5</ele><time>2026-04-12T07:24:10.81Z</time></trkpt><trkpt lat="45.82222699940452" lon="11.8302697291506"><ele>264.75</ele><time>2026-04-12T07:24:14.81Z</time></trkpt><trkpt lat="45.82208000997477" lon="11.830230481724564"><ele>265.0</ele><time>2026-04-12T07:24:15.81Z</time></trkpt><trkpt lat="45.821986918895114" lon="11.830171183245206"><ele>270.0</ele><time>2026-04-12T07:24:16.81Z</time></trkpt><trkpt lat="45.822957798715336" lon="11.831505187398658"><ele>270.0</ele><time>2026-04-12T07:24:17.81Z</time></trkpt><trkpt lat="45.82304619689867" lon="11.831663262595901"><ele>270.0</ele><time>2026-04-12T07:24:18.81Z</time></trkpt><trkpt lat="45.82313057587284" lon="11.831825949939706"><ele>270.0</ele><time>2026-04-12T07:24:19.81Z</time></trkpt><trkpt lat="45.82322222569387" lon="11.831990272252295"><ele>270.0</ele><time>2026-04-12T07:24:20.81Z</time></trkpt><trkpt lat="45.82330685959056" lon="11.832144171657708"><ele>270.0</ele><time>2026-04-12T07:24:21.81Z</time></trkpt><trkpt lat="45.823381069940346" lon="11.83229179508889"><ele>270.0</ele><time>2026-04-12T07:24:22.81Z</time></trkpt><trkpt lat="45.823455700373" lon="11.83242755830887"><ele>270.0</ele><time>2026-04-12T07:24:23.81Z</time></trkpt><trkpt lat="45.82353061720073" lon="11.832546289378222"><ele>270.0</ele><time>2026-04-12T07:24:24.81Z</time></trkpt><trkpt lat="45.823606767010965" lon="11.832660515632979"><ele>270.6</ele><time>2026-04-12T07:24:25.81Z</time></trkpt><trkpt lat="45.82368972758079" lon="11.83277125217108"><ele>271.2</ele><time>2026-04-12T07:24:26.81Z</time></trkpt><trkpt lat="45.82375618971609" lon="11.832868335838647"><ele>271.8</ele><time>2026-04-12T07:24:27.81Z</time></trkpt><trkpt lat="45.82384600089359" lon="11.83297195213318"><ele>272.4</ele><time>2026-04-12T07:24:28.81Z</time></trkpt><trkpt lat="45.82393918881317" lon="11.833073511210324"><ele>273.0</ele><time>2026-04-12T07:24:29.81Z</time></trkpt><trkpt lat="45.82404886405399" lon="11.833180881194595"><ele>273.0</ele><time>2026-04-12T07:24:30.81Z</time></trkpt><trkpt lat="45.82416089094629" lon="11.833300461299713"><ele>273.0</ele><time>2026-04-12T07:24:31.81Z</time></trkpt><trkpt lat="45.82427785702818" lon="11.833415200816722"><ele>273.0</ele><time>2026-04-12T07:24:32.81Z</time></trkpt><trkpt lat="45.8243886542669" lon="11.83354124682712"><ele>273.0</ele><time>2026-04-12T07:24:33.81Z</time></trkpt><trkpt lat="45.824511182634424" lon="11.833671152487465"><ele>274.25</ele><time>2026-04-12T07:24:34.81Z</time></trkpt><trkpt lat="45.8246111533051" lon="11.833783297770276"><ele>275.5</ele><time>2026-04-12T07:24:35.81Z</time></trkpt><trkpt lat="45.82471192825006" lon="11.83388693151861"><ele>276.75</ele><time>2026-04-12T07:24:36.81Z</time></trkpt><trkpt lat="45.82480703167778" lon="11.83399052491054"><ele>278.0</ele><time>2026-04-12T07:24:37.81Z</time></trkpt><trkpt lat="45.824909035902536" lon="11.834098522803467"><ele>278.0</ele><time>2026-04-12T07:24:38.81Z</time></trkpt><trkpt lat="45.82501678296587" lon="11.834216944560312"><ele>278.0</ele><time>2026-04-12T07:24:39.81Z</time></trkpt><trkpt lat="45.82512246055066" lon="11.834334571693867"><ele>278.0</ele><time>2026-04-12T07:24:40.81Z</time></trkpt><trkpt lat="45.8251910882802" lon="11.834435039666507"><ele>278.0</ele><time>2026-04-12T07:24:41.81Z</time></trkpt><trkpt lat="45.825318944219504" lon="11.834572395727099"><ele>279.6666666666667</ele><time>2026-04-12T07:24:42.81Z</time></trkpt><trkpt lat="45.82544633188022" lon="11.834709020116309"><ele>281.3333333333333</ele><time>2026-04-12T07:24:43.81Z</time></trkpt><trkpt lat="45.825571214257124" lon="11.834857255946174"><ele>283.0</ele><time>2026-04-12T07:24:44.81Z</time></trkpt><trkpt lat="45.825681672429184" lon="11.834980497487132"><ele>283.0</ele><time>2026-04-12T07:24:45.81Z</time></trkpt><trkpt lat="45.825785591138114" lon="11.83508122448204"><ele>283.0</ele><time>2026-04-12T07:24:46.81Z</time></trkpt><trkpt lat="45.825879306354196" lon="11.835166908472695"><ele>283.0</ele><time>2026-04-12T07:24:47.81Z</time></trkpt><trkpt lat="45.825974610566334" lon="11.835222070431541"><ele>283.0</ele><time>2026-04-12T07:24:48.81Z</time></trkpt><trkpt lat="45.82605178356855" lon="11.835349860907366"><ele>283.75</ele><time>2026-04-12T07:24:49.81Z</time></trkpt><trkpt lat="45.82613718754774" lon="11.835459793344187"><ele>284.5</ele><time>2026-04-12T07:24:50.81Z</time></trkpt><trkpt lat="45.826254423973786" lon="11.835560739952642"><ele>285.25</ele><time>2026-04-12T07:24:51.81Z</time></trkpt><trkpt lat="45.8263723896207" lon="11.83568105829674"><ele>286.0</ele><time>2026-04-12T07:24:52.81Z</time></trkpt><trkpt lat="45.8264399917234" lon="11.835846409777139"><ele>285.75</ele><time>2026-04-12T07:24:53.81Z</time></trkpt><trkpt lat="45.82648849348749" lon="11.836030412678188"><ele>285.5</ele><time>2026-04-12T07:24:54.81Z</time></trkpt><trkpt lat="45.8265317155218" lon="11.836236852717986"><ele>285.25</ele><time>2026-04-12T07:24:55.81Z</time></trkpt><trkpt lat="45.826570913826416" lon="11.836419800110294"><ele>285.0</ele><time>2026-04-12T07:24:56.81Z</time></trkpt><trkpt lat="45.82660699006485" lon="11.836588176296337"><ele>285.0</ele><time>2026-04-12T07:24:57.81Z</time></trkpt><trkpt lat="45.82663352662486" lon="11.836681208837978"><ele>285.0</ele><time>2026-04-12T07:24:59.81Z</time></trkpt><trkpt lat="45.82665059769544" lon="11.836791702866817"><ele>285.0</ele><time>2026-04-12T07:25:01.81Z</time></trkpt><trkpt lat="45.82668193633964" lon="11.836900801897185"><ele>285.0</ele><time>2026-04-12T07:25:04.81Z</time></trkpt><trkpt lat="45.82670962215917" lon="11.83698970889915"><ele>285.0</ele><time>2026-04-12T07:25:06.81Z</time></trkpt><trkpt lat="45.82671722277096" lon="11.837103600798612"><ele>285.0</ele><time>2026-04-12T07:25:10.81Z</time></trkpt><trkpt lat="45.826762802567565" lon="11.837318014373231"><ele>285.0</ele><time>2026-04-12T07:25:12.81Z</time></trkpt><trkpt lat="45.826785931245674" lon="11.837426814813359"><ele>285.0</ele><time>2026-04-12T07:25:13.81Z</time></trkpt><trkpt lat="45.82680402739237" lon="11.837540113024522"><ele>285.0</ele><time>2026-04-12T07:25:16.81Z</time></trkpt><trkpt lat="45.82683859831863" lon="11.837635184226599"><ele>285.0</ele><time>2026-04-12T07:25:17.81Z</time></trkpt><trkpt lat="45.82684852707226" lon="11.837729078277604"><ele>285.0</ele><time>2026-04-12T07:25:18.81Z</time></trkpt><trkpt lat="45.82687922468512" lon="11.837878729093951"><ele>285.0</ele><time>2026-04-12T07:25:20.81Z</time></trkpt><trkpt lat="45.827026104593" lon="11.837876589739004"><ele>287.0</ele><time>2026-04-12T07:25:22.81Z</time></trkpt><trkpt lat="45.82712618414703" lon="11.837825583974116"><ele>289.0</ele><time>2026-04-12T07:25:24.81Z</time></trkpt><trkpt lat="45.82720723685881" lon="11.83777841521001"><ele>291.0</ele><time>2026-04-12T07:25:25.81Z</time></trkpt><trkpt lat="45.82727550958744" lon="11.837753527150142"><ele>293.0</ele><time>2026-04-12T07:25:26.81Z</time></trkpt><trkpt lat="45.82737572732572" lon="11.83771202680179"><ele>295.0</ele><time>2026-04-12T07:25:27.81Z</time></trkpt><trkpt lat="45.827479407810785" lon="11.837656578815235"><ele>295.2</ele><time>2026-04-12T07:25:28.81Z</time></trkpt><trkpt lat="45.827580697918094" lon="11.837564861876151"><ele>295.4</ele><time>2026-04-12T07:25:29.81Z</time></trkpt><trkpt lat="45.82765612326574" lon="11.837508265761567"><ele>295.6</ele><time>2026-04-12T07:25:30.81Z</time></trkpt><trkpt lat="45.8277488285247" lon="11.83746630742089"><ele>295.8</ele><time>2026-04-12T07:25:31.81Z</time></trkpt><trkpt lat="45.82783663588778" lon="11.837420419059852"><ele>296.0</ele><time>2026-04-12T07:25:32.81Z</time></trkpt><trkpt lat="45.827925324806934" lon="11.83736060324274"><ele>296.0</ele><time>2026-04-12T07:25:33.81Z</time></trkpt><trkpt lat="45.828006561313316" lon="11.837311613053233"><ele>296.0</ele><time>2026-04-12T07:25:34.81Z</time></trkpt><trkpt lat="45.82808438575819" lon="11.837275696511858"><ele>296.0</ele><time>2026-04-12T07:25:35.81Z</time></trkpt><trkpt lat="45.828160463973255" lon="11.837247297166744"><ele>296.0</ele><time>2026-04-12T07:25:36.81Z</time></trkpt><trkpt lat="45.828245198265996" lon="11.83721130641537"><ele>296.0</ele><time>2026-04-12T07:25:37.81Z</time></trkpt><trkpt lat="45.82833717467867" lon="11.837187802614581"><ele>296.0</ele><time>2026-04-12T07:25:38.81Z</time></trkpt><trkpt lat="45.8284403664743" lon="11.83717290634371"><ele>297.0</ele><time>2026-04-12T07:25:39.81Z</time></trkpt><trkpt lat="45.82855394481939" lon="11.837142689779292"><ele>298.0</ele><time>2026-04-12T07:25:40.81Z</time></trkpt><trkpt lat="45.82866454124413" lon="11.837145887588784"><ele>299.0</ele><time>2026-04-12T07:25:41.81Z</time></trkpt><trkpt lat="45.82877280649093" lon="11.837102056058587"><ele>300.0</ele><time>2026-04-12T07:25:42.81Z</time></trkpt><trkpt lat="45.82885920983076" lon="11.837054291077907"><ele>301.0</ele><time>2026-04-12T07:25:43.81Z</time></trkpt><trkpt lat="45.82894407514067" lon="11.837012881456058"><ele>301.0</ele><time>2026-04-12T07:25:44.81Z</time></trkpt><trkpt lat="45.82903642113521" lon="11.836994310877701"><ele>301.0</ele><time>2026-04-12T07:25:45.81Z</time></trkpt><trkpt lat="45.829116402827374" lon="11.836935439682687"><ele>301.0</ele><time>2026-04-12T07:25:46.81Z</time></trkpt><trkpt lat="45.82919630375582" lon="11.836898482595805"><ele>301.0</ele><time>2026-04-12T07:25:47.81Z</time></trkpt><trkpt lat="45.82928683707133" lon="11.83687121853645"><ele>301.0</ele><time>2026-04-12T07:25:48.81Z</time></trkpt><trkpt lat="45.82937082459695" lon="11.83683345016979"><ele>301.0</ele><time>2026-04-12T07:25:49.81Z</time></trkpt><trkpt lat="45.82944009640073" lon="11.836782935642695"><ele>302.16666666666663</ele><time>2026-04-12T07:25:50.81Z</time></trkpt><trkpt lat="45.829537119852546" lon="11.836762937052619"><ele>303.3333333333333</ele><time>2026-04-12T07:25:51.81Z</time></trkpt><trkpt lat="45.829616020157516" lon="11.836708420618796"><ele>304.5</ele><time>2026-04-12T07:25:52.81Z</time></trkpt><trkpt lat="45.82969069295022" lon="11.836699257828203"><ele>305.6666666666667</ele><time>2026-04-12T07:25:53.81Z</time></trkpt><trkpt lat="45.8297468513619" lon="11.836655205301732"><ele>306.83333333333337</ele><time>2026-04-12T07:25:54.81Z</time></trkpt><trkpt lat="45.82982272069734" lon="11.836645180075886"><ele>308.0</ele><time>2026-04-12T07:25:56.81Z</time></trkpt><trkpt lat="45.82991480481518" lon="11.836608816136478"><ele>308.0</ele><time>2026-04-12T07:25:58.81Z</time></trkpt><trkpt lat="45.82998226139784" lon="11.836585603438099"><ele>308.0</ele><time>2026-04-12T07:25:59.81Z</time></trkpt><trkpt lat="45.83007862760293" lon="11.836544384916312"><ele>308.0</ele><time>2026-04-12T07:26:01.81Z</time></trkpt><trkpt lat="45.8301568434279" lon="11.836486494745962"><ele>308.0</ele><time>2026-04-12T07:26:03.81Z</time></trkpt><trkpt lat="45.83023517786397" lon="11.836544059117559"><ele>308.0</ele><time>2026-04-12T07:26:05.81Z</time></trkpt><trkpt lat="45.83020653703721" lon="11.836647490281605"><ele>308.0</ele><time>2026-04-12T07:26:06.81Z</time></trkpt><trkpt lat="45.83022618359311" lon="11.836779978514677"><ele>308.6666666666667</ele><time>2026-04-12T07:26:08.81Z</time></trkpt><trkpt lat="45.830241515714874" lon="11.836870635363105"><ele>309.33333333333337</ele><time>2026-04-12T07:26:10.81Z</time></trkpt><trkpt lat="45.83025942926977" lon="11.836960269912067"><ele>310.0</ele><time>2026-04-12T07:26:12.81Z</time></trkpt><trkpt lat="45.83027155812359" lon="11.837055851161216"><ele>310.6666666666667</ele><time>2026-04-12T07:26:14.81Z</time></trkpt><trkpt lat="45.83027460861978" lon="11.837159799491427"><ele>311.3333333333333</ele><time>2026-04-12T07:26:16.81Z</time></trkpt><trkpt lat="45.8302946858231" lon="11.837279880228028"><ele>312.0</ele><time>2026-04-12T07:26:18.811Z</time></trkpt><trkpt lat="45.830321568817915" lon="11.837423079329522"><ele>312.0</ele><time>2026-04-12T07:26:20.811Z</time></trkpt><trkpt lat="45.83034585856752" lon="11.8375628252245"><ele>312.0</ele><time>2026-04-12T07:26:22.811Z</time></trkpt><trkpt lat="45.830371025059215" lon="11.837693262776591"><ele>312.0</ele><time>2026-04-12T07:26:24.811Z</time></trkpt><trkpt lat="45.830362176389386" lon="11.83779453872491"><ele>312.0</ele><time>2026-04-12T07:26:27.811Z</time></trkpt><trkpt lat="45.830300083899964" lon="11.837873805614164"><ele>312.0</ele><time>2026-04-12T07:26:29.811Z</time></trkpt><trkpt lat="45.83025076248594" lon="11.83796533348328"><ele>312.0</ele><time>2026-04-12T07:26:32.811Z</time></trkpt><trkpt lat="45.83018654699887" lon="11.838084038163142"><ele>311.0</ele><time>2026-04-12T07:26:35.811Z</time></trkpt><trkpt lat="45.8302069172702" lon="11.838192861226341"><ele>310.0</ele><time>2026-04-12T07:26:37.811Z</time></trkpt><trkpt lat="45.830326654931945" lon="11.838231887809169"><ele>309.0</ele><time>2026-04-12T07:26:39.811Z</time></trkpt><trkpt lat="45.83038669551982" lon="11.838200439665025"><ele>308.0</ele><time>2026-04-12T07:26:40.811Z</time></trkpt><trkpt lat="45.830453365973256" lon="11.838202281527089"><ele>307.0</ele><time>2026-04-12T07:26:41.811Z</time></trkpt><trkpt lat="45.830520895518994" lon="11.838244249063283"><ele>306.0</ele><time>2026-04-12T07:26:42.811Z</time></trkpt><trkpt lat="45.83060887599278" lon="11.838308357386714"><ele>306.0</ele><time>2026-04-12T07:26:43.811Z</time></trkpt><trkpt lat="45.83068958031204" lon="11.838405260607312"><ele>306.0</ele><time>2026-04-12T07:26:44.811Z</time></trkpt><trkpt lat="45.83074722704997" lon="11.838507510184797"><ele>306.0</ele><time>2026-04-12T07:26:45.811Z</time></trkpt><trkpt lat="45.83081033856347" lon="11.838630715930988"><ele>306.0</ele><time>2026-04-12T07:26:46.811Z</time></trkpt><trkpt lat="45.83086660243255" lon="11.838745865780348"><ele>306.0</ele><time>2026-04-12T07:26:47.811Z</time></trkpt><trkpt lat="45.83094153093081" lon="11.838852150225733"><ele>306.75</ele><time>2026-04-12T07:26:48.811Z</time></trkpt><trkpt lat="45.83101845771623" lon="11.838987058754299"><ele>307.5</ele><time>2026-04-12T07:26:49.811Z</time></trkpt><trkpt lat="45.831091546253035" lon="11.839129570729108"><ele>308.25</ele><time>2026-04-12T07:26:50.811Z</time></trkpt><trkpt lat="45.83116234634492" lon="11.839248261344295"><ele>309.0</ele><time>2026-04-12T07:26:51.811Z</time></trkpt><trkpt lat="45.83124930704801" lon="11.839387230790212"><ele>309.0</ele><time>2026-04-12T07:26:52.811Z</time></trkpt><trkpt lat="45.83132895184306" lon="11.839529203051113"><ele>309.0</ele><time>2026-04-12T07:26:53.811Z</time></trkpt><trkpt lat="45.831396850007366" lon="11.839659326540094"><ele>309.0</ele><time>2026-04-12T07:26:54.811Z</time></trkpt><trkpt lat="45.8314699309687" lon="11.8397954924951"><ele>309.0</ele><time>2026-04-12T07:26:55.811Z</time></trkpt><trkpt lat="45.83152885035612" lon="11.839960924900028"><ele>309.0</ele><time>2026-04-12T07:26:56.811Z</time></trkpt><trkpt lat="45.83158904743951" lon="11.840127190551437"><ele>309.0</ele><time>2026-04-12T07:26:57.811Z</time></trkpt><trkpt lat="45.83164428582933" lon="11.840306722323362"><ele>309.0</ele><time>2026-04-12T07:26:58.811Z</time></trkpt><trkpt lat="45.83170144511119" lon="11.840491382013568"><ele>309.0</ele><time>2026-04-12T07:26:59.811Z</time></trkpt><trkpt lat="45.83177123653065" lon="11.84065761340623"><ele>310.8</ele><time>2026-04-12T07:27:00.811Z</time></trkpt><trkpt lat="45.83180690248759" lon="11.840827464603539"><ele>312.59999999999997</ele><time>2026-04-12T07:27:01.811Z</time></trkpt><trkpt lat="45.83185031008147" lon="11.840964614351847"><ele>314.4</ele><time>2026-04-12T07:27:02.811Z</time></trkpt><trkpt lat="45.83190558152622" lon="11.84109357867234"><ele>316.2</ele><time>2026-04-12T07:27:03.811Z</time></trkpt><trkpt lat="45.83195414538148" lon="11.841243864492547"><ele>318.0</ele><time>2026-04-12T07:27:04.811Z</time></trkpt><trkpt lat="45.832004033473986" lon="11.841403905372266"><ele>318.0</ele><time>2026-04-12T07:27:05.811Z</time></trkpt><trkpt lat="45.832050663953524" lon="11.841572289436167"><ele>318.0</ele><time>2026-04-12T07:27:06.811Z</time></trkpt><trkpt lat="45.83210582279384" lon="11.841731051144338"><ele>318.0</ele><time>2026-04-12T07:27:07.811Z</time></trkpt><trkpt lat="45.83216495334264" lon="11.84185187710238"><ele>318.0</ele><time>2026-04-12T07:27:08.811Z</time></trkpt><trkpt lat="45.83223656891822" lon="11.841941156964138"><ele>318.0</ele><time>2026-04-12T07:27:09.811Z</time></trkpt><trkpt lat="45.83232958479276" lon="11.842005927427644"><ele>318.25</ele><time>2026-04-12T07:27:10.811Z</time></trkpt><trkpt lat="45.83244428735467" lon="11.842046962147107"><ele>318.5</ele><time>2026-04-12T07:27:11.811Z</time></trkpt><trkpt lat="45.83259803201945" lon="11.842132194321884"><ele>318.75</ele><time>2026-04-12T07:27:12.811Z</time></trkpt><trkpt lat="45.83273624871461" lon="11.842177420924257"><ele>319.0</ele><time>2026-04-12T07:27:13.811Z</time></trkpt><trkpt lat="45.83286599960941" lon="11.842229213115118"><ele>319.0</ele><time>2026-04-12T07:27:14.811Z</time></trkpt><trkpt lat="45.83298624135741" lon="11.842264712005978"><ele>319.0</ele><time>2026-04-12T07:27:15.811Z</time></trkpt><trkpt lat="45.8331038880538" lon="11.842311734494588"><ele>319.0</ele><time>2026-04-12T07:27:16.811Z</time></trkpt><trkpt lat="45.83321570123163" lon="11.842363626489258"><ele>319.0</ele><time>2026-04-12T07:27:17.811Z</time></trkpt><trkpt lat="45.83334540198685" lon="11.842396893469592"><ele>319.0</ele><time>2026-04-12T07:27:18.811Z</time></trkpt><trkpt lat="45.83346715596191" lon="11.84245309865146"><ele>319.0</ele><time>2026-04-12T07:27:19.811Z</time></trkpt><trkpt lat="45.833574926298695" lon="11.842498228612516"><ele>319.0</ele><time>2026-04-12T07:27:20.811Z</time></trkpt><trkpt lat="45.83365590751696" lon="11.84254771327772"><ele>319.0</ele><time>2026-04-12T07:27:21.811Z</time></trkpt><trkpt lat="45.833714535233696" lon="11.842625577379327"><ele>319.0</ele><time>2026-04-12T07:27:22.811Z</time></trkpt><trkpt lat="45.833754097934914" lon="11.842715101509777"><ele>319.8333333333333</ele><time>2026-04-12T07:27:23.811Z</time></trkpt><trkpt lat="45.83374853996563" lon="11.842810536473287"><ele>320.66666666666663</ele><time>2026-04-12T07:27:24.811Z</time></trkpt><trkpt lat="45.83367030282892" lon="11.842926288730105"><ele>321.5</ele><time>2026-04-12T07:27:26.811Z</time></trkpt><trkpt lat="45.833630883192036" lon="11.843014854053635"><ele>322.3333333333333</ele><time>2026-04-12T07:27:27.811Z</time></trkpt><trkpt lat="45.83358251285891" lon="11.843123529100133"><ele>323.1666666666667</ele><time>2026-04-12T07:27:28.811Z</time></trkpt><trkpt lat="45.83352995781525" lon="11.843240686386586"><ele>324.0</ele><time>2026-04-12T07:27:29.811Z</time></trkpt><trkpt lat="45.833472721712866" lon="11.843372650280864"><ele>322.75</ele><time>2026-04-12T07:27:30.811Z</time></trkpt><trkpt lat="45.83340953825081" lon="11.843518682608412"><ele>321.5</ele><time>2026-04-12T07:27:31.811Z</time></trkpt><trkpt lat="45.83333072468574" lon="11.84370083956969"><ele>320.25</ele><time>2026-04-12T07:27:32.811Z</time></trkpt><trkpt lat="45.83326095064434" lon="11.843860348507805"><ele>319.0</ele><time>2026-04-12T07:27:33.811Z</time></trkpt><trkpt lat="45.833165813264664" lon="11.844080993804987"><ele>319.0</ele><time>2026-04-12T07:27:34.811Z</time></trkpt><trkpt lat="45.833075656992555" lon="11.844285813523893"><ele>319.0</ele><time>2026-04-12T07:27:35.811Z</time></trkpt><trkpt lat="45.833024751903444" lon="11.844408336832267"><ele>319.0</ele><time>2026-04-12T07:27:36.811Z</time></trkpt><trkpt lat="45.832943053813146" lon="11.844597819579501"><ele>319.0</ele><time>2026-04-12T07:27:37.811Z</time></trkpt><trkpt lat="45.83283616860294" lon="11.84487347599891"><ele>319.3333333333333</ele><time>2026-04-12T07:27:38.811Z</time></trkpt><trkpt lat="45.83268929861527" lon="11.845094524155668"><ele>319.6666666666667</ele><time>2026-04-12T07:27:39.811Z</time></trkpt><trkpt lat="45.8326425221405" lon="11.845252007790062"><ele>320.0</ele><time>2026-04-12T07:27:40.811Z</time></trkpt><trkpt lat="45.832620815212756" lon="11.845474278423103"><ele>320.4</ele><time>2026-04-12T07:27:41.811Z</time></trkpt><trkpt lat="45.83264883233918" lon="11.845572836246475"><ele>320.8</ele><time>2026-04-12T07:27:43.811Z</time></trkpt><trkpt lat="45.83265861213367" lon="11.845696896289681"><ele>321.20000000000005</ele><time>2026-04-12T07:27:44.811Z</time></trkpt><trkpt lat="45.83267412711041" lon="11.845824669209685"><ele>321.6</ele><time>2026-04-12T07:27:45.811Z</time></trkpt><trkpt lat="45.83270696748711" lon="11.84596497235169"><ele>322.0</ele><time>2026-04-12T07:27:46.811Z</time></trkpt><trkpt lat="45.832769687262896" lon="11.846094376221934"><ele>322.75</ele><time>2026-04-12T07:27:47.811Z</time></trkpt><trkpt lat="45.83284714591426" lon="11.846217654355145"><ele>323.5</ele><time>2026-04-12T07:27:48.811Z</time></trkpt><trkpt lat="45.83293990336801" lon="11.846337127650996"><ele>324.25</ele><time>2026-04-12T07:27:49.811Z</time></trkpt><trkpt lat="45.83303542759539" lon="11.846462525844208"><ele>325.0</ele><time>2026-04-12T07:27:50.811Z</time></trkpt><trkpt lat="45.83314071896675" lon="11.846595344393364"><ele>325.0</ele><time>2026-04-12T07:27:51.811Z</time></trkpt><trkpt lat="45.83325961069966" lon="11.846743921307727"><ele>325.0</ele><time>2026-04-12T07:27:52.811Z</time></trkpt><trkpt lat="45.8333734955687" lon="11.846906590864513"><ele>325.0</ele><time>2026-04-12T07:27:53.811Z</time></trkpt><trkpt lat="45.833500046916924" lon="11.847105690038457"><ele>326.3333333333333</ele><time>2026-04-12T07:27:54.811Z</time></trkpt><trkpt lat="45.83365093518066" lon="11.847306336672986"><ele>327.6666666666667</ele><time>2026-04-12T07:27:55.811Z</time></trkpt><trkpt lat="45.83383619730424" lon="11.847492178329572"><ele>329.0</ele><time>2026-04-12T07:27:56.811Z</time></trkpt><trkpt lat="45.83404988603923" lon="11.847668237986342"><ele>329.0</ele><time>2026-04-12T07:27:57.811Z</time></trkpt><trkpt lat="45.834263431925685" lon="11.847813728711275"><ele>329.0</ele><time>2026-04-12T07:27:58.811Z</time></trkpt><trkpt lat="45.83444942149461" lon="11.847946107570028"><ele>329.0</ele><time>2026-04-12T07:27:59.811Z</time></trkpt><trkpt lat="45.83462964148901" lon="11.848071457108407"><ele>330.6666666666667</ele><time>2026-04-12T07:28:00.811Z</time></trkpt><trkpt lat="45.834796652314324" lon="11.848183406598958"><ele>332.3333333333333</ele><time>2026-04-12T07:28:01.811Z</time></trkpt><trkpt lat="45.834949069964885" lon="11.848301909085373"><ele>334.0</ele><time>2026-04-12T07:28:02.811Z</time></trkpt><trkpt lat="45.83507457004631" lon="11.84849834697813"><ele>335.66666666666663</ele><time>2026-04-12T07:28:03.811Z</time></trkpt><trkpt lat="45.8351993056562" lon="11.848722935119271"><ele>337.3333333333333</ele><time>2026-04-12T07:28:04.811Z</time></trkpt><trkpt lat="45.83530902770541" lon="11.84898827150971"><ele>339.0</ele><time>2026-04-12T07:28:05.811Z</time></trkpt><trkpt lat="45.83537385578986" lon="11.849276062158562"><ele>339.0</ele><time>2026-04-12T07:28:06.811Z</time></trkpt><trkpt lat="45.83542239673696" lon="11.849557849103308"><ele>339.0</ele><time>2026-04-12T07:28:07.811Z</time></trkpt><trkpt lat="45.835473891572576" lon="11.849811446362637"><ele>339.0</ele><time>2026-04-12T07:28:08.811Z</time></trkpt><trkpt lat="45.835496802958914" lon="11.850051917625276"><ele>338.6666666666667</ele><time>2026-04-12T07:28:09.811Z</time></trkpt><trkpt lat="45.835542108125104" lon="11.850280694950001"><ele>338.33333333333337</ele><time>2026-04-12T07:28:10.811Z</time></trkpt><trkpt lat="45.83557633139028" lon="11.850503871662376"><ele>338.0</ele><time>2026-04-12T07:28:11.811Z</time></trkpt><trkpt lat="45.83561332429461" lon="11.850721671546713"><ele>338.0</ele><time>2026-04-12T07:28:12.811Z</time></trkpt><trkpt lat="45.83565898299395" lon="11.850948728563987"><ele>338.0</ele><time>2026-04-12T07:28:13.811Z</time></trkpt><trkpt lat="45.83569753784105" lon="11.85118357236174"><ele>338.0</ele><time>2026-04-12T07:28:14.811Z</time></trkpt><trkpt lat="45.83573308579068" lon="11.851406065428797"><ele>337.6666666666667</ele><time>2026-04-12T07:28:15.811Z</time></trkpt><trkpt lat="45.83576475963187" lon="11.85161327501688"><ele>337.3333333333333</ele><time>2026-04-12T07:28:16.811Z</time></trkpt><trkpt lat="45.83581372710076" lon="11.851845806153628"><ele>337.0</ele><time>2026-04-12T07:28:17.811Z</time></trkpt><trkpt lat="45.83586714138127" lon="11.852122539524789"><ele>337.0</ele><time>2026-04-12T07:28:18.811Z</time></trkpt><trkpt lat="45.83594477125929" lon="11.852393623265778"><ele>337.0</ele><time>2026-04-12T07:28:19.811Z</time></trkpt><trkpt lat="45.83601849497302" lon="11.85262426383987"><ele>337.0</ele><time>2026-04-12T07:28:20.811Z</time></trkpt><trkpt lat="45.836072048849985" lon="11.852791058116443"><ele>337.75</ele><time>2026-04-12T07:28:21.811Z</time></trkpt><trkpt lat="45.836106507607944" lon="11.852898474064435"><ele>338.5</ele><time>2026-04-12T07:28:22.811Z</time></trkpt><trkpt lat="45.83618097508249" lon="11.853090454990355"><ele>339.25</ele><time>2026-04-12T07:28:23.811Z</time></trkpt><trkpt lat="45.836195828726694" lon="11.853312788339244"><ele>340.0</ele><time>2026-04-12T07:28:24.813Z</time></trkpt><trkpt lat="45.83623143370524" lon="11.85351947860432"><ele>340.0</ele><time>2026-04-12T07:28:25.813Z</time></trkpt><trkpt lat="45.83634482912656" lon="11.853772221253434"><ele>340.0</ele><time>2026-04-12T07:28:26.813Z</time></trkpt><trkpt lat="45.836450783504766" lon="11.853997226786824"><ele>340.0</ele><time>2026-04-12T07:28:27.813Z</time></trkpt><trkpt lat="45.83653339062449" lon="11.854219262377438"><ele>338.3333333333333</ele><time>2026-04-12T07:28:28.813Z</time></trkpt><trkpt lat="45.83660222621895" lon="11.85442633811542"><ele>336.6666666666667</ele><time>2026-04-12T07:28:29.813Z</time></trkpt><trkpt lat="45.83666926773686" lon="11.854635107008297"><ele>335.0</ele><time>2026-04-12T07:28:30.813Z</time></trkpt><trkpt lat="45.83674174717" lon="11.854851886855874"><ele>336.0</ele><time>2026-04-12T07:28:31.813Z</time></trkpt><trkpt lat="45.83681300435581" lon="11.855075178585558"><ele>337.0</ele><time>2026-04-12T07:28:32.813Z</time></trkpt><trkpt lat="45.8368817540283" lon="11.855300419922456"><ele>338.0</ele><time>2026-04-12T07:28:33.813Z</time></trkpt><trkpt lat="45.83694627104668" lon="11.85552196780352"><ele>338.0</ele><time>2026-04-12T07:28:34.813Z</time></trkpt><trkpt lat="45.83701669911975" lon="11.855732148192896"><ele>338.0</ele><time>2026-04-12T07:28:35.813Z</time></trkpt><trkpt lat="45.83708540867029" lon="11.855953746179427"><ele>338.0</ele><time>2026-04-12T07:28:36.813Z</time></trkpt><trkpt lat="45.837160250051326" lon="11.85617526903042"><ele>337.0</ele><time>2026-04-12T07:28:37.813Z</time></trkpt><trkpt lat="45.83724346252601" lon="11.85639031689664"><ele>336.0</ele><time>2026-04-12T07:28:38.813Z</time></trkpt><trkpt lat="45.837350207658794" lon="11.856598186651295"><ele>335.0</ele><time>2026-04-12T07:28:39.813Z</time></trkpt><trkpt lat="45.83747922656522" lon="11.85679705731647"><ele>335.0</ele><time>2026-04-12T07:28:40.813Z</time></trkpt><trkpt lat="45.837623760483766" lon="11.856981377290612"><ele>335.0</ele><time>2026-04-12T07:28:41.813Z</time></trkpt><trkpt lat="45.83778530249432" lon="11.857147346735836"><ele>335.0</ele><time>2026-04-12T07:28:42.813Z</time></trkpt><trkpt lat="45.83794059161043" lon="11.857291044761526"><ele>335.0</ele><time>2026-04-12T07:28:43.813Z</time></trkpt><trkpt lat="45.83812381758889" lon="11.857403041270185"><ele>335.0</ele><time>2026-04-12T07:28:44.813Z</time></trkpt><trkpt lat="45.83831525253609" lon="11.857495041747745"><ele>335.0</ele><time>2026-04-12T07:28:45.813Z</time></trkpt><trkpt lat="45.83849036553073" lon="11.857585812057895"><ele>335.33333333333337</ele><time>2026-04-12T07:28:46.813Z</time></trkpt><trkpt lat="45.838657715978016" lon="11.857674362690139"><ele>335.6666666666667</ele><time>2026-04-12T07:28:47.813Z</time></trkpt><trkpt lat="45.838815744434534" lon="11.85777335863075"><ele>336.0</ele><time>2026-04-12T07:28:48.813Z</time></trkpt><trkpt lat="45.83898518337675" lon="11.857875455655108"><ele>336.0</ele><time>2026-04-12T07:28:49.813Z</time></trkpt><trkpt lat="45.83915627550118" lon="11.85798201939824"><ele>336.0</ele><time>2026-04-12T07:28:50.813Z</time></trkpt><trkpt lat="45.839322705197105" lon="11.858087577999074"><ele>336.0</ele><time>2026-04-12T07:28:51.813Z</time></trkpt><trkpt lat="45.839496408201214" lon="11.858185480568224"><ele>336.3333333333333</ele><time>2026-04-12T07:28:52.813Z</time></trkpt><trkpt lat="45.83966733670808" lon="11.858277291432248"><ele>336.66666666666663</ele><time>2026-04-12T07:28:53.813Z</time></trkpt><trkpt lat="45.839841292668865" lon="11.858373698047005"><ele>337.0</ele><time>2026-04-12T07:28:54.813Z</time></trkpt><trkpt lat="45.84000803055737" lon="11.85847506552202"><ele>337.0</ele><time>2026-04-12T07:28:55.813Z</time></trkpt><trkpt lat="45.8401701788969" lon="11.858574340996002"><ele>337.0</ele><time>2026-04-12T07:28:56.813Z</time></trkpt><trkpt lat="45.840331410684854" lon="11.858670896173132"><ele>337.0</ele><time>2026-04-12T07:28:57.813Z</time></trkpt><trkpt lat="45.840503306486276" lon="11.858757721929186"><ele>337.0</ele><time>2026-04-12T07:28:58.813Z</time></trkpt><trkpt lat="45.840667944198316" lon="11.858852615146265"><ele>337.0</ele><time>2026-04-12T07:28:59.813Z</time></trkpt><trkpt lat="45.84082868475961" lon="11.858960457024775"><ele>337.0</ele><time>2026-04-12T07:29:00.813Z</time></trkpt><trkpt lat="45.840988238531665" lon="11.859058536680212"><ele>337.0</ele><time>2026-04-12T07:29:01.813Z</time></trkpt><trkpt lat="45.84113350350732" lon="11.85913752722163"><ele>337.0</ele><time>2026-04-12T07:29:02.813Z</time></trkpt><trkpt lat="45.84128720431362" lon="11.85918803927699"><ele>337.0</ele><time>2026-04-12T07:29:03.813Z</time></trkpt><trkpt lat="45.84142941680058" lon="11.859209759650357"><ele>337.0</ele><time>2026-04-12T07:29:04.813Z</time></trkpt><trkpt lat="45.84159683935437" lon="11.859191866962645"><ele>337.0</ele><time>2026-04-12T07:29:05.813Z</time></trkpt><trkpt lat="45.84174156168702" lon="11.859149126912245"><ele>337.0</ele><time>2026-04-12T07:29:06.813Z</time></trkpt><trkpt lat="45.841884778161976" lon="11.859079290234469"><ele>336.20000000000005</ele><time>2026-04-12T07:29:07.813Z</time></trkpt><trkpt lat="45.842000476227" lon="11.85900128597889"><ele>335.4</ele><time>2026-04-12T07:29:08.813Z</time></trkpt><trkpt lat="45.842087615664134" lon="11.858935036197968"><ele>334.6</ele><time>2026-04-12T07:29:09.813Z</time></trkpt><trkpt lat="45.842181783498255" lon="11.858880869343476"><ele>333.79999999999995</ele><time>2026-04-12T07:29:10.813Z</time></trkpt><trkpt lat="45.84227101423284" lon="11.858872891339955"><ele>333.0</ele><time>2026-04-12T07:29:11.813Z</time></trkpt><trkpt lat="45.84237494423353" lon="11.858929822235437"><ele>333.0</ele><time>2026-04-12T07:29:12.813Z</time></trkpt><trkpt lat="45.8424361178851" lon="11.85908539238425"><ele>333.0</ele><time>2026-04-12T07:29:13.813Z</time></trkpt><trkpt lat="45.8425105066088" lon="11.859260347461548"><ele>333.0</ele><time>2026-04-12T07:29:14.813Z</time></trkpt><trkpt lat="45.84259811368286" lon="11.859432400513805"><ele>333.0</ele><time>2026-04-12T07:29:15.813Z</time></trkpt><trkpt lat="45.84267513686669" lon="11.859616399745086"><ele>334.0</ele><time>2026-04-12T07:29:16.813Z</time></trkpt><trkpt lat="45.84275056206721" lon="11.859816617490305"><ele>335.0</ele><time>2026-04-12T07:29:17.813Z</time></trkpt><trkpt lat="45.84283802653816" lon="11.860014899364536"><ele>336.0</ele><time>2026-04-12T07:29:18.813Z</time></trkpt><trkpt lat="45.84290929415668" lon="11.860209793013068"><ele>333.3333333333333</ele><time>2026-04-12T07:29:19.813Z</time></trkpt><trkpt lat="45.84299565620714" lon="11.860387828112263"><ele>330.66666666666663</ele><time>2026-04-12T07:29:20.813Z</time></trkpt><trkpt lat="45.843073920275536" lon="11.860582241396779"><ele>328.0</ele><time>2026-04-12T07:29:21.813Z</time></trkpt><trkpt lat="45.84315823614406" lon="11.860781705259864"><ele>326.25</ele><time>2026-04-12T07:29:22.813Z</time></trkpt><trkpt lat="45.843240328053014" lon="11.860964854801347"><ele>324.5</ele><time>2026-04-12T07:29:23.813Z</time></trkpt><trkpt lat="45.84333286315803" lon="11.861118862927471"><ele>322.75</ele><time>2026-04-12T07:29:24.813Z</time></trkpt><trkpt lat="45.843433989974756" lon="11.861234052504487"><ele>321.0</ele><time>2026-04-12T07:29:25.813Z</time></trkpt><trkpt lat="45.84355550920698" lon="11.86130193660688"><ele>319.25</ele><time>2026-04-12T07:29:26.813Z</time></trkpt><trkpt lat="45.84368326806866" lon="11.86131665468228"><ele>317.5</ele><time>2026-04-12T07:29:27.813Z</time></trkpt><trkpt lat="45.84381748799175" lon="11.861282603262056"><ele>315.75</ele><time>2026-04-12T07:29:28.813Z</time></trkpt><trkpt lat="45.84393772563421" lon="11.861205629107351"><ele>314.0</ele><time>2026-04-12T07:29:29.813Z</time></trkpt><trkpt lat="45.84403667586962" lon="11.861089032443804"><ele>314.0</ele><time>2026-04-12T07:29:30.813Z</time></trkpt><trkpt lat="45.844101208271574" lon="11.860955194837222"><ele>314.0</ele><time>2026-04-12T07:29:31.813Z</time></trkpt><trkpt lat="45.84413737193752" lon="11.8607916720531"><ele>314.0</ele><time>2026-04-12T07:29:32.813Z</time></trkpt><trkpt lat="45.84415569633319" lon="11.860621847707424"><ele>314.0</ele><time>2026-04-12T07:29:33.813Z</time></trkpt><trkpt lat="45.84412263538712" lon="11.86044514012823"><ele>315.4</ele><time>2026-04-12T07:29:34.813Z</time></trkpt><trkpt lat="45.84407977069502" lon="11.860277748458676"><ele>316.79999999999995</ele><time>2026-04-12T07:29:35.813Z</time></trkpt><trkpt lat="45.84405142705744" lon="11.860125745955443"><ele>318.20000000000005</ele><time>2026-04-12T07:29:36.813Z</time></trkpt><trkpt lat="45.84403273624127" lon="11.859973749988985"><ele>319.6</ele><time>2026-04-12T07:29:37.813Z</time></trkpt><trkpt lat="45.84402478279575" lon="11.859822832670451"><ele>321.0</ele><time>2026-04-12T07:29:38.813Z</time></trkpt><trkpt lat="45.84408422646002" lon="11.859683014595529"><ele>321.4</ele><time>2026-04-12T07:29:39.813Z</time></trkpt><trkpt lat="45.84413240351521" lon="11.859546253429347"><ele>321.8</ele><time>2026-04-12T07:29:40.813Z</time></trkpt><trkpt lat="45.84417093085898" lon="11.859409428583286"><ele>322.2</ele><time>2026-04-12T07:29:41.813Z</time></trkpt><trkpt lat="45.8442279291643" lon="11.859306028619253"><ele>322.59999999999997</ele><time>2026-04-12T07:29:42.813Z</time></trkpt><trkpt lat="45.844298999625046" lon="11.859214251261376"><ele>323.0</ele><time>2026-04-12T07:29:43.813Z</time></trkpt><trkpt lat="45.8444001851969" lon="11.859144262894182"><ele>324.5</ele><time>2026-04-12T07:29:44.813Z</time></trkpt><trkpt lat="45.844534132553264" lon="11.859152594012034"><ele>326.0</ele><time>2026-04-12T07:29:45.813Z</time></trkpt><trkpt lat="45.84463591416948" lon="11.85923797310611"><ele>327.5</ele><time>2026-04-12T07:29:46.813Z</time></trkpt><trkpt lat="45.844727008347284" lon="11.859326313414254"><ele>329.0</ele><time>2026-04-12T07:29:47.813Z</time></trkpt><trkpt lat="45.84484063698753" lon="11.859402864011383"><ele>329.5</ele><time>2026-04-12T07:29:48.813Z</time></trkpt><trkpt lat="45.84495903219941" lon="11.859497560562211"><ele>330.0</ele><time>2026-04-12T07:29:49.813Z</time></trkpt><trkpt lat="45.84508143109966" lon="11.85959464277592"><ele>330.5</ele><time>2026-04-12T07:29:50.813Z</time></trkpt><trkpt lat="45.8451988598067" lon="11.859680605702085"><ele>331.0</ele><time>2026-04-12T07:29:51.813Z</time></trkpt><trkpt lat="45.84530790618699" lon="11.859766886177308"><ele>331.0</ele><time>2026-04-12T07:29:52.813Z</time></trkpt><trkpt lat="45.84539146597669" lon="11.859866932646385"><ele>331.0</ele><time>2026-04-12T07:29:53.813Z</time></trkpt><trkpt lat="45.84545206054911" lon="11.860000012084297"><ele>331.0</ele><time>2026-04-12T07:29:54.813Z</time></trkpt><trkpt lat="45.84546238895268" lon="11.860157152561813"><ele>331.0</ele><time>2026-04-12T07:29:55.813Z</time></trkpt><trkpt lat="45.84542554531912" lon="11.860335428944948"><ele>330.75</ele><time>2026-04-12T07:29:56.813Z</time></trkpt><trkpt lat="45.84531773287975" lon="11.86048619168979"><ele>330.5</ele><time>2026-04-12T07:29:57.813Z</time></trkpt><trkpt lat="45.84524000735086" lon="11.860658381761327"><ele>330.25</ele><time>2026-04-12T07:29:58.813Z</time></trkpt><trkpt lat="45.8451562424008" lon="11.860820297064594"><ele>330.0</ele><time>2026-04-12T07:29:59.813Z</time></trkpt><trkpt lat="45.845063566493224" lon="11.860966362012931"><ele>324.0</ele><time>2026-04-12T07:30:00.813Z</time></trkpt><trkpt lat="45.844989494842956" lon="11.861111419239679"><ele>318.0</ele><time>2026-04-12T07:30:01.813Z</time></trkpt><trkpt lat="45.84494491035155" lon="11.86128056404292"><ele>312.0</ele><time>2026-04-12T07:30:02.813Z</time></trkpt><trkpt lat="45.84491611313115" lon="11.861476373258506"><ele>306.0</ele><time>2026-04-12T07:30:03.813Z</time></trkpt><trkpt lat="45.84490598124871" lon="11.861704835896115"><ele>305.5</ele><time>2026-04-12T07:30:04.813Z</time></trkpt><trkpt lat="45.84490726213878" lon="11.861925869093737"><ele>305.0</ele><time>2026-04-12T07:30:05.813Z</time></trkpt><trkpt lat="45.844912540520376" lon="11.862138989081839"><ele>304.5</ele><time>2026-04-12T07:30:06.813Z</time></trkpt><trkpt lat="45.84490517860579" lon="11.862344753355764"><ele>304.0</ele><time>2026-04-12T07:30:07.813Z</time></trkpt><trkpt lat="45.84491248631676" lon="11.862546827393443"><ele>300.3333333333333</ele><time>2026-04-12T07:30:08.813Z</time></trkpt><trkpt lat="45.844945373215545" lon="11.862766451403035"><ele>296.6666666666667</ele><time>2026-04-12T07:30:09.813Z</time></trkpt><trkpt lat="45.84498265618822" lon="11.862989888473207"><ele>293.0</ele><time>2026-04-12T07:30:10.813Z</time></trkpt><trkpt lat="45.84500904553665" lon="11.86321211587317"><ele>293.0</ele><time>2026-04-12T07:30:11.813Z</time></trkpt><trkpt lat="45.84503236846315" lon="11.86342945114644"><ele>293.0</ele><time>2026-04-12T07:30:12.813Z</time></trkpt><trkpt lat="45.8450536037805" lon="11.86364568467824"><ele>293.0</ele><time>2026-04-12T07:30:13.813Z</time></trkpt><trkpt lat="45.84507883306288" lon="11.863848487671673"><ele>293.0</ele><time>2026-04-12T07:30:14.813Z</time></trkpt><trkpt lat="45.845100818088454" lon="11.864067077898893"><ele>291.25</ele><time>2026-04-12T07:30:15.813Z</time></trkpt><trkpt lat="45.845116025805645" lon="11.864274685061941"><ele>289.5</ele><time>2026-04-12T07:30:16.813Z</time></trkpt><trkpt lat="45.845137133188516" lon="11.864482160432932"><ele>287.75</ele><time>2026-04-12T07:30:17.813Z</time></trkpt><trkpt lat="45.845158107710304" lon="11.864695806176929"><ele>286.0</ele><time>2026-04-12T07:30:18.813Z</time></trkpt><trkpt lat="45.8451789941515" lon="11.864911597199375"><ele>280.3333333333333</ele><time>2026-04-12T07:30:19.813Z</time></trkpt><trkpt lat="45.845202196830215" lon="11.865134626644334"><ele>274.6666666666667</ele><time>2026-04-12T07:30:20.813Z</time></trkpt><trkpt lat="45.8452228824933" lon="11.865355101432375"><ele>269.0</ele><time>2026-04-12T07:30:21.813Z</time></trkpt><trkpt lat="45.84524231833027" lon="11.865572911949378"><ele>269.0</ele><time>2026-04-12T07:30:22.813Z</time></trkpt><trkpt lat="45.8452575093108" lon="11.865784544092737"><ele>269.0</ele><time>2026-04-12T07:30:23.813Z</time></trkpt><trkpt lat="45.84528440455257" lon="11.865997542088781"><ele>269.0</ele><time>2026-04-12T07:30:24.813Z</time></trkpt><trkpt lat="45.84529680650697" lon="11.866209387752464"><ele>269.0</ele><time>2026-04-12T07:30:25.813Z</time></trkpt><trkpt lat="45.845316654964506" lon="11.8664158375474"><ele>269.33333333333337</ele><time>2026-04-12T07:30:26.813Z</time></trkpt><trkpt lat="45.84536910583373" lon="11.866637104467681"><ele>269.6666666666667</ele><time>2026-04-12T07:30:27.813Z</time></trkpt><trkpt lat="45.84542978918228" lon="11.866876211888655"><ele>270.0</ele><time>2026-04-12T07:30:28.813Z</time></trkpt><trkpt lat="45.84549100607255" lon="11.867104675600853"><ele>268.6666666666667</ele><time>2026-04-12T07:30:29.813Z</time></trkpt><trkpt lat="45.845580709790774" lon="11.867309654868716"><ele>267.33333333333337</ele><time>2026-04-12T07:30:30.814Z</time></trkpt><trkpt lat="45.845690258107076" lon="11.867485639376142"><ele>266.0</ele><time>2026-04-12T07:30:31.814Z</time></trkpt><trkpt lat="45.845796084241755" lon="11.867661937763879"><ele>265.6666666666667</ele><time>2026-04-12T07:30:32.814Z</time></trkpt><trkpt lat="45.845916118010095" lon="11.86782328872485"><ele>265.3333333333333</ele><time>2026-04-12T07:30:33.814Z</time></trkpt><trkpt lat="45.84605669187568" lon="11.867977451148096"><ele>265.0</ele><time>2026-04-12T07:30:34.814Z</time></trkpt><trkpt lat="45.84621488495754" lon="11.868146469652636"><ele>265.0</ele><time>2026-04-12T07:30:35.814Z</time></trkpt><trkpt lat="45.84635930008413" lon="11.868302717552817"><ele>265.0</ele><time>2026-04-12T07:30:36.814Z</time></trkpt><trkpt lat="45.84652402014098" lon="11.868440802113506"><ele>265.0</ele><time>2026-04-12T07:30:37.814Z</time></trkpt><trkpt lat="45.84662790084403" lon="11.868528807050842"><ele>264.3333333333333</ele><time>2026-04-12T07:30:38.814Z</time></trkpt><trkpt lat="45.84677894529484" lon="11.86873683648029"><ele>263.6666666666667</ele><time>2026-04-12T07:30:39.814Z</time></trkpt><trkpt lat="45.846979489783664" lon="11.86889903535009"><ele>263.0</ele><time>2026-04-12T07:30:40.814Z</time></trkpt><trkpt lat="45.84695053511093" lon="11.868790613283872"><ele>263.0</ele><time>2026-04-12T07:30:41.814Z</time></trkpt><trkpt lat="45.84706294594621" lon="11.868883164628999"><ele>263.0</ele><time>2026-04-12T07:30:42.814Z</time></trkpt><trkpt lat="45.8471679725167" lon="11.868977946333512"><ele>263.0</ele><time>2026-04-12T07:30:43.814Z</time></trkpt><trkpt lat="45.847265747633976" lon="11.86907037681151"><ele>263.0</ele><time>2026-04-12T07:30:44.814Z</time></trkpt><trkpt lat="45.847380920133894" lon="11.869158735058916"><ele>263.0</ele><time>2026-04-12T07:30:45.814Z</time></trkpt><trkpt lat="45.847486787131004" lon="11.869241618623384"><ele>263.0</ele><time>2026-04-12T07:30:46.814Z</time></trkpt><trkpt lat="45.847586344754056" lon="11.86933247186943"><ele>263.0</ele><time>2026-04-12T07:30:47.814Z</time></trkpt><trkpt lat="45.84769118521124" lon="11.86942600606029"><ele>263.0</ele><time>2026-04-12T07:30:48.814Z</time></trkpt><trkpt lat="45.84779283827136" lon="11.869513974459878"><ele>261.75</ele><time>2026-04-12T07:30:49.814Z</time></trkpt><trkpt lat="45.84789817509659" lon="11.869599224040872"><ele>260.5</ele><time>2026-04-12T07:30:50.814Z</time></trkpt><trkpt lat="45.84799549629178" lon="11.869685091538509"><ele>259.25</ele><time>2026-04-12T07:30:51.814Z</time></trkpt><trkpt lat="45.84808653182716" lon="11.869768356773383"><ele>258.0</ele><time>2026-04-12T07:30:52.814Z</time></trkpt><trkpt lat="45.84818048952785" lon="11.869846036732506"><ele>258.0</ele><time>2026-04-12T07:30:53.814Z</time></trkpt><trkpt lat="45.848270587010504" lon="11.8699189787742"><ele>258.0</ele><time>2026-04-12T07:30:54.814Z</time></trkpt><trkpt lat="45.848356914457895" lon="11.870014619474793"><ele>258.0</ele><time>2026-04-12T07:30:55.814Z</time></trkpt><trkpt lat="45.84845764458567" lon="11.870075258302272"><ele>258.0</ele><time>2026-04-12T07:30:56.814Z</time></trkpt><trkpt lat="45.848546127673" lon="11.870180969389907"><ele>258.0</ele><time>2026-04-12T07:30:57.814Z</time></trkpt><trkpt lat="45.848652483575975" lon="11.870256147193082"><ele>259.25</ele><time>2026-04-12T07:30:58.814Z</time></trkpt><trkpt lat="45.84876464936918" lon="11.870354679867674"><ele>260.5</ele><time>2026-04-12T07:30:59.814Z</time></trkpt><trkpt lat="45.84888229158329" lon="11.870461277810941"><ele>261.75</ele><time>2026-04-12T07:31:00.814Z</time></trkpt><trkpt lat="45.84901616081384" lon="11.870590373552906"><ele>263.0</ele><time>2026-04-12T07:31:01.814Z</time></trkpt><trkpt lat="45.849170581389124" lon="11.87071824038651"><ele>263.6666666666667</ele><time>2026-04-12T07:31:02.814Z</time></trkpt><trkpt lat="45.84933018988187" lon="11.870861766313297"><ele>264.3333333333333</ele><time>2026-04-12T07:31:03.814Z</time></trkpt><trkpt lat="45.84946566258243" lon="11.870987573616333"><ele>265.0</ele><time>2026-04-12T07:31:04.814Z</time></trkpt><trkpt lat="45.849606307859474" lon="11.87110861519835"><ele>265.25</ele><time>2026-04-12T07:31:05.814Z</time></trkpt><trkpt lat="45.84973088936237" lon="11.871218194131064"><ele>265.5</ele><time>2026-04-12T07:31:06.814Z</time></trkpt><trkpt lat="45.84984783354753" lon="11.87133545042535"><ele>265.75</ele><time>2026-04-12T07:31:07.814Z</time></trkpt><trkpt lat="45.84996950477884" lon="11.871445295846398"><ele>266.0</ele><time>2026-04-12T07:31:08.814Z</time></trkpt><trkpt lat="45.85009618406831" lon="11.871554432085572"><ele>266.0</ele><time>2026-04-12T07:31:09.814Z</time></trkpt><trkpt lat="45.850227524250535" lon="11.871672842735157"><ele>266.0</ele><time>2026-04-12T07:31:10.814Z</time></trkpt><trkpt lat="45.850360372058205" lon="11.87180212169582"><ele>266.0</ele><time>2026-04-12T07:31:11.814Z</time></trkpt><trkpt lat="45.85048308416086" lon="11.871945640318025"><ele>266.0</ele><time>2026-04-12T07:31:12.814Z</time></trkpt><trkpt lat="45.850595855299126" lon="11.872085895384382"><ele>266.0</ele><time>2026-04-12T07:31:13.814Z</time></trkpt><trkpt lat="45.85071402655777" lon="11.872268843276311"><ele>266.0</ele><time>2026-04-12T07:31:14.814Z</time></trkpt><trkpt lat="45.85081210239578" lon="11.872452525045555"><ele>266.0</ele><time>2026-04-12T07:31:15.814Z</time></trkpt><trkpt lat="45.85089725368235" lon="11.872637428519258"><ele>266.0</ele><time>2026-04-12T07:31:16.814Z</time></trkpt><trkpt lat="45.850975444661806" lon="11.872831059646007"><ele>266.0</ele><time>2026-04-12T07:31:17.814Z</time></trkpt><trkpt lat="45.851057200038184" lon="11.873012450890718"><ele>267.0</ele><time>2026-04-12T07:31:18.814Z</time></trkpt><trkpt lat="45.85111457774888" lon="11.873196070782539"><ele>268.0</ele><time>2026-04-12T07:31:19.814Z</time></trkpt><trkpt lat="45.851198027316244" lon="11.87334434455698"><ele>269.0</ele><time>2026-04-12T07:31:20.814Z</time></trkpt><trkpt lat="45.851251302472804" lon="11.873501802536978"><ele>270.0</ele><time>2026-04-12T07:31:21.814Z</time></trkpt><trkpt lat="45.85127586321614" lon="11.873668274179012"><ele>270.0</ele><time>2026-04-12T07:31:22.814Z</time></trkpt><trkpt lat="45.851261985249955" lon="11.873835491147187"><ele>270.0</ele><time>2026-04-12T07:31:23.814Z</time></trkpt><trkpt lat="45.85121837521417" lon="11.874000765661648"><ele>270.0</ele><time>2026-04-12T07:31:24.814Z</time></trkpt><trkpt lat="45.85112515331833" lon="11.874139934432044"><ele>270.0</ele><time>2026-04-12T07:31:25.814Z</time></trkpt><trkpt lat="45.851030640775505" lon="11.87430943051157"><ele>267.6666666666667</ele><time>2026-04-12T07:31:26.814Z</time></trkpt><trkpt lat="45.8509265570933" lon="11.874474984284682"><ele>265.33333333333337</ele><time>2026-04-12T07:31:27.814Z</time></trkpt><trkpt lat="45.850820685311035" lon="11.874652089758893"><ele>263.0</ele><time>2026-04-12T07:31:28.814Z</time></trkpt><trkpt lat="45.85071759504912" lon="11.874836577260968"><ele>263.0</ele><time>2026-04-12T07:31:29.814Z</time></trkpt><trkpt lat="45.85061798854244" lon="11.875009662879796"><ele>263.0</ele><time>2026-04-12T07:31:30.814Z</time></trkpt><trkpt lat="45.85051102383599" lon="11.875170303124438"><ele>263.0</ele><time>2026-04-12T07:31:31.814Z</time></trkpt><trkpt lat="45.850384302081096" lon="11.875304199261404"><ele>262.33333333333337</ele><time>2026-04-12T07:31:32.814Z</time></trkpt><trkpt lat="45.850255626450775" lon="11.875417535611671"><ele>261.6666666666667</ele><time>2026-04-12T07:31:33.814Z</time></trkpt><trkpt lat="45.85012104754755" lon="11.875530555961056"><ele>261.0</ele><time>2026-04-12T07:31:34.814Z</time></trkpt><trkpt lat="45.84998799131674" lon="11.875635817890402"><ele>260.0</ele><time>2026-04-12T07:31:35.814Z</time></trkpt><trkpt lat="45.84984805981034" lon="11.875748742349483"><ele>259.0</ele><time>2026-04-12T07:31:36.814Z</time></trkpt><trkpt lat="45.84972338984856" lon="11.875862775147134"><ele>258.0</ele><time>2026-04-12T07:31:37.814Z</time></trkpt><trkpt lat="45.84958274449862" lon="11.875967200084688"><ele>257.5</ele><time>2026-04-12T07:31:38.814Z</time></trkpt><trkpt lat="45.849458961024695" lon="11.876068601445924"><ele>257.0</ele><time>2026-04-12T07:31:39.814Z</time></trkpt><trkpt lat="45.849336125726744" lon="11.87616638323089"><ele>256.5</ele><time>2026-04-12T07:31:40.814Z</time></trkpt><trkpt lat="45.84922407319509" lon="11.876260118123446"><ele>256.0</ele><time>2026-04-12T07:31:41.814Z</time></trkpt><trkpt lat="45.84913840570003" lon="11.876334272594523"><ele>255.0</ele><time>2026-04-12T07:31:42.814Z</time></trkpt><trkpt lat="45.849068976235294" lon="11.876390671564948"><ele>254.00000000000003</ele><time>2026-04-12T07:31:43.814Z</time></trkpt><trkpt lat="45.84901039361853" lon="11.876437867161316"><ele>253.00000000000003</ele><time>2026-04-12T07:31:44.814Z</time></trkpt><trkpt lat="45.848908706456214" lon="11.8765236731673"><ele>252.0</ele><time>2026-04-12T07:31:46.814Z</time></trkpt><trkpt lat="45.84881882522096" lon="11.87659815750971"><ele>251.0</ele><time>2026-04-12T07:31:48.814Z</time></trkpt><trkpt lat="45.84872522521449" lon="11.876675717269354"><ele>251.0</ele><time>2026-04-12T07:31:50.814Z</time></trkpt><trkpt lat="45.848648995251644" lon="11.876757982298503"><ele>251.00000000000003</ele><time>2026-04-12T07:31:52.814Z</time></trkpt><trkpt lat="45.84855524608826" lon="11.87682668774161"><ele>251.00000000000003</ele><time>2026-04-12T07:31:54.814Z</time></trkpt><trkpt lat="45.84849527138076" lon="11.876871260200899"><ele>251.0</ele><time>2026-04-12T07:31:55.814Z</time></trkpt><trkpt lat="45.848403560036544" lon="11.876980817890034"><ele>251.0</ele><time>2026-04-12T07:31:57.814Z</time></trkpt><trkpt lat="45.84834540726608" lon="11.877056821131974"><ele>251.0</ele><time>2026-04-12T07:31:58.814Z</time></trkpt><trkpt lat="45.8482941031434" lon="11.87712888411065"><ele>251.00000000000003</ele><time>2026-04-12T07:31:59.814Z</time></trkpt><trkpt lat="45.848243339153086" lon="11.87722116156757"><ele>251.00000000000003</ele><time>2026-04-12T07:32:00.814Z</time></trkpt><trkpt lat="45.8481908820898" lon="11.877355818685912"><ele>251.0</ele><time>2026-04-12T07:32:01.814Z</time></trkpt><trkpt lat="45.84815053555031" lon="11.877488011286317"><ele>251.0</ele><time>2026-04-12T07:32:02.814Z</time></trkpt><trkpt lat="45.8481308794246" lon="11.877611320315589"><ele>250.5</ele><time>2026-04-12T07:32:03.814Z</time></trkpt><trkpt lat="45.848125131918344" lon="11.877756048976874"><ele>250.0</ele><time>2026-04-12T07:32:04.814Z</time></trkpt><trkpt lat="45.84812505093262" lon="11.877904984442301"><ele>249.5</ele><time>2026-04-12T07:32:05.814Z</time></trkpt><trkpt lat="45.848156116129196" lon="11.878079933731257"><ele>249.0</ele><time>2026-04-12T07:32:06.814Z</time></trkpt><trkpt lat="45.848195373883364" lon="11.878276036244934"><ele>248.25</ele><time>2026-04-12T07:32:07.814Z</time></trkpt><trkpt lat="45.848220081585644" lon="11.878454928829164"><ele>247.5</ele><time>2026-04-12T07:32:08.814Z</time></trkpt><trkpt lat="45.84822562331863" lon="11.878625514565902"><ele>246.75</ele><time>2026-04-12T07:32:09.814Z</time></trkpt><trkpt lat="45.84824555918653" lon="11.878817089090424"><ele>246.0</ele><time>2026-04-12T07:32:10.814Z</time></trkpt><trkpt lat="45.84828025552133" lon="11.879035612766746"><ele>245.33333333333331</ele><time>2026-04-12T07:32:11.814Z</time></trkpt><trkpt lat="45.84830594254113" lon="11.879285757947605"><ele>244.66666666666666</ele><time>2026-04-12T07:32:12.814Z</time></trkpt><trkpt lat="45.84832057716202" lon="11.879515232565819"><ele>244.0</ele><time>2026-04-12T07:32:13.814Z</time></trkpt><trkpt lat="45.848345446854395" lon="11.879739752715093"><ele>244.0</ele><time>2026-04-12T07:32:14.814Z</time></trkpt><trkpt lat="45.84836632013722" lon="11.879979499458823"><ele>244.0</ele><time>2026-04-12T07:32:15.814Z</time></trkpt><trkpt lat="45.84839902558399" lon="11.88021093874744"><ele>244.0</ele><time>2026-04-12T07:32:16.814Z</time></trkpt><trkpt lat="45.8484235770675" lon="11.880445064845134"><ele>243.66666666666666</ele><time>2026-04-12T07:32:17.814Z</time></trkpt><trkpt lat="45.848449086233884" lon="11.880679651168116"><ele>243.33333333333331</ele><time>2026-04-12T07:32:18.814Z</time></trkpt><trkpt lat="45.84847059947009" lon="11.880905407827175"><ele>243.0</ele><time>2026-04-12T07:32:19.814Z</time></trkpt><trkpt lat="45.84848571453859" lon="11.881116592819398"><ele>242.25</ele><time>2026-04-12T07:32:20.814Z</time></trkpt><trkpt lat="45.84850152986246" lon="11.881318611004394"><ele>241.5</ele><time>2026-04-12T07:32:21.814Z</time></trkpt><trkpt lat="45.84853322422325" lon="11.881509288486898"><ele>240.75</ele><time>2026-04-12T07:32:22.814Z</time></trkpt><trkpt lat="45.848558264063534" lon="11.881692668485911"><ele>240.0</ele><time>2026-04-12T07:32:23.814Z</time></trkpt><trkpt lat="45.84856407888566" lon="11.881895628278608"><ele>239.5</ele><time>2026-04-12T07:32:24.814Z</time></trkpt><trkpt lat="45.84858485614103" lon="11.88209886019076"><ele>239.0</ele><time>2026-04-12T07:32:25.814Z</time></trkpt><trkpt lat="45.848606238792115" lon="11.882302976842107"><ele>238.5</ele><time>2026-04-12T07:32:26.814Z</time></trkpt><trkpt lat="45.84862809863243" lon="11.882523656652237"><ele>238.0</ele><time>2026-04-12T07:32:27.814Z</time></trkpt><trkpt lat="45.84866273378694" lon="11.882678122897104"><ele>238.0</ele><time>2026-04-12T07:32:28.814Z</time></trkpt><trkpt lat="45.84867487841672" lon="11.882872561721909"><ele>238.0</ele><time>2026-04-12T07:32:29.814Z</time></trkpt><trkpt lat="45.84871196109977" lon="11.8830928176977"><ele>238.0</ele><time>2026-04-12T07:32:30.814Z</time></trkpt><trkpt lat="45.84877984480401" lon="11.883351805015675"><ele>237.25</ele><time>2026-04-12T07:32:31.814Z</time></trkpt><trkpt lat="45.84873115981988" lon="11.883592744448077"><ele>236.5</ele><time>2026-04-12T07:32:32.814Z</time></trkpt><trkpt lat="45.84874506218281" lon="11.883734421332097"><ele>235.75</ele><time>2026-04-12T07:32:33.814Z</time></trkpt><trkpt lat="45.84878051864739" lon="11.883939228402351"><ele>235.0</ele><time>2026-04-12T07:32:34.814Z</time></trkpt><trkpt lat="45.848809502921064" lon="11.884168134336042"><ele>234.66666666666666</ele><time>2026-04-12T07:32:35.814Z</time></trkpt><trkpt lat="45.848858333322745" lon="11.884440761519578"><ele>234.33333333333331</ele><time>2026-04-12T07:32:36.815Z</time></trkpt><trkpt lat="45.84892814606716" lon="11.884721136539245"><ele>234.0</ele><time>2026-04-12T07:32:37.815Z</time></trkpt><trkpt lat="45.84898775512233" lon="11.88497225036979"><ele>234.0</ele><time>2026-04-12T07:32:38.815Z</time></trkpt><trkpt lat="45.8490319082654" lon="11.88521745994806"><ele>234.0</ele><time>2026-04-12T07:32:39.815Z</time></trkpt><trkpt lat="45.84910519125985" lon="11.885456282168265"><ele>234.0</ele><time>2026-04-12T07:32:40.815Z</time></trkpt><trkpt lat="45.84916166714717" lon="11.885698383604907"><ele>234.0</ele><time>2026-04-12T07:32:41.815Z</time></trkpt><trkpt lat="45.849216985628026" lon="11.885926919630291"><ele>234.0</ele><time>2026-04-12T07:32:42.815Z</time></trkpt><trkpt lat="45.84926764711597" lon="11.886136035503553"><ele>234.0</ele><time>2026-04-12T07:32:43.815Z</time></trkpt><trkpt lat="45.84930852042784" lon="11.886324863847886"><ele>233.75</ele><time>2026-04-12T07:32:44.815Z</time></trkpt><trkpt lat="45.84935316497111" lon="11.886506326682392"><ele>233.5</ele><time>2026-04-12T07:32:45.815Z</time></trkpt><trkpt lat="45.84938794052479" lon="11.886674827545423"><ele>233.25</ele><time>2026-04-12T07:32:46.815Z</time></trkpt><trkpt lat="45.849429346447955" lon="11.88683747918306"><ele>233.0</ele><time>2026-04-12T07:32:47.815Z</time></trkpt><trkpt lat="45.849460632937486" lon="11.886989541129394"><ele>232.4</ele><time>2026-04-12T07:32:48.815Z</time></trkpt><trkpt lat="45.84947909933101" lon="11.887129567432881"><ele>231.8</ele><time>2026-04-12T07:32:49.815Z</time></trkpt><trkpt lat="45.84948392532433" lon="11.887261742657978"><ele>231.2</ele><time>2026-04-12T07:32:50.815Z</time></trkpt><trkpt lat="45.84948408984082" lon="11.88738636307949"><ele>230.6</ele><time>2026-04-12T07:32:51.815Z</time></trkpt><trkpt lat="45.849470087546486" lon="11.887523042560211"><ele>230.0</ele><time>2026-04-12T07:32:52.815Z</time></trkpt><trkpt lat="45.84945717680131" lon="11.887658233036536"><ele>229.66666666666669</ele><time>2026-04-12T07:32:53.815Z</time></trkpt><trkpt lat="45.84944058413278" lon="11.887768060995533"><ele>229.33333333333334</ele><time>2026-04-12T07:32:54.815Z</time></trkpt><trkpt lat="45.84942065054141" lon="11.8878878624527"><ele>229.0</ele><time>2026-04-12T07:32:56.815Z</time></trkpt><trkpt lat="45.84940021953278" lon="11.88803031926699"><ele>228.66666666666669</ele><time>2026-04-12T07:32:58.815Z</time></trkpt><trkpt lat="45.84937136245523" lon="11.888126224717823"><ele>228.33333333333334</ele><time>2026-04-12T07:32:59.815Z</time></trkpt><trkpt lat="45.84936389927781" lon="11.888247101552514"><ele>228.0</ele><time>2026-04-12T07:33:00.815Z</time></trkpt><trkpt lat="45.84940104059514" lon="11.888350216996287"><ele>228.0</ele><time>2026-04-12T07:33:01.815Z</time></trkpt><trkpt lat="45.84946665749076" lon="11.888417512812568"><ele>228.0</ele><time>2026-04-12T07:33:02.815Z</time></trkpt><trkpt lat="45.84957689181167" lon="11.888464814905724"><ele>228.0</ele><time>2026-04-12T07:33:03.815Z</time></trkpt><trkpt lat="45.84971393474326" lon="11.888503476103912"><ele>228.0</ele><time>2026-04-12T07:33:04.815Z</time></trkpt><trkpt lat="45.849840920956936" lon="11.888564578450312"><ele>228.0</ele><time>2026-04-12T07:33:05.815Z</time></trkpt><trkpt lat="45.84993161395735" lon="11.88866999609849"><ele>228.0</ele><time>2026-04-12T07:33:06.815Z</time></trkpt><trkpt lat="45.85001633326111" lon="11.888774867268548"><ele>228.0</ele><time>2026-04-12T07:33:07.815Z</time></trkpt><trkpt lat="45.850104115939814" lon="11.888854587084499"><ele>228.0</ele><time>2026-04-12T07:33:08.815Z</time></trkpt><trkpt lat="45.85019431442928" lon="11.888936802350207"><ele>228.0</ele><time>2026-04-12T07:33:09.815Z</time></trkpt><trkpt lat="45.850238633277066" lon="11.889100289726558"><ele>228.0</ele><time>2026-04-12T07:33:10.815Z</time></trkpt><trkpt lat="45.850295120131086" lon="11.889215246715008"><ele>228.0</ele><time>2026-04-12T07:33:11.815Z</time></trkpt><trkpt lat="45.850348759525154" lon="11.889324795428678"><ele>228.0</ele><time>2026-04-12T07:33:12.815Z</time></trkpt><trkpt lat="45.85040155451278" lon="11.889427538756115"><ele>228.0</ele><time>2026-04-12T07:33:13.815Z</time></trkpt><trkpt lat="45.85045645715722" lon="11.8895251110667"><ele>228.0</ele><time>2026-04-12T07:33:14.815Z</time></trkpt><trkpt lat="45.850511337460425" lon="11.889630734445346"><ele>227.5</ele><time>2026-04-12T07:33:15.815Z</time></trkpt><trkpt lat="45.85056747554606" lon="11.889723897670352"><ele>227.0</ele><time>2026-04-12T07:33:16.815Z</time></trkpt><trkpt lat="45.85060920623263" lon="11.889811520914845"><ele>226.5</ele><time>2026-04-12T07:33:17.815Z</time></trkpt><trkpt lat="45.8506551390099" lon="11.889901468552079"><ele>226.0</ele><time>2026-04-12T07:33:18.815Z</time></trkpt><trkpt lat="45.850715655571385" lon="11.890008508870851"><ele>225.5</ele><time>2026-04-12T07:33:19.815Z</time></trkpt><trkpt lat="45.85078151252626" lon="11.890128091407572"><ele>225.0</ele><time>2026-04-12T07:33:20.815Z</time></trkpt><trkpt lat="45.850832278147486" lon="11.890245277995012"><ele>224.8</ele><time>2026-04-12T07:33:21.815Z</time></trkpt><trkpt lat="45.8508845312706" lon="11.890380544749316"><ele>224.6</ele><time>2026-04-12T07:33:22.815Z</time></trkpt><trkpt lat="45.850917880320445" lon="11.890511896262595"><ele>224.39999999999998</ele><time>2026-04-12T07:33:23.815Z</time></trkpt><trkpt lat="45.850968535872966" lon="11.89064730030503"><ele>224.2</ele><time>2026-04-12T07:33:24.815Z</time></trkpt><trkpt lat="45.851035388390436" lon="11.890787842618295"><ele>224.0</ele><time>2026-04-12T07:33:25.815Z</time></trkpt><trkpt lat="45.85121043870174" lon="11.891003985776498"><ele>222.66666666666669</ele><time>2026-04-12T07:33:26.815Z</time></trkpt><trkpt lat="45.85130922778902" lon="11.891198551932153"><ele>221.33333333333331</ele><time>2026-04-12T07:33:27.815Z</time></trkpt><trkpt lat="45.85139816771023" lon="11.891371218564599"><ele>220.0</ele><time>2026-04-12T07:33:28.815Z</time></trkpt><trkpt lat="45.85147692731538" lon="11.891544289885168"><ele>220.0</ele><time>2026-04-12T07:33:29.815Z</time></trkpt><trkpt lat="45.85155802912787" lon="11.891712893432416"><ele>220.0</ele><time>2026-04-12T07:33:30.815Z</time></trkpt><trkpt lat="45.85164482602364" lon="11.891904102780542"><ele>220.0</ele><time>2026-04-12T07:33:31.815Z</time></trkpt><trkpt lat="45.851734453012924" lon="11.89211343631946"><ele>219.33333333333331</ele><time>2026-04-12T07:33:32.815Z</time></trkpt><trkpt lat="45.85182110656938" lon="11.892322700184364"><ele>218.66666666666669</ele><time>2026-04-12T07:33:33.815Z</time></trkpt><trkpt lat="45.8518889223033" lon="11.892525503437716"><ele>218.0</ele><time>2026-04-12T07:33:34.815Z</time></trkpt><trkpt lat="45.851956755643045" lon="11.89272575589663"><ele>218.0</ele><time>2026-04-12T07:33:35.815Z</time></trkpt><trkpt lat="45.85202696944507" lon="11.892921547039549"><ele>218.0</ele><time>2026-04-12T07:33:36.815Z</time></trkpt><trkpt lat="45.85210039162255" lon="11.893129584134584"><ele>218.0</ele><time>2026-04-12T07:33:37.815Z</time></trkpt><trkpt lat="45.8521706884355" lon="11.89335507005905"><ele>218.33333333333334</ele><time>2026-04-12T07:33:38.815Z</time></trkpt><trkpt lat="45.85223889893264" lon="11.893595742910923"><ele>218.66666666666669</ele><time>2026-04-12T07:33:39.815Z</time></trkpt><trkpt lat="45.852295899250024" lon="11.893862350677304"><ele>219.0</ele><time>2026-04-12T07:33:40.815Z</time></trkpt><trkpt lat="45.85235696553854" lon="11.894126369341732"><ele>219.0</ele><time>2026-04-12T07:33:41.815Z</time></trkpt><trkpt lat="45.85241471238058" lon="11.89437603683625"><ele>219.0</ele><time>2026-04-12T07:33:42.815Z</time></trkpt><trkpt lat="45.85247286306484" lon="11.89457401529023"><ele>219.0</ele><time>2026-04-12T07:33:43.815Z</time></trkpt><trkpt lat="45.85251387063392" lon="11.894817329129783"><ele>219.0</ele><time>2026-04-12T07:33:44.815Z</time></trkpt><trkpt lat="45.85256844582484" lon="11.895063720083273"><ele>219.0</ele><time>2026-04-12T07:33:45.815Z</time></trkpt><trkpt lat="45.85262594229598" lon="11.895317896941933"><ele>219.0</ele><time>2026-04-12T07:33:46.815Z</time></trkpt><trkpt lat="45.85271589536447" lon="11.895550905990474"><ele>218.66666666666669</ele><time>2026-04-12T07:33:47.815Z</time></trkpt><trkpt lat="45.852774152827095" lon="11.89580475559139"><ele>218.33333333333334</ele><time>2026-04-12T07:33:48.815Z</time></trkpt><trkpt lat="45.85282562976566" lon="11.896059157354872"><ele>218.0</ele><time>2026-04-12T07:33:49.815Z</time></trkpt><trkpt lat="45.85288517503399" lon="11.896312547085888"><ele>218.0</ele><time>2026-04-12T07:33:50.815Z</time></trkpt><trkpt lat="45.852915944473274" lon="11.896600474813772"><ele>218.0</ele><time>2026-04-12T07:33:51.815Z</time></trkpt><trkpt lat="45.85298272270092" lon="11.896890137611477"><ele>218.0</ele><time>2026-04-12T07:33:52.815Z</time></trkpt><trkpt lat="45.85305551740878" lon="11.897203624486078"><ele>218.0</ele><time>2026-04-12T07:33:53.815Z</time></trkpt><trkpt lat="45.85312727409652" lon="11.897562999195697"><ele>218.0</ele><time>2026-04-12T07:33:54.815Z</time></trkpt><trkpt lat="45.85320452783089" lon="11.897947814525752"><ele>216.5</ele><time>2026-04-12T07:33:55.815Z</time></trkpt><trkpt lat="45.85329675918901" lon="11.898344003468516"><ele>215.0</ele><time>2026-04-12T07:33:56.815Z</time></trkpt><trkpt lat="45.85338457041355" lon="11.898696757114479"><ele>215.0</ele><time>2026-04-12T07:33:58.815Z</time></trkpt><trkpt lat="45.85346788542022" lon="11.89906338827105"><ele>215.0</ele><time>2026-04-12T07:33:59.815Z</time></trkpt><trkpt lat="45.85352831037861" lon="11.89940440304815"><ele>215.33333333333334</ele><time>2026-04-12T07:34:00.815Z</time></trkpt><trkpt lat="45.85358245652145" lon="11.899717997255681"><ele>215.66666666666669</ele><time>2026-04-12T07:34:01.815Z</time></trkpt><trkpt lat="45.853628122207475" lon="11.900018017218837"><ele>216.0</ele><time>2026-04-12T07:34:02.815Z</time></trkpt><trkpt lat="45.85365612714703" lon="11.900304861500427"><ele>216.0</ele><time>2026-04-12T07:34:03.815Z</time></trkpt><trkpt lat="45.85366981805019" lon="11.900581695730107"><ele>216.0</ele><time>2026-04-12T07:34:04.815Z</time></trkpt><trkpt lat="45.853677639639656" lon="11.900847036251587"><ele>216.0</ele><time>2026-04-12T07:34:05.815Z</time></trkpt><trkpt lat="45.853684090679494" lon="11.901117544189471"><ele>215.33333333333331</ele><time>2026-04-12T07:34:06.815Z</time></trkpt><trkpt lat="45.8536545625234" lon="11.90138918964697"><ele>214.66666666666666</ele><time>2026-04-12T07:34:07.815Z</time></trkpt><trkpt lat="45.85362893582837" lon="11.901670834731144"><ele>214.0</ele><time>2026-04-12T07:34:08.815Z</time></trkpt><trkpt lat="45.85360308793591" lon="11.901945365395562"><ele>213.66666666666666</ele><time>2026-04-12T07:34:09.815Z</time></trkpt><trkpt lat="45.85357856546892" lon="11.902205215607543"><ele>213.33333333333331</ele><time>2026-04-12T07:34:10.815Z</time></trkpt><trkpt lat="45.85356914010286" lon="11.902459098178108"><ele>213.0</ele><time>2026-04-12T07:34:11.815Z</time></trkpt><trkpt lat="45.85354448008711" lon="11.902712060221099"><ele>213.0</ele><time>2026-04-12T07:34:12.815Z</time></trkpt><trkpt lat="45.85351816408947" lon="11.902968084338145"><ele>213.0</ele><time>2026-04-12T07:34:13.815Z</time></trkpt><trkpt lat="45.85349140290168" lon="11.903225680073739"><ele>213.0</ele><time>2026-04-12T07:34:14.815Z</time></trkpt><trkpt lat="45.85347217126595" lon="11.903470795529906"><ele>212.33333333333331</ele><time>2026-04-12T07:34:15.815Z</time></trkpt><trkpt lat="45.85345590253765" lon="11.903710147877227"><ele>211.66666666666666</ele><time>2026-04-12T07:34:16.815Z</time></trkpt><trkpt lat="45.853455275374785" lon="11.903955569256928"><ele>211.0</ele><time>2026-04-12T07:34:17.815Z</time></trkpt><trkpt lat="45.85346075586884" lon="11.904206101619401"><ele>210.33333333333331</ele><time>2026-04-12T07:34:18.815Z</time></trkpt><trkpt lat="45.853481145847816" lon="11.904461812626423"><ele>209.66666666666669</ele><time>2026-04-12T07:34:19.815Z</time></trkpt><trkpt lat="45.85350412901458" lon="11.90472336554728"><ele>209.0</ele><time>2026-04-12T07:34:20.815Z</time></trkpt><trkpt lat="45.85355718674335" lon="11.905002111589372"><ele>208.0</ele><time>2026-04-12T07:34:21.815Z</time></trkpt><trkpt lat="45.85361109695241" lon="11.905300200161006"><ele>207.0</ele><time>2026-04-12T07:34:22.815Z</time></trkpt><trkpt lat="45.85365772537283" lon="11.905572225605287"><ele>206.0</ele><time>2026-04-12T07:34:23.815Z</time></trkpt><trkpt lat="45.85368535809055" lon="11.905835988890711"><ele>206.66666666666669</ele><time>2026-04-12T07:34:24.815Z</time></trkpt><trkpt lat="45.85371119811665" lon="11.906114434992014"><ele>207.33333333333331</ele><time>2026-04-12T07:34:25.815Z</time></trkpt><trkpt lat="45.853758303486856" lon="11.906401399213111"><ele>208.0</ele><time>2026-04-12T07:34:26.815Z</time></trkpt><trkpt lat="45.85380022226618" lon="11.906663191073129"><ele>208.0</ele><time>2026-04-12T07:34:27.815Z</time></trkpt><trkpt lat="45.85384390988798" lon="11.906942889184716"><ele>208.0</ele><time>2026-04-12T07:34:28.815Z</time></trkpt><trkpt lat="45.85388973127423" lon="11.907230880581647"><ele>208.0</ele><time>2026-04-12T07:34:29.815Z</time></trkpt><trkpt lat="45.85393558129305" lon="11.907505785903677"><ele>207.66666666666666</ele><time>2026-04-12T07:34:30.815Z</time></trkpt><trkpt lat="45.85395959184432" lon="11.90776463492977"><ele>207.33333333333331</ele><time>2026-04-12T07:34:31.815Z</time></trkpt><trkpt lat="45.853979049410036" lon="11.908024009119927"><ele>207.0</ele><time>2026-04-12T07:34:32.815Z</time></trkpt><trkpt lat="45.85399125666331" lon="11.908294734519023"><ele>206.66666666666669</ele><time>2026-04-12T07:34:33.815Z</time></trkpt><trkpt lat="45.85399795307459" lon="11.90857282046954"><ele>206.33333333333334</ele><time>2026-04-12T07:34:34.815Z</time></trkpt><trkpt lat="45.8539969469958" lon="11.908848668659964"><ele>206.0</ele><time>2026-04-12T07:34:35.815Z</time></trkpt><trkpt lat="45.85398693936179" lon="11.909128876705731"><ele>205.33333333333334</ele><time>2026-04-12T07:34:36.815Z</time></trkpt><trkpt lat="45.85396259387188" lon="11.909409219354885"><ele>204.66666666666669</ele><time>2026-04-12T07:34:37.815Z</time></trkpt><trkpt lat="45.8539252365374" lon="11.909692442384472"><ele>204.0</ele><time>2026-04-12T07:34:38.815Z</time></trkpt><trkpt lat="45.8538862565179" lon="11.909978667930178"><ele>204.0</ele><time>2026-04-12T07:34:39.815Z</time></trkpt><trkpt lat="45.85385015455774" lon="11.910253887009237"><ele>204.0</ele><time>2026-04-12T07:34:40.815Z</time></trkpt><trkpt lat="45.853822339204434" lon="11.910511894658246"><ele>204.0</ele><time>2026-04-12T07:34:41.815Z</time></trkpt><trkpt lat="45.853801989331494" lon="11.910756600726494"><ele>203.66666666666669</ele><time>2026-04-12T07:34:42.816Z</time></trkpt><trkpt lat="45.85377945232577" lon="11.910989541356154"><ele>203.33333333333334</ele><time>2026-04-12T07:34:43.816Z</time></trkpt><trkpt lat="45.8537522414123" lon="11.911214075230632"><ele>203.0</ele><time>2026-04-12T07:34:44.816Z</time></trkpt><trkpt lat="45.85372162694186" lon="11.911435947268638"><ele>203.0</ele><time>2026-04-12T07:34:45.816Z</time></trkpt><trkpt lat="45.85369866794257" lon="11.911696097251122"><ele>203.0</ele><time>2026-04-12T07:34:46.816Z</time></trkpt><trkpt lat="45.853665357338514" lon="11.911981627295035"><ele>203.0</ele><time>2026-04-12T07:34:47.816Z</time></trkpt><trkpt lat="45.8536522070636" lon="11.912143520651478"><ele>203.0</ele><time>2026-04-12T07:34:48.816Z</time></trkpt><trkpt lat="45.85361523169973" lon="11.912376976488925"><ele>203.0</ele><time>2026-04-12T07:34:49.816Z</time></trkpt><trkpt lat="45.85357613654161" lon="11.912615946778455"><ele>203.0</ele><time>2026-04-12T07:34:50.816Z</time></trkpt><trkpt lat="45.853545033039936" lon="11.912859280979523"><ele>202.66666666666669</ele><time>2026-04-12T07:34:51.816Z</time></trkpt><trkpt lat="45.85352228444096" lon="11.91311027266996"><ele>202.33333333333331</ele><time>2026-04-12T07:34:52.816Z</time></trkpt><trkpt lat="45.85350081131682" lon="11.91336169313439"><ele>202.0</ele><time>2026-04-12T07:34:53.816Z</time></trkpt><trkpt lat="45.85349416789166" lon="11.913617461636388"><ele>202.0</ele><time>2026-04-12T07:34:54.816Z</time></trkpt><trkpt lat="45.85349605803235" lon="11.913873599187081"><ele>202.0</ele><time>2026-04-12T07:34:55.816Z</time></trkpt><trkpt lat="45.853505881390404" lon="11.914132474560054"><ele>202.0</ele><time>2026-04-12T07:34:56.816Z</time></trkpt><trkpt lat="45.85352166153765" lon="11.914393652120834"><ele>202.0</ele><time>2026-04-12T07:34:57.816Z</time></trkpt><trkpt lat="45.853551649069615" lon="11.914658677256078"><ele>202.0</ele><time>2026-04-12T07:34:58.816Z</time></trkpt><trkpt lat="45.85358494108289" lon="11.914921547620214"><ele>202.0</ele><time>2026-04-12T07:34:59.816Z</time></trkpt><trkpt lat="45.853631055475745" lon="11.915185894191977"><ele>201.33333333333331</ele><time>2026-04-12T07:35:00.816Z</time></trkpt><trkpt lat="45.853681810752256" lon="11.91544678921022"><ele>200.66666666666669</ele><time>2026-04-12T07:35:01.816Z</time></trkpt><trkpt lat="45.8537476635099" lon="11.915699454036554"><ele>200.0</ele><time>2026-04-12T07:35:02.816Z</time></trkpt><trkpt lat="45.85381698743455" lon="11.91594332742026"><ele>200.0</ele><time>2026-04-12T07:35:03.816Z</time></trkpt><trkpt lat="45.85389001101562" lon="11.916178893484972"><ele>200.0</ele><time>2026-04-12T07:35:04.816Z</time></trkpt><trkpt lat="45.85396030395365" lon="11.916422783964093"><ele>200.0</ele><time>2026-04-12T07:35:05.816Z</time></trkpt><trkpt lat="45.85403217943037" lon="11.916667517488241"><ele>199.33333333333334</ele><time>2026-04-12T07:35:06.816Z</time></trkpt><trkpt lat="45.85409896554817" lon="11.916914758153752"><ele>198.66666666666669</ele><time>2026-04-12T07:35:07.816Z</time></trkpt><trkpt lat="45.854170937310165" lon="11.917160329511109"><ele>198.0</ele><time>2026-04-12T07:35:08.816Z</time></trkpt><trkpt lat="45.85424131698622" lon="11.917408113305198"><ele>198.33333333333331</ele><time>2026-04-12T07:35:09.816Z</time></trkpt><trkpt lat="45.85431587710669" lon="11.9176668754541"><ele>198.66666666666666</ele><time>2026-04-12T07:35:10.816Z</time></trkpt><trkpt lat="45.8543917520911" lon="11.917938703253467"><ele>199.0</ele><time>2026-04-12T07:35:11.816Z</time></trkpt><trkpt lat="45.85448185380727" lon="11.918235058369106"><ele>199.33333333333331</ele><time>2026-04-12T07:35:12.816Z</time></trkpt><trkpt lat="45.854570563321296" lon="11.918534056466433"><ele>199.66666666666669</ele><time>2026-04-12T07:35:13.816Z</time></trkpt><trkpt lat="45.85465112381771" lon="11.918810697129558"><ele>200.0</ele><time>2026-04-12T07:35:14.816Z</time></trkpt><trkpt lat="45.854718176102224" lon="11.91907326786217"><ele>199.66666666666669</ele><time>2026-04-12T07:35:15.816Z</time></trkpt><trkpt lat="45.854792351901196" lon="11.919335215707536"><ele>199.33333333333331</ele><time>2026-04-12T07:35:16.816Z</time></trkpt><trkpt lat="45.85486295801815" lon="11.919563602508864"><ele>199.0</ele><time>2026-04-12T07:35:17.816Z</time></trkpt><trkpt lat="45.854918017563826" lon="11.919749756813852"><ele>199.0</ele><time>2026-04-12T07:35:18.816Z</time></trkpt><trkpt lat="45.85497155643164" lon="11.91993790969106"><ele>199.0</ele><time>2026-04-12T07:35:19.816Z</time></trkpt><trkpt lat="45.85502579502608" lon="11.920128023605308"><ele>199.0</ele><time>2026-04-12T07:35:20.816Z</time></trkpt><trkpt lat="45.855078369139626" lon="11.920320503270744"><ele>199.0</ele><time>2026-04-12T07:35:21.816Z</time></trkpt><trkpt lat="45.85513346509318" lon="11.92052661736826"><ele>199.33333333333331</ele><time>2026-04-12T07:35:22.816Z</time></trkpt><trkpt lat="45.855195405949154" lon="11.920743814501071"><ele>199.66666666666669</ele><time>2026-04-12T07:35:23.816Z</time></trkpt><trkpt lat="45.855272941583635" lon="11.920974363342252"><ele>200.0</ele><time>2026-04-12T07:35:24.816Z</time></trkpt><trkpt lat="45.85535411839872" lon="11.921270757767912"><ele>199.33333333333334</ele><time>2026-04-12T07:35:25.816Z</time></trkpt><trkpt lat="45.85542692257517" lon="11.921525446378258"><ele>198.66666666666669</ele><time>2026-04-12T07:35:26.816Z</time></trkpt><trkpt lat="45.855469372606045" lon="11.921681528647415"><ele>198.0</ele><time>2026-04-12T07:35:27.816Z</time></trkpt><trkpt lat="45.855531654260226" lon="11.921919304900339"><ele>197.33333333333331</ele><time>2026-04-12T07:35:28.816Z</time></trkpt><trkpt lat="45.85560665583445" lon="11.922176651756624"><ele>196.66666666666666</ele><time>2026-04-12T07:35:29.816Z</time></trkpt><trkpt lat="45.855683985116364" lon="11.92244860730238"><ele>196.0</ele><time>2026-04-12T07:35:30.816Z</time></trkpt><trkpt lat="45.855765548797855" lon="11.92272709025711"><ele>196.66666666666666</ele><time>2026-04-12T07:35:31.816Z</time></trkpt><trkpt lat="45.8558470306196" lon="11.92300603625816"><ele>197.33333333333331</ele><time>2026-04-12T07:35:32.816Z</time></trkpt><trkpt lat="45.85592826853884" lon="11.923281200299732"><ele>198.0</ele><time>2026-04-12T07:35:33.816Z</time></trkpt><trkpt lat="45.856006649018134" lon="11.923556329245466"><ele>198.0</ele><time>2026-04-12T07:35:34.816Z</time></trkpt><trkpt lat="45.85608504854317" lon="11.923834077157036"><ele>198.0</ele><time>2026-04-12T07:35:35.816Z</time></trkpt><trkpt lat="45.856159097508126" lon="11.924102414958602"><ele>198.0</ele><time>2026-04-12T07:35:36.816Z</time></trkpt><trkpt lat="45.85623760046363" lon="11.924371782189713"><ele>196.66666666666669</ele><time>2026-04-12T07:35:37.816Z</time></trkpt><trkpt lat="45.85631535341357" lon="11.92464613317312"><ele>195.33333333333334</ele><time>2026-04-12T07:35:38.816Z</time></trkpt><trkpt lat="45.85639342138314" lon="11.924911048741377"><ele>194.0</ele><time>2026-04-12T07:35:39.816Z</time></trkpt><trkpt lat="45.85647138387917" lon="11.925175647530166"><ele>193.0</ele><time>2026-04-12T07:35:40.816Z</time></trkpt><trkpt lat="45.856543023448026" lon="11.925429986622571"><ele>192.0</ele><time>2026-04-12T07:35:41.816Z</time></trkpt><trkpt lat="45.856621909623414" lon="11.92567286338985"><ele>191.0</ele><time>2026-04-12T07:35:42.816Z</time></trkpt><trkpt lat="45.85668737647426" lon="11.925908663777502"><ele>191.0</ele><time>2026-04-12T07:35:43.816Z</time></trkpt><trkpt lat="45.856743100896615" lon="11.92613574936898"><ele>191.0</ele><time>2026-04-12T07:35:44.816Z</time></trkpt><trkpt lat="45.856794862803355" lon="11.926357929710372"><ele>191.0</ele><time>2026-04-12T07:35:45.816Z</time></trkpt><trkpt lat="45.856850507350764" lon="11.926580540818176"><ele>192.0</ele><time>2026-04-12T07:35:46.816Z</time></trkpt><trkpt lat="45.856910278245586" lon="11.92681602171986"><ele>193.0</ele><time>2026-04-12T07:35:47.816Z</time></trkpt><trkpt lat="45.85697009996011" lon="11.927056958087066"><ele>194.0</ele><time>2026-04-12T07:35:48.816Z</time></trkpt><trkpt lat="45.85703249193284" lon="11.927296341946478"><ele>194.0</ele><time>2026-04-12T07:35:49.816Z</time></trkpt><trkpt lat="45.85709162171662" lon="11.927526780576542"><ele>194.0</ele><time>2026-04-12T07:35:50.816Z</time></trkpt><trkpt lat="45.857145472315146" lon="11.927746189946738"><ele>194.0</ele><time>2026-04-12T07:35:51.816Z</time></trkpt><trkpt lat="45.85719357620529" lon="11.927959450553972"><ele>193.66666666666669</ele><time>2026-04-12T07:35:52.816Z</time></trkpt><trkpt lat="45.857241801153755" lon="11.928180663207614"><ele>193.33333333333331</ele><time>2026-04-12T07:35:53.816Z</time></trkpt><trkpt lat="45.85730131454299" lon="11.928413741854085"><ele>193.0</ele><time>2026-04-12T07:35:54.816Z</time></trkpt><trkpt lat="45.8573639912566" lon="11.928646477286385"><ele>193.0</ele><time>2026-04-12T07:35:55.816Z</time></trkpt><trkpt lat="45.8574239032088" lon="11.928880270098174"><ele>193.0</ele><time>2026-04-12T07:35:56.816Z</time></trkpt><trkpt lat="45.857481033230414" lon="11.92911341685785"><ele>193.0</ele><time>2026-04-12T07:35:57.816Z</time></trkpt><trkpt lat="45.857540768516515" lon="11.929351954182838"><ele>192.0</ele><time>2026-04-12T07:35:58.816Z</time></trkpt><trkpt lat="45.857597637762055" lon="11.92959116255535"><ele>191.0</ele><time>2026-04-12T07:35:59.816Z</time></trkpt><trkpt lat="45.85765402121164" lon="11.92983622778294"><ele>190.0</ele><time>2026-04-12T07:36:00.816Z</time></trkpt><trkpt lat="45.8577147469449" lon="11.930088493723975"><ele>190.0</ele><time>2026-04-12T07:36:01.816Z</time></trkpt><trkpt lat="45.85778503606083" lon="11.930359700223384"><ele>190.0</ele><time>2026-04-12T07:36:02.816Z</time></trkpt><trkpt lat="45.85785261578409" lon="11.930630033129932"><ele>190.0</ele><time>2026-04-12T07:36:03.816Z</time></trkpt><trkpt lat="45.85791778408552" lon="11.930896195202587"><ele>189.33333333333334</ele><time>2026-04-12T07:36:04.816Z</time></trkpt><trkpt lat="45.8579786834571" lon="11.931146991753172"><ele>188.66666666666666</ele><time>2026-04-12T07:36:05.816Z</time></trkpt><trkpt lat="45.85804208240941" lon="11.931395668148589"><ele>188.0</ele><time>2026-04-12T07:36:06.816Z</time></trkpt><trkpt lat="45.858105432215055" lon="11.931648559178534"><ele>188.66666666666666</ele><time>2026-04-12T07:36:07.816Z</time></trkpt><trkpt lat="45.85816731963752" lon="11.931899668541412"><ele>189.33333333333334</ele><time>2026-04-12T07:36:08.816Z</time></trkpt><trkpt lat="45.85823082014108" lon="11.932146769490577"><ele>190.0</ele><time>2026-04-12T07:36:09.816Z</time></trkpt><trkpt lat="45.85829401152705" lon="11.932396663742313"><ele>189.33333333333334</ele><time>2026-04-12T07:36:10.816Z</time></trkpt><trkpt lat="45.858347591318086" lon="11.932639884812943"><ele>188.66666666666666</ele><time>2026-04-12T07:36:11.816Z</time></trkpt><trkpt lat="45.85839733549712" lon="11.932874617092514"><ele>188.0</ele><time>2026-04-12T07:36:12.816Z</time></trkpt><trkpt lat="45.85846324595645" lon="11.933118998794127"><ele>188.0</ele><time>2026-04-12T07:36:13.816Z</time></trkpt><trkpt lat="45.858526461089916" lon="11.933370302076442"><ele>188.0</ele><time>2026-04-12T07:36:14.816Z</time></trkpt><trkpt lat="45.858588061690014" lon="11.93362885813056"><ele>188.0</ele><time>2026-04-12T07:36:15.816Z</time></trkpt><trkpt lat="45.85864721701408" lon="11.933883228605847"><ele>187.66666666666666</ele><time>2026-04-12T07:36:16.816Z</time></trkpt><trkpt lat="45.85870413393789" lon="11.934123495126645"><ele>187.33333333333334</ele><time>2026-04-12T07:36:17.816Z</time></trkpt><trkpt lat="45.85876088147094" lon="11.934351621569833"><ele>187.0</ele><time>2026-04-12T07:36:18.816Z</time></trkpt><trkpt lat="45.85881708552761" lon="11.934569998926943"><ele>187.0</ele><time>2026-04-12T07:36:19.816Z</time></trkpt><trkpt lat="45.8588777356495" lon="11.934788766281175"><ele>187.0</ele><time>2026-04-12T07:36:20.816Z</time></trkpt><trkpt lat="45.85894113757688" lon="11.935019177885312"><ele>187.0</ele><time>2026-04-12T07:36:21.816Z</time></trkpt><trkpt lat="45.85899977915835" lon="11.935250376281953"><ele>186.66666666666669</ele><time>2026-04-12T07:36:22.816Z</time></trkpt><trkpt lat="45.85906344929425" lon="11.935462431584737"><ele>186.33333333333334</ele><time>2026-04-12T07:36:23.816Z</time></trkpt><trkpt lat="45.8591056921004" lon="11.935678413861684"><ele>186.0</ele><time>2026-04-12T07:36:24.816Z</time></trkpt><trkpt lat="45.85915778735972" lon="11.935900420349533"><ele>185.66666666666666</ele><time>2026-04-12T07:36:25.816Z</time></trkpt><trkpt lat="45.85922318434542" lon="11.936128281640253"><ele>185.33333333333331</ele><time>2026-04-12T07:36:26.816Z</time></trkpt><trkpt lat="45.85927610999377" lon="11.936368999391673"><ele>185.0</ele><time>2026-04-12T07:36:27.816Z</time></trkpt><trkpt lat="45.85933775822466" lon="11.936621932611951"><ele>187.0</ele><time>2026-04-12T07:36:28.816Z</time></trkpt><trkpt lat="45.859403246061866" lon="11.93687707085805"><ele>189.0</ele><time>2026-04-12T07:36:29.816Z</time></trkpt><trkpt lat="45.85946968699959" lon="11.937134971018951"><ele>191.0</ele><time>2026-04-12T07:36:30.816Z</time></trkpt><trkpt lat="45.8595381895629" lon="11.937405160292629"><ele>189.33333333333331</ele><time>2026-04-12T07:36:31.816Z</time></trkpt><trkpt lat="45.85961887934012" lon="11.937695867102732"><ele>187.66666666666666</ele><time>2026-04-12T07:36:32.816Z</time></trkpt><trkpt lat="45.85967220414427" lon="11.937975126088553"><ele>186.0</ele><time>2026-04-12T07:36:33.816Z</time></trkpt><trkpt lat="45.85973905964039" lon="11.938227366256484"><ele>185.66666666666666</ele><time>2026-04-12T07:36:34.816Z</time></trkpt><trkpt lat="45.85980317090647" lon="11.93847192004321"><ele>185.33333333333331</ele><time>2026-04-12T07:36:35.816Z</time></trkpt><trkpt lat="45.85986150916432" lon="11.93871032843368"><ele>185.0</ele><time>2026-04-12T07:36:36.816Z</time></trkpt><trkpt lat="45.85990846827546" lon="11.93894506562818"><ele>185.0</ele><time>2026-04-12T07:36:37.816Z</time></trkpt><trkpt lat="45.85997587455671" lon="11.939190455211445"><ele>185.0</ele><time>2026-04-12T07:36:38.816Z</time></trkpt><trkpt lat="45.86003869333679" lon="11.939424760944194"><ele>185.0</ele><time>2026-04-12T07:36:39.816Z</time></trkpt><trkpt lat="45.86009422215525" lon="11.939651876115843"><ele>185.66666666666666</ele><time>2026-04-12T07:36:40.816Z</time></trkpt><trkpt lat="45.86013976508979" lon="11.939889985918516"><ele>186.33333333333334</ele><time>2026-04-12T07:36:41.816Z</time></trkpt><trkpt lat="45.860199154457" lon="11.940130448978033"><ele>187.0</ele><time>2026-04-12T07:36:42.816Z</time></trkpt><trkpt lat="45.86026197113267" lon="11.940383059313735"><ele>187.0</ele><time>2026-04-12T07:36:43.816Z</time></trkpt><trkpt lat="45.86032494701038" lon="11.940642561318583"><ele>187.0</ele><time>2026-04-12T07:36:44.816Z</time></trkpt><trkpt lat="45.86039785687683" lon="11.940907780901206"><ele>187.0</ele><time>2026-04-12T07:36:45.816Z</time></trkpt><trkpt lat="45.86046984668764" lon="11.941172944013557"><ele>186.66666666666669</ele><time>2026-04-12T07:36:46.816Z</time></trkpt><trkpt lat="45.86054437775206" lon="11.941430341660991"><ele>186.33333333333334</ele><time>2026-04-12T07:36:47.816Z</time></trkpt><trkpt lat="45.86063176686838" lon="11.941695125674523"><ele>186.0</ele><time>2026-04-12T07:36:48.818Z</time></trkpt><trkpt lat="45.86070889976009" lon="11.941961680093637"><ele>186.0</ele><time>2026-04-12T07:36:49.818Z</time></trkpt><trkpt lat="45.86076779020438" lon="11.942213093130174"><ele>186.0</ele><time>2026-04-12T07:36:50.818Z</time></trkpt><trkpt lat="45.86080685383727" lon="11.942397062346192"><ele>186.0</ele><time>2026-04-12T07:36:51.818Z</time></trkpt><trkpt lat="45.86087165087289" lon="11.942570567562852"><ele>186.0</ele><time>2026-04-12T07:36:52.818Z</time></trkpt><trkpt lat="45.86093273009218" lon="11.942723467300395"><ele>186.0</ele><time>2026-04-12T07:36:53.818Z</time></trkpt><trkpt lat="45.861166967941315" lon="11.943140097131126"><ele>186.33333333333334</ele><time>2026-04-12T07:36:54.818Z</time></trkpt><trkpt lat="45.861264596902416" lon="11.943371202157659"><ele>186.66666666666669</ele><time>2026-04-12T07:36:55.818Z</time></trkpt><trkpt lat="45.861370968136036" lon="11.943605054123662"><ele>187.0</ele><time>2026-04-12T07:36:56.818Z</time></trkpt><trkpt lat="45.86148108904367" lon="11.943840157727784"><ele>187.0</ele><time>2026-04-12T07:36:57.818Z</time></trkpt><trkpt lat="45.861595853167884" lon="11.944074306535878"><ele>187.0</ele><time>2026-04-12T07:36:58.818Z</time></trkpt><trkpt lat="45.86171233312297" lon="11.944297147545454"><ele>187.0</ele><time>2026-04-12T07:36:59.818Z</time></trkpt><trkpt lat="45.86183112923454" lon="11.94450994868031"><ele>187.0</ele><time>2026-04-12T07:37:00.818Z</time></trkpt><trkpt lat="45.86195613228459" lon="11.944718862441592"><ele>187.0</ele><time>2026-04-12T07:37:01.818Z</time></trkpt><trkpt lat="45.86209090391974" lon="11.94492306406078"><ele>187.0</ele><time>2026-04-12T07:37:02.818Z</time></trkpt><trkpt lat="45.862224056479924" lon="11.945140869333962"><ele>187.66666666666669</ele><time>2026-04-12T07:37:03.818Z</time></trkpt><trkpt lat="45.86234748336735" lon="11.945346105152476"><ele>188.33333333333334</ele><time>2026-04-12T07:37:04.818Z</time></trkpt><trkpt lat="45.86246843602317" lon="11.945544016631708"><ele>189.0</ele><time>2026-04-12T07:37:05.818Z</time></trkpt><trkpt lat="45.86259065078235" lon="11.9457336807468"><ele>189.0</ele><time>2026-04-12T07:37:06.818Z</time></trkpt><trkpt lat="45.86270733816438" lon="11.945929768980632"><ele>189.0</ele><time>2026-04-12T07:37:07.818Z</time></trkpt><trkpt lat="45.86281990013973" lon="11.946112012173725"><ele>189.0</ele><time>2026-04-12T07:37:08.818Z</time></trkpt><trkpt lat="45.8629264224317" lon="11.94628415448262"><ele>189.0</ele><time>2026-04-12T07:37:09.818Z</time></trkpt><trkpt lat="45.863029463514124" lon="11.946450661582356"><ele>189.0</ele><time>2026-04-12T07:37:10.818Z</time></trkpt><trkpt lat="45.86312916275158" lon="11.946619775772712"><ele>189.0</ele><time>2026-04-12T07:37:11.818Z</time></trkpt><trkpt lat="45.86323305782763" lon="11.9467962269482"><ele>189.33333333333334</ele><time>2026-04-12T07:37:12.818Z</time></trkpt><trkpt lat="45.863337318090196" lon="11.946967206703103"><ele>189.66666666666669</ele><time>2026-04-12T07:37:13.818Z</time></trkpt><trkpt lat="45.863448026585864" lon="11.947142321067892"><ele>190.0</ele><time>2026-04-12T07:37:14.818Z</time></trkpt><trkpt lat="45.863564766069565" lon="11.947323543346947"><ele>190.33333333333334</ele><time>2026-04-12T07:37:15.818Z</time></trkpt><trkpt lat="45.863674694440675" lon="11.9475141840579"><ele>190.66666666666666</ele><time>2026-04-12T07:37:16.818Z</time></trkpt><trkpt lat="45.86379894775903" lon="11.947710802762286"><ele>191.0</ele><time>2026-04-12T07:37:17.818Z</time></trkpt><trkpt lat="45.863921372723176" lon="11.947906820829601"><ele>190.33333333333331</ele><time>2026-04-12T07:37:18.818Z</time></trkpt><trkpt lat="45.864034355430555" lon="11.948103031878517"><ele>189.66666666666666</ele><time>2026-04-12T07:37:19.818Z</time></trkpt><trkpt lat="45.864156548141864" lon="11.94830308802353"><ele>189.0</ele><time>2026-04-12T07:37:20.818Z</time></trkpt><trkpt lat="45.86427878588547" lon="11.948504385254177"><ele>189.33333333333334</ele><time>2026-04-12T07:37:21.818Z</time></trkpt><trkpt lat="45.864406424720755" lon="11.948707159892672"><ele>189.66666666666669</ele><time>2026-04-12T07:37:22.818Z</time></trkpt><trkpt lat="45.86452862454135" lon="11.948909812490335"><ele>190.0</ele><time>2026-04-12T07:37:23.818Z</time></trkpt><trkpt lat="45.86465030915106" lon="11.949108926692443"><ele>190.33333333333334</ele><time>2026-04-12T07:37:24.818Z</time></trkpt><trkpt lat="45.86476842978522" lon="11.949301888692146"><ele>190.66666666666666</ele><time>2026-04-12T07:37:25.818Z</time></trkpt><trkpt lat="45.86488663279488" lon="11.94949261560801"><ele>191.0</ele><time>2026-04-12T07:37:26.818Z</time></trkpt><trkpt lat="45.864999041270494" lon="11.94967797755374"><ele>191.0</ele><time>2026-04-12T07:37:27.818Z</time></trkpt><trkpt lat="45.86510743802573" lon="11.949848981417986"><ele>191.0</ele><time>2026-04-12T07:37:28.818Z</time></trkpt><trkpt lat="45.86521408323202" lon="11.950018556485908"><ele>191.0</ele><time>2026-04-12T07:37:29.818Z</time></trkpt><trkpt lat="45.865314593445326" lon="11.95017893675094"><ele>191.33333333333331</ele><time>2026-04-12T07:37:30.818Z</time></trkpt><trkpt lat="45.86541444968428" lon="11.950341327674519"><ele>191.66666666666666</ele><time>2026-04-12T07:37:31.818Z</time></trkpt><trkpt lat="45.865521131078864" lon="11.95051185541711"><ele>192.0</ele><time>2026-04-12T07:37:32.818Z</time></trkpt><trkpt lat="45.865628452898775" lon="11.950691280895201"><ele>192.0</ele><time>2026-04-12T07:37:33.818Z</time></trkpt><trkpt lat="45.865734996911115" lon="11.95085888166638"><ele>192.0</ele><time>2026-04-12T07:37:34.818Z</time></trkpt><trkpt lat="45.86583735300269" lon="11.951016404246248"><ele>192.0</ele><time>2026-04-12T07:37:35.818Z</time></trkpt><trkpt lat="45.865918880932526" lon="11.951160432371548"><ele>192.0</ele><time>2026-04-12T07:37:36.818Z</time></trkpt><trkpt lat="45.865998068698794" lon="11.951287839066884"><ele>192.0</ele><time>2026-04-12T07:37:37.818Z</time></trkpt><trkpt lat="45.86607684274493" lon="11.951414406468205"><ele>192.0</ele><time>2026-04-12T07:37:38.818Z</time></trkpt><trkpt lat="45.866150692486876" lon="11.951539270260657"><ele>192.0</ele><time>2026-04-12T07:37:39.818Z</time></trkpt><trkpt lat="45.86623289159387" lon="11.951665135414112"><ele>192.0</ele><time>2026-04-12T07:37:40.818Z</time></trkpt><trkpt lat="45.866316176565164" lon="11.951787272217896"><ele>192.0</ele><time>2026-04-12T07:37:41.818Z</time></trkpt><trkpt lat="45.86639812300784" lon="11.951927601421358"><ele>192.0</ele><time>2026-04-12T07:37:42.818Z</time></trkpt><trkpt lat="45.86650076620122" lon="11.952069439018508"><ele>192.0</ele><time>2026-04-12T07:37:43.818Z</time></trkpt><trkpt lat="45.866586228432034" lon="11.952201699988834"><ele>192.0</ele><time>2026-04-12T07:37:44.818Z</time></trkpt><trkpt lat="45.866650713610554" lon="11.952321068523329"><ele>192.0</ele><time>2026-04-12T07:37:45.818Z</time></trkpt><trkpt lat="45.86669405239354" lon="11.95241969120704"><ele>192.0</ele><time>2026-04-12T07:37:46.818Z</time></trkpt><trkpt lat="45.866764325006706" lon="11.95252009562797"><ele>192.0</ele><time>2026-04-12T07:37:47.818Z</time></trkpt><trkpt lat="45.86680942548001" lon="11.952617443847883"><ele>192.0</ele><time>2026-04-12T07:37:48.818Z</time></trkpt><trkpt lat="45.86684614314411" lon="11.952725869197467"><ele>192.0</ele><time>2026-04-12T07:37:49.818Z</time></trkpt><trkpt lat="45.86686873314074" lon="11.952852716176038"><ele>192.0</ele><time>2026-04-12T07:37:50.818Z</time></trkpt><trkpt lat="45.86688891613274" lon="11.952998886081403"><ele>192.2</ele><time>2026-04-12T07:37:51.818Z</time></trkpt><trkpt lat="45.866905075255325" lon="11.95312522975097"><ele>192.39999999999998</ele><time>2026-04-12T07:37:52.818Z</time></trkpt><trkpt lat="45.866960382830094" lon="11.953226885034884"><ele>192.60000000000002</ele><time>2026-04-12T07:37:53.818Z</time></trkpt><trkpt lat="45.86703377838244" lon="11.953285745752863"><ele>192.8</ele><time>2026-04-12T07:37:54.818Z</time></trkpt><trkpt lat="45.867139379440935" lon="11.95333474832346"><ele>193.0</ele><time>2026-04-12T07:37:55.818Z</time></trkpt><trkpt lat="45.867277940153244" lon="11.953420772027313"><ele>193.0</ele><time>2026-04-12T07:37:56.818Z</time></trkpt><trkpt lat="45.867423287001465" lon="11.953573334996014"><ele>193.0</ele><time>2026-04-12T07:37:57.818Z</time></trkpt><trkpt lat="45.8675516555218" lon="11.953805601124389"><ele>193.0</ele><time>2026-04-12T07:37:58.818Z</time></trkpt><trkpt lat="45.86766834309319" lon="11.95396988841981"><ele>192.99999999999997</ele><time>2026-04-12T07:37:59.818Z</time></trkpt><trkpt lat="45.86773183078353" lon="11.954093774163338"><ele>193.0</ele><time>2026-04-12T07:38:00.818Z</time></trkpt><trkpt lat="45.86777234816833" lon="11.954165540359211"><ele>193.0</ele><time>2026-04-12T07:38:01.818Z</time></trkpt><trkpt lat="45.867812656860174" lon="11.954246464381894"><ele>193.0</ele><time>2026-04-12T07:38:03.818Z</time></trkpt><trkpt lat="45.8678350049124" lon="11.954331294715406"><ele>192.99999999999997</ele><time>2026-04-12T07:38:06.818Z</time></trkpt><trkpt lat="45.86792142676489" lon="11.95441812015392"><ele>193.0</ele><time>2026-04-12T07:38:53.818Z</time></trkpt><trkpt lat="45.867998589880315" lon="11.954539197235498"><ele>193.0</ele><time>2026-04-12T07:38:54.819Z</time></trkpt><trkpt lat="45.86812137860149" lon="11.954730134845228"><ele>193.0</ele><time>2026-04-12T07:38:55.819Z</time></trkpt><trkpt lat="45.868243327003334" lon="11.95493129153877"><ele>193.0</ele><time>2026-04-12T07:38:56.819Z</time></trkpt><trkpt lat="45.86835369992908" lon="11.955112142625778"><ele>193.33333333333331</ele><time>2026-04-12T07:38:57.819Z</time></trkpt><trkpt lat="45.86847931864124" lon="11.95532573813994"><ele>193.66666666666669</ele><time>2026-04-12T07:38:58.819Z</time></trkpt><trkpt lat="45.86862008137481" lon="11.955554631532715"><ele>194.0</ele><time>2026-04-12T07:38:59.819Z</time></trkpt><trkpt lat="45.868782699887056" lon="11.955810558867634"><ele>194.66666666666669</ele><time>2026-04-12T07:39:00.819Z</time></trkpt><trkpt lat="45.8689195653514" lon="11.956028256015268"><ele>195.33333333333331</ele><time>2026-04-12T07:39:01.819Z</time></trkpt><trkpt lat="45.86903955520745" lon="11.956225603775383"><ele>196.0</ele><time>2026-04-12T07:39:02.819Z</time></trkpt><trkpt lat="45.86915469633151" lon="11.956418973933454"><ele>196.0</ele><time>2026-04-12T07:39:03.819Z</time></trkpt><trkpt lat="45.86927548395707" lon="11.956623963539823"><ele>196.0</ele><time>2026-04-12T07:39:04.819Z</time></trkpt><trkpt lat="45.869395896132254" lon="11.956834053722472"><ele>196.0</ele><time>2026-04-12T07:39:05.819Z</time></trkpt><trkpt lat="45.8695104650102" lon="11.957040413161065"><ele>196.66666666666666</ele><time>2026-04-12T07:39:06.819Z</time></trkpt><trkpt lat="45.869635880160075" lon="11.957266196439091"><ele>197.33333333333331</ele><time>2026-04-12T07:39:07.819Z</time></trkpt><trkpt lat="45.86976270927775" lon="11.957503716681533"><ele>198.0</ele><time>2026-04-12T07:39:08.819Z</time></trkpt><trkpt lat="45.869865492523466" lon="11.95772252673712"><ele>198.0</ele><time>2026-04-12T07:39:09.819Z</time></trkpt><trkpt lat="45.8699604893578" lon="11.957924383592564"><ele>198.0</ele><time>2026-04-12T07:39:10.819Z</time></trkpt><trkpt lat="45.87005984379178" lon="11.958133471324913"><ele>198.0</ele><time>2026-04-12T07:39:11.819Z</time></trkpt><trkpt lat="45.87016400906832" lon="11.958368316712793"><ele>197.33333333333331</ele><time>2026-04-12T07:39:12.819Z</time></trkpt><trkpt lat="45.87027260052692" lon="11.958624479198072"><ele>196.66666666666666</ele><time>2026-04-12T07:39:13.819Z</time></trkpt><trkpt lat="45.870370752616545" lon="11.958874812230693"><ele>196.0</ele><time>2026-04-12T07:39:14.819Z</time></trkpt><trkpt lat="45.87046184709625" lon="11.959109360265467"><ele>196.0</ele><time>2026-04-12T07:39:15.819Z</time></trkpt><trkpt lat="45.87055160715165" lon="11.959344887067456"><ele>196.0</ele><time>2026-04-12T07:39:16.819Z</time></trkpt><trkpt lat="45.87064151014538" lon="11.959588067285903"><ele>196.0</ele><time>2026-04-12T07:39:17.819Z</time></trkpt><trkpt lat="45.87073339714049" lon="11.959834212218373"><ele>196.66666666666666</ele><time>2026-04-12T07:39:18.819Z</time></trkpt><trkpt lat="45.87083493774999" lon="11.960112732790995"><ele>197.33333333333331</ele><time>2026-04-12T07:39:19.819Z</time></trkpt><trkpt lat="45.870924434305884" lon="11.960403727956008"><ele>198.0</ele><time>2026-04-12T07:39:20.819Z</time></trkpt><trkpt lat="45.87102392407966" lon="11.960641886759515"><ele>196.33333333333331</ele><time>2026-04-12T07:39:21.819Z</time></trkpt><trkpt lat="45.87110872270268" lon="11.960885007184395"><ele>194.66666666666666</ele><time>2026-04-12T07:39:22.819Z</time></trkpt><trkpt lat="45.87120130097853" lon="11.96112677038304"><ele>193.0</ele><time>2026-04-12T07:39:23.819Z</time></trkpt><trkpt lat="45.871291014541505" lon="11.961361786769533"><ele>193.0</ele><time>2026-04-12T07:39:24.819Z</time></trkpt><trkpt lat="45.87137519097317" lon="11.96159718208169"><ele>193.0</ele><time>2026-04-12T07:39:25.819Z</time></trkpt><trkpt lat="45.87145093080735" lon="11.961833448670568"><ele>193.0</ele><time>2026-04-12T07:39:26.819Z</time></trkpt><trkpt lat="45.871546155369614" lon="11.962045021609965"><ele>191.66666666666666</ele><time>2026-04-12T07:39:27.819Z</time></trkpt><trkpt lat="45.87162720962859" lon="11.96226607001554"><ele>190.33333333333331</ele><time>2026-04-12T07:39:28.819Z</time></trkpt><trkpt lat="45.87169020961099" lon="11.962490506102124"><ele>189.0</ele><time>2026-04-12T07:39:29.819Z</time></trkpt><trkpt lat="45.87177838387588" lon="11.962690447369072"><ele>189.0</ele><time>2026-04-12T07:39:30.819Z</time></trkpt><trkpt lat="45.871844344108126" lon="11.962917856840058"><ele>189.0</ele><time>2026-04-12T07:39:31.819Z</time></trkpt><trkpt lat="45.871917917418365" lon="11.963121194844154"><ele>189.0</ele><time>2026-04-12T07:39:32.819Z</time></trkpt><trkpt lat="45.87200848573553" lon="11.963321439964284"><ele>187.66666666666666</ele><time>2026-04-12T07:39:33.819Z</time></trkpt><trkpt lat="45.87207836041887" lon="11.963565195881088"><ele>186.33333333333331</ele><time>2026-04-12T07:39:34.819Z</time></trkpt><trkpt lat="45.87218321633843" lon="11.963814335180128"><ele>185.0</ele><time>2026-04-12T07:39:35.819Z</time></trkpt><trkpt lat="45.8722943206087" lon="11.964107829235587"><ele>185.0</ele><time>2026-04-12T07:39:36.819Z</time></trkpt><trkpt lat="45.87242428862956" lon="11.964383692436366"><ele>185.0</ele><time>2026-04-12T07:39:37.819Z</time></trkpt><trkpt lat="45.872556487251025" lon="11.964626780400934"><ele>185.0</ele><time>2026-04-12T07:39:38.819Z</time></trkpt><trkpt lat="45.872708563415735" lon="11.9648639272392"><ele>180.0</ele><time>2026-04-12T07:39:39.819Z</time></trkpt><trkpt lat="45.87287851238159" lon="11.96510390369919"><ele>175.0</ele><time>2026-04-12T07:39:40.819Z</time></trkpt><trkpt lat="45.873060683838816" lon="11.965327145923013"><ele>175.0</ele><time>2026-04-12T07:39:41.819Z</time></trkpt><trkpt lat="45.87324640201892" lon="11.96550909378733"><ele>175.0</ele><time>2026-04-12T07:39:42.819Z</time></trkpt><trkpt lat="45.873423827515296" lon="11.96566544927786"><ele>175.0</ele><time>2026-04-12T07:39:43.819Z</time></trkpt><trkpt lat="45.873592641034186" lon="11.965801911612386"><ele>171.0</ele><time>2026-04-12T07:39:44.819Z</time></trkpt><trkpt lat="45.873753449376764" lon="11.96590339358064"><ele>167.0</ele><time>2026-04-12T07:39:45.819Z</time></trkpt><trkpt lat="45.87390877571436" lon="11.965953742447594"><ele>163.0</ele><time>2026-04-12T07:39:46.819Z</time></trkpt><trkpt lat="45.8740609975443" lon="11.96594791048188"><ele>163.0</ele><time>2026-04-12T07:39:47.819Z</time></trkpt><trkpt lat="45.874212042005304" lon="11.96588644175017"><ele>163.0</ele><time>2026-04-12T07:39:48.819Z</time></trkpt><trkpt lat="45.87435461844842" lon="11.965779030084297"><ele>163.0</ele><time>2026-04-12T07:39:49.819Z</time></trkpt><trkpt lat="45.874472328513995" lon="11.965644252231439"><ele>164.0</ele><time>2026-04-12T07:39:50.819Z</time></trkpt><trkpt lat="45.87456672562775" lon="11.965485173283618"><ele>165.0</ele><time>2026-04-12T07:39:51.819Z</time></trkpt><trkpt lat="45.87463780835019" lon="11.965295111332514"><ele>166.0</ele><time>2026-04-12T07:39:52.819Z</time></trkpt><trkpt lat="45.87467400432712" lon="11.965059026356267"><ele>167.75</ele><time>2026-04-12T07:39:53.819Z</time></trkpt><trkpt lat="45.87468935981618" lon="11.9648331562366"><ele>169.5</ele><time>2026-04-12T07:39:54.819Z</time></trkpt><trkpt lat="45.8747269932057" lon="11.964669811757325"><ele>171.25</ele><time>2026-04-12T07:39:55.819Z</time></trkpt><trkpt lat="45.87478976255845" lon="11.964539174609516"><ele>173.0</ele><time>2026-04-12T07:39:56.819Z</time></trkpt><trkpt lat="45.874888222592254" lon="11.964393555475743"><ele>173.0</ele><time>2026-04-12T07:39:57.819Z</time></trkpt><trkpt lat="45.87501686958725" lon="11.964247668703658"><ele>173.0</ele><time>2026-04-12T07:39:58.819Z</time></trkpt><trkpt lat="45.87512164359968" lon="11.96409319532417"><ele>173.0</ele><time>2026-04-12T07:39:59.819Z</time></trkpt><trkpt lat="45.875275590422106" lon="11.964025504172271"><ele>175.33333333333331</ele><time>2026-04-12T07:40:00.819Z</time></trkpt><trkpt lat="45.87541456449727" lon="11.963920678347721"><ele>177.66666666666666</ele><time>2026-04-12T07:40:01.819Z</time></trkpt><trkpt lat="45.87558026710034" lon="11.963822869677566"><ele>180.0</ele><time>2026-04-12T07:40:02.819Z</time></trkpt><trkpt lat="45.87574298236364" lon="11.963726450307313"><ele>180.0</ele><time>2026-04-12T07:40:03.819Z</time></trkpt><trkpt lat="45.875892817420166" lon="11.96361974943393"><ele>180.0</ele><time>2026-04-12T07:40:04.819Z</time></trkpt><trkpt lat="45.87606539214171" lon="11.963551024009334"><ele>180.0</ele><time>2026-04-12T07:40:05.819Z</time></trkpt><trkpt lat="45.8762407083391" lon="11.963459927345191"><ele>180.33333333333334</ele><time>2026-04-12T07:40:06.819Z</time></trkpt><trkpt lat="45.87641018739575" lon="11.963410541880814"><ele>180.66666666666669</ele><time>2026-04-12T07:40:07.819Z</time></trkpt><trkpt lat="45.876567723630366" lon="11.963367799141546"><ele>181.0</ele><time>2026-04-12T07:40:08.819Z</time></trkpt><trkpt lat="45.876718753835995" lon="11.963328908170526"><ele>180.33333333333334</ele><time>2026-04-12T07:40:09.819Z</time></trkpt><trkpt lat="45.87687322146663" lon="11.963297357534469"><ele>179.66666666666666</ele><time>2026-04-12T07:40:10.819Z</time></trkpt><trkpt lat="45.87703865580628" lon="11.963268585533557"><ele>179.0</ele><time>2026-04-12T07:40:11.819Z</time></trkpt><trkpt lat="45.877219180825655" lon="11.96324274985167"><ele>179.0</ele><time>2026-04-12T07:40:12.819Z</time></trkpt><trkpt lat="45.877392800569204" lon="11.963214897176844"><ele>179.0</ele><time>2026-04-12T07:40:13.819Z</time></trkpt><trkpt lat="45.877560782453614" lon="11.96317377881173"><ele>179.0</ele><time>2026-04-12T07:40:14.819Z</time></trkpt><trkpt lat="45.87773206323747" lon="11.963142644430313"><ele>178.66666666666666</ele><time>2026-04-12T07:40:15.819Z</time></trkpt><trkpt lat="45.877895088602806" lon="11.963109694750994"><ele>178.33333333333334</ele><time>2026-04-12T07:40:16.819Z</time></trkpt><trkpt lat="45.87807248704496" lon="11.963087041059055"><ele>178.0</ele><time>2026-04-12T07:40:17.819Z</time></trkpt><trkpt lat="45.87821577336455" lon="11.963048261962324"><ele>178.0</ele><time>2026-04-12T07:40:18.819Z</time></trkpt><trkpt lat="45.878375839543374" lon="11.96300934452378"><ele>178.0</ele><time>2026-04-12T07:40:19.819Z</time></trkpt><trkpt lat="45.87852378925868" lon="11.962998566431247"><ele>178.0</ele><time>2026-04-12T07:40:20.819Z</time></trkpt><trkpt lat="45.878689901747975" lon="11.962956350260345"><ele>174.66666666666669</ele><time>2026-04-12T07:40:21.819Z</time></trkpt><trkpt lat="45.878860983148016" lon="11.962894810660938"><ele>171.33333333333334</ele><time>2026-04-12T07:40:22.819Z</time></trkpt><trkpt lat="45.87903408706041" lon="11.962840882742606"><ele>168.0</ele><time>2026-04-12T07:40:23.819Z</time></trkpt><trkpt lat="45.87919744033066" lon="11.962790997810686"><ele>167.33333333333334</ele><time>2026-04-12T07:40:24.819Z</time></trkpt><trkpt lat="45.8793565014495" lon="11.962731228027005"><ele>166.66666666666669</ele><time>2026-04-12T07:40:25.819Z</time></trkpt><trkpt lat="45.87946439543793" lon="11.962644015046779"><ele>166.0</ele><time>2026-04-12T07:40:26.819Z</time></trkpt><trkpt lat="45.87963113559046" lon="11.962473237192425"><ele>167.66666666666669</ele><time>2026-04-12T07:40:27.819Z</time></trkpt><trkpt lat="45.879773862390586" lon="11.96228878470493"><ele>169.33333333333334</ele><time>2026-04-12T07:40:28.819Z</time></trkpt><trkpt lat="45.879909233786954" lon="11.962107619422712"><ele>171.0</ele><time>2026-04-12T07:40:29.819Z</time></trkpt><trkpt lat="45.88004299678696" lon="11.961941840273171"><ele>171.33333333333334</ele><time>2026-04-12T07:40:30.819Z</time></trkpt><trkpt lat="45.88016822251923" lon="11.96177814807242"><ele>171.66666666666669</ele><time>2026-04-12T07:40:31.819Z</time></trkpt><trkpt lat="45.88029514335838" lon="11.961609910165093"><ele>172.0</ele><time>2026-04-12T07:40:32.819Z</time></trkpt><trkpt lat="45.88042668710542" lon="11.96144198956731"><ele>172.0</ele><time>2026-04-12T07:40:33.819Z</time></trkpt><trkpt lat="45.88055870171728" lon="11.96127408181665"><ele>172.0</ele><time>2026-04-12T07:40:34.819Z</time></trkpt><trkpt lat="45.88066973559676" lon="11.961097040727987"><ele>172.0</ele><time>2026-04-12T07:40:35.819Z</time></trkpt><trkpt lat="45.88078467730304" lon="11.960906329572634"><ele>173.33333333333334</ele><time>2026-04-12T07:40:36.819Z</time></trkpt><trkpt lat="45.880903156534316" lon="11.960722516476357"><ele>174.66666666666666</ele><time>2026-04-12T07:40:37.819Z</time></trkpt><trkpt lat="45.88100848005992" lon="11.960514521986813"><ele>176.0</ele><time>2026-04-12T07:40:38.819Z</time></trkpt><trkpt lat="45.88110735723653" lon="11.960307221437924"><ele>173.33333333333331</ele><time>2026-04-12T07:40:39.819Z</time></trkpt><trkpt lat="45.8812044764649" lon="11.960090994628255"><ele>170.66666666666666</ele><time>2026-04-12T07:40:40.819Z</time></trkpt><trkpt lat="45.8813056013931" lon="11.959862832998606"><ele>168.0</ele><time>2026-04-12T07:40:41.819Z</time></trkpt><trkpt lat="45.88139670281795" lon="11.959624385250475"><ele>168.0</ele><time>2026-04-12T07:40:42.819Z</time></trkpt><trkpt lat="45.881507124445605" lon="11.95939030427671"><ele>168.0</ele><time>2026-04-12T07:40:43.819Z</time></trkpt><trkpt lat="45.88162248274362" lon="11.9591581953141"><ele>168.0</ele><time>2026-04-12T07:40:44.819Z</time></trkpt><trkpt lat="45.88173600280948" lon="11.958935652232805"><ele>168.33333333333334</ele><time>2026-04-12T07:40:45.819Z</time></trkpt><trkpt lat="45.881848558627496" lon="11.958729511977058"><ele>168.66666666666669</ele><time>2026-04-12T07:40:46.819Z</time></trkpt><trkpt lat="45.88196454583427" lon="11.958517807233168"><ele>169.0</ele><time>2026-04-12T07:40:47.819Z</time></trkpt><trkpt lat="45.882091920936574" lon="11.958309502915599"><ele>169.0</ele><time>2026-04-12T07:40:48.819Z</time></trkpt><trkpt lat="45.882225478048746" lon="11.958111849938716"><ele>169.0</ele><time>2026-04-12T07:40:49.819Z</time></trkpt><trkpt lat="45.88236206404257" lon="11.957909688363195"><ele>169.0</ele><time>2026-04-12T07:40:50.819Z</time></trkpt><trkpt lat="45.8824959906107" lon="11.957715870054646"><ele>168.66666666666669</ele><time>2026-04-12T07:40:51.819Z</time></trkpt><trkpt lat="45.88262448298743" lon="11.957524533228165"><ele>168.33333333333334</ele><time>2026-04-12T07:40:52.819Z</time></trkpt><trkpt lat="45.88275026860431" lon="11.957328597564164"><ele>168.0</ele><time>2026-04-12T07:40:53.819Z</time></trkpt><trkpt lat="45.882872285999724" lon="11.957129477031431"><ele>168.0</ele><time>2026-04-12T07:40:54.819Z</time></trkpt><trkpt lat="45.882985809617146" lon="11.956938331549775"><ele>168.0</ele><time>2026-04-12T07:40:55.819Z</time></trkpt><trkpt lat="45.88310284030971" lon="11.956747844022004"><ele>168.0</ele><time>2026-04-12T07:40:56.819Z</time></trkpt><trkpt lat="45.88322079360922" lon="11.956561576585992"><ele>167.33333333333334</ele><time>2026-04-12T07:40:57.819Z</time></trkpt><trkpt lat="45.88332885505432" lon="11.956388780057996"><ele>166.66666666666669</ele><time>2026-04-12T07:40:58.819Z</time></trkpt><trkpt lat="45.88343282677768" lon="11.95620633171004"><ele>166.0</ele><time>2026-04-12T07:40:59.819Z</time></trkpt><trkpt lat="45.88354141444825" lon="11.95602945175275"><ele>167.0</ele><time>2026-04-12T07:41:00.82Z</time></trkpt><trkpt lat="45.88364833478685" lon="11.955855566103487"><ele>168.0</ele><time>2026-04-12T07:41:01.82Z</time></trkpt><trkpt lat="45.8837538941015" lon="11.955675601878218"><ele>169.0</ele><time>2026-04-12T07:41:02.82Z</time></trkpt><trkpt lat="45.88386205270521" lon="11.955495386056878"><ele>169.0</ele><time>2026-04-12T07:41:03.82Z</time></trkpt><trkpt lat="45.88396536711786" lon="11.95530844837453"><ele>169.0</ele><time>2026-04-12T07:41:04.82Z</time></trkpt><trkpt lat="45.884074084750154" lon="11.955129059072203"><ele>169.0</ele><time>2026-04-12T07:41:05.82Z</time></trkpt><trkpt lat="45.88418523674485" lon="11.954955169710521"><ele>170.0</ele><time>2026-04-12T07:41:06.82Z</time></trkpt><trkpt lat="45.88428397281304" lon="11.954766524598078"><ele>171.0</ele><time>2026-04-12T07:41:07.82Z</time></trkpt><trkpt lat="45.8843838850059" lon="11.95460218419762"><ele>172.0</ele><time>2026-04-12T07:41:08.82Z</time></trkpt><trkpt lat="45.8844784614022" lon="11.954444264008504"><ele>172.0</ele><time>2026-04-12T07:41:09.82Z</time></trkpt><trkpt lat="45.88456983663235" lon="11.954278425273204"><ele>172.0</ele><time>2026-04-12T07:41:10.82Z</time></trkpt><trkpt lat="45.884653819151566" lon="11.954087071179583"><ele>172.0</ele><time>2026-04-12T07:41:11.82Z</time></trkpt><trkpt lat="45.88473384953377" lon="11.95390263526373"><ele>172.0</ele><time>2026-04-12T07:41:12.82Z</time></trkpt><trkpt lat="45.88480630947799" lon="11.95377248175926"><ele>172.0</ele><time>2026-04-12T07:41:13.82Z</time></trkpt><trkpt lat="45.88483376087144" lon="11.953447956288462"><ele>172.0</ele><time>2026-04-12T07:41:14.82Z</time></trkpt><trkpt lat="45.88487035006533" lon="11.953218322452951"><ele>173.66666666666669</ele><time>2026-04-12T07:41:15.82Z</time></trkpt><trkpt lat="45.88491208885975" lon="11.95298800530251"><ele>175.33333333333334</ele><time>2026-04-12T07:41:16.82Z</time></trkpt><trkpt lat="45.8849541274303" lon="11.95274935907489"><ele>177.0</ele><time>2026-04-12T07:41:17.82Z</time></trkpt><trkpt lat="45.88499054920567" lon="11.95249798579518"><ele>179.33333333333334</ele><time>2026-04-12T07:41:18.82Z</time></trkpt><trkpt lat="45.88502428725656" lon="11.952249501756182"><ele>181.66666666666669</ele><time>2026-04-12T07:41:19.82Z</time></trkpt><trkpt lat="45.88506771337315" lon="11.95201933956715"><ele>184.0</ele><time>2026-04-12T07:41:20.82Z</time></trkpt><trkpt lat="45.885112719424995" lon="11.951788026651727"><ele>178.0</ele><time>2026-04-12T07:41:21.82Z</time></trkpt><trkpt lat="45.88515024906854" lon="11.951560062488412"><ele>172.0</ele><time>2026-04-12T07:41:22.82Z</time></trkpt><trkpt lat="45.88519188919921" lon="11.951331730294662"><ele>166.0</ele><time>2026-04-12T07:41:23.82Z</time></trkpt><trkpt lat="45.885238230073746" lon="11.951114190392543"><ele>166.0</ele><time>2026-04-12T07:41:24.82Z</time></trkpt><trkpt lat="45.88528536352532" lon="11.950905293702816"><ele>166.0</ele><time>2026-04-12T07:41:25.82Z</time></trkpt><trkpt lat="45.88533449274828" lon="11.950691315279812"><ele>166.0</ele><time>2026-04-12T07:41:26.82Z</time></trkpt><trkpt lat="45.88538052922566" lon="11.950466809181563"><ele>164.66666666666669</ele><time>2026-04-12T07:41:27.82Z</time></trkpt><trkpt lat="45.88542739007509" lon="11.950228136789171"><ele>163.33333333333334</ele><time>2026-04-12T07:41:28.82Z</time></trkpt><trkpt lat="45.88547261364446" lon="11.94999066033704"><ele>162.0</ele><time>2026-04-12T07:41:29.82Z</time></trkpt><trkpt lat="45.885530827464535" lon="11.949753841963549"><ele>164.66666666666666</ele><time>2026-04-12T07:41:30.82Z</time></trkpt><trkpt lat="45.88560324288823" lon="11.949538695691095"><ele>167.33333333333331</ele><time>2026-04-12T07:41:31.82Z</time></trkpt><trkpt lat="45.88567124126484" lon="11.94932777352755"><ele>170.0</ele><time>2026-04-12T07:41:32.82Z</time></trkpt><trkpt lat="45.88575162903031" lon="11.949114827675183"><ele>169.66666666666666</ele><time>2026-04-12T07:41:33.82Z</time></trkpt><trkpt lat="45.88582923218058" lon="11.948886473503896"><ele>169.33333333333334</ele><time>2026-04-12T07:41:34.82Z</time></trkpt><trkpt lat="45.88591277082105" lon="11.948674494579373"><ele>169.0</ele><time>2026-04-12T07:41:35.82Z</time></trkpt><trkpt lat="45.88599659460972" lon="11.948467801532175"><ele>169.0</ele><time>2026-04-12T07:41:36.82Z</time></trkpt><trkpt lat="45.88608112685357" lon="11.948246787501864"><ele>169.0</ele><time>2026-04-12T07:41:37.82Z</time></trkpt><trkpt lat="45.88619103542608" lon="11.948053801002294"><ele>169.0</ele><time>2026-04-12T07:41:38.82Z</time></trkpt><trkpt lat="45.88628279557193" lon="11.9478362544656"><ele>169.0</ele><time>2026-04-12T07:41:39.82Z</time></trkpt><trkpt lat="45.88638860025839" lon="11.947639544361241"><ele>169.0</ele><time>2026-04-12T07:41:40.82Z</time></trkpt><trkpt lat="45.88651398947623" lon="11.947458987591572"><ele>169.0</ele><time>2026-04-12T07:41:41.82Z</time></trkpt><trkpt lat="45.88664586761158" lon="11.947280644947918"><ele>169.33333333333334</ele><time>2026-04-12T07:41:42.82Z</time></trkpt><trkpt lat="45.88680152862312" lon="11.947118536867771"><ele>169.66666666666666</ele><time>2026-04-12T07:41:43.82Z</time></trkpt><trkpt lat="45.88696425213461" lon="11.946969410170658"><ele>170.0</ele><time>2026-04-12T07:41:44.82Z</time></trkpt><trkpt lat="45.88711582030768" lon="11.946835307860928"><ele>174.33333333333331</ele><time>2026-04-12T07:41:45.82Z</time></trkpt><trkpt lat="45.887270445482635" lon="11.946694316340503"><ele>178.66666666666666</ele><time>2026-04-12T07:41:46.82Z</time></trkpt><trkpt lat="45.88741484081809" lon="11.946562652235398"><ele>183.0</ele><time>2026-04-12T07:41:47.82Z</time></trkpt><trkpt lat="45.88755593134786" lon="11.94641066548481"><ele>178.66666666666666</ele><time>2026-04-12T07:41:48.82Z</time></trkpt><trkpt lat="45.887707584021264" lon="11.946281233418297"><ele>174.33333333333331</ele><time>2026-04-12T07:41:49.82Z</time></trkpt><trkpt lat="45.88786129812986" lon="11.946151220386753"><ele>170.0</ele><time>2026-04-12T07:41:50.82Z</time></trkpt><trkpt lat="45.888028087379666" lon="11.946015457620723"><ele>169.66666666666666</ele><time>2026-04-12T07:41:51.82Z</time></trkpt><trkpt lat="45.88819056322217" lon="11.945870416443926"><ele>169.33333333333334</ele><time>2026-04-12T07:41:52.82Z</time></trkpt><trkpt lat="45.888349075993844" lon="11.945723136933571"><ele>169.0</ele><time>2026-04-12T07:41:53.82Z</time></trkpt><trkpt lat="45.88849605201207" lon="11.945592133375492"><ele>169.0</ele><time>2026-04-12T07:41:54.82Z</time></trkpt><trkpt lat="45.88864576410217" lon="11.945453090472984"><ele>169.0</ele><time>2026-04-12T07:41:55.82Z</time></trkpt><trkpt lat="45.888804730609365" lon="11.94530909450784"><ele>169.0</ele><time>2026-04-12T07:41:56.82Z</time></trkpt><trkpt lat="45.88895369730099" lon="11.945167938161264"><ele>170.66666666666669</ele><time>2026-04-12T07:41:57.82Z</time></trkpt><trkpt lat="45.889116893582575" lon="11.945025528835354"><ele>172.33333333333334</ele><time>2026-04-12T07:41:58.82Z</time></trkpt><trkpt lat="45.88928397751983" lon="11.944890766375543"><ele>174.0</ele><time>2026-04-12T07:41:59.82Z</time></trkpt><trkpt lat="45.88944555100302" lon="11.944742056210561"><ele>174.0</ele><time>2026-04-12T07:42:00.82Z</time></trkpt><trkpt lat="45.88960275574054" lon="11.944596203183975"><ele>174.0</ele><time>2026-04-12T07:42:01.82Z</time></trkpt><trkpt lat="45.88975695722018" lon="11.944449318377927"><ele>174.0</ele><time>2026-04-12T07:42:02.82Z</time></trkpt><trkpt lat="45.88990287274912" lon="11.944313498999836"><ele>174.66666666666666</ele><time>2026-04-12T07:42:03.82Z</time></trkpt><trkpt lat="45.89004641900978" lon="11.944192336871666"><ele>175.33333333333331</ele><time>2026-04-12T07:42:04.82Z</time></trkpt><trkpt lat="45.89018586981852" lon="11.944088923233315"><ele>176.0</ele><time>2026-04-12T07:42:05.82Z</time></trkpt><trkpt lat="45.89033099717355" lon="11.944015208686892"><ele>176.0</ele><time>2026-04-12T07:42:06.82Z</time></trkpt><trkpt lat="45.89049594336165" lon="11.943957127319083"><ele>176.0</ele><time>2026-04-12T07:42:07.82Z</time></trkpt><trkpt lat="45.89066085925184" lon="11.943917090487679"><ele>176.0</ele><time>2026-04-12T07:42:08.82Z</time></trkpt><trkpt lat="45.890827851842886" lon="11.943894252589791"><ele>175.66666666666666</ele><time>2026-04-12T07:42:09.82Z</time></trkpt><trkpt lat="45.89098941929985" lon="11.943875849575234"><ele>175.33333333333334</ele><time>2026-04-12T07:42:10.82Z</time></trkpt><trkpt lat="45.89115645398256" lon="11.9438548748839"><ele>175.0</ele><time>2026-04-12T07:42:11.82Z</time></trkpt><trkpt lat="45.89131572333928" lon="11.943832497735514"><ele>175.0</ele><time>2026-04-12T07:42:12.82Z</time></trkpt><trkpt lat="45.89145306494086" lon="11.943810074612315"><ele>175.0</ele><time>2026-04-12T07:42:13.82Z</time></trkpt><trkpt lat="45.891626053588595" lon="11.943771286411563"><ele>175.0</ele><time>2026-04-12T07:42:14.82Z</time></trkpt><trkpt lat="45.891804014235575" lon="11.94372658304294"><ele>175.5</ele><time>2026-04-12T07:42:15.82Z</time></trkpt><trkpt lat="45.892038569512174" lon="11.943711105406424"><ele>176.0</ele><time>2026-04-12T07:42:16.82Z</time></trkpt><trkpt lat="45.89229637958346" lon="11.943686072075943"><ele>176.0</ele><time>2026-04-12T07:42:17.82Z</time></trkpt><trkpt lat="45.892285631062684" lon="11.9435844079824"><ele>176.0</ele><time>2026-04-12T07:42:18.82Z</time></trkpt><trkpt lat="45.892450838501325" lon="11.943514191082754"><ele>176.0</ele><time>2026-04-12T07:42:19.82Z</time></trkpt><trkpt lat="45.89262190760701" lon="11.943428680349319"><ele>176.0</ele><time>2026-04-12T07:42:20.82Z</time></trkpt><trkpt lat="45.892794872544876" lon="11.943322496047113"><ele>176.66666666666666</ele><time>2026-04-12T07:42:21.82Z</time></trkpt><trkpt lat="45.89297353754143" lon="11.9432111130748"><ele>177.33333333333334</ele><time>2026-04-12T07:42:22.82Z</time></trkpt><trkpt lat="45.89314158947624" lon="11.943081137695795"><ele>178.0</ele><time>2026-04-12T07:42:23.82Z</time></trkpt><trkpt lat="45.893323478528146" lon="11.942944635941332"><ele>175.33333333333334</ele><time>2026-04-12T07:42:24.82Z</time></trkpt><trkpt lat="45.893490897669" lon="11.94280471561677"><ele>172.66666666666666</ele><time>2026-04-12T07:42:25.82Z</time></trkpt><trkpt lat="45.89365204693689" lon="11.942667920694085"><ele>170.0</ele><time>2026-04-12T07:42:26.82Z</time></trkpt><trkpt lat="45.893818070232655" lon="11.942553662972635"><ele>172.66666666666666</ele><time>2026-04-12T07:42:27.82Z</time></trkpt><trkpt lat="45.8939849454583" lon="11.9424521422474"><ele>175.33333333333334</ele><time>2026-04-12T07:42:28.82Z</time></trkpt><trkpt lat="45.89417256591537" lon="11.94237431721314"><ele>178.0</ele><time>2026-04-12T07:42:29.82Z</time></trkpt><trkpt lat="45.894372169040764" lon="11.942337521157878"><ele>178.0</ele><time>2026-04-12T07:42:30.82Z</time></trkpt><trkpt lat="45.89457355553543" lon="11.942328579177904"><ele>178.0</ele><time>2026-04-12T07:42:31.82Z</time></trkpt><trkpt lat="45.894770327532335" lon="11.942343884360161"><ele>178.0</ele><time>2026-04-12T07:42:32.82Z</time></trkpt><trkpt lat="45.894967757538275" lon="11.94236473856274"><ele>179.66666666666669</ele><time>2026-04-12T07:42:33.82Z</time></trkpt><trkpt lat="45.89515543007928" lon="11.942401088286067"><ele>181.33333333333334</ele><time>2026-04-12T07:42:34.82Z</time></trkpt><trkpt lat="45.89533174618656" lon="11.94243188898688"><ele>183.0</ele><time>2026-04-12T07:42:35.82Z</time></trkpt><trkpt lat="45.89550181942586" lon="11.942460141870294"><ele>183.0</ele><time>2026-04-12T07:42:36.82Z</time></trkpt><trkpt lat="45.895654318880226" lon="11.9425252218155"><ele>183.0</ele><time>2026-04-12T07:42:37.82Z</time></trkpt><trkpt lat="45.895797508565835" lon="11.942549166285234"><ele>183.0</ele><time>2026-04-12T07:42:38.82Z</time></trkpt><trkpt lat="45.89593841516745" lon="11.942572729001625"><ele>183.0</ele><time>2026-04-12T07:42:39.82Z</time></trkpt><trkpt lat="45.89608123405491" lon="11.942596611050911"><ele>180.66666666666666</ele><time>2026-04-12T07:42:40.82Z</time></trkpt><trkpt lat="45.89619897947907" lon="11.942615585342207"><ele>178.33333333333331</ele><time>2026-04-12T07:42:41.82Z</time></trkpt><trkpt lat="45.89639611695822" lon="11.942645443324809"><ele>176.0</ele><time>2026-04-12T07:42:42.82Z</time></trkpt><trkpt lat="45.896639587770316" lon="11.942673421457025"><ele>175.5</ele><time>2026-04-12T07:42:43.82Z</time></trkpt><trkpt lat="45.896765049777514" lon="11.942684832061277"><ele>175.0</ele><time>2026-04-12T07:42:45.82Z</time></trkpt><trkpt lat="45.89691515289465" lon="11.942698483766817"><ele>174.5</ele><time>2026-04-12T07:42:46.82Z</time></trkpt><trkpt lat="45.89705834369181" lon="11.942711172990958"><ele>174.0</ele><time>2026-04-12T07:42:47.82Z</time></trkpt><trkpt lat="45.89719306326578" lon="11.942719411697478"><ele>174.0</ele><time>2026-04-12T07:42:48.82Z</time></trkpt><trkpt lat="45.89731126578701" lon="11.942721538997974"><ele>174.0</ele><time>2026-04-12T07:42:49.82Z</time></trkpt><trkpt lat="45.89742398115896" lon="11.942719664626612"><ele>174.0</ele><time>2026-04-12T07:42:50.82Z</time></trkpt><trkpt lat="45.897552806876" lon="11.942711062336341"><ele>174.0</ele><time>2026-04-12T07:42:51.82Z</time></trkpt><trkpt lat="45.89766310748073" lon="11.942699524115294"><ele>174.0</ele><time>2026-04-12T07:42:52.82Z</time></trkpt><trkpt lat="45.897769379713914" lon="11.942688767427647"><ele>174.0</ele><time>2026-04-12T07:42:53.82Z</time></trkpt><trkpt lat="45.89787783345338" lon="11.942677792015347"><ele>174.0</ele><time>2026-04-12T07:42:54.82Z</time></trkpt><trkpt lat="45.89797240309217" lon="11.942667276781654"><ele>174.0</ele><time>2026-04-12T07:42:55.82Z</time></trkpt><trkpt lat="45.898080306238974" lon="11.942655059708647"><ele>174.0</ele><time>2026-04-12T07:42:56.82Z</time></trkpt><trkpt lat="45.898182123122695" lon="11.942643531778096"><ele>174.0</ele><time>2026-04-12T07:42:57.82Z</time></trkpt><trkpt lat="45.898280861958106" lon="11.942632545462"><ele>174.0</ele><time>2026-04-12T07:42:58.82Z</time></trkpt><trkpt lat="45.8983943376635" lon="11.942622375013594"><ele>174.0</ele><time>2026-04-12T07:42:59.82Z</time></trkpt><trkpt lat="45.89850175015729" lon="11.942618537912509"><ele>174.0</ele><time>2026-04-12T07:43:00.82Z</time></trkpt><trkpt lat="45.89859551139489" lon="11.942622298146839"><ele>174.0</ele><time>2026-04-12T07:43:01.82Z</time></trkpt><trkpt lat="45.898682133674775" lon="11.942630919708803"><ele>175.0</ele><time>2026-04-12T07:43:02.82Z</time></trkpt><trkpt lat="45.89876531467606" lon="11.942644770685417"><ele>176.0</ele><time>2026-04-12T07:43:03.82Z</time></trkpt><trkpt lat="45.89884435072522" lon="11.942660807310416"><ele>177.0</ele><time>2026-04-12T07:43:04.82Z</time></trkpt><trkpt lat="45.89891772875828" lon="11.94267838741713"><ele>178.0</ele><time>2026-04-12T07:43:05.82Z</time></trkpt><trkpt lat="45.89899653205521" lon="11.942698887368087"><ele>179.0</ele><time>2026-04-12T07:43:06.821Z</time></trkpt><trkpt lat="45.899090558394256" lon="11.94272482361979"><ele>180.0</ele><time>2026-04-12T07:43:07.821Z</time></trkpt><trkpt lat="45.89916432786681" lon="11.942749127094588"><ele>180.0</ele><time>2026-04-12T07:43:09.821Z</time></trkpt><trkpt lat="45.89923992786056" lon="11.942779445692043"><ele>180.0</ele><time>2026-04-12T07:43:11.821Z</time></trkpt><trkpt lat="45.899320909907324" lon="11.9428223784672"><ele>180.0</ele><time>2026-04-12T07:43:14.821Z</time></trkpt><trkpt lat="45.899389768670204" lon="11.942867118873691"><ele>180.0</ele><time>2026-04-12T07:43:16.821Z</time></trkpt><trkpt lat="45.899464156023555" lon="11.942915098714712"><ele>180.0</ele><time>2026-04-12T07:43:18.822Z</time></trkpt><trkpt lat="45.89951587330979" lon="11.943007321960494"><ele>180.0</ele><time>2026-04-12T07:43:19.822Z</time></trkpt><trkpt lat="45.89951740485255" lon="11.9430997526666"><ele>180.8</ele><time>2026-04-12T07:43:20.822Z</time></trkpt><trkpt lat="45.89956857271228" lon="11.943218584523539"><ele>181.6</ele><time>2026-04-12T07:43:21.822Z</time></trkpt><trkpt lat="45.899603017080246" lon="11.943317559385756"><ele>182.39999999999998</ele><time>2026-04-12T07:43:22.822Z</time></trkpt><trkpt lat="45.899730484951625" lon="11.943292031348921"><ele>183.2</ele><time>2026-04-12T07:43:24.822Z</time></trkpt><trkpt lat="45.89979793022777" lon="11.94321943522201"><ele>184.0</ele><time>2026-04-12T07:43:25.822Z</time></trkpt><trkpt lat="45.899852866346485" lon="11.943120639533422"><ele>184.0</ele><time>2026-04-12T07:43:26.822Z</time></trkpt><trkpt lat="45.89990846377715" lon="11.943047772024618"><ele>184.0</ele><time>2026-04-12T07:43:27.822Z</time></trkpt><trkpt lat="45.90000105729553" lon="11.942998227828186"><ele>184.0</ele><time>2026-04-12T07:43:28.822Z</time></trkpt><trkpt lat="45.900109314328866" lon="11.942979142672685"><ele>184.0</ele><time>2026-04-12T07:43:29.822Z</time></trkpt><trkpt lat="45.90019820289272" lon="11.942988328974241"><ele>184.0</ele><time>2026-04-12T07:43:30.822Z</time></trkpt><trkpt lat="45.90031702287344" lon="11.942960305692601"><ele>184.5</ele><time>2026-04-12T07:43:31.822Z</time></trkpt><trkpt lat="45.90042978264555" lon="11.942956612837005"><ele>185.0</ele><time>2026-04-12T07:43:32.822Z</time></trkpt><trkpt lat="45.90054666170026" lon="11.942942401083696"><ele>185.5</ele><time>2026-04-12T07:43:33.822Z</time></trkpt><trkpt lat="45.90065119230926" lon="11.942923672747927"><ele>186.0</ele><time>2026-04-12T07:43:34.822Z</time></trkpt><trkpt lat="45.90076956115367" lon="11.942911815488488"><ele>186.0</ele><time>2026-04-12T07:43:35.822Z</time></trkpt><trkpt lat="45.90089538973551" lon="11.94289036145523"><ele>186.0</ele><time>2026-04-12T07:43:36.822Z</time></trkpt><trkpt lat="45.90102679496327" lon="11.942864567278672"><ele>186.0</ele><time>2026-04-12T07:43:37.822Z</time></trkpt><trkpt lat="45.90116814858579" lon="11.942834609856574"><ele>186.0</ele><time>2026-04-12T07:43:38.822Z</time></trkpt><trkpt lat="45.90130984104387" lon="11.94280269051978"><ele>185.75</ele><time>2026-04-12T07:43:39.822Z</time></trkpt><trkpt lat="45.90144708855388" lon="11.942779516548272"><ele>185.5</ele><time>2026-04-12T07:43:40.822Z</time></trkpt><trkpt lat="45.90158505306522" lon="11.942742086257976"><ele>185.25</ele><time>2026-04-12T07:43:41.822Z</time></trkpt><trkpt lat="45.90171161536889" lon="11.942711943830206"><ele>185.0</ele><time>2026-04-12T07:43:42.822Z</time></trkpt><trkpt lat="45.90185053226289" lon="11.942682488399583"><ele>186.0</ele><time>2026-04-12T07:43:43.822Z</time></trkpt><trkpt lat="45.90200027735157" lon="11.942641912872922"><ele>187.0</ele><time>2026-04-12T07:43:44.822Z</time></trkpt><trkpt lat="45.902166540468066" lon="11.942594300925418"><ele>188.0</ele><time>2026-04-12T07:43:45.822Z</time></trkpt><trkpt lat="45.902306959039414" lon="11.9425496088354"><ele>188.66666666666666</ele><time>2026-04-12T07:43:46.822Z</time></trkpt><trkpt lat="45.90245751284087" lon="11.94250728229055"><ele>189.33333333333334</ele><time>2026-04-12T07:43:47.822Z</time></trkpt><trkpt lat="45.90261033460143" lon="11.942460995851864"><ele>190.0</ele><time>2026-04-12T07:43:48.822Z</time></trkpt><trkpt lat="45.90277444643793" lon="11.942418110764248"><ele>190.0</ele><time>2026-04-12T07:43:49.822Z</time></trkpt><trkpt lat="45.9029497187312" lon="11.942363103838835"><ele>190.0</ele><time>2026-04-12T07:43:50.822Z</time></trkpt><trkpt lat="45.903133071350595" lon="11.942294686041222"><ele>190.0</ele><time>2026-04-12T07:43:51.822Z</time></trkpt><trkpt lat="45.90329686951055" lon="11.942233319383874"><ele>189.75</ele><time>2026-04-12T07:43:52.822Z</time></trkpt><trkpt lat="45.90344480723332" lon="11.942177095683093"><ele>189.5</ele><time>2026-04-12T07:43:53.822Z</time></trkpt><trkpt lat="45.90358517886488" lon="11.942110465142353"><ele>189.25</ele><time>2026-04-12T07:43:54.822Z</time></trkpt><trkpt lat="45.903716090350116" lon="11.942049818638447"><ele>189.0</ele><time>2026-04-12T07:43:55.822Z</time></trkpt><trkpt lat="45.90385253617642" lon="11.941985736850143"><ele>189.0</ele><time>2026-04-12T07:43:56.822Z</time></trkpt><trkpt lat="45.90399264869183" lon="11.941927767885144"><ele>189.0</ele><time>2026-04-12T07:43:57.822Z</time></trkpt><trkpt lat="45.904139699062334" lon="11.941871039363528"><ele>189.0</ele><time>2026-04-12T07:43:58.822Z</time></trkpt><trkpt lat="45.90427891795508" lon="11.941806525370465"><ele>189.0</ele><time>2026-04-12T07:43:59.822Z</time></trkpt><trkpt lat="45.904421327591315" lon="11.941743333424881"><ele>189.25</ele><time>2026-04-12T07:44:00.822Z</time></trkpt><trkpt lat="45.90455341252941" lon="11.941683002407204"><ele>189.5</ele><time>2026-04-12T07:44:01.822Z</time></trkpt><trkpt lat="45.90467072692278" lon="11.941633585309917"><ele>189.75</ele><time>2026-04-12T07:44:02.822Z</time></trkpt><trkpt lat="45.90477061973604" lon="11.941588883418742"><ele>190.0</ele><time>2026-04-12T07:44:03.822Z</time></trkpt><trkpt lat="45.904851590746986" lon="11.9415434953241"><ele>190.0</ele><time>2026-04-12T07:44:04.822Z</time></trkpt><trkpt lat="45.904909066611715" lon="11.941503027129068"><ele>190.0</ele><time>2026-04-12T07:44:05.822Z</time></trkpt><trkpt lat="45.9049970312006" lon="11.941455373639227"><ele>190.0</ele><time>2026-04-12T07:44:07.822Z</time></trkpt><trkpt lat="45.90507781802779" lon="11.941415794895502"><ele>190.0</ele><time>2026-04-12T07:44:09.822Z</time></trkpt><trkpt lat="45.90522363745987" lon="11.941382904945119"><ele>190.0</ele><time>2026-04-12T07:44:11.822Z</time></trkpt><trkpt lat="45.90529874770596" lon="11.941381495161846"><ele>188.6</ele><time>2026-04-12T07:44:12.822Z</time></trkpt><trkpt lat="45.905376278407765" lon="11.94138462565409"><ele>187.2</ele><time>2026-04-12T07:44:13.822Z</time></trkpt><trkpt lat="45.90544950389063" lon="11.941436672159828"><ele>185.8</ele><time>2026-04-12T07:44:14.822Z</time></trkpt><trkpt lat="45.90557793798277" lon="11.941436783986685"><ele>184.4</ele><time>2026-04-12T07:44:15.822Z</time></trkpt><trkpt lat="45.9056965489664" lon="11.941469863387693"><ele>183.0</ele><time>2026-04-12T07:44:16.822Z</time></trkpt><trkpt lat="45.90580568598037" lon="11.941503507060307"><ele>181.66666666666666</ele><time>2026-04-12T07:44:17.822Z</time></trkpt><trkpt lat="45.90593151548004" lon="11.941548451338454"><ele>180.33333333333331</ele><time>2026-04-12T07:44:18.822Z</time></trkpt><trkpt lat="45.90607433935147" lon="11.941615277426196"><ele>179.0</ele><time>2026-04-12T07:44:19.822Z</time></trkpt><trkpt lat="45.90624325113225" lon="11.941697332231549"><ele>178.66666666666666</ele><time>2026-04-12T07:44:20.822Z</time></trkpt><trkpt lat="45.90641281419248" lon="11.941769203489072"><ele>178.33333333333334</ele><time>2026-04-12T07:44:21.822Z</time></trkpt><trkpt lat="45.90656508506419" lon="11.941837684733239"><ele>178.0</ele><time>2026-04-12T07:44:22.822Z</time></trkpt><trkpt lat="45.90672219279192" lon="11.941911467820866"><ele>178.0</ele><time>2026-04-12T07:44:23.822Z</time></trkpt><trkpt lat="45.9068877817591" lon="11.941989434932596"><ele>178.0</ele><time>2026-04-12T07:44:24.822Z</time></trkpt><trkpt lat="45.90705101737676" lon="11.9420670891647"><ele>178.0</ele><time>2026-04-12T07:44:25.822Z</time></trkpt><trkpt lat="45.90721317763932" lon="11.942139626603781"><ele>178.0</ele><time>2026-04-12T07:44:26.822Z</time></trkpt><trkpt lat="45.90738260827263" lon="11.942220845507276"><ele>178.0</ele><time>2026-04-12T07:44:27.822Z</time></trkpt><trkpt lat="45.907550308109975" lon="11.942296565511574"><ele>178.0</ele><time>2026-04-12T07:44:28.822Z</time></trkpt><trkpt lat="45.90770818155363" lon="11.942368148732069"><ele>179.0</ele><time>2026-04-12T07:44:29.822Z</time></trkpt><trkpt lat="45.90786737411383" lon="11.942434757274263"><ele>180.0</ele><time>2026-04-12T07:44:30.822Z</time></trkpt><trkpt lat="45.90803288006081" lon="11.942481807118858"><ele>181.0</ele><time>2026-04-12T07:44:31.822Z</time></trkpt><trkpt lat="45.908203518783026" lon="11.942488299518022"><ele>181.0</ele><time>2026-04-12T07:44:32.822Z</time></trkpt><trkpt lat="45.90838428636984" lon="11.942465983999293"><ele>181.0</ele><time>2026-04-12T07:44:33.822Z</time></trkpt><trkpt lat="45.9085694670078" lon="11.942422487378472"><ele>181.0</ele><time>2026-04-12T07:44:34.822Z</time></trkpt><trkpt lat="45.908757223952335" lon="11.942350347296168"><ele>181.0</ele><time>2026-04-12T07:44:35.822Z</time></trkpt><trkpt lat="45.90894408392107" lon="11.942265089964756"><ele>181.0</ele><time>2026-04-12T07:44:36.822Z</time></trkpt><trkpt lat="45.90913742550537" lon="11.94219923069946"><ele>181.0</ele><time>2026-04-12T07:44:37.822Z</time></trkpt><trkpt lat="45.909327811416496" lon="11.942131766236754"><ele>181.0</ele><time>2026-04-12T07:44:38.822Z</time></trkpt><trkpt lat="45.9095452486969" lon="11.942050634362506"><ele>181.0</ele><time>2026-04-12T07:44:39.822Z</time></trkpt><trkpt lat="45.909765436942706" lon="11.941967025339151"><ele>181.0</ele><time>2026-04-12T07:44:40.822Z</time></trkpt><trkpt lat="45.909960355547504" lon="11.941894836561303"><ele>181.0</ele><time>2026-04-12T07:44:41.822Z</time></trkpt><trkpt lat="45.91015131724241" lon="11.941840271591976"><ele>181.0</ele><time>2026-04-12T07:44:42.822Z</time></trkpt><trkpt lat="45.91033733228682" lon="11.941774622000029"><ele>184.66666666666669</ele><time>2026-04-12T07:44:43.822Z</time></trkpt><trkpt lat="45.91052935258116" lon="11.941706014133286"><ele>188.33333333333334</ele><time>2026-04-12T07:44:44.822Z</time></trkpt><trkpt lat="45.91073427944117" lon="11.941665591551317"><ele>192.0</ele><time>2026-04-12T07:44:45.822Z</time></trkpt><trkpt lat="45.910932611258204" lon="11.941603381653453"><ele>192.0</ele><time>2026-04-12T07:44:46.822Z</time></trkpt><trkpt lat="45.91115099848957" lon="11.941562704242465"><ele>192.0</ele><time>2026-04-12T07:44:47.822Z</time></trkpt><trkpt lat="45.911396775587704" lon="11.941566023478893"><ele>192.0</ele><time>2026-04-12T07:44:48.822Z</time></trkpt><trkpt lat="45.91165873939926" lon="11.941474782948024"><ele>192.0</ele><time>2026-04-12T07:44:49.822Z</time></trkpt><trkpt lat="45.911903472622846" lon="11.941417440456343"><ele>191.33333333333334</ele><time>2026-04-12T07:44:50.822Z</time></trkpt><trkpt lat="45.91211904581339" lon="11.941374558660199"><ele>190.66666666666669</ele><time>2026-04-12T07:44:51.822Z</time></trkpt><trkpt lat="45.91231806091197" lon="11.94132853620782"><ele>190.0</ele><time>2026-04-12T07:44:52.822Z</time></trkpt><trkpt lat="45.912510659781596" lon="11.941285873598474"><ele>191.66666666666669</ele><time>2026-04-12T07:44:53.822Z</time></trkpt><trkpt lat="45.91269887053488" lon="11.94126773395048"><ele>193.33333333333334</ele><time>2026-04-12T07:44:54.822Z</time></trkpt><trkpt lat="45.912905780453045" lon="11.941268839316795"><ele>195.0</ele><time>2026-04-12T07:44:55.822Z</time></trkpt><trkpt lat="45.91312713045583" lon="11.941292120145059"><ele>195.0</ele><time>2026-04-12T07:44:56.822Z</time></trkpt><trkpt lat="45.91336900812936" lon="11.941348944978774"><ele>195.0</ele><time>2026-04-12T07:44:57.822Z</time></trkpt><trkpt lat="45.91360930509117" lon="11.941365816736276"><ele>196.0</ele><time>2026-04-12T07:44:58.822Z</time></trkpt><trkpt lat="45.9138235778458" lon="11.941415955823864"><ele>197.0</ele><time>2026-04-12T07:44:59.822Z</time></trkpt><trkpt lat="45.914024112528374" lon="11.94145668318709"><ele>198.0</ele><time>2026-04-12T07:45:00.822Z</time></trkpt><trkpt lat="45.91421468625502" lon="11.941482533312833"><ele>201.33333333333331</ele><time>2026-04-12T07:45:01.822Z</time></trkpt><trkpt lat="45.91439427949888" lon="11.941507275194294"><ele>204.66666666666666</ele><time>2026-04-12T07:45:02.822Z</time></trkpt><trkpt lat="45.91458005748168" lon="11.941546984137739"><ele>208.0</ele><time>2026-04-12T07:45:03.822Z</time></trkpt><trkpt lat="45.91473779463093" lon="11.941570417492791"><ele>208.0</ele><time>2026-04-12T07:45:04.822Z</time></trkpt><trkpt lat="45.914901531528926" lon="11.941596277600604"><ele>208.0</ele><time>2026-04-12T07:45:05.822Z</time></trkpt><trkpt lat="45.91506177084981" lon="11.941616232926098"><ele>208.0</ele><time>2026-04-12T07:45:06.822Z</time></trkpt><trkpt lat="45.915216212244616" lon="11.941631461730573"><ele>209.5</ele><time>2026-04-12T07:45:07.822Z</time></trkpt><trkpt lat="45.9153663968531" lon="11.94165521877094"><ele>211.0</ele><time>2026-04-12T07:45:08.822Z</time></trkpt><trkpt lat="45.91549901846684" lon="11.9416871526293"><ele>212.5</ele><time>2026-04-12T07:45:09.822Z</time></trkpt><trkpt lat="45.915612496385975" lon="11.941704445009275"><ele>214.0</ele><time>2026-04-12T07:45:10.822Z</time></trkpt><trkpt lat="45.91570923535279" lon="11.941714742185368"><ele>213.33333333333331</ele><time>2026-04-12T07:45:11.822Z</time></trkpt><trkpt lat="45.91577494371346" lon="11.941739220828817"><ele>212.66666666666666</ele><time>2026-04-12T07:45:12.823Z</time></trkpt><trkpt lat="45.91587320955929" lon="11.941799193784194"><ele>212.0</ele><time>2026-04-12T07:45:14.823Z</time></trkpt><trkpt lat="45.91592653610318" lon="11.941855448338886"><ele>211.33333333333331</ele><time>2026-04-12T07:45:16.823Z</time></trkpt><trkpt lat="45.91600046830648" lon="11.941859416559787"><ele>210.66666666666666</ele><time>2026-04-12T07:45:19.823Z</time></trkpt><trkpt lat="45.91607083603907" lon="11.941843544621218"><ele>210.0</ele><time>2026-04-12T07:46:17.823Z</time></trkpt><trkpt lat="45.91615383340083" lon="11.941887685217106"><ele>210.0</ele><time>2026-04-12T07:46:19.823Z</time></trkpt><trkpt lat="45.91622756576804" lon="11.941851511470698"><ele>210.0</ele><time>2026-04-12T07:48:24.824Z</time></trkpt><trkpt lat="45.91628744702487" lon="11.941822802445808"><ele>210.0</ele><time>2026-04-12T07:48:27.824Z</time></trkpt><trkpt lat="45.91648000172358" lon="11.941827763714034"><ele>210.0</ele><time>2026-04-12T07:48:30.824Z</time></trkpt><trkpt lat="45.91658962924139" lon="11.9418569884717"><ele>210.0</ele><time>2026-04-12T07:48:31.824Z</time></trkpt><trkpt lat="45.916690941906914" lon="11.941873494436397"><ele>212.25</ele><time>2026-04-12T07:48:32.824Z</time></trkpt><trkpt lat="45.91681074846923" lon="11.941890352848157"><ele>214.5</ele><time>2026-04-12T07:48:33.824Z</time></trkpt><trkpt lat="45.91694715048308" lon="11.94191435159058"><ele>216.75</ele><time>2026-04-12T07:48:34.824Z</time></trkpt><trkpt lat="45.91709140500621" lon="11.941937303784673"><ele>219.0</ele><time>2026-04-12T07:48:35.824Z</time></trkpt><trkpt lat="45.91724779368673" lon="11.941969035285135"><ele>219.0</ele><time>2026-04-12T07:48:36.824Z</time></trkpt><trkpt lat="45.91740238402439" lon="11.941997221398982"><ele>219.0</ele><time>2026-04-12T07:48:37.824Z</time></trkpt><trkpt lat="45.917543853186935" lon="11.9420150243732"><ele>219.0</ele><time>2026-04-12T07:48:38.824Z</time></trkpt><trkpt lat="45.91768533056925" lon="11.942051434443798"><ele>219.0</ele><time>2026-04-12T07:48:39.824Z</time></trkpt><trkpt lat="45.91783083898249" lon="11.942101323335677"><ele>220.0</ele><time>2026-04-12T07:48:40.824Z</time></trkpt><trkpt lat="45.91798272664044" lon="11.942179931553767"><ele>221.0</ele><time>2026-04-12T07:48:41.824Z</time></trkpt><trkpt lat="45.91813442467162" lon="11.942299679477625"><ele>222.0</ele><time>2026-04-12T07:48:42.824Z</time></trkpt><trkpt lat="45.9182804437628" lon="11.942415579163384"><ele>221.33333333333331</ele><time>2026-04-12T07:48:43.824Z</time></trkpt><trkpt lat="45.91843773277263" lon="11.942542000451336"><ele>220.66666666666666</ele><time>2026-04-12T07:48:44.824Z</time></trkpt><trkpt lat="45.91861666014496" lon="11.942659750242004"><ele>220.0</ele><time>2026-04-12T07:48:45.824Z</time></trkpt><trkpt lat="45.918816280811214" lon="11.942860900120142"><ele>220.0</ele><time>2026-04-12T07:48:46.824Z</time></trkpt><trkpt lat="45.91900429467486" lon="11.943061481752315"><ele>220.0</ele><time>2026-04-12T07:48:47.824Z</time></trkpt><trkpt lat="45.91918128281314" lon="11.943252136239176"><ele>222.5</ele><time>2026-04-12T07:48:48.824Z</time></trkpt><trkpt lat="45.91936915183993" lon="11.94344106350127"><ele>225.0</ele><time>2026-04-12T07:48:49.824Z</time></trkpt><trkpt lat="45.91956690982582" lon="11.943642634397879"><ele>225.0</ele><time>2026-04-12T07:48:50.824Z</time></trkpt><trkpt lat="45.91978272467805" lon="11.943848371000755"><ele>225.0</ele><time>2026-04-12T07:48:51.824Z</time></trkpt><trkpt lat="45.91998166351844" lon="11.94403233348178"><ele>225.33333333333331</ele><time>2026-04-12T07:48:52.824Z</time></trkpt><trkpt lat="45.92014950992279" lon="11.94422415520279"><ele>225.66666666666666</ele><time>2026-04-12T07:48:53.824Z</time></trkpt><trkpt lat="45.920313900660986" lon="11.944393175336833"><ele>226.0</ele><time>2026-04-12T07:48:54.824Z</time></trkpt><trkpt lat="45.92047265614166" lon="11.944533170477325"><ele>226.0</ele><time>2026-04-12T07:48:55.824Z</time></trkpt><trkpt lat="45.92061713390319" lon="11.944683593331934"><ele>226.0</ele><time>2026-04-12T07:48:56.824Z</time></trkpt><trkpt lat="45.9207630653929" lon="11.944836782963112"><ele>226.0</ele><time>2026-04-12T07:48:57.824Z</time></trkpt><trkpt lat="45.92090975679749" lon="11.944991466535393"><ele>226.0</ele><time>2026-04-12T07:48:58.824Z</time></trkpt><trkpt lat="45.9210459073722" lon="11.945128315361575"><ele>226.0</ele><time>2026-04-12T07:48:59.824Z</time></trkpt><trkpt lat="45.92118967404626" lon="11.94524993252846"><ele>226.0</ele><time>2026-04-12T07:49:00.824Z</time></trkpt><trkpt lat="45.92135070344442" lon="11.945351917110084"><ele>226.0</ele><time>2026-04-12T07:49:01.824Z</time></trkpt><trkpt lat="45.92152309299464" lon="11.945441272257224"><ele>226.0</ele><time>2026-04-12T07:49:02.824Z</time></trkpt><trkpt lat="45.92170675104381" lon="11.945512723775428"><ele>226.0</ele><time>2026-04-12T07:49:03.824Z</time></trkpt><trkpt lat="45.92189513643944" lon="11.94556000063045"><ele>226.33333333333331</ele><time>2026-04-12T07:49:04.824Z</time></trkpt><trkpt lat="45.92209348459679" lon="11.94558611176968"><ele>226.66666666666669</ele><time>2026-04-12T07:49:05.824Z</time></trkpt><trkpt lat="45.92228754007774" lon="11.94558681245098"><ele>227.0</ele><time>2026-04-12T07:49:06.824Z</time></trkpt><trkpt lat="45.922477167451476" lon="11.945511100674128"><ele>225.33333333333334</ele><time>2026-04-12T07:49:07.824Z</time></trkpt><trkpt lat="45.92266557293344" lon="11.94543899267785"><ele>223.66666666666669</ele><time>2026-04-12T07:49:08.824Z</time></trkpt><trkpt lat="45.922847475290126" lon="11.945354911888437"><ele>222.0</ele><time>2026-04-12T07:49:09.824Z</time></trkpt><trkpt lat="45.92302614116457" lon="11.945259988606967"><ele>222.0</ele><time>2026-04-12T07:49:10.824Z</time></trkpt><trkpt lat="45.92320299769922" lon="11.945133914577024"><ele>222.0</ele><time>2026-04-12T07:49:11.824Z</time></trkpt><trkpt lat="45.9233766019181" lon="11.944981533692683"><ele>222.0</ele><time>2026-04-12T07:49:12.824Z</time></trkpt><trkpt lat="45.92354577915823" lon="11.944792058454105"><ele>223.0</ele><time>2026-04-12T07:49:13.824Z</time></trkpt><trkpt lat="45.923710182604545" lon="11.944595415514723"><ele>224.0</ele><time>2026-04-12T07:49:14.824Z</time></trkpt><trkpt lat="45.92386260148197" lon="11.944414122330803"><ele>225.0</ele><time>2026-04-12T07:49:15.824Z</time></trkpt><trkpt lat="45.92401124643389" lon="11.94424635805579"><ele>225.33333333333331</ele><time>2026-04-12T07:49:16.824Z</time></trkpt><trkpt lat="45.92415531197453" lon="11.944089556701643"><ele>225.66666666666666</ele><time>2026-04-12T07:49:17.824Z</time></trkpt><trkpt lat="45.92429521643886" lon="11.943930030966303"><ele>226.0</ele><time>2026-04-12T07:49:18.824Z</time></trkpt><trkpt lat="45.92442968352017" lon="11.943775032283718"><ele>226.0</ele><time>2026-04-12T07:49:19.824Z</time></trkpt><trkpt lat="45.924570634106985" lon="11.94362298827942"><ele>226.0</ele><time>2026-04-12T07:49:20.824Z</time></trkpt><trkpt lat="45.924711178463944" lon="11.943469305709774"><ele>226.0</ele><time>2026-04-12T07:49:21.824Z</time></trkpt><trkpt lat="45.924857220086146" lon="11.943314693146785"><ele>226.66666666666666</ele><time>2026-04-12T07:49:22.824Z</time></trkpt><trkpt lat="45.92501042959483" lon="11.943155184690449"><ele>227.33333333333331</ele><time>2026-04-12T07:49:23.824Z</time></trkpt><trkpt lat="45.92515988638432" lon="11.94298980233748"><ele>228.0</ele><time>2026-04-12T07:49:24.825Z</time></trkpt><trkpt lat="45.925309955211695" lon="11.94282031602025"><ele>227.0</ele><time>2026-04-12T07:49:25.825Z</time></trkpt><trkpt lat="45.92545771536567" lon="11.942650709673035"><ele>226.0</ele><time>2026-04-12T07:49:26.825Z</time></trkpt><trkpt lat="45.925603203965665" lon="11.942485419129135"><ele>225.0</ele><time>2026-04-12T07:49:27.825Z</time></trkpt><trkpt lat="45.9257378429401" lon="11.94233016264908"><ele>225.0</ele><time>2026-04-12T07:49:28.825Z</time></trkpt><trkpt lat="45.925871211588024" lon="11.942183532642389"><ele>225.0</ele><time>2026-04-12T07:49:29.825Z</time></trkpt><trkpt lat="45.92600118688687" lon="11.94203802170831"><ele>225.0</ele><time>2026-04-12T07:49:30.825Z</time></trkpt><trkpt lat="45.92612745863192" lon="11.941887035393616"><ele>222.66666666666669</ele><time>2026-04-12T07:49:31.825Z</time></trkpt><trkpt lat="45.926245919604504" lon="11.94172767911867"><ele>220.33333333333334</ele><time>2026-04-12T07:49:32.825Z</time></trkpt><trkpt lat="45.926357956977" lon="11.941561963509322"><ele>218.0</ele><time>2026-04-12T07:49:33.825Z</time></trkpt><trkpt lat="45.92645943401016" lon="11.94140657250758"><ele>218.0</ele><time>2026-04-12T07:49:34.825Z</time></trkpt><trkpt lat="45.92655591589201" lon="11.94125689101022"><ele>218.0</ele><time>2026-04-12T07:49:35.825Z</time></trkpt><trkpt lat="45.92664272233136" lon="11.94111550806581"><ele>218.0</ele><time>2026-04-12T07:49:36.825Z</time></trkpt><trkpt lat="45.926717971816814" lon="11.940977501372585"><ele>218.0</ele><time>2026-04-12T07:49:37.825Z</time></trkpt><trkpt lat="45.92680659203419" lon="11.940875223145731"><ele>216.0</ele><time>2026-04-12T07:49:38.825Z</time></trkpt><trkpt lat="45.92688571472781" lon="11.940793315519693"><ele>214.0</ele><time>2026-04-12T07:49:39.825Z</time></trkpt><trkpt lat="45.92696877467066" lon="11.940718635049253"><ele>212.0</ele><time>2026-04-12T07:49:40.825Z</time></trkpt><trkpt lat="45.927060254310064" lon="11.940666810169853"><ele>210.0</ele><time>2026-04-12T07:49:41.825Z</time></trkpt><trkpt lat="45.92715343495678" lon="11.940628634539683"><ele>208.0</ele><time>2026-04-12T07:49:42.825Z</time></trkpt><trkpt lat="45.92726616982319" lon="11.940585226461637"><ele>208.0</ele><time>2026-04-12T07:49:43.825Z</time></trkpt><trkpt lat="45.927411158769374" lon="11.94061780509711"><ele>208.0</ele><time>2026-04-12T07:49:44.825Z</time></trkpt><trkpt lat="45.92758354161503" lon="11.940647824555228"><ele>208.0</ele><time>2026-04-12T07:49:45.825Z</time></trkpt><trkpt lat="45.92777920057939" lon="11.940684996613717"><ele>204.33333333333331</ele><time>2026-04-12T07:49:46.825Z</time></trkpt><trkpt lat="45.92794591054339" lon="11.940717801331752"><ele>200.66666666666669</ele><time>2026-04-12T07:49:47.825Z</time></trkpt><trkpt lat="45.92811102098837" lon="11.940744595169768"><ele>197.0</ele><time>2026-04-12T07:49:48.825Z</time></trkpt><trkpt lat="45.92827883323516" lon="11.940774135233431"><ele>194.33333333333334</ele><time>2026-04-12T07:49:49.825Z</time></trkpt><trkpt lat="45.928451276337455" lon="11.940802136423406"><ele>191.66666666666669</ele><time>2026-04-12T07:49:50.825Z</time></trkpt><trkpt lat="45.928627105417185" lon="11.940832056702448"><ele>189.0</ele><time>2026-04-12T07:49:51.825Z</time></trkpt><trkpt lat="45.928810475084056" lon="11.940858208429015"><ele>189.33333333333334</ele><time>2026-04-12T07:49:52.825Z</time></trkpt><trkpt lat="45.929013426509776" lon="11.940891239085744"><ele>189.66666666666669</ele><time>2026-04-12T07:49:53.825Z</time></trkpt><trkpt lat="45.92920651733952" lon="11.940917207404425"><ele>190.0</ele><time>2026-04-12T07:49:54.825Z</time></trkpt><trkpt lat="45.92940169758993" lon="11.940946291014018"><ele>190.0</ele><time>2026-04-12T07:49:55.825Z</time></trkpt><trkpt lat="45.92961154768558" lon="11.940987767892933"><ele>190.0</ele><time>2026-04-12T07:49:56.825Z</time></trkpt><trkpt lat="45.92983098284537" lon="11.94102607444723"><ele>190.0</ele><time>2026-04-12T07:49:57.825Z</time></trkpt><trkpt lat="45.93004010572757" lon="11.941061456720838"><ele>198.66666666666669</ele><time>2026-04-12T07:49:58.825Z</time></trkpt><trkpt lat="45.930227587663026" lon="11.941094128949233"><ele>207.33333333333334</ele><time>2026-04-12T07:49:59.825Z</time></trkpt><trkpt lat="45.93039689640518" lon="11.941127670396957"><ele>216.0</ele><time>2026-04-12T07:50:00.825Z</time></trkpt><trkpt lat="45.93056531215932" lon="11.941156146303946"><ele>216.0</ele><time>2026-04-12T07:50:01.825Z</time></trkpt><trkpt lat="45.930732363066355" lon="11.941186915622803"><ele>216.0</ele><time>2026-04-12T07:50:02.825Z</time></trkpt><trkpt lat="45.930886293709314" lon="11.941206004079742"><ele>216.0</ele><time>2026-04-12T07:50:03.825Z</time></trkpt><trkpt lat="45.9310413217662" lon="11.941222313529522"><ele>222.5</ele><time>2026-04-12T07:50:04.825Z</time></trkpt><trkpt lat="45.93118204265787" lon="11.941221935255177"><ele>229.0</ele><time>2026-04-12T07:50:05.825Z</time></trkpt><trkpt lat="45.93131764696124" lon="11.941207183897077"><ele>235.5</ele><time>2026-04-12T07:50:06.825Z</time></trkpt><trkpt lat="45.93145853671415" lon="11.941170796361256"><ele>242.0</ele><time>2026-04-12T07:50:07.825Z</time></trkpt><trkpt lat="45.9316051765664" lon="11.941122164424215"><ele>245.33333333333334</ele><time>2026-04-12T07:50:08.825Z</time></trkpt><trkpt lat="45.931752299990436" lon="11.941044137673218"><ele>248.66666666666669</ele><time>2026-04-12T07:50:09.825Z</time></trkpt><trkpt lat="45.931895247347676" lon="11.94094173223605"><ele>252.0</ele><time>2026-04-12T07:50:10.825Z</time></trkpt><trkpt lat="45.932023884061486" lon="11.940813519130725"><ele>245.5</ele><time>2026-04-12T07:50:11.825Z</time></trkpt><trkpt lat="45.9321408755762" lon="11.940676569001031"><ele>239.0</ele><time>2026-04-12T07:50:12.825Z</time></trkpt><trkpt lat="45.93224514005383" lon="11.940550206000623"><ele>232.5</ele><time>2026-04-12T07:50:13.825Z</time></trkpt><trkpt lat="45.93233761269329" lon="11.940445807104684"><ele>226.0</ele><time>2026-04-12T07:50:14.825Z</time></trkpt><trkpt lat="45.932431173240595" lon="11.940347860149426"><ele>226.0</ele><time>2026-04-12T07:50:15.825Z</time></trkpt><trkpt lat="45.93251672621752" lon="11.940255603044871"><ele>226.00000000000003</ele><time>2026-04-12T07:50:16.825Z</time></trkpt><trkpt lat="45.9325890712249" lon="11.94016245436337"><ele>226.00000000000003</ele><time>2026-04-12T07:50:17.825Z</time></trkpt><trkpt lat="45.93265612042249" lon="11.940060043831453"><ele>226.0</ele><time>2026-04-12T07:50:18.825Z</time></trkpt><trkpt lat="45.93269625742464" lon="11.939944771683134"><ele>226.0</ele><time>2026-04-12T07:50:19.825Z</time></trkpt><trkpt lat="45.93272881903201" lon="11.939816321006436"><ele>225.49999999999997</ele><time>2026-04-12T07:50:20.825Z</time></trkpt><trkpt lat="45.932754164816714" lon="11.93968231698807"><ele>225.0</ele><time>2026-04-12T07:50:21.825Z</time></trkpt><trkpt lat="45.93280292512034" lon="11.939584491143176"><ele>224.5</ele><time>2026-04-12T07:50:22.825Z</time></trkpt><trkpt lat="45.93284509818648" lon="11.939497743393364"><ele>224.0</ele><time>2026-04-12T07:50:23.825Z</time></trkpt><trkpt lat="45.93291830138443" lon="11.939470218882919"><ele>223.49999999999997</ele><time>2026-04-12T07:50:24.825Z</time></trkpt><trkpt lat="45.93299268846592" lon="11.939481027103307"><ele>223.0</ele><time>2026-04-12T07:50:25.825Z</time></trkpt><trkpt lat="45.93306450951018" lon="11.93953213897088"><ele>222.99999999999997</ele><time>2026-04-12T07:50:26.825Z</time></trkpt><trkpt lat="45.93311869692618" lon="11.939608830104333"><ele>223.0</ele><time>2026-04-12T07:50:27.825Z</time></trkpt><trkpt lat="45.933173237862086" lon="11.939679788264467"><ele>223.0</ele><time>2026-04-12T07:50:28.825Z</time></trkpt><trkpt lat="45.933248917650516" lon="11.939706852119096"><ele>223.0</ele><time>2026-04-12T07:50:29.825Z</time></trkpt><trkpt lat="45.93334183667818" lon="11.939679419265897"><ele>222.99999999999997</ele><time>2026-04-12T07:50:30.825Z</time></trkpt><trkpt lat="45.93340724614648" lon="11.939604568472683"><ele>223.0</ele><time>2026-04-12T07:50:31.825Z</time></trkpt><trkpt lat="45.933460413202994" lon="11.939497405769583"><ele>223.99999999999997</ele><time>2026-04-12T07:50:32.825Z</time></trkpt><trkpt lat="45.93348645219339" lon="11.93936950060261"><ele>225.0</ele><time>2026-04-12T07:50:33.825Z</time></trkpt><trkpt lat="45.93349496277132" lon="11.939233082087036"><ele>226.0</ele><time>2026-04-12T07:50:34.825Z</time></trkpt><trkpt lat="45.93351623606345" lon="11.939111595417245"><ele>227.0</ele><time>2026-04-12T07:50:35.825Z</time></trkpt><trkpt lat="45.93357185999403" lon="11.93900938915352"><ele>227.99999999999997</ele><time>2026-04-12T07:50:36.825Z</time></trkpt><trkpt lat="45.93361379007548" lon="11.938927633978668"><ele>229.0</ele><time>2026-04-12T07:50:37.825Z</time></trkpt><trkpt lat="45.93373150649464" lon="11.938919433143063"><ele>225.75</ele><time>2026-04-12T07:50:38.825Z</time></trkpt><trkpt lat="45.9338295695369" lon="11.938890552070761"><ele>222.5</ele><time>2026-04-12T07:50:39.825Z</time></trkpt><trkpt lat="45.933958004874626" lon="11.938844404993555"><ele>219.25</ele><time>2026-04-12T07:50:40.825Z</time></trkpt><trkpt lat="45.93411441907719" lon="11.93878369611329"><ele>216.0</ele><time>2026-04-12T07:50:41.825Z</time></trkpt><trkpt lat="45.93429389246285" lon="11.938702519740522"><ele>216.0</ele><time>2026-04-12T07:50:42.825Z</time></trkpt><trkpt lat="45.93451293261699" lon="11.938613417228963"><ele>216.0</ele><time>2026-04-12T07:50:43.825Z</time></trkpt><trkpt lat="45.934730802834906" lon="11.938533464984841"><ele>216.0</ele><time>2026-04-12T07:50:44.825Z</time></trkpt><trkpt lat="45.934922500741315" lon="11.938447522522297"><ele>216.0</ele><time>2026-04-12T07:50:45.825Z</time></trkpt><trkpt lat="45.935096051967754" lon="11.93837024633924"><ele>216.0</ele><time>2026-04-12T07:50:46.825Z</time></trkpt><trkpt lat="45.93526231813208" lon="11.938300094107785"><ele>216.33333333333331</ele><time>2026-04-12T07:50:47.825Z</time></trkpt><trkpt lat="45.93541562441134" lon="11.938202396733757"><ele>216.66666666666666</ele><time>2026-04-12T07:50:48.825Z</time></trkpt><trkpt lat="45.935572305118036" lon="11.938084948174732"><ele>217.0</ele><time>2026-04-12T07:50:49.825Z</time></trkpt><trkpt lat="45.935720403499275" lon="11.937934838693684"><ele>217.0</ele><time>2026-04-12T07:50:50.825Z</time></trkpt><trkpt lat="45.935863214316576" lon="11.93777520897551"><ele>217.0</ele><time>2026-04-12T07:50:51.825Z</time></trkpt><trkpt lat="45.935995148853536" lon="11.937607911575903"><ele>217.0</ele><time>2026-04-12T07:50:52.825Z</time></trkpt><trkpt lat="45.93612352079828" lon="11.937417169951758"><ele>216.33333333333331</ele><time>2026-04-12T07:50:53.825Z</time></trkpt><trkpt lat="45.93624751577715" lon="11.937201744663062"><ele>215.66666666666669</ele><time>2026-04-12T07:50:54.825Z</time></trkpt><trkpt lat="45.936360507457685" lon="11.936962674281213"><ele>215.0</ele><time>2026-04-12T07:50:55.825Z</time></trkpt><trkpt lat="45.93645154642043" lon="11.936736561703952"><ele>214.0</ele><time>2026-04-12T07:50:56.825Z</time></trkpt><trkpt lat="45.93651552776904" lon="11.93650692704549"><ele>213.0</ele><time>2026-04-12T07:50:57.825Z</time></trkpt><trkpt lat="45.93657678699016" lon="11.936286762895822"><ele>212.0</ele><time>2026-04-12T07:50:58.825Z</time></trkpt><trkpt lat="45.93662911922237" lon="11.93606140069142"><ele>210.33333333333334</ele><time>2026-04-12T07:50:59.825Z</time></trkpt><trkpt lat="45.93666972802482" lon="11.935834763195897"><ele>208.66666666666669</ele><time>2026-04-12T07:51:00.825Z</time></trkpt><trkpt lat="45.93669833256443" lon="11.935599723171881"><ele>207.0</ele><time>2026-04-12T07:51:01.825Z</time></trkpt><trkpt lat="45.936716293536875" lon="11.935342054751748"><ele>207.0</ele><time>2026-04-12T07:51:02.825Z</time></trkpt><trkpt lat="45.93671597689376" lon="11.935055523810886"><ele>207.0</ele><time>2026-04-12T07:51:03.825Z</time></trkpt><trkpt lat="45.93669452515798" lon="11.934740368501263"><ele>207.0</ele><time>2026-04-12T07:51:04.825Z</time></trkpt><trkpt lat="45.93666139355388" lon="11.93441868286969"><ele>206.0</ele><time>2026-04-12T07:51:05.825Z</time></trkpt><trkpt lat="45.936616791359235" lon="11.934123567020803"><ele>205.0</ele><time>2026-04-12T07:51:06.825Z</time></trkpt><trkpt lat="45.93657761913707" lon="11.933834620734428"><ele>204.0</ele><time>2026-04-12T07:51:07.825Z</time></trkpt><trkpt lat="45.93654240985985" lon="11.933529751096945"><ele>204.33333333333331</ele><time>2026-04-12T07:51:08.825Z</time></trkpt><trkpt lat="45.93650718713818" lon="11.933219956113538"><ele>204.66666666666666</ele><time>2026-04-12T07:51:09.825Z</time></trkpt><trkpt lat="45.93646895472933" lon="11.932912755523306"><ele>205.0</ele><time>2026-04-12T07:51:10.825Z</time></trkpt><trkpt lat="45.93642819654901" lon="11.932611294051073"><ele>206.33333333333331</ele><time>2026-04-12T07:51:11.825Z</time></trkpt><trkpt lat="45.93638866118849" lon="11.932330673108353"><ele>207.66666666666669</ele><time>2026-04-12T07:51:12.825Z</time></trkpt><trkpt lat="45.93635378281605" lon="11.932055908701281"><ele>209.0</ele><time>2026-04-12T07:51:13.825Z</time></trkpt><trkpt lat="45.93632308699146" lon="11.93178298988001"><ele>209.33333333333334</ele><time>2026-04-12T07:51:14.825Z</time></trkpt><trkpt lat="45.936292410796085" lon="11.931509191297437"><ele>209.66666666666669</ele><time>2026-04-12T07:51:15.825Z</time></trkpt><trkpt lat="45.93627922140517" lon="11.931219910138564"><ele>210.0</ele><time>2026-04-12T07:51:16.825Z</time></trkpt><trkpt lat="45.93628597878666" lon="11.930925486773152"><ele>209.66666666666669</ele><time>2026-04-12T07:51:17.825Z</time></trkpt><trkpt lat="45.9363031208177" lon="11.930643442138667"><ele>209.33333333333334</ele><time>2026-04-12T07:51:18.825Z</time></trkpt><trkpt lat="45.936330297755994" lon="11.930355435498482"><ele>209.0</ele><time>2026-04-12T07:51:19.825Z</time></trkpt><trkpt lat="45.93636584973568" lon="11.9300795743169"><ele>208.0</ele><time>2026-04-12T07:51:20.825Z</time></trkpt><trkpt lat="45.93640891076656" lon="11.929822680543968"><ele>207.0</ele><time>2026-04-12T07:51:21.825Z</time></trkpt><trkpt lat="45.93646145082014" lon="11.929566858035912"><ele>206.0</ele><time>2026-04-12T07:51:22.825Z</time></trkpt><trkpt lat="45.93653028750014" lon="11.92930024922253"><ele>204.0</ele><time>2026-04-12T07:51:23.825Z</time></trkpt><trkpt lat="45.93659939030948" lon="11.929052121451518"><ele>202.0</ele><time>2026-04-12T07:51:24.825Z</time></trkpt><trkpt lat="45.936679772099296" lon="11.928817798027833"><ele>200.0</ele><time>2026-04-12T07:51:25.825Z</time></trkpt><trkpt lat="45.93676984385008" lon="11.928586037145644"><ele>197.0</ele><time>2026-04-12T07:51:26.825Z</time></trkpt><trkpt lat="45.93686006465433" lon="11.928375506546283"><ele>194.0</ele><time>2026-04-12T07:51:27.825Z</time></trkpt><trkpt lat="45.93695859075635" lon="11.928178823111056"><ele>191.0</ele><time>2026-04-12T07:51:28.825Z</time></trkpt><trkpt lat="45.937057176150724" lon="11.927993081356025"><ele>191.0</ele><time>2026-04-12T07:51:29.825Z</time></trkpt><trkpt lat="45.93716624710619" lon="11.927788614759779"><ele>191.0</ele><time>2026-04-12T07:51:30.826Z</time></trkpt><trkpt lat="45.937288950948634" lon="11.927588743101762"><ele>191.0</ele><time>2026-04-12T07:51:31.826Z</time></trkpt><trkpt lat="45.93743050775862" lon="11.92739295736319"><ele>190.66666666666666</ele><time>2026-04-12T07:51:32.826Z</time></trkpt><trkpt lat="45.93757752713932" lon="11.927199914939486"><ele>190.33333333333334</ele><time>2026-04-12T07:51:33.826Z</time></trkpt><trkpt lat="45.93773158858184" lon="11.927030776933943"><ele>190.0</ele><time>2026-04-12T07:51:34.826Z</time></trkpt><trkpt lat="45.937885448865536" lon="11.926886962451736"><ele>190.0</ele><time>2026-04-12T07:51:35.826Z</time></trkpt><trkpt lat="45.93804163533459" lon="11.926735393134622"><ele>190.0</ele><time>2026-04-12T07:51:36.826Z</time></trkpt><trkpt lat="45.93820644754456" lon="11.926593788188983"><ele>190.0</ele><time>2026-04-12T07:51:37.826Z</time></trkpt><trkpt lat="45.938372647191585" lon="11.926467758261007"><ele>191.66666666666669</ele><time>2026-04-12T07:51:38.826Z</time></trkpt><trkpt lat="45.93853879646633" lon="11.926351310262177"><ele>193.33333333333334</ele><time>2026-04-12T07:51:39.826Z</time></trkpt><trkpt lat="45.93870394403437" lon="11.926234402880178"><ele>195.0</ele><time>2026-04-12T07:51:40.826Z</time></trkpt><trkpt lat="45.93886993523794" lon="11.926114256832054"><ele>195.0</ele><time>2026-04-12T07:51:41.826Z</time></trkpt><trkpt lat="45.939031807952176" lon="11.925997751901422"><ele>195.0</ele><time>2026-04-12T07:51:42.826Z</time></trkpt><trkpt lat="45.93918331712104" lon="11.92588452852424"><ele>195.0</ele><time>2026-04-12T07:51:43.826Z</time></trkpt><trkpt lat="45.93933009116797" lon="11.925767437894676"><ele>196.66666666666669</ele><time>2026-04-12T07:51:44.826Z</time></trkpt><trkpt lat="45.93948957714026" lon="11.925669376896838"><ele>198.33333333333334</ele><time>2026-04-12T07:51:45.826Z</time></trkpt><trkpt lat="45.93964352262772" lon="11.92555483613265"><ele>200.0</ele><time>2026-04-12T07:51:46.826Z</time></trkpt><trkpt lat="45.93977195511908" lon="11.92546593335531"><ele>200.0</ele><time>2026-04-12T07:51:47.826Z</time></trkpt><trkpt lat="45.93993060011949" lon="11.925351624133908"><ele>200.0</ele><time>2026-04-12T07:51:48.826Z</time></trkpt><trkpt lat="45.940078781025925" lon="11.925242588883618"><ele>200.0</ele><time>2026-04-12T07:51:49.826Z</time></trkpt><trkpt lat="45.940223924252464" lon="11.925135962905282"><ele>202.25</ele><time>2026-04-12T07:51:50.826Z</time></trkpt><trkpt lat="45.94035889780397" lon="11.925045869927683"><ele>204.5</ele><time>2026-04-12T07:51:51.826Z</time></trkpt><trkpt lat="45.94048365912005" lon="11.924954784946417"><ele>206.75</ele><time>2026-04-12T07:51:52.826Z</time></trkpt><trkpt lat="45.94059641407117" lon="11.924848797414224"><ele>209.0</ele><time>2026-04-12T07:51:53.826Z</time></trkpt><trkpt lat="45.94069506814351" lon="11.924737378299685"><ele>209.0</ele><time>2026-04-12T07:51:54.826Z</time></trkpt><trkpt lat="45.940783995266834" lon="11.92462212394703"><ele>209.0</ele><time>2026-04-12T07:51:55.826Z</time></trkpt><trkpt lat="45.940855979182615" lon="11.924488278382299"><ele>209.0</ele><time>2026-04-12T07:51:56.826Z</time></trkpt><trkpt lat="45.94093082733735" lon="11.924400312790997"><ele>209.0</ele><time>2026-04-12T07:51:57.826Z</time></trkpt><trkpt lat="45.941012547300055" lon="11.924352944087511"><ele>209.0</ele><time>2026-04-12T07:51:58.826Z</time></trkpt><trkpt lat="45.941109953918556" lon="11.924367018236545"><ele>214.39999999999998</ele><time>2026-04-12T07:51:59.826Z</time></trkpt><trkpt lat="45.941213837243666" lon="11.924439471862527"><ele>219.8</ele><time>2026-04-12T07:52:00.826Z</time></trkpt><trkpt lat="45.941317207306824" lon="11.924439471862565"><ele>225.20000000000002</ele><time>2026-04-12T07:52:01.826Z</time></trkpt><trkpt lat="45.94139106129181" lon="11.92434235437811"><ele>230.60000000000002</ele><time>2026-04-12T07:52:02.826Z</time></trkpt><trkpt lat="45.941452840107864" lon="11.924271551309145"><ele>236.0</ele><time>2026-04-12T07:52:03.826Z</time></trkpt><trkpt lat="45.94154591119582" lon="11.924233819746837"><ele>226.75</ele><time>2026-04-12T07:52:04.826Z</time></trkpt><trkpt lat="45.94166211349006" lon="11.924218346252244"><ele>217.5</ele><time>2026-04-12T07:52:05.826Z</time></trkpt><trkpt lat="45.94178899346538" lon="11.924204652605459"><ele>208.25</ele><time>2026-04-12T07:52:06.826Z</time></trkpt><trkpt lat="45.94194695316019" lon="11.924193303144209"><ele>199.0</ele><time>2026-04-12T07:52:07.826Z</time></trkpt><trkpt lat="45.942079279233475" lon="11.924189768311777"><ele>199.0</ele><time>2026-04-12T07:52:08.826Z</time></trkpt><trkpt lat="45.94222069535336" lon="11.92417510103061"><ele>199.0</ele><time>2026-04-12T07:52:09.826Z</time></trkpt><trkpt lat="45.942478851725035" lon="11.924285594913668"><ele>199.0</ele><time>2026-04-12T07:52:10.826Z</time></trkpt><trkpt lat="45.9426500059926" lon="11.92431778208049"><ele>203.66666666666666</ele><time>2026-04-12T07:52:11.826Z</time></trkpt><trkpt lat="45.94283769189635" lon="11.92435621757192"><ele>208.33333333333331</ele><time>2026-04-12T07:52:12.826Z</time></trkpt><trkpt lat="45.94305938069157" lon="11.924393333899374"><ele>213.0</ele><time>2026-04-12T07:52:13.826Z</time></trkpt><trkpt lat="45.94325157638089" lon="11.924459401100458"><ele>208.66666666666669</ele><time>2026-04-12T07:52:14.826Z</time></trkpt><trkpt lat="45.94346666054656" lon="11.924601532281025"><ele>204.33333333333334</ele><time>2026-04-12T07:52:15.826Z</time></trkpt><trkpt lat="45.94364430915677" lon="11.924713792954039"><ele>200.0</ele><time>2026-04-12T07:52:16.826Z</time></trkpt><trkpt lat="45.94379830516926" lon="11.924813053567675"><ele>200.0</ele><time>2026-04-12T07:52:17.826Z</time></trkpt><trkpt lat="45.943913777990296" lon="11.924923540308658"><ele>200.0</ele><time>2026-04-12T07:52:18.826Z</time></trkpt><trkpt lat="45.944022658519245" lon="11.92503147954027"><ele>200.0</ele><time>2026-04-12T07:52:19.826Z</time></trkpt><trkpt lat="45.944155291252365" lon="11.925172571562445"><ele>200.0</ele><time>2026-04-12T07:52:20.826Z</time></trkpt><trkpt lat="45.94435068337948" lon="11.925431791814667"><ele>199.0</ele><time>2026-04-12T07:52:21.826Z</time></trkpt><trkpt lat="45.944625710267445" lon="11.925833613691303"><ele>198.0</ele><time>2026-04-12T07:52:22.826Z</time></trkpt><trkpt lat="45.94485723575889" lon="11.926153208551296"><ele>195.5</ele><time>2026-04-12T07:52:23.826Z</time></trkpt><trkpt lat="45.94506224720224" lon="11.926485982740278"><ele>193.0</ele><time>2026-04-12T07:52:24.826Z</time></trkpt><trkpt lat="45.94528499456363" lon="11.926748048473824"><ele>199.0</ele><time>2026-04-12T07:52:25.826Z</time></trkpt><trkpt lat="45.9454676048461" lon="11.92696880262969"><ele>205.0</ele><time>2026-04-12T07:52:26.826Z</time></trkpt><trkpt lat="45.94554807184508" lon="11.927037655610855"><ele>211.0</ele><time>2026-04-12T07:52:27.826Z</time></trkpt><trkpt lat="45.94568544836655" lon="11.92715976464571"><ele>211.0</ele><time>2026-04-12T07:52:28.826Z</time></trkpt><trkpt lat="45.94585908929813" lon="11.92731455873222"><ele>211.0</ele><time>2026-04-12T07:52:29.826Z</time></trkpt><trkpt lat="45.946067229825374" lon="11.927413308861325"><ele>211.0</ele><time>2026-04-12T07:52:30.826Z</time></trkpt><trkpt lat="45.946360740664375" lon="11.927510541105418"><ele>213.5</ele><time>2026-04-12T07:52:31.826Z</time></trkpt><trkpt lat="45.9467278626278" lon="11.927693065088057"><ele>216.0</ele><time>2026-04-12T07:52:32.826Z</time></trkpt><trkpt lat="45.94700288459423" lon="11.927827379701725"><ele>216.0</ele><time>2026-04-12T07:52:33.826Z</time></trkpt><trkpt lat="45.94727726376307" lon="11.927961208002408"><ele>216.0</ele><time>2026-04-12T07:52:34.826Z</time></trkpt><trkpt lat="45.94753099662297" lon="11.928104659515565"><ele>220.66666666666669</ele><time>2026-04-12T07:52:35.826Z</time></trkpt><trkpt lat="45.947705268657245" lon="11.928220401612135"><ele>225.33333333333334</ele><time>2026-04-12T07:52:36.826Z</time></trkpt><trkpt lat="45.94782759045772" lon="11.928319817777979"><ele>230.0</ele><time>2026-04-12T07:52:37.826Z</time></trkpt><trkpt lat="45.94798580544375" lon="11.928472017387849"><ele>230.0</ele><time>2026-04-12T07:52:38.826Z</time></trkpt><trkpt lat="45.94814800043582" lon="11.928621518765247"><ele>230.0</ele><time>2026-04-12T07:52:39.826Z</time></trkpt><trkpt lat="45.94831074910664" lon="11.928794917645122"><ele>230.0</ele><time>2026-04-12T07:52:40.826Z</time></trkpt><trkpt lat="45.94845126101414" lon="11.928968394953095"><ele>221.33333333333334</ele><time>2026-04-12T07:52:41.826Z</time></trkpt><trkpt lat="45.94859669650056" lon="11.929153373911607"><ele>212.66666666666669</ele><time>2026-04-12T07:52:42.826Z</time></trkpt><trkpt lat="45.948743602979704" lon="11.929352674390602"><ele>204.0</ele><time>2026-04-12T07:52:43.826Z</time></trkpt><trkpt lat="45.94890619662038" lon="11.929556010233034"><ele>204.0</ele><time>2026-04-12T07:52:44.826Z</time></trkpt><trkpt lat="45.9490732897143" lon="11.929764328175963"><ele>204.0</ele><time>2026-04-12T07:52:45.826Z</time></trkpt><trkpt lat="45.94921911096351" lon="11.929990856609658"><ele>204.0</ele><time>2026-04-12T07:52:46.843Z</time></trkpt><trkpt lat="45.949371487179974" lon="11.930210427593558"><ele>202.66666666666669</ele><time>2026-04-12T07:52:47.843Z</time></trkpt><trkpt lat="45.94951991676753" lon="11.93042431135896"><ele>201.33333333333334</ele><time>2026-04-12T07:52:48.84Z</time></trkpt><trkpt lat="45.94964950013846" lon="11.93061103833985"><ele>200.0</ele><time>2026-04-12T07:52:49.839Z</time></trkpt><trkpt lat="45.949786628348235" lon="11.930810162620931"><ele>213.0</ele><time>2026-04-12T07:52:50.838Z</time></trkpt><trkpt lat="45.950368135279" lon="11.931766569625522"><ele>213.0</ele><time>2026-04-12T07:52:54.826Z</time></trkpt><trkpt lat="45.95052396251995" lon="11.931973512380946"><ele>213.0</ele><time>2026-04-12T07:52:55.826Z</time></trkpt><trkpt lat="45.95059212986399" lon="11.932213256280471"><ele>213.0</ele><time>2026-04-12T07:52:56.826Z</time></trkpt><trkpt lat="45.95069382031709" lon="11.932417459987223"><ele>206.33333333333331</ele><time>2026-04-12T07:52:57.826Z</time></trkpt><trkpt lat="45.95078645167555" lon="11.93266825575456"><ele>199.66666666666666</ele><time>2026-04-12T07:52:58.826Z</time></trkpt><trkpt lat="45.95089659046355" lon="11.932909918268056"><ele>193.0</ele><time>2026-04-12T07:52:59.826Z</time></trkpt><trkpt lat="45.95099766861289" lon="11.933173008780013"><ele>196.66666666666666</ele><time>2026-04-12T07:53:00.826Z</time></trkpt><trkpt lat="45.9511360666861" lon="11.933419265873788"><ele>200.33333333333331</ele><time>2026-04-12T07:53:01.826Z</time></trkpt><trkpt lat="45.951249805147505" lon="11.933669773742151"><ele>204.0</ele><time>2026-04-12T07:53:02.826Z</time></trkpt><trkpt lat="45.95138264450404" lon="11.933920456362442"><ele>204.0</ele><time>2026-04-12T07:53:03.826Z</time></trkpt><trkpt lat="45.95151858206883" lon="11.934184276369026"><ele>204.0</ele><time>2026-04-12T07:53:04.826Z</time></trkpt><trkpt lat="45.95164198265084" lon="11.934447119311406"><ele>204.0</ele><time>2026-04-12T07:53:05.826Z</time></trkpt><trkpt lat="45.951797267810406" lon="11.934702808034569"><ele>201.33333333333331</ele><time>2026-04-12T07:53:06.826Z</time></trkpt><trkpt lat="45.951945750379835" lon="11.934928414991715"><ele>198.66666666666666</ele><time>2026-04-12T07:53:07.826Z</time></trkpt><trkpt lat="45.95210188357392" lon="11.935139224044926"><ele>196.0</ele><time>2026-04-12T07:53:08.826Z</time></trkpt><trkpt lat="45.952264527283134" lon="11.935322714752582"><ele>195.33333333333331</ele><time>2026-04-12T07:53:09.826Z</time></trkpt><trkpt lat="45.95241099440381" lon="11.935500146741814"><ele>194.66666666666669</ele><time>2026-04-12T07:53:10.826Z</time></trkpt><trkpt lat="45.95254595902126" lon="11.935670922406421"><ele>194.0</ele><time>2026-04-12T07:53:11.826Z</time></trkpt><trkpt lat="45.95269235182397" lon="11.93584967181552"><ele>197.66666666666669</ele><time>2026-04-12T07:53:12.826Z</time></trkpt><trkpt lat="45.95283319321497" lon="11.936033133271065"><ele>201.33333333333331</ele><time>2026-04-12T07:53:13.826Z</time></trkpt><trkpt lat="45.95298000361864" lon="11.93621408025948"><ele>205.0</ele><time>2026-04-12T07:53:14.826Z</time></trkpt><trkpt lat="45.953128805607946" lon="11.936394425943009"><ele>205.0</ele><time>2026-04-12T07:53:15.826Z</time></trkpt><trkpt lat="45.953275985309205" lon="11.936583396207597"><ele>205.0</ele><time>2026-04-12T07:53:16.826Z</time></trkpt><trkpt lat="45.9534159409923" lon="11.93676212424858"><ele>205.0</ele><time>2026-04-12T07:53:17.826Z</time></trkpt><trkpt lat="45.95355587190008" lon="11.936932257632709"><ele>204.33333333333331</ele><time>2026-04-12T07:53:18.826Z</time></trkpt><trkpt lat="45.95369862437215" lon="11.937100066820935"><ele>203.66666666666669</ele><time>2026-04-12T07:53:19.826Z</time></trkpt><trkpt lat="45.95385294887129" lon="11.9372560345892"><ele>203.0</ele><time>2026-04-12T07:53:20.826Z</time></trkpt><trkpt lat="45.95402320705442" lon="11.937401793110304"><ele>200.66666666666669</ele><time>2026-04-12T07:53:21.826Z</time></trkpt><trkpt lat="45.95420551688948" lon="11.937541392083006"><ele>198.33333333333331</ele><time>2026-04-12T07:53:22.826Z</time></trkpt><trkpt lat="45.95440891111075" lon="11.93767297355605"><ele>196.0</ele><time>2026-04-12T07:53:23.826Z</time></trkpt><trkpt lat="45.954630416695515" lon="11.937786873089397"><ele>197.33333333333331</ele><time>2026-04-12T07:53:24.826Z</time></trkpt><trkpt lat="45.954848931684445" lon="11.937887277554456"><ele>198.66666666666669</ele><time>2026-04-12T07:53:25.826Z</time></trkpt><trkpt lat="45.95504701055959" lon="11.937987053761285"><ele>200.0</ele><time>2026-04-12T07:53:26.826Z</time></trkpt><trkpt lat="45.95523955583147" lon="11.938091353449442"><ele>200.0</ele><time>2026-04-12T07:53:27.826Z</time></trkpt><trkpt lat="45.95542762645155" lon="11.938178371306105"><ele>200.0</ele><time>2026-04-12T07:53:28.826Z</time></trkpt><trkpt lat="45.95559893497314" lon="11.938256287753992"><ele>200.0</ele><time>2026-04-12T07:53:29.826Z</time></trkpt><trkpt lat="45.95576163299403" lon="11.93831834510367"><ele>199.66666666666669</ele><time>2026-04-12T07:53:30.826Z</time></trkpt><trkpt lat="45.955923343798176" lon="11.938368309342492"><ele>199.33333333333331</ele><time>2026-04-12T07:53:31.826Z</time></trkpt><trkpt lat="45.956091245898456" lon="11.938396447481884"><ele>199.0</ele><time>2026-04-12T07:53:32.826Z</time></trkpt><trkpt lat="45.95625669521185" lon="11.938409692206486"><ele>202.66666666666666</ele><time>2026-04-12T07:53:33.826Z</time></trkpt><trkpt lat="45.95642404186777" lon="11.938422378462601"><ele>206.33333333333331</ele><time>2026-04-12T07:53:34.826Z</time></trkpt><trkpt lat="45.95659974003454" lon="11.93842754175355"><ele>210.0</ele><time>2026-04-12T07:53:35.826Z</time></trkpt><trkpt lat="45.95678116637229" lon="11.938441427223706"><ele>210.0</ele><time>2026-04-12T07:53:36.827Z</time></trkpt><trkpt lat="45.95698005032641" lon="11.938450497536424"><ele>210.0</ele><time>2026-04-12T07:53:37.827Z</time></trkpt><trkpt lat="45.957187952184086" lon="11.938454877148617"><ele>210.0</ele><time>2026-04-12T07:53:38.827Z</time></trkpt><trkpt lat="45.95740916887096" lon="11.938469338217807"><ele>207.5</ele><time>2026-04-12T07:53:39.827Z</time></trkpt><trkpt lat="45.95765098017163" lon="11.938484927869634"><ele>205.0</ele><time>2026-04-12T07:53:40.827Z</time></trkpt><trkpt lat="45.95790782436967" lon="11.93850430065175"><ele>205.0</ele><time>2026-04-12T07:53:41.827Z</time></trkpt><trkpt lat="45.95816270444113" lon="11.93851705974134"><ele>205.0</ele><time>2026-04-12T07:53:42.827Z</time></trkpt><trkpt lat="45.95840794728995" lon="11.938528889873878"><ele>209.5</ele><time>2026-04-12T07:53:43.827Z</time></trkpt><trkpt lat="45.95864274558065" lon="11.938542582337599"><ele>214.0</ele><time>2026-04-12T07:53:44.827Z</time></trkpt><trkpt lat="45.95886782398675" lon="11.938555146200217"><ele>214.0</ele><time>2026-04-12T07:53:45.827Z</time></trkpt><trkpt lat="45.95909307304596" lon="11.938569180187457"><ele>214.0</ele><time>2026-04-12T07:53:46.827Z</time></trkpt><trkpt lat="45.95932341754927" lon="11.93858962445116"><ele>213.66666666666666</ele><time>2026-04-12T07:53:47.827Z</time></trkpt><trkpt lat="45.959535860859226" lon="11.938603962853568"><ele>213.33333333333331</ele><time>2026-04-12T07:53:48.827Z</time></trkpt><trkpt lat="45.959730081473325" lon="11.938613723366515"><ele>213.0</ele><time>2026-04-12T07:53:49.827Z</time></trkpt><trkpt lat="45.95992710220161" lon="11.938622885555539"><ele>212.33333333333331</ele><time>2026-04-12T07:53:50.827Z</time></trkpt><trkpt lat="45.96011733365429" lon="11.938633601289576"><ele>211.66666666666666</ele><time>2026-04-12T07:53:51.827Z</time></trkpt><trkpt lat="45.96030912351817" lon="11.93864710204243"><ele>211.0</ele><time>2026-04-12T07:53:52.827Z</time></trkpt><trkpt lat="45.96049791930905" lon="11.93866090064991"><ele>211.0</ele><time>2026-04-12T07:53:53.827Z</time></trkpt><trkpt lat="45.96068449337665" lon="11.938673342816735"><ele>211.0</ele><time>2026-04-12T07:53:54.827Z</time></trkpt><trkpt lat="45.96087367983243" lon="11.938689401052882"><ele>211.0</ele><time>2026-04-12T07:53:55.827Z</time></trkpt><trkpt lat="45.961065452930534" lon="11.938701897192715"><ele>209.66666666666666</ele><time>2026-04-12T07:53:56.827Z</time></trkpt><trkpt lat="45.9612596754116" lon="11.93871110660471"><ele>208.33333333333331</ele><time>2026-04-12T07:53:57.827Z</time></trkpt><trkpt lat="45.96145637723118" lon="11.938719809643764"><ele>207.0</ele><time>2026-04-12T07:53:58.827Z</time></trkpt><trkpt lat="45.961652671284654" lon="11.938718991330813"><ele>211.0</ele><time>2026-04-12T07:53:59.827Z</time></trkpt><trkpt lat="45.96185488446035" lon="11.93870541749415"><ele>215.0</ele><time>2026-04-12T07:54:00.827Z</time></trkpt><trkpt lat="45.9620613787669" lon="11.93867682981695"><ele>219.0</ele><time>2026-04-12T07:54:01.827Z</time></trkpt><trkpt lat="45.96226180474215" lon="11.93863000762766"><ele>219.0</ele><time>2026-04-12T07:54:02.827Z</time></trkpt><trkpt lat="45.962457806810946" lon="11.938561402233272"><ele>219.0</ele><time>2026-04-12T07:54:03.827Z</time></trkpt><trkpt lat="45.9626453903637" lon="11.938475985217536"><ele>219.0</ele><time>2026-04-12T07:54:04.827Z</time></trkpt><trkpt lat="45.962836951493536" lon="11.938375193211225"><ele>221.33333333333331</ele><time>2026-04-12T07:54:05.827Z</time></trkpt><trkpt lat="45.96303360530458" lon="11.938252682688447"><ele>223.66666666666666</ele><time>2026-04-12T07:54:06.827Z</time></trkpt><trkpt lat="45.96325280669976" lon="11.938153425575933"><ele>226.0</ele><time>2026-04-12T07:54:07.827Z</time></trkpt><trkpt lat="45.96347671024148" lon="11.938026509874422"><ele>226.0</ele><time>2026-04-12T07:54:08.827Z</time></trkpt><trkpt lat="45.9637110826437" lon="11.937893660086317"><ele>226.0</ele><time>2026-04-12T07:54:09.827Z</time></trkpt><trkpt lat="45.963952405407134" lon="11.937736570576412"><ele>231.0</ele><time>2026-04-12T07:54:10.827Z</time></trkpt><trkpt lat="45.96420898430475" lon="11.937603950569253"><ele>236.0</ele><time>2026-04-12T07:54:11.827Z</time></trkpt><trkpt lat="45.964459734973204" lon="11.937464150222498"><ele>224.0</ele><time>2026-04-12T07:54:12.827Z</time></trkpt><trkpt lat="45.96468666746358" lon="11.937340100355362"><ele>212.0</ele><time>2026-04-12T07:54:13.827Z</time></trkpt><trkpt lat="45.96489924637826" lon="11.937226779865954"><ele>218.33333333333334</ele><time>2026-04-12T07:54:14.827Z</time></trkpt><trkpt lat="45.9651052969468" lon="11.937113163737667"><ele>224.66666666666669</ele><time>2026-04-12T07:54:15.827Z</time></trkpt><trkpt lat="45.96530651892847" lon="11.937002137108749"><ele>231.0</ele><time>2026-04-12T07:54:16.827Z</time></trkpt><trkpt lat="45.96550668468308" lon="11.936887300937249"><ele>231.0</ele><time>2026-04-12T07:54:17.827Z</time></trkpt><trkpt lat="45.965704978224096" lon="11.936773406022741"><ele>231.0</ele><time>2026-04-12T07:54:18.827Z</time></trkpt><trkpt lat="45.96590469610174" lon="11.936668295975437"><ele>231.0</ele><time>2026-04-12T07:54:19.827Z</time></trkpt><trkpt lat="45.96610990153005" lon="11.936579946363837"><ele>226.66666666666669</ele><time>2026-04-12T07:54:20.827Z</time></trkpt><trkpt lat="45.9663155069905" lon="11.936513716331111"><ele>222.33333333333334</ele><time>2026-04-12T07:54:21.827Z</time></trkpt><trkpt lat="45.96650946000381" lon="11.936461070930584"><ele>218.0</ele><time>2026-04-12T07:54:22.827Z</time></trkpt><trkpt lat="45.96671126150979" lon="11.936429993674492"><ele>218.0</ele><time>2026-04-12T07:54:23.827Z</time></trkpt><trkpt lat="45.966918291878955" lon="11.936407688622584"><ele>218.0</ele><time>2026-04-12T07:54:24.827Z</time></trkpt><trkpt lat="45.96712731270829" lon="11.93638628789678"><ele>218.0</ele><time>2026-04-12T07:54:25.827Z</time></trkpt><trkpt lat="45.96733391584992" lon="11.936389887252867"><ele>218.0</ele><time>2026-04-12T07:54:26.827Z</time></trkpt><trkpt lat="45.96753770910891" lon="11.936404041918284"><ele>218.0</ele><time>2026-04-12T07:54:27.827Z</time></trkpt><trkpt lat="45.96775097569237" lon="11.936435867386548"><ele>218.0</ele><time>2026-04-12T07:54:28.827Z</time></trkpt><trkpt lat="45.96793822876973" lon="11.936472600049663"><ele>218.0</ele><time>2026-04-12T07:54:29.827Z</time></trkpt><trkpt lat="45.96813520798157" lon="11.936514006570816"><ele>218.0</ele><time>2026-04-12T07:54:30.827Z</time></trkpt><trkpt lat="45.96833513455128" lon="11.93654803704858"><ele>218.0</ele><time>2026-04-12T07:54:31.827Z</time></trkpt><trkpt lat="45.968544351531634" lon="11.936587719094016"><ele>217.0</ele><time>2026-04-12T07:54:32.827Z</time></trkpt><trkpt lat="45.968749389333425" lon="11.936625718423524"><ele>216.0</ele><time>2026-04-12T07:54:33.827Z</time></trkpt><trkpt lat="45.96894484603916" lon="11.936667998303589"><ele>215.0</ele><time>2026-04-12T07:54:34.827Z</time></trkpt><trkpt lat="45.96913185503513" lon="11.936714982779524"><ele>220.0</ele><time>2026-04-12T07:54:35.827Z</time></trkpt><trkpt lat="45.96930074773909" lon="11.93677965603059"><ele>225.0</ele><time>2026-04-12T07:54:36.827Z</time></trkpt><trkpt lat="45.969464313044966" lon="11.936862148554576"><ele>230.0</ele><time>2026-04-12T07:54:37.827Z</time></trkpt><trkpt lat="45.969632172476175" lon="11.936913665033066"><ele>230.0</ele><time>2026-04-12T07:54:38.827Z</time></trkpt><trkpt lat="45.96979776315824" lon="11.936990849988295"><ele>230.0</ele><time>2026-04-12T07:54:39.827Z</time></trkpt><trkpt lat="45.96996186471137" lon="11.937088304635125"><ele>230.0</ele><time>2026-04-12T07:54:40.827Z</time></trkpt><trkpt lat="45.970111769931485" lon="11.937199504109445"><ele>231.0</ele><time>2026-04-12T07:54:41.827Z</time></trkpt><trkpt lat="45.97024802297091" lon="11.937310471586688"><ele>232.0</ele><time>2026-04-12T07:54:42.827Z</time></trkpt><trkpt lat="45.97038183520469" lon="11.937434424397955"><ele>233.0</ele><time>2026-04-12T07:54:43.827Z</time></trkpt><trkpt lat="45.97052335402252" lon="11.937583248167956"><ele>233.0</ele><time>2026-04-12T07:54:44.827Z</time></trkpt><trkpt lat="45.97066969057049" lon="11.937734508322375"><ele>233.0</ele><time>2026-04-12T07:54:45.827Z</time></trkpt><trkpt lat="45.97080676499195" lon="11.937906167584504"><ele>233.0</ele><time>2026-04-12T07:54:46.827Z</time></trkpt><trkpt lat="45.97095709279726" lon="11.938075546471058"><ele>227.0</ele><time>2026-04-12T07:54:47.827Z</time></trkpt><trkpt lat="45.9710985372545" lon="11.938265589340178"><ele>221.0</ele><time>2026-04-12T07:54:48.827Z</time></trkpt><trkpt lat="45.971242131342166" lon="11.938446905107586"><ele>215.0</ele><time>2026-04-12T07:54:49.827Z</time></trkpt><trkpt lat="45.97139417475292" lon="11.938624633138227"><ele>215.0</ele><time>2026-04-12T07:54:50.827Z</time></trkpt><trkpt lat="45.971528461935314" lon="11.938821376791804"><ele>215.0</ele><time>2026-04-12T07:54:51.827Z</time></trkpt><trkpt lat="45.97164403808225" lon="11.939039282921465"><ele>215.0</ele><time>2026-04-12T07:54:52.827Z</time></trkpt><trkpt lat="45.97178003760197" lon="11.939229765231927"><ele>211.66666666666669</ele><time>2026-04-12T07:54:53.827Z</time></trkpt><trkpt lat="45.97189587180321" lon="11.939441554758726"><ele>208.33333333333331</ele><time>2026-04-12T07:54:54.827Z</time></trkpt><trkpt lat="45.97199965506006" lon="11.939661422247587"><ele>205.0</ele><time>2026-04-12T07:54:55.827Z</time></trkpt><trkpt lat="45.97210938636086" lon="11.939866921299851"><ele>211.33333333333331</ele><time>2026-04-12T07:54:56.827Z</time></trkpt><trkpt lat="45.9722152824091" lon="11.940079821508174"><ele>217.66666666666669</ele><time>2026-04-12T07:54:57.827Z</time></trkpt><trkpt lat="45.97231544694623" lon="11.940292705109863"><ele>224.0</ele><time>2026-04-12T07:54:58.827Z</time></trkpt><trkpt lat="45.97240654494599" lon="11.940496058286783"><ele>224.0</ele><time>2026-04-12T07:54:59.827Z</time></trkpt><trkpt lat="45.97249185510636" lon="11.940699854085302"><ele>224.0</ele><time>2026-04-12T07:55:00.827Z</time></trkpt><trkpt lat="45.972580160592685" lon="11.940919654786372"><ele>224.0</ele><time>2026-04-12T07:55:01.827Z</time></trkpt><trkpt lat="45.97267155817548" lon="11.941146279518197"><ele>220.0</ele><time>2026-04-12T07:55:02.827Z</time></trkpt><trkpt lat="45.97276649643745" lon="11.941381583264306"><ele>216.0</ele><time>2026-04-12T07:55:03.827Z</time></trkpt><trkpt lat="45.97285871900174" lon="11.941610328098205"><ele>212.0</ele><time>2026-04-12T07:55:04.827Z</time></trkpt><trkpt lat="45.97295315860105" lon="11.941844643658836"><ele>212.0</ele><time>2026-04-12T07:55:05.827Z</time></trkpt><trkpt lat="45.973045899161896" lon="11.9420747449024"><ele>212.0</ele><time>2026-04-12T07:55:06.827Z</time></trkpt><trkpt lat="45.97313504165488" lon="11.94229521819967"><ele>212.0</ele><time>2026-04-12T07:55:07.827Z</time></trkpt><trkpt lat="45.97322699629894" lon="11.94252214270406"><ele>216.0</ele><time>2026-04-12T07:55:08.827Z</time></trkpt><trkpt lat="45.97331797481829" lon="11.942746484622099"><ele>220.0</ele><time>2026-04-12T07:55:09.827Z</time></trkpt><trkpt lat="45.973405183472074" lon="11.942974898855862"><ele>224.0</ele><time>2026-04-12T07:55:10.827Z</time></trkpt><trkpt lat="45.97348624777734" lon="11.943204187122696"><ele>216.66666666666669</ele><time>2026-04-12T07:55:11.827Z</time></trkpt><trkpt lat="45.97356385249993" lon="11.943430073416312"><ele>209.33333333333331</ele><time>2026-04-12T07:55:12.827Z</time></trkpt><trkpt lat="45.97364195747296" lon="11.943661665068714"><ele>202.0</ele><time>2026-04-12T07:55:13.827Z</time></trkpt><trkpt lat="45.97371944523258" lon="11.943891426673977"><ele>202.0</ele><time>2026-04-12T07:55:14.827Z</time></trkpt><trkpt lat="45.97379690796139" lon="11.944121113963213"><ele>202.0</ele><time>2026-04-12T07:55:15.827Z</time></trkpt><trkpt lat="45.97387237959562" lon="11.944345411921853"><ele>202.0</ele><time>2026-04-12T07:55:16.827Z</time></trkpt><trkpt lat="45.97394528821735" lon="11.944562144558533"><ele>205.0</ele><time>2026-04-12T07:55:17.827Z</time></trkpt><trkpt lat="45.974018618414185" lon="11.944780130293466"><ele>208.0</ele><time>2026-04-12T07:55:18.827Z</time></trkpt><trkpt lat="45.97408423948333" lon="11.944975568296337"><ele>211.0</ele><time>2026-04-12T07:55:19.827Z</time></trkpt><trkpt lat="45.97414565774294" lon="11.94515872754418"><ele>208.5</ele><time>2026-04-12T07:55:20.827Z</time></trkpt><trkpt lat="45.97421149463486" lon="11.945355063761694"><ele>206.0</ele><time>2026-04-12T07:55:21.827Z</time></trkpt><trkpt lat="45.97427448058428" lon="11.94554289785648"><ele>203.5</ele><time>2026-04-12T07:55:22.827Z</time></trkpt><trkpt lat="45.97433912668154" lon="11.945735682952337"><ele>201.0</ele><time>2026-04-12T07:55:23.827Z</time></trkpt><trkpt lat="45.97440249221687" lon="11.945924649304285"><ele>201.0</ele><time>2026-04-12T07:55:24.827Z</time></trkpt><trkpt lat="45.97446082270792" lon="11.946097812432098"><ele>201.0</ele><time>2026-04-12T07:55:25.827Z</time></trkpt><trkpt lat="45.97452690362715" lon="11.946248761185684"><ele>201.0</ele><time>2026-04-12T07:55:26.827Z</time></trkpt><trkpt lat="45.97458065481921" lon="11.946451408777959"><ele>201.0</ele><time>2026-04-12T07:55:27.827Z</time></trkpt><trkpt lat="45.97465593184052" lon="11.946672545942302"><ele>201.33333333333331</ele><time>2026-04-12T07:55:28.827Z</time></trkpt><trkpt lat="45.97473867669633" lon="11.946915620852607"><ele>201.66666666666666</ele><time>2026-04-12T07:55:29.827Z</time></trkpt><trkpt lat="45.97483062333431" lon="11.947185727569249"><ele>202.0</ele><time>2026-04-12T07:55:30.827Z</time></trkpt><trkpt lat="45.97492578062963" lon="11.94746526589533"><ele>201.66666666666666</ele><time>2026-04-12T07:55:31.827Z</time></trkpt><trkpt lat="45.97500947260764" lon="11.94771112306672"><ele>201.33333333333331</ele><time>2026-04-12T07:55:32.827Z</time></trkpt><trkpt lat="45.97508622565787" lon="11.94793753964746"><ele>201.0</ele><time>2026-04-12T07:55:33.827Z</time></trkpt><trkpt lat="45.97515804792664" lon="11.948152656296877"><ele>201.0</ele><time>2026-04-12T07:55:34.827Z</time></trkpt><trkpt lat="45.97523693880852" lon="11.948354801754876"><ele>201.0</ele><time>2026-04-12T07:55:35.827Z</time></trkpt><trkpt lat="45.97530912791851" lon="11.948580210788872"><ele>201.0</ele><time>2026-04-12T07:55:36.827Z</time></trkpt><trkpt lat="45.97538768403439" lon="11.94881449451482"><ele>202.0</ele><time>2026-04-12T07:55:37.827Z</time></trkpt><trkpt lat="45.97546048296834" lon="11.949046590000329"><ele>203.0</ele><time>2026-04-12T07:55:38.827Z</time></trkpt><trkpt lat="45.975511494483804" lon="11.949269541509834"><ele>204.0</ele><time>2026-04-12T07:55:39.827Z</time></trkpt><trkpt lat="45.97556541048596" lon="11.949522258462052"><ele>204.33333333333331</ele><time>2026-04-12T07:55:40.827Z</time></trkpt><trkpt lat="45.97560101870737" lon="11.949792347698779"><ele>204.66666666666666</ele><time>2026-04-12T07:55:41.827Z</time></trkpt><trkpt lat="45.97562486818441" lon="11.950075903300455"><ele>205.0</ele><time>2026-04-12T07:55:42.828Z</time></trkpt><trkpt lat="45.97563886374779" lon="11.950366637424542"><ele>205.33333333333331</ele><time>2026-04-12T07:55:43.828Z</time></trkpt><trkpt lat="45.975618908875916" lon="11.950648641066852"><ele>205.66666666666669</ele><time>2026-04-12T07:55:44.828Z</time></trkpt><trkpt lat="45.97559191300185" lon="11.950914786294245"><ele>206.0</ele><time>2026-04-12T07:55:45.828Z</time></trkpt><trkpt lat="45.97555045265362" lon="11.95119286939365"><ele>206.0</ele><time>2026-04-12T07:55:46.828Z</time></trkpt><trkpt lat="45.97549108576603" lon="11.951481634977963"><ele>206.0</ele><time>2026-04-12T07:55:47.828Z</time></trkpt><trkpt lat="45.97541582745948" lon="11.951790568370779"><ele>206.0</ele><time>2026-04-12T07:55:48.828Z</time></trkpt><trkpt lat="45.97535007751382" lon="11.952088233144037"><ele>206.0</ele><time>2026-04-12T07:55:49.828Z</time></trkpt><trkpt lat="45.97526741863275" lon="11.952358898134163"><ele>206.0</ele><time>2026-04-12T07:55:50.828Z</time></trkpt><trkpt lat="45.975211443604195" lon="11.95263876736805"><ele>206.0</ele><time>2026-04-12T07:55:51.828Z</time></trkpt><trkpt lat="45.975174151000175" lon="11.95293859789187"><ele>206.0</ele><time>2026-04-12T07:55:52.828Z</time></trkpt><trkpt lat="45.975154229864565" lon="11.95323134906026"><ele>206.0</ele><time>2026-04-12T07:55:53.828Z</time></trkpt><trkpt lat="45.97516336286297" lon="11.953530697343831"><ele>206.0</ele><time>2026-04-12T07:55:54.828Z</time></trkpt><trkpt lat="45.97517722108295" lon="11.953833281502583"><ele>206.5</ele><time>2026-04-12T07:55:55.828Z</time></trkpt><trkpt lat="45.975212787514785" lon="11.954159818935343"><ele>207.0</ele><time>2026-04-12T07:55:56.828Z</time></trkpt><trkpt lat="45.97528004438987" lon="11.954497990032113"><ele>207.66666666666669</ele><time>2026-04-12T07:55:57.828Z</time></trkpt><trkpt lat="45.975339798205496" lon="11.954792449538832"><ele>208.33333333333334</ele><time>2026-04-12T07:55:58.828Z</time></trkpt><trkpt lat="45.97539851777797" lon="11.955087650095935"><ele>209.0</ele><time>2026-04-12T07:55:59.828Z</time></trkpt><trkpt lat="45.97546667572207" lon="11.955430300133393"><ele>209.66666666666669</ele><time>2026-04-12T07:56:00.828Z</time></trkpt><trkpt lat="45.97552589588434" lon="11.9557280170764"><ele>210.33333333333331</ele><time>2026-04-12T07:56:01.828Z</time></trkpt><trkpt lat="45.97558304457475" lon="11.95601532027153"><ele>211.0</ele><time>2026-04-12T07:56:02.828Z</time></trkpt><trkpt lat="45.975630392831704" lon="11.956250743195765"><ele>212.66666666666666</ele><time>2026-04-12T07:56:03.828Z</time></trkpt><trkpt lat="45.97568629831442" lon="11.95651293746437"><ele>214.33333333333331</ele><time>2026-04-12T07:56:04.828Z</time></trkpt><trkpt lat="45.97574862387695" lon="11.95677283039205"><ele>216.0</ele><time>2026-04-12T07:56:05.828Z</time></trkpt><trkpt lat="45.9758163350867" lon="11.957024100801695"><ele>214.66666666666669</ele><time>2026-04-12T07:56:06.828Z</time></trkpt><trkpt lat="45.97589312498454" lon="11.957271540592961"><ele>213.33333333333334</ele><time>2026-04-12T07:56:07.828Z</time></trkpt><trkpt lat="45.97599687324673" lon="11.957509313168925"><ele>212.0</ele><time>2026-04-12T07:56:08.828Z</time></trkpt><trkpt lat="45.97609143178019" lon="11.95774455617357"><ele>212.0</ele><time>2026-04-12T07:56:09.828Z</time></trkpt><trkpt lat="45.976200870516216" lon="11.957953373225921"><ele>212.0</ele><time>2026-04-12T07:56:10.828Z</time></trkpt><trkpt lat="45.97630990424709" lon="11.958151362326632"><ele>212.0</ele><time>2026-04-12T07:56:11.828Z</time></trkpt><trkpt lat="45.97641962872842" lon="11.958349286810646"><ele>211.0</ele><time>2026-04-12T07:56:12.828Z</time></trkpt><trkpt lat="45.976535644011435" lon="11.958563052903381"><ele>210.0</ele><time>2026-04-12T07:56:13.828Z</time></trkpt><trkpt lat="45.97664631988569" lon="11.958786595993047"><ele>209.0</ele><time>2026-04-12T07:56:14.828Z</time></trkpt><trkpt lat="45.976755723443254" lon="11.959007442543687"><ele>209.66666666666669</ele><time>2026-04-12T07:56:15.828Z</time></trkpt><trkpt lat="45.976878687197285" lon="11.959234808925801"><ele>210.33333333333331</ele><time>2026-04-12T07:56:16.828Z</time></trkpt><trkpt lat="45.976995096643165" lon="11.959449025870729"><ele>211.0</ele><time>2026-04-12T07:56:17.828Z</time></trkpt><trkpt lat="45.977103209487964" lon="11.959653627722757"><ele>211.0</ele><time>2026-04-12T07:56:18.828Z</time></trkpt><trkpt lat="45.97720664071808" lon="11.959851762383062"><ele>211.0</ele><time>2026-04-12T07:56:19.828Z</time></trkpt><trkpt lat="45.977312284755214" lon="11.960052294383305"><ele>211.0</ele><time>2026-04-12T07:56:20.828Z</time></trkpt><trkpt lat="45.97742127063924" lon="11.960252124410703"><ele>210.66666666666666</ele><time>2026-04-12T07:56:21.828Z</time></trkpt><trkpt lat="45.977526260410365" lon="11.96045010452133"><ele>210.33333333333331</ele><time>2026-04-12T07:56:22.828Z</time></trkpt><trkpt lat="45.97763306449786" lon="11.960654141318068"><ele>210.0</ele><time>2026-04-12T07:56:23.828Z</time></trkpt><trkpt lat="45.97774693302962" lon="11.960867661035948"><ele>209.66666666666669</ele><time>2026-04-12T07:56:24.828Z</time></trkpt><trkpt lat="45.977861356635394" lon="11.961080528047052"><ele>209.33333333333334</ele><time>2026-04-12T07:56:25.828Z</time></trkpt><trkpt lat="45.97796485178825" lon="11.961283076104515"><ele>209.0</ele><time>2026-04-12T07:56:26.828Z</time></trkpt><trkpt lat="45.97805642828857" lon="11.96148969235089"><ele>209.0</ele><time>2026-04-12T07:56:27.828Z</time></trkpt><trkpt lat="45.97817444778616" lon="11.961676898917302"><ele>209.0</ele><time>2026-04-12T07:56:28.828Z</time></trkpt><trkpt lat="45.97828190142229" lon="11.961886205111828"><ele>209.0</ele><time>2026-04-12T07:56:29.828Z</time></trkpt><trkpt lat="45.97839015686144" lon="11.962092187199069"><ele>208.66666666666669</ele><time>2026-04-12T07:56:30.828Z</time></trkpt><trkpt lat="45.97849879975312" lon="11.962302964069162"><ele>208.33333333333331</ele><time>2026-04-12T07:56:31.828Z</time></trkpt><trkpt lat="45.97860773038248" lon="11.962516672408082"><ele>208.0</ele><time>2026-04-12T07:56:32.828Z</time></trkpt><trkpt lat="45.97872318210664" lon="11.96273722529799"><ele>208.66666666666666</ele><time>2026-04-12T07:56:33.828Z</time></trkpt><trkpt lat="45.97883579079125" lon="11.962961022691873"><ele>209.33333333333331</ele><time>2026-04-12T07:56:34.828Z</time></trkpt><trkpt lat="45.97894548506713" lon="11.963188418984068"><ele>210.0</ele><time>2026-04-12T07:56:35.828Z</time></trkpt><trkpt lat="45.97905271250715" lon="11.963426374641326"><ele>211.0</ele><time>2026-04-12T07:56:36.828Z</time></trkpt><trkpt lat="45.97914670189558" lon="11.96368158786202"><ele>212.0</ele><time>2026-04-12T07:56:37.828Z</time></trkpt><trkpt lat="45.97922999989581" lon="11.963952512932162"><ele>213.0</ele><time>2026-04-12T07:56:38.828Z</time></trkpt><trkpt lat="45.97930703505718" lon="11.964256269897993"><ele>211.33333333333331</ele><time>2026-04-12T07:56:39.828Z</time></trkpt><trkpt lat="45.97937573557097" lon="11.964560831147498"><ele>209.66666666666666</ele><time>2026-04-12T07:56:40.828Z</time></trkpt><trkpt lat="45.97943639876225" lon="11.964856935761542"><ele>208.0</ele><time>2026-04-12T07:56:41.828Z</time></trkpt><trkpt lat="45.97948969177086" lon="11.965180179825712"><ele>208.0</ele><time>2026-04-12T07:56:42.828Z</time></trkpt><trkpt lat="45.97955672142326" lon="11.965528612087867"><ele>208.0</ele><time>2026-04-12T07:56:43.828Z</time></trkpt><trkpt lat="45.979628468965394" lon="11.965892652132593"><ele>208.0</ele><time>2026-04-12T07:56:44.828Z</time></trkpt><trkpt lat="45.979701692784204" lon="11.966257951408608"><ele>208.0</ele><time>2026-04-12T07:56:45.828Z</time></trkpt><trkpt lat="45.97977699979413" lon="11.966627988278303"><ele>210.0</ele><time>2026-04-12T07:56:46.828Z</time></trkpt><trkpt lat="45.9798398037084" lon="11.967001497944247"><ele>212.0</ele><time>2026-04-12T07:56:47.828Z</time></trkpt><trkpt lat="45.97989536038417" lon="11.967358138539641"><ele>214.0</ele><time>2026-04-12T07:56:48.828Z</time></trkpt><trkpt lat="45.979950375179" lon="11.967681985611579"><ele>216.0</ele><time>2026-04-12T07:56:49.828Z</time></trkpt><trkpt lat="45.98000537118555" lon="11.967988955990775"><ele>212.33333333333331</ele><time>2026-04-12T07:56:50.828Z</time></trkpt><trkpt lat="45.98006386286919" lon="11.968289088559477"><ele>208.66666666666666</ele><time>2026-04-12T07:56:51.828Z</time></trkpt><trkpt lat="45.98013063198533" lon="11.96859865965744"><ele>205.0</ele><time>2026-04-12T07:56:52.828Z</time></trkpt><trkpt lat="45.980208050548924" lon="11.968927523125627"><ele>206.5</ele><time>2026-04-12T07:56:53.828Z</time></trkpt><trkpt lat="45.98030525756713" lon="11.969273942404145"><ele>208.0</ele><time>2026-04-12T07:56:54.828Z</time></trkpt><trkpt lat="45.98042417218338" lon="11.969621823414245"><ele>208.0</ele><time>2026-04-12T07:56:55.828Z</time></trkpt><trkpt lat="45.980563092004274" lon="11.969971670510812"><ele>208.0</ele><time>2026-04-12T07:56:56.828Z</time></trkpt><trkpt lat="45.98071662553478" lon="11.970318993724453"><ele>209.0</ele><time>2026-04-12T07:56:57.828Z</time></trkpt><trkpt lat="45.98087927882136" lon="11.970678837638882"><ele>210.0</ele><time>2026-04-12T07:56:58.828Z</time></trkpt><trkpt lat="45.98103538752551" lon="11.971030914738746"><ele>210.0</ele><time>2026-04-12T07:56:59.828Z</time></trkpt><trkpt lat="45.98118554787772" lon="11.971370750108807"><ele>210.0</ele><time>2026-04-12T07:57:00.828Z</time></trkpt><trkpt lat="45.9813272700938" lon="11.97170284573508"><ele>217.5</ele><time>2026-04-12T07:57:01.828Z</time></trkpt><trkpt lat="45.981466972630244" lon="11.972016338652747"><ele>225.0</ele><time>2026-04-12T07:57:02.828Z</time></trkpt><trkpt lat="45.98159452830622" lon="11.972322238558714"><ele>216.5</ele><time>2026-04-12T07:57:03.828Z</time></trkpt><trkpt lat="45.981723480625504" lon="11.972618678348"><ele>208.0</ele><time>2026-04-12T07:57:04.828Z</time></trkpt><trkpt lat="45.981854377953674" lon="11.972910464194657"><ele>208.0</ele><time>2026-04-12T07:57:05.828Z</time></trkpt><trkpt lat="45.981987451869514" lon="11.973210105500229"><ele>208.0</ele><time>2026-04-12T07:57:06.828Z</time></trkpt><trkpt lat="45.98211326162495" lon="11.973506236101027"><ele>213.0</ele><time>2026-04-12T07:57:07.828Z</time></trkpt><trkpt lat="45.98224480384542" lon="11.973799241010466"><ele>218.0</ele><time>2026-04-12T07:57:08.828Z</time></trkpt><trkpt lat="45.98237404830874" lon="11.974094497593127"><ele>212.5</ele><time>2026-04-12T07:57:09.828Z</time></trkpt><trkpt lat="45.9825005084597" lon="11.974378128228233"><ele>207.0</ele><time>2026-04-12T07:57:10.828Z</time></trkpt><trkpt lat="45.982617399610106" lon="11.974665294014038"><ele>207.0</ele><time>2026-04-12T07:57:11.828Z</time></trkpt><trkpt lat="45.98274711753225" lon="11.974949312390057"><ele>207.0</ele><time>2026-04-12T07:57:12.828Z</time></trkpt><trkpt lat="45.98287353036177" lon="11.975227048933757"><ele>210.5</ele><time>2026-04-12T07:57:13.828Z</time></trkpt><trkpt lat="45.98299179706671" lon="11.975513910521261"><ele>214.0</ele><time>2026-04-12T07:57:14.828Z</time></trkpt><trkpt lat="45.98310959297456" lon="11.975796966737528"><ele>212.33333333333331</ele><time>2026-04-12T07:57:15.828Z</time></trkpt><trkpt lat="45.9832251020227" lon="11.97605384937247"><ele>210.66666666666669</ele><time>2026-04-12T07:57:16.828Z</time></trkpt><trkpt lat="45.98333850151674" lon="11.976303399028916"><ele>209.0</ele><time>2026-04-12T07:57:17.828Z</time></trkpt><trkpt lat="45.983438329394126" lon="11.976559278281812"><ele>213.66666666666669</ele><time>2026-04-12T07:57:18.828Z</time></trkpt><trkpt lat="45.98354516854648" lon="11.976796959357534"><ele>218.33333333333331</ele><time>2026-04-12T07:57:19.828Z</time></trkpt><trkpt lat="45.98366158818161" lon="11.97702181592271"><ele>223.0</ele><time>2026-04-12T07:57:20.828Z</time></trkpt><trkpt lat="45.983788101927274" lon="11.977230299107081"><ele>223.0</ele><time>2026-04-12T07:57:21.828Z</time></trkpt><trkpt lat="45.98391818103681" lon="11.977420957894672"><ele>223.0</ele><time>2026-04-12T07:57:22.828Z</time></trkpt><trkpt lat="45.98405646563649" lon="11.97758453498802"><ele>223.0</ele><time>2026-04-12T07:57:23.828Z</time></trkpt><trkpt lat="45.98419505328684" lon="11.9777321254867"><ele>223.0</ele><time>2026-04-12T07:57:24.828Z</time></trkpt><trkpt lat="45.98430726557118" lon="11.977908291017403"><ele>223.0</ele><time>2026-04-12T07:57:25.828Z</time></trkpt><trkpt lat="45.98444390040748" lon="11.978009011613583"><ele>223.0</ele><time>2026-04-12T07:57:26.828Z</time></trkpt><trkpt lat="45.984579253322565" lon="11.978122025316866"><ele>223.0</ele><time>2026-04-12T07:57:27.828Z</time></trkpt><trkpt lat="45.98473209508591" lon="11.978217954569638"><ele>223.0</ele><time>2026-04-12T07:57:28.828Z</time></trkpt><trkpt lat="45.984878742440124" lon="11.978317282532553"><ele>223.0</ele><time>2026-04-12T07:57:29.828Z</time></trkpt><trkpt lat="45.9850120245669" lon="11.97842697502756"><ele>221.66666666666666</ele><time>2026-04-12T07:57:30.828Z</time></trkpt><trkpt lat="45.98512957498878" lon="11.978597730139665"><ele>220.33333333333331</ele><time>2026-04-12T07:57:31.828Z</time></trkpt><trkpt lat="45.985253165640685" lon="11.97875505619259"><ele>219.0</ele><time>2026-04-12T07:57:32.828Z</time></trkpt><trkpt lat="45.98538553154927" lon="11.97889825339878"><ele>219.0</ele><time>2026-04-12T07:57:33.828Z</time></trkpt><trkpt lat="45.98550215328837" lon="11.97905300265734"><ele>219.0</ele><time>2026-04-12T07:57:34.828Z</time></trkpt><trkpt lat="45.985616080685254" lon="11.979201832193846"><ele>219.0</ele><time>2026-04-12T07:57:35.828Z</time></trkpt><trkpt lat="45.98572780073057" lon="11.979347672826249"><ele>220.33333333333331</ele><time>2026-04-12T07:57:36.828Z</time></trkpt><trkpt lat="45.98585049500388" lon="11.979499765801764"><ele>221.66666666666666</ele><time>2026-04-12T07:57:37.828Z</time></trkpt><trkpt lat="45.98598398652976" lon="11.979639797225731"><ele>223.0</ele><time>2026-04-12T07:57:38.828Z</time></trkpt><trkpt lat="45.986131782220134" lon="11.979770500114467"><ele>223.0</ele><time>2026-04-12T07:57:39.828Z</time></trkpt><trkpt lat="45.986286189378184" lon="11.979898133491835"><ele>223.0</ele><time>2026-04-12T07:57:40.828Z</time></trkpt><trkpt lat="45.98643707903847" lon="11.979998986745912"><ele>223.0</ele><time>2026-04-12T07:57:41.828Z</time></trkpt><trkpt lat="45.986588896053924" lon="11.980080058854954"><ele>228.0</ele><time>2026-04-12T07:57:42.828Z</time></trkpt><trkpt lat="45.9867457432579" lon="11.980157587822271"><ele>233.0</ele><time>2026-04-12T07:57:43.828Z</time></trkpt><trkpt lat="45.98690782490426" lon="11.980225946762824"><ele>238.0</ele><time>2026-04-12T07:57:44.828Z</time></trkpt><trkpt lat="45.98707802627397" lon="11.980273931074517"><ele>238.0</ele><time>2026-04-12T07:57:45.828Z</time></trkpt><trkpt lat="45.987245639461314" lon="11.980295798969278"><ele>238.0</ele><time>2026-04-12T07:57:46.828Z</time></trkpt><trkpt lat="45.98741038340072" lon="11.980326736346084"><ele>238.0</ele><time>2026-04-12T07:57:47.828Z</time></trkpt><trkpt lat="45.987601309642486" lon="11.980339362072911"><ele>235.0</ele><time>2026-04-12T07:57:48.83Z</time></trkpt><trkpt lat="45.98777821953051" lon="11.980363423394717"><ele>232.0</ele><time>2026-04-12T07:57:49.83Z</time></trkpt><trkpt lat="45.98795126341299" lon="11.980393421803791"><ele>229.0</ele><time>2026-04-12T07:57:50.83Z</time></trkpt><trkpt lat="45.988117085849744" lon="11.98041361715241"><ele>229.0</ele><time>2026-04-12T07:57:51.83Z</time></trkpt><trkpt lat="45.988283596407854" lon="11.980442659485973"><ele>229.0</ele><time>2026-04-12T07:57:52.83Z</time></trkpt><trkpt lat="45.98845240275833" lon="11.980493982160969"><ele>229.0</ele><time>2026-04-12T07:57:53.83Z</time></trkpt><trkpt lat="45.9886198498414" lon="11.980562135549576"><ele>227.33333333333331</ele><time>2026-04-12T07:57:54.83Z</time></trkpt><trkpt lat="45.98879381546772" lon="11.980649330355336"><ele>225.66666666666669</ele><time>2026-04-12T07:57:55.83Z</time></trkpt><trkpt lat="45.988978341162166" lon="11.980769094917315"><ele>224.0</ele><time>2026-04-12T07:57:56.83Z</time></trkpt><trkpt lat="45.98916051876747" lon="11.980948796821217"><ele>222.5</ele><time>2026-04-12T07:57:57.83Z</time></trkpt><trkpt lat="45.98935954364428" lon="11.981130010235905"><ele>221.0</ele><time>2026-04-12T07:57:58.83Z</time></trkpt><trkpt lat="45.989566562495824" lon="11.981305452622882"><ele>221.0</ele><time>2026-04-12T07:57:59.83Z</time></trkpt><trkpt lat="45.989767248587526" lon="11.981522793925429"><ele>221.0</ele><time>2026-04-12T07:58:00.83Z</time></trkpt><trkpt lat="45.98996783503008" lon="11.981713174181758"><ele>222.33333333333334</ele><time>2026-04-12T07:58:01.83Z</time></trkpt><trkpt lat="45.99015183229482" lon="11.981892379890017"><ele>223.66666666666669</ele><time>2026-04-12T07:58:02.83Z</time></trkpt><trkpt lat="45.990321216136415" lon="11.9820588780881"><ele>225.0</ele><time>2026-04-12T07:58:03.83Z</time></trkpt><trkpt lat="45.99047861170909" lon="11.982209302180488"><ele>225.0</ele><time>2026-04-12T07:58:04.83Z</time></trkpt><trkpt lat="45.99063399344484" lon="11.98234978162459"><ele>225.0</ele><time>2026-04-12T07:58:05.83Z</time></trkpt><trkpt lat="45.99079840629987" lon="11.982473263222614"><ele>225.0</ele><time>2026-04-12T07:58:06.83Z</time></trkpt><trkpt lat="45.990975826403776" lon="11.982574968363144"><ele>231.0</ele><time>2026-04-12T07:58:07.83Z</time></trkpt><trkpt lat="45.99116373935459" lon="11.982657011061912"><ele>237.0</ele><time>2026-04-12T07:58:08.83Z</time></trkpt><trkpt lat="45.99135513311216" lon="11.982712372974724"><ele>243.0</ele><time>2026-04-12T07:58:09.83Z</time></trkpt><trkpt lat="45.99154736210075" lon="11.982747942794344"><ele>243.66666666666669</ele><time>2026-04-12T07:58:10.83Z</time></trkpt><trkpt lat="45.99172640187878" lon="11.98277688409452"><ele>244.33333333333334</ele><time>2026-04-12T07:58:11.83Z</time></trkpt><trkpt lat="45.99190051069792" lon="11.98280445640559"><ele>245.0</ele><time>2026-04-12T07:58:12.83Z</time></trkpt><trkpt lat="45.99208142559927" lon="11.982824871381135"><ele>245.0</ele><time>2026-04-12T07:58:13.83Z</time></trkpt><trkpt lat="45.99226638678298" lon="11.982865601636073"><ele>245.0</ele><time>2026-04-12T07:58:14.83Z</time></trkpt><trkpt lat="45.99246066282624" lon="11.982897911761489"><ele>245.0</ele><time>2026-04-12T07:58:15.83Z</time></trkpt><trkpt lat="45.99266904018694" lon="11.982932567084674"><ele>243.0</ele><time>2026-04-12T07:58:16.83Z</time></trkpt><trkpt lat="45.9928785283076" lon="11.98296737485831"><ele>241.0</ele><time>2026-04-12T07:58:17.83Z</time></trkpt><trkpt lat="45.99308508086573" lon="11.98297954586221"><ele>239.0</ele><time>2026-04-12T07:58:18.83Z</time></trkpt><trkpt lat="45.99327479392187" lon="11.983016250106505"><ele>237.66666666666669</ele><time>2026-04-12T07:58:19.83Z</time></trkpt><trkpt lat="45.99344690244278" lon="11.983049806627944"><ele>236.33333333333331</ele><time>2026-04-12T07:58:20.83Z</time></trkpt><trkpt lat="45.993611701722685" lon="11.983078498459799"><ele>235.0</ele><time>2026-04-12T07:58:21.83Z</time></trkpt><trkpt lat="45.993774277914454" lon="11.983084245961017"><ele>235.0</ele><time>2026-04-12T07:58:22.83Z</time></trkpt><trkpt lat="45.99393429830019" lon="11.98308219397087"><ele>235.0</ele><time>2026-04-12T07:58:23.83Z</time></trkpt><trkpt lat="45.994083601429786" lon="11.98308675633732"><ele>235.0</ele><time>2026-04-12T07:58:24.83Z</time></trkpt><trkpt lat="45.99418925100003" lon="11.983087179967354"><ele>235.0</ele><time>2026-04-12T07:58:25.83Z</time></trkpt><trkpt lat="45.994293710519614" lon="11.98309072302341"><ele>234.0</ele><time>2026-04-12T07:58:26.83Z</time></trkpt><trkpt lat="45.99442314082047" lon="11.983105774971865"><ele>233.0</ele><time>2026-04-12T07:58:27.83Z</time></trkpt><trkpt lat="45.99471086496661" lon="11.983163622208624"><ele>232.0</ele><time>2026-04-12T07:58:28.83Z</time></trkpt><trkpt lat="45.99492860041238" lon="11.983215784229403"><ele>230.33333333333331</ele><time>2026-04-12T07:58:29.83Z</time></trkpt><trkpt lat="45.995133574136915" lon="11.983299471210314"><ele>228.66666666666669</ele><time>2026-04-12T07:58:30.83Z</time></trkpt><trkpt lat="45.99525523721121" lon="11.98332104291648"><ele>227.0</ele><time>2026-04-12T07:58:31.83Z</time></trkpt><trkpt lat="45.9954321501373" lon="11.98336966266459"><ele>249.66666666666669</ele><time>2026-04-12T07:58:32.83Z</time></trkpt><trkpt lat="45.99561255413583" lon="11.983388513672175"><ele>272.3333333333333</ele><time>2026-04-12T07:58:33.83Z</time></trkpt><trkpt lat="45.995803355787146" lon="11.983387136374633"><ele>295.0</ele><time>2026-04-12T07:58:34.83Z</time></trkpt><trkpt lat="45.99600934303831" lon="11.98338834431973"><ele>295.0</ele><time>2026-04-12T07:58:35.83Z</time></trkpt><trkpt lat="45.996239477732146" lon="11.983362327881862"><ele>295.0</ele><time>2026-04-12T07:58:36.83Z</time></trkpt><trkpt lat="45.99648760357048" lon="11.983336231618969"><ele>265.5</ele><time>2026-04-12T07:58:37.83Z</time></trkpt><trkpt lat="45.99674815714905" lon="11.983309974456843"><ele>236.0</ele><time>2026-04-12T07:58:38.83Z</time></trkpt><trkpt lat="45.997012271710645" lon="11.983283284457928"><ele>236.0</ele><time>2026-04-12T07:58:39.83Z</time></trkpt><trkpt lat="45.99728794082161" lon="11.983255192294852"><ele>236.0</ele><time>2026-04-12T07:58:40.83Z</time></trkpt><trkpt lat="45.997551781181556" lon="11.983228672261632"><ele>230.5</ele><time>2026-04-12T07:58:41.83Z</time></trkpt><trkpt lat="45.997793366273825" lon="11.98318137697369"><ele>225.0</ele><time>2026-04-12T07:58:42.83Z</time></trkpt><trkpt lat="45.99801925974197" lon="11.983170420615265"><ele>225.0</ele><time>2026-04-12T07:58:43.83Z</time></trkpt><trkpt lat="45.99823505523711" lon="11.983152391833585"><ele>225.0</ele><time>2026-04-12T07:58:44.83Z</time></trkpt><trkpt lat="45.998436265354705" lon="11.983134650583308"><ele>225.0</ele><time>2026-04-12T07:58:45.83Z</time></trkpt><trkpt lat="45.99863231654105" lon="11.983121463998181"><ele>225.0</ele><time>2026-04-12T07:58:46.83Z</time></trkpt><trkpt lat="45.99883412212564" lon="11.98309545040441"><ele>225.0</ele><time>2026-04-12T07:58:47.83Z</time></trkpt><trkpt lat="45.99904264669595" lon="11.98306661467683"><ele>225.0</ele><time>2026-04-12T07:58:48.83Z</time></trkpt><trkpt lat="45.999255381410826" lon="11.983042132165437"><ele>225.0</ele><time>2026-04-12T07:58:49.83Z</time></trkpt><trkpt lat="45.99947049935533" lon="11.983018223720814"><ele>225.0</ele><time>2026-04-12T07:58:50.83Z</time></trkpt><trkpt lat="45.999698684900345" lon="11.982992657666502"><ele>225.0</ele><time>2026-04-12T07:58:51.83Z</time></trkpt><trkpt lat="45.99993710272054" lon="11.982991739796336"><ele>225.0</ele><time>2026-04-12T07:58:52.83Z</time></trkpt><trkpt lat="46.00017865675266" lon="11.982952309869434"><ele>225.0</ele><time>2026-04-12T07:58:53.83Z</time></trkpt><trkpt lat="46.000420974325515" lon="11.982935306914587"><ele>225.0</ele><time>2026-04-12T07:58:54.83Z</time></trkpt><trkpt lat="46.000644961248135" lon="11.982908070592377"><ele>225.0</ele><time>2026-04-12T07:58:55.83Z</time></trkpt><trkpt lat="46.00086134282359" lon="11.982892900783195"><ele>225.0</ele><time>2026-04-12T07:58:56.83Z</time></trkpt><trkpt lat="46.001069500731965" lon="11.982873784975707"><ele>228.0</ele><time>2026-04-12T07:58:57.83Z</time></trkpt><trkpt lat="46.00126676694897" lon="11.982855702364024"><ele>231.0</ele><time>2026-04-12T07:58:58.83Z</time></trkpt><trkpt lat="46.00145889577604" lon="11.982834228200295"><ele>234.0</ele><time>2026-04-12T07:58:59.83Z</time></trkpt><trkpt lat="46.001647022768616" lon="11.982807263156696"><ele>236.0</ele><time>2026-04-12T07:59:00.83Z</time></trkpt><trkpt lat="46.00183471176033" lon="11.982786737600803"><ele>238.0</ele><time>2026-04-12T07:59:01.83Z</time></trkpt><trkpt lat="46.00202120375837" lon="11.98277154608568"><ele>240.0</ele><time>2026-04-12T07:59:02.83Z</time></trkpt><trkpt lat="46.0021980121166" lon="11.982753464850237"><ele>240.0</ele><time>2026-04-12T07:59:03.83Z</time></trkpt><trkpt lat="46.00237293600814" lon="11.982738241447933"><ele>240.0</ele><time>2026-04-12T07:59:04.83Z</time></trkpt><trkpt lat="46.00255201008625" lon="11.982719631666548"><ele>240.0</ele><time>2026-04-12T07:59:05.83Z</time></trkpt><trkpt lat="46.002736023896816" lon="11.982699035312217"><ele>236.33333333333331</ele><time>2026-04-12T07:59:06.83Z</time></trkpt><trkpt lat="46.00292377544765" lon="11.98267892879364"><ele>232.66666666666666</ele><time>2026-04-12T07:59:07.83Z</time></trkpt><trkpt lat="46.00312008510001" lon="11.982659952408694"><ele>229.0</ele><time>2026-04-12T07:59:08.83Z</time></trkpt><trkpt lat="46.00333303871503" lon="11.982644427518208"><ele>229.0</ele><time>2026-04-12T07:59:09.83Z</time></trkpt><trkpt lat="46.00355677379432" lon="11.982623317834737"><ele>229.0</ele><time>2026-04-12T07:59:10.83Z</time></trkpt><trkpt lat="46.00377507071327" lon="11.982606699459078"><ele>229.0</ele><time>2026-04-12T07:59:11.83Z</time></trkpt><trkpt lat="46.00398697462917" lon="11.982586606863949"><ele>228.66666666666666</ele><time>2026-04-12T07:59:12.83Z</time></trkpt><trkpt lat="46.00419552721969" lon="11.982563583653114"><ele>228.33333333333331</ele><time>2026-04-12T07:59:13.83Z</time></trkpt><trkpt lat="46.004403597449475" lon="11.982542605632041"><ele>228.0</ele><time>2026-04-12T07:59:14.83Z</time></trkpt><trkpt lat="46.00461295252956" lon="11.982520576213815"><ele>226.0</ele><time>2026-04-12T07:59:15.83Z</time></trkpt><trkpt lat="46.004829097669415" lon="11.98249560551478"><ele>224.0</ele><time>2026-04-12T07:59:16.83Z</time></trkpt><trkpt lat="46.005051756737565" lon="11.982467509054974"><ele>222.0</ele><time>2026-04-12T07:59:17.83Z</time></trkpt><trkpt lat="46.00528829291806" lon="11.98243715521636"><ele>222.0</ele><time>2026-04-12T07:59:18.83Z</time></trkpt><trkpt lat="46.00553786951854" lon="11.982407431518832"><ele>222.0</ele><time>2026-04-12T07:59:19.83Z</time></trkpt><trkpt lat="46.00579766840989" lon="11.982381322401764"><ele>222.5</ele><time>2026-04-12T07:59:20.83Z</time></trkpt><trkpt lat="46.00605285670427" lon="11.982357243625875"><ele>223.0</ele><time>2026-04-12T07:59:21.83Z</time></trkpt><trkpt lat="46.006297642045354" lon="11.982332178685633"><ele>223.0</ele><time>2026-04-12T07:59:22.83Z</time></trkpt><trkpt lat="46.00653284411395" lon="11.98230593608539"><ele>223.0</ele><time>2026-04-12T07:59:23.83Z</time></trkpt><trkpt lat="46.006760908316664" lon="11.982288822609968"><ele>222.66666666666666</ele><time>2026-04-12T07:59:24.83Z</time></trkpt><trkpt lat="46.00698226578267" lon="11.982268020820808"><ele>222.33333333333331</ele><time>2026-04-12T07:59:25.83Z</time></trkpt><trkpt lat="46.00719611265188" lon="11.982240101998888"><ele>222.0</ele><time>2026-04-12T07:59:26.83Z</time></trkpt><trkpt lat="46.00740741341222" lon="11.982208546018446"><ele>221.33333333333331</ele><time>2026-04-12T07:59:27.83Z</time></trkpt><trkpt lat="46.00761943008982" lon="11.982185028654373"><ele>220.66666666666666</ele><time>2026-04-12T07:59:28.83Z</time></trkpt><trkpt lat="46.007832563661694" lon="11.9821563999973"><ele>220.0</ele><time>2026-04-12T07:59:29.83Z</time></trkpt><trkpt lat="46.008038759315845" lon="11.98212618292916"><ele>220.0</ele><time>2026-04-12T07:59:30.83Z</time></trkpt><trkpt lat="46.0082296314545" lon="11.982098125681128"><ele>220.0</ele><time>2026-04-12T07:59:31.83Z</time></trkpt><trkpt lat="46.00841097445019" lon="11.982079790300043"><ele>220.0</ele><time>2026-04-12T07:59:32.83Z</time></trkpt><trkpt lat="46.00858353272373" lon="11.9820583342965"><ele>224.33333333333331</ele><time>2026-04-12T07:59:33.83Z</time></trkpt><trkpt lat="46.00875178636595" lon="11.982037218921409"><ele>228.66666666666669</ele><time>2026-04-12T07:59:34.83Z</time></trkpt><trkpt lat="46.008921616760546" lon="11.982019814795791"><ele>233.0</ele><time>2026-04-12T07:59:35.83Z</time></trkpt><trkpt lat="46.00910077931016" lon="11.982001447203897"><ele>241.66666666666669</ele><time>2026-04-12T07:59:36.83Z</time></trkpt><trkpt lat="46.009277958819716" lon="11.981982845375434"><ele>250.33333333333331</ele><time>2026-04-12T07:59:37.83Z</time></trkpt><trkpt lat="46.00946944129165" lon="11.981963103695797"><ele>259.0</ele><time>2026-04-12T07:59:38.83Z</time></trkpt><trkpt lat="46.00967776939936" lon="11.981918095958422"><ele>259.0</ele><time>2026-04-12T07:59:39.83Z</time></trkpt><trkpt lat="46.00990066866338" lon="11.981886518799616"><ele>259.0</ele><time>2026-04-12T07:59:40.83Z</time></trkpt><trkpt lat="46.01012532217492" lon="11.981863434484135"><ele>259.0</ele><time>2026-04-12T07:59:41.83Z</time></trkpt><trkpt lat="46.01033306344651" lon="11.981846625725495"><ele>264.3333333333333</ele><time>2026-04-12T07:59:42.83Z</time></trkpt><trkpt lat="46.010520815363705" lon="11.981825198082202"><ele>269.6666666666667</ele><time>2026-04-12T07:59:43.83Z</time></trkpt><trkpt lat="46.01070105766425" lon="11.98180224453801"><ele>275.0</ele><time>2026-04-12T07:59:44.83Z</time></trkpt><trkpt lat="46.01086954982363" lon="11.981775943770199"><ele>277.6666666666667</ele><time>2026-04-12T07:59:45.83Z</time></trkpt><trkpt lat="46.01104119056558" lon="11.981758990691688"><ele>280.3333333333333</ele><time>2026-04-12T07:59:46.83Z</time></trkpt><trkpt lat="46.01122487528272" lon="11.981778704156067"><ele>283.0</ele><time>2026-04-12T07:59:47.83Z</time></trkpt><trkpt lat="46.01140120183106" lon="11.981788371265814"><ele>283.0</ele><time>2026-04-12T07:59:48.83Z</time></trkpt><trkpt lat="46.011578859688385" lon="11.98181124801185"><ele>283.0</ele><time>2026-04-12T07:59:49.83Z</time></trkpt><trkpt lat="46.01176782488935" lon="11.981847862480281"><ele>283.0</ele><time>2026-04-12T07:59:50.83Z</time></trkpt><trkpt lat="46.01196994251492" lon="11.981921450163483"><ele>273.5</ele><time>2026-04-12T07:59:51.83Z</time></trkpt><trkpt lat="46.012184740002375" lon="11.982004563789939"><ele>264.0</ele><time>2026-04-12T07:59:52.83Z</time></trkpt><trkpt lat="46.01242789788593" lon="11.982086442656897"><ele>251.0</ele><time>2026-04-12T07:59:53.83Z</time></trkpt><trkpt lat="46.01267225215864" lon="11.982163526128542"><ele>238.0</ele><time>2026-04-12T07:59:54.831Z</time></trkpt><trkpt lat="46.01291552027813" lon="11.982251110944283"><ele>238.0</ele><time>2026-04-12T07:59:55.831Z</time></trkpt><trkpt lat="46.01315126830733" lon="11.982330496071155"><ele>238.0</ele><time>2026-04-12T07:59:56.831Z</time></trkpt><trkpt lat="46.01337533469601" lon="11.982406287656945"><ele>235.66666666666666</ele><time>2026-04-12T07:59:57.831Z</time></trkpt><trkpt lat="46.01358156417086" lon="11.982479869174943"><ele>233.33333333333331</ele><time>2026-04-12T07:59:58.831Z</time></trkpt><trkpt lat="46.01377833544716" lon="11.982543941243925"><ele>231.0</ele><time>2026-04-12T07:59:59.831Z</time></trkpt><trkpt lat="46.01396593526868" lon="11.982598495023444"><ele>240.0</ele><time>2026-04-12T08:00:00.831Z</time></trkpt><trkpt lat="46.014138797741595" lon="11.982666350838935"><ele>249.0</ele><time>2026-04-12T08:00:01.831Z</time></trkpt><trkpt lat="46.01431979537484" lon="11.982748763686761"><ele>258.0</ele><time>2026-04-12T08:00:02.831Z</time></trkpt><trkpt lat="46.01450898839933" lon="11.982866111728647"><ele>258.0</ele><time>2026-04-12T08:00:03.831Z</time></trkpt><trkpt lat="46.01470231328484" lon="11.98300885931557"><ele>258.0</ele><time>2026-04-12T08:00:04.831Z</time></trkpt><trkpt lat="46.01488635122088" lon="11.98318151491579"><ele>258.0</ele><time>2026-04-12T08:00:05.831Z</time></trkpt><trkpt lat="46.01505414854625" lon="11.983382685731762"><ele>262.3333333333333</ele><time>2026-04-12T08:00:06.831Z</time></trkpt><trkpt lat="46.01520446109173" lon="11.98359762744957"><ele>266.66666666666663</ele><time>2026-04-12T08:00:07.831Z</time></trkpt><trkpt lat="46.0153305281689" lon="11.983817508872562"><ele>271.0</ele><time>2026-04-12T08:00:08.831Z</time></trkpt><trkpt lat="46.01545479866868" lon="11.984081284508546"><ele>277.0</ele><time>2026-04-12T08:00:09.831Z</time></trkpt><trkpt lat="46.01555850775453" lon="11.98436481716263"><ele>283.0</ele><time>2026-04-12T08:00:10.831Z</time></trkpt><trkpt lat="46.015653795221866" lon="11.984671243784883"><ele>283.0</ele><time>2026-04-12T08:00:11.831Z</time></trkpt><trkpt lat="46.01572634314895" lon="11.985003280265477"><ele>283.0</ele><time>2026-04-12T08:00:12.831Z</time></trkpt><trkpt lat="46.01572221607246" lon="11.98525327901827"><ele>283.0</ele><time>2026-04-12T08:00:13.831Z</time></trkpt><trkpt lat="46.015813261293" lon="11.985488844846214"><ele>278.5</ele><time>2026-04-12T08:00:14.831Z</time></trkpt><trkpt lat="46.0159115191379" lon="11.985681464457697"><ele>274.0</ele><time>2026-04-12T08:00:15.831Z</time></trkpt><trkpt lat="46.01598084446274" lon="11.985832388231222"><ele>269.5</ele><time>2026-04-12T08:00:16.831Z</time></trkpt><trkpt lat="46.016029844603295" lon="11.98599875477785"><ele>265.0</ele><time>2026-04-12T08:00:17.831Z</time></trkpt><trkpt lat="46.016276891325404" lon="11.986453132337003"><ele>265.0</ele><time>2026-04-12T08:00:18.831Z</time></trkpt><trkpt lat="46.016384304113245" lon="11.98666751980401"><ele>265.0</ele><time>2026-04-12T08:00:19.831Z</time></trkpt><trkpt lat="46.016483500135884" lon="11.98688546848423"><ele>265.0</ele><time>2026-04-12T08:00:20.831Z</time></trkpt><trkpt lat="46.01657617717211" lon="11.98709275701971"><ele>262.66666666666663</ele><time>2026-04-12T08:00:21.831Z</time></trkpt><trkpt lat="46.01668888915025" lon="11.987312669605394"><ele>260.3333333333333</ele><time>2026-04-12T08:00:22.831Z</time></trkpt><trkpt lat="46.016824465443115" lon="11.987509472329702"><ele>258.0</ele><time>2026-04-12T08:00:23.831Z</time></trkpt><trkpt lat="46.01695756817137" lon="11.987713385443215"><ele>267.6666666666667</ele><time>2026-04-12T08:00:24.831Z</time></trkpt><trkpt lat="46.01710688117025" lon="11.987903771748236"><ele>277.33333333333337</ele><time>2026-04-12T08:00:25.831Z</time></trkpt><trkpt lat="46.01726450281956" lon="11.988076362255695"><ele>287.0</ele><time>2026-04-12T08:00:26.831Z</time></trkpt><trkpt lat="46.01744315367356" lon="11.988216244973307"><ele>284.33333333333337</ele><time>2026-04-12T08:00:27.831Z</time></trkpt><trkpt lat="46.01762276336516" lon="11.988343021077755"><ele>281.6666666666667</ele><time>2026-04-12T08:00:28.831Z</time></trkpt><trkpt lat="46.017811203568854" lon="11.988457508471411"><ele>279.0</ele><time>2026-04-12T08:00:29.831Z</time></trkpt><trkpt lat="46.01799228046066" lon="11.988575722225743"><ele>279.0</ele><time>2026-04-12T08:00:30.831Z</time></trkpt><trkpt lat="46.01817498456186" lon="11.988721240334097"><ele>279.0</ele><time>2026-04-12T08:00:31.831Z</time></trkpt><trkpt lat="46.018350145884135" lon="11.988890920862353"><ele>279.0</ele><time>2026-04-12T08:00:32.831Z</time></trkpt><trkpt lat="46.01852608965045" lon="11.989091934526892"><ele>274.0</ele><time>2026-04-12T08:00:33.831Z</time></trkpt><trkpt lat="46.018696978150274" lon="11.989310525803605"><ele>269.0</ele><time>2026-04-12T08:00:34.831Z</time></trkpt><trkpt lat="46.018873425268204" lon="11.989533348518899"><ele>269.0</ele><time>2026-04-12T08:00:35.831Z</time></trkpt><trkpt lat="46.01905676587607" lon="11.98976054452703"><ele>269.0</ele><time>2026-04-12T08:00:36.831Z</time></trkpt><trkpt lat="46.01924169396983" lon="11.989994972722457"><ele>266.5</ele><time>2026-04-12T08:00:37.831Z</time></trkpt><trkpt lat="46.019430581132845" lon="11.990229612876801"><ele>264.0</ele><time>2026-04-12T08:00:38.831Z</time></trkpt><trkpt lat="46.01962620842234" lon="11.990469919439052"><ele>264.0</ele><time>2026-04-12T08:00:39.831Z</time></trkpt><trkpt lat="46.0198203703026" lon="11.990727918175129"><ele>264.0</ele><time>2026-04-12T08:00:40.831Z</time></trkpt><trkpt lat="46.02001530276156" lon="11.990978585747143"><ele>258.0</ele><time>2026-04-12T08:00:41.831Z</time></trkpt><trkpt lat="46.020221251594165" lon="11.991249335855327"><ele>252.0</ele><time>2026-04-12T08:00:42.831Z</time></trkpt><trkpt lat="46.020415874533136" lon="11.991496036193293"><ele>263.0</ele><time>2026-04-12T08:00:43.831Z</time></trkpt><trkpt lat="46.02060177695082" lon="11.9917337355996"><ele>274.0</ele><time>2026-04-12T08:00:44.831Z</time></trkpt><trkpt lat="46.0207817409093" lon="11.991955240219156"><ele>263.5</ele><time>2026-04-12T08:00:45.831Z</time></trkpt><trkpt lat="46.020957677089754" lon="11.99217578166338"><ele>253.0</ele><time>2026-04-12T08:00:46.831Z</time></trkpt><trkpt lat="46.021136362133504" lon="11.992395188748672"><ele>271.5</ele><time>2026-04-12T08:00:47.831Z</time></trkpt><trkpt lat="46.02132359405459" lon="11.992595448423632"><ele>290.0</ele><time>2026-04-12T08:00:48.831Z</time></trkpt><trkpt lat="46.02151839554198" lon="11.99278375675735"><ele>280.0</ele><time>2026-04-12T08:00:49.831Z</time></trkpt><trkpt lat="46.021723885389775" lon="11.992950938825382"><ele>270.0</ele><time>2026-04-12T08:00:50.831Z</time></trkpt><trkpt lat="46.0219363273475" lon="11.993093400781524"><ele>270.0</ele><time>2026-04-12T08:00:51.831Z</time></trkpt><trkpt lat="46.022166114805884" lon="11.99320859120186"><ele>270.0</ele><time>2026-04-12T08:00:52.831Z</time></trkpt><trkpt lat="46.02238503644851" lon="11.993325054819502"><ele>274.0</ele><time>2026-04-12T08:00:53.831Z</time></trkpt><trkpt lat="46.022608125736824" lon="11.99345303372045"><ele>278.0</ele><time>2026-04-12T08:00:54.831Z</time></trkpt><trkpt lat="46.02282896157276" lon="11.993579029316392"><ele>278.0</ele><time>2026-04-12T08:00:55.831Z</time></trkpt><trkpt lat="46.02305630397255" lon="11.993711362975185"><ele>278.0</ele><time>2026-04-12T08:00:56.831Z</time></trkpt><trkpt lat="46.02328525055369" lon="11.99384540226058"><ele>269.0</ele><time>2026-04-12T08:00:57.831Z</time></trkpt><trkpt lat="46.02351929906583" lon="11.993984139490305"><ele>260.0</ele><time>2026-04-12T08:00:58.831Z</time></trkpt><trkpt lat="46.023756439398326" lon="11.994119425633372"><ele>266.5</ele><time>2026-04-12T08:00:59.831Z</time></trkpt><trkpt lat="46.02400058655589" lon="11.994255374331775"><ele>273.0</ele><time>2026-04-12T08:01:00.831Z</time></trkpt><trkpt lat="46.02423410648458" lon="11.994387781225345"><ele>273.0</ele><time>2026-04-12T08:01:01.831Z</time></trkpt><trkpt lat="46.02445345814253" lon="11.994518397981668"><ele>273.0</ele><time>2026-04-12T08:01:02.831Z</time></trkpt><trkpt lat="46.02466564538212" lon="11.994651375968914"><ele>273.0</ele><time>2026-04-12T08:01:03.831Z</time></trkpt><trkpt lat="46.02487232676836" lon="11.994801256926502"><ele>273.0</ele><time>2026-04-12T08:01:04.831Z</time></trkpt><trkpt lat="46.025070217858485" lon="11.99496551582803"><ele>272.0</ele><time>2026-04-12T08:01:05.831Z</time></trkpt><trkpt lat="46.025264545430225" lon="11.995160220572343"><ele>271.0</ele><time>2026-04-12T08:01:06.831Z</time></trkpt><trkpt lat="46.025457366116584" lon="11.995370667777914"><ele>271.0</ele><time>2026-04-12T08:01:07.831Z</time></trkpt><trkpt lat="46.02564478335896" lon="11.995575998821712"><ele>271.0</ele><time>2026-04-12T08:01:08.831Z</time></trkpt><trkpt lat="46.02581497741002" lon="11.995761869992412"><ele>271.0</ele><time>2026-04-12T08:01:09.831Z</time></trkpt><trkpt lat="46.02596927841923" lon="11.995936166615168"><ele>263.0</ele><time>2026-04-12T08:01:10.831Z</time></trkpt><trkpt lat="46.02612784752794" lon="11.996106260538882"><ele>255.0</ele><time>2026-04-12T08:01:11.831Z</time></trkpt><trkpt lat="46.02628843948081" lon="11.996272491387002"><ele>247.0</ele><time>2026-04-12T08:01:12.831Z</time></trkpt><trkpt lat="46.02644862032978" lon="11.996440302141181"><ele>247.0</ele><time>2026-04-12T08:01:13.831Z</time></trkpt><trkpt lat="46.02660907791983" lon="11.996611650370296"><ele>247.0</ele><time>2026-04-12T08:01:14.831Z</time></trkpt><trkpt lat="46.026770234025285" lon="11.996780364113281"><ele>247.0</ele><time>2026-04-12T08:01:15.831Z</time></trkpt><trkpt lat="46.02693247470999" lon="11.996948314021278"><ele>244.66666666666666</ele><time>2026-04-12T08:01:16.831Z</time></trkpt><trkpt lat="46.02710012077741" lon="11.99711259304916"><ele>242.33333333333331</ele><time>2026-04-12T08:01:17.831Z</time></trkpt><trkpt lat="46.02726814273045" lon="11.997250930883613"><ele>240.0</ele><time>2026-04-12T08:01:18.831Z</time></trkpt><trkpt lat="46.02743441177619" lon="11.997365636116411"><ele>240.33333333333331</ele><time>2026-04-12T08:01:19.831Z</time></trkpt><trkpt lat="46.02759911068046" lon="11.99746628787113"><ele>240.66666666666666</ele><time>2026-04-12T08:01:20.831Z</time></trkpt><trkpt lat="46.027762849159835" lon="11.997550784550562"><ele>241.0</ele><time>2026-04-12T08:01:21.831Z</time></trkpt><trkpt lat="46.02792548265727" lon="11.997618523841854"><ele>241.0</ele><time>2026-04-12T08:01:22.831Z</time></trkpt><trkpt lat="46.02808618563841" lon="11.997670935952003"><ele>241.0</ele><time>2026-04-12T08:01:23.831Z</time></trkpt><trkpt lat="46.02824586091156" lon="11.99771126078121"><ele>241.0</ele><time>2026-04-12T08:01:24.831Z</time></trkpt><trkpt lat="46.02840306075733" lon="11.997738621724842"><ele>241.33333333333331</ele><time>2026-04-12T08:01:25.831Z</time></trkpt><trkpt lat="46.02855112499186" lon="11.997765938855656"><ele>241.66666666666669</ele><time>2026-04-12T08:01:26.831Z</time></trkpt><trkpt lat="46.02871712620212" lon="11.997775825012488"><ele>242.0</ele><time>2026-04-12T08:01:27.831Z</time></trkpt><trkpt lat="46.028884610062036" lon="11.997778589854102"><ele>242.0</ele><time>2026-04-12T08:01:28.831Z</time></trkpt><trkpt lat="46.029065382270716" lon="11.99777633800167"><ele>242.0</ele><time>2026-04-12T08:01:29.831Z</time></trkpt><trkpt lat="46.029244358104506" lon="11.997765602485565"><ele>242.0</ele><time>2026-04-12T08:01:30.831Z</time></trkpt><trkpt lat="46.029416266293026" lon="11.997755804246877"><ele>240.66666666666669</ele><time>2026-04-12T08:01:31.831Z</time></trkpt><trkpt lat="46.029606416607564" lon="11.997753071822816"><ele>239.33333333333331</ele><time>2026-04-12T08:01:32.831Z</time></trkpt><trkpt lat="46.02980211399902" lon="11.99774763946202"><ele>238.0</ele><time>2026-04-12T08:01:33.831Z</time></trkpt><trkpt lat="46.03000518661542" lon="11.997747871539111"><ele>237.33333333333331</ele><time>2026-04-12T08:01:34.831Z</time></trkpt><trkpt lat="46.03021228229422" lon="11.99773907417514"><ele>236.66666666666669</ele><time>2026-04-12T08:01:35.831Z</time></trkpt><trkpt lat="46.030422938093075" lon="11.997728866453565"><ele>236.0</ele><time>2026-04-12T08:01:36.831Z</time></trkpt><trkpt lat="46.0306376754179" lon="11.997726481002472"><ele>237.0</ele><time>2026-04-12T08:01:37.831Z</time></trkpt><trkpt lat="46.030865415306664" lon="11.997716884373943"><ele>238.0</ele><time>2026-04-12T08:01:38.831Z</time></trkpt><trkpt lat="46.031104355077176" lon="11.997709192637563"><ele>238.0</ele><time>2026-04-12T08:01:39.831Z</time></trkpt><trkpt lat="46.03134549765017" lon="11.997704177177516"><ele>238.0</ele><time>2026-04-12T08:01:40.831Z</time></trkpt><trkpt lat="46.031587756044964" lon="11.997702072321031"><ele>237.0</ele><time>2026-04-12T08:01:41.831Z</time></trkpt><trkpt lat="46.03183932211876" lon="11.99769994597093"><ele>236.0</ele><time>2026-04-12T08:01:42.831Z</time></trkpt><trkpt lat="46.03210290154005" lon="11.99769563508068"><ele>236.0</ele><time>2026-04-12T08:01:43.831Z</time></trkpt><trkpt lat="46.03238028864771" lon="11.997692296238267"><ele>236.0</ele><time>2026-04-12T08:01:44.831Z</time></trkpt><trkpt lat="46.03266412097225" lon="11.997688635378697"><ele>237.0</ele><time>2026-04-12T08:01:45.831Z</time></trkpt><trkpt lat="46.03295883882851" lon="11.997684834542666"><ele>238.0</ele><time>2026-04-12T08:01:46.831Z</time></trkpt><trkpt lat="46.033228095603555" lon="11.99767711736959"><ele>238.5</ele><time>2026-04-12T08:01:47.831Z</time></trkpt><trkpt lat="46.03347510174405" lon="11.997670901152178"><ele>239.0</ele><time>2026-04-12T08:01:48.831Z</time></trkpt><trkpt lat="46.03370571015063" lon="11.997666719123176"><ele>239.0</ele><time>2026-04-12T08:01:49.831Z</time></trkpt><trkpt lat="46.03392613320246" lon="11.997660522581489"><ele>239.0</ele><time>2026-04-12T08:01:50.831Z</time></trkpt><trkpt lat="46.03413046370539" lon="11.997657004879395"><ele>239.0</ele><time>2026-04-12T08:01:51.831Z</time></trkpt><trkpt lat="46.03432291948909" lon="11.997654461954154"><ele>239.66666666666669</ele><time>2026-04-12T08:01:52.831Z</time></trkpt><trkpt lat="46.03450641710999" lon="11.997646949273095"><ele>240.33333333333331</ele><time>2026-04-12T08:01:53.831Z</time></trkpt><trkpt lat="46.03468035675127" lon="11.997638539709099"><ele>241.0</ele><time>2026-04-12T08:01:54.831Z</time></trkpt><trkpt lat="46.03484591202777" lon="11.997638869312697"><ele>240.5</ele><time>2026-04-12T08:01:55.831Z</time></trkpt><trkpt lat="46.03499664092706" lon="11.997634152070896"><ele>240.0</ele><time>2026-04-12T08:01:56.831Z</time></trkpt><trkpt lat="46.035118346338514" lon="11.997626469722174"><ele>239.5</ele><time>2026-04-12T08:01:57.831Z</time></trkpt><trkpt lat="46.0352219933724" lon="11.99764224806348"><ele>239.0</ele><time>2026-04-12T08:01:58.831Z</time></trkpt><trkpt lat="46.035313786232365" lon="11.997682384384357"><ele>239.00000000000003</ele><time>2026-04-12T08:01:59.831Z</time></trkpt><trkpt lat="46.03539315242944" lon="11.997707445964272"><ele>239.0</ele><time>2026-04-12T08:02:00.832Z</time></trkpt><trkpt lat="46.03546505219097" lon="11.997679027937632"><ele>239.0</ele><time>2026-04-12T08:02:01.832Z</time></trkpt><trkpt lat="46.035519342584564" lon="11.997590930159511"><ele>239.0</ele><time>2026-04-12T08:02:02.832Z</time></trkpt><trkpt lat="46.03556097405007" lon="11.997470067964894"><ele>239.00000000000003</ele><time>2026-04-12T08:02:03.832Z</time></trkpt><trkpt lat="46.03561848545844" lon="11.99735038389111"><ele>239.0</ele><time>2026-04-12T08:02:04.832Z</time></trkpt><trkpt lat="46.03571852940287" lon="11.997278884414433"><ele>239.66666666666669</ele><time>2026-04-12T08:02:05.832Z</time></trkpt><trkpt lat="46.03584811481193" lon="11.997233706151704"><ele>240.33333333333331</ele><time>2026-04-12T08:02:06.832Z</time></trkpt><trkpt lat="46.03599202362098" lon="11.997161487295731"><ele>241.0</ele><time>2026-04-12T08:02:07.832Z</time></trkpt><trkpt lat="46.0361531799714" lon="11.997055201414728"><ele>241.0</ele><time>2026-04-12T08:02:08.832Z</time></trkpt><trkpt lat="46.03631975377179" lon="11.99692631802927"><ele>241.0</ele><time>2026-04-12T08:02:09.832Z</time></trkpt><trkpt lat="46.036459445782704" lon="11.996809114705108"><ele>241.0</ele><time>2026-04-12T08:02:10.832Z</time></trkpt><trkpt lat="46.03658374776637" lon="11.996694669733245"><ele>240.75</ele><time>2026-04-12T08:02:11.832Z</time></trkpt><trkpt lat="46.03669084118029" lon="11.996576502332923"><ele>240.5</ele><time>2026-04-12T08:02:12.832Z</time></trkpt><trkpt lat="46.03678133179201" lon="11.996464475790813"><ele>240.25</ele><time>2026-04-12T08:02:13.832Z</time></trkpt><trkpt lat="46.036876585413296" lon="11.996353128145069"><ele>240.0</ele><time>2026-04-12T08:02:14.832Z</time></trkpt><trkpt lat="46.03696770877591" lon="11.996239449126316"><ele>240.0</ele><time>2026-04-12T08:02:15.832Z</time></trkpt><trkpt lat="46.03705659388148" lon="11.996107576530912"><ele>240.0</ele><time>2026-04-12T08:02:16.832Z</time></trkpt><trkpt lat="46.03714190577638" lon="11.995965107356994"><ele>240.0</ele><time>2026-04-12T08:02:17.832Z</time></trkpt><trkpt lat="46.037236141403675" lon="11.99582037248951"><ele>240.0</ele><time>2026-04-12T08:02:18.832Z</time></trkpt><trkpt lat="46.037332755874495" lon="11.99565115398556"><ele>240.0</ele><time>2026-04-12T08:02:19.832Z</time></trkpt><trkpt lat="46.0374181242163" lon="11.995420634095911"><ele>240.0</ele><time>2026-04-12T08:02:20.832Z</time></trkpt><trkpt lat="46.03751525243384" lon="11.995228725848854"><ele>240.0</ele><time>2026-04-12T08:02:21.832Z</time></trkpt><trkpt lat="46.037578294268535" lon="11.99510135167323"><ele>240.5</ele><time>2026-04-12T08:02:22.832Z</time></trkpt><trkpt lat="46.03764856063776" lon="11.994918366446228"><ele>241.0</ele><time>2026-04-12T08:02:23.832Z</time></trkpt><trkpt lat="46.03771256858541" lon="11.994741690235003"><ele>241.5</ele><time>2026-04-12T08:02:24.832Z</time></trkpt><trkpt lat="46.03776939639408" lon="11.994552732982653"><ele>242.0</ele><time>2026-04-12T08:02:25.832Z</time></trkpt><trkpt lat="46.037819193558626" lon="11.9943850825039"><ele>242.0</ele><time>2026-04-12T08:02:26.832Z</time></trkpt><trkpt lat="46.03786079699997" lon="11.994222888881696"><ele>242.0</ele><time>2026-04-12T08:02:27.832Z</time></trkpt><trkpt lat="46.037901234722014" lon="11.99403398938399"><ele>242.0</ele><time>2026-04-12T08:02:28.832Z</time></trkpt><trkpt lat="46.037941048630394" lon="11.9937936491002"><ele>242.0</ele><time>2026-04-12T08:02:29.832Z</time></trkpt><trkpt lat="46.03796224365904" lon="11.99353930747501"><ele>241.33333333333334</ele><time>2026-04-12T08:02:30.832Z</time></trkpt><trkpt lat="46.03799932996078" lon="11.993282124870023"><ele>240.66666666666669</ele><time>2026-04-12T08:02:31.832Z</time></trkpt><trkpt lat="46.03802835310188" lon="11.993032853486477"><ele>240.0</ele><time>2026-04-12T08:02:32.832Z</time></trkpt><trkpt lat="46.03805515543217" lon="11.992801289742102"><ele>240.0</ele><time>2026-04-12T08:02:33.832Z</time></trkpt><trkpt lat="46.03807709673069" lon="11.992565543286617"><ele>240.0</ele><time>2026-04-12T08:02:34.832Z</time></trkpt><trkpt lat="46.038106610555275" lon="11.99234818115078"><ele>240.0</ele><time>2026-04-12T08:02:35.832Z</time></trkpt><trkpt lat="46.03813081566775" lon="11.992141492963963"><ele>240.0</ele><time>2026-04-12T08:02:36.832Z</time></trkpt><trkpt lat="46.038154532000206" lon="11.99193152929884"><ele>240.0</ele><time>2026-04-12T08:02:37.832Z</time></trkpt><trkpt lat="46.03817715262124" lon="11.99172143427225"><ele>240.0</ele><time>2026-04-12T08:02:38.832Z</time></trkpt><trkpt lat="46.038199458153464" lon="11.991508430801199"><ele>240.0</ele><time>2026-04-12T08:02:39.832Z</time></trkpt><trkpt lat="46.03822243900967" lon="11.991293753372776"><ele>240.0</ele><time>2026-04-12T08:02:40.832Z</time></trkpt><trkpt lat="46.03824132481273" lon="11.991065577248294"><ele>240.0</ele><time>2026-04-12T08:02:41.832Z</time></trkpt><trkpt lat="46.038273093527145" lon="11.990835507537017"><ele>240.0</ele><time>2026-04-12T08:02:42.832Z</time></trkpt><trkpt lat="46.038304781404435" lon="11.990584003080533"><ele>239.66666666666669</ele><time>2026-04-12T08:02:43.832Z</time></trkpt><trkpt lat="46.03831353679673" lon="11.990297346913996"><ele>239.33333333333334</ele><time>2026-04-12T08:02:44.832Z</time></trkpt><trkpt lat="46.03830721510157" lon="11.989995651342404"><ele>239.0</ele><time>2026-04-12T08:02:45.832Z</time></trkpt><trkpt lat="46.0382745287524" lon="11.98966820233104"><ele>239.0</ele><time>2026-04-12T08:02:46.832Z</time></trkpt><trkpt lat="46.03822883126209" lon="11.989325303886934"><ele>239.0</ele><time>2026-04-12T08:02:47.832Z</time></trkpt><trkpt lat="46.03818092883455" lon="11.989004982118889"><ele>238.0</ele><time>2026-04-12T08:02:48.832Z</time></trkpt><trkpt lat="46.038132036366406" lon="11.988711727763596"><ele>237.0</ele><time>2026-04-12T08:02:49.832Z</time></trkpt><trkpt lat="46.03808286041575" lon="11.988434493763314"><ele>236.0</ele><time>2026-04-12T08:02:50.832Z</time></trkpt><trkpt lat="46.03805327819672" lon="11.988167421653259"><ele>235.33333333333334</ele><time>2026-04-12T08:02:51.832Z</time></trkpt><trkpt lat="46.038029609053595" lon="11.987903628058705"><ele>234.66666666666669</ele><time>2026-04-12T08:02:52.832Z</time></trkpt><trkpt lat="46.0380379266937" lon="11.987642665738159"><ele>234.0</ele><time>2026-04-12T08:02:53.832Z</time></trkpt><trkpt lat="46.038027891981464" lon="11.98738984961522"><ele>233.66666666666669</ele><time>2026-04-12T08:02:54.832Z</time></trkpt><trkpt lat="46.03804134113175" lon="11.987152288119205"><ele>233.33333333333334</ele><time>2026-04-12T08:02:55.832Z</time></trkpt><trkpt lat="46.03804880466735" lon="11.986912016106887"><ele>233.0</ele><time>2026-04-12T08:02:56.832Z</time></trkpt><trkpt lat="46.03805421618442" lon="11.986662827984194"><ele>233.0</ele><time>2026-04-12T08:02:57.832Z</time></trkpt><trkpt lat="46.03805707911527" lon="11.98642434561161"><ele>233.0</ele><time>2026-04-12T08:02:58.832Z</time></trkpt><trkpt lat="46.03806484050524" lon="11.98621406211087"><ele>233.0</ele><time>2026-04-12T08:02:59.832Z</time></trkpt><trkpt lat="46.03807188097219" lon="11.986003875565292"><ele>236.0</ele><time>2026-04-12T08:03:00.832Z</time></trkpt><trkpt lat="46.03808737962114" lon="11.985796081469948"><ele>239.0</ele><time>2026-04-12T08:03:01.832Z</time></trkpt><trkpt lat="46.038135134897495" lon="11.98559505660448"><ele>242.0</ele><time>2026-04-12T08:03:02.832Z</time></trkpt><trkpt lat="46.0382180100605" lon="11.98539686414234"><ele>241.33333333333334</ele><time>2026-04-12T08:03:03.832Z</time></trkpt><trkpt lat="46.03830641514525" lon="11.985181816576992"><ele>240.66666666666669</ele><time>2026-04-12T08:03:04.832Z</time></trkpt><trkpt lat="46.03839180286864" lon="11.984957292443312"><ele>240.0</ele><time>2026-04-12T08:03:05.832Z</time></trkpt><trkpt lat="46.038470148639625" lon="11.984746977498022"><ele>240.0</ele><time>2026-04-12T08:03:06.832Z</time></trkpt><trkpt lat="46.03854650192397" lon="11.984558718432908"><ele>240.0</ele><time>2026-04-12T08:03:07.832Z</time></trkpt><trkpt lat="46.03861601603222" lon="11.984384033827494"><ele>240.0</ele><time>2026-04-12T08:03:08.832Z</time></trkpt><trkpt lat="46.03867102632835" lon="11.9842324249361"><ele>240.0</ele><time>2026-04-12T08:03:09.832Z</time></trkpt><trkpt lat="46.03871342259538" lon="11.984095640168253"><ele>241.2</ele><time>2026-04-12T08:03:10.832Z</time></trkpt><trkpt lat="46.03874471956726" lon="11.983960818074102"><ele>242.4</ele><time>2026-04-12T08:03:11.832Z</time></trkpt><trkpt lat="46.038772983166425" lon="11.983832948333623"><ele>243.60000000000002</ele><time>2026-04-12T08:03:12.832Z</time></trkpt><trkpt lat="46.03877880735423" lon="11.983730317374897"><ele>244.8</ele><time>2026-04-12T08:03:13.832Z</time></trkpt><trkpt lat="46.038784185601706" lon="11.983577926070906"><ele>246.0</ele><time>2026-04-12T08:03:15.832Z</time></trkpt><trkpt lat="46.03878690800095" lon="11.983460259003374"><ele>246.0</ele><time>2026-04-12T08:03:18.832Z</time></trkpt><trkpt lat="46.038820536395654" lon="11.98332961251325"><ele>246.0</ele><time>2026-04-12T08:03:20.832Z</time></trkpt><trkpt lat="46.0388934532144" lon="11.983192424860826"><ele>246.0</ele><time>2026-04-12T08:03:22.832Z</time></trkpt><trkpt lat="46.0389243682713" lon="11.983099569348548"><ele>246.0</ele><time>2026-04-12T08:03:23.832Z</time></trkpt><trkpt lat="46.03893449095025" lon="11.982985812116132"><ele>246.0</ele><time>2026-04-12T08:03:24.832Z</time></trkpt><trkpt lat="46.03891143341823" lon="11.98287476979675"><ele>246.0</ele><time>2026-04-12T08:03:25.832Z</time></trkpt><trkpt lat="46.03885535698853" lon="11.98274764146727"><ele>246.0</ele><time>2026-04-12T08:03:26.832Z</time></trkpt><trkpt lat="46.038759159613214" lon="11.982625974893905"><ele>246.0</ele><time>2026-04-12T08:03:27.832Z</time></trkpt><trkpt lat="46.038655882756494" lon="11.982523500400049"><ele>246.0</ele><time>2026-04-12T08:03:28.832Z</time></trkpt><trkpt lat="46.038575499903175" lon="11.982414611782978"><ele>246.0</ele><time>2026-04-12T08:03:29.832Z</time></trkpt><trkpt lat="46.03850667208434" lon="11.982285491347076"><ele>246.0</ele><time>2026-04-12T08:03:30.832Z</time></trkpt><trkpt lat="46.03844270693602" lon="11.982164586895042"><ele>246.00000000000003</ele><time>2026-04-12T08:03:31.832Z</time></trkpt><trkpt lat="46.03837565519536" lon="11.982052658376631"><ele>246.00000000000003</ele><time>2026-04-12T08:03:32.832Z</time></trkpt><trkpt lat="46.038321066756545" lon="11.981942158244374"><ele>246.0</ele><time>2026-04-12T08:03:33.832Z</time></trkpt><trkpt lat="46.03827008077356" lon="11.981837938915106"><ele>246.0</ele><time>2026-04-12T08:03:34.832Z</time></trkpt><trkpt lat="46.03821613797001" lon="11.981724105706837"><ele>246.16666666666666</ele><time>2026-04-12T08:03:35.832Z</time></trkpt><trkpt lat="46.03816037454406" lon="11.981598942715168"><ele>246.33333333333331</ele><time>2026-04-12T08:03:36.832Z</time></trkpt><trkpt lat="46.03810161100317" lon="11.981473876339637"><ele>246.5</ele><time>2026-04-12T08:03:37.832Z</time></trkpt><trkpt lat="46.03807212307057" lon="11.98138395156177"><ele>246.66666666666666</ele><time>2026-04-12T08:03:38.832Z</time></trkpt><trkpt lat="46.038047699230965" lon="11.981296204933129"><ele>246.83333333333331</ele><time>2026-04-12T08:03:40.832Z</time></trkpt><trkpt lat="46.038126388204894" lon="11.981304192585295"><ele>247.0</ele><time>2026-04-12T08:04:09.833Z</time></trkpt><trkpt lat="46.03817289694914" lon="11.981411489802648"><ele>247.0</ele><time>2026-04-12T08:04:11.833Z</time></trkpt><trkpt lat="46.03824199392857" lon="11.981530946567386"><ele>247.0</ele><time>2026-04-12T08:04:13.833Z</time></trkpt><trkpt lat="46.03830543218336" lon="11.98165057966791"><ele>247.0</ele><time>2026-04-12T08:04:15.833Z</time></trkpt><trkpt lat="46.03836216633235" lon="11.981767357027762"><ele>247.0</ele><time>2026-04-12T08:04:17.833Z</time></trkpt><trkpt lat="46.038405139110395" lon="11.981878291263746"><ele>247.0</ele><time>2026-04-12T08:04:19.833Z</time></trkpt><trkpt lat="46.038447566232854" lon="11.981948002008764"><ele>246.66666666666666</ele><time>2026-04-12T08:04:22.833Z</time></trkpt><trkpt lat="46.038513234690704" lon="11.982070990426719"><ele>246.33333333333331</ele><time>2026-04-12T08:04:49.833Z</time></trkpt><trkpt lat="46.03856656064465" lon="11.982183947706488"><ele>246.0</ele><time>2026-04-12T08:04:51.833Z</time></trkpt><trkpt lat="46.038526981783015" lon="11.98227878071929"><ele>245.66666666666669</ele><time>2026-04-12T08:04:54.833Z</time></trkpt><trkpt lat="46.03847793881542" lon="11.982350897460663"><ele>245.33333333333334</ele><time>2026-04-12T08:04:58.833Z</time></trkpt><trkpt lat="46.038430505846485" lon="11.982272322568988"><ele>245.0</ele><time>2026-04-12T08:04:59.833Z</time></trkpt><trkpt lat="46.03840597940417" lon="11.98236265195044"><ele>245.00000000000003</ele><time>2026-04-12T08:05:08.833Z</time></trkpt><trkpt lat="46.03843540483783" lon="11.982445705316914"><ele>245.0</ele><time>2026-04-12T08:05:09.833Z</time></trkpt><trkpt lat="46.03850181962573" lon="11.982545734800523"><ele>245.0</ele><time>2026-04-12T08:05:10.833Z</time></trkpt><trkpt lat="46.03854444694608" lon="11.98264003294861"><ele>245.0</ele><time>2026-04-12T08:05:11.833Z</time></trkpt><trkpt lat="46.038571111155875" lon="11.9827438257309"><ele>245.00000000000003</ele><time>2026-04-12T08:05:12.833Z</time></trkpt><trkpt lat="46.038579076320175" lon="11.982871143456634"><ele>245.0</ele><time>2026-04-12T08:05:13.833Z</time></trkpt><trkpt lat="46.038561119225534" lon="11.982995933116996"><ele>245.16666666666669</ele><time>2026-04-12T08:05:14.833Z</time></trkpt><trkpt lat="46.03857063437516" lon="11.983102180368313"><ele>245.33333333333334</ele><time>2026-04-12T08:05:15.833Z</time></trkpt><trkpt lat="46.03861471179407" lon="11.983203639629508"><ele>245.5</ele><time>2026-04-12T08:05:16.833Z</time></trkpt><trkpt lat="46.0386743629112" lon="11.983265957076362"><ele>245.66666666666669</ele><time>2026-04-12T08:05:17.833Z</time></trkpt><trkpt lat="46.03875426711545" lon="11.98329600984566"><ele>245.83333333333334</ele><time>2026-04-12T08:05:18.833Z</time></trkpt><trkpt lat="46.03884949608554" lon="11.98327525267355"><ele>246.0</ele><time>2026-04-12T08:05:19.833Z</time></trkpt><trkpt lat="46.03893061818704" lon="11.983212766580293"><ele>246.0</ele><time>2026-04-12T08:05:20.833Z</time></trkpt><trkpt lat="46.038988797166404" lon="11.983149358864132"><ele>246.0</ele><time>2026-04-12T08:05:21.833Z</time></trkpt><trkpt lat="46.039060015259324" lon="11.983104518492874"><ele>246.0</ele><time>2026-04-12T08:05:22.833Z</time></trkpt><trkpt lat="46.03913774465433" lon="11.983123360480482"><ele>246.0</ele><time>2026-04-12T08:05:23.833Z</time></trkpt><trkpt lat="46.039223892984644" lon="11.983174745354669"><ele>246.0</ele><time>2026-04-12T08:05:24.833Z</time></trkpt><trkpt lat="46.03928966830277" lon="11.983238786152574"><ele>246.0</ele><time>2026-04-12T08:05:25.833Z</time></trkpt><trkpt lat="46.03934817962663" lon="11.98328891903524"><ele>246.0</ele><time>2026-04-12T08:05:26.833Z</time></trkpt><trkpt lat="46.03941091320617" lon="11.983335374842452"><ele>246.0</ele><time>2026-04-12T08:05:27.833Z</time></trkpt><trkpt lat="46.039491867604205" lon="11.983415736428505"><ele>246.0</ele><time>2026-04-12T08:05:29.833Z</time></trkpt><trkpt lat="46.03956179548418" lon="11.983468561729339"><ele>246.0</ele><time>2026-04-12T08:05:31.833Z</time></trkpt><trkpt lat="46.03962728143606" lon="11.983521267374982"><ele>246.0</ele><time>2026-04-12T08:05:33.833Z</time></trkpt><trkpt lat="46.039693095300976" lon="11.98357218120036"><ele>246.0</ele><time>2026-04-12T08:05:36.833Z</time></trkpt><trkpt lat="46.039764015920376" lon="11.983606519201965"><ele>246.0</ele><time>2026-04-12T08:05:43.833Z</time></trkpt><trkpt lat="46.039828628513916" lon="11.983688648367782"><ele>246.00000000000003</ele><time>2026-04-12T08:05:45.833Z</time></trkpt><trkpt lat="46.03990202366949" lon="11.983740365740406"><ele>246.00000000000003</ele><time>2026-04-12T08:05:47.833Z</time></trkpt><trkpt lat="46.03997842567616" lon="11.98379124091677"><ele>246.0</ele><time>2026-04-12T08:05:49.833Z</time></trkpt><trkpt lat="46.04004192669786" lon="11.983842436017294"><ele>246.0</ele><time>2026-04-12T08:05:51.833Z</time></trkpt><trkpt lat="46.04013734994973" lon="11.983672032158418"><ele>246.0</ele><time>2026-04-12T08:05:54.833Z</time></trkpt><trkpt lat="46.040216701720155" lon="11.983580095608868"><ele>246.00000000000003</ele><time>2026-04-12T08:05:57.833Z</time></trkpt><trkpt lat="46.04024518236757" lon="11.983768551492087"><ele>246.00000000000003</ele><time>2026-04-12T08:05:58.833Z</time></trkpt><trkpt lat="46.04031809144691" lon="11.983751971677025"><ele>246.0</ele><time>2026-04-12T08:06:00.833Z</time></trkpt><trkpt lat="46.04037237156216" lon="11.983651371095512"><ele>246.0</ele><time>2026-04-12T08:08:09.835Z</time></trkpt><trkpt lat="46.04035067924544" lon="11.983565606653027"><ele>246.0</ele><time>2026-04-12T08:08:31.836Z</time></trkpt><trkpt lat="46.04031148305065" lon="11.983494371923417"><ele>246.0</ele><time>2026-04-12T08:08:39.836Z</time></trkpt><trkpt lat="46.04019366957577" lon="11.98353828261626"><ele>246.0</ele><time>2026-04-12T08:08:47.836Z</time></trkpt><trkpt lat="46.04033314781838" lon="11.983384519740953"><ele>246.0</ele><time>2026-04-12T08:08:49.836Z</time></trkpt><trkpt lat="46.040197817370746" lon="11.98354586460948"><ele>246.0</ele><time>2026-04-12T08:08:53.836Z</time></trkpt><trkpt lat="46.040379783289794" lon="11.983296806431472"><ele>246.0</ele><time>2026-04-12T08:08:58.836Z</time></trkpt><trkpt lat="46.04042192452733" lon="11.983214621002958"><ele>246.0</ele><time>2026-04-12T08:09:03.836Z</time></trkpt><trkpt lat="46.04043621108524" lon="11.983521636586621"><ele>246.0</ele><time>2026-04-12T08:09:06.852Z</time></trkpt><trkpt lat="46.04028794284483" lon="11.983323665622045"><ele>246.0</ele><time>2026-04-12T08:09:17.286Z</time></trkpt><trkpt lat="46.04019052723952" lon="11.983375000988962"><ele>246.0</ele><time>2026-04-12T08:09:30.183Z</time></trkpt><trkpt lat="46.04031124302813" lon="11.983350263365368"><ele>246.0</ele><time>2026-04-12T08:11:02.836Z</time></trkpt><trkpt lat="46.04023589204854" lon="11.983608986957815"><ele>246.0</ele><time>2026-04-12T08:12:11.87Z</time></trkpt><trkpt lat="46.04051872996388" lon="11.9834831597939"><ele>246.0</ele><time>2026-04-12T08:17:32.857Z</time></trkpt><trkpt lat="46.040378651940834" lon="11.983328713634643"><ele>246.00000000000003</ele><time>2026-04-12T08:17:34.837Z</time></trkpt><trkpt lat="46.040321338966876" lon="11.983377142043562"><ele>246.0</ele><time>2026-04-12T08:17:38.837Z</time></trkpt><trkpt lat="46.04027170529547" lon="11.983442361846635"><ele>246.00000000000003</ele><time>2026-04-12T08:17:44.841Z</time></trkpt><trkpt lat="46.04029609180118" lon="11.98358015252147"><ele>246.00000000000003</ele><time>2026-04-12T08:18:55.841Z</time></trkpt><trkpt lat="46.04031463735504" lon="11.983675794703768"><ele>246.0</ele><time>2026-04-12T08:19:03.841Z</time></trkpt><trkpt lat="46.040258527616686" lon="11.983616792885266"><ele>246.00000000000003</ele><time>2026-04-12T08:21:20.842Z</time></trkpt><trkpt lat="46.04019805740051" lon="11.983643427322086"><ele>246.00000000000003</ele><time>2026-04-12T08:21:27.842Z</time></trkpt><trkpt lat="46.04025730800053" lon="11.983691871142161"><ele>246.0</ele><time>2026-04-12T08:22:03.843Z</time></trkpt><trkpt lat="46.04031531207007" lon="11.98374069791259"><ele>246.0</ele><time>2026-04-12T08:22:24.843Z</time></trkpt><trkpt lat="46.040388707743865" lon="11.983822354285593"><ele>246.0</ele><time>2026-04-12T08:22:27.843Z</time></trkpt><trkpt lat="46.040448724309364" lon="11.983925606907455"><ele>246.0</ele><time>2026-04-12T08:22:30.843Z</time></trkpt><trkpt lat="46.04046278646318" lon="11.984014009605286"><ele>246.0</ele><time>2026-04-12T08:22:33.843Z</time></trkpt><trkpt lat="46.04047138253819" lon="11.984132559428243"><ele>246.0</ele><time>2026-04-12T08:22:40.843Z</time></trkpt><trkpt lat="46.040575842280475" lon="11.984288332428454"><ele>245.8</ele><time>2026-04-12T08:22:42.843Z</time></trkpt><trkpt lat="46.040651778737995" lon="11.984372035341808"><ele>245.60000000000002</ele><time>2026-04-12T08:22:43.843Z</time></trkpt><trkpt lat="46.040721752694445" lon="11.98445949974213"><ele>245.4</ele><time>2026-04-12T08:22:44.843Z</time></trkpt><trkpt lat="46.04081932257289" lon="11.984585482551031"><ele>245.2</ele><time>2026-04-12T08:22:45.843Z</time></trkpt><trkpt lat="46.040914587088416" lon="11.98470912756661"><ele>245.0</ele><time>2026-04-12T08:22:46.843Z</time></trkpt><trkpt lat="46.040997276362376" lon="11.98483987317127"><ele>245.0</ele><time>2026-04-12T08:22:47.843Z</time></trkpt><trkpt lat="46.04110985326232" lon="11.984996065285227"><ele>245.0</ele><time>2026-04-12T08:22:48.843Z</time></trkpt><trkpt lat="46.04121228471276" lon="11.985151317224712"><ele>245.0</ele><time>2026-04-12T08:22:49.843Z</time></trkpt><trkpt lat="46.04136295193897" lon="11.98531809588236"><ele>244.66666666666669</ele><time>2026-04-12T08:22:50.843Z</time></trkpt><trkpt lat="46.041488148186474" lon="11.985477704282063"><ele>244.33333333333331</ele><time>2026-04-12T08:22:51.843Z</time></trkpt><trkpt lat="46.04160570780228" lon="11.985633373145005"><ele>244.0</ele><time>2026-04-12T08:22:52.843Z</time></trkpt><trkpt lat="46.041741655677605" lon="11.985817576832577"><ele>242.0</ele><time>2026-04-12T08:22:53.843Z</time></trkpt><trkpt lat="46.04187725547105" lon="11.985999181260967"><ele>240.0</ele><time>2026-04-12T08:22:54.845Z</time></trkpt><trkpt lat="46.04202193916365" lon="11.986186502494274"><ele>238.0</ele><time>2026-04-12T08:22:55.843Z</time></trkpt><trkpt lat="46.042178247712776" lon="11.986391834499022"><ele>238.0</ele><time>2026-04-12T08:22:56.843Z</time></trkpt><trkpt lat="46.042322320988866" lon="11.986581535322655"><ele>238.0</ele><time>2026-04-12T08:22:57.843Z</time></trkpt><trkpt lat="46.0424702158867" lon="11.986782411897426"><ele>238.0</ele><time>2026-04-12T08:22:58.843Z</time></trkpt><trkpt lat="46.04263263096591" lon="11.987003232902797"><ele>239.0</ele><time>2026-04-12T08:22:59.843Z</time></trkpt><trkpt lat="46.042796687563836" lon="11.987226131071997"><ele>240.0</ele><time>2026-04-12T08:23:00.843Z</time></trkpt><trkpt lat="46.042972024830114" lon="11.987453362052914"><ele>239.5</ele><time>2026-04-12T08:23:01.843Z</time></trkpt><trkpt lat="46.04316019088175" lon="11.9876838164332"><ele>239.0</ele><time>2026-04-12T08:23:02.843Z</time></trkpt><trkpt lat="46.04335615192267" lon="11.987930168812795"><ele>240.0</ele><time>2026-04-12T08:23:03.843Z</time></trkpt><trkpt lat="46.04354192059678" lon="11.988160453074155"><ele>241.0</ele><time>2026-04-12T08:23:04.843Z</time></trkpt><trkpt lat="46.0437220289863" lon="11.988392683313291"><ele>241.0</ele><time>2026-04-12T08:23:05.843Z</time></trkpt><trkpt lat="46.04388713093699" lon="11.988627151758587"><ele>241.0</ele><time>2026-04-12T08:23:06.843Z</time></trkpt><trkpt lat="46.044039372663164" lon="11.988851823156343"><ele>241.33333333333331</ele><time>2026-04-12T08:23:07.843Z</time></trkpt><trkpt lat="46.044178001164326" lon="11.989066618236373"><ele>241.66666666666669</ele><time>2026-04-12T08:23:08.843Z</time></trkpt><trkpt lat="46.04430053413958" lon="11.98927756629634"><ele>242.0</ele><time>2026-04-12T08:23:09.843Z</time></trkpt><trkpt lat="46.044422779964925" lon="11.989496707820521"><ele>242.0</ele><time>2026-04-12T08:23:10.843Z</time></trkpt><trkpt lat="46.044531972762584" lon="11.989728780126592"><ele>242.0</ele><time>2026-04-12T08:23:11.843Z</time></trkpt><trkpt lat="46.04463848880238" lon="11.989970703443111"><ele>242.0</ele><time>2026-04-12T08:23:12.843Z</time></trkpt><trkpt lat="46.04474208770164" lon="11.990219325148571"><ele>241.66666666666669</ele><time>2026-04-12T08:23:13.843Z</time></trkpt><trkpt lat="46.044843000462095" lon="11.990475087869903"><ele>241.33333333333331</ele><time>2026-04-12T08:23:14.843Z</time></trkpt><trkpt lat="46.04494869868136" lon="11.990719115744382"><ele>241.0</ele><time>2026-04-12T08:23:15.843Z</time></trkpt><trkpt lat="46.04505935249219" lon="11.990952378993402"><ele>241.0</ele><time>2026-04-12T08:23:16.843Z</time></trkpt><trkpt lat="46.04517990589144" lon="11.991186139598673"><ele>241.0</ele><time>2026-04-12T08:23:17.843Z</time></trkpt><trkpt lat="46.0453113725973" lon="11.991425591019015"><ele>241.0</ele><time>2026-04-12T08:23:18.843Z</time></trkpt><trkpt lat="46.04543520111321" lon="11.991639160197812"><ele>241.66666666666666</ele><time>2026-04-12T08:23:19.843Z</time></trkpt><trkpt lat="46.045590844386595" lon="11.991855739579607"><ele>242.33333333333331</ele><time>2026-04-12T08:23:20.843Z</time></trkpt><trkpt lat="46.045759072135375" lon="11.992049345136511"><ele>243.0</ele><time>2026-04-12T08:23:21.843Z</time></trkpt><trkpt lat="46.04594149848334" lon="11.992222235223371"><ele>243.0</ele><time>2026-04-12T08:23:22.843Z</time></trkpt><trkpt lat="46.046131975863126" lon="11.992369297339627"><ele>243.0</ele><time>2026-04-12T08:23:23.843Z</time></trkpt><trkpt lat="46.046332517250725" lon="11.99250192428434"><ele>243.0</ele><time>2026-04-12T08:23:24.843Z</time></trkpt><trkpt lat="46.04654649250554" lon="11.992609777694136"><ele>241.0</ele><time>2026-04-12T08:23:25.843Z</time></trkpt><trkpt lat="46.04676873141085" lon="11.992690624078902"><ele>239.0</ele><time>2026-04-12T08:23:26.843Z</time></trkpt><trkpt lat="46.04700549401068" lon="11.99275072333026"><ele>239.0</ele><time>2026-04-12T08:23:27.843Z</time></trkpt><trkpt lat="46.04726165086423" lon="11.992792798751612"><ele>239.0</ele><time>2026-04-12T08:23:28.843Z</time></trkpt><trkpt lat="46.04752499579825" lon="11.992829150648936"><ele>239.5</ele><time>2026-04-12T08:23:29.843Z</time></trkpt><trkpt lat="46.04776532072215" lon="11.992848409563434"><ele>240.0</ele><time>2026-04-12T08:23:30.843Z</time></trkpt><trkpt lat="46.04799517441074" lon="11.992874609313228"><ele>240.0</ele><time>2026-04-12T08:23:31.843Z</time></trkpt><trkpt lat="46.0482280031191" lon="11.992911992306272"><ele>240.0</ele><time>2026-04-12T08:23:32.843Z</time></trkpt><trkpt lat="46.04846244700059" lon="11.992960500827435"><ele>241.0</ele><time>2026-04-12T08:23:33.843Z</time></trkpt><trkpt lat="46.04869376750686" lon="11.993027584077577"><ele>242.0</ele><time>2026-04-12T08:23:34.843Z</time></trkpt><trkpt lat="46.04893024757082" lon="11.993103726840252"><ele>244.0</ele><time>2026-04-12T08:23:35.843Z</time></trkpt><trkpt lat="46.0491627152986" lon="11.993196459949758"><ele>246.0</ele><time>2026-04-12T08:23:36.843Z</time></trkpt><trkpt lat="46.049385263114" lon="11.993300618723218"><ele>244.0</ele><time>2026-04-12T08:23:37.843Z</time></trkpt><trkpt lat="46.04959863736315" lon="11.993414066846885"><ele>242.0</ele><time>2026-04-12T08:23:38.843Z</time></trkpt><trkpt lat="46.04980621344493" lon="11.993545564720673"><ele>242.0</ele><time>2026-04-12T08:23:39.843Z</time></trkpt><trkpt lat="46.050015190814705" lon="11.993684667401107"><ele>242.0</ele><time>2026-04-12T08:23:40.843Z</time></trkpt><trkpt lat="46.050204117679044" lon="11.99386128748701"><ele>242.0</ele><time>2026-04-12T08:23:41.843Z</time></trkpt><trkpt lat="46.05039990957584" lon="11.994032381174774"><ele>242.0</ele><time>2026-04-12T08:23:42.843Z</time></trkpt><trkpt lat="46.05059400815638" lon="11.994212065586732"><ele>242.0</ele><time>2026-04-12T08:23:43.843Z</time></trkpt><trkpt lat="46.05078967430119" lon="11.994396551391176"><ele>242.0</ele><time>2026-04-12T08:23:44.843Z</time></trkpt><trkpt lat="46.050988519806474" lon="11.994586154541722"><ele>242.0</ele><time>2026-04-12T08:23:45.843Z</time></trkpt><trkpt lat="46.0511933931533" lon="11.994777258506048"><ele>242.0</ele><time>2026-04-12T08:23:46.843Z</time></trkpt><trkpt lat="46.051399091724136" lon="11.994972045379352"><ele>242.0</ele><time>2026-04-12T08:23:47.843Z</time></trkpt><trkpt lat="46.05160660717015" lon="11.995164373194621"><ele>242.0</ele><time>2026-04-12T08:23:48.843Z</time></trkpt><trkpt lat="46.051802072079056" lon="11.995344456560705"><ele>242.0</ele><time>2026-04-12T08:23:49.843Z</time></trkpt><trkpt lat="46.05198076132303" lon="11.995510600220644"><ele>242.0</ele><time>2026-04-12T08:23:50.843Z</time></trkpt><trkpt lat="46.05215135830432" lon="11.995669207973547"><ele>242.0</ele><time>2026-04-12T08:23:51.843Z</time></trkpt><trkpt lat="46.05231019005432" lon="11.99581851955006"><ele>242.33333333333334</ele><time>2026-04-12T08:23:52.843Z</time></trkpt><trkpt lat="46.05247192980785" lon="11.995967088458617"><ele>242.66666666666669</ele><time>2026-04-12T08:23:53.843Z</time></trkpt><trkpt lat="46.05264163308321" lon="11.996130074865684"><ele>243.0</ele><time>2026-04-12T08:23:54.843Z</time></trkpt><trkpt lat="46.05281313627075" lon="11.996298846580505"><ele>243.0</ele><time>2026-04-12T08:23:55.843Z</time></trkpt><trkpt lat="46.05299111714535" lon="11.996477484608894"><ele>243.0</ele><time>2026-04-12T08:23:56.843Z</time></trkpt><trkpt lat="46.05317246488418" lon="11.996648317731983"><ele>243.0</ele><time>2026-04-12T08:23:57.843Z</time></trkpt><trkpt lat="46.05334911894654" lon="11.996811315548646"><ele>243.5</ele><time>2026-04-12T08:23:58.843Z</time></trkpt><trkpt lat="46.05353554263409" lon="11.996989449608964"><ele>244.0</ele><time>2026-04-12T08:23:59.843Z</time></trkpt><trkpt lat="46.05373438370193" lon="11.997171853172677"><ele>244.0</ele><time>2026-04-12T08:24:00.844Z</time></trkpt><trkpt lat="46.053939586746765" lon="11.997364353725764"><ele>244.0</ele><time>2026-04-12T08:24:01.844Z</time></trkpt><trkpt lat="46.05415057810367" lon="11.997566594343335"><ele>245.5</ele><time>2026-04-12T08:24:02.844Z</time></trkpt><trkpt lat="46.054368347564" lon="11.997775650461039"><ele>247.0</ele><time>2026-04-12T08:24:03.844Z</time></trkpt><trkpt lat="46.05458881643275" lon="11.99798328719158"><ele>247.0</ele><time>2026-04-12T08:24:04.844Z</time></trkpt><trkpt lat="46.054820293812064" lon="11.998187818520906"><ele>247.0</ele><time>2026-04-12T08:24:05.844Z</time></trkpt><trkpt lat="46.05505719854635" lon="11.99839290056633"><ele>246.0</ele><time>2026-04-12T08:24:06.844Z</time></trkpt><trkpt lat="46.055292841058254" lon="11.998594711896748"><ele>245.0</ele><time>2026-04-12T08:24:07.844Z</time></trkpt><trkpt lat="46.05552806730641" lon="11.99881265918684"><ele>245.0</ele><time>2026-04-12T08:24:08.844Z</time></trkpt><trkpt lat="46.05574159424339" lon="11.9990189454642"><ele>245.0</ele><time>2026-04-12T08:24:09.844Z</time></trkpt><trkpt lat="46.055943784750845" lon="11.999219577711958"><ele>246.0</ele><time>2026-04-12T08:24:10.844Z</time></trkpt><trkpt lat="46.056153386998766" lon="11.999411949801273"><ele>247.0</ele><time>2026-04-12T08:24:11.844Z</time></trkpt><trkpt lat="46.05637400475982" lon="11.999644053364067"><ele>247.0</ele><time>2026-04-12T08:24:12.844Z</time></trkpt><trkpt lat="46.056582943488955" lon="11.99991494498167"><ele>247.0</ele><time>2026-04-12T08:24:13.844Z</time></trkpt><trkpt lat="46.056776980640336" lon="12.00020442932568"><ele>250.0</ele><time>2026-04-12T08:24:14.844Z</time></trkpt><trkpt lat="46.056943769986304" lon="12.000485668184222"><ele>253.0</ele><time>2026-04-12T08:24:15.844Z</time></trkpt><trkpt lat="46.05708062163421" lon="12.00076422940324"><ele>251.33333333333331</ele><time>2026-04-12T08:24:16.844Z</time></trkpt><trkpt lat="46.05720391434314" lon="12.001027362567664"><ele>249.66666666666669</ele><time>2026-04-12T08:24:17.844Z</time></trkpt><trkpt lat="46.057325263628194" lon="12.00128287108998"><ele>248.0</ele><time>2026-04-12T08:24:18.844Z</time></trkpt><trkpt lat="46.05743523157903" lon="12.001521326139187"><ele>248.66666666666669</ele><time>2026-04-12T08:24:19.844Z</time></trkpt><trkpt lat="46.05754725606676" lon="12.00175139562948"><ele>249.33333333333331</ele><time>2026-04-12T08:24:20.844Z</time></trkpt><trkpt lat="46.05766343748288" lon="12.00197444729747"><ele>250.0</ele><time>2026-04-12T08:24:21.844Z</time></trkpt><trkpt lat="46.05778672184473" lon="12.002184747483964"><ele>250.0</ele><time>2026-04-12T08:24:22.844Z</time></trkpt><trkpt lat="46.057925469689124" lon="12.002375716373525"><ele>250.0</ele><time>2026-04-12T08:24:23.844Z</time></trkpt><trkpt lat="46.05807377170795" lon="12.00255400995861"><ele>250.0</ele><time>2026-04-12T08:24:24.844Z</time></trkpt><trkpt lat="46.05821880646388" lon="12.002719069802444"><ele>252.66666666666666</ele><time>2026-04-12T08:24:25.844Z</time></trkpt><trkpt lat="46.05835775194198" lon="12.002884839039247"><ele>255.33333333333331</ele><time>2026-04-12T08:24:26.844Z</time></trkpt><trkpt lat="46.058498106675245" lon="12.003049388899198"><ele>258.0</ele><time>2026-04-12T08:24:27.844Z</time></trkpt><trkpt lat="46.05863287318312" lon="12.003209480271154"><ele>256.25</ele><time>2026-04-12T08:24:28.844Z</time></trkpt><trkpt lat="46.05876332543545" lon="12.003362835533652"><ele>254.5</ele><time>2026-04-12T08:24:29.844Z</time></trkpt><trkpt lat="46.05886138697807" lon="12.003484792438282"><ele>252.75</ele><time>2026-04-12T08:24:30.844Z</time></trkpt><trkpt lat="46.058955273809694" lon="12.003593776874652"><ele>251.0</ele><time>2026-04-12T08:24:31.844Z</time></trkpt><trkpt lat="46.05904197808634" lon="12.003694981378898"><ele>252.0</ele><time>2026-04-12T08:24:32.844Z</time></trkpt><trkpt lat="46.05912543501926" lon="12.003795033433402"><ele>253.0</ele><time>2026-04-12T08:24:33.844Z</time></trkpt><trkpt lat="46.059217563201194" lon="12.003901361140743"><ele>254.0</ele><time>2026-04-12T08:24:34.844Z</time></trkpt><trkpt lat="46.05931233790535" lon="12.004028247778695"><ele>255.0</ele><time>2026-04-12T08:24:35.844Z</time></trkpt><trkpt lat="46.059401016650185" lon="12.004172467431953"><ele>255.0</ele><time>2026-04-12T08:24:36.844Z</time></trkpt><trkpt lat="46.05950375369598" lon="12.004312398112178"><ele>255.0</ele><time>2026-04-12T08:24:37.844Z</time></trkpt><trkpt lat="46.059638405288936" lon="12.004447085826214"><ele>255.0</ele><time>2026-04-12T08:24:38.844Z</time></trkpt><trkpt lat="46.05976521148253" lon="12.004598565148756"><ele>255.0</ele><time>2026-04-12T08:24:39.844Z</time></trkpt><trkpt lat="46.059884360238875" lon="12.004739722641192"><ele>255.0</ele><time>2026-04-12T08:24:40.844Z</time></trkpt><trkpt lat="46.05999346183661" lon="12.004873300541913"><ele>255.0</ele><time>2026-04-12T08:24:41.844Z</time></trkpt><trkpt lat="46.060106114935046" lon="12.005011317066735"><ele>255.0</ele><time>2026-04-12T08:24:42.844Z</time></trkpt><trkpt lat="46.0602241068094" lon="12.00515291854679"><ele>255.66666666666669</ele><time>2026-04-12T08:24:43.844Z</time></trkpt><trkpt lat="46.06034534251758" lon="12.005301639403802"><ele>256.33333333333337</ele><time>2026-04-12T08:24:44.844Z</time></trkpt><trkpt lat="46.060466278754625" lon="12.005450822479654"><ele>257.0</ele><time>2026-04-12T08:24:45.844Z</time></trkpt><trkpt lat="46.06059915313112" lon="12.00561235749803"><ele>257.0</ele><time>2026-04-12T08:24:46.844Z</time></trkpt><trkpt lat="46.06074973717678" lon="12.005787067679693"><ele>257.0</ele><time>2026-04-12T08:24:47.844Z</time></trkpt><trkpt lat="46.06082449541769" lon="12.00594326620973"><ele>257.0</ele><time>2026-04-12T08:24:48.844Z</time></trkpt><trkpt lat="46.06092192559307" lon="12.00613757854738"><ele>256.6666666666667</ele><time>2026-04-12T08:24:49.844Z</time></trkpt><trkpt lat="46.06101693025829" lon="12.006354643866128"><ele>256.3333333333333</ele><time>2026-04-12T08:24:50.844Z</time></trkpt><trkpt lat="46.06110836497464" lon="12.006587449466396"><ele>256.0</ele><time>2026-04-12T08:24:51.844Z</time></trkpt><trkpt lat="46.061196760088734" lon="12.006810914863209"><ele>256.0</ele><time>2026-04-12T08:24:52.844Z</time></trkpt><trkpt lat="46.06128603409978" lon="12.00702122974258"><ele>256.0</ele><time>2026-04-12T08:24:53.844Z</time></trkpt><trkpt lat="46.061373357454066" lon="12.007238663931082"><ele>256.0</ele><time>2026-04-12T08:24:54.844Z</time></trkpt><trkpt lat="46.06146958294783" lon="12.007464427063603"><ele>256.3333333333333</ele><time>2026-04-12T08:24:55.844Z</time></trkpt><trkpt lat="46.06156128719681" lon="12.007686786691517"><ele>256.6666666666667</ele><time>2026-04-12T08:24:56.844Z</time></trkpt><trkpt lat="46.061655097359456" lon="12.007914313766324"><ele>257.0</ele><time>2026-04-12T08:24:57.844Z</time></trkpt><trkpt lat="46.061745177999335" lon="12.008156750493692"><ele>257.0</ele><time>2026-04-12T08:24:58.844Z</time></trkpt><trkpt lat="46.06185124417933" lon="12.008407272054901"><ele>257.0</ele><time>2026-04-12T08:24:59.844Z</time></trkpt><trkpt lat="46.061960629935065" lon="12.008656005901026"><ele>257.0</ele><time>2026-04-12T08:25:00.844Z</time></trkpt><trkpt lat="46.06207355412729" lon="12.008873371183945"><ele>257.0</ele><time>2026-04-12T08:25:01.844Z</time></trkpt><trkpt lat="46.062199663336386" lon="12.009078324338278"><ele>257.0</ele><time>2026-04-12T08:25:02.844Z</time></trkpt><trkpt lat="46.0623455848167" lon="12.009255147468835"><ele>257.0</ele><time>2026-04-12T08:25:03.844Z</time></trkpt><trkpt lat="46.06252608983468" lon="12.009413475545763"><ele>258.5</ele><time>2026-04-12T08:25:04.844Z</time></trkpt><trkpt lat="46.062740727037465" lon="12.009545951512873"><ele>260.0</ele><time>2026-04-12T08:25:05.844Z</time></trkpt><trkpt lat="46.06297233473002" lon="12.009684907194767"><ele>260.0</ele><time>2026-04-12T08:25:06.844Z</time></trkpt><trkpt lat="46.06319694253054" lon="12.009829721825003"><ele>260.0</ele><time>2026-04-12T08:25:07.844Z</time></trkpt><trkpt lat="46.063418958594966" lon="12.00997080477986"><ele>259.0</ele><time>2026-04-12T08:25:08.844Z</time></trkpt><trkpt lat="46.0636479541362" lon="12.010128273161243"><ele>258.0</ele><time>2026-04-12T08:25:09.844Z</time></trkpt><trkpt lat="46.0638908249326" lon="12.01027987998125"><ele>259.0</ele><time>2026-04-12T08:25:10.844Z</time></trkpt><trkpt lat="46.064146193421884" lon="12.010434618385874"><ele>260.0</ele><time>2026-04-12T08:25:11.844Z</time></trkpt><trkpt lat="46.064410391084586" lon="12.010601881757939"><ele>260.0</ele><time>2026-04-12T08:25:12.844Z</time></trkpt><trkpt lat="46.064685250022315" lon="12.010791827048617"><ele>260.0</ele><time>2026-04-12T08:25:13.844Z</time></trkpt><trkpt lat="46.06496476694447" lon="12.010976513590174"><ele>258.5</ele><time>2026-04-12T08:25:14.844Z</time></trkpt><trkpt lat="46.0652297189354" lon="12.011134003073506"><ele>257.0</ele><time>2026-04-12T08:25:15.844Z</time></trkpt><trkpt lat="46.065466512079006" lon="12.011307889188373"><ele>257.0</ele><time>2026-04-12T08:25:16.844Z</time></trkpt><trkpt lat="46.06568896328255" lon="12.0114757407694"><ele>257.0</ele><time>2026-04-12T08:25:17.844Z</time></trkpt><trkpt lat="46.06589610102438" lon="12.011641052794463"><ele>256.5</ele><time>2026-04-12T08:25:18.844Z</time></trkpt><trkpt lat="46.06608394937562" lon="12.011825976285449"><ele>256.0</ele><time>2026-04-12T08:25:19.844Z</time></trkpt><trkpt lat="46.06626330612818" lon="12.012034012534468"><ele>256.0</ele><time>2026-04-12T08:25:20.844Z</time></trkpt><trkpt lat="46.06643533501164" lon="12.012245254818602"><ele>256.0</ele><time>2026-04-12T08:25:21.844Z</time></trkpt><trkpt lat="46.06658580848763" lon="12.012449693855219"><ele>256.0</ele><time>2026-04-12T08:25:22.844Z</time></trkpt><trkpt lat="46.066730800544974" lon="12.012646424741314"><ele>257.0</ele><time>2026-04-12T08:25:23.844Z</time></trkpt><trkpt lat="46.06687498013698" lon="12.012834851130608"><ele>258.0</ele><time>2026-04-12T08:25:24.844Z</time></trkpt><trkpt lat="46.067023934431234" lon="12.013024756195245"><ele>259.0</ele><time>2026-04-12T08:25:25.844Z</time></trkpt><trkpt lat="46.06717147938142" lon="12.013217745602347"><ele>259.0</ele><time>2026-04-12T08:25:26.844Z</time></trkpt><trkpt lat="46.06732046749609" lon="12.013408645640393"><ele>259.0</ele><time>2026-04-12T08:25:27.844Z</time></trkpt><trkpt lat="46.06746913467071" lon="12.013596804618842"><ele>259.0</ele><time>2026-04-12T08:25:28.844Z</time></trkpt><trkpt lat="46.067618123982754" lon="12.013781214146857"><ele>259.0</ele><time>2026-04-12T08:25:29.844Z</time></trkpt><trkpt lat="46.067766354918" lon="12.013968308480464"><ele>259.0</ele><time>2026-04-12T08:25:30.844Z</time></trkpt><trkpt lat="46.067915824044974" lon="12.014158235534932"><ele>259.0</ele><time>2026-04-12T08:25:31.844Z</time></trkpt><trkpt lat="46.06806855253035" lon="12.01434947362232"><ele>259.0</ele><time>2026-04-12T08:25:32.844Z</time></trkpt><trkpt lat="46.06822573585036" lon="12.014545909049122"><ele>259.0</ele><time>2026-04-12T08:25:33.844Z</time></trkpt><trkpt lat="46.068382696461725" lon="12.014742462858564"><ele>259.0</ele><time>2026-04-12T08:25:34.844Z</time></trkpt><trkpt lat="46.06853689538432" lon="12.014945069526206"><ele>259.0</ele><time>2026-04-12T08:25:35.844Z</time></trkpt><trkpt lat="46.06869300721239" lon="12.015154401459862"><ele>259.0</ele><time>2026-04-12T08:25:36.844Z</time></trkpt><trkpt lat="46.06884735646819" lon="12.015381566296755"><ele>259.0</ele><time>2026-04-12T08:25:37.844Z</time></trkpt><trkpt lat="46.06901867243187" lon="12.015603209599256"><ele>258.5</ele><time>2026-04-12T08:25:38.844Z</time></trkpt><trkpt lat="46.06921064618968" lon="12.015829788160982"><ele>258.0</ele><time>2026-04-12T08:25:39.844Z</time></trkpt><trkpt lat="46.069414404731766" lon="12.016055659695843"><ele>258.0</ele><time>2026-04-12T08:25:40.844Z</time></trkpt><trkpt lat="46.069639254344864" lon="12.016268693095387"><ele>258.0</ele><time>2026-04-12T08:25:41.844Z</time></trkpt><trkpt lat="46.06987808066883" lon="12.01647690500129"><ele>258.5</ele><time>2026-04-12T08:25:42.844Z</time></trkpt><trkpt lat="46.070099245712434" lon="12.016690491864457"><ele>259.0</ele><time>2026-04-12T08:25:43.844Z</time></trkpt><trkpt lat="46.0703001566776" lon="12.016897291531173"><ele>259.0</ele><time>2026-04-12T08:25:44.844Z</time></trkpt><trkpt lat="46.07049604787829" lon="12.017104346838131"><ele>259.0</ele><time>2026-04-12T08:25:45.844Z</time></trkpt><trkpt lat="46.0706942958466" lon="12.017308432286166"><ele>261.5</ele><time>2026-04-12T08:25:46.844Z</time></trkpt><trkpt lat="46.070894047852256" lon="12.0175038098429"><ele>264.0</ele><time>2026-04-12T08:25:47.844Z</time></trkpt><trkpt lat="46.07109336789271" lon="12.017699794417474"><ele>264.0</ele><time>2026-04-12T08:25:48.844Z</time></trkpt><trkpt lat="46.07129014492277" lon="12.017893764006661"><ele>264.0</ele><time>2026-04-12T08:25:49.844Z</time></trkpt><trkpt lat="46.07147669171368" lon="12.018084194741423"><ele>264.0</ele><time>2026-04-12T08:25:50.844Z</time></trkpt><trkpt lat="46.07166417410934" lon="12.018271310539152"><ele>264.0</ele><time>2026-04-12T08:25:51.844Z</time></trkpt><trkpt lat="46.07184531871595" lon="12.018453910085185"><ele>264.0</ele><time>2026-04-12T08:25:52.844Z</time></trkpt><trkpt lat="46.07201808674371" lon="12.018631627723769"><ele>264.0</ele><time>2026-04-12T08:25:53.844Z</time></trkpt><trkpt lat="46.07218495766706" lon="12.018813012630885"><ele>264.0</ele><time>2026-04-12T08:25:54.844Z</time></trkpt><trkpt lat="46.0723459213387" lon="12.018993112754432"><ele>264.0</ele><time>2026-04-12T08:25:55.844Z</time></trkpt><trkpt lat="46.07250711188906" lon="12.019179083613539"><ele>265.3333333333333</ele><time>2026-04-12T08:25:56.844Z</time></trkpt><trkpt lat="46.07265422478854" lon="12.019360118875516"><ele>266.66666666666663</ele><time>2026-04-12T08:25:57.844Z</time></trkpt><trkpt lat="46.07278973489951" lon="12.01954629270349"><ele>268.0</ele><time>2026-04-12T08:25:58.844Z</time></trkpt><trkpt lat="46.07292496831987" lon="12.019738167237573"><ele>268.0</ele><time>2026-04-12T08:25:59.844Z</time></trkpt><trkpt lat="46.073053200573455" lon="12.019936610946761"><ele>268.0</ele><time>2026-04-12T08:26:00.844Z</time></trkpt><trkpt lat="46.0731774291517" lon="12.020136344013332"><ele>268.0</ele><time>2026-04-12T08:26:01.844Z</time></trkpt><trkpt lat="46.073297999254365" lon="12.020323110432457"><ele>269.0</ele><time>2026-04-12T08:26:02.844Z</time></trkpt><trkpt lat="46.073411162842355" lon="12.02050425752793"><ele>270.0</ele><time>2026-04-12T08:26:03.844Z</time></trkpt><trkpt lat="46.07352370354412" lon="12.020681535965974"><ele>271.0</ele><time>2026-04-12T08:26:04.844Z</time></trkpt><trkpt lat="46.07363221836784" lon="12.020852925465855"><ele>271.0</ele><time>2026-04-12T08:26:05.844Z</time></trkpt><trkpt lat="46.0737414295645" lon="12.021024966163797"><ele>271.0</ele><time>2026-04-12T08:26:06.845Z</time></trkpt><trkpt lat="46.073850445364585" lon="12.021202287579797"><ele>271.0</ele><time>2026-04-12T08:26:07.845Z</time></trkpt><trkpt lat="46.07396181904551" lon="12.021383114964454"><ele>271.0</ele><time>2026-04-12T08:26:08.845Z</time></trkpt><trkpt lat="46.07408403924741" lon="12.021557058137121"><ele>271.0</ele><time>2026-04-12T08:26:09.845Z</time></trkpt><trkpt lat="46.07420306102238" lon="12.021741216737537"><ele>271.0</ele><time>2026-04-12T08:26:10.845Z</time></trkpt><trkpt lat="46.07432585816182" lon="12.021937352546104"><ele>271.3333333333333</ele><time>2026-04-12T08:26:11.845Z</time></trkpt><trkpt lat="46.07446072587732" lon="12.022142710611607"><ele>271.6666666666667</ele><time>2026-04-12T08:26:12.845Z</time></trkpt><trkpt lat="46.074595966430394" lon="12.022358888098692"><ele>272.0</ele><time>2026-04-12T08:26:13.845Z</time></trkpt><trkpt lat="46.07473475011896" lon="12.02257577991426"><ele>272.0</ele><time>2026-04-12T08:26:14.845Z</time></trkpt><trkpt lat="46.07488693499096" lon="12.022818423093133"><ele>272.0</ele><time>2026-04-12T08:26:15.845Z</time></trkpt><trkpt lat="46.075051444508546" lon="12.02308970578486"><ele>274.0</ele><time>2026-04-12T08:26:16.845Z</time></trkpt><trkpt lat="46.075196470102064" lon="12.023375820504889"><ele>276.0</ele><time>2026-04-12T08:26:17.845Z</time></trkpt><trkpt lat="46.07533294570622" lon="12.02366312553723"><ele>276.0</ele><time>2026-04-12T08:26:18.845Z</time></trkpt><trkpt lat="46.075466340460125" lon="12.023952438133852"><ele>276.0</ele><time>2026-04-12T08:26:19.845Z</time></trkpt><trkpt lat="46.075587362338766" lon="12.024223552429998"><ele>277.0</ele><time>2026-04-12T08:26:20.845Z</time></trkpt><trkpt lat="46.07573067363545" lon="12.024513834005631"><ele>278.0</ele><time>2026-04-12T08:26:21.845Z</time></trkpt><trkpt lat="46.075534835909366" lon="12.02455177706774"><ele>279.0</ele><time>2026-04-12T08:26:22.845Z</time></trkpt><trkpt lat="46.07560747624915" lon="12.024769379400777"><ele>279.3333333333333</ele><time>2026-04-12T08:26:23.845Z</time></trkpt><trkpt lat="46.075683092442276" lon="12.024984899067235"><ele>279.66666666666663</ele><time>2026-04-12T08:26:24.845Z</time></trkpt><trkpt lat="46.07575686614827" lon="12.025192133931565"><ele>280.0</ele><time>2026-04-12T08:26:25.845Z</time></trkpt><trkpt lat="46.07583211993976" lon="12.02539785377996"><ele>281.0</ele><time>2026-04-12T08:26:26.845Z</time></trkpt><trkpt lat="46.07590777022403" lon="12.025600674596257"><ele>282.0</ele><time>2026-04-12T08:26:27.845Z</time></trkpt><trkpt lat="46.07597527388577" lon="12.025795408361052"><ele>283.0</ele><time>2026-04-12T08:26:28.845Z</time></trkpt><trkpt lat="46.076027943465384" lon="12.025968448143544"><ele>284.0</ele><time>2026-04-12T08:26:29.845Z</time></trkpt><trkpt lat="46.076083234241594" lon="12.026132713529664"><ele>284.0</ele><time>2026-04-12T08:26:30.845Z</time></trkpt><trkpt lat="46.07613095636503" lon="12.026275320992202"><ele>284.0</ele><time>2026-04-12T08:26:31.845Z</time></trkpt><trkpt lat="46.07618357853621" lon="12.026407471285193"><ele>284.0</ele><time>2026-04-12T08:26:32.845Z</time></trkpt><trkpt lat="46.07623022269941" lon="12.026519313380634"><ele>284.0</ele><time>2026-04-12T08:26:33.845Z</time></trkpt><trkpt lat="46.07629658830653" lon="12.02661740743087"><ele>284.0</ele><time>2026-04-12T08:26:34.845Z</time></trkpt><trkpt lat="46.076369914753" lon="12.026721011358605"><ele>283.8</ele><time>2026-04-12T08:26:35.845Z</time></trkpt><trkpt lat="46.07644531696418" lon="12.026809277084718"><ele>283.59999999999997</ele><time>2026-04-12T08:26:36.845Z</time></trkpt><trkpt lat="46.076513058360156" lon="12.026918192434778"><ele>283.4</ele><time>2026-04-12T08:26:37.845Z</time></trkpt><trkpt lat="46.07657566657684" lon="12.02703011124526"><ele>283.2</ele><time>2026-04-12T08:26:38.845Z</time></trkpt><trkpt lat="46.07663183417123" lon="12.027144856149729"><ele>283.0</ele><time>2026-04-12T08:26:39.845Z</time></trkpt><trkpt lat="46.076682176646436" lon="12.027284388920592"><ele>284.25</ele><time>2026-04-12T08:26:40.845Z</time></trkpt><trkpt lat="46.07673462906962" lon="12.027434570628477"><ele>285.5</ele><time>2026-04-12T08:26:41.845Z</time></trkpt><trkpt lat="46.076777878630146" lon="12.027577737760852"><ele>286.75</ele><time>2026-04-12T08:26:42.845Z</time></trkpt><trkpt lat="46.07682381778062" lon="12.027731930021227"><ele>288.0</ele><time>2026-04-12T08:26:43.845Z</time></trkpt><trkpt lat="46.076881264081734" lon="12.027891558420812"><ele>288.0</ele><time>2026-04-12T08:26:44.845Z</time></trkpt><trkpt lat="46.076943741471396" lon="12.028050505978584"><ele>288.0</ele><time>2026-04-12T08:26:45.845Z</time></trkpt><trkpt lat="46.07698783325253" lon="12.028291373596712"><ele>288.0</ele><time>2026-04-12T08:26:46.845Z</time></trkpt><trkpt lat="46.07703583330928" lon="12.02849036916485"><ele>288.0</ele><time>2026-04-12T08:26:47.845Z</time></trkpt><trkpt lat="46.07705893590925" lon="12.028664385416185"><ele>288.0</ele><time>2026-04-12T08:26:48.845Z</time></trkpt><trkpt lat="46.07709125660259" lon="12.028861991744176"><ele>288.0</ele><time>2026-04-12T08:26:49.845Z</time></trkpt><trkpt lat="46.0771310953504" lon="12.029062470453267"><ele>288.0</ele><time>2026-04-12T08:26:50.845Z</time></trkpt><trkpt lat="46.07715311142359" lon="12.029283981354292"><ele>288.0</ele><time>2026-04-12T08:26:51.845Z</time></trkpt><trkpt lat="46.077170845077454" lon="12.029528305942979"><ele>288.3333333333333</ele><time>2026-04-12T08:26:52.845Z</time></trkpt><trkpt lat="46.077198227197314" lon="12.029801359724495"><ele>288.66666666666663</ele><time>2026-04-12T08:26:53.845Z</time></trkpt><trkpt lat="46.07722762110878" lon="12.03007961952265"><ele>289.0</ele><time>2026-04-12T08:26:54.845Z</time></trkpt><trkpt lat="46.077242670497405" lon="12.030333417183805"><ele>289.0</ele><time>2026-04-12T08:26:55.845Z</time></trkpt><trkpt lat="46.077253989319274" lon="12.030555355501988"><ele>289.0</ele><time>2026-04-12T08:26:56.845Z</time></trkpt><trkpt lat="46.07727010454772" lon="12.030773401811699"><ele>289.0</ele><time>2026-04-12T08:26:57.845Z</time></trkpt><trkpt lat="46.07729156718599" lon="12.030991531735646"><ele>288.75</ele><time>2026-04-12T08:26:58.845Z</time></trkpt><trkpt lat="46.07731902747822" lon="12.031205554702435"><ele>288.5</ele><time>2026-04-12T08:26:59.845Z</time></trkpt><trkpt lat="46.07735936866017" lon="12.03140198185692"><ele>288.25</ele><time>2026-04-12T08:27:00.845Z</time></trkpt><trkpt lat="46.07740811806474" lon="12.031582880579512"><ele>288.0</ele><time>2026-04-12T08:27:01.845Z</time></trkpt><trkpt lat="46.07746592353368" lon="12.031749888318815"><ele>289.5</ele><time>2026-04-12T08:27:02.845Z</time></trkpt><trkpt lat="46.07753542678312" lon="12.031905233423576"><ele>291.0</ele><time>2026-04-12T08:27:03.845Z</time></trkpt><trkpt lat="46.07762231317066" lon="12.032060670333612"><ele>292.5</ele><time>2026-04-12T08:27:04.845Z</time></trkpt><trkpt lat="46.0777222249187" lon="12.032211157656747"><ele>294.0</ele><time>2026-04-12T08:27:05.845Z</time></trkpt><trkpt lat="46.07783405794632" lon="12.032345200285157"><ele>294.0</ele><time>2026-04-12T08:27:06.845Z</time></trkpt><trkpt lat="46.077963848206885" lon="12.032472808295891"><ele>294.0</ele><time>2026-04-12T08:27:07.845Z</time></trkpt><trkpt lat="46.078100865245574" lon="12.032580789070467"><ele>294.0</ele><time>2026-04-12T08:27:08.845Z</time></trkpt><trkpt lat="46.0782340230536" lon="12.032671778927295"><ele>295.0</ele><time>2026-04-12T08:27:09.845Z</time></trkpt><trkpt lat="46.07836067751257" lon="12.032739189633151"><ele>296.0</ele><time>2026-04-12T08:27:10.845Z</time></trkpt><trkpt lat="46.07847911483147" lon="12.032819829943316"><ele>297.0</ele><time>2026-04-12T08:27:11.845Z</time></trkpt><trkpt lat="46.078597160771" lon="12.032901762378827"><ele>298.0</ele><time>2026-04-12T08:27:12.845Z</time></trkpt><trkpt lat="46.078714940096894" lon="12.032984786701519"><ele>298.0</ele><time>2026-04-12T08:27:13.845Z</time></trkpt><trkpt lat="46.078842523913906" lon="12.033070222192515"><ele>298.0</ele><time>2026-04-12T08:27:14.845Z</time></trkpt><trkpt lat="46.07897736825882" lon="12.033155623056796"><ele>298.0</ele><time>2026-04-12T08:27:15.845Z</time></trkpt><trkpt lat="46.07911607834116" lon="12.03323982267388"><ele>298.0</ele><time>2026-04-12T08:27:16.845Z</time></trkpt><trkpt lat="46.0792500516385" lon="12.033325527621507"><ele>298.5</ele><time>2026-04-12T08:27:17.845Z</time></trkpt><trkpt lat="46.07938189282349" lon="12.033410172733985"><ele>299.0</ele><time>2026-04-12T08:27:18.845Z</time></trkpt><trkpt lat="46.079516008488554" lon="12.033497234565086"><ele>299.5</ele><time>2026-04-12T08:27:19.845Z</time></trkpt><trkpt lat="46.07963920811656" lon="12.033592263087572"><ele>300.0</ele><time>2026-04-12T08:27:20.845Z</time></trkpt><trkpt lat="46.07975664741807" lon="12.033700462116855"><ele>300.0</ele><time>2026-04-12T08:27:21.845Z</time></trkpt><trkpt lat="46.079869648446454" lon="12.033819917343017"><ele>300.0</ele><time>2026-04-12T08:27:22.845Z</time></trkpt><trkpt lat="46.079979714253916" lon="12.033956987296175"><ele>300.0</ele><time>2026-04-12T08:27:23.845Z</time></trkpt><trkpt lat="46.0800765233863" lon="12.034106474860812"><ele>300.0</ele><time>2026-04-12T08:27:24.845Z</time></trkpt><trkpt lat="46.0801619260714" lon="12.034257529871885"><ele>300.75</ele><time>2026-04-12T08:27:25.845Z</time></trkpt><trkpt lat="46.08023762101184" lon="12.034407450491905"><ele>301.5</ele><time>2026-04-12T08:27:26.845Z</time></trkpt><trkpt lat="46.08029606443344" lon="12.034550962812999"><ele>302.25</ele><time>2026-04-12T08:27:27.845Z</time></trkpt><trkpt lat="46.08034460643628" lon="12.034693107191767"><ele>303.0</ele><time>2026-04-12T08:27:28.845Z</time></trkpt><trkpt lat="46.0803909609779" lon="12.03481753238223"><ele>303.0</ele><time>2026-04-12T08:27:29.845Z</time></trkpt><trkpt lat="46.08043680401777" lon="12.034938297442693"><ele>303.0</ele><time>2026-04-12T08:27:30.845Z</time></trkpt><trkpt lat="46.08048023398261" lon="12.035058058755913"><ele>303.0</ele><time>2026-04-12T08:27:31.845Z</time></trkpt><trkpt lat="46.08052766800869" lon="12.035191042343953"><ele>303.0</ele><time>2026-04-12T08:27:32.845Z</time></trkpt><trkpt lat="46.080576180033866" lon="12.035332738092029"><ele>303.0</ele><time>2026-04-12T08:27:33.845Z</time></trkpt><trkpt lat="46.08062949980982" lon="12.035481222878998"><ele>303.25</ele><time>2026-04-12T08:27:34.845Z</time></trkpt><trkpt lat="46.08068852655308" lon="12.035643691620198"><ele>303.5</ele><time>2026-04-12T08:27:35.845Z</time></trkpt><trkpt lat="46.08075237330284" lon="12.035811303246371"><ele>303.75</ele><time>2026-04-12T08:27:36.845Z</time></trkpt><trkpt lat="46.08080644622454" lon="12.035964781099477"><ele>304.0</ele><time>2026-04-12T08:27:37.845Z</time></trkpt><trkpt lat="46.0808656818474" lon="12.036121862201544"><ele>304.4</ele><time>2026-04-12T08:27:38.845Z</time></trkpt><trkpt lat="46.08091911967064" lon="12.036270528874942"><ele>304.79999999999995</ele><time>2026-04-12T08:27:39.845Z</time></trkpt><trkpt lat="46.08096777840208" lon="12.036398553351066"><ele>305.20000000000005</ele><time>2026-04-12T08:27:40.845Z</time></trkpt><trkpt lat="46.08101117548262" lon="12.036508514841902"><ele>305.6</ele><time>2026-04-12T08:27:41.845Z</time></trkpt><trkpt lat="46.081048094571095" lon="12.03661027600849"><ele>306.0</ele><time>2026-04-12T08:27:42.845Z</time></trkpt><trkpt lat="46.08107754645324" lon="12.036695854361376"><ele>306.0</ele><time>2026-04-12T08:27:43.845Z</time></trkpt><trkpt lat="46.08113379488769" lon="12.036851466937804"><ele>306.0</ele><time>2026-04-12T08:27:45.845Z</time></trkpt><trkpt lat="46.081186048047414" lon="12.036997569139208"><ele>306.0</ele><time>2026-04-12T08:27:47.845Z</time></trkpt><trkpt lat="46.0812394189979" lon="12.037132936270412"><ele>306.0</ele><time>2026-04-12T08:27:49.845Z</time></trkpt><trkpt lat="46.08129898303207" lon="12.037267697612487"><ele>306.0</ele><time>2026-04-12T08:27:51.845Z</time></trkpt><trkpt lat="46.08135226749187" lon="12.03740876533661"><ele>306.0</ele><time>2026-04-12T08:27:53.845Z</time></trkpt><trkpt lat="46.081381907285405" lon="12.037506546906355"><ele>306.0</ele><time>2026-04-12T08:27:55.845Z</time></trkpt><trkpt lat="46.08141213581698" lon="12.037601603852783"><ele>306.0</ele><time>2026-04-12T08:27:58.845Z</time></trkpt><trkpt lat="46.08147049202365" lon="12.037743878496725"><ele>306.0</ele><time>2026-04-12T08:28:11.845Z</time></trkpt><trkpt lat="46.081508289245335" lon="12.03785848875939"><ele>305.8</ele><time>2026-04-12T08:28:12.846Z</time></trkpt><trkpt lat="46.08155259607461" lon="12.037970176503308"><ele>305.6</ele><time>2026-04-12T08:28:13.846Z</time></trkpt><trkpt lat="46.08158779728946" lon="12.038072662026847"><ele>305.4</ele><time>2026-04-12T08:28:14.846Z</time></trkpt><trkpt lat="46.081636504636435" lon="12.038198152630152"><ele>305.2</ele><time>2026-04-12T08:28:15.846Z</time></trkpt><trkpt lat="46.08168445967046" lon="12.038345103908188"><ele>305.0</ele><time>2026-04-12T08:28:16.846Z</time></trkpt><trkpt lat="46.08174882877806" lon="12.038527395010385"><ele>305.5</ele><time>2026-04-12T08:28:17.846Z</time></trkpt><trkpt lat="46.081815209136295" lon="12.038696154829765"><ele>306.0</ele><time>2026-04-12T08:28:18.846Z</time></trkpt><trkpt lat="46.08187362946201" lon="12.038854255857489"><ele>306.5</ele><time>2026-04-12T08:28:19.846Z</time></trkpt><trkpt lat="46.08193473892256" lon="12.039026801928337"><ele>307.0</ele><time>2026-04-12T08:28:20.846Z</time></trkpt><trkpt lat="46.08200205247907" lon="12.039213749358485"><ele>307.0</ele><time>2026-04-12T08:28:21.846Z</time></trkpt><trkpt lat="46.08207451004673" lon="12.039415271242666"><ele>307.0</ele><time>2026-04-12T08:28:22.846Z</time></trkpt><trkpt lat="46.08214466993221" lon="12.039601544516684"><ele>307.0</ele><time>2026-04-12T08:28:23.846Z</time></trkpt><trkpt lat="46.08221216365536" lon="12.03977879285444"><ele>307.0</ele><time>2026-04-12T08:28:24.846Z</time></trkpt><trkpt lat="46.082278267830745" lon="12.039964743055764"><ele>307.0</ele><time>2026-04-12T08:28:25.846Z</time></trkpt><trkpt lat="46.08234991612015" lon="12.040169072895166"><ele>307.0</ele><time>2026-04-12T08:28:26.846Z</time></trkpt><trkpt lat="46.082421684688036" lon="12.040374889612776"><ele>307.0</ele><time>2026-04-12T08:28:27.846Z</time></trkpt><trkpt lat="46.08249652639988" lon="12.04057624547483"><ele>307.25</ele><time>2026-04-12T08:28:28.846Z</time></trkpt><trkpt lat="46.08256291903364" lon="12.040763350320457"><ele>307.5</ele><time>2026-04-12T08:28:29.846Z</time></trkpt><trkpt lat="46.08262925672033" lon="12.040944050557009"><ele>307.75</ele><time>2026-04-12T08:28:30.846Z</time></trkpt><trkpt lat="46.082690307228575" lon="12.041114354007117"><ele>308.0</ele><time>2026-04-12T08:28:31.846Z</time></trkpt><trkpt lat="46.082751468497136" lon="12.041280838225052"><ele>308.0</ele><time>2026-04-12T08:28:32.846Z</time></trkpt><trkpt lat="46.08280631145948" lon="12.041444039066983"><ele>308.0</ele><time>2026-04-12T08:28:33.846Z</time></trkpt><trkpt lat="46.08286686869284" lon="12.041604609881164"><ele>308.0</ele><time>2026-04-12T08:28:34.846Z</time></trkpt><trkpt lat="46.08293007235994" lon="12.041778143594724"><ele>308.0</ele><time>2026-04-12T08:28:35.846Z</time></trkpt><trkpt lat="46.082995975255905" lon="12.041958167897999"><ele>307.0</ele><time>2026-04-12T08:28:36.846Z</time></trkpt><trkpt lat="46.08307781599906" lon="12.042143195971452"><ele>306.0</ele><time>2026-04-12T08:28:37.846Z</time></trkpt><trkpt lat="46.083176359454484" lon="12.042340924354706"><ele>305.0</ele><time>2026-04-12T08:28:38.846Z</time></trkpt><trkpt lat="46.08328298570017" lon="12.042539572852405"><ele>305.0</ele><time>2026-04-12T08:28:39.846Z</time></trkpt><trkpt lat="46.083386058684994" lon="12.042708285330123"><ele>305.0</ele><time>2026-04-12T08:28:40.846Z</time></trkpt><trkpt lat="46.083490698662146" lon="12.042855157999508"><ele>305.0</ele><time>2026-04-12T08:28:41.846Z</time></trkpt><trkpt lat="46.08359696294878" lon="12.04298549213848"><ele>305.0</ele><time>2026-04-12T08:28:42.846Z</time></trkpt><trkpt lat="46.08369277500144" lon="12.043126634484482"><ele>305.0</ele><time>2026-04-12T08:28:43.846Z</time></trkpt><trkpt lat="46.083788717464536" lon="12.043266718101505"><ele>305.0</ele><time>2026-04-12T08:28:44.846Z</time></trkpt><trkpt lat="46.08388445208478" lon="12.043390137462936"><ele>305.0</ele><time>2026-04-12T08:28:45.846Z</time></trkpt><trkpt lat="46.08398126687353" lon="12.043492968949938"><ele>305.0</ele><time>2026-04-12T08:28:46.846Z</time></trkpt><trkpt lat="46.084062488916416" lon="12.043598841814315"><ele>305.33333333333337</ele><time>2026-04-12T08:28:47.846Z</time></trkpt><trkpt lat="46.08413359962073" lon="12.043691590152735"><ele>305.6666666666667</ele><time>2026-04-12T08:28:48.846Z</time></trkpt><trkpt lat="46.084193122594904" lon="12.043768378849316"><ele>306.0</ele><time>2026-04-12T08:28:49.846Z</time></trkpt><trkpt lat="46.08425120271928" lon="12.043814229364799"><ele>306.3333333333333</ele><time>2026-04-12T08:28:50.846Z</time></trkpt><trkpt lat="46.08429968419025" lon="12.043874042665536"><ele>306.66666666666663</ele><time>2026-04-12T08:28:51.846Z</time></trkpt><trkpt lat="46.08434974186083" lon="12.043957564313034"><ele>307.0</ele><time>2026-04-12T08:28:52.846Z</time></trkpt><trkpt lat="46.084397517456964" lon="12.04407308090101"><ele>306.5</ele><time>2026-04-12T08:28:53.846Z</time></trkpt><trkpt lat="46.08448342798961" lon="12.0441480359776"><ele>306.0</ele><time>2026-04-12T08:28:54.846Z</time></trkpt><trkpt lat="46.08455253670586" lon="12.044278976049386"><ele>305.5</ele><time>2026-04-12T08:28:55.846Z</time></trkpt><trkpt lat="46.08463766831961" lon="12.04438455627021"><ele>305.0</ele><time>2026-04-12T08:28:56.846Z</time></trkpt><trkpt lat="46.08473098023573" lon="12.044500070996325"><ele>305.0</ele><time>2026-04-12T08:28:57.846Z</time></trkpt><trkpt lat="46.08485675753531" lon="12.04461736264211"><ele>305.0</ele><time>2026-04-12T08:28:58.846Z</time></trkpt><trkpt lat="46.08498225889839" lon="12.044727407036058"><ele>305.0</ele><time>2026-04-12T08:28:59.846Z</time></trkpt><trkpt lat="46.085114312001096" lon="12.044826453820919"><ele>305.0</ele><time>2026-04-12T08:29:00.846Z</time></trkpt><trkpt lat="46.08523563521072" lon="12.04494868916156"><ele>305.25</ele><time>2026-04-12T08:29:01.846Z</time></trkpt><trkpt lat="46.08535766940872" lon="12.04501298351224"><ele>305.5</ele><time>2026-04-12T08:29:02.846Z</time></trkpt><trkpt lat="46.085505505537675" lon="12.045102109717908"><ele>305.75</ele><time>2026-04-12T08:29:03.846Z</time></trkpt><trkpt lat="46.08564320421039" lon="12.045181391143052"><ele>306.0</ele><time>2026-04-12T08:29:04.846Z</time></trkpt><trkpt lat="46.0858253978397" lon="12.04528113873153"><ele>306.0</ele><time>2026-04-12T08:29:05.846Z</time></trkpt><trkpt lat="46.08597569459856" lon="12.045360842935942"><ele>306.0</ele><time>2026-04-12T08:29:06.846Z</time></trkpt><trkpt lat="46.08612443257878" lon="12.045446551971159"><ele>306.0</ele><time>2026-04-12T08:29:07.846Z</time></trkpt><trkpt lat="46.086272017371186" lon="12.04553740577183"><ele>306.0</ele><time>2026-04-12T08:29:08.846Z</time></trkpt><trkpt lat="46.08642778128489" lon="12.045615781527049"><ele>306.0</ele><time>2026-04-12T08:29:09.846Z</time></trkpt><trkpt lat="46.08657634451234" lon="12.04572136470111"><ele>306.0</ele><time>2026-04-12T08:29:10.846Z</time></trkpt><trkpt lat="46.086712906556386" lon="12.045847555813753"><ele>305.6666666666667</ele><time>2026-04-12T08:29:11.846Z</time></trkpt><trkpt lat="46.08682745286081" lon="12.04601469506978"><ele>305.33333333333337</ele><time>2026-04-12T08:29:12.846Z</time></trkpt><trkpt lat="46.086921345527486" lon="12.046214002247131"><ele>305.0</ele><time>2026-04-12T08:29:13.846Z</time></trkpt><trkpt lat="46.08698850789813" lon="12.046438759255238"><ele>304.33333333333337</ele><time>2026-04-12T08:29:14.846Z</time></trkpt><trkpt lat="46.08702291192991" lon="12.046698742282743"><ele>303.6666666666667</ele><time>2026-04-12T08:29:15.846Z</time></trkpt><trkpt lat="46.08710069724299" lon="12.046961673354007"><ele>303.0</ele><time>2026-04-12T08:29:16.846Z</time></trkpt><trkpt lat="46.08718012349271" lon="12.047226453278245"><ele>303.0</ele><time>2026-04-12T08:29:17.846Z</time></trkpt><trkpt lat="46.08727781707169" lon="12.04750595690157"><ele>303.0</ele><time>2026-04-12T08:29:18.846Z</time></trkpt><trkpt lat="46.08735705435707" lon="12.04777852001285"><ele>303.0</ele><time>2026-04-12T08:29:19.846Z</time></trkpt><trkpt lat="46.08743012424837" lon="12.048035144772081"><ele>303.0</ele><time>2026-04-12T08:29:20.846Z</time></trkpt><trkpt lat="46.087505770652655" lon="12.048305280154363"><ele>303.0</ele><time>2026-04-12T08:29:21.846Z</time></trkpt><trkpt lat="46.0875808699721" lon="12.048573690997705"><ele>303.0</ele><time>2026-04-12T08:29:22.846Z</time></trkpt><trkpt lat="46.08766136033388" lon="12.04885134996437"><ele>303.0</ele><time>2026-04-12T08:29:23.846Z</time></trkpt><trkpt lat="46.08773382689108" lon="12.049123522958773"><ele>303.0</ele><time>2026-04-12T08:29:24.846Z</time></trkpt><trkpt lat="46.0878161485623" lon="12.049407019083224"><ele>303.0</ele><time>2026-04-12T08:29:25.846Z</time></trkpt><trkpt lat="46.087902960192814" lon="12.049687001598713"><ele>302.3333333333333</ele><time>2026-04-12T08:29:26.846Z</time></trkpt><trkpt lat="46.08798683785807" lon="12.049957151260118"><ele>301.66666666666663</ele><time>2026-04-12T08:29:27.846Z</time></trkpt><trkpt lat="46.088080115262464" lon="12.05024523206845"><ele>301.0</ele><time>2026-04-12T08:29:28.846Z</time></trkpt><trkpt lat="46.08817672356368" lon="12.050505869599757"><ele>301.0</ele><time>2026-04-12T08:29:29.846Z</time></trkpt><trkpt lat="46.088262388943335" lon="12.050782061364675"><ele>301.0</ele><time>2026-04-12T08:29:30.846Z</time></trkpt><trkpt lat="46.088359903737114" lon="12.05105447580941"><ele>301.0</ele><time>2026-04-12T08:29:31.846Z</time></trkpt><trkpt lat="46.088459120447084" lon="12.051333260316424"><ele>299.66666666666663</ele><time>2026-04-12T08:29:32.846Z</time></trkpt><trkpt lat="46.08855695592454" lon="12.051613927446116"><ele>298.3333333333333</ele><time>2026-04-12T08:29:33.846Z</time></trkpt><trkpt lat="46.088656657087235" lon="12.051888635076645"><ele>297.0</ele><time>2026-04-12T08:29:34.846Z</time></trkpt><trkpt lat="46.08876254289638" lon="12.052153496041846"><ele>295.6666666666667</ele><time>2026-04-12T08:29:35.846Z</time></trkpt><trkpt lat="46.08887477768246" lon="12.052410432318068"><ele>294.33333333333337</ele><time>2026-04-12T08:29:36.846Z</time></trkpt><trkpt lat="46.088971506708546" lon="12.052665185727756"><ele>293.0</ele><time>2026-04-12T08:29:37.846Z</time></trkpt><trkpt lat="46.08906808279934" lon="12.052919985123793"><ele>293.33333333333337</ele><time>2026-04-12T08:29:38.846Z</time></trkpt><trkpt lat="46.08917281412811" lon="12.053166065760763"><ele>293.6666666666667</ele><time>2026-04-12T08:29:39.846Z</time></trkpt><trkpt lat="46.08927277361267" lon="12.053413841307622"><ele>294.0</ele><time>2026-04-12T08:29:40.846Z</time></trkpt><trkpt lat="46.089370330031606" lon="12.053641379229818"><ele>294.0</ele><time>2026-04-12T08:29:41.846Z</time></trkpt><trkpt lat="46.089465732837354" lon="12.053861233090784"><ele>294.0</ele><time>2026-04-12T08:29:42.846Z</time></trkpt><trkpt lat="46.08955988550682" lon="12.054076626145287"><ele>294.0</ele><time>2026-04-12T08:29:43.846Z</time></trkpt><trkpt lat="46.089650692526824" lon="12.054293210453997"><ele>293.6666666666667</ele><time>2026-04-12T08:29:44.846Z</time></trkpt><trkpt lat="46.08974273939077" lon="12.054501872071096"><ele>293.33333333333337</ele><time>2026-04-12T08:29:45.846Z</time></trkpt><trkpt lat="46.08983058640232" lon="12.054712932268131"><ele>293.0</ele><time>2026-04-12T08:29:46.846Z</time></trkpt><trkpt lat="46.0899126672713" lon="12.054905374164461"><ele>293.6666666666667</ele><time>2026-04-12T08:29:47.846Z</time></trkpt><trkpt lat="46.09000147938305" lon="12.055102524489948"><ele>294.3333333333333</ele><time>2026-04-12T08:29:48.846Z</time></trkpt><trkpt lat="46.090084338730726" lon="12.055304565947571"><ele>295.0</ele><time>2026-04-12T08:29:49.846Z</time></trkpt><trkpt lat="46.090165032764816" lon="12.055501563542625"><ele>295.0</ele><time>2026-04-12T08:29:50.846Z</time></trkpt><trkpt lat="46.09024380330354" lon="12.05568784853388"><ele>295.0</ele><time>2026-04-12T08:29:51.846Z</time></trkpt><trkpt lat="46.09032259301837" lon="12.055863119723398"><ele>295.0</ele><time>2026-04-12T08:29:52.846Z</time></trkpt><trkpt lat="46.09039394044189" lon="12.056028740214614"><ele>295.0</ele><time>2026-04-12T08:29:53.846Z</time></trkpt><trkpt lat="46.09045729833021" lon="12.05619122016695"><ele>295.25</ele><time>2026-04-12T08:29:54.846Z</time></trkpt><trkpt lat="46.09052553514081" lon="12.056347462823489"><ele>295.5</ele><time>2026-04-12T08:29:55.846Z</time></trkpt><trkpt lat="46.09059282484524" lon="12.056515708435706"><ele>295.75</ele><time>2026-04-12T08:29:56.846Z</time></trkpt><trkpt lat="46.090664301872984" lon="12.056693775333457"><ele>296.0</ele><time>2026-04-12T08:29:57.846Z</time></trkpt><trkpt lat="46.09074591494643" lon="12.056880908644565"><ele>295.0</ele><time>2026-04-12T08:29:58.846Z</time></trkpt><trkpt lat="46.09081419159346" lon="12.057080214523692"><ele>294.0</ele><time>2026-04-12T08:29:59.846Z</time></trkpt><trkpt lat="46.09087842388472" lon="12.057277414737976"><ele>293.0</ele><time>2026-04-12T08:30:00.846Z</time></trkpt><trkpt lat="46.09095064584751" lon="12.057487197237787"><ele>292.6666666666667</ele><time>2026-04-12T08:30:01.846Z</time></trkpt><trkpt lat="46.09101695482044" lon="12.05770694257912"><ele>292.3333333333333</ele><time>2026-04-12T08:30:02.846Z</time></trkpt><trkpt lat="46.09108372481307" lon="12.057932078144104"><ele>292.0</ele><time>2026-04-12T08:30:03.846Z</time></trkpt><trkpt lat="46.09114980156663" lon="12.058163651979033"><ele>292.0</ele><time>2026-04-12T08:30:04.846Z</time></trkpt><trkpt lat="46.09121084141251" lon="12.058385443947762"><ele>292.0</ele><time>2026-04-12T08:30:05.846Z</time></trkpt><trkpt lat="46.091267506874864" lon="12.058598273559973"><ele>292.0</ele><time>2026-04-12T08:30:06.846Z</time></trkpt><trkpt lat="46.09131787399377" lon="12.058821806657422"><ele>292.0</ele><time>2026-04-12T08:30:07.846Z</time></trkpt><trkpt lat="46.09136652811832" lon="12.059055227625453"><ele>292.0</ele><time>2026-04-12T08:30:08.846Z</time></trkpt><trkpt lat="46.091416657297096" lon="12.059298865296132"><ele>292.0</ele><time>2026-04-12T08:30:09.846Z</time></trkpt><trkpt lat="46.09146613116497" lon="12.059550835137493"><ele>292.0</ele><time>2026-04-12T08:30:10.846Z</time></trkpt><trkpt lat="46.09151508230469" lon="12.059802905452006"><ele>292.0</ele><time>2026-04-12T08:30:11.846Z</time></trkpt><trkpt lat="46.091570113252835" lon="12.060062620511443"><ele>292.0</ele><time>2026-04-12T08:30:12.846Z</time></trkpt><trkpt lat="46.091627292607285" lon="12.060327728468266"><ele>293.0</ele><time>2026-04-12T08:30:13.846Z</time></trkpt><trkpt lat="46.091683505984086" lon="12.060602224625887"><ele>294.0</ele><time>2026-04-12T08:30:14.846Z</time></trkpt><trkpt lat="46.09173748666123" lon="12.06087783551819"><ele>295.0</ele><time>2026-04-12T08:30:15.846Z</time></trkpt><trkpt lat="46.09179582345666" lon="12.061155144945921"><ele>295.0</ele><time>2026-04-12T08:30:16.846Z</time></trkpt><trkpt lat="46.091855209874204" lon="12.061439350525951"><ele>295.0</ele><time>2026-04-12T08:30:17.846Z</time></trkpt><trkpt lat="46.09191274082577" lon="12.061728298816222"><ele>295.0</ele><time>2026-04-12T08:30:18.847Z</time></trkpt><trkpt lat="46.091970711309884" lon="12.062023763657248"><ele>295.0</ele><time>2026-04-12T08:30:19.847Z</time></trkpt><trkpt lat="46.092031127677004" lon="12.062342803583348"><ele>295.0</ele><time>2026-04-12T08:30:20.847Z</time></trkpt><trkpt lat="46.092105618165526" lon="12.062679327990027"><ele>294.0</ele><time>2026-04-12T08:30:21.847Z</time></trkpt><trkpt lat="46.092178869287864" lon="12.062997249876975"><ele>293.0</ele><time>2026-04-12T08:30:22.847Z</time></trkpt><trkpt lat="46.09224157070722" lon="12.063297939805977"><ele>292.6666666666667</ele><time>2026-04-12T08:30:23.847Z</time></trkpt><trkpt lat="46.09230103612617" lon="12.063580583051111"><ele>292.3333333333333</ele><time>2026-04-12T08:30:24.847Z</time></trkpt><trkpt lat="46.092355492662165" lon="12.063870100191636"><ele>292.0</ele><time>2026-04-12T08:30:25.847Z</time></trkpt><trkpt lat="46.09241601228039" lon="12.064157418129033"><ele>291.3333333333333</ele><time>2026-04-12T08:30:26.847Z</time></trkpt><trkpt lat="46.09247603971153" lon="12.064445534992386"><ele>290.6666666666667</ele><time>2026-04-12T08:30:27.847Z</time></trkpt><trkpt lat="46.092534022588254" lon="12.06474068255806"><ele>290.0</ele><time>2026-04-12T08:30:28.847Z</time></trkpt><trkpt lat="46.09259678777448" lon="12.065048533790899"><ele>290.0</ele><time>2026-04-12T08:30:29.847Z</time></trkpt><trkpt lat="46.0926625190423" lon="12.065372882754017"><ele>290.0</ele><time>2026-04-12T08:30:30.847Z</time></trkpt><trkpt lat="46.092725524132305" lon="12.065683809210155"><ele>291.0</ele><time>2026-04-12T08:30:31.847Z</time></trkpt><trkpt lat="46.09278773490047" lon="12.065982096391133"><ele>292.0</ele><time>2026-04-12T08:30:32.847Z</time></trkpt><trkpt lat="46.09285688441263" lon="12.066257429283413"><ele>293.0</ele><time>2026-04-12T08:30:33.847Z</time></trkpt><trkpt lat="46.09294173026465" lon="12.06652403244039"><ele>293.6666666666667</ele><time>2026-04-12T08:30:34.847Z</time></trkpt><trkpt lat="46.093047297058476" lon="12.066787148256353"><ele>294.3333333333333</ele><time>2026-04-12T08:30:35.847Z</time></trkpt><trkpt lat="46.09318257614454" lon="12.067045751518041"><ele>295.0</ele><time>2026-04-12T08:30:36.847Z</time></trkpt><trkpt lat="46.093339183329284" lon="12.067292769425263"><ele>295.5</ele><time>2026-04-12T08:30:37.847Z</time></trkpt><trkpt lat="46.093501133651934" lon="12.067520565247325"><ele>296.0</ele><time>2026-04-12T08:30:38.847Z</time></trkpt><trkpt lat="46.093674763044966" lon="12.067743905893273"><ele>296.0</ele><time>2026-04-12T08:30:39.847Z</time></trkpt><trkpt lat="46.09385563071271" lon="12.067961728526654"><ele>296.0</ele><time>2026-04-12T08:30:40.847Z</time></trkpt><trkpt lat="46.094026075877935" lon="12.06816896049251"><ele>296.6666666666667</ele><time>2026-04-12T08:30:41.847Z</time></trkpt><trkpt lat="46.09417901196274" lon="12.068375900482202"><ele>297.3333333333333</ele><time>2026-04-12T08:30:42.847Z</time></trkpt><trkpt lat="46.094336477038745" lon="12.06858528143487"><ele>298.0</ele><time>2026-04-12T08:30:43.847Z</time></trkpt><trkpt lat="46.09448811612707" lon="12.06877692070033"><ele>298.0</ele><time>2026-04-12T08:30:44.847Z</time></trkpt><trkpt lat="46.09463059669611" lon="12.068963137510215"><ele>298.0</ele><time>2026-04-12T08:30:45.847Z</time></trkpt><trkpt lat="46.09476852248567" lon="12.069142261520428"><ele>298.0</ele><time>2026-04-12T08:30:46.847Z</time></trkpt><trkpt lat="46.0948995748012" lon="12.069314345386912"><ele>297.66666666666663</ele><time>2026-04-12T08:30:47.847Z</time></trkpt><trkpt lat="46.095028994108574" lon="12.069482553078949"><ele>297.3333333333333</ele><time>2026-04-12T08:30:48.847Z</time></trkpt><trkpt lat="46.095150623256586" lon="12.069639485617975"><ele>297.0</ele><time>2026-04-12T08:30:49.847Z</time></trkpt><trkpt lat="46.095270743930534" lon="12.069791237027472"><ele>297.0</ele><time>2026-04-12T08:30:50.847Z</time></trkpt><trkpt lat="46.095382235151774" lon="12.069937752937198"><ele>297.0</ele><time>2026-04-12T08:30:51.847Z</time></trkpt><trkpt lat="46.09549151268713" lon="12.070073197385843"><ele>297.0</ele><time>2026-04-12T08:30:52.847Z</time></trkpt><trkpt lat="46.095615703128146" lon="12.070189826815488"><ele>297.0</ele><time>2026-04-12T08:30:53.847Z</time></trkpt><trkpt lat="46.09575705685604" lon="12.070299993072117"><ele>297.5</ele><time>2026-04-12T08:30:54.847Z</time></trkpt><trkpt lat="46.095899377041505" lon="12.070423467028432"><ele>298.0</ele><time>2026-04-12T08:30:55.847Z</time></trkpt><trkpt lat="46.096036322826826" lon="12.070501506872581"><ele>298.5</ele><time>2026-04-12T08:30:56.847Z</time></trkpt><trkpt lat="46.09612090394638" lon="12.07060455913856"><ele>299.0</ele><time>2026-04-12T08:30:57.847Z</time></trkpt><trkpt lat="46.09619557087694" lon="12.070725626735204"><ele>298.5</ele><time>2026-04-12T08:30:58.847Z</time></trkpt><trkpt lat="46.0962540590719" lon="12.070850406400204"><ele>298.0</ele><time>2026-04-12T08:30:59.847Z</time></trkpt><trkpt lat="46.096327751351424" lon="12.070965405365563"><ele>297.5</ele><time>2026-04-12T08:31:00.847Z</time></trkpt><trkpt lat="46.09642414605589" lon="12.071060630431562"><ele>297.0</ele><time>2026-04-12T08:31:01.847Z</time></trkpt><trkpt lat="46.096519121681936" lon="12.071196026084454"><ele>297.25</ele><time>2026-04-12T08:31:02.847Z</time></trkpt><trkpt lat="46.096588809138794" lon="12.071374080426443"><ele>297.5</ele><time>2026-04-12T08:31:03.847Z</time></trkpt><trkpt lat="46.0966593977279" lon="12.07156881243098"><ele>297.75</ele><time>2026-04-12T08:31:04.847Z</time></trkpt><trkpt lat="46.09673964640634" lon="12.071756506910459"><ele>298.0</ele><time>2026-04-12T08:31:05.847Z</time></trkpt><trkpt lat="46.096811511328575" lon="12.0719384463678"><ele>297.0</ele><time>2026-04-12T08:31:06.847Z</time></trkpt><trkpt lat="46.09688000366466" lon="12.072109891159622"><ele>296.0</ele><time>2026-04-12T08:31:07.847Z</time></trkpt><trkpt lat="46.09694385682503" lon="12.072296209330828"><ele>295.0</ele><time>2026-04-12T08:31:08.847Z</time></trkpt><trkpt lat="46.09702140178029" lon="12.072518446506104"><ele>294.75</ele><time>2026-04-12T08:31:09.847Z</time></trkpt><trkpt lat="46.09706578995015" lon="12.072718688219267"><ele>294.5</ele><time>2026-04-12T08:31:10.847Z</time></trkpt><trkpt lat="46.09708887662826" lon="12.07290707184546"><ele>294.25</ele><time>2026-04-12T08:31:11.847Z</time></trkpt><trkpt lat="46.09711601478843" lon="12.073111985025973"><ele>294.0</ele><time>2026-04-12T08:31:12.847Z</time></trkpt><trkpt lat="46.09712688218008" lon="12.073307780126267"><ele>293.6666666666667</ele><time>2026-04-12T08:31:13.847Z</time></trkpt><trkpt lat="46.097117456270816" lon="12.073513086932154"><ele>293.33333333333337</ele><time>2026-04-12T08:31:14.847Z</time></trkpt><trkpt lat="46.097104928270305" lon="12.073738007205376"><ele>293.0</ele><time>2026-04-12T08:31:15.847Z</time></trkpt><trkpt lat="46.09708370626517" lon="12.073964608556755"><ele>292.6666666666667</ele><time>2026-04-12T08:31:16.847Z</time></trkpt><trkpt lat="46.097050306773724" lon="12.074191734798234"><ele>292.3333333333333</ele><time>2026-04-12T08:31:17.847Z</time></trkpt><trkpt lat="46.09701764617097" lon="12.07442041341401"><ele>292.0</ele><time>2026-04-12T08:31:18.847Z</time></trkpt><trkpt lat="46.096983559467674" lon="12.074653879175788"><ele>292.0</ele><time>2026-04-12T08:31:19.847Z</time></trkpt><trkpt lat="46.09695718191745" lon="12.074879998224484"><ele>292.0</ele><time>2026-04-12T08:31:20.847Z</time></trkpt><trkpt lat="46.09692895881438" lon="12.075095765525113"><ele>292.0</ele><time>2026-04-12T08:31:21.847Z</time></trkpt><trkpt lat="46.09690210398996" lon="12.075299421279547"><ele>292.66666666666663</ele><time>2026-04-12T08:31:22.847Z</time></trkpt><trkpt lat="46.096871073859504" lon="12.075503316011034"><ele>293.3333333333333</ele><time>2026-04-12T08:31:23.847Z</time></trkpt><trkpt lat="46.09684213268029" lon="12.075723580606091"><ele>294.0</ele><time>2026-04-12T08:31:24.847Z</time></trkpt><trkpt lat="46.09681084780242" lon="12.075943173411888"><ele>294.0</ele><time>2026-04-12T08:31:25.847Z</time></trkpt><trkpt lat="46.09678221368543" lon="12.076169334495486"><ele>294.0</ele><time>2026-04-12T08:31:26.847Z</time></trkpt><trkpt lat="46.096755760250126" lon="12.076393955700551"><ele>294.0</ele><time>2026-04-12T08:31:27.847Z</time></trkpt><trkpt lat="46.09672578634159" lon="12.07662554673322"><ele>294.6666666666667</ele><time>2026-04-12T08:31:28.847Z</time></trkpt><trkpt lat="46.096697004075104" lon="12.07686916152155"><ele>295.33333333333337</ele><time>2026-04-12T08:31:29.847Z</time></trkpt><trkpt lat="46.09666496145513" lon="12.077113148278405"><ele>296.0</ele><time>2026-04-12T08:31:30.847Z</time></trkpt><trkpt lat="46.09663300684206" lon="12.077379763188105"><ele>296.0</ele><time>2026-04-12T08:31:31.847Z</time></trkpt><trkpt lat="46.09659925593051" lon="12.07766171655147"><ele>296.0</ele><time>2026-04-12T08:31:32.847Z</time></trkpt><trkpt lat="46.096562178776196" lon="12.077956957216806"><ele>296.0</ele><time>2026-04-12T08:31:33.847Z</time></trkpt><trkpt lat="46.09652664186767" lon="12.078257592644356"><ele>293.33333333333337</ele><time>2026-04-12T08:31:34.847Z</time></trkpt><trkpt lat="46.09648965804216" lon="12.078541604442085"><ele>290.6666666666667</ele><time>2026-04-12T08:31:35.847Z</time></trkpt><trkpt lat="46.0964564526476" lon="12.078805004561131"><ele>288.0</ele><time>2026-04-12T08:31:36.847Z</time></trkpt><trkpt lat="46.09642546725899" lon="12.079049875124111"><ele>288.3333333333333</ele><time>2026-04-12T08:31:37.847Z</time></trkpt><trkpt lat="46.09639428703258" lon="12.079297743537614"><ele>288.66666666666663</ele><time>2026-04-12T08:31:38.847Z</time></trkpt><trkpt lat="46.09636544338617" lon="12.079540153814628"><ele>289.0</ele><time>2026-04-12T08:31:39.847Z</time></trkpt><trkpt lat="46.09633772526299" lon="12.07977937770379"><ele>290.3333333333333</ele><time>2026-04-12T08:31:40.847Z</time></trkpt><trkpt lat="46.09630590991274" lon="12.080003785243179"><ele>291.6666666666667</ele><time>2026-04-12T08:31:41.847Z</time></trkpt><trkpt lat="46.096285723189325" lon="12.080216970698052"><ele>293.0</ele><time>2026-04-12T08:31:42.847Z</time></trkpt><trkpt lat="46.09626220418318" lon="12.080422376780263"><ele>293.0</ele><time>2026-04-12T08:31:43.847Z</time></trkpt><trkpt lat="46.09622972693761" lon="12.080614636991157"><ele>293.0</ele><time>2026-04-12T08:31:44.847Z</time></trkpt><trkpt lat="46.09620643149998" lon="12.080788836004556"><ele>293.0</ele><time>2026-04-12T08:31:45.847Z</time></trkpt><trkpt lat="46.09618819027595" lon="12.08096041118794"><ele>293.0</ele><time>2026-04-12T08:31:46.847Z</time></trkpt><trkpt lat="46.09617549839786" lon="12.081133648916454"><ele>293.25</ele><time>2026-04-12T08:31:47.847Z</time></trkpt><trkpt lat="46.09616761040604" lon="12.081315437729007"><ele>293.5</ele><time>2026-04-12T08:31:48.847Z</time></trkpt><trkpt lat="46.09617085128367" lon="12.081528052053626"><ele>293.75</ele><time>2026-04-12T08:31:49.847Z</time></trkpt><trkpt lat="46.09620721594375" lon="12.081719504846737"><ele>294.0</ele><time>2026-04-12T08:31:50.847Z</time></trkpt><trkpt lat="46.096226523997075" lon="12.081905740807816"><ele>294.0</ele><time>2026-04-12T08:31:51.847Z</time></trkpt><trkpt lat="46.09622356744587" lon="12.082049937515716"><ele>294.0</ele><time>2026-04-12T08:31:52.847Z</time></trkpt><trkpt lat="46.096202784592194" lon="12.082175205511609"><ele>294.0</ele><time>2026-04-12T08:31:53.847Z</time></trkpt><trkpt lat="46.09619393058127" lon="12.082282910361105"><ele>294.0</ele><time>2026-04-12T08:31:54.847Z</time></trkpt><trkpt lat="46.09602030452656" lon="12.082173396708365"><ele>294.0</ele><time>2026-04-12T08:31:55.847Z</time></trkpt><trkpt lat="46.09599655547286" lon="12.08232934874571"><ele>294.0</ele><time>2026-04-12T08:31:56.847Z</time></trkpt><trkpt lat="46.09599290102026" lon="12.08249546074908"><ele>294.0</ele><time>2026-04-12T08:31:57.847Z</time></trkpt><trkpt lat="46.09596620641067" lon="12.082650678626901"><ele>294.0</ele><time>2026-04-12T08:31:58.847Z</time></trkpt><trkpt lat="46.095941469824346" lon="12.082832847895753"><ele>294.0</ele><time>2026-04-12T08:31:59.847Z</time></trkpt><trkpt lat="46.095911382938624" lon="12.083033090275443"><ele>294.0</ele><time>2026-04-12T08:32:00.847Z</time></trkpt><trkpt lat="46.09588287111342" lon="12.083236103030332"><ele>294.0</ele><time>2026-04-12T08:32:01.847Z</time></trkpt><trkpt lat="46.09585706251479" lon="12.08341212434126"><ele>294.0</ele><time>2026-04-12T08:32:02.847Z</time></trkpt><trkpt lat="46.095832301214" lon="12.083584717411412"><ele>294.5</ele><time>2026-04-12T08:32:03.847Z</time></trkpt><trkpt lat="46.09580879187099" lon="12.083766431437702"><ele>295.0</ele><time>2026-04-12T08:32:04.847Z</time></trkpt><trkpt lat="46.09578497195941" lon="12.083952650832519"><ele>295.5</ele><time>2026-04-12T08:32:05.847Z</time></trkpt><trkpt lat="46.09576368661454" lon="12.084132565229945"><ele>296.0</ele><time>2026-04-12T08:32:06.847Z</time></trkpt><trkpt lat="46.095744001976" lon="12.08429526631116"><ele>296.0</ele><time>2026-04-12T08:32:07.847Z</time></trkpt><trkpt lat="46.095731500613056" lon="12.084458903778144"><ele>296.0</ele><time>2026-04-12T08:32:08.847Z</time></trkpt><trkpt lat="46.0957402567079" lon="12.084621647858793"><ele>296.0</ele><time>2026-04-12T08:32:09.847Z</time></trkpt><trkpt lat="46.09576743346083" lon="12.084772033516384"><ele>296.0</ele><time>2026-04-12T08:32:10.847Z</time></trkpt><trkpt lat="46.09579959001423" lon="12.084929896492733"><ele>296.0</ele><time>2026-04-12T08:32:11.847Z</time></trkpt><trkpt lat="46.095844583261815" lon="12.085091464530123"><ele>296.40000000000003</ele><time>2026-04-12T08:32:12.847Z</time></trkpt><trkpt lat="46.09589788117964" lon="12.085230587990232"><ele>296.8</ele><time>2026-04-12T08:32:13.847Z</time></trkpt><trkpt lat="46.09595192253886" lon="12.085354385793064"><ele>297.20000000000005</ele><time>2026-04-12T08:32:14.847Z</time></trkpt><trkpt lat="46.09600319043312" lon="12.085464497199192"><ele>297.6</ele><time>2026-04-12T08:32:15.847Z</time></trkpt><trkpt lat="46.09605679455728" lon="12.085550117886825"><ele>298.0</ele><time>2026-04-12T08:32:16.847Z</time></trkpt><trkpt lat="46.096111959527406" lon="12.085634949195091"><ele>298.0</ele><time>2026-04-12T08:32:17.847Z</time></trkpt><trkpt lat="46.096177778634704" lon="12.085684485658861"><ele>298.0</ele><time>2026-04-12T08:32:18.847Z</time></trkpt><trkpt lat="46.096241074430516" lon="12.085747162798809"><ele>298.0</ele><time>2026-04-12T08:32:19.847Z</time></trkpt><trkpt lat="46.096311461214064" lon="12.0858102501496"><ele>298.0</ele><time>2026-04-12T08:32:20.847Z</time></trkpt><trkpt lat="46.09637450576441" lon="12.085900933826762"><ele>298.0</ele><time>2026-04-12T08:32:21.847Z</time></trkpt><trkpt lat="46.09643939088572" lon="12.085950957733829"><ele>298.0</ele><time>2026-04-12T08:32:22.847Z</time></trkpt><trkpt lat="46.096512827693225" lon="12.086012903987717"><ele>298.3333333333333</ele><time>2026-04-12T08:32:23.847Z</time></trkpt><trkpt lat="46.09658879369003" lon="12.086084082629721"><ele>298.66666666666663</ele><time>2026-04-12T08:32:24.848Z</time></trkpt><trkpt lat="46.09665437520897" lon="12.086150463524799"><ele>299.0</ele><time>2026-04-12T08:32:25.848Z</time></trkpt><trkpt lat="46.09672051107135" lon="12.08622613835459"><ele>299.3333333333333</ele><time>2026-04-12T08:32:26.848Z</time></trkpt><trkpt lat="46.09678293250995" lon="12.086296736746903"><ele>299.6666666666667</ele><time>2026-04-12T08:32:27.848Z</time></trkpt><trkpt lat="46.09687191536664" lon="12.086384862359054"><ele>300.0</ele><time>2026-04-12T08:32:29.848Z</time></trkpt><trkpt lat="46.09695669916025" lon="12.086466730501266"><ele>300.0</ele><time>2026-04-12T08:32:31.848Z</time></trkpt><trkpt lat="46.09701002330318" lon="12.086518979731595"><ele>300.0</ele><time>2026-04-12T08:32:32.848Z</time></trkpt><trkpt lat="46.09709640497139" lon="12.0866000266195"><ele>300.0</ele><time>2026-04-12T08:32:34.848Z</time></trkpt><trkpt lat="46.09717489545758" lon="12.086679373613439"><ele>300.0</ele><time>2026-04-12T08:32:37.848Z</time></trkpt><trkpt lat="46.097272778138425" lon="12.086763207913542"><ele>300.0</ele><time>2026-04-12T08:32:39.848Z</time></trkpt><trkpt lat="46.09733169977126" lon="12.086827351942093"><ele>300.0</ele><time>2026-04-12T08:32:40.848Z</time></trkpt><trkpt lat="46.09743737015277" lon="12.086921275769333"><ele>300.0</ele><time>2026-04-12T08:32:42.848Z</time></trkpt><trkpt lat="46.09750867815505" lon="12.086989280974313"><ele>300.0</ele><time>2026-04-12T08:32:43.848Z</time></trkpt><trkpt lat="46.09757808419365" lon="12.087056327195517"><ele>300.0</ele><time>2026-04-12T08:32:44.848Z</time></trkpt><trkpt lat="46.097661966172986" lon="12.087129671226986"><ele>300.0</ele><time>2026-04-12T08:32:45.848Z</time></trkpt><trkpt lat="46.097736112244405" lon="12.087204565970314"><ele>300.0</ele><time>2026-04-12T08:32:46.848Z</time></trkpt><trkpt lat="46.09780931731021" lon="12.087277065756036"><ele>300.0</ele><time>2026-04-12T08:32:47.848Z</time></trkpt><trkpt lat="46.09789659254319" lon="12.087353192191935"><ele>300.0</ele><time>2026-04-12T08:32:48.848Z</time></trkpt><trkpt lat="46.09799450358131" lon="12.087440702980691"><ele>300.0</ele><time>2026-04-12T08:32:49.848Z</time></trkpt><trkpt lat="46.09808902828874" lon="12.087529812139413"><ele>300.0</ele><time>2026-04-12T08:32:50.848Z</time></trkpt><trkpt lat="46.09817401211213" lon="12.0876110925359"><ele>300.2</ele><time>2026-04-12T08:32:51.848Z</time></trkpt><trkpt lat="46.098252700352816" lon="12.087691135142437"><ele>300.4</ele><time>2026-04-12T08:32:52.848Z</time></trkpt><trkpt lat="46.09834284029433" lon="12.087772723168559"><ele>300.6</ele><time>2026-04-12T08:32:53.848Z</time></trkpt><trkpt lat="46.098445866607406" lon="12.087866114196048"><ele>300.8</ele><time>2026-04-12T08:32:54.848Z</time></trkpt><trkpt lat="46.098545125981516" lon="12.087961025280654"><ele>301.0</ele><time>2026-04-12T08:32:55.848Z</time></trkpt><trkpt lat="46.09866637631773" lon="12.088071084021829"><ele>301.0</ele><time>2026-04-12T08:32:56.848Z</time></trkpt><trkpt lat="46.09879692047709" lon="12.08818550984025"><ele>301.0</ele><time>2026-04-12T08:32:57.848Z</time></trkpt><trkpt lat="46.09891599346576" lon="12.088294018874267"><ele>301.0</ele><time>2026-04-12T08:32:58.848Z</time></trkpt><trkpt lat="46.099022730337836" lon="12.088394700799668"><ele>301.0</ele><time>2026-04-12T08:32:59.848Z</time></trkpt><trkpt lat="46.099121277594456" lon="12.088482368709661"><ele>300.8</ele><time>2026-04-12T08:33:00.848Z</time></trkpt><trkpt lat="46.09922369483576" lon="12.088580200047211"><ele>300.6</ele><time>2026-04-12T08:33:01.848Z</time></trkpt><trkpt lat="46.099319202123404" lon="12.088671691187436"><ele>300.4</ele><time>2026-04-12T08:33:02.848Z</time></trkpt><trkpt lat="46.09940240730555" lon="12.088753015623732"><ele>300.2</ele><time>2026-04-12T08:33:03.848Z</time></trkpt><trkpt lat="46.09945894381185" lon="12.088880033863665"><ele>300.0</ele><time>2026-04-12T08:33:04.848Z</time></trkpt><trkpt lat="46.09952972066693" lon="12.08891082644391"><ele>300.0</ele><time>2026-04-12T08:33:05.848Z</time></trkpt><trkpt lat="46.099621381415446" lon="12.088979176857992"><ele>300.0</ele><time>2026-04-12T08:33:07.848Z</time></trkpt><trkpt lat="46.0996959478193" lon="12.089059747000137"><ele>300.0</ele><time>2026-04-12T08:33:09.848Z</time></trkpt><trkpt lat="46.099763352284945" lon="12.089115241257643"><ele>300.0</ele><time>2026-04-12T08:33:12.848Z</time></trkpt><trkpt lat="46.099819379791725" lon="12.08918619722241"><ele>300.0</ele><time>2026-04-12T08:33:15.848Z</time></trkpt><trkpt lat="46.09987550785472" lon="12.089278562076787"><ele>300.0</ele><time>2026-04-12T08:33:18.848Z</time></trkpt><trkpt lat="46.099896794930416" lon="12.089406804937129"><ele>300.6666666666667</ele><time>2026-04-12T08:33:21.848Z</time></trkpt><trkpt lat="46.099897997615145" lon="12.089500078589534"><ele>301.3333333333333</ele><time>2026-04-12T08:33:22.848Z</time></trkpt><trkpt lat="46.09987760523778" lon="12.089587640623225"><ele>302.0</ele><time>2026-04-12T08:33:23.848Z</time></trkpt><trkpt lat="46.099840586236354" lon="12.089692507123937"><ele>302.66666666666663</ele><time>2026-04-12T08:33:25.848Z</time></trkpt><trkpt lat="46.099870978075735" lon="12.08978144969791"><ele>303.3333333333333</ele><time>2026-04-12T08:33:28.848Z</time></trkpt><trkpt lat="46.0999108183988" lon="12.089910400068652"><ele>304.0</ele><time>2026-04-12T08:34:12.848Z</time></trkpt><trkpt lat="46.09989377722697" lon="12.09001270724948"><ele>304.0</ele><time>2026-04-12T08:34:13.848Z</time></trkpt><trkpt lat="46.09983395725748" lon="12.090155544681291"><ele>304.0</ele><time>2026-04-12T08:34:15.848Z</time></trkpt><trkpt lat="46.099788037842195" lon="12.090243134120954"><ele>304.0</ele><time>2026-04-12T08:34:16.848Z</time></trkpt><trkpt lat="46.09973601678513" lon="12.0903536183443"><ele>304.0</ele><time>2026-04-12T08:34:17.848Z</time></trkpt><trkpt lat="46.09967677924788" lon="12.090472933480653"><ele>304.0</ele><time>2026-04-12T08:34:18.848Z</time></trkpt><trkpt lat="46.09962375992444" lon="12.090576170114195"><ele>304.0</ele><time>2026-04-12T08:34:19.848Z</time></trkpt><trkpt lat="46.09957328160645" lon="12.090687903104092"><ele>304.0</ele><time>2026-04-12T08:34:20.848Z</time></trkpt><trkpt lat="46.099513786798816" lon="12.090817864896241"><ele>304.0</ele><time>2026-04-12T08:34:21.848Z</time></trkpt><trkpt lat="46.09944314533786" lon="12.090949693001308"><ele>304.0</ele><time>2026-04-12T08:34:22.848Z</time></trkpt><trkpt lat="46.099354816183975" lon="12.091092132159394"><ele>304.0</ele><time>2026-04-12T08:34:23.848Z</time></trkpt><trkpt lat="46.099260662579205" lon="12.091248532529772"><ele>304.0</ele><time>2026-04-12T08:34:24.848Z</time></trkpt><trkpt lat="46.09917293908339" lon="12.091379433599284"><ele>304.0</ele><time>2026-04-12T08:34:25.848Z</time></trkpt><trkpt lat="46.09910146827057" lon="12.091487673548002"><ele>304.0</ele><time>2026-04-12T08:34:26.848Z</time></trkpt><trkpt lat="46.09898762904366" lon="12.091627682050158"><ele>304.0</ele><time>2026-04-12T08:34:27.848Z</time></trkpt><trkpt lat="46.09887918780931" lon="12.091778178240462"><ele>303.66666666666663</ele><time>2026-04-12T08:34:28.848Z</time></trkpt><trkpt lat="46.098780615902434" lon="12.091955166278208"><ele>303.3333333333333</ele><time>2026-04-12T08:34:29.848Z</time></trkpt><trkpt lat="46.09868278590143" lon="12.09214813332164"><ele>303.0</ele><time>2026-04-12T08:34:30.849Z</time></trkpt><trkpt lat="46.09859471685614" lon="12.092329329636799"><ele>302.75</ele><time>2026-04-12T08:34:31.849Z</time></trkpt><trkpt lat="46.09850749465359" lon="12.092504058000284"><ele>302.5</ele><time>2026-04-12T08:34:32.849Z</time></trkpt><trkpt lat="46.098433730869864" lon="12.092666266587605"><ele>302.25</ele><time>2026-04-12T08:34:33.849Z</time></trkpt><trkpt lat="46.09836112293683" lon="12.092835220476028"><ele>302.0</ele><time>2026-04-12T08:34:34.849Z</time></trkpt><trkpt lat="46.098292954067" lon="12.092972457895575"><ele>302.0</ele><time>2026-04-12T08:34:35.849Z</time></trkpt><trkpt lat="46.09823498633667" lon="12.093055371642901"><ele>302.0</ele><time>2026-04-12T08:34:36.849Z</time></trkpt><trkpt lat="46.098057527769505" lon="12.093534730479961"><ele>302.0</ele><time>2026-04-12T08:34:38.849Z</time></trkpt><trkpt lat="46.09796947120254" lon="12.093737136589892"><ele>302.0</ele><time>2026-04-12T08:34:39.849Z</time></trkpt><trkpt lat="46.097880363958346" lon="12.093954359179785"><ele>302.0</ele><time>2026-04-12T08:34:40.849Z</time></trkpt><trkpt lat="46.09778043006439" lon="12.09418765930217"><ele>301.33333333333337</ele><time>2026-04-12T08:34:41.849Z</time></trkpt><trkpt lat="46.09767454523348" lon="12.094436283938046"><ele>300.6666666666667</ele><time>2026-04-12T08:34:42.849Z</time></trkpt><trkpt lat="46.097566955208364" lon="12.094686241337694"><ele>300.0</ele><time>2026-04-12T08:34:43.849Z</time></trkpt><trkpt lat="46.097467147985334" lon="12.09491490916155"><ele>299.3333333333333</ele><time>2026-04-12T08:34:44.849Z</time></trkpt><trkpt lat="46.097355041307786" lon="12.095137916532341"><ele>298.66666666666663</ele><time>2026-04-12T08:34:45.849Z</time></trkpt><trkpt lat="46.09724352912792" lon="12.095375321641555"><ele>298.0</ele><time>2026-04-12T08:34:46.849Z</time></trkpt><trkpt lat="46.09713559533017" lon="12.09560874737762"><ele>298.3333333333333</ele><time>2026-04-12T08:34:47.849Z</time></trkpt><trkpt lat="46.09701887862026" lon="12.095842971181538"><ele>298.6666666666667</ele><time>2026-04-12T08:34:48.849Z</time></trkpt><trkpt lat="46.09689778252149" lon="12.09608569174964"><ele>299.0</ele><time>2026-04-12T08:34:49.849Z</time></trkpt><trkpt lat="46.09677598040953" lon="12.096335290685447"><ele>299.0</ele><time>2026-04-12T08:34:50.849Z</time></trkpt><trkpt lat="46.09665287804203" lon="12.096583305186426"><ele>299.0</ele><time>2026-04-12T08:34:51.849Z</time></trkpt><trkpt lat="46.09653851167464" lon="12.096813465868186"><ele>299.0</ele><time>2026-04-12T08:34:52.849Z</time></trkpt><trkpt lat="46.09642859471884" lon="12.097041169406138"><ele>298.6666666666667</ele><time>2026-04-12T08:34:53.849Z</time></trkpt><trkpt lat="46.09631492531706" lon="12.097268526646262"><ele>298.3333333333333</ele><time>2026-04-12T08:34:54.849Z</time></trkpt><trkpt lat="46.096205460483105" lon="12.09749180250535"><ele>298.0</ele><time>2026-04-12T08:34:55.849Z</time></trkpt><trkpt lat="46.09609047044994" lon="12.09772002272664"><ele>297.3333333333333</ele><time>2026-04-12T08:34:56.849Z</time></trkpt><trkpt lat="46.09597301441281" lon="12.097953051980044"><ele>296.6666666666667</ele><time>2026-04-12T08:34:57.849Z</time></trkpt><trkpt lat="46.09585247536975" lon="12.098198088911518"><ele>296.0</ele><time>2026-04-12T08:34:58.849Z</time></trkpt><trkpt lat="46.09572662629093" lon="12.09844484967315"><ele>296.0</ele><time>2026-04-12T08:34:59.849Z</time></trkpt><trkpt lat="46.095603362655524" lon="12.09870536746439"><ele>296.0</ele><time>2026-04-12T08:35:00.849Z</time></trkpt><trkpt lat="46.0954943585811" lon="12.098996544280258"><ele>296.0</ele><time>2026-04-12T08:35:01.849Z</time></trkpt><trkpt lat="46.095405838274026" lon="12.099330687524924"><ele>298.0</ele><time>2026-04-12T08:35:02.849Z</time></trkpt><trkpt lat="46.095312755265326" lon="12.099667796844601"><ele>300.0</ele><time>2026-04-12T08:35:03.849Z</time></trkpt><trkpt lat="46.09520195730739" lon="12.099988701772535"><ele>305.5</ele><time>2026-04-12T08:35:04.849Z</time></trkpt><trkpt lat="46.09509604597129" lon="12.100316609318186"><ele>311.0</ele><time>2026-04-12T08:35:05.849Z</time></trkpt><trkpt lat="46.09498631114617" lon="12.100653251769074"><ele>306.5</ele><time>2026-04-12T08:35:06.86Z</time></trkpt><trkpt lat="46.09487734877876" lon="12.100987016834184"><ele>302.0</ele><time>2026-04-12T08:35:07.863Z</time></trkpt><trkpt lat="46.0947702256429" lon="12.101314788943043"><ele>302.0</ele><time>2026-04-12T08:35:08.86Z</time></trkpt><trkpt lat="46.094661467980664" lon="12.10164637683099"><ele>302.0</ele><time>2026-04-12T08:35:09.86Z</time></trkpt><trkpt lat="46.09455109488471" lon="12.101983001995077"><ele>302.0</ele><time>2026-04-12T08:35:10.865Z</time></trkpt><trkpt lat="46.09444263107966" lon="12.102313267390606"><ele>302.0</ele><time>2026-04-12T08:35:11.864Z</time></trkpt><trkpt lat="46.094338675654356" lon="12.102632163157347"><ele>300.33333333333337</ele><time>2026-04-12T08:35:12.849Z</time></trkpt><trkpt lat="46.094150138125656" lon="12.10308674489646"><ele>298.6666666666667</ele><time>2026-04-12T08:35:13.849Z</time></trkpt><trkpt lat="46.09411621202137" lon="12.103188108402186"><ele>297.0</ele><time>2026-04-12T08:35:14.849Z</time></trkpt><trkpt lat="46.09408942658226" lon="12.103407587154795"><ele>296.0</ele><time>2026-04-12T08:35:15.849Z</time></trkpt><trkpt lat="46.09406037563622" lon="12.103697001275266"><ele>295.0</ele><time>2026-04-12T08:35:16.849Z</time></trkpt><trkpt lat="46.09404606135751" lon="12.103985825181049"><ele>294.0</ele><time>2026-04-12T08:35:17.849Z</time></trkpt><trkpt lat="46.094050415102444" lon="12.104304476206995"><ele>294.5</ele><time>2026-04-12T08:35:18.849Z</time></trkpt><trkpt lat="46.09406801983027" lon="12.104633153240016"><ele>295.0</ele><time>2026-04-12T08:35:19.849Z</time></trkpt><trkpt lat="46.09410320925476" lon="12.104977796943865"><ele>295.0</ele><time>2026-04-12T08:35:20.849Z</time></trkpt><trkpt lat="46.09415094361419" lon="12.105338029667886"><ele>295.0</ele><time>2026-04-12T08:35:21.849Z</time></trkpt><trkpt lat="46.0942065605263" lon="12.105715864594915"><ele>294.5</ele><time>2026-04-12T08:35:22.849Z</time></trkpt><trkpt lat="46.094258270766154" lon="12.106110626228466"><ele>294.0</ele><time>2026-04-12T08:35:23.849Z</time></trkpt><trkpt lat="46.09429851122698" lon="12.106497019236743"><ele>295.0</ele><time>2026-04-12T08:35:24.849Z</time></trkpt><trkpt lat="46.094338103237206" lon="12.106848856649044"><ele>296.0</ele><time>2026-04-12T08:35:25.849Z</time></trkpt><trkpt lat="46.09437971531149" lon="12.107176711781685"><ele>298.5</ele><time>2026-04-12T08:35:26.849Z</time></trkpt><trkpt lat="46.09440975374841" lon="12.107512855301284"><ele>301.0</ele><time>2026-04-12T08:35:27.849Z</time></trkpt><trkpt lat="46.094425053064704" lon="12.107863914430533"><ele>301.0</ele><time>2026-04-12T08:35:28.849Z</time></trkpt><trkpt lat="46.094422093067855" lon="12.108217098500996"><ele>301.0</ele><time>2026-04-12T08:35:29.849Z</time></trkpt><trkpt lat="46.094400646749015" lon="12.108579068879083"><ele>301.0</ele><time>2026-04-12T08:35:30.849Z</time></trkpt><trkpt lat="46.094374594726" lon="12.108953819828933"><ele>301.0</ele><time>2026-04-12T08:35:31.849Z</time></trkpt><trkpt lat="46.09433184834168" lon="12.109344390878636"><ele>300.0</ele><time>2026-04-12T08:35:32.849Z</time></trkpt><trkpt lat="46.0942707094347" lon="12.109752865009137"><ele>299.0</ele><time>2026-04-12T08:35:33.849Z</time></trkpt><trkpt lat="46.09420755203249" lon="12.110172849187535"><ele>299.0</ele><time>2026-04-12T08:35:34.849Z</time></trkpt><trkpt lat="46.09415338570224" lon="12.110590381690448"><ele>299.0</ele><time>2026-04-12T08:35:35.849Z</time></trkpt><trkpt lat="46.09410776054132" lon="12.110974983765862"><ele>297.0</ele><time>2026-04-12T08:35:36.849Z</time></trkpt><trkpt lat="46.094065886568316" lon="12.111328937295205"><ele>295.0</ele><time>2026-04-12T08:35:37.849Z</time></trkpt><trkpt lat="46.09403084704349" lon="12.11167850988835"><ele>295.0</ele><time>2026-04-12T08:35:38.849Z</time></trkpt><trkpt lat="46.09401549559776" lon="12.112036279670846"><ele>295.0</ele><time>2026-04-12T08:35:39.849Z</time></trkpt><trkpt lat="46.094015817001576" lon="12.112406721330766"><ele>295.0</ele><time>2026-04-12T08:35:40.849Z</time></trkpt><trkpt lat="46.09402885827218" lon="12.112780080900096"><ele>295.0</ele><time>2026-04-12T08:35:41.849Z</time></trkpt><trkpt lat="46.09405000948517" lon="12.113165020517465"><ele>295.0</ele><time>2026-04-12T08:35:42.849Z</time></trkpt><trkpt lat="46.09406561033469" lon="12.11355044363044"><ele>295.0</ele><time>2026-04-12T08:35:43.849Z</time></trkpt><trkpt lat="46.09407281466586" lon="12.113949247903921"><ele>295.5</ele><time>2026-04-12T08:35:44.849Z</time></trkpt><trkpt lat="46.094084979482176" lon="12.114357736234359"><ele>296.0</ele><time>2026-04-12T08:35:45.849Z</time></trkpt><trkpt lat="46.09410335522057" lon="12.114760574279245"><ele>302.5</ele><time>2026-04-12T08:35:46.849Z</time></trkpt><trkpt lat="46.094114357158624" lon="12.115137315198973"><ele>309.0</ele><time>2026-04-12T08:35:47.849Z</time></trkpt><trkpt lat="46.09412411896913" lon="12.115483798061113"><ele>310.0</ele><time>2026-04-12T08:35:48.849Z</time></trkpt><trkpt lat="46.09413728400382" lon="12.115819222666708"><ele>311.0</ele><time>2026-04-12T08:35:49.849Z</time></trkpt><trkpt lat="46.09414545304069" lon="12.116155763076925"><ele>311.0</ele><time>2026-04-12T08:35:50.849Z</time></trkpt><trkpt lat="46.09413448547457" lon="12.116493651284065"><ele>311.0</ele><time>2026-04-12T08:35:51.849Z</time></trkpt><trkpt lat="46.09409489840722" lon="12.116835704308155"><ele>310.0</ele><time>2026-04-12T08:35:52.849Z</time></trkpt><trkpt lat="46.09403603572477" lon="12.1171859316798"><ele>309.0</ele><time>2026-04-12T08:35:53.849Z</time></trkpt><trkpt lat="46.09396044311081" lon="12.11754239472259"><ele>309.0</ele><time>2026-04-12T08:35:54.849Z</time></trkpt><trkpt lat="46.09386842676752" lon="12.117907022743243"><ele>309.0</ele><time>2026-04-12T08:35:55.849Z</time></trkpt><trkpt lat="46.09375545624769" lon="12.118263430584337"><ele>312.5</ele><time>2026-04-12T08:35:56.849Z</time></trkpt><trkpt lat="46.09362928763999" lon="12.11864254549739"><ele>316.0</ele><time>2026-04-12T08:35:57.849Z</time></trkpt><trkpt lat="46.0934959350197" lon="12.119029125736514"><ele>317.0</ele><time>2026-04-12T08:35:58.849Z</time></trkpt><trkpt lat="46.09336664447848" lon="12.11939979581145"><ele>318.0</ele><time>2026-04-12T08:35:59.849Z</time></trkpt><trkpt lat="46.09326152659518" lon="12.11973521076149"><ele>311.0</ele><time>2026-04-12T08:36:00.849Z</time></trkpt><trkpt lat="46.093177914915984" lon="12.120053448968278"><ele>304.0</ele><time>2026-04-12T08:36:01.849Z</time></trkpt><trkpt lat="46.09310467151986" lon="12.120351237431697"><ele>304.0</ele><time>2026-04-12T08:36:02.849Z</time></trkpt><trkpt lat="46.09305389084851" lon="12.120655740850001"><ele>304.0</ele><time>2026-04-12T08:36:03.849Z</time></trkpt><trkpt lat="46.09300485347789" lon="12.120955140106853"><ele>304.0</ele><time>2026-04-12T08:36:04.849Z</time></trkpt><trkpt lat="46.09296270150397" lon="12.121253739812628"><ele>304.3333333333333</ele><time>2026-04-12T08:36:05.849Z</time></trkpt><trkpt lat="46.09292203355379" lon="12.12153089530774"><ele>304.6666666666667</ele><time>2026-04-12T08:36:06.849Z</time></trkpt><trkpt lat="46.09288440132608" lon="12.121802281989968"><ele>305.0</ele><time>2026-04-12T08:36:07.849Z</time></trkpt><trkpt lat="46.09284269932069" lon="12.122057581046308"><ele>305.0</ele><time>2026-04-12T08:36:08.849Z</time></trkpt><trkpt lat="46.09280019496766" lon="12.122291120882494"><ele>305.0</ele><time>2026-04-12T08:36:09.849Z</time></trkpt><trkpt lat="46.092743656227135" lon="12.122520548054291"><ele>305.0</ele><time>2026-04-12T08:36:10.849Z</time></trkpt><trkpt lat="46.09265730920831" lon="12.122742079965745"><ele>305.33333333333337</ele><time>2026-04-12T08:36:11.849Z</time></trkpt><trkpt lat="46.092541538865504" lon="12.12295431509104"><ele>305.6666666666667</ele><time>2026-04-12T08:36:12.849Z</time></trkpt><trkpt lat="46.092405416114055" lon="12.123161944928691"><ele>306.0</ele><time>2026-04-12T08:36:13.849Z</time></trkpt><trkpt lat="46.09225320216919" lon="12.12336786035506"><ele>303.6666666666667</ele><time>2026-04-12T08:36:14.849Z</time></trkpt><trkpt lat="46.092103493417845" lon="12.123573038588788"><ele>301.33333333333337</ele><time>2026-04-12T08:36:15.849Z</time></trkpt><trkpt lat="46.0919611511977" lon="12.123816644254054"><ele>299.0</ele><time>2026-04-12T08:36:16.849Z</time></trkpt><trkpt lat="46.09184041643528" lon="12.124097126215013"><ele>299.0</ele><time>2026-04-12T08:36:17.849Z</time></trkpt><trkpt lat="46.09172204743222" lon="12.124394642145475"><ele>299.0</ele><time>2026-04-12T08:36:18.849Z</time></trkpt><trkpt lat="46.09159641111446" lon="12.124679062124573"><ele>294.5</ele><time>2026-04-12T08:36:19.849Z</time></trkpt><trkpt lat="46.09147260132651" lon="12.12496553894949"><ele>290.0</ele><time>2026-04-12T08:36:20.849Z</time></trkpt><trkpt lat="46.09134121208257" lon="12.125242742788167"><ele>290.0</ele><time>2026-04-12T08:36:21.849Z</time></trkpt><trkpt lat="46.091213968634584" lon="12.125515851589888"><ele>290.0</ele><time>2026-04-12T08:36:22.849Z</time></trkpt><trkpt lat="46.09108542842786" lon="12.125795815029383"><ele>290.5</ele><time>2026-04-12T08:36:23.849Z</time></trkpt><trkpt lat="46.09096032228349" lon="12.126079684618608"><ele>291.0</ele><time>2026-04-12T08:36:24.849Z</time></trkpt><trkpt lat="46.09083461399173" lon="12.126355002246243"><ele>292.0</ele><time>2026-04-12T08:36:25.849Z</time></trkpt><trkpt lat="46.09071272506265" lon="12.126623154464589"><ele>293.0</ele><time>2026-04-12T08:36:26.849Z</time></trkpt><trkpt lat="46.090594212041054" lon="12.126884300594346"><ele>294.0</ele><time>2026-04-12T08:36:27.849Z</time></trkpt><trkpt lat="46.09048099943815" lon="12.12713887083392"><ele>294.0</ele><time>2026-04-12T08:36:28.849Z</time></trkpt><trkpt lat="46.09036924260206" lon="12.127379831873188"><ele>294.0</ele><time>2026-04-12T08:36:29.849Z</time></trkpt><trkpt lat="46.09025608706771" lon="12.127615897824576"><ele>294.0</ele><time>2026-04-12T08:36:30.849Z</time></trkpt><trkpt lat="46.09014759129464" lon="12.127852288745087"><ele>295.3333333333333</ele><time>2026-04-12T08:36:31.849Z</time></trkpt><trkpt lat="46.09003844167891" lon="12.128081642503501"><ele>296.66666666666663</ele><time>2026-04-12T08:36:32.849Z</time></trkpt><trkpt lat="46.089926629137594" lon="12.128289930152615"><ele>298.0</ele><time>2026-04-12T08:36:33.849Z</time></trkpt><trkpt lat="46.08981058450264" lon="12.128485773393002"><ele>299.66666666666663</ele><time>2026-04-12T08:36:34.849Z</time></trkpt><trkpt lat="46.089685728445886" lon="12.12867280492749"><ele>301.3333333333333</ele><time>2026-04-12T08:36:35.849Z</time></trkpt><trkpt lat="46.08954895263714" lon="12.128858064272706"><ele>303.0</ele><time>2026-04-12T08:36:36.85Z</time></trkpt><trkpt lat="46.08940061742682" lon="12.129040704131915"><ele>303.0</ele><time>2026-04-12T08:36:37.85Z</time></trkpt><trkpt lat="46.08923989621334" lon="12.129222386753595"><ele>303.0</ele><time>2026-04-12T08:36:38.85Z</time></trkpt><trkpt lat="46.08906892931166" lon="12.129400059231262"><ele>303.0</ele><time>2026-04-12T08:36:39.85Z</time></trkpt><trkpt lat="46.0888808998603" lon="12.129568896906898"><ele>302.5</ele><time>2026-04-12T08:36:40.85Z</time></trkpt><trkpt lat="46.088683312198185" lon="12.129728069108687"><ele>302.0</ele><time>2026-04-12T08:36:41.85Z</time></trkpt><trkpt lat="46.08848971781369" lon="12.129889854011932"><ele>302.33333333333337</ele><time>2026-04-12T08:36:42.85Z</time></trkpt><trkpt lat="46.08831532139197" lon="12.130047948204808"><ele>302.6666666666667</ele><time>2026-04-12T08:36:43.85Z</time></trkpt><trkpt lat="46.088136130314126" lon="12.130196373180695"><ele>303.0</ele><time>2026-04-12T08:36:44.85Z</time></trkpt><trkpt lat="46.08795377019924" lon="12.130336697315808"><ele>303.6666666666667</ele><time>2026-04-12T08:36:45.85Z</time></trkpt><trkpt lat="46.087764343802675" lon="12.130504129305766"><ele>304.33333333333337</ele><time>2026-04-12T08:36:46.85Z</time></trkpt><trkpt lat="46.08758470360426" lon="12.130653930207579"><ele>305.0</ele><time>2026-04-12T08:36:47.85Z</time></trkpt><trkpt lat="46.08740048903579" lon="12.130805193864923"><ele>306.6666666666667</ele><time>2026-04-12T08:36:48.85Z</time></trkpt><trkpt lat="46.08722012565518" lon="12.13094986050986"><ele>308.3333333333333</ele><time>2026-04-12T08:36:49.85Z</time></trkpt><trkpt lat="46.087036219748235" lon="12.13110458304538"><ele>310.0</ele><time>2026-04-12T08:36:50.85Z</time></trkpt><trkpt lat="46.08684694295108" lon="12.131263344702523"><ele>310.0</ele><time>2026-04-12T08:36:51.85Z</time></trkpt><trkpt lat="46.086658127473584" lon="12.131422204834289"><ele>310.0</ele><time>2026-04-12T08:36:52.85Z</time></trkpt><trkpt lat="46.086467252998276" lon="12.131582855229121"><ele>310.0</ele><time>2026-04-12T08:36:53.85Z</time></trkpt><trkpt lat="46.08627456394545" lon="12.131745256745495"><ele>310.0</ele><time>2026-04-12T08:36:54.85Z</time></trkpt><trkpt lat="46.086079122050386" lon="12.13190735870166"><ele>310.0</ele><time>2026-04-12T08:36:55.85Z</time></trkpt><trkpt lat="46.08588244526563" lon="12.132067982301733"><ele>311.3333333333333</ele><time>2026-04-12T08:36:56.85Z</time></trkpt><trkpt lat="46.085685388384" lon="12.132225284676279"><ele>312.6666666666667</ele><time>2026-04-12T08:36:57.85Z</time></trkpt><trkpt lat="46.08549188586907" lon="12.132387260966944"><ele>314.0</ele><time>2026-04-12T08:36:58.85Z</time></trkpt><trkpt lat="46.085298032257455" lon="12.132555621276104"><ele>314.0</ele><time>2026-04-12T08:36:59.85Z</time></trkpt><trkpt lat="46.08510474117547" lon="12.132723012446576"><ele>314.0</ele><time>2026-04-12T08:37:00.85Z</time></trkpt><trkpt lat="46.08490950550297" lon="12.132887240336714"><ele>314.33333333333337</ele><time>2026-04-12T08:37:01.85Z</time></trkpt><trkpt lat="46.084716942899774" lon="12.13305000391358"><ele>314.6666666666667</ele><time>2026-04-12T08:37:02.85Z</time></trkpt><trkpt lat="46.084530534922" lon="12.133208348305287"><ele>315.0</ele><time>2026-04-12T08:37:03.85Z</time></trkpt><trkpt lat="46.08434520689341" lon="12.133364390875654"><ele>315.0</ele><time>2026-04-12T08:37:04.85Z</time></trkpt><trkpt lat="46.08416331933372" lon="12.1335094883762"><ele>315.0</ele><time>2026-04-12T08:37:05.85Z</time></trkpt><trkpt lat="46.083986192084666" lon="12.13366289465724"><ele>315.0</ele><time>2026-04-12T08:37:06.85Z</time></trkpt><trkpt lat="46.08380859293524" lon="12.133817364865548"><ele>315.0</ele><time>2026-04-12T08:37:07.85Z</time></trkpt><trkpt lat="46.08362793262022" lon="12.133969782631826"><ele>315.0</ele><time>2026-04-12T08:37:08.85Z</time></trkpt><trkpt lat="46.083448165976215" lon="12.134115976769035"><ele>315.0</ele><time>2026-04-12T08:37:09.85Z</time></trkpt><trkpt lat="46.08327069031974" lon="12.134261433000777"><ele>316.0</ele><time>2026-04-12T08:37:10.85Z</time></trkpt><trkpt lat="46.08310278279291" lon="12.13440752121181"><ele>317.0</ele><time>2026-04-12T08:37:11.85Z</time></trkpt><trkpt lat="46.08294450745772" lon="12.134545357908975"><ele>318.0</ele><time>2026-04-12T08:37:12.85Z</time></trkpt><trkpt lat="46.082791522114974" lon="12.134667877105747"><ele>318.0</ele><time>2026-04-12T08:37:13.85Z</time></trkpt><trkpt lat="46.08264844530323" lon="12.13478529283146"><ele>318.0</ele><time>2026-04-12T08:37:14.85Z</time></trkpt><trkpt lat="46.08250718712404" lon="12.134903149501636"><ele>318.0</ele><time>2026-04-12T08:37:15.85Z</time></trkpt><trkpt lat="46.08237281503617" lon="12.135014027205564"><ele>318.5</ele><time>2026-04-12T08:37:16.85Z</time></trkpt><trkpt lat="46.08225635266619" lon="12.135108805250693"><ele>319.0</ele><time>2026-04-12T08:37:17.85Z</time></trkpt><trkpt lat="46.08216435289366" lon="12.135159725914587"><ele>319.5</ele><time>2026-04-12T08:37:18.85Z</time></trkpt><trkpt lat="46.082059133689825" lon="12.135235087976536"><ele>320.0</ele><time>2026-04-12T08:37:20.85Z</time></trkpt><trkpt lat="46.08180816843962" lon="12.135467510930392"><ele>320.0</ele><time>2026-04-12T08:37:21.85Z</time></trkpt><trkpt lat="46.08172556287655" lon="12.135488766720668"><ele>320.0</ele><time>2026-04-12T08:37:22.85Z</time></trkpt><trkpt lat="46.081671240746594" lon="12.135540238942701"><ele>320.0</ele><time>2026-04-12T08:37:23.85Z</time></trkpt><trkpt lat="46.08146441615891" lon="12.135280681454558"><ele>320.0</ele><time>2026-04-12T08:37:25.85Z</time></trkpt><trkpt lat="46.08140172815073" lon="12.135133580206174"><ele>319.75</ele><time>2026-04-12T08:37:26.85Z</time></trkpt><trkpt lat="46.0813765308898" lon="12.135006688844689"><ele>319.5</ele><time>2026-04-12T08:37:27.85Z</time></trkpt><trkpt lat="46.081403878542986" lon="12.134807742109823"><ele>319.25</ele><time>2026-04-12T08:37:28.85Z</time></trkpt><trkpt lat="46.081460587851275" lon="12.134652541034592"><ele>319.0</ele><time>2026-04-12T08:37:29.85Z</time></trkpt><trkpt lat="46.08154687254016" lon="12.134538262068816"><ele>319.0</ele><time>2026-04-12T08:37:30.85Z</time></trkpt><trkpt lat="46.08164881413971" lon="12.134468787314074"><ele>319.0</ele><time>2026-04-12T08:37:31.85Z</time></trkpt><trkpt lat="46.08176114840622" lon="12.134440967549082"><ele>319.0</ele><time>2026-04-12T08:37:32.85Z</time></trkpt><trkpt lat="46.081876304763476" lon="12.134474613510985"><ele>319.0</ele><time>2026-04-12T08:37:33.85Z</time></trkpt><trkpt lat="46.081972467231964" lon="12.134562660086115"><ele>319.0</ele><time>2026-04-12T08:37:34.85Z</time></trkpt><trkpt lat="46.08205801416193" lon="12.134700999438476"><ele>319.0</ele><time>2026-04-12T08:37:35.85Z</time></trkpt><trkpt lat="46.08212930294347" lon="12.134875799518884"><ele>319.0</ele><time>2026-04-12T08:37:36.85Z</time></trkpt><trkpt lat="46.08221364127622" lon="12.135058667406222"><ele>319.0</ele><time>2026-04-12T08:37:37.85Z</time></trkpt><trkpt lat="46.082308605167626" lon="12.135250764893629"><ele>319.0</ele><time>2026-04-12T08:37:38.85Z</time></trkpt><trkpt lat="46.08240393363732" lon="12.135467330467817"><ele>319.0</ele><time>2026-04-12T08:37:39.85Z</time></trkpt><trkpt lat="46.08250003545236" lon="12.135700990019496"><ele>319.0</ele><time>2026-04-12T08:37:40.85Z</time></trkpt><trkpt lat="46.08259431375459" lon="12.135964099540594"><ele>321.0</ele><time>2026-04-12T08:37:41.85Z</time></trkpt><trkpt lat="46.082679965275005" lon="12.13626565325352"><ele>323.0</ele><time>2026-04-12T08:37:42.85Z</time></trkpt><trkpt lat="46.08276553989237" lon="12.13659441229433"><ele>323.0</ele><time>2026-04-12T08:37:43.85Z</time></trkpt><trkpt lat="46.08284738527214" lon="12.137010148344938"><ele>323.0</ele><time>2026-04-12T08:37:44.85Z</time></trkpt><trkpt lat="46.08290871639471" lon="12.137394199025703"><ele>324.0</ele><time>2026-04-12T08:37:45.85Z</time></trkpt><trkpt lat="46.08297466126819" lon="12.137800781286039"><ele>325.0</ele><time>2026-04-12T08:37:46.85Z</time></trkpt><trkpt lat="46.083040218158764" lon="12.138207986816584"><ele>326.0</ele><time>2026-04-12T08:37:47.85Z</time></trkpt><trkpt lat="46.08310359908677" lon="12.138571520562435"><ele>327.0</ele><time>2026-04-12T08:37:48.85Z</time></trkpt><trkpt lat="46.08316568909947" lon="12.138921744492377"><ele>328.0</ele><time>2026-04-12T08:37:49.85Z</time></trkpt><trkpt lat="46.083229607722835" lon="12.139274989466019"><ele>329.0</ele><time>2026-04-12T08:37:50.85Z</time></trkpt><trkpt lat="46.08329115653168" lon="12.139627228949456"><ele>327.5</ele><time>2026-04-12T08:37:51.85Z</time></trkpt><trkpt lat="46.08335339512597" lon="12.139982641091512"><ele>326.0</ele><time>2026-04-12T08:37:52.85Z</time></trkpt><trkpt lat="46.08341517000353" lon="12.140336961107245"><ele>326.0</ele><time>2026-04-12T08:37:53.85Z</time></trkpt><trkpt lat="46.08347589214938" lon="12.140693639700599"><ele>326.0</ele><time>2026-04-12T08:37:54.85Z</time></trkpt><trkpt lat="46.08353438580895" lon="12.14105441749375"><ele>327.5</ele><time>2026-04-12T08:37:55.85Z</time></trkpt><trkpt lat="46.0835923923037" lon="12.141393353001645"><ele>329.0</ele><time>2026-04-12T08:37:56.85Z</time></trkpt><trkpt lat="46.08364838528092" lon="12.141711360955634"><ele>329.5</ele><time>2026-04-12T08:37:57.85Z</time></trkpt><trkpt lat="46.083701792849176" lon="12.142032955681447"><ele>330.0</ele><time>2026-04-12T08:37:58.85Z</time></trkpt><trkpt lat="46.08375722875257" lon="12.14236393187195"><ele>329.5</ele><time>2026-04-12T08:37:59.85Z</time></trkpt><trkpt lat="46.08381085564835" lon="12.142687496877423"><ele>329.0</ele><time>2026-04-12T08:38:00.85Z</time></trkpt><trkpt lat="46.083869753723555" lon="12.143011568183123"><ele>330.0</ele><time>2026-04-12T08:38:01.85Z</time></trkpt><trkpt lat="46.08393066368106" lon="12.143333607697373"><ele>331.0</ele><time>2026-04-12T08:38:02.85Z</time></trkpt><trkpt lat="46.0839868143681" lon="12.143659495024695"><ele>331.0</ele><time>2026-04-12T08:38:03.85Z</time></trkpt><trkpt lat="46.08404072426114" lon="12.143987464281548"><ele>331.0</ele><time>2026-04-12T08:38:04.85Z</time></trkpt><trkpt lat="46.084095882881385" lon="12.144318737353569"><ele>330.0</ele><time>2026-04-12T08:38:05.85Z</time></trkpt><trkpt lat="46.08415738463244" lon="12.144653961264623"><ele>329.0</ele><time>2026-04-12T08:38:06.85Z</time></trkpt><trkpt lat="46.084220452955925" lon="12.14499793640751"><ele>329.0</ele><time>2026-04-12T08:38:07.85Z</time></trkpt><trkpt lat="46.084291864231716" lon="12.145347224657774"><ele>329.0</ele><time>2026-04-12T08:38:08.85Z</time></trkpt><trkpt lat="46.08437265672079" lon="12.145696444591739"><ele>330.0</ele><time>2026-04-12T08:38:09.85Z</time></trkpt><trkpt lat="46.084465565263976" lon="12.146049029898718"><ele>331.0</ele><time>2026-04-12T08:38:10.85Z</time></trkpt><trkpt lat="46.08456219813745" lon="12.146403378351696"><ele>331.5</ele><time>2026-04-12T08:38:11.85Z</time></trkpt><trkpt lat="46.08466638753546" lon="12.146761435562532"><ele>332.0</ele><time>2026-04-12T08:38:12.85Z</time></trkpt><trkpt lat="46.0847808664148" lon="12.147126764201664"><ele>330.5</ele><time>2026-04-12T08:38:13.85Z</time></trkpt><trkpt lat="46.08489873321818" lon="12.147502252474682"><ele>329.0</ele><time>2026-04-12T08:38:14.85Z</time></trkpt><trkpt lat="46.08502254656602" lon="12.147884977231499"><ele>326.0</ele><time>2026-04-12T08:38:15.85Z</time></trkpt><trkpt lat="46.08515005805163" lon="12.148259011794346"><ele>323.0</ele><time>2026-04-12T08:38:16.85Z</time></trkpt><trkpt lat="46.08526930320936" lon="12.148617876876088"><ele>323.0</ele><time>2026-04-12T08:38:17.85Z</time></trkpt><trkpt lat="46.085386414323814" lon="12.148968392057478"><ele>323.0</ele><time>2026-04-12T08:38:18.85Z</time></trkpt><trkpt lat="46.08549626562099" lon="12.14931359840879"><ele>323.0</ele><time>2026-04-12T08:38:19.85Z</time></trkpt><trkpt lat="46.08560905428952" lon="12.149653505986212"><ele>323.0</ele><time>2026-04-12T08:38:20.85Z</time></trkpt><trkpt lat="46.085719807785416" lon="12.149988103314803"><ele>328.5</ele><time>2026-04-12T08:38:21.85Z</time></trkpt><trkpt lat="46.08582949946959" lon="12.150324076068314"><ele>334.0</ele><time>2026-04-12T08:38:22.85Z</time></trkpt><trkpt lat="46.0859358371117" lon="12.150662456050007"><ele>336.0</ele><time>2026-04-12T08:38:23.85Z</time></trkpt><trkpt lat="46.08604318974516" lon="12.151000464031688"><ele>338.0</ele><time>2026-04-12T08:38:24.85Z</time></trkpt><trkpt lat="46.08615240018832" lon="12.151337890486868"><ele>340.0</ele><time>2026-04-12T08:38:25.85Z</time></trkpt><trkpt lat="46.08626095789502" lon="12.151671833338911"><ele>342.0</ele><time>2026-04-12T08:38:26.85Z</time></trkpt><trkpt lat="46.08637814602455" lon="12.152020320017732"><ele>342.0</ele><time>2026-04-12T08:38:27.85Z</time></trkpt><trkpt lat="46.08648181682602" lon="12.152356037913647"><ele>342.0</ele><time>2026-04-12T08:38:28.85Z</time></trkpt><trkpt lat="46.08658925350473" lon="12.152681451095486"><ele>340.5</ele><time>2026-04-12T08:38:29.85Z</time></trkpt><trkpt lat="46.086696567364136" lon="12.15301082876977"><ele>339.0</ele><time>2026-04-12T08:38:30.85Z</time></trkpt><trkpt lat="46.08680403103675" lon="12.153338975806655"><ele>337.5</ele><time>2026-04-12T08:38:31.85Z</time></trkpt><trkpt lat="46.08691365915657" lon="12.153671104509169"><ele>336.0</ele><time>2026-04-12T08:38:32.85Z</time></trkpt><trkpt lat="46.08701909151775" lon="12.153997565229687"><ele>337.0</ele><time>2026-04-12T08:38:33.85Z</time></trkpt><trkpt lat="46.087126460128665" lon="12.154323361356163"><ele>338.0</ele><time>2026-04-12T08:38:34.85Z</time></trkpt><trkpt lat="46.087235917637244" lon="12.154651328215682"><ele>336.5</ele><time>2026-04-12T08:38:35.85Z</time></trkpt><trkpt lat="46.08734322700703" lon="12.154978955055"><ele>335.0</ele><time>2026-04-12T08:38:36.85Z</time></trkpt><trkpt lat="46.087450454622925" lon="12.155307531850218"><ele>332.0</ele><time>2026-04-12T08:38:37.85Z</time></trkpt><trkpt lat="46.08756085367815" lon="12.155637645050437"><ele>329.0</ele><time>2026-04-12T08:38:38.85Z</time></trkpt><trkpt lat="46.08766867396019" lon="12.155964302526769"><ele>327.0</ele><time>2026-04-12T08:38:39.85Z</time></trkpt><trkpt lat="46.08777313826616" lon="12.15629150623839"><ele>325.0</ele><time>2026-04-12T08:38:40.85Z</time></trkpt><trkpt lat="46.08787618806529" lon="12.156616786996556"><ele>325.0</ele><time>2026-04-12T08:38:41.85Z</time></trkpt><trkpt lat="46.08797988607781" lon="12.156939080641783"><ele>325.0</ele><time>2026-04-12T08:38:42.851Z</time></trkpt><trkpt lat="46.088078575612315" lon="12.157255856540978"><ele>325.5</ele><time>2026-04-12T08:38:43.851Z</time></trkpt><trkpt lat="46.08818008027341" lon="12.157568914918409"><ele>326.0</ele><time>2026-04-12T08:38:44.851Z</time></trkpt><trkpt lat="46.08828106337238" lon="12.157878292986346"><ele>325.0</ele><time>2026-04-12T08:38:45.851Z</time></trkpt><trkpt lat="46.088383972705344" lon="12.15819231345237"><ele>324.0</ele><time>2026-04-12T08:38:46.851Z</time></trkpt><trkpt lat="46.08848498546345" lon="12.15850705559093"><ele>326.5</ele><time>2026-04-12T08:38:47.851Z</time></trkpt><trkpt lat="46.08858582094627" lon="12.158815106306816"><ele>329.0</ele><time>2026-04-12T08:38:48.851Z</time></trkpt><trkpt lat="46.088686541296795" lon="12.159129456024559"><ele>330.0</ele><time>2026-04-12T08:38:49.851Z</time></trkpt><trkpt lat="46.08878906475024" lon="12.159439678401366"><ele>331.0</ele><time>2026-04-12T08:38:50.851Z</time></trkpt><trkpt lat="46.08889246763431" lon="12.15974871317634"><ele>332.0</ele><time>2026-04-12T08:38:51.851Z</time></trkpt><trkpt lat="46.08900195004811" lon="12.160065759526125"><ele>333.0</ele><time>2026-04-12T08:38:52.851Z</time></trkpt><trkpt lat="46.08911226171024" lon="12.160362743546235"><ele>335.0</ele><time>2026-04-12T08:38:53.851Z</time></trkpt><trkpt lat="46.08922799534359" lon="12.160661701730184"><ele>337.0</ele><time>2026-04-12T08:38:54.851Z</time></trkpt><trkpt lat="46.08934784497494" lon="12.160957463363074"><ele>337.0</ele><time>2026-04-12T08:38:55.851Z</time></trkpt><trkpt lat="46.0894662218658" lon="12.161257611942203"><ele>337.0</ele><time>2026-04-12T08:38:56.851Z</time></trkpt><trkpt lat="46.089582244292416" lon="12.161553066461934"><ele>337.0</ele><time>2026-04-12T08:38:57.851Z</time></trkpt><trkpt lat="46.0897021379484" lon="12.16185102186817"><ele>337.0</ele><time>2026-04-12T08:38:58.851Z</time></trkpt><trkpt lat="46.089818105139834" lon="12.162143201819237"><ele>338.5</ele><time>2026-04-12T08:38:59.851Z</time></trkpt><trkpt lat="46.08993717007393" lon="12.162436595489222"><ele>340.0</ele><time>2026-04-12T08:39:00.851Z</time></trkpt><trkpt lat="46.09005698663073" lon="12.162727661715861"><ele>340.0</ele><time>2026-04-12T08:39:01.851Z</time></trkpt><trkpt lat="46.090175377517" lon="12.163022369667654"><ele>340.0</ele><time>2026-04-12T08:39:02.851Z</time></trkpt><trkpt lat="46.090292809080665" lon="12.163313527055111"><ele>340.0</ele><time>2026-04-12T08:39:03.851Z</time></trkpt><trkpt lat="46.09040943076125" lon="12.163594299842913"><ele>340.0</ele><time>2026-04-12T08:39:04.851Z</time></trkpt><trkpt lat="46.090526897353044" lon="12.16387530110633"><ele>339.66666666666663</ele><time>2026-04-12T08:39:05.851Z</time></trkpt><trkpt lat="46.09063599614516" lon="12.164153094433617"><ele>339.3333333333333</ele><time>2026-04-12T08:39:06.851Z</time></trkpt><trkpt lat="46.09074927962277" lon="12.164428590946716"><ele>339.0</ele><time>2026-04-12T08:39:07.851Z</time></trkpt><trkpt lat="46.09087761044026" lon="12.164691189250368"><ele>341.0</ele><time>2026-04-12T08:39:08.851Z</time></trkpt><trkpt lat="46.09099742328362" lon="12.164923121520061"><ele>343.0</ele><time>2026-04-12T08:39:09.851Z</time></trkpt><trkpt lat="46.091123488865854" lon="12.16515505815789"><ele>345.0</ele><time>2026-04-12T08:39:10.851Z</time></trkpt><trkpt lat="46.091250180438344" lon="12.165390947794469"><ele>345.0</ele><time>2026-04-12T08:39:11.851Z</time></trkpt><trkpt lat="46.09138373874869" lon="12.16561864088351"><ele>345.0</ele><time>2026-04-12T08:39:12.851Z</time></trkpt><trkpt lat="46.091521328204365" lon="12.165834927966335"><ele>345.0</ele><time>2026-04-12T08:39:13.851Z</time></trkpt><trkpt lat="46.091666199338775" lon="12.16605053948754"><ele>345.6666666666667</ele><time>2026-04-12T08:39:14.851Z</time></trkpt><trkpt lat="46.091812588715584" lon="12.166274443328025"><ele>346.33333333333337</ele><time>2026-04-12T08:39:15.851Z</time></trkpt><trkpt lat="46.091958338099914" lon="12.1665081532357"><ele>347.0</ele><time>2026-04-12T08:39:16.851Z</time></trkpt><trkpt lat="46.09210199141964" lon="12.166754015207996"><ele>347.0</ele><time>2026-04-12T08:39:17.851Z</time></trkpt><trkpt lat="46.09224760591742" lon="12.16700611035794"><ele>347.0</ele><time>2026-04-12T08:39:18.851Z</time></trkpt><trkpt lat="46.09240185417438" lon="12.167257244339524"><ele>347.5</ele><time>2026-04-12T08:39:19.851Z</time></trkpt><trkpt lat="46.0925555126221" lon="12.167507372206266"><ele>348.0</ele><time>2026-04-12T08:39:20.851Z</time></trkpt><trkpt lat="46.09270924766016" lon="12.167759103073779"><ele>348.0</ele><time>2026-04-12T08:39:21.851Z</time></trkpt><trkpt lat="46.09286536862617" lon="12.168006460434786"><ele>348.0</ele><time>2026-04-12T08:39:22.851Z</time></trkpt><trkpt lat="46.09301738051648" lon="12.168257432071842"><ele>348.0</ele><time>2026-04-12T08:39:23.851Z</time></trkpt><trkpt lat="46.09316701170221" lon="12.168508186672875"><ele>348.0</ele><time>2026-04-12T08:39:24.851Z</time></trkpt><trkpt lat="46.093312956633454" lon="12.168752586803137"><ele>350.0</ele><time>2026-04-12T08:39:25.851Z</time></trkpt><trkpt lat="46.09346311037544" lon="12.168998539489975"><ele>352.0</ele><time>2026-04-12T08:39:26.851Z</time></trkpt><trkpt lat="46.093608312422155" lon="12.16924236238364"><ele>352.0</ele><time>2026-04-12T08:39:27.851Z</time></trkpt><trkpt lat="46.0937541605112" lon="12.169482066534853"><ele>352.0</ele><time>2026-04-12T08:39:28.851Z</time></trkpt><trkpt lat="46.09389870687256" lon="12.169718891824598"><ele>352.0</ele><time>2026-04-12T08:39:29.851Z</time></trkpt><trkpt lat="46.09404343940488" lon="12.16995171488883"><ele>352.0</ele><time>2026-04-12T08:39:30.851Z</time></trkpt><trkpt lat="46.09418857080751" lon="12.170185240057677"><ele>352.0</ele><time>2026-04-12T08:39:31.851Z</time></trkpt><trkpt lat="46.09433329687316" lon="12.170425269648721"><ele>352.0</ele><time>2026-04-12T08:39:32.851Z</time></trkpt><trkpt lat="46.0944679260611" lon="12.170659292035362"><ele>350.3333333333333</ele><time>2026-04-12T08:39:33.851Z</time></trkpt><trkpt lat="46.09459908525214" lon="12.170881310035558"><ele>348.6666666666667</ele><time>2026-04-12T08:39:34.851Z</time></trkpt><trkpt lat="46.09474050693181" lon="12.171100596042441"><ele>347.0</ele><time>2026-04-12T08:39:35.851Z</time></trkpt><trkpt lat="46.09488775894381" lon="12.171310572734608"><ele>346.33333333333337</ele><time>2026-04-12T08:39:36.851Z</time></trkpt><trkpt lat="46.09504038317009" lon="12.171507482076631"><ele>345.6666666666667</ele><time>2026-04-12T08:39:37.851Z</time></trkpt><trkpt lat="46.09519462418695" lon="12.171685268863454"><ele>345.0</ele><time>2026-04-12T08:39:38.851Z</time></trkpt><trkpt lat="46.095343613360214" lon="12.171846040913277"><ele>345.0</ele><time>2026-04-12T08:39:39.851Z</time></trkpt><trkpt lat="46.09548854830688" lon="12.17199552400537"><ele>345.0</ele><time>2026-04-12T08:39:40.851Z</time></trkpt><trkpt lat="46.0956303858791" lon="12.172128288137078"><ele>345.0</ele><time>2026-04-12T08:39:41.851Z</time></trkpt><trkpt lat="46.09575454491454" lon="12.172237256570671"><ele>345.0</ele><time>2026-04-12T08:39:42.851Z</time></trkpt><trkpt lat="46.095868527184564" lon="12.172328463334154"><ele>345.0</ele><time>2026-04-12T08:39:43.851Z</time></trkpt><trkpt lat="46.095968106145705" lon="12.17240241952933"><ele>345.0</ele><time>2026-04-12T08:39:44.851Z</time></trkpt><trkpt lat="46.09606271426693" lon="12.172453976928315"><ele>345.0</ele><time>2026-04-12T08:39:45.851Z</time></trkpt><trkpt lat="46.09617059395172" lon="12.17249453479578"><ele>345.0</ele><time>2026-04-12T08:39:46.851Z</time></trkpt><trkpt lat="46.09626905643278" lon="12.172539224709052"><ele>345.0</ele><time>2026-04-12T08:39:47.851Z</time></trkpt><trkpt lat="46.09635713235698" lon="12.172599867245038"><ele>345.0</ele><time>2026-04-12T08:39:48.851Z</time></trkpt><trkpt lat="46.0964337405086" lon="12.172643945369071"><ele>345.0</ele><time>2026-04-12T08:39:49.851Z</time></trkpt><trkpt lat="46.09651162344713" lon="12.17266901152554"><ele>345.0</ele><time>2026-04-12T08:39:50.851Z</time></trkpt><trkpt lat="46.09657827483132" lon="12.172708721492866"><ele>345.0</ele><time>2026-04-12T08:39:51.851Z</time></trkpt><trkpt lat="46.0966365635861" lon="12.172773378010852"><ele>346.0</ele><time>2026-04-12T08:39:52.851Z</time></trkpt><trkpt lat="46.09668935713026" lon="12.17285710359089"><ele>347.0</ele><time>2026-04-12T08:39:53.851Z</time></trkpt><trkpt lat="46.09676036617213" lon="12.17294354469035"><ele>348.0</ele><time>2026-04-12T08:39:54.851Z</time></trkpt><trkpt lat="46.09684677488845" lon="12.172975087132421"><ele>349.0</ele><time>2026-04-12T08:39:55.851Z</time></trkpt><trkpt lat="46.09694364185961" lon="12.172973257607579"><ele>350.0</ele><time>2026-04-12T08:39:56.851Z</time></trkpt><trkpt lat="46.09704097577748" lon="12.172986040885773"><ele>350.0</ele><time>2026-04-12T08:39:57.851Z</time></trkpt><trkpt lat="46.09712634568227" lon="12.173028252733342"><ele>350.0</ele><time>2026-04-12T08:39:58.851Z</time></trkpt><trkpt lat="46.09720328841082" lon="12.173065724219729"><ele>350.0</ele><time>2026-04-12T08:39:59.851Z</time></trkpt><trkpt lat="46.09728736270752" lon="12.173091935942068"><ele>350.0</ele><time>2026-04-12T08:40:00.851Z</time></trkpt><trkpt lat="46.097374957281716" lon="12.173132320032753"><ele>350.0</ele><time>2026-04-12T08:40:01.851Z</time></trkpt><trkpt lat="46.09746861126533" lon="12.17316869416254"><ele>350.0</ele><time>2026-04-12T08:40:02.851Z</time></trkpt><trkpt lat="46.097556696031596" lon="12.173207795343629"><ele>350.1666666666667</ele><time>2026-04-12T08:40:03.851Z</time></trkpt><trkpt lat="46.09764171598091" lon="12.17324600204042"><ele>350.33333333333337</ele><time>2026-04-12T08:40:04.851Z</time></trkpt><trkpt lat="46.09772156523905" lon="12.173279988196928"><ele>350.5</ele><time>2026-04-12T08:40:05.851Z</time></trkpt><trkpt lat="46.09780228983944" lon="12.173316244154003"><ele>350.6666666666667</ele><time>2026-04-12T08:40:06.851Z</time></trkpt><trkpt lat="46.097872632171054" lon="12.17334905926364"><ele>350.8333333333333</ele><time>2026-04-12T08:40:07.851Z</time></trkpt><trkpt lat="46.0979420554927" lon="12.173386466185793"><ele>351.0</ele><time>2026-04-12T08:40:08.851Z</time></trkpt><trkpt lat="46.09801473075519" lon="12.173420018940037"><ele>351.0</ele><time>2026-04-12T08:40:09.851Z</time></trkpt><trkpt lat="46.0980911788457" lon="12.173458434323921"><ele>351.0</ele><time>2026-04-12T08:40:10.851Z</time></trkpt><trkpt lat="46.09816625725304" lon="12.173493278737235"><ele>351.0</ele><time>2026-04-12T08:40:11.851Z</time></trkpt><trkpt lat="46.09824772408849" lon="12.173538233733057"><ele>351.0</ele><time>2026-04-12T08:40:12.851Z</time></trkpt><trkpt lat="46.098337107532586" lon="12.173576328944753"><ele>351.0</ele><time>2026-04-12T08:40:13.851Z</time></trkpt><trkpt lat="46.09842101370553" lon="12.173613031398936"><ele>351.0</ele><time>2026-04-12T08:40:14.851Z</time></trkpt><trkpt lat="46.09851870809084" lon="12.173661105769032"><ele>350.6</ele><time>2026-04-12T08:40:15.851Z</time></trkpt><trkpt lat="46.098618486050945" lon="12.173714959735948"><ele>350.20000000000005</ele><time>2026-04-12T08:40:16.851Z</time></trkpt><trkpt lat="46.09872645124229" lon="12.173772238751532"><ele>349.79999999999995</ele><time>2026-04-12T08:40:17.851Z</time></trkpt><trkpt lat="46.09883952268677" lon="12.173847527476699"><ele>349.4</ele><time>2026-04-12T08:40:18.851Z</time></trkpt><trkpt lat="46.09892490051723" lon="12.17392788147251"><ele>349.0</ele><time>2026-04-12T08:40:19.851Z</time></trkpt><trkpt lat="46.09901216437605" lon="12.173994998462707"><ele>348.5</ele><time>2026-04-12T08:40:20.851Z</time></trkpt><trkpt lat="46.09910890164718" lon="12.174074055550818"><ele>348.0</ele><time>2026-04-12T08:40:21.851Z</time></trkpt><trkpt lat="46.099200961053995" lon="12.174168836080689"><ele>347.5</ele><time>2026-04-12T08:40:22.851Z</time></trkpt><trkpt lat="46.09925710926356" lon="12.174269465943311"><ele>347.0</ele><time>2026-04-12T08:40:23.851Z</time></trkpt><trkpt lat="46.099706045394996" lon="12.174269481652864"><ele>347.0</ele><time>2026-04-12T08:40:24.851Z</time></trkpt><trkpt lat="46.099816249087496" lon="12.174355450862551"><ele>347.0</ele><time>2026-04-12T08:40:25.851Z</time></trkpt><trkpt lat="46.09991276354464" lon="12.17444377675724"><ele>347.0</ele><time>2026-04-12T08:40:26.851Z</time></trkpt><trkpt lat="46.100011315260154" lon="12.17454366579899"><ele>347.0</ele><time>2026-04-12T08:40:27.851Z</time></trkpt><trkpt lat="46.10013152459898" lon="12.174663558648637"><ele>347.0</ele><time>2026-04-12T08:40:28.851Z</time></trkpt><trkpt lat="46.10025911284696" lon="12.17481181081973"><ele>347.0</ele><time>2026-04-12T08:40:29.851Z</time></trkpt><trkpt lat="46.100398877898" lon="12.174999337696494"><ele>347.0</ele><time>2026-04-12T08:40:30.851Z</time></trkpt><trkpt lat="46.10054386151229" lon="12.17522043098881"><ele>347.0</ele><time>2026-04-12T08:40:31.851Z</time></trkpt><trkpt lat="46.10069104496392" lon="12.175475965873936"><ele>347.0</ele><time>2026-04-12T08:40:32.851Z</time></trkpt><trkpt lat="46.10084903660613" lon="12.175772183200172"><ele>344.5</ele><time>2026-04-12T08:40:33.851Z</time></trkpt><trkpt lat="46.10099889085183" lon="12.176115712147725"><ele>342.0</ele><time>2026-04-12T08:40:34.851Z</time></trkpt><trkpt lat="46.10114860061024" lon="12.1764983531994"><ele>342.5</ele><time>2026-04-12T08:40:35.851Z</time></trkpt><trkpt lat="46.10130450825706" lon="12.17690704809497"><ele>343.0</ele><time>2026-04-12T08:40:36.851Z</time></trkpt><trkpt lat="46.101466748577714" lon="12.17732198290785"><ele>343.0</ele><time>2026-04-12T08:40:37.851Z</time></trkpt><trkpt lat="46.10161019864839" lon="12.177685459099655"><ele>343.0</ele><time>2026-04-12T08:40:38.851Z</time></trkpt><trkpt lat="46.10175281571127" lon="12.178042502915261"><ele>343.5</ele><time>2026-04-12T08:40:39.851Z</time></trkpt><trkpt lat="46.101897971508166" lon="12.178405821141034"><ele>344.0</ele><time>2026-04-12T08:40:40.851Z</time></trkpt><trkpt lat="46.1020491017962" lon="12.17879027976765"><ele>343.5</ele><time>2026-04-12T08:40:41.851Z</time></trkpt><trkpt lat="46.1022055613703" lon="12.179184418346523"><ele>343.0</ele><time>2026-04-12T08:40:42.851Z</time></trkpt><trkpt lat="46.102372514125456" lon="12.179602496896997"><ele>343.0</ele><time>2026-04-12T08:40:43.851Z</time></trkpt><trkpt lat="46.102536394277365" lon="12.180007405708833"><ele>343.0</ele><time>2026-04-12T08:40:44.851Z</time></trkpt><trkpt lat="46.102677911239276" lon="12.180370039088727"><ele>343.0</ele><time>2026-04-12T08:40:45.851Z</time></trkpt><trkpt lat="46.1028065531074" lon="12.18070327106409"><ele>343.0</ele><time>2026-04-12T08:40:46.851Z</time></trkpt><trkpt lat="46.102926665402116" lon="12.181012360875474"><ele>343.0</ele><time>2026-04-12T08:40:47.851Z</time></trkpt><trkpt lat="46.103043493189304" lon="12.181302652497806"><ele>343.0</ele><time>2026-04-12T08:40:48.853Z</time></trkpt><trkpt lat="46.10315347864147" lon="12.181578152184604"><ele>343.66666666666663</ele><time>2026-04-12T08:40:49.853Z</time></trkpt><trkpt lat="46.103257942601935" lon="12.181847421610753"><ele>344.3333333333333</ele><time>2026-04-12T08:40:50.853Z</time></trkpt><trkpt lat="46.10336356232694" lon="12.182121292928374"><ele>345.0</ele><time>2026-04-12T08:40:51.853Z</time></trkpt><trkpt lat="46.10346947179929" lon="12.182398388603799"><ele>345.5</ele><time>2026-04-12T08:40:52.853Z</time></trkpt><trkpt lat="46.10357772906506" lon="12.182681341958403"><ele>346.0</ele><time>2026-04-12T08:40:53.853Z</time></trkpt><trkpt lat="46.10369358318376" lon="12.182965399562866"><ele>347.0</ele><time>2026-04-12T08:40:54.853Z</time></trkpt><trkpt lat="46.10380591982783" lon="12.183237414811106"><ele>348.0</ele><time>2026-04-12T08:40:55.853Z</time></trkpt><trkpt lat="46.10390751298424" lon="12.183493303730543"><ele>349.0</ele><time>2026-04-12T08:40:56.853Z</time></trkpt><trkpt lat="46.10401120647274" lon="12.18375602288424"><ele>349.3333333333333</ele><time>2026-04-12T08:40:57.853Z</time></trkpt><trkpt lat="46.10412096732299" lon="12.18402301473969"><ele>349.6666666666667</ele><time>2026-04-12T08:40:58.853Z</time></trkpt><trkpt lat="46.10422941468545" lon="12.184284290711917"><ele>350.0</ele><time>2026-04-12T08:40:59.853Z</time></trkpt><trkpt lat="46.10433577110575" lon="12.184539055065146"><ele>350.0</ele><time>2026-04-12T08:41:00.853Z</time></trkpt><trkpt lat="46.10443292742704" lon="12.184793371471933"><ele>350.0</ele><time>2026-04-12T08:41:01.853Z</time></trkpt><trkpt lat="46.104530256694005" lon="12.185045256690154"><ele>350.0</ele><time>2026-04-12T08:41:02.853Z</time></trkpt><trkpt lat="46.104628615679715" lon="12.185296502318588"><ele>350.6666666666667</ele><time>2026-04-12T08:41:03.853Z</time></trkpt><trkpt lat="46.104729143926924" lon="12.185549725560053"><ele>351.3333333333333</ele><time>2026-04-12T08:41:04.853Z</time></trkpt><trkpt lat="46.10482953314946" lon="12.18580065297803"><ele>352.0</ele><time>2026-04-12T08:41:05.853Z</time></trkpt><trkpt lat="46.104933672055054" lon="12.186053814660402"><ele>352.0</ele><time>2026-04-12T08:41:06.853Z</time></trkpt><trkpt lat="46.105033847705414" lon="12.186305683234513"><ele>352.0</ele><time>2026-04-12T08:41:07.853Z</time></trkpt><trkpt lat="46.10513231142463" lon="12.186559403659485"><ele>352.0</ele><time>2026-04-12T08:41:08.853Z</time></trkpt><trkpt lat="46.10523171591329" lon="12.186812498880624"><ele>352.66666666666663</ele><time>2026-04-12T08:41:09.853Z</time></trkpt><trkpt lat="46.10533058006591" lon="12.18706063934199"><ele>353.3333333333333</ele><time>2026-04-12T08:41:10.853Z</time></trkpt><trkpt lat="46.10542979536618" lon="12.187297514555988"><ele>354.0</ele><time>2026-04-12T08:41:11.853Z</time></trkpt><trkpt lat="46.1055217123283" lon="12.187527762487719"><ele>353.6666666666667</ele><time>2026-04-12T08:41:12.853Z</time></trkpt><trkpt lat="46.1056077757802" lon="12.187747440480091"><ele>353.33333333333337</ele><time>2026-04-12T08:41:13.853Z</time></trkpt><trkpt lat="46.10569092125113" lon="12.18795616924775"><ele>353.0</ele><time>2026-04-12T08:41:14.853Z</time></trkpt><trkpt lat="46.10577039569879" lon="12.188166094008569"><ele>353.6666666666667</ele><time>2026-04-12T08:41:15.853Z</time></trkpt><trkpt lat="46.10585105917141" lon="12.188371718642683"><ele>354.3333333333333</ele><time>2026-04-12T08:41:16.853Z</time></trkpt><trkpt lat="46.10592865856171" lon="12.188563365003354"><ele>355.0</ele><time>2026-04-12T08:41:17.853Z</time></trkpt><trkpt lat="46.106013419880476" lon="12.188762353685302"><ele>355.0</ele><time>2026-04-12T08:41:18.853Z</time></trkpt><trkpt lat="46.10608196707521" lon="12.188941873721241"><ele>355.0</ele><time>2026-04-12T08:41:19.853Z</time></trkpt><trkpt lat="46.10614811742639" lon="12.189114446466691"><ele>355.0</ele><time>2026-04-12T08:41:20.853Z</time></trkpt><trkpt lat="46.106221305066676" lon="12.189295171587819"><ele>355.0</ele><time>2026-04-12T08:41:21.853Z</time></trkpt><trkpt lat="46.10627560161349" lon="12.189470725244469"><ele>354.66666666666663</ele><time>2026-04-12T08:41:22.853Z</time></trkpt><trkpt lat="46.1063381061008" lon="12.189673922670067"><ele>354.3333333333333</ele><time>2026-04-12T08:41:23.853Z</time></trkpt><trkpt lat="46.106405588590604" lon="12.189883409658812"><ele>354.0</ele><time>2026-04-12T08:41:24.853Z</time></trkpt><trkpt lat="46.10647159731353" lon="12.190097978275682"><ele>355.0</ele><time>2026-04-12T08:41:25.853Z</time></trkpt><trkpt lat="46.10654071725649" lon="12.190321124600429"><ele>356.0</ele><time>2026-04-12T08:41:26.853Z</time></trkpt><trkpt lat="46.10660449599804" lon="12.190548741904157"><ele>357.0</ele><time>2026-04-12T08:41:27.853Z</time></trkpt><trkpt lat="46.10666495923241" lon="12.190770343789643"><ele>357.5</ele><time>2026-04-12T08:41:28.853Z</time></trkpt><trkpt lat="46.10671985406705" lon="12.190981880120166"><ele>358.0</ele><time>2026-04-12T08:41:29.853Z</time></trkpt><trkpt lat="46.10677243977047" lon="12.191183282596038"><ele>358.5</ele><time>2026-04-12T08:41:30.853Z</time></trkpt><trkpt lat="46.10682279390022" lon="12.191376728044979"><ele>359.0</ele><time>2026-04-12T08:41:31.853Z</time></trkpt><trkpt lat="46.10686276006274" lon="12.191549197218967"><ele>359.0</ele><time>2026-04-12T08:41:32.853Z</time></trkpt><trkpt lat="46.10689607901995" lon="12.191703467247395"><ele>359.0</ele><time>2026-04-12T08:41:33.853Z</time></trkpt><trkpt lat="46.10692456527386" lon="12.191843302129264"><ele>359.0</ele><time>2026-04-12T08:41:34.853Z</time></trkpt><trkpt lat="46.106947658029924" lon="12.191968606749496"><ele>359.0</ele><time>2026-04-12T08:41:35.853Z</time></trkpt><trkpt lat="46.106973239699144" lon="12.192085815914558"><ele>359.0</ele><time>2026-04-12T08:41:36.853Z</time></trkpt><trkpt lat="46.106995388917404" lon="12.192200465755501"><ele>359.0</ele><time>2026-04-12T08:41:37.853Z</time></trkpt><trkpt lat="46.107012393942966" lon="12.192311642114959"><ele>359.0</ele><time>2026-04-12T08:41:38.853Z</time></trkpt><trkpt lat="46.10701855363736" lon="12.192419491291094"><ele>359.0</ele><time>2026-04-12T08:41:39.853Z</time></trkpt><trkpt lat="46.10700458292633" lon="12.19253692300452"><ele>359.0</ele><time>2026-04-12T08:41:40.853Z</time></trkpt><trkpt lat="46.10697511227019" lon="12.19264607217548"><ele>359.0</ele><time>2026-04-12T08:41:41.853Z</time></trkpt><trkpt lat="46.106970770785125" lon="12.19276956882552"><ele>359.0</ele><time>2026-04-12T08:41:42.853Z</time></trkpt><trkpt lat="46.107001866490485" lon="12.192886664391477"><ele>359.2</ele><time>2026-04-12T08:41:43.853Z</time></trkpt><trkpt lat="46.10705324393065" lon="12.192992898316923"><ele>359.4</ele><time>2026-04-12T08:41:44.853Z</time></trkpt><trkpt lat="46.10710895480529" lon="12.193077931314052"><ele>359.6</ele><time>2026-04-12T08:41:45.853Z</time></trkpt><trkpt lat="46.10714209114459" lon="12.193202971567557"><ele>359.8</ele><time>2026-04-12T08:41:46.853Z</time></trkpt><trkpt lat="46.107155163618735" lon="12.193353835302894"><ele>360.0</ele><time>2026-04-12T08:41:47.853Z</time></trkpt><trkpt lat="46.107166701519475" lon="12.19351718269252"><ele>360.25</ele><time>2026-04-12T08:41:48.853Z</time></trkpt><trkpt lat="46.107178990788505" lon="12.193689057289285"><ele>360.5</ele><time>2026-04-12T08:41:49.853Z</time></trkpt><trkpt lat="46.107194168973265" lon="12.193852108915939"><ele>360.75</ele><time>2026-04-12T08:41:50.853Z</time></trkpt><trkpt lat="46.10720961358625" lon="12.194005428517672"><ele>361.0</ele><time>2026-04-12T08:41:51.853Z</time></trkpt><trkpt lat="46.10722476395293" lon="12.194178315018966"><ele>361.0</ele><time>2026-04-12T08:41:52.853Z</time></trkpt><trkpt lat="46.10723856948729" lon="12.194376237195202"><ele>361.0</ele><time>2026-04-12T08:41:53.853Z</time></trkpt><trkpt lat="46.10725230357476" lon="12.194578560589983"><ele>361.0</ele><time>2026-04-12T08:41:54.853Z</time></trkpt><trkpt lat="46.10726663451903" lon="12.194777228938785"><ele>361.0</ele><time>2026-04-12T08:41:55.853Z</time></trkpt><trkpt lat="46.107280767344974" lon="12.194977073016005"><ele>361.3333333333333</ele><time>2026-04-12T08:41:56.853Z</time></trkpt><trkpt lat="46.107293828118294" lon="12.1951945882767"><ele>361.6666666666667</ele><time>2026-04-12T08:41:57.853Z</time></trkpt><trkpt lat="46.1073039359298" lon="12.195430855415129"><ele>362.0</ele><time>2026-04-12T08:41:58.853Z</time></trkpt><trkpt lat="46.107311353014154" lon="12.195670899621017"><ele>361.0</ele><time>2026-04-12T08:41:59.853Z</time></trkpt><trkpt lat="46.1073168735294" lon="12.195899184442045"><ele>360.0</ele><time>2026-04-12T08:42:00.853Z</time></trkpt><trkpt lat="46.107326174550224" lon="12.196126797120243"><ele>359.0</ele><time>2026-04-12T08:42:01.853Z</time></trkpt><trkpt lat="46.107341936301516" lon="12.196348594643306"><ele>358.25</ele><time>2026-04-12T08:42:02.853Z</time></trkpt><trkpt lat="46.10737092669492" lon="12.196565845860507"><ele>357.5</ele><time>2026-04-12T08:42:03.853Z</time></trkpt><trkpt lat="46.107414903312375" lon="12.196767733613367"><ele>356.75</ele><time>2026-04-12T08:42:04.853Z</time></trkpt><trkpt lat="46.10747226966982" lon="12.19695956935052"><ele>356.0</ele><time>2026-04-12T08:42:05.853Z</time></trkpt><trkpt lat="46.10753380685471" lon="12.197147541810425"><ele>354.25</ele><time>2026-04-12T08:42:06.853Z</time></trkpt><trkpt lat="46.10760117844363" lon="12.19733563972551"><ele>352.5</ele><time>2026-04-12T08:42:07.853Z</time></trkpt><trkpt lat="46.10767698364937" lon="12.197508385749533"><ele>350.75</ele><time>2026-04-12T08:42:08.853Z</time></trkpt><trkpt lat="46.107759548888346" lon="12.19766502983336"><ele>349.0</ele><time>2026-04-12T08:42:09.853Z</time></trkpt><trkpt lat="46.107846498946245" lon="12.197811753125304"><ele>349.0</ele><time>2026-04-12T08:42:10.853Z</time></trkpt><trkpt lat="46.10794529651484" lon="12.197957619290591"><ele>349.0</ele><time>2026-04-12T08:42:11.853Z</time></trkpt><trkpt lat="46.10804819295637" lon="12.198095248032155"><ele>349.0</ele><time>2026-04-12T08:42:12.853Z</time></trkpt><trkpt lat="46.108157791395676" lon="12.198226756413163"><ele>349.0</ele><time>2026-04-12T08:42:13.853Z</time></trkpt><trkpt lat="46.10827547737864" lon="12.198356400034662"><ele>350.0</ele><time>2026-04-12T08:42:14.853Z</time></trkpt><trkpt lat="46.10840911744055" lon="12.198481959266752"><ele>351.0</ele><time>2026-04-12T08:42:15.853Z</time></trkpt><trkpt lat="46.10855285481122" lon="12.198610110536062"><ele>352.0</ele><time>2026-04-12T08:42:16.853Z</time></trkpt><trkpt lat="46.108698253726836" lon="12.198745212209673"><ele>352.0</ele><time>2026-04-12T08:42:17.853Z</time></trkpt><trkpt lat="46.10885022375969" lon="12.198886931917256"><ele>352.0</ele><time>2026-04-12T08:42:18.853Z</time></trkpt><trkpt lat="46.109013988779886" lon="12.199039829842661"><ele>352.0</ele><time>2026-04-12T08:42:19.853Z</time></trkpt><trkpt lat="46.109188894406955" lon="12.19920275207411"><ele>352.66666666666663</ele><time>2026-04-12T08:42:20.853Z</time></trkpt><trkpt lat="46.109375878442904" lon="12.199373092996717"><ele>353.3333333333333</ele><time>2026-04-12T08:42:21.853Z</time></trkpt><trkpt lat="46.109566190302026" lon="12.19955140478769"><ele>354.0</ele><time>2026-04-12T08:42:22.853Z</time></trkpt><trkpt lat="46.1097598988899" lon="12.19973147656007"><ele>355.5</ele><time>2026-04-12T08:42:23.853Z</time></trkpt><trkpt lat="46.10996640546864" lon="12.199923040959657"><ele>357.0</ele><time>2026-04-12T08:42:24.853Z</time></trkpt><trkpt lat="46.11017156273947" lon="12.20011888311297"><ele>357.0</ele><time>2026-04-12T08:42:25.853Z</time></trkpt><trkpt lat="46.11036136821336" lon="12.200298620600945"><ele>357.0</ele><time>2026-04-12T08:42:26.853Z</time></trkpt><trkpt lat="46.11053513761909" lon="12.200463650987086"><ele>357.0</ele><time>2026-04-12T08:42:27.853Z</time></trkpt><trkpt lat="46.11070037250308" lon="12.200625237869104"><ele>360.6666666666667</ele><time>2026-04-12T08:42:28.853Z</time></trkpt><trkpt lat="46.11086635525929" lon="12.200788132198527"><ele>364.33333333333337</ele><time>2026-04-12T08:42:29.853Z</time></trkpt><trkpt lat="46.111035112407045" lon="12.200945072324858"><ele>368.0</ele><time>2026-04-12T08:42:30.853Z</time></trkpt><trkpt lat="46.11119763819455" lon="12.201100735386879"><ele>368.0</ele><time>2026-04-12T08:42:31.853Z</time></trkpt><trkpt lat="46.111368932151876" lon="12.201256150423669"><ele>368.0</ele><time>2026-04-12T08:42:32.853Z</time></trkpt><trkpt lat="46.111538898793185" lon="12.201407834200927"><ele>368.0</ele><time>2026-04-12T08:42:33.853Z</time></trkpt><trkpt lat="46.111704422570625" lon="12.201560390104804"><ele>368.0</ele><time>2026-04-12T08:42:34.853Z</time></trkpt><trkpt lat="46.11187313378784" lon="12.201718101479832"><ele>368.0</ele><time>2026-04-12T08:42:35.853Z</time></trkpt><trkpt lat="46.11204542118535" lon="12.201880454608379"><ele>368.0</ele><time>2026-04-12T08:42:36.853Z</time></trkpt><trkpt lat="46.112224239345906" lon="12.202051877249144"><ele>368.0</ele><time>2026-04-12T08:42:37.853Z</time></trkpt><trkpt lat="46.11240380270907" lon="12.202226384882438"><ele>368.0</ele><time>2026-04-12T08:42:38.853Z</time></trkpt><trkpt lat="46.11258632985337" lon="12.202406823130426"><ele>368.0</ele><time>2026-04-12T08:42:39.853Z</time></trkpt><trkpt lat="46.112767195391186" lon="12.202570592402038"><ele>366.5</ele><time>2026-04-12T08:42:40.853Z</time></trkpt><trkpt lat="46.11296075239314" lon="12.202748803126479"><ele>365.0</ele><time>2026-04-12T08:42:41.853Z</time></trkpt><trkpt lat="46.113149770581515" lon="12.20293465095571"><ele>363.0</ele><time>2026-04-12T08:42:42.853Z</time></trkpt><trkpt lat="46.113340483375865" lon="12.203116153856838"><ele>361.0</ele><time>2026-04-12T08:42:43.853Z</time></trkpt><trkpt lat="46.11353447590804" lon="12.203299456370429"><ele>361.0</ele><time>2026-04-12T08:42:44.853Z</time></trkpt><trkpt lat="46.113728505606225" lon="12.203483701768008"><ele>361.0</ele><time>2026-04-12T08:42:45.853Z</time></trkpt><trkpt lat="46.11392854650672" lon="12.203663728440917"><ele>356.5</ele><time>2026-04-12T08:42:46.853Z</time></trkpt><trkpt lat="46.11412600092392" lon="12.203844669819329"><ele>352.0</ele><time>2026-04-12T08:42:47.853Z</time></trkpt><trkpt lat="46.11432187725161" lon="12.20402638694093"><ele>352.0</ele><time>2026-04-12T08:42:48.853Z</time></trkpt><trkpt lat="46.11451812155057" lon="12.204212339682607"><ele>352.0</ele><time>2026-04-12T08:42:49.853Z</time></trkpt><trkpt lat="46.11471237072996" lon="12.204396451248417"><ele>348.5</ele><time>2026-04-12T08:42:50.853Z</time></trkpt><trkpt lat="46.11490631905024" lon="12.204577536625916"><ele>345.0</ele><time>2026-04-12T08:42:51.853Z</time></trkpt><trkpt lat="46.11509929632497" lon="12.204756579174527"><ele>345.5</ele><time>2026-04-12T08:42:52.853Z</time></trkpt><trkpt lat="46.115290567286436" lon="12.204935177855461"><ele>346.0</ele><time>2026-04-12T08:42:53.853Z</time></trkpt><trkpt lat="46.11547940331309" lon="12.205115795580973"><ele>346.0</ele><time>2026-04-12T08:42:54.854Z</time></trkpt><trkpt lat="46.11566680781535" lon="12.205291469194977"><ele>346.0</ele><time>2026-04-12T08:42:55.854Z</time></trkpt><trkpt lat="46.11585501037288" lon="12.205467674777664"><ele>346.0</ele><time>2026-04-12T08:42:56.854Z</time></trkpt><trkpt lat="46.11604248461922" lon="12.205642583355866"><ele>345.66666666666663</ele><time>2026-04-12T08:42:57.854Z</time></trkpt><trkpt lat="46.11622868208094" lon="12.205815395605589"><ele>345.3333333333333</ele><time>2026-04-12T08:42:58.854Z</time></trkpt><trkpt lat="46.11641420245916" lon="12.205991821790807"><ele>345.0</ele><time>2026-04-12T08:42:59.854Z</time></trkpt><trkpt lat="46.11658969458641" lon="12.206158973867652"><ele>345.0</ele><time>2026-04-12T08:43:00.854Z</time></trkpt><trkpt lat="46.11676387757758" lon="12.206322484434075"><ele>345.0</ele><time>2026-04-12T08:43:01.854Z</time></trkpt><trkpt lat="46.116932698454676" lon="12.206475318222296"><ele>345.0</ele><time>2026-04-12T08:43:02.854Z</time></trkpt><trkpt lat="46.11710262591734" lon="12.206625403772733"><ele>345.3333333333333</ele><time>2026-04-12T08:43:03.854Z</time></trkpt><trkpt lat="46.117276452681224" lon="12.206766863116254"><ele>345.66666666666663</ele><time>2026-04-12T08:43:04.854Z</time></trkpt><trkpt lat="46.117445048553854" lon="12.206872929864522"><ele>346.0</ele><time>2026-04-12T08:43:05.854Z</time></trkpt><trkpt lat="46.117610139807525" lon="12.20696437066331"><ele>346.3333333333333</ele><time>2026-04-12T08:43:06.854Z</time></trkpt><trkpt lat="46.117770390268696" lon="12.207035799005824"><ele>346.6666666666667</ele><time>2026-04-12T08:43:07.854Z</time></trkpt><trkpt lat="46.11793134008319" lon="12.207082313167948"><ele>347.0</ele><time>2026-04-12T08:43:08.854Z</time></trkpt><trkpt lat="46.11807465813769" lon="12.207109624072727"><ele>347.0</ele><time>2026-04-12T08:43:09.854Z</time></trkpt><trkpt lat="46.118203014546985" lon="12.207115546862596"><ele>347.0</ele><time>2026-04-12T08:43:10.854Z</time></trkpt><trkpt lat="46.118305446477294" lon="12.207114475175171"><ele>347.0</ele><time>2026-04-12T08:43:11.854Z</time></trkpt><trkpt lat="46.118413734708625" lon="12.207104837359397"><ele>347.0</ele><time>2026-04-12T08:43:12.854Z</time></trkpt><trkpt lat="46.11850552513459" lon="12.207085125558658"><ele>347.0</ele><time>2026-04-12T08:43:13.854Z</time></trkpt><trkpt lat="46.11859953991288" lon="12.207067484612764"><ele>346.6</ele><time>2026-04-12T08:43:14.854Z</time></trkpt><trkpt lat="46.118691404365286" lon="12.207078950783682"><ele>346.20000000000005</ele><time>2026-04-12T08:43:15.854Z</time></trkpt><trkpt lat="46.11877518798241" lon="12.207120345236849"><ele>345.8</ele><time>2026-04-12T08:43:16.854Z</time></trkpt><trkpt lat="46.11887177434153" lon="12.207168829449113"><ele>345.4</ele><time>2026-04-12T08:43:17.854Z</time></trkpt><trkpt lat="46.11897622168203" lon="12.207216540269823"><ele>345.0</ele><time>2026-04-12T08:43:18.854Z</time></trkpt><trkpt lat="46.119072660062365" lon="12.207311107863674"><ele>344.75</ele><time>2026-04-12T08:43:19.854Z</time></trkpt><trkpt lat="46.11914504556367" lon="12.207451663678833"><ele>344.5</ele><time>2026-04-12T08:43:20.854Z</time></trkpt><trkpt lat="46.11922498855786" lon="12.207602624789875"><ele>344.25</ele><time>2026-04-12T08:43:21.854Z</time></trkpt><trkpt lat="46.11931288930838" lon="12.207774590475704"><ele>344.0</ele><time>2026-04-12T08:43:22.854Z</time></trkpt><trkpt lat="46.11940274139409" lon="12.207952100355165"><ele>344.0</ele><time>2026-04-12T08:43:23.854Z</time></trkpt><trkpt lat="46.11949130482408" lon="12.20813384610122"><ele>344.0</ele><time>2026-04-12T08:43:24.854Z</time></trkpt><trkpt lat="46.11956443371418" lon="12.208304627719992"><ele>344.0</ele><time>2026-04-12T08:43:25.854Z</time></trkpt><trkpt lat="46.119641913130195" lon="12.208491146232735"><ele>344.0</ele><time>2026-04-12T08:43:26.854Z</time></trkpt><trkpt lat="46.11972598380912" lon="12.208678913302796"><ele>345.6666666666667</ele><time>2026-04-12T08:43:27.854Z</time></trkpt><trkpt lat="46.11981919297775" lon="12.208882455297015"><ele>347.3333333333333</ele><time>2026-04-12T08:43:28.854Z</time></trkpt><trkpt lat="46.11991470263193" lon="12.209093382787755"><ele>349.0</ele><time>2026-04-12T08:43:29.854Z</time></trkpt><trkpt lat="46.12002688462294" lon="12.209312955287691"><ele>349.3333333333333</ele><time>2026-04-12T08:43:30.854Z</time></trkpt><trkpt lat="46.12014371088104" lon="12.209550233240526"><ele>349.6666666666667</ele><time>2026-04-12T08:43:31.854Z</time></trkpt><trkpt lat="46.12027075671391" lon="12.209803881097848"><ele>350.0</ele><time>2026-04-12T08:43:32.854Z</time></trkpt><trkpt lat="46.120438830435816" lon="12.210035021961758"><ele>350.0</ele><time>2026-04-12T08:43:33.854Z</time></trkpt><trkpt lat="46.12058513601947" lon="12.21024001580657"><ele>350.0</ele><time>2026-04-12T08:43:34.854Z</time></trkpt><trkpt lat="46.120723400570576" lon="12.210432146966669"><ele>350.0</ele><time>2026-04-12T08:43:35.854Z</time></trkpt><trkpt lat="46.12086284373691" lon="12.210631688346224"><ele>351.6666666666667</ele><time>2026-04-12T08:43:36.854Z</time></trkpt><trkpt lat="46.121012201228616" lon="12.210829100804947"><ele>353.3333333333333</ele><time>2026-04-12T08:43:37.854Z</time></trkpt><trkpt lat="46.12116403150914" lon="12.211026555313625"><ele>355.0</ele><time>2026-04-12T08:43:38.854Z</time></trkpt><trkpt lat="46.12131832032345" lon="12.211225823561564"><ele>355.0</ele><time>2026-04-12T08:43:39.854Z</time></trkpt><trkpt lat="46.12144495119589" lon="12.211407049360268"><ele>355.0</ele><time>2026-04-12T08:43:40.854Z</time></trkpt><trkpt lat="46.121603982699675" lon="12.211608042431228"><ele>355.0</ele><time>2026-04-12T08:43:41.854Z</time></trkpt><trkpt lat="46.12178867941137" lon="12.211764225806727"><ele>357.0</ele><time>2026-04-12T08:43:42.854Z</time></trkpt><trkpt lat="46.12196076848231" lon="12.211937914188429"><ele>359.0</ele><time>2026-04-12T08:43:43.854Z</time></trkpt><trkpt lat="46.122135336101096" lon="12.212114265829568"><ele>361.0</ele><time>2026-04-12T08:43:44.871Z</time></trkpt><trkpt lat="46.122306248263726" lon="12.212286456777944"><ele>362.3333333333333</ele><time>2026-04-12T08:43:45.865Z</time></trkpt><trkpt lat="46.122478660900505" lon="12.212460026544266"><ele>363.6666666666667</ele><time>2026-04-12T08:43:46.867Z</time></trkpt><trkpt lat="46.1226505598945" lon="12.212633326696922"><ele>365.0</ele><time>2026-04-12T08:43:47.868Z</time></trkpt><trkpt lat="46.1228218507063" lon="12.212806207945109"><ele>365.0</ele><time>2026-04-12T08:43:48.868Z</time></trkpt><trkpt lat="46.12299355180678" lon="12.212979370940483"><ele>365.0</ele><time>2026-04-12T08:43:49.869Z</time></trkpt><trkpt lat="46.12316538864595" lon="12.213152380575005"><ele>365.0</ele><time>2026-04-12T08:43:50.868Z</time></trkpt><trkpt lat="46.125656215905245" lon="12.215773450716748"><ele>368.0</ele><time>2026-04-12T08:44:07.999Z</time></trkpt><trkpt lat="46.13372390162771" lon="12.227673232566778"><ele>368.0</ele><time>2026-04-12T08:44:55.854Z</time></trkpt><trkpt lat="46.133811957359384" lon="12.227710807027462"><ele>368.0</ele><time>2026-04-12T08:44:56.854Z</time></trkpt><trkpt lat="46.13387402372076" lon="12.227847533171664"><ele>368.0</ele><time>2026-04-12T08:44:58.854Z</time></trkpt><trkpt lat="46.13398307027863" lon="12.227938021525548"><ele>368.0</ele><time>2026-04-12T08:45:00.854Z</time></trkpt><trkpt lat="46.13406857101246" lon="12.227961682844168"><ele>368.0</ele><time>2026-04-12T08:45:01.855Z</time></trkpt><trkpt lat="46.13415846788805" lon="12.228002729730665"><ele>364.5</ele><time>2026-04-12T08:45:02.855Z</time></trkpt><trkpt lat="46.13423838764529" lon="12.228099093913897"><ele>361.0</ele><time>2026-04-12T08:45:03.855Z</time></trkpt><trkpt lat="46.13431390426312" lon="12.22821676480216"><ele>357.5</ele><time>2026-04-12T08:45:04.855Z</time></trkpt><trkpt lat="46.13438719322446" lon="12.228354247215139"><ele>354.0</ele><time>2026-04-12T08:45:05.855Z</time></trkpt><trkpt lat="46.13447086884669" lon="12.228494506560597"><ele>354.0</ele><time>2026-04-12T08:45:06.855Z</time></trkpt><trkpt lat="46.13454392552295" lon="12.228623164976042"><ele>354.0</ele><time>2026-04-12T08:45:07.855Z</time></trkpt><trkpt lat="46.13462147411939" lon="12.228742310886135"><ele>354.0</ele><time>2026-04-12T08:45:08.855Z</time></trkpt><trkpt lat="46.13470971401637" lon="12.228858408774423"><ele>354.0</ele><time>2026-04-12T08:45:09.855Z</time></trkpt><trkpt lat="46.13481349302816" lon="12.228985417506768"><ele>353.0</ele><time>2026-04-12T08:45:10.855Z</time></trkpt><trkpt lat="46.13492543990666" lon="12.229105271901341"><ele>352.0</ele><time>2026-04-12T08:45:11.855Z</time></trkpt><trkpt lat="46.135044346114185" lon="12.22921630746816"><ele>351.0</ele><time>2026-04-12T08:45:12.855Z</time></trkpt><trkpt lat="46.13517537325632" lon="12.229308260657131"><ele>350.0</ele><time>2026-04-12T08:45:13.855Z</time></trkpt><trkpt lat="46.135298402014264" lon="12.229425969015036"><ele>350.0</ele><time>2026-04-12T08:45:14.855Z</time></trkpt><trkpt lat="46.1354270232648" lon="12.229548020355066"><ele>350.0</ele><time>2026-04-12T08:45:15.855Z</time></trkpt><trkpt lat="46.1355607724211" lon="12.229676723417773"><ele>350.0</ele><time>2026-04-12T08:45:16.855Z</time></trkpt><trkpt lat="46.13571409459056" lon="12.229816824991584"><ele>351.0</ele><time>2026-04-12T08:45:17.855Z</time></trkpt><trkpt lat="46.135875913860666" lon="12.229969816885843"><ele>352.0</ele><time>2026-04-12T08:45:18.855Z</time></trkpt><trkpt lat="46.13602003151439" lon="12.230119366051285"><ele>353.0</ele><time>2026-04-12T08:45:19.855Z</time></trkpt><trkpt lat="46.13616724062099" lon="12.230270068042083"><ele>353.0</ele><time>2026-04-12T08:45:20.855Z</time></trkpt><trkpt lat="46.13632066291581" lon="12.23041914585882"><ele>353.0</ele><time>2026-04-12T08:45:21.855Z</time></trkpt><trkpt lat="46.136473302246834" lon="12.230606176206354"><ele>353.0</ele><time>2026-04-12T08:45:22.855Z</time></trkpt><trkpt lat="46.13663998134545" lon="12.230815076667575"><ele>353.6666666666667</ele><time>2026-04-12T08:45:23.855Z</time></trkpt><trkpt lat="46.1368122779562" lon="12.231026790252752"><ele>354.3333333333333</ele><time>2026-04-12T08:45:24.855Z</time></trkpt><trkpt lat="46.136974559292455" lon="12.231217421244633"><ele>355.0</ele><time>2026-04-12T08:45:25.855Z</time></trkpt><trkpt lat="46.13714288883946" lon="12.231411534221229"><ele>354.5</ele><time>2026-04-12T08:45:26.855Z</time></trkpt><trkpt lat="46.13731418021809" lon="12.231655439932494"><ele>354.0</ele><time>2026-04-12T08:45:27.855Z</time></trkpt><trkpt lat="46.137513813637476" lon="12.231875923862459"><ele>354.0</ele><time>2026-04-12T08:45:28.855Z</time></trkpt><trkpt lat="46.13770746254608" lon="12.2321398513498"><ele>354.0</ele><time>2026-04-12T08:45:29.855Z</time></trkpt><trkpt lat="46.13790706819303" lon="12.23240821475174"><ele>352.5</ele><time>2026-04-12T08:45:30.855Z</time></trkpt><trkpt lat="46.1381198255876" lon="12.23268378347042"><ele>351.0</ele><time>2026-04-12T08:45:31.855Z</time></trkpt><trkpt lat="46.13833620395149" lon="12.232973721045848"><ele>355.5</ele><time>2026-04-12T08:45:32.855Z</time></trkpt><trkpt lat="46.138539294255935" lon="12.23324940165489"><ele>360.0</ele><time>2026-04-12T08:45:33.855Z</time></trkpt><trkpt lat="46.1387200477468" lon="12.233502540702204"><ele>360.0</ele><time>2026-04-12T08:45:34.855Z</time></trkpt><trkpt lat="46.13888890129622" lon="12.233741140261625"><ele>360.0</ele><time>2026-04-12T08:45:35.855Z</time></trkpt><trkpt lat="46.13904622785306" lon="12.233976750686274"><ele>360.3333333333333</ele><time>2026-04-12T08:45:36.855Z</time></trkpt><trkpt lat="46.13919257633538" lon="12.23419166675066"><ele>360.66666666666663</ele><time>2026-04-12T08:45:37.855Z</time></trkpt><trkpt lat="46.13934128243547" lon="12.234406575552915"><ele>361.0</ele><time>2026-04-12T08:45:38.855Z</time></trkpt><trkpt lat="46.139475398948704" lon="12.234602874073037"><ele>360.0</ele><time>2026-04-12T08:45:39.855Z</time></trkpt><trkpt lat="46.1396145435447" lon="12.234808922565206"><ele>359.0</ele><time>2026-04-12T08:45:40.855Z</time></trkpt><trkpt lat="46.13975812784959" lon="12.23501682779025"><ele>358.0</ele><time>2026-04-12T08:45:41.855Z</time></trkpt><trkpt lat="46.13990317606058" lon="12.235233150169403"><ele>358.0</ele><time>2026-04-12T08:45:42.855Z</time></trkpt><trkpt lat="46.14005108727028" lon="12.23544807182704"><ele>358.0</ele><time>2026-04-12T08:45:43.855Z</time></trkpt><trkpt lat="46.14020379134313" lon="12.235664430839986"><ele>358.0</ele><time>2026-04-12T08:45:44.855Z</time></trkpt><trkpt lat="46.140351781416655" lon="12.235880416741132"><ele>360.66666666666663</ele><time>2026-04-12T08:45:45.855Z</time></trkpt><trkpt lat="46.14050882812331" lon="12.2361057194019"><ele>363.3333333333333</ele><time>2026-04-12T08:45:46.855Z</time></trkpt><trkpt lat="46.14065858785187" lon="12.236330547801177"><ele>366.0</ele><time>2026-04-12T08:45:47.855Z</time></trkpt><trkpt lat="46.140813517569136" lon="12.23655351010052"><ele>366.0</ele><time>2026-04-12T08:45:48.855Z</time></trkpt><trkpt lat="46.1409661634126" lon="12.236778130571881"><ele>366.0</ele><time>2026-04-12T08:45:49.855Z</time></trkpt><trkpt lat="46.1411211365308" lon="12.237005112170102"><ele>366.0</ele><time>2026-04-12T08:45:50.855Z</time></trkpt><trkpt lat="46.141275272222344" lon="12.23723118149731"><ele>361.5</ele><time>2026-04-12T08:45:51.855Z</time></trkpt><trkpt lat="46.14143041212744" lon="12.237460658494456"><ele>357.0</ele><time>2026-04-12T08:45:52.855Z</time></trkpt><trkpt lat="46.14159070162438" lon="12.237693796186008"><ele>357.0</ele><time>2026-04-12T08:45:53.855Z</time></trkpt><trkpt lat="46.141753077183836" lon="12.237931072235005"><ele>357.0</ele><time>2026-04-12T08:45:54.855Z</time></trkpt><trkpt lat="46.14192020964837" lon="12.238168233560133"><ele>365.0</ele><time>2026-04-12T08:45:55.855Z</time></trkpt><trkpt lat="46.14208904288226" lon="12.238406796224893"><ele>373.0</ele><time>2026-04-12T08:45:56.855Z</time></trkpt><trkpt lat="46.14225144198447" lon="12.238651028369796"><ele>371.5</ele><time>2026-04-12T08:45:57.855Z</time></trkpt><trkpt lat="46.14241384886962" lon="12.238895983376898"><ele>370.0</ele><time>2026-04-12T08:45:58.855Z</time></trkpt><trkpt lat="46.142580334904444" lon="12.239140573346232"><ele>370.0</ele><time>2026-04-12T08:45:59.855Z</time></trkpt><trkpt lat="46.14274610910682" lon="12.239386670716023"><ele>370.0</ele><time>2026-04-12T08:46:00.855Z</time></trkpt><trkpt lat="46.1429060474824" lon="12.239641511286267"><ele>365.5</ele><time>2026-04-12T08:46:01.855Z</time></trkpt><trkpt lat="46.143064438385814" lon="12.239899394365306"><ele>361.0</ele><time>2026-04-12T08:46:02.855Z</time></trkpt><trkpt lat="46.14321443007298" lon="12.240164033116567"><ele>361.0</ele><time>2026-04-12T08:46:03.855Z</time></trkpt><trkpt lat="46.14336963947205" lon="12.240424698553289"><ele>361.0</ele><time>2026-04-12T08:46:04.855Z</time></trkpt><trkpt lat="46.14352407552618" lon="12.240689802763628"><ele>367.5</ele><time>2026-04-12T08:46:05.855Z</time></trkpt><trkpt lat="46.14367402640568" lon="12.240948599823195"><ele>374.0</ele><time>2026-04-12T08:46:06.855Z</time></trkpt><trkpt lat="46.14382356847878" lon="12.241203080253213"><ele>374.0</ele><time>2026-04-12T08:46:07.855Z</time></trkpt><trkpt lat="46.143975757368615" lon="12.24145539826364"><ele>374.0</ele><time>2026-04-12T08:46:08.855Z</time></trkpt><trkpt lat="46.14412589923655" lon="12.241710375366283"><ele>371.5</ele><time>2026-04-12T08:46:09.855Z</time></trkpt><trkpt lat="46.14427117085587" lon="12.241965463665094"><ele>369.0</ele><time>2026-04-12T08:46:10.855Z</time></trkpt><trkpt lat="46.14441764357791" lon="12.242216905340333"><ele>374.5</ele><time>2026-04-12T08:46:11.855Z</time></trkpt><trkpt lat="46.1445643111106" lon="12.242471133064647"><ele>380.0</ele><time>2026-04-12T08:46:12.855Z</time></trkpt><trkpt lat="46.14471737647102" lon="12.242721745273041"><ele>380.0</ele><time>2026-04-12T08:46:13.855Z</time></trkpt><trkpt lat="46.144871657696605" lon="12.242972609009078"><ele>380.0</ele><time>2026-04-12T08:46:14.855Z</time></trkpt><trkpt lat="46.14504543162228" lon="12.243207749649907"><ele>375.5</ele><time>2026-04-12T08:46:15.855Z</time></trkpt><trkpt lat="46.14524705353203" lon="12.243429233000262"><ele>371.0</ele><time>2026-04-12T08:46:16.855Z</time></trkpt><trkpt lat="46.145441093440745" lon="12.2436580866205"><ele>371.0</ele><time>2026-04-12T08:46:17.855Z</time></trkpt><trkpt lat="46.145615643513395" lon="12.243870581439639"><ele>371.0</ele><time>2026-04-12T08:46:18.855Z</time></trkpt><trkpt lat="46.145776805832384" lon="12.244057653333593"><ele>371.0</ele><time>2026-04-12T08:46:19.855Z</time></trkpt><trkpt lat="46.14593710075623" lon="12.244250299372581"><ele>370.6666666666667</ele><time>2026-04-12T08:46:20.855Z</time></trkpt><trkpt lat="46.146093294777884" lon="12.244443263537512"><ele>370.3333333333333</ele><time>2026-04-12T08:46:21.855Z</time></trkpt><trkpt lat="46.146251778486004" lon="12.24462672462723"><ele>370.0</ele><time>2026-04-12T08:46:22.855Z</time></trkpt><trkpt lat="46.14640642266021" lon="12.244808010762387"><ele>371.0</ele><time>2026-04-12T08:46:23.855Z</time></trkpt><trkpt lat="46.14655678640649" lon="12.244994730362336"><ele>372.0</ele><time>2026-04-12T08:46:24.855Z</time></trkpt><trkpt lat="46.146704000309555" lon="12.245179385087594"><ele>373.0</ele><time>2026-04-12T08:46:25.855Z</time></trkpt><trkpt lat="46.14685568987823" lon="12.245361201105267"><ele>373.0</ele><time>2026-04-12T08:46:26.855Z</time></trkpt><trkpt lat="46.14701444588328" lon="12.245555130466606"><ele>373.0</ele><time>2026-04-12T08:46:27.855Z</time></trkpt><trkpt lat="46.14716472210379" lon="12.245755838923817"><ele>373.0</ele><time>2026-04-12T08:46:28.855Z</time></trkpt><trkpt lat="46.14731500616816" lon="12.245959804609987"><ele>372.0</ele><time>2026-04-12T08:46:29.855Z</time></trkpt><trkpt lat="46.147477945071415" lon="12.24618443936936"><ele>371.0</ele><time>2026-04-12T08:46:30.855Z</time></trkpt><trkpt lat="46.14755737296103" lon="12.24634367082856"><ele>370.0</ele><time>2026-04-12T08:46:31.855Z</time></trkpt><trkpt lat="46.14765493292052" lon="12.246564297203285"><ele>372.3333333333333</ele><time>2026-04-12T08:46:32.855Z</time></trkpt><trkpt lat="46.1477888247033" lon="12.246757400314818"><ele>374.6666666666667</ele><time>2026-04-12T08:46:33.855Z</time></trkpt><trkpt lat="46.14788993801916" lon="12.24694579603489"><ele>377.0</ele><time>2026-04-12T08:46:34.855Z</time></trkpt><trkpt lat="46.147981099751156" lon="12.24714167288315"><ele>378.0</ele><time>2026-04-12T08:46:35.855Z</time></trkpt><trkpt lat="46.148076323606084" lon="12.247341928482317"><ele>379.0</ele><time>2026-04-12T08:46:36.855Z</time></trkpt><trkpt lat="46.14816497461606" lon="12.247516953152305"><ele>380.0</ele><time>2026-04-12T08:46:37.855Z</time></trkpt><trkpt lat="46.148251103876355" lon="12.24771699196796"><ele>379.5</ele><time>2026-04-12T08:46:38.855Z</time></trkpt><trkpt lat="46.14832709509152" lon="12.247913023322454"><ele>379.0</ele><time>2026-04-12T08:46:39.855Z</time></trkpt><trkpt lat="46.148402606166655" lon="12.248099672399167"><ele>378.5</ele><time>2026-04-12T08:46:40.855Z</time></trkpt><trkpt lat="46.14846790201871" lon="12.248224506666608"><ele>378.0</ele><time>2026-04-12T08:46:41.855Z</time></trkpt><trkpt lat="46.14853367591054" lon="12.248396069753296"><ele>378.0</ele><time>2026-04-12T08:46:42.855Z</time></trkpt><trkpt lat="46.148589654519924" lon="12.248569618136932"><ele>378.0</ele><time>2026-04-12T08:46:43.855Z</time></trkpt><trkpt lat="46.148644363861656" lon="12.248731714647525"><ele>378.0</ele><time>2026-04-12T08:46:44.855Z</time></trkpt><trkpt lat="46.14870193128107" lon="12.248899642941774"><ele>378.0</ele><time>2026-04-12T08:46:45.855Z</time></trkpt><trkpt lat="46.14876176880612" lon="12.249078834951046"><ele>378.5</ele><time>2026-04-12T08:46:46.855Z</time></trkpt><trkpt lat="46.14882099675862" lon="12.249236566996265"><ele>379.0</ele><time>2026-04-12T08:46:47.855Z</time></trkpt><trkpt lat="46.14887106335511" lon="12.249401659053953"><ele>379.5</ele><time>2026-04-12T08:46:48.855Z</time></trkpt><trkpt lat="46.14892358319482" lon="12.249569061841408"><ele>380.0</ele><time>2026-04-12T08:46:49.855Z</time></trkpt><trkpt lat="46.14897716921088" lon="12.249725569612696"><ele>379.5</ele><time>2026-04-12T08:46:50.855Z</time></trkpt><trkpt lat="46.14902497940384" lon="12.249882875948867"><ele>379.0</ele><time>2026-04-12T08:46:51.855Z</time></trkpt><trkpt lat="46.14908214677298" lon="12.250029003580611"><ele>378.5</ele><time>2026-04-12T08:46:52.855Z</time></trkpt><trkpt lat="46.14912986343142" lon="12.250175112762824"><ele>378.0</ele><time>2026-04-12T08:46:53.855Z</time></trkpt><trkpt lat="46.14918777210707" lon="12.25033421885795"><ele>377.0</ele><time>2026-04-12T08:46:54.855Z</time></trkpt><trkpt lat="46.1492454608719" lon="12.2504922365307"><ele>376.0</ele><time>2026-04-12T08:46:55.855Z</time></trkpt><trkpt lat="46.14930870775638" lon="12.250667879897522"><ele>375.0</ele><time>2026-04-12T08:46:56.855Z</time></trkpt><trkpt lat="46.1493728108363" lon="12.250836427280055"><ele>374.0</ele><time>2026-04-12T08:46:57.855Z</time></trkpt><trkpt lat="46.14942838234966" lon="12.251014783344585"><ele>374.0</ele><time>2026-04-12T08:46:58.855Z</time></trkpt><trkpt lat="46.149485975683405" lon="12.25119995557491"><ele>374.0</ele><time>2026-04-12T08:46:59.855Z</time></trkpt><trkpt lat="46.14955461127564" lon="12.251388483066783"><ele>374.0</ele><time>2026-04-12T08:47:00.855Z</time></trkpt><trkpt lat="46.14962534493325" lon="12.251584014763342"><ele>374.0</ele><time>2026-04-12T08:47:01.855Z</time></trkpt><trkpt lat="46.149693849494646" lon="12.25178078386619"><ele>373.6666666666667</ele><time>2026-04-12T08:47:02.855Z</time></trkpt><trkpt lat="46.1497671250644" lon="12.251962477636054"><ele>373.3333333333333</ele><time>2026-04-12T08:47:03.855Z</time></trkpt><trkpt lat="46.14983350473505" lon="12.25218484021967"><ele>373.0</ele><time>2026-04-12T08:47:04.855Z</time></trkpt><trkpt lat="46.149898346244825" lon="12.252383311492784"><ele>372.3333333333333</ele><time>2026-04-12T08:47:05.855Z</time></trkpt><trkpt lat="46.14997246205451" lon="12.252585818441354"><ele>371.6666666666667</ele><time>2026-04-12T08:47:06.855Z</time></trkpt><trkpt lat="46.15004915724203" lon="12.252796043845755"><ele>371.0</ele><time>2026-04-12T08:47:07.856Z</time></trkpt><trkpt lat="46.150115211863195" lon="12.252997034324162"><ele>372.0</ele><time>2026-04-12T08:47:08.856Z</time></trkpt><trkpt lat="46.15019123218671" lon="12.253211540927806"><ele>373.0</ele><time>2026-04-12T08:47:09.856Z</time></trkpt><trkpt lat="46.15026420983117" lon="12.253417849510413"><ele>374.0</ele><time>2026-04-12T08:47:10.856Z</time></trkpt><trkpt lat="46.15033278284003" lon="12.253626811752719"><ele>374.0</ele><time>2026-04-12T08:47:11.856Z</time></trkpt><trkpt lat="46.15040181682613" lon="12.253834199599106"><ele>374.0</ele><time>2026-04-12T08:47:12.856Z</time></trkpt><trkpt lat="46.15046663166444" lon="12.254040950797195"><ele>374.0</ele><time>2026-04-12T08:47:13.856Z</time></trkpt><trkpt lat="46.150532391192975" lon="12.254247353485423"><ele>373.75</ele><time>2026-04-12T08:47:14.856Z</time></trkpt><trkpt lat="46.15059542813048" lon="12.25443905232383"><ele>373.5</ele><time>2026-04-12T08:47:15.856Z</time></trkpt><trkpt lat="46.150646952645694" lon="12.254628154800098"><ele>373.25</ele><time>2026-04-12T08:47:16.856Z</time></trkpt><trkpt lat="46.15068261655688" lon="12.25480576925822"><ele>373.0</ele><time>2026-04-12T08:47:17.856Z</time></trkpt><trkpt lat="46.1507164517253" lon="12.254979638150086"><ele>373.0</ele><time>2026-04-12T08:47:18.856Z</time></trkpt><trkpt lat="46.15074533542548" lon="12.255130872315307"><ele>373.0</ele><time>2026-04-12T08:47:19.856Z</time></trkpt><trkpt lat="46.15078299239874" lon="12.255265094135723"><ele>373.0</ele><time>2026-04-12T08:47:20.856Z</time></trkpt><trkpt lat="46.15081285661182" lon="12.25540575450138"><ele>373.0</ele><time>2026-04-12T08:47:21.856Z</time></trkpt><trkpt lat="46.150827849923" lon="12.255564623722323"><ele>373.0</ele><time>2026-04-12T08:47:22.856Z</time></trkpt><trkpt lat="46.150843337259744" lon="12.255744485057413"><ele>373.3333333333333</ele><time>2026-04-12T08:47:23.856Z</time></trkpt><trkpt lat="46.15085892839016" lon="12.255943580694751"><ele>373.6666666666667</ele><time>2026-04-12T08:47:24.856Z</time></trkpt><trkpt lat="46.15087565081562" lon="12.256179603344844"><ele>374.0</ele><time>2026-04-12T08:47:25.856Z</time></trkpt><trkpt lat="46.15090654790926" lon="12.256395706078756"><ele>374.33333333333337</ele><time>2026-04-12T08:47:26.856Z</time></trkpt><trkpt lat="46.15093385361203" lon="12.256652008768663"><ele>374.6666666666667</ele><time>2026-04-12T08:47:27.856Z</time></trkpt><trkpt lat="46.15097038287171" lon="12.256915023811787"><ele>375.0</ele><time>2026-04-12T08:47:28.856Z</time></trkpt><trkpt lat="46.15100540921897" lon="12.257149035978896"><ele>374.3333333333333</ele><time>2026-04-12T08:47:29.856Z</time></trkpt><trkpt lat="46.151032692091476" lon="12.257374041633337"><ele>373.66666666666663</ele><time>2026-04-12T08:47:30.856Z</time></trkpt><trkpt lat="46.151059366575524" lon="12.257602913932116"><ele>373.0</ele><time>2026-04-12T08:47:31.856Z</time></trkpt><trkpt lat="46.151085728228644" lon="12.257835218771632"><ele>373.0</ele><time>2026-04-12T08:47:32.856Z</time></trkpt><trkpt lat="46.15111556953989" lon="12.258073175578023"><ele>373.0</ele><time>2026-04-12T08:47:33.856Z</time></trkpt><trkpt lat="46.1511484977741" lon="12.258312474233714"><ele>373.0</ele><time>2026-04-12T08:47:34.856Z</time></trkpt><trkpt lat="46.151177761716276" lon="12.258555209620466"><ele>373.66666666666663</ele><time>2026-04-12T08:47:35.856Z</time></trkpt><trkpt lat="46.15120817839149" lon="12.258797271476805"><ele>374.3333333333333</ele><time>2026-04-12T08:47:36.856Z</time></trkpt><trkpt lat="46.15124008863893" lon="12.259050508910645"><ele>375.0</ele><time>2026-04-12T08:47:37.856Z</time></trkpt><trkpt lat="46.15127079027965" lon="12.259304327762965"><ele>375.0</ele><time>2026-04-12T08:47:38.856Z</time></trkpt><trkpt lat="46.15129834499994" lon="12.259537524420358"><ele>375.0</ele><time>2026-04-12T08:47:39.856Z</time></trkpt><trkpt lat="46.1513271159444" lon="12.259757940790774"><ele>375.0</ele><time>2026-04-12T08:47:40.856Z</time></trkpt><trkpt lat="46.151361641686094" lon="12.259986439676176"><ele>375.0</ele><time>2026-04-12T08:47:41.856Z</time></trkpt><trkpt lat="46.151383275304624" lon="12.260210616734136"><ele>375.0</ele><time>2026-04-12T08:47:42.856Z</time></trkpt><trkpt lat="46.15140940646236" lon="12.260441481629213"><ele>375.0</ele><time>2026-04-12T08:47:43.856Z</time></trkpt><trkpt lat="46.15144435862143" lon="12.26067614138028"><ele>374.6666666666667</ele><time>2026-04-12T08:47:44.856Z</time></trkpt><trkpt lat="46.15148071519987" lon="12.260912294534519"><ele>374.33333333333337</ele><time>2026-04-12T08:47:45.856Z</time></trkpt><trkpt lat="46.15151599118311" lon="12.261156842440737"><ele>374.0</ele><time>2026-04-12T08:47:46.856Z</time></trkpt><trkpt lat="46.15156061876205" lon="12.261390340447065"><ele>373.33333333333337</ele><time>2026-04-12T08:47:47.856Z</time></trkpt><trkpt lat="46.15162872089825" lon="12.26161387836399"><ele>372.6666666666667</ele><time>2026-04-12T08:47:48.856Z</time></trkpt><trkpt lat="46.15173000372111" lon="12.261824925062923"><ele>372.0</ele><time>2026-04-12T08:47:49.856Z</time></trkpt><trkpt lat="46.15184323805574" lon="12.262007978092946"><ele>372.0</ele><time>2026-04-12T08:47:50.856Z</time></trkpt><trkpt lat="46.15197161587265" lon="12.262175932952477"><ele>372.0</ele><time>2026-04-12T08:47:51.856Z</time></trkpt><trkpt lat="46.15210327476546" lon="12.262343724356866"><ele>372.0</ele><time>2026-04-12T08:47:52.856Z</time></trkpt><trkpt lat="46.15223488729423" lon="12.262512879766414"><ele>371.6666666666667</ele><time>2026-04-12T08:47:53.856Z</time></trkpt><trkpt lat="46.15236507646321" lon="12.262692061217736"><ele>371.33333333333337</ele><time>2026-04-12T08:47:54.856Z</time></trkpt><trkpt lat="46.15249351064908" lon="12.262874006048214"><ele>371.0</ele><time>2026-04-12T08:47:55.856Z</time></trkpt><trkpt lat="46.15262928792754" lon="12.263058579379972"><ele>371.6666666666667</ele><time>2026-04-12T08:47:56.856Z</time></trkpt><trkpt lat="46.15276873771911" lon="12.263241817438136"><ele>372.3333333333333</ele><time>2026-04-12T08:47:57.856Z</time></trkpt><trkpt lat="46.15290599228436" lon="12.263426801046702"><ele>373.0</ele><time>2026-04-12T08:47:58.856Z</time></trkpt><trkpt lat="46.153047145261304" lon="12.263618316309548"><ele>373.0</ele><time>2026-04-12T08:47:59.856Z</time></trkpt><trkpt lat="46.1531892383423" lon="12.263811517775148"><ele>373.0</ele><time>2026-04-12T08:48:00.856Z</time></trkpt><trkpt lat="46.15333422516442" lon="12.264007822830763"><ele>373.0</ele><time>2026-04-12T08:48:01.856Z</time></trkpt><trkpt lat="46.153479724245166" lon="12.264206797060334"><ele>373.3333333333333</ele><time>2026-04-12T08:48:02.856Z</time></trkpt><trkpt lat="46.15362820692519" lon="12.264400230406736"><ele>373.6666666666667</ele><time>2026-04-12T08:48:03.856Z</time></trkpt><trkpt lat="46.15377313071019" lon="12.264561636337362"><ele>374.0</ele><time>2026-04-12T08:48:04.856Z</time></trkpt><trkpt lat="46.15392225088285" lon="12.264703577037281"><ele>374.33333333333337</ele><time>2026-04-12T08:48:05.856Z</time></trkpt><trkpt lat="46.154084740882844" lon="12.26483086831805"><ele>374.6666666666667</ele><time>2026-04-12T08:48:06.856Z</time></trkpt><trkpt lat="46.154253071075125" lon="12.264944158402606"><ele>375.0</ele><time>2026-04-12T08:48:07.856Z</time></trkpt><trkpt lat="46.154426823608006" lon="12.265058398832265"><ele>375.0</ele><time>2026-04-12T08:48:08.856Z</time></trkpt><trkpt lat="46.154597598494796" lon="12.265169943978707"><ele>375.0</ele><time>2026-04-12T08:48:09.856Z</time></trkpt><trkpt lat="46.154769848025516" lon="12.26528945276788"><ele>375.0</ele><time>2026-04-12T08:48:10.856Z</time></trkpt><trkpt lat="46.1549398261672" lon="12.265410470091574"><ele>373.6666666666667</ele><time>2026-04-12T08:48:11.856Z</time></trkpt><trkpt lat="46.155104174766954" lon="12.26552045287332"><ele>372.33333333333337</ele><time>2026-04-12T08:48:12.856Z</time></trkpt><trkpt lat="46.15526325870666" lon="12.265612950324625"><ele>371.0</ele><time>2026-04-12T08:48:13.856Z</time></trkpt><trkpt lat="46.155435631450636" lon="12.26569983370484"><ele>373.33333333333337</ele><time>2026-04-12T08:48:14.856Z</time></trkpt><trkpt lat="46.1556207870901" lon="12.265759525755762"><ele>375.6666666666667</ele><time>2026-04-12T08:48:15.856Z</time></trkpt><trkpt lat="46.15581385298264" lon="12.265810461323936"><ele>378.0</ele><time>2026-04-12T08:48:16.856Z</time></trkpt><trkpt lat="46.156023601408776" lon="12.265857678550423"><ele>378.0</ele><time>2026-04-12T08:48:17.856Z</time></trkpt><trkpt lat="46.15624752328079" lon="12.26589463263485"><ele>378.0</ele><time>2026-04-12T08:48:18.856Z</time></trkpt><trkpt lat="46.156489963842645" lon="12.265928489649134"><ele>375.0</ele><time>2026-04-12T08:48:19.856Z</time></trkpt><trkpt lat="46.15674191116572" lon="12.265971542070883"><ele>372.0</ele><time>2026-04-12T08:48:20.856Z</time></trkpt><trkpt lat="46.156995799837105" lon="12.266016134238269"><ele>372.0</ele><time>2026-04-12T08:48:21.856Z</time></trkpt><trkpt lat="46.157242557651195" lon="12.266059333950988"><ele>372.0</ele><time>2026-04-12T08:48:22.856Z</time></trkpt><trkpt lat="46.15748225162628" lon="12.266107353114645"><ele>370.5</ele><time>2026-04-12T08:48:23.856Z</time></trkpt><trkpt lat="46.15771171722436" lon="12.266150934434288"><ele>369.0</ele><time>2026-04-12T08:48:24.856Z</time></trkpt><trkpt lat="46.15793342574835" lon="12.26622064530812"><ele>369.0</ele><time>2026-04-12T08:48:25.856Z</time></trkpt><trkpt lat="46.15815266536147" lon="12.266317735336685"><ele>369.0</ele><time>2026-04-12T08:48:26.856Z</time></trkpt><trkpt lat="46.1583709442648" lon="12.266438620759175"><ele>375.0</ele><time>2026-04-12T08:48:27.856Z</time></trkpt><trkpt lat="46.15858955991807" lon="12.266588399078818"><ele>381.0</ele><time>2026-04-12T08:48:28.856Z</time></trkpt><trkpt lat="46.15881656674116" lon="12.266758910871047"><ele>376.0</ele><time>2026-04-12T08:48:29.856Z</time></trkpt><trkpt lat="46.15904872076246" lon="12.266946252288124"><ele>371.0</ele><time>2026-04-12T08:48:30.856Z</time></trkpt><trkpt lat="46.159285117795875" lon="12.26715806581751"><ele>376.5</ele><time>2026-04-12T08:48:31.856Z</time></trkpt><trkpt lat="46.159531937154505" lon="12.267380267447919"><ele>382.0</ele><time>2026-04-12T08:48:32.856Z</time></trkpt><trkpt lat="46.159788300239285" lon="12.267610861385952"><ele>378.5</ele><time>2026-04-12T08:48:33.856Z</time></trkpt><trkpt lat="46.16005461148057" lon="12.267837864580242"><ele>375.0</ele><time>2026-04-12T08:48:34.856Z</time></trkpt><trkpt lat="46.16033000311409" lon="12.268073583968665"><ele>378.0</ele><time>2026-04-12T08:48:35.856Z</time></trkpt><trkpt lat="46.160614193526285" lon="12.268315684515661"><ele>381.0</ele><time>2026-04-12T08:48:36.856Z</time></trkpt><trkpt lat="46.160884031225564" lon="12.268553458795672"><ele>381.0</ele><time>2026-04-12T08:48:37.856Z</time></trkpt><trkpt lat="46.161132439925126" lon="12.268771748317473"><ele>381.0</ele><time>2026-04-12T08:48:38.856Z</time></trkpt><trkpt lat="46.16136309011101" lon="12.268974012732738"><ele>383.5</ele><time>2026-04-12T08:48:39.856Z</time></trkpt><trkpt lat="46.161576891092245" lon="12.269157833776504"><ele>386.0</ele><time>2026-04-12T08:48:40.856Z</time></trkpt><trkpt lat="46.16177041372241" lon="12.26933924708379"><ele>386.0</ele><time>2026-04-12T08:48:41.856Z</time></trkpt><trkpt lat="46.16195655844972" lon="12.269502040074839"><ele>386.0</ele><time>2026-04-12T08:48:42.856Z</time></trkpt><trkpt lat="46.16212794621675" lon="12.269649645990105"><ele>386.0</ele><time>2026-04-12T08:48:43.856Z</time></trkpt><trkpt lat="46.162307031768165" lon="12.269763453623328"><ele>387.0</ele><time>2026-04-12T08:48:44.856Z</time></trkpt><trkpt lat="46.162467565940425" lon="12.269884450799868"><ele>388.0</ele><time>2026-04-12T08:48:45.856Z</time></trkpt><trkpt lat="46.162628153230635" lon="12.26997746482349"><ele>389.0</ele><time>2026-04-12T08:48:46.856Z</time></trkpt><trkpt lat="46.16279210455308" lon="12.27005380631587"><ele>389.0</ele><time>2026-04-12T08:48:47.856Z</time></trkpt><trkpt lat="46.162961274653966" lon="12.270118927300222"><ele>389.0</ele><time>2026-04-12T08:48:48.856Z</time></trkpt><trkpt lat="46.16313420186789" lon="12.270187335252965"><ele>389.0</ele><time>2026-04-12T08:48:49.856Z</time></trkpt><trkpt lat="46.16331153756811" lon="12.2702438018157"><ele>389.0</ele><time>2026-04-12T08:48:50.856Z</time></trkpt><trkpt lat="46.16349175050751" lon="12.27028696142347"><ele>389.0</ele><time>2026-04-12T08:48:51.856Z</time></trkpt><trkpt lat="46.163672796860354" lon="12.270315036935058"><ele>389.0</ele><time>2026-04-12T08:48:52.856Z</time></trkpt><trkpt lat="46.16385414854846" lon="12.270318275441687"><ele>388.3333333333333</ele><time>2026-04-12T08:48:53.856Z</time></trkpt><trkpt lat="46.16404046140909" lon="12.270313559064938"><ele>387.66666666666663</ele><time>2026-04-12T08:48:54.856Z</time></trkpt><trkpt lat="46.164223957445714" lon="12.270301643930624"><ele>387.0</ele><time>2026-04-12T08:48:55.856Z</time></trkpt><trkpt lat="46.164411635049014" lon="12.270272751772394"><ele>387.0</ele><time>2026-04-12T08:48:56.856Z</time></trkpt><trkpt lat="46.164592307182204" lon="12.270239196532325"><ele>387.0</ele><time>2026-04-12T08:48:57.856Z</time></trkpt><trkpt lat="46.1647640477544" lon="12.270210151435093"><ele>387.0</ele><time>2026-04-12T08:48:58.856Z</time></trkpt><trkpt lat="46.16493263907279" lon="12.270175764471313"><ele>388.66666666666663</ele><time>2026-04-12T08:48:59.856Z</time></trkpt><trkpt lat="46.165101574912" lon="12.270142979400271"><ele>390.3333333333333</ele><time>2026-04-12T08:49:00.856Z</time></trkpt><trkpt lat="46.16526940143817" lon="12.270120863307913"><ele>392.0</ele><time>2026-04-12T08:49:01.856Z</time></trkpt><trkpt lat="46.16543316913939" lon="12.270106572523721"><ele>392.0</ele><time>2026-04-12T08:49:02.856Z</time></trkpt><trkpt lat="46.16559911242471" lon="12.270101912615523"><ele>392.0</ele><time>2026-04-12T08:49:03.856Z</time></trkpt><trkpt lat="46.16576910271995" lon="12.270113542829193"><ele>392.0</ele><time>2026-04-12T08:49:04.856Z</time></trkpt><trkpt lat="46.16594681976079" lon="12.270119104060939"><ele>392.66666666666663</ele><time>2026-04-12T08:49:05.856Z</time></trkpt><trkpt lat="46.16612241312976" lon="12.270137962859488"><ele>393.33333333333337</ele><time>2026-04-12T08:49:06.856Z</time></trkpt><trkpt lat="46.16629757043126" lon="12.270184680738014"><ele>394.0</ele><time>2026-04-12T08:49:07.856Z</time></trkpt><trkpt lat="46.16647873474306" lon="12.270235763235041"><ele>391.0</ele><time>2026-04-12T08:49:08.856Z</time></trkpt><trkpt lat="46.166663741260066" lon="12.270296709396897"><ele>388.0</ele><time>2026-04-12T08:49:09.856Z</time></trkpt><trkpt lat="46.16684637339724" lon="12.270368940740502"><ele>385.0</ele><time>2026-04-12T08:49:10.856Z</time></trkpt><trkpt lat="46.16703017167448" lon="12.270445567577571"><ele>385.0</ele><time>2026-04-12T08:49:11.856Z</time></trkpt><trkpt lat="46.1672193909091" lon="12.270529342829677"><ele>385.0</ele><time>2026-04-12T08:49:12.856Z</time></trkpt><trkpt lat="46.167415555529416" lon="12.27061618624524"><ele>385.0</ele><time>2026-04-12T08:49:13.857Z</time></trkpt><trkpt lat="46.1676180621455" lon="12.270709527835965"><ele>393.5</ele><time>2026-04-12T08:49:14.857Z</time></trkpt><trkpt lat="46.16784019367448" lon="12.270808010532548"><ele>402.0</ele><time>2026-04-12T08:49:15.857Z</time></trkpt><trkpt lat="46.16805814490632" lon="12.270903703830768"><ele>398.0</ele><time>2026-04-12T08:49:16.857Z</time></trkpt><trkpt lat="46.16826817292705" lon="12.270998165803165"><ele>394.0</ele><time>2026-04-12T08:49:17.857Z</time></trkpt><trkpt lat="46.16848499262119" lon="12.271094655710973"><ele>390.0</ele><time>2026-04-12T08:49:18.857Z</time></trkpt><trkpt lat="46.168700622679644" lon="12.27118814576094"><ele>390.0</ele><time>2026-04-12T08:49:19.857Z</time></trkpt><trkpt lat="46.16890933504148" lon="12.271295767221936"><ele>390.0</ele><time>2026-04-12T08:49:20.857Z</time></trkpt><trkpt lat="46.16911418343501" lon="12.271421432337341"><ele>390.0</ele><time>2026-04-12T08:49:21.857Z</time></trkpt><trkpt lat="46.16932117750108" lon="12.271564105457065"><ele>388.33333333333337</ele><time>2026-04-12T08:49:22.857Z</time></trkpt><trkpt lat="46.16951905398133" lon="12.271713283099121"><ele>386.6666666666667</ele><time>2026-04-12T08:49:23.857Z</time></trkpt><trkpt lat="46.16970605113274" lon="12.271872052313135"><ele>385.0</ele><time>2026-04-12T08:49:24.857Z</time></trkpt><trkpt lat="46.16990215150829" lon="12.272031245512304"><ele>385.0</ele><time>2026-04-12T08:49:25.857Z</time></trkpt><trkpt lat="46.17005769131278" lon="12.272189419870156"><ele>385.0</ele><time>2026-04-12T08:49:26.857Z</time></trkpt><trkpt lat="46.17022564152273" lon="12.272389791123201"><ele>385.0</ele><time>2026-04-12T08:49:27.857Z</time></trkpt><trkpt lat="46.170383920631195" lon="12.272595929126542"><ele>387.33333333333337</ele><time>2026-04-12T08:49:28.857Z</time></trkpt><trkpt lat="46.17053881060171" lon="12.272818831374106"><ele>389.66666666666663</ele><time>2026-04-12T08:49:29.857Z</time></trkpt><trkpt lat="46.17067881267971" lon="12.273053939246754"><ele>392.0</ele><time>2026-04-12T08:49:30.857Z</time></trkpt><trkpt lat="46.17081642556317" lon="12.273303474813217"><ele>392.0</ele><time>2026-04-12T08:49:31.857Z</time></trkpt><trkpt lat="46.17095004112597" lon="12.273564915955717"><ele>392.0</ele><time>2026-04-12T08:49:32.857Z</time></trkpt><trkpt lat="46.171074558052716" lon="12.273832122399133"><ele>392.0</ele><time>2026-04-12T08:49:33.857Z</time></trkpt><trkpt lat="46.17119095821176" lon="12.27410719274439"><ele>394.5</ele><time>2026-04-12T08:49:34.857Z</time></trkpt><trkpt lat="46.171307348248384" lon="12.274397990168612"><ele>397.0</ele><time>2026-04-12T08:49:35.857Z</time></trkpt><trkpt lat="46.1714095695286" lon="12.274696269411912"><ele>398.5</ele><time>2026-04-12T08:49:36.857Z</time></trkpt><trkpt lat="46.171496291970556" lon="12.275006867395412"><ele>400.0</ele><time>2026-04-12T08:49:37.857Z</time></trkpt><trkpt lat="46.17157212760816" lon="12.2753219563061"><ele>397.33333333333337</ele><time>2026-04-12T08:49:38.857Z</time></trkpt><trkpt lat="46.1716348151967" lon="12.275625746115498"><ele>394.66666666666663</ele><time>2026-04-12T08:49:39.857Z</time></trkpt><trkpt lat="46.17168154777244" lon="12.275909480168007"><ele>392.0</ele><time>2026-04-12T08:49:40.857Z</time></trkpt><trkpt lat="46.17172703209178" lon="12.276208222857411"><ele>391.3333333333333</ele><time>2026-04-12T08:49:41.857Z</time></trkpt><trkpt lat="46.17176004400794" lon="12.2765024051285"><ele>390.66666666666663</ele><time>2026-04-12T08:49:42.857Z</time></trkpt><trkpt lat="46.17177525471823" lon="12.276809558909349"><ele>390.0</ele><time>2026-04-12T08:49:43.857Z</time></trkpt><trkpt lat="46.171788791763426" lon="12.27714250702988"><ele>390.5</ele><time>2026-04-12T08:49:44.857Z</time></trkpt><trkpt lat="46.17179991759189" lon="12.277496359602607"><ele>391.0</ele><time>2026-04-12T08:49:45.857Z</time></trkpt><trkpt lat="46.17179946170656" lon="12.277861143703534"><ele>391.0</ele><time>2026-04-12T08:49:46.857Z</time></trkpt><trkpt lat="46.17180101906034" lon="12.27823719882206"><ele>391.0</ele><time>2026-04-12T08:49:47.857Z</time></trkpt><trkpt lat="46.171793846691095" lon="12.278611452952013"><ele>390.5</ele><time>2026-04-12T08:49:48.857Z</time></trkpt><trkpt lat="46.1718055697402" lon="12.278967273357916"><ele>390.0</ele><time>2026-04-12T08:49:49.857Z</time></trkpt><trkpt lat="46.17181351280909" lon="12.279305686337935"><ele>390.0</ele><time>2026-04-12T08:49:50.857Z</time></trkpt><trkpt lat="46.17182431917878" lon="12.279640294580705"><ele>390.0</ele><time>2026-04-12T08:49:51.857Z</time></trkpt><trkpt lat="46.171839498499125" lon="12.27996800213468"><ele>389.33333333333337</ele><time>2026-04-12T08:49:52.857Z</time></trkpt><trkpt lat="46.1718573218244" lon="12.280283986173492"><ele>388.6666666666667</ele><time>2026-04-12T08:49:53.857Z</time></trkpt><trkpt lat="46.17187226308747" lon="12.280589625585998"><ele>388.0</ele><time>2026-04-12T08:49:54.857Z</time></trkpt><trkpt lat="46.1718922262898" lon="12.28088620140431"><ele>388.0</ele><time>2026-04-12T08:49:55.857Z</time></trkpt><trkpt lat="46.171918039533494" lon="12.281177845496291"><ele>388.0</ele><time>2026-04-12T08:49:56.857Z</time></trkpt><trkpt lat="46.17194004961147" lon="12.281471147392862"><ele>388.0</ele><time>2026-04-12T08:49:57.857Z</time></trkpt><trkpt lat="46.171964731855354" lon="12.28175994067256"><ele>388.6666666666667</ele><time>2026-04-12T08:49:58.857Z</time></trkpt><trkpt lat="46.17198465467279" lon="12.282035116134098"><ele>389.33333333333337</ele><time>2026-04-12T08:49:59.857Z</time></trkpt><trkpt lat="46.17200932604344" lon="12.282290728713598"><ele>390.0</ele><time>2026-04-12T08:50:00.857Z</time></trkpt><trkpt lat="46.172026090276105" lon="12.282493237693924"><ele>390.4</ele><time>2026-04-12T08:50:01.857Z</time></trkpt><trkpt lat="46.172041989476014" lon="12.282664839708172"><ele>390.8</ele><time>2026-04-12T08:50:02.857Z</time></trkpt><trkpt lat="46.17205627140729" lon="12.282798691795128"><ele>391.20000000000005</ele><time>2026-04-12T08:50:03.857Z</time></trkpt><trkpt lat="46.172060224713434" lon="12.282919043960616"><ele>391.6</ele><time>2026-04-12T08:50:04.857Z</time></trkpt><trkpt lat="46.17204128387921" lon="12.283035413568626"><ele>392.0</ele><time>2026-04-12T08:50:05.857Z</time></trkpt><trkpt lat="46.17198778147962" lon="12.283126813815612"><ele>392.3333333333333</ele><time>2026-04-12T08:50:06.857Z</time></trkpt><trkpt lat="46.171915580142276" lon="12.283199566258096"><ele>392.66666666666663</ele><time>2026-04-12T08:50:07.857Z</time></trkpt><trkpt lat="46.171879245273246" lon="12.283293692100028"><ele>393.0</ele><time>2026-04-12T08:50:08.857Z</time></trkpt><trkpt lat="46.17190008848946" lon="12.283385458440383"><ele>393.33333333333337</ele><time>2026-04-12T08:50:09.857Z</time></trkpt><trkpt lat="46.171958110295314" lon="12.283453557592756"><ele>393.6666666666667</ele><time>2026-04-12T08:50:10.857Z</time></trkpt><trkpt lat="46.172040186344965" lon="12.283478863100376"><ele>394.0</ele><time>2026-04-12T08:50:11.857Z</time></trkpt><trkpt lat="46.1721254096328" lon="12.28346323614552"><ele>394.0</ele><time>2026-04-12T08:50:12.857Z</time></trkpt><trkpt lat="46.172223189448395" lon="12.283442374113584"><ele>394.0</ele><time>2026-04-12T08:50:13.857Z</time></trkpt><trkpt lat="46.17232704470153" lon="12.283472882783697"><ele>394.0</ele><time>2026-04-12T08:50:14.857Z</time></trkpt><trkpt lat="46.17244674825256" lon="12.283483400201701"><ele>394.0</ele><time>2026-04-12T08:50:15.857Z</time></trkpt><trkpt lat="46.17256008313242" lon="12.283455676520141"><ele>394.0</ele><time>2026-04-12T08:50:16.857Z</time></trkpt><trkpt lat="46.17266552513329" lon="12.2834080828526"><ele>390.6</ele><time>2026-04-12T08:50:17.857Z</time></trkpt><trkpt lat="46.1727535015409" lon="12.283400738797527"><ele>387.2</ele><time>2026-04-12T08:50:18.857Z</time></trkpt><trkpt lat="46.17283376605872" lon="12.283368368121803"><ele>383.8</ele><time>2026-04-12T08:50:19.857Z</time></trkpt><trkpt lat="46.17289719355845" lon="12.28340615779351"><ele>380.40000000000003</ele><time>2026-04-12T08:50:20.857Z</time></trkpt><trkpt lat="46.172938665335394" lon="12.283517654821942"><ele>377.0</ele><time>2026-04-12T08:50:21.857Z</time></trkpt><trkpt lat="46.17298407037882" lon="12.283681390982029"><ele>377.0</ele><time>2026-04-12T08:50:22.857Z</time></trkpt><trkpt lat="46.173031037786814" lon="12.283833231476219"><ele>377.0</ele><time>2026-04-12T08:50:23.857Z</time></trkpt><trkpt lat="46.17308196396994" lon="12.283948264392333"><ele>377.0</ele><time>2026-04-12T08:50:24.857Z</time></trkpt><trkpt lat="46.173133510264336" lon="12.284034669699098"><ele>377.0</ele><time>2026-04-12T08:50:25.857Z</time></trkpt><trkpt lat="46.173194916481044" lon="12.284112889994013"><ele>377.0</ele><time>2026-04-12T08:50:26.857Z</time></trkpt><trkpt lat="46.17327105353031" lon="12.284168976785496"><ele>378.83333333333337</ele><time>2026-04-12T08:50:27.857Z</time></trkpt><trkpt lat="46.17334200385412" lon="12.284194253325088"><ele>380.6666666666667</ele><time>2026-04-12T08:50:28.857Z</time></trkpt><trkpt lat="46.17341471702653" lon="12.284180957062558"><ele>382.5</ele><time>2026-04-12T08:50:29.857Z</time></trkpt><trkpt lat="46.17348374500834" lon="12.284139155381224"><ele>384.33333333333337</ele><time>2026-04-12T08:50:30.857Z</time></trkpt><trkpt lat="46.17354713203693" lon="12.284078033515666"><ele>386.1666666666667</ele><time>2026-04-12T08:50:31.857Z</time></trkpt><trkpt lat="46.1736289033972" lon="12.28402212137331"><ele>388.0</ele><time>2026-04-12T08:50:32.857Z</time></trkpt><trkpt lat="46.1736948473261" lon="12.28393921958864"><ele>387.4</ele><time>2026-04-12T08:50:33.857Z</time></trkpt><trkpt lat="46.17377668918386" lon="12.283874809506125"><ele>386.79999999999995</ele><time>2026-04-12T08:50:34.857Z</time></trkpt><trkpt lat="46.17385255294434" lon="12.283811099049949"><ele>386.2</ele><time>2026-04-12T08:50:35.857Z</time></trkpt><trkpt lat="46.17392216481639" lon="12.283763606558662"><ele>385.6</ele><time>2026-04-12T08:50:36.857Z</time></trkpt><trkpt lat="46.173985449930356" lon="12.2837264229458"><ele>385.0</ele><time>2026-04-12T08:50:37.857Z</time></trkpt><trkpt lat="46.174115170834824" lon="12.283670996434926"><ele>387.1666666666667</ele><time>2026-04-12T08:50:39.857Z</time></trkpt><trkpt lat="46.17418451037099" lon="12.283665274591677"><ele>389.33333333333337</ele><time>2026-04-12T08:50:40.857Z</time></trkpt><trkpt lat="46.174269340034925" lon="12.283643785954743"><ele>391.5</ele><time>2026-04-12T08:50:41.857Z</time></trkpt><trkpt lat="46.17436586167883" lon="12.28363661650682"><ele>393.66666666666663</ele><time>2026-04-12T08:50:42.857Z</time></trkpt><trkpt lat="46.174451658672865" lon="12.283645412051133"><ele>395.8333333333333</ele><time>2026-04-12T08:50:43.857Z</time></trkpt><trkpt lat="46.174534418276764" lon="12.2836729002898"><ele>398.0</ele><time>2026-04-12T08:50:44.857Z</time></trkpt><trkpt lat="46.17463171309798" lon="12.283679555621843"><ele>398.0</ele><time>2026-04-12T08:50:45.857Z</time></trkpt><trkpt lat="46.174720290942275" lon="12.283694610636958"><ele>398.0</ele><time>2026-04-12T08:50:46.857Z</time></trkpt><trkpt lat="46.17479445405276" lon="12.283733108952724"><ele>398.0</ele><time>2026-04-12T08:50:47.857Z</time></trkpt><trkpt lat="46.17487528179388" lon="12.283736623928784"><ele>398.0</ele><time>2026-04-12T08:50:48.857Z</time></trkpt><trkpt lat="46.175001582500045" lon="12.283762851561677"><ele>398.0</ele><time>2026-04-12T08:50:50.857Z</time></trkpt><trkpt lat="46.17508044987122" lon="12.283749958913132"><ele>398.4</ele><time>2026-04-12T08:50:51.857Z</time></trkpt><trkpt lat="46.175166480263805" lon="12.28372926528524"><ele>398.79999999999995</ele><time>2026-04-12T08:50:52.857Z</time></trkpt><trkpt lat="46.17525983684174" lon="12.283697914571116"><ele>399.2</ele><time>2026-04-12T08:50:53.857Z</time></trkpt><trkpt lat="46.17537233001882" lon="12.2836663661058"><ele>399.6</ele><time>2026-04-12T08:50:54.857Z</time></trkpt><trkpt lat="46.17548189527694" lon="12.283626110735135"><ele>400.0</ele><time>2026-04-12T08:50:55.857Z</time></trkpt><trkpt lat="46.17560447010034" lon="12.283581664492445"><ele>399.5</ele><time>2026-04-12T08:50:56.857Z</time></trkpt><trkpt lat="46.17572408792688" lon="12.283537526933145"><ele>399.0</ele><time>2026-04-12T08:50:57.857Z</time></trkpt><trkpt lat="46.17582960412233" lon="12.283507547629744"><ele>398.5</ele><time>2026-04-12T08:50:58.857Z</time></trkpt><trkpt lat="46.175944282031416" lon="12.283471209557474"><ele>398.0</ele><time>2026-04-12T08:50:59.857Z</time></trkpt><trkpt lat="46.17607414908083" lon="12.28342859001015"><ele>398.0</ele><time>2026-04-12T08:51:00.857Z</time></trkpt><trkpt lat="46.176207008524656" lon="12.283393316963394"><ele>398.0</ele><time>2026-04-12T08:51:01.857Z</time></trkpt><trkpt lat="46.176323596082575" lon="12.283380453810626"><ele>398.0</ele><time>2026-04-12T08:51:02.857Z</time></trkpt><trkpt lat="46.17643977251565" lon="12.283378780454562"><ele>398.0</ele><time>2026-04-12T08:51:03.857Z</time></trkpt><trkpt lat="46.17655521266777" lon="12.283385867808231"><ele>396.5</ele><time>2026-04-12T08:51:04.857Z</time></trkpt><trkpt lat="46.17668926646171" lon="12.283385073892353"><ele>395.0</ele><time>2026-04-12T08:51:05.857Z</time></trkpt><trkpt lat="46.17682469361036" lon="12.283402354897575"><ele>393.5</ele><time>2026-04-12T08:51:06.857Z</time></trkpt><trkpt lat="46.17695458465092" lon="12.283418766293288"><ele>392.0</ele><time>2026-04-12T08:51:07.857Z</time></trkpt><trkpt lat="46.17707033576261" lon="12.28343321013898"><ele>392.0</ele><time>2026-04-12T08:51:08.857Z</time></trkpt><trkpt lat="46.17718373321701" lon="12.283447349153771"><ele>392.0</ele><time>2026-04-12T08:51:09.857Z</time></trkpt><trkpt lat="46.177301062158676" lon="12.283458415237064"><ele>392.0</ele><time>2026-04-12T08:51:10.857Z</time></trkpt><trkpt lat="46.17741834715254" lon="12.283467218967917"><ele>392.0</ele><time>2026-04-12T08:51:11.857Z</time></trkpt><trkpt lat="46.17752908692663" lon="12.283475891455838"><ele>393.40000000000003</ele><time>2026-04-12T08:51:12.857Z</time></trkpt><trkpt lat="46.17762893179174" lon="12.28349182475204"><ele>394.8</ele><time>2026-04-12T08:51:13.857Z</time></trkpt><trkpt lat="46.177727379485695" lon="12.283504102596158"><ele>396.2</ele><time>2026-04-12T08:51:14.857Z</time></trkpt><trkpt lat="46.17784342330662" lon="12.283507781255363"><ele>397.6</ele><time>2026-04-12T08:51:15.857Z</time></trkpt><trkpt lat="46.17795248249207" lon="12.283518606643538"><ele>399.0</ele><time>2026-04-12T08:51:16.857Z</time></trkpt><trkpt lat="46.178065087310834" lon="12.283528720490393"><ele>399.0</ele><time>2026-04-12T08:51:17.857Z</time></trkpt><trkpt lat="46.17816515996505" lon="12.283540716103825"><ele>399.0</ele><time>2026-04-12T08:51:18.857Z</time></trkpt><trkpt lat="46.17826130737094" lon="12.283549269240835"><ele>399.0</ele><time>2026-04-12T08:51:19.858Z</time></trkpt><trkpt lat="46.1783519504751" lon="12.283559334106215"><ele>399.0</ele><time>2026-04-12T08:51:20.858Z</time></trkpt><trkpt lat="46.17844967527807" lon="12.283565308876083"><ele>399.0</ele><time>2026-04-12T08:51:21.858Z</time></trkpt><trkpt lat="46.17854678374484" lon="12.283576566916881"><ele>399.0</ele><time>2026-04-12T08:51:22.858Z</time></trkpt><trkpt lat="46.178635308818485" lon="12.283589973449116"><ele>399.0</ele><time>2026-04-12T08:51:23.858Z</time></trkpt><trkpt lat="46.17872218251621" lon="12.283600366201814"><ele>399.0</ele><time>2026-04-12T08:51:24.858Z</time></trkpt><trkpt lat="46.17880647019087" lon="12.283602302376329"><ele>399.0</ele><time>2026-04-12T08:51:25.858Z</time></trkpt><trkpt lat="46.178894542817424" lon="12.283613885736216"><ele>399.0</ele><time>2026-04-12T08:51:26.858Z</time></trkpt><trkpt lat="46.17897898854113" lon="12.283616498789703"><ele>399.0</ele><time>2026-04-12T08:51:27.858Z</time></trkpt><trkpt lat="46.17905175294435" lon="12.28362567549305"><ele>399.4</ele><time>2026-04-12T08:51:28.858Z</time></trkpt><trkpt lat="46.1791200102674" lon="12.2836338727483"><ele>399.79999999999995</ele><time>2026-04-12T08:51:29.858Z</time></trkpt><trkpt lat="46.17924074287098" lon="12.283653772806076"><ele>400.20000000000005</ele><time>2026-04-12T08:51:31.858Z</time></trkpt><trkpt lat="46.179354941484256" lon="12.283674579639497"><ele>400.6</ele><time>2026-04-12T08:51:33.858Z</time></trkpt><trkpt lat="46.17947238022243" lon="12.283712790550897"><ele>401.0</ele><time>2026-04-12T08:51:35.858Z</time></trkpt><trkpt lat="46.17954935900417" lon="12.283762837104687"><ele>401.0</ele><time>2026-04-12T08:51:36.858Z</time></trkpt><trkpt lat="46.17964703046567" lon="12.283798753355564"><ele>401.0</ele><time>2026-04-12T08:51:37.858Z</time></trkpt><trkpt lat="46.1797911998597" lon="12.283813762236413"><ele>401.0</ele><time>2026-04-12T08:51:38.858Z</time></trkpt><trkpt lat="46.17997186029314" lon="12.283833191723552"><ele>401.0</ele><time>2026-04-12T08:51:39.858Z</time></trkpt><trkpt lat="46.180158922619576" lon="12.283882497233044"><ele>400.66666666666663</ele><time>2026-04-12T08:51:40.858Z</time></trkpt><trkpt lat="46.180312608043025" lon="12.283930332992352"><ele>400.33333333333337</ele><time>2026-04-12T08:51:41.858Z</time></trkpt><trkpt lat="46.18045163775424" lon="12.283974314671182"><ele>400.0</ele><time>2026-04-12T08:51:42.858Z</time></trkpt><trkpt lat="46.180600735295656" lon="12.284020385220145"><ele>400.25</ele><time>2026-04-12T08:51:43.858Z</time></trkpt><trkpt lat="46.18075545378557" lon="12.284063958182237"><ele>400.5</ele><time>2026-04-12T08:51:44.858Z</time></trkpt><trkpt lat="46.180900296476786" lon="12.284103738383575"><ele>400.75</ele><time>2026-04-12T08:51:45.858Z</time></trkpt><trkpt lat="46.18103154160105" lon="12.284143640253639"><ele>401.0</ele><time>2026-04-12T08:51:46.858Z</time></trkpt><trkpt lat="46.18115714498907" lon="12.284176353384918"><ele>401.0</ele><time>2026-04-12T08:51:47.858Z</time></trkpt><trkpt lat="46.18128350933259" lon="12.284205295739389"><ele>401.0</ele><time>2026-04-12T08:51:48.858Z</time></trkpt><trkpt lat="46.181403262460684" lon="12.284251449350535"><ele>401.0</ele><time>2026-04-12T08:51:49.858Z</time></trkpt><trkpt lat="46.181522996702874" lon="12.284290512038705"><ele>401.0</ele><time>2026-04-12T08:51:50.858Z</time></trkpt><trkpt lat="46.18164501538518" lon="12.284329527675368"><ele>400.75</ele><time>2026-04-12T08:51:51.858Z</time></trkpt><trkpt lat="46.1817782755745" lon="12.284359735971016"><ele>400.5</ele><time>2026-04-12T08:51:52.858Z</time></trkpt><trkpt lat="46.18190797526302" lon="12.28439968188341"><ele>400.25</ele><time>2026-04-12T08:51:53.858Z</time></trkpt><trkpt lat="46.182041468291345" lon="12.28443577601009"><ele>400.0</ele><time>2026-04-12T08:51:54.858Z</time></trkpt><trkpt lat="46.182178735255285" lon="12.284470989902509"><ele>400.0</ele><time>2026-04-12T08:51:55.858Z</time></trkpt><trkpt lat="46.18231325594426" lon="12.284510427328064"><ele>400.0</ele><time>2026-04-12T08:51:56.858Z</time></trkpt><trkpt lat="46.18244100791658" lon="12.284550717241713"><ele>400.0</ele><time>2026-04-12T08:51:57.858Z</time></trkpt><trkpt lat="46.18256091892446" lon="12.284586281355965"><ele>400.0</ele><time>2026-04-12T08:51:58.858Z</time></trkpt><trkpt lat="46.18268060508331" lon="12.284619308704649"><ele>400.2</ele><time>2026-04-12T08:51:59.858Z</time></trkpt><trkpt lat="46.18278984348452" lon="12.284650198036847"><ele>400.4</ele><time>2026-04-12T08:52:00.858Z</time></trkpt><trkpt lat="46.182897703297996" lon="12.284684843936859"><ele>400.6</ele><time>2026-04-12T08:52:01.858Z</time></trkpt><trkpt lat="46.18300064947056" lon="12.284720752674314"><ele>400.8</ele><time>2026-04-12T08:52:02.858Z</time></trkpt><trkpt lat="46.183094563292926" lon="12.284752865690677"><ele>401.0</ele><time>2026-04-12T08:52:03.858Z</time></trkpt><trkpt lat="46.18319268213745" lon="12.28477899919208"><ele>401.6</ele><time>2026-04-12T08:52:04.858Z</time></trkpt><trkpt lat="46.18329366269027" lon="12.284810863469408"><ele>402.20000000000005</ele><time>2026-04-12T08:52:05.858Z</time></trkpt><trkpt lat="46.183397592271064" lon="12.28484814611959"><ele>402.79999999999995</ele><time>2026-04-12T08:52:06.858Z</time></trkpt><trkpt lat="46.18350962761688" lon="12.284877237756822"><ele>403.4</ele><time>2026-04-12T08:52:07.858Z</time></trkpt><trkpt lat="46.183623093056376" lon="12.284911159348649"><ele>404.0</ele><time>2026-04-12T08:52:08.858Z</time></trkpt><trkpt lat="46.18373590749938" lon="12.28493700075271"><ele>404.0</ele><time>2026-04-12T08:52:09.858Z</time></trkpt><trkpt lat="46.18384910150068" lon="12.284989429662273"><ele>404.0</ele><time>2026-04-12T08:52:10.858Z</time></trkpt><trkpt lat="46.18399225447187" lon="12.285032904584357"><ele>404.0</ele><time>2026-04-12T08:52:11.858Z</time></trkpt><trkpt lat="46.184167548520456" lon="12.285085820857736"><ele>404.0</ele><time>2026-04-12T08:52:12.858Z</time></trkpt><trkpt lat="46.184371749407134" lon="12.285131376296686"><ele>403.3333333333333</ele><time>2026-04-12T08:52:13.858Z</time></trkpt><trkpt lat="46.18458094393105" lon="12.285209281370447"><ele>402.66666666666663</ele><time>2026-04-12T08:52:14.858Z</time></trkpt><trkpt lat="46.18478557921697" lon="12.285271604174678"><ele>402.0</ele><time>2026-04-12T08:52:15.858Z</time></trkpt><trkpt lat="46.18497455861135" lon="12.28532213750516"><ele>402.0</ele><time>2026-04-12T08:52:16.858Z</time></trkpt><trkpt lat="46.18516024829735" lon="12.285384452659075"><ele>402.0</ele><time>2026-04-12T08:52:17.858Z</time></trkpt><trkpt lat="46.18535102657402" lon="12.285451130232513"><ele>402.0</ele><time>2026-04-12T08:52:18.858Z</time></trkpt><trkpt lat="46.185546537821345" lon="12.28551662480422"><ele>402.0</ele><time>2026-04-12T08:52:19.858Z</time></trkpt><trkpt lat="46.18564022362776" lon="12.285518637060308"><ele>402.0</ele><time>2026-04-12T08:52:20.858Z</time></trkpt><trkpt lat="46.185811148983326" lon="12.285562624595494"><ele>402.0</ele><time>2026-04-12T08:52:21.858Z</time></trkpt><trkpt lat="46.18600341953541" lon="12.285634538374719"><ele>402.33333333333337</ele><time>2026-04-12T08:52:22.858Z</time></trkpt><trkpt lat="46.18617050540866" lon="12.285684023905722"><ele>402.6666666666667</ele><time>2026-04-12T08:52:23.858Z</time></trkpt><trkpt lat="46.18635700978423" lon="12.285739379621294"><ele>403.0</ele><time>2026-04-12T08:52:24.858Z</time></trkpt><trkpt lat="46.18655948620692" lon="12.285777535308071"><ele>403.33333333333337</ele><time>2026-04-12T08:52:25.858Z</time></trkpt><trkpt lat="46.18677115339237" lon="12.285843664723336"><ele>403.66666666666663</ele><time>2026-04-12T08:52:26.858Z</time></trkpt><trkpt lat="46.18699427361658" lon="12.285913201540643"><ele>404.0</ele><time>2026-04-12T08:52:27.858Z</time></trkpt><trkpt lat="46.18723494238226" lon="12.28599802900544"><ele>404.5</ele><time>2026-04-12T08:52:28.858Z</time></trkpt><trkpt lat="46.18748835449459" lon="12.286079347431524"><ele>405.0</ele><time>2026-04-12T08:52:29.858Z</time></trkpt><trkpt lat="46.187756693993855" lon="12.28616716899601"><ele>405.0</ele><time>2026-04-12T08:52:30.858Z</time></trkpt><trkpt lat="46.18801354529625" lon="12.286248740572251"><ele>405.0</ele><time>2026-04-12T08:52:31.858Z</time></trkpt><trkpt lat="46.18824597844306" lon="12.286323651601004"><ele>405.0</ele><time>2026-04-12T08:52:32.858Z</time></trkpt><trkpt lat="46.18846552029337" lon="12.286398986885551"><ele>405.0</ele><time>2026-04-12T08:52:33.858Z</time></trkpt><trkpt lat="46.18866489631" lon="12.286459737712473"><ele>405.0</ele><time>2026-04-12T08:52:34.858Z</time></trkpt><trkpt lat="46.188845819586284" lon="12.2865156940659"><ele>405.33333333333337</ele><time>2026-04-12T08:52:35.858Z</time></trkpt><trkpt lat="46.1890072018323" lon="12.28657903032059"><ele>405.6666666666667</ele><time>2026-04-12T08:52:36.858Z</time></trkpt><trkpt lat="46.189159943214634" lon="12.286617691656478"><ele>406.0</ele><time>2026-04-12T08:52:37.858Z</time></trkpt><trkpt lat="46.18931105651622" lon="12.28662356282696"><ele>406.0</ele><time>2026-04-12T08:52:38.858Z</time></trkpt><trkpt lat="46.189465616170615" lon="12.286623858781883"><ele>406.0</ele><time>2026-04-12T08:52:39.858Z</time></trkpt><trkpt lat="46.1896194299098" lon="12.28662023869447"><ele>406.0</ele><time>2026-04-12T08:52:40.858Z</time></trkpt><trkpt lat="46.18977884075325" lon="12.286613831801446"><ele>406.33333333333337</ele><time>2026-04-12T08:52:41.858Z</time></trkpt><trkpt lat="46.18994636782553" lon="12.286612529708451"><ele>406.66666666666663</ele><time>2026-04-12T08:52:42.858Z</time></trkpt><trkpt lat="46.19011339470013" lon="12.286629817830539"><ele>407.0</ele><time>2026-04-12T08:52:43.858Z</time></trkpt><trkpt lat="46.19028055080657" lon="12.286628782299955"><ele>407.0</ele><time>2026-04-12T08:52:44.858Z</time></trkpt><trkpt lat="46.19044510508981" lon="12.286634624326693"><ele>407.0</ele><time>2026-04-12T08:52:45.858Z</time></trkpt><trkpt lat="46.1905972793969" lon="12.286643117144822"><ele>407.0</ele><time>2026-04-12T08:52:46.858Z</time></trkpt><trkpt lat="46.190747809047046" lon="12.28665310406654"><ele>407.3333333333333</ele><time>2026-04-12T08:52:47.858Z</time></trkpt><trkpt lat="46.1909056743736" lon="12.286659710848069"><ele>407.66666666666663</ele><time>2026-04-12T08:52:48.858Z</time></trkpt><trkpt lat="46.191064259462486" lon="12.286674221567052"><ele>408.0</ele><time>2026-04-12T08:52:49.858Z</time></trkpt><trkpt lat="46.1912248555067" lon="12.286679243694012"><ele>408.0</ele><time>2026-04-12T08:52:50.858Z</time></trkpt><trkpt lat="46.191386569725545" lon="12.286684840704448"><ele>408.0</ele><time>2026-04-12T08:52:51.858Z</time></trkpt><trkpt lat="46.19155130651107" lon="12.286692254718234"><ele>408.0</ele><time>2026-04-12T08:52:52.858Z</time></trkpt><trkpt lat="46.1917117639929" lon="12.286700869268191"><ele>408.33333333333337</ele><time>2026-04-12T08:52:53.858Z</time></trkpt><trkpt lat="46.19187629224433" lon="12.286708751228081"><ele>408.6666666666667</ele><time>2026-04-12T08:52:54.858Z</time></trkpt><trkpt lat="46.19204691108973" lon="12.28672369567892"><ele>409.0</ele><time>2026-04-12T08:52:55.858Z</time></trkpt><trkpt lat="46.19221908029907" lon="12.286731246273547"><ele>409.33333333333337</ele><time>2026-04-12T08:52:56.858Z</time></trkpt><trkpt lat="46.19239644490607" lon="12.286733279709056"><ele>409.66666666666663</ele><time>2026-04-12T08:52:57.858Z</time></trkpt><trkpt lat="46.19257528996857" lon="12.28673422537354"><ele>410.0</ele><time>2026-04-12T08:52:58.858Z</time></trkpt><trkpt lat="46.1927579647195" lon="12.286736372990369"><ele>410.0</ele><time>2026-04-12T08:52:59.858Z</time></trkpt><trkpt lat="46.19294178028986" lon="12.286749181408263"><ele>410.0</ele><time>2026-04-12T08:53:00.858Z</time></trkpt><trkpt lat="46.19312763533332" lon="12.286763647536917"><ele>410.0</ele><time>2026-04-12T08:53:01.858Z</time></trkpt><trkpt lat="46.193306331425255" lon="12.28678496154496"><ele>411.0</ele><time>2026-04-12T08:53:02.858Z</time></trkpt><trkpt lat="46.19347741026077" lon="12.286798959050717"><ele>412.0</ele><time>2026-04-12T08:53:03.858Z</time></trkpt><trkpt lat="46.193644109043255" lon="12.286817921347282"><ele>413.0</ele><time>2026-04-12T08:53:04.858Z</time></trkpt><trkpt lat="46.19379544805855" lon="12.286827153651572"><ele>413.0</ele><time>2026-04-12T08:53:05.858Z</time></trkpt><trkpt lat="46.19391370483061" lon="12.286848920810723"><ele>413.0</ele><time>2026-04-12T08:53:06.858Z</time></trkpt><trkpt lat="46.19404512705618" lon="12.286887647438085"><ele>413.0</ele><time>2026-04-12T08:53:07.858Z</time></trkpt><trkpt lat="46.19416876116767" lon="12.286940868400263"><ele>413.0</ele><time>2026-04-12T08:53:08.858Z</time></trkpt><trkpt lat="46.19428035695167" lon="12.287028441682272"><ele>412.25</ele><time>2026-04-12T08:53:09.858Z</time></trkpt><trkpt lat="46.1943018866989" lon="12.286860708093656"><ele>411.5</ele><time>2026-04-12T08:53:10.858Z</time></trkpt><trkpt lat="46.19440428546349" lon="12.286832579003294"><ele>410.75</ele><time>2026-04-12T08:53:11.858Z</time></trkpt><trkpt lat="46.194520692709226" lon="12.286836094244842"><ele>410.0</ele><time>2026-04-12T08:53:12.858Z</time></trkpt><trkpt lat="46.19464456867503" lon="12.286850872088353"><ele>410.0</ele><time>2026-04-12T08:53:13.858Z</time></trkpt><trkpt lat="46.194778098993496" lon="12.286855517031702"><ele>410.0</ele><time>2026-04-12T08:53:14.858Z</time></trkpt><trkpt lat="46.194924483711596" lon="12.28685786008661"><ele>410.0</ele><time>2026-04-12T08:53:15.858Z</time></trkpt><trkpt lat="46.19507823752282" lon="12.286874317802074"><ele>410.0</ele><time>2026-04-12T08:53:16.858Z</time></trkpt><trkpt lat="46.19524102823556" lon="12.286868688007477"><ele>411.0</ele><time>2026-04-12T08:53:17.858Z</time></trkpt><trkpt lat="46.195414303613454" lon="12.286865135150999"><ele>412.0</ele><time>2026-04-12T08:53:18.858Z</time></trkpt><trkpt lat="46.195607013809735" lon="12.286857961612947"><ele>413.0</ele><time>2026-04-12T08:53:19.858Z</time></trkpt><trkpt lat="46.19582509268947" lon="12.28682874875665"><ele>413.0</ele><time>2026-04-12T08:53:20.858Z</time></trkpt><trkpt lat="46.196053513640926" lon="12.286815979134417"><ele>413.0</ele><time>2026-04-12T08:53:21.858Z</time></trkpt><trkpt lat="46.19630202392372" lon="12.286809981737292"><ele>411.0</ele><time>2026-04-12T08:53:22.858Z</time></trkpt><trkpt lat="46.19655918044554" lon="12.286797703836166"><ele>409.0</ele><time>2026-04-12T08:53:23.858Z</time></trkpt><trkpt lat="46.19684399122375" lon="12.286775030205575"><ele>409.0</ele><time>2026-04-12T08:53:24.858Z</time></trkpt><trkpt lat="46.19713998426487" lon="12.2867590502466"><ele>409.0</ele><time>2026-04-12T08:53:25.859Z</time></trkpt><trkpt lat="46.19745534270901" lon="12.28673986158621"><ele>407.5</ele><time>2026-04-12T08:53:26.859Z</time></trkpt><trkpt lat="46.19778432609661" lon="12.286718444926723"><ele>406.0</ele><time>2026-04-12T08:53:27.859Z</time></trkpt><trkpt lat="46.19809925211835" lon="12.286689878699628"><ele>406.0</ele><time>2026-04-12T08:53:28.859Z</time></trkpt><trkpt lat="46.1983895938779" lon="12.286666455425523"><ele>406.0</ele><time>2026-04-12T08:53:29.859Z</time></trkpt><trkpt lat="46.198655472086" lon="12.286645016748995"><ele>406.0</ele><time>2026-04-12T08:53:30.859Z</time></trkpt><trkpt lat="46.19890285592675" lon="12.286626424232885"><ele>406.0</ele><time>2026-04-12T08:53:31.859Z</time></trkpt><trkpt lat="46.19915026509852" lon="12.286606181870322"><ele>408.5</ele><time>2026-04-12T08:53:32.859Z</time></trkpt><trkpt lat="46.19939102975924" lon="12.286587241347707"><ele>411.0</ele><time>2026-04-12T08:53:33.859Z</time></trkpt><trkpt lat="46.19963209578707" lon="12.286568674860016"><ele>410.5</ele><time>2026-04-12T08:53:34.859Z</time></trkpt><trkpt lat="46.199865461700014" lon="12.286547148987735"><ele>410.0</ele><time>2026-04-12T08:53:35.859Z</time></trkpt><trkpt lat="46.20009970281406" lon="12.286529016839252"><ele>410.0</ele><time>2026-04-12T08:53:36.859Z</time></trkpt><trkpt lat="46.20032804926906" lon="12.286510345973255"><ele>410.0</ele><time>2026-04-12T08:53:37.859Z</time></trkpt><trkpt lat="46.20053400086117" lon="12.286497603967451"><ele>410.0</ele><time>2026-04-12T08:53:38.859Z</time></trkpt><trkpt lat="46.20075372879304" lon="12.286490082374025"><ele>409.5</ele><time>2026-04-12T08:53:39.859Z</time></trkpt><trkpt lat="46.20097721842971" lon="12.286473220850288"><ele>409.0</ele><time>2026-04-12T08:53:40.859Z</time></trkpt><trkpt lat="46.20120783851062" lon="12.286455245918575"><ele>409.0</ele><time>2026-04-12T08:53:41.859Z</time></trkpt><trkpt lat="46.20143989594147" lon="12.286439724293535"><ele>409.0</ele><time>2026-04-12T08:53:42.859Z</time></trkpt><trkpt lat="46.20167246220118" lon="12.286415755019098"><ele>414.5</ele><time>2026-04-12T08:53:43.859Z</time></trkpt><trkpt lat="46.20190654749004" lon="12.286381508639277"><ele>420.0</ele><time>2026-04-12T08:53:44.859Z</time></trkpt><trkpt lat="46.20214092943031" lon="12.28633323549444"><ele>419.5</ele><time>2026-04-12T08:53:45.859Z</time></trkpt><trkpt lat="46.202379064140914" lon="12.286265725715632"><ele>419.0</ele><time>2026-04-12T08:53:46.859Z</time></trkpt><trkpt lat="46.20260770857677" lon="12.286187844923234"><ele>419.0</ele><time>2026-04-12T08:53:47.859Z</time></trkpt><trkpt lat="46.202849094675905" lon="12.286112152967322"><ele>419.0</ele><time>2026-04-12T08:53:48.859Z</time></trkpt><trkpt lat="46.20309760723265" lon="12.286058187947406"><ele>418.5</ele><time>2026-04-12T08:53:49.859Z</time></trkpt><trkpt lat="46.20334847483932" lon="12.286015820242772"><ele>418.0</ele><time>2026-04-12T08:53:50.859Z</time></trkpt><trkpt lat="46.20361318585092" lon="12.285974101429268"><ele>418.0</ele><time>2026-04-12T08:53:51.859Z</time></trkpt><trkpt lat="46.20387856010848" lon="12.28593700482359"><ele>418.0</ele><time>2026-04-12T08:53:52.859Z</time></trkpt><trkpt lat="46.20414504680878" lon="12.285913949175164"><ele>416.5</ele><time>2026-04-12T08:53:53.859Z</time></trkpt><trkpt lat="46.20442300357599" lon="12.285881578094758"><ele>415.0</ele><time>2026-04-12T08:53:54.859Z</time></trkpt><trkpt lat="46.204703388715025" lon="12.285848345391681"><ele>415.5</ele><time>2026-04-12T08:53:55.859Z</time></trkpt><trkpt lat="46.20498945860773" lon="12.285822420959438"><ele>416.0</ele><time>2026-04-12T08:53:56.859Z</time></trkpt><trkpt lat="46.2052859000923" lon="12.28579295679675"><ele>416.0</ele><time>2026-04-12T08:53:57.859Z</time></trkpt><trkpt lat="46.205599937775624" lon="12.285755036459499"><ele>416.0</ele><time>2026-04-12T08:53:58.859Z</time></trkpt><trkpt lat="46.20591414534149" lon="12.285722063293695"><ele>414.5</ele><time>2026-04-12T08:53:59.859Z</time></trkpt><trkpt lat="46.20621888329228" lon="12.285681795951124"><ele>413.0</ele><time>2026-04-12T08:54:00.859Z</time></trkpt><trkpt lat="46.206497641819965" lon="12.285648735767692"><ele>411.0</ele><time>2026-04-12T08:54:01.859Z</time></trkpt><trkpt lat="46.20676480146869" lon="12.28562204050127"><ele>409.0</ele><time>2026-04-12T08:54:02.859Z</time></trkpt><trkpt lat="46.207018776149546" lon="12.285607694799262"><ele>409.0</ele><time>2026-04-12T08:54:03.859Z</time></trkpt><trkpt lat="46.20726617819622" lon="12.28560903301131"><ele>409.0</ele><time>2026-04-12T08:54:04.859Z</time></trkpt><trkpt lat="46.20751985991722" lon="12.285613784712707"><ele>407.0</ele><time>2026-04-12T08:54:05.859Z</time></trkpt><trkpt lat="46.20777269652705" lon="12.285629194570257"><ele>405.0</ele><time>2026-04-12T08:54:06.859Z</time></trkpt><trkpt lat="46.208020822701975" lon="12.285654694288656"><ele>407.0</ele><time>2026-04-12T08:54:07.859Z</time></trkpt><trkpt lat="46.20827278676977" lon="12.285683771455412"><ele>409.0</ele><time>2026-04-12T08:54:08.859Z</time></trkpt><trkpt lat="46.20852445759038" lon="12.285713326540103"><ele>409.0</ele><time>2026-04-12T08:54:09.859Z</time></trkpt><trkpt lat="46.20877226727335" lon="12.285766854593014"><ele>409.0</ele><time>2026-04-12T08:54:10.859Z</time></trkpt><trkpt lat="46.20901789808414" lon="12.285836458388761"><ele>407.5</ele><time>2026-04-12T08:54:11.859Z</time></trkpt><trkpt lat="46.20925880535414" lon="12.28592909667951"><ele>406.0</ele><time>2026-04-12T08:54:12.859Z</time></trkpt><trkpt lat="46.20950425971148" lon="12.286036553670261"><ele>406.0</ele><time>2026-04-12T08:54:13.859Z</time></trkpt><trkpt lat="46.209746942808394" lon="12.286144862046687"><ele>406.0</ele><time>2026-04-12T08:54:14.859Z</time></trkpt><trkpt lat="46.209990417179235" lon="12.286253438655033"><ele>403.5</ele><time>2026-04-12T08:54:15.859Z</time></trkpt><trkpt lat="46.21022278167532" lon="12.28635148851514"><ele>401.0</ele><time>2026-04-12T08:54:16.859Z</time></trkpt><trkpt lat="46.21044518099715" lon="12.286449541231217"><ele>405.0</ele><time>2026-04-12T08:54:17.859Z</time></trkpt><trkpt lat="46.21067213401016" lon="12.28654494201557"><ele>409.0</ele><time>2026-04-12T08:54:18.859Z</time></trkpt><trkpt lat="46.2108995381255" lon="12.286641499103546"><ele>409.0</ele><time>2026-04-12T08:54:19.859Z</time></trkpt><trkpt lat="46.2111303181474" lon="12.286744844094551"><ele>409.0</ele><time>2026-04-12T08:54:20.859Z</time></trkpt><trkpt lat="46.21137584008955" lon="12.286829420465468"><ele>415.5</ele><time>2026-04-12T08:54:21.859Z</time></trkpt><trkpt lat="46.211592462962614" lon="12.28692152766001"><ele>422.0</ele><time>2026-04-12T08:54:22.859Z</time></trkpt><trkpt lat="46.2118180880495" lon="12.287014928709974"><ele>422.0</ele><time>2026-04-12T08:54:23.859Z</time></trkpt><trkpt lat="46.21204614530066" lon="12.287111772195892"><ele>422.0</ele><time>2026-04-12T08:54:24.859Z</time></trkpt><trkpt lat="46.21228045304657" lon="12.287206433333813"><ele>413.5</ele><time>2026-04-12T08:54:25.859Z</time></trkpt><trkpt lat="46.212513896101605" lon="12.287297322932293"><ele>405.0</ele><time>2026-04-12T08:54:26.859Z</time></trkpt><trkpt lat="46.21274925924395" lon="12.287392316437888"><ele>405.0</ele><time>2026-04-12T08:54:27.859Z</time></trkpt><trkpt lat="46.212986537306904" lon="12.287487310957914"><ele>405.0</ele><time>2026-04-12T08:54:28.859Z</time></trkpt><trkpt lat="46.21322435514967" lon="12.287588525667443"><ele>410.0</ele><time>2026-04-12T08:54:29.859Z</time></trkpt><trkpt lat="46.21346330451336" lon="12.287691474149444"><ele>415.0</ele><time>2026-04-12T08:54:30.859Z</time></trkpt><trkpt lat="46.21370452560196" lon="12.287789183049007"><ele>415.0</ele><time>2026-04-12T08:54:31.859Z</time></trkpt><trkpt lat="46.21394359351575" lon="12.287889725072363"><ele>415.0</ele><time>2026-04-12T08:54:32.859Z</time></trkpt><trkpt lat="46.214167510349974" lon="12.287980389318196"><ele>419.0</ele><time>2026-04-12T08:54:33.859Z</time></trkpt><trkpt lat="46.21437812801952" lon="12.288064313640145"><ele>423.0</ele><time>2026-04-12T08:54:34.859Z</time></trkpt><trkpt lat="46.21458638689489" lon="12.288141648983535"><ele>427.0</ele><time>2026-04-12T08:54:35.859Z</time></trkpt><trkpt lat="46.214798407962256" lon="12.288212639925302"><ele>420.0</ele><time>2026-04-12T08:54:36.859Z</time></trkpt><trkpt lat="46.21501520376027" lon="12.288264314860552"><ele>413.0</ele><time>2026-04-12T08:54:37.859Z</time></trkpt><trkpt lat="46.21523495221945" lon="12.28830015204505"><ele>406.0</ele><time>2026-04-12T08:54:38.859Z</time></trkpt><trkpt lat="46.215462690303" lon="12.288314108377286"><ele>405.33333333333337</ele><time>2026-04-12T08:54:39.859Z</time></trkpt><trkpt lat="46.21568189947821" lon="12.288311695744161"><ele>404.66666666666663</ele><time>2026-04-12T08:54:40.859Z</time></trkpt><trkpt lat="46.21589757064216" lon="12.28826270810142"><ele>404.0</ele><time>2026-04-12T08:54:41.859Z</time></trkpt><trkpt lat="46.21611352048396" lon="12.288239729975032"><ele>404.0</ele><time>2026-04-12T08:54:42.859Z</time></trkpt><trkpt lat="46.21632424712654" lon="12.288179947585725"><ele>404.0</ele><time>2026-04-12T08:54:43.859Z</time></trkpt><trkpt lat="46.21653520638357" lon="12.288109040346733"><ele>404.0</ele><time>2026-04-12T08:54:44.859Z</time></trkpt><trkpt lat="46.21674297723004" lon="12.288026048728895"><ele>405.3333333333333</ele><time>2026-04-12T08:54:45.859Z</time></trkpt><trkpt lat="46.216951112897576" lon="12.287929222603033"><ele>406.66666666666663</ele><time>2026-04-12T08:54:46.859Z</time></trkpt><trkpt lat="46.21715662848667" lon="12.287816296250552"><ele>408.0</ele><time>2026-04-12T08:54:47.859Z</time></trkpt><trkpt lat="46.217361437120694" lon="12.287692016126377"><ele>408.0</ele><time>2026-04-12T08:54:48.859Z</time></trkpt><trkpt lat="46.21757231872467" lon="12.287559748731633"><ele>408.0</ele><time>2026-04-12T08:54:49.859Z</time></trkpt><trkpt lat="46.21778533961371" lon="12.287436014537066"><ele>408.0</ele><time>2026-04-12T08:54:50.859Z</time></trkpt><trkpt lat="46.217999988639015" lon="12.287315309534774"><ele>408.0</ele><time>2026-04-12T08:54:51.859Z</time></trkpt><trkpt lat="46.218211883283765" lon="12.287195897473024"><ele>410.66666666666663</ele><time>2026-04-12T08:54:52.859Z</time></trkpt><trkpt lat="46.21842177948826" lon="12.287076739179605"><ele>413.3333333333333</ele><time>2026-04-12T08:54:53.859Z</time></trkpt><trkpt lat="46.2186284388395" lon="12.286959692780385"><ele>416.0</ele><time>2026-04-12T08:54:54.859Z</time></trkpt><trkpt lat="46.218834213472796" lon="12.286848014785082"><ele>412.3333333333333</ele><time>2026-04-12T08:54:55.859Z</time></trkpt><trkpt lat="46.219040454933044" lon="12.286737528853733"><ele>408.66666666666663</ele><time>2026-04-12T08:54:56.859Z</time></trkpt><trkpt lat="46.21924297181643" lon="12.286627021834969"><ele>405.0</ele><time>2026-04-12T08:54:57.859Z</time></trkpt><trkpt lat="46.21944778526888" lon="12.286525920441647"><ele>410.33333333333337</ele><time>2026-04-12T08:54:58.859Z</time></trkpt><trkpt lat="46.219652841088" lon="12.286424288499724"><ele>415.6666666666667</ele><time>2026-04-12T08:54:59.859Z</time></trkpt><trkpt lat="46.21985844896143" lon="12.286335358516412"><ele>421.0</ele><time>2026-04-12T08:55:00.859Z</time></trkpt><trkpt lat="46.22007056694191" lon="12.2862623861556"><ele>421.6666666666667</ele><time>2026-04-12T08:55:01.859Z</time></trkpt><trkpt lat="46.22028780306111" lon="12.286206517307885"><ele>422.33333333333337</ele><time>2026-04-12T08:55:02.859Z</time></trkpt><trkpt lat="46.22051221779131" lon="12.286162816403737"><ele>423.0</ele><time>2026-04-12T08:55:03.859Z</time></trkpt><trkpt lat="46.22073496534688" lon="12.28612046703884"><ele>423.0</ele><time>2026-04-12T08:55:04.859Z</time></trkpt><trkpt lat="46.22095912033289" lon="12.286075831646396"><ele>423.0</ele><time>2026-04-12T08:55:05.859Z</time></trkpt><trkpt lat="46.22118972555945" lon="12.286045433081778"><ele>423.0</ele><time>2026-04-12T08:55:06.859Z</time></trkpt><trkpt lat="46.22141512502748" lon="12.286034186383523"><ele>423.0</ele><time>2026-04-12T08:55:07.859Z</time></trkpt><trkpt lat="46.22163884589293" lon="12.286032448658718"><ele>423.0</ele><time>2026-04-12T08:55:08.859Z</time></trkpt><trkpt lat="46.22186759946358" lon="12.286039780057365"><ele>421.5</ele><time>2026-04-12T08:55:09.859Z</time></trkpt><trkpt lat="46.22209712217468" lon="12.28605988596334"><ele>420.0</ele><time>2026-04-12T08:55:10.859Z</time></trkpt><trkpt lat="46.222321355897265" lon="12.286091920480843"><ele>419.0</ele><time>2026-04-12T08:55:11.859Z</time></trkpt><trkpt lat="46.222543875211954" lon="12.286131298798091"><ele>418.0</ele><time>2026-04-12T08:55:12.859Z</time></trkpt><trkpt lat="46.22276573044064" lon="12.28618217096263"><ele>417.0</ele><time>2026-04-12T08:55:13.859Z</time></trkpt><trkpt lat="46.22298278352758" lon="12.286242526607754"><ele>416.66666666666663</ele><time>2026-04-12T08:55:14.859Z</time></trkpt><trkpt lat="46.223187176558525" lon="12.286308162369865"><ele>416.3333333333333</ele><time>2026-04-12T08:55:15.859Z</time></trkpt><trkpt lat="46.22337046984574" lon="12.286378144304937"><ele>416.0</ele><time>2026-04-12T08:55:16.859Z</time></trkpt><trkpt lat="46.22354409255116" lon="12.286447670340541"><ele>414.66666666666663</ele><time>2026-04-12T08:55:17.859Z</time></trkpt><trkpt lat="46.22370111740417" lon="12.286518653930822"><ele>413.33333333333337</ele><time>2026-04-12T08:55:18.859Z</time></trkpt><trkpt lat="46.22384507655196" lon="12.286594415561657"><ele>412.0</ele><time>2026-04-12T08:55:19.859Z</time></trkpt><trkpt lat="46.223976765612406" lon="12.286669744001754"><ele>415.0</ele><time>2026-04-12T08:55:20.859Z</time></trkpt><trkpt lat="46.22410004712078" lon="12.286741780232102"><ele>418.0</ele><time>2026-04-12T08:55:21.859Z</time></trkpt><trkpt lat="46.22422537603909" lon="12.286802886101617"><ele>421.0</ele><time>2026-04-12T08:55:22.859Z</time></trkpt><trkpt lat="46.22435455710909" lon="12.286838010676234"><ele>424.0</ele><time>2026-04-12T08:55:23.859Z</time></trkpt><trkpt lat="46.224475568151135" lon="12.286855012875748"><ele>424.0</ele><time>2026-04-12T08:55:24.859Z</time></trkpt><trkpt lat="46.224581957372465" lon="12.286902372414177"><ele>424.0</ele><time>2026-04-12T08:55:25.859Z</time></trkpt><trkpt lat="46.22467457862233" lon="12.286995169744209"><ele>424.0</ele><time>2026-04-12T08:55:26.859Z</time></trkpt><trkpt lat="46.22474965622346" lon="12.287078664142832"><ele>424.0</ele><time>2026-04-12T08:55:27.859Z</time></trkpt><trkpt lat="46.22485256558604" lon="12.287112405009855"><ele>424.0</ele><time>2026-04-12T08:55:28.859Z</time></trkpt><trkpt lat="46.22496058924843" lon="12.287110006221466"><ele>423.0</ele><time>2026-04-12T08:55:29.859Z</time></trkpt><trkpt lat="46.22507746410005" lon="12.287113978005987"><ele>422.0</ele><time>2026-04-12T08:55:30.859Z</time></trkpt><trkpt lat="46.225194023446505" lon="12.287167536353396"><ele>421.0</ele><time>2026-04-12T08:55:31.86Z</time></trkpt><trkpt lat="46.22530626582734" lon="12.287265753325746"><ele>420.0</ele><time>2026-04-12T08:55:32.86Z</time></trkpt><trkpt lat="46.225420263471726" lon="12.287384927877703"><ele>420.0</ele><time>2026-04-12T08:55:33.86Z</time></trkpt><trkpt lat="46.225542220095186" lon="12.28750214507556"><ele>420.0</ele><time>2026-04-12T08:55:34.86Z</time></trkpt><trkpt lat="46.22568244375438" lon="12.287608219391458"><ele>420.0</ele><time>2026-04-12T08:55:35.86Z</time></trkpt><trkpt lat="46.22584106506909" lon="12.287715972074565"><ele>423.33333333333337</ele><time>2026-04-12T08:55:36.86Z</time></trkpt><trkpt lat="46.226021754958666" lon="12.287821808617316"><ele>426.6666666666667</ele><time>2026-04-12T08:55:37.86Z</time></trkpt><trkpt lat="46.2262118805645" lon="12.287918387600943"><ele>430.0</ele><time>2026-04-12T08:55:38.86Z</time></trkpt><trkpt lat="46.2264078089671" lon="12.28801891843528"><ele>426.5</ele><time>2026-04-12T08:55:39.86Z</time></trkpt><trkpt lat="46.22662086425668" lon="12.288135061022308"><ele>423.0</ele><time>2026-04-12T08:55:40.86Z</time></trkpt><trkpt lat="46.22685092081745" lon="12.288252731144286"><ele>423.0</ele><time>2026-04-12T08:55:41.86Z</time></trkpt><trkpt lat="46.22710430055477" lon="12.28835006709264"><ele>423.0</ele><time>2026-04-12T08:55:42.86Z</time></trkpt><trkpt lat="46.22736571367144" lon="12.288436173539033"><ele>428.0</ele><time>2026-04-12T08:55:43.86Z</time></trkpt><trkpt lat="46.22759392377116" lon="12.288532200455851"><ele>433.0</ele><time>2026-04-12T08:55:44.86Z</time></trkpt><trkpt lat="46.22780881620669" lon="12.288617582559676"><ele>433.0</ele><time>2026-04-12T08:55:45.86Z</time></trkpt><trkpt lat="46.22801548445388" lon="12.288689676986689"><ele>433.0</ele><time>2026-04-12T08:55:46.86Z</time></trkpt><trkpt lat="46.22821337353796" lon="12.288772451740497"><ele>433.0</ele><time>2026-04-12T08:55:47.86Z</time></trkpt><trkpt lat="46.22840559856036" lon="12.288855636264733"><ele>433.0</ele><time>2026-04-12T08:55:48.86Z</time></trkpt><trkpt lat="46.228585031671" lon="12.288944970796503"><ele>433.0</ele><time>2026-04-12T08:55:49.86Z</time></trkpt><trkpt lat="46.22876581562931" lon="12.289036580286938"><ele>433.0</ele><time>2026-04-12T08:55:50.86Z</time></trkpt><trkpt lat="46.22895719706629" lon="12.28913266124273"><ele>433.33333333333337</ele><time>2026-04-12T08:55:51.86Z</time></trkpt><trkpt lat="46.22913879264505" lon="12.289220833894976"><ele>433.66666666666663</ele><time>2026-04-12T08:55:52.86Z</time></trkpt><trkpt lat="46.229316328164195" lon="12.289318480054968"><ele>434.0</ele><time>2026-04-12T08:55:53.86Z</time></trkpt><trkpt lat="46.22949556315849" lon="12.289404625090885"><ele>434.0</ele><time>2026-04-12T08:55:54.86Z</time></trkpt><trkpt lat="46.22967312129414" lon="12.289496678795311"><ele>434.0</ele><time>2026-04-12T08:55:55.86Z</time></trkpt><trkpt lat="46.229850873822535" lon="12.289600540876954"><ele>434.0</ele><time>2026-04-12T08:55:56.86Z</time></trkpt><trkpt lat="46.230025856796544" lon="12.289674035244298"><ele>434.3333333333333</ele><time>2026-04-12T08:55:57.86Z</time></trkpt><trkpt lat="46.230208634941235" lon="12.289767319120925"><ele>434.66666666666663</ele><time>2026-04-12T08:55:58.86Z</time></trkpt><trkpt lat="46.230381141388435" lon="12.28986878717633"><ele>435.0</ele><time>2026-04-12T08:55:59.86Z</time></trkpt><trkpt lat="46.2305547295698" lon="12.289953279226042"><ele>435.66666666666663</ele><time>2026-04-12T08:56:00.86Z</time></trkpt><trkpt lat="46.2307228412099" lon="12.290057983938711"><ele>436.3333333333333</ele><time>2026-04-12T08:56:01.86Z</time></trkpt><trkpt lat="46.23087555062551" lon="12.2901938679312"><ele>437.0</ele><time>2026-04-12T08:56:02.86Z</time></trkpt><trkpt lat="46.23102715815606" lon="12.290332684898818"><ele>437.0</ele><time>2026-04-12T08:56:03.86Z</time></trkpt><trkpt lat="46.231168091888236" lon="12.290471451479979"><ele>437.0</ele><time>2026-04-12T08:56:04.86Z</time></trkpt><trkpt lat="46.23130030728011" lon="12.29060230457104"><ele>437.0</ele><time>2026-04-12T08:56:05.86Z</time></trkpt><trkpt lat="46.231427539433554" lon="12.29073024020937"><ele>438.0</ele><time>2026-04-12T08:56:06.86Z</time></trkpt><trkpt lat="46.23155886783391" lon="12.290847129405789"><ele>439.0</ele><time>2026-04-12T08:56:07.86Z</time></trkpt><trkpt lat="46.2316898984674" lon="12.29097901643266"><ele>440.0</ele><time>2026-04-12T08:56:08.86Z</time></trkpt><trkpt lat="46.23181622884292" lon="12.291133474150941"><ele>440.0</ele><time>2026-04-12T08:56:09.86Z</time></trkpt><trkpt lat="46.231935955122175" lon="12.291299850012882"><ele>440.0</ele><time>2026-04-12T08:56:10.86Z</time></trkpt><trkpt lat="46.23203999974859" lon="12.291497875167277"><ele>440.0</ele><time>2026-04-12T08:56:11.86Z</time></trkpt><trkpt lat="46.23215654478999" lon="12.291678094604219"><ele>441.0</ele><time>2026-04-12T08:56:12.86Z</time></trkpt><trkpt lat="46.23228789098776" lon="12.291852430272385"><ele>442.0</ele><time>2026-04-12T08:56:13.86Z</time></trkpt><trkpt lat="46.232415560825324" lon="12.292050398076626"><ele>443.0</ele><time>2026-04-12T08:56:14.86Z</time></trkpt><trkpt lat="46.23256605934083" lon="12.292238986544124"><ele>439.3333333333333</ele><time>2026-04-12T08:56:15.86Z</time></trkpt><trkpt lat="46.232735250988405" lon="12.292443694498328"><ele>435.66666666666663</ele><time>2026-04-12T08:56:16.86Z</time></trkpt><trkpt lat="46.23291260163872" lon="12.292633269104103"><ele>432.0</ele><time>2026-04-12T08:56:17.86Z</time></trkpt><trkpt lat="46.23309645939974" lon="12.29279880812506"><ele>432.66666666666663</ele><time>2026-04-12T08:56:18.86Z</time></trkpt><trkpt lat="46.23326741992871" lon="12.292957281293434"><ele>433.3333333333333</ele><time>2026-04-12T08:56:19.86Z</time></trkpt><trkpt lat="46.23341585405593" lon="12.29310950918991"><ele>434.0</ele><time>2026-04-12T08:56:20.86Z</time></trkpt><trkpt lat="46.233562616783445" lon="12.293251789734406"><ele>434.0</ele><time>2026-04-12T08:56:21.86Z</time></trkpt><trkpt lat="46.23370605050623" lon="12.293392599805046"><ele>434.0</ele><time>2026-04-12T08:56:22.86Z</time></trkpt><trkpt lat="46.23384312758068" lon="12.293534457156689"><ele>434.0</ele><time>2026-04-12T08:56:23.86Z</time></trkpt><trkpt lat="46.233987712626664" lon="12.293677642986834"><ele>433.0</ele><time>2026-04-12T08:56:24.86Z</time></trkpt><trkpt lat="46.23414631825505" lon="12.293809785230255"><ele>432.0</ele><time>2026-04-12T08:56:25.86Z</time></trkpt><trkpt lat="46.23431358665048" lon="12.293941058728116"><ele>431.0</ele><time>2026-04-12T08:56:26.86Z</time></trkpt><trkpt lat="46.234509234060226" lon="12.29404897869656"><ele>431.0</ele><time>2026-04-12T08:56:27.86Z</time></trkpt><trkpt lat="46.23472056634937" lon="12.294151485242606"><ele>431.0</ele><time>2026-04-12T08:56:28.86Z</time></trkpt><trkpt lat="46.234942643787136" lon="12.294256852489426"><ele>436.0</ele><time>2026-04-12T08:56:29.86Z</time></trkpt><trkpt lat="46.235184961261844" lon="12.294349323551314"><ele>441.0</ele><time>2026-04-12T08:56:30.86Z</time></trkpt><trkpt lat="46.23544378982006" lon="12.294426188772684"><ele>441.0</ele><time>2026-04-12T08:56:31.86Z</time></trkpt><trkpt lat="46.235704622955815" lon="12.294512527639226"><ele>441.0</ele><time>2026-04-12T08:56:32.86Z</time></trkpt><trkpt lat="46.235940609825995" lon="12.294610314037815"><ele>441.0</ele><time>2026-04-12T08:56:33.86Z</time></trkpt><trkpt lat="46.23615602275535" lon="12.2947189871315"><ele>441.0</ele><time>2026-04-12T08:56:34.86Z</time></trkpt><trkpt lat="46.23637197749667" lon="12.294795571013369"><ele>439.0</ele><time>2026-04-12T08:56:35.86Z</time></trkpt><trkpt lat="46.236581678286036" lon="12.294846385192434"><ele>437.0</ele><time>2026-04-12T08:56:36.86Z</time></trkpt><trkpt lat="46.23677279025477" lon="12.29491816754545"><ele>435.0</ele><time>2026-04-12T08:56:37.86Z</time></trkpt><trkpt lat="46.23696320385726" lon="12.294983594688299"><ele>435.0</ele><time>2026-04-12T08:56:38.86Z</time></trkpt><trkpt lat="46.23715208352096" lon="12.295048814697571"><ele>435.0</ele><time>2026-04-12T08:56:39.86Z</time></trkpt><trkpt lat="46.237336037187966" lon="12.295139126981152"><ele>435.0</ele><time>2026-04-12T08:56:40.86Z</time></trkpt><trkpt lat="46.237525516221574" lon="12.295183072589971"><ele>436.0</ele><time>2026-04-12T08:56:41.86Z</time></trkpt><trkpt lat="46.23770748485031" lon="12.295249937474244"><ele>437.0</ele><time>2026-04-12T08:56:42.86Z</time></trkpt><trkpt lat="46.23789048170788" lon="12.29532012681772"><ele>438.0</ele><time>2026-04-12T08:56:43.86Z</time></trkpt><trkpt lat="46.23807538925431" lon="12.295393210201304"><ele>436.66666666666663</ele><time>2026-04-12T08:56:44.86Z</time></trkpt><trkpt lat="46.23825207701152" lon="12.295457042349161"><ele>435.3333333333333</ele><time>2026-04-12T08:56:45.86Z</time></trkpt><trkpt lat="46.238425457340185" lon="12.295519378694996"><ele>434.0</ele><time>2026-04-12T08:56:46.86Z</time></trkpt><trkpt lat="46.2386082245191" lon="12.295576119308055"><ele>434.0</ele><time>2026-04-12T08:56:47.86Z</time></trkpt><trkpt lat="46.23879588964086" lon="12.29561748324678"><ele>434.0</ele><time>2026-04-12T08:56:48.86Z</time></trkpt><trkpt lat="46.2390020454752" lon="12.295637373443284"><ele>434.0</ele><time>2026-04-12T08:56:49.86Z</time></trkpt><trkpt lat="46.23921644228066" lon="12.2956453111067"><ele>434.0</ele><time>2026-04-12T08:56:50.86Z</time></trkpt><trkpt lat="46.239436419238096" lon="12.2956229834833"><ele>434.0</ele><time>2026-04-12T08:56:51.86Z</time></trkpt><trkpt lat="46.239656565304976" lon="12.295572456645463"><ele>434.0</ele><time>2026-04-12T08:56:52.86Z</time></trkpt><trkpt lat="46.23987136930529" lon="12.2955002022761"><ele>435.0</ele><time>2026-04-12T08:56:53.86Z</time></trkpt><trkpt lat="46.24007337441554" lon="12.295407852223796"><ele>436.0</ele><time>2026-04-12T08:56:54.86Z</time></trkpt><trkpt lat="46.24025738030944" lon="12.29530162989767"><ele>437.0</ele><time>2026-04-12T08:56:55.86Z</time></trkpt><trkpt lat="46.240442988234605" lon="12.295187364657712"><ele>437.0</ele><time>2026-04-12T08:56:56.86Z</time></trkpt><trkpt lat="46.24062407200883" lon="12.295053060598367"><ele>437.0</ele><time>2026-04-12T08:56:57.86Z</time></trkpt><trkpt lat="46.240798667240306" lon="12.294911323242895"><ele>437.0</ele><time>2026-04-12T08:56:58.86Z</time></trkpt><trkpt lat="46.240968657105455" lon="12.29477437939408"><ele>440.3333333333333</ele><time>2026-04-12T08:56:59.86Z</time></trkpt><trkpt lat="46.241148533661445" lon="12.294660173621175"><ele>443.66666666666663</ele><time>2026-04-12T08:57:00.86Z</time></trkpt><trkpt lat="46.241333743973605" lon="12.294590774949686"><ele>447.0</ele><time>2026-04-12T08:57:01.86Z</time></trkpt><trkpt lat="46.24153255717982" lon="12.294566103619886"><ele>450.66666666666663</ele><time>2026-04-12T08:57:02.86Z</time></trkpt><trkpt lat="46.24173880108522" lon="12.294581704444377"><ele>454.3333333333333</ele><time>2026-04-12T08:57:03.86Z</time></trkpt><trkpt lat="46.24194820969251" lon="12.294641766830164"><ele>458.0</ele><time>2026-04-12T08:57:04.86Z</time></trkpt><trkpt lat="46.24215449589544" lon="12.294754206764416"><ele>451.0</ele><time>2026-04-12T08:57:05.86Z</time></trkpt><trkpt lat="46.24235722315812" lon="12.29491583383707"><ele>444.0</ele><time>2026-04-12T08:57:06.86Z</time></trkpt><trkpt lat="46.242561670593" lon="12.295102342934804"><ele>444.0</ele><time>2026-04-12T08:57:07.86Z</time></trkpt><trkpt lat="46.24276104250958" lon="12.295322721613617"><ele>444.0</ele><time>2026-04-12T08:57:08.86Z</time></trkpt><trkpt lat="46.24297762703005" lon="12.295560118757683"><ele>442.5</ele><time>2026-04-12T08:57:09.86Z</time></trkpt><trkpt lat="46.243195726858396" lon="12.295808085367463"><ele>441.0</ele><time>2026-04-12T08:57:10.86Z</time></trkpt><trkpt lat="46.24341645193357" lon="12.296042424492276"><ele>441.0</ele><time>2026-04-12T08:57:11.86Z</time></trkpt><trkpt lat="46.24363044558271" lon="12.296275149450379"><ele>441.0</ele><time>2026-04-12T08:57:12.86Z</time></trkpt><trkpt lat="46.24384750945615" lon="12.296488161493857"><ele>440.0</ele><time>2026-04-12T08:57:13.86Z</time></trkpt><trkpt lat="46.244058148058855" lon="12.296700365803643"><ele>439.0</ele><time>2026-04-12T08:57:14.86Z</time></trkpt><trkpt lat="46.24425014996297" lon="12.29689640696469"><ele>439.0</ele><time>2026-04-12T08:57:15.86Z</time></trkpt><trkpt lat="46.24443346528327" lon="12.297083370929242"><ele>439.0</ele><time>2026-04-12T08:57:16.86Z</time></trkpt><trkpt lat="46.24460551253098" lon="12.297259536796027"><ele>439.0</ele><time>2026-04-12T08:57:17.86Z</time></trkpt><trkpt lat="46.24477753532933" lon="12.297432047167439"><ele>437.33333333333337</ele><time>2026-04-12T08:57:18.86Z</time></trkpt><trkpt lat="46.2449511476809" lon="12.2976124416523"><ele>435.66666666666663</ele><time>2026-04-12T08:57:19.86Z</time></trkpt><trkpt lat="46.24512366914587" lon="12.297801247735928"><ele>434.0</ele><time>2026-04-12T08:57:20.86Z</time></trkpt><trkpt lat="46.24529077572679" lon="12.297990165387105"><ele>434.0</ele><time>2026-04-12T08:57:21.86Z</time></trkpt><trkpt lat="46.245450609536505" lon="12.298177149406072"><ele>434.0</ele><time>2026-04-12T08:57:22.86Z</time></trkpt><trkpt lat="46.245598741544924" lon="12.298362551474014"><ele>434.0</ele><time>2026-04-12T08:57:23.86Z</time></trkpt><trkpt lat="46.245738246635305" lon="12.298535190075452"><ele>434.0</ele><time>2026-04-12T08:57:24.86Z</time></trkpt><trkpt lat="46.245892625855156" lon="12.298687255058862"><ele>434.0</ele><time>2026-04-12T08:57:25.86Z</time></trkpt><trkpt lat="46.246061009525086" lon="12.298818208059933"><ele>434.0</ele><time>2026-04-12T08:57:26.86Z</time></trkpt><trkpt lat="46.246245334535494" lon="12.298922718196508"><ele>432.66666666666663</ele><time>2026-04-12T08:57:27.86Z</time></trkpt><trkpt lat="46.246442074816414" lon="12.2990079561493"><ele>431.33333333333337</ele><time>2026-04-12T08:57:28.86Z</time></trkpt><trkpt lat="46.24664341174227" lon="12.299068984390312"><ele>430.0</ele><time>2026-04-12T08:57:29.86Z</time></trkpt><trkpt lat="46.24683106860378" lon="12.299101754787522"><ele>430.0</ele><time>2026-04-12T08:57:30.86Z</time></trkpt><trkpt lat="46.24701234024741" lon="12.299109186100434"><ele>430.0</ele><time>2026-04-12T08:57:31.86Z</time></trkpt><trkpt lat="46.24719144466429" lon="12.299100701347658"><ele>430.0</ele><time>2026-04-12T08:57:32.86Z</time></trkpt><trkpt lat="46.24737206433868" lon="12.299066090242713"><ele>429.33333333333337</ele><time>2026-04-12T08:57:33.86Z</time></trkpt><trkpt lat="46.24755058166685" lon="12.299014368846619"><ele>428.66666666666663</ele><time>2026-04-12T08:57:34.86Z</time></trkpt><trkpt lat="46.24773182057745" lon="12.29895216561003"><ele>428.0</ele><time>2026-04-12T08:57:35.86Z</time></trkpt><trkpt lat="46.24790897412365" lon="12.298880998123767"><ele>429.66666666666663</ele><time>2026-04-12T08:57:36.86Z</time></trkpt><trkpt lat="46.24808254822317" lon="12.29880941917044"><ele>431.33333333333337</ele><time>2026-04-12T08:57:37.861Z</time></trkpt><trkpt lat="46.24826560705942" lon="12.29874315236782"><ele>433.0</ele><time>2026-04-12T08:57:38.861Z</time></trkpt><trkpt lat="46.24844740514228" lon="12.298698153288838"><ele>433.0</ele><time>2026-04-12T08:57:39.861Z</time></trkpt><trkpt lat="46.248632106812046" lon="12.298658155769141"><ele>433.0</ele><time>2026-04-12T08:57:40.861Z</time></trkpt><trkpt lat="46.24881640648633" lon="12.298632780538325"><ele>433.0</ele><time>2026-04-12T08:57:41.861Z</time></trkpt><trkpt lat="46.24900265970458" lon="12.298602151214569"><ele>433.33333333333337</ele><time>2026-04-12T08:57:42.861Z</time></trkpt><trkpt lat="46.24918929041617" lon="12.298562117436177"><ele>433.66666666666663</ele><time>2026-04-12T08:57:43.861Z</time></trkpt><trkpt lat="46.24937608263348" lon="12.29852381734539"><ele>434.0</ele><time>2026-04-12T08:57:44.861Z</time></trkpt><trkpt lat="46.249562419649656" lon="12.298498079801677"><ele>434.0</ele><time>2026-04-12T08:57:45.861Z</time></trkpt><trkpt lat="46.24975922659581" lon="12.298455806739009"><ele>434.0</ele><time>2026-04-12T08:57:46.861Z</time></trkpt><trkpt lat="46.249949438111905" lon="12.298418807190913"><ele>434.0</ele><time>2026-04-12T08:57:47.861Z</time></trkpt><trkpt lat="46.25014560704103" lon="12.298384824204389"><ele>435.0</ele><time>2026-04-12T08:57:48.861Z</time></trkpt><trkpt lat="46.2503432044133" lon="12.298350459849365"><ele>436.0</ele><time>2026-04-12T08:57:49.862Z</time></trkpt><trkpt lat="46.25054268385577" lon="12.298331699324525"><ele>437.0</ele><time>2026-04-12T08:57:50.862Z</time></trkpt><trkpt lat="46.25074300119282" lon="12.298345286553536"><ele>437.0</ele><time>2026-04-12T08:57:51.862Z</time></trkpt><trkpt lat="46.25094612214474" lon="12.298371534195915"><ele>437.0</ele><time>2026-04-12T08:57:52.862Z</time></trkpt><trkpt lat="46.251147644237165" lon="12.298402533141102"><ele>437.0</ele><time>2026-04-12T08:57:53.862Z</time></trkpt><trkpt lat="46.25135646506651" lon="12.29842500179707"><ele>439.0</ele><time>2026-04-12T08:57:54.862Z</time></trkpt><trkpt lat="46.251562968331854" lon="12.298458774747875"><ele>441.0</ele><time>2026-04-12T08:57:55.862Z</time></trkpt><trkpt lat="46.251770625290966" lon="12.298493009516811"><ele>443.0</ele><time>2026-04-12T08:57:56.862Z</time></trkpt><trkpt lat="46.25197911578279" lon="12.298526052359811"><ele>443.0</ele><time>2026-04-12T08:57:57.862Z</time></trkpt><trkpt lat="46.2521855800794" lon="12.298550331523142"><ele>443.0</ele><time>2026-04-12T08:57:58.862Z</time></trkpt><trkpt lat="46.25239676083526" lon="12.298573495859014"><ele>443.0</ele><time>2026-04-12T08:57:59.862Z</time></trkpt><trkpt lat="46.25261070244747" lon="12.298600081787658"><ele>445.0</ele><time>2026-04-12T08:58:00.862Z</time></trkpt><trkpt lat="46.25282705318345" lon="12.29862570846707"><ele>447.0</ele><time>2026-04-12T08:58:01.862Z</time></trkpt><trkpt lat="46.25304617385645" lon="12.298637620021708"><ele>449.0</ele><time>2026-04-12T08:58:02.862Z</time></trkpt><trkpt lat="46.25326499043616" lon="12.298642773538205"><ele>449.0</ele><time>2026-04-12T08:58:03.862Z</time></trkpt><trkpt lat="46.25348175582803" lon="12.298647760640208"><ele>449.0</ele><time>2026-04-12T08:58:04.862Z</time></trkpt><trkpt lat="46.25370008522242" lon="12.29865403032653"><ele>449.0</ele><time>2026-04-12T08:58:05.862Z</time></trkpt><trkpt lat="46.25391925536227" lon="12.298655509108892"><ele>448.0</ele><time>2026-04-12T08:58:06.862Z</time></trkpt><trkpt lat="46.254139115303765" lon="12.29866277348029"><ele>447.0</ele><time>2026-04-12T08:58:07.862Z</time></trkpt><trkpt lat="46.25435439223011" lon="12.298667001586571"><ele>446.0</ele><time>2026-04-12T08:58:08.862Z</time></trkpt><trkpt lat="46.25456364224694" lon="12.298672831001026"><ele>446.0</ele><time>2026-04-12T08:58:09.862Z</time></trkpt><trkpt lat="46.25477054261814" lon="12.298679811771196"><ele>446.0</ele><time>2026-04-12T08:58:10.862Z</time></trkpt><trkpt lat="46.254974773424514" lon="12.298682233875464"><ele>446.0</ele><time>2026-04-12T08:58:11.862Z</time></trkpt><trkpt lat="46.255176825479886" lon="12.29868805797318"><ele>446.66666666666663</ele><time>2026-04-12T08:58:12.862Z</time></trkpt><trkpt lat="46.255381095486676" lon="12.298696956390948"><ele>447.33333333333337</ele><time>2026-04-12T08:58:13.862Z</time></trkpt><trkpt lat="46.25558750155606" lon="12.298720029939835"><ele>448.0</ele><time>2026-04-12T08:58:14.862Z</time></trkpt><trkpt lat="46.25579825532761" lon="12.298764046879363"><ele>448.0</ele><time>2026-04-12T08:58:15.862Z</time></trkpt><trkpt lat="46.256010960694944" lon="12.298824156488168"><ele>448.0</ele><time>2026-04-12T08:58:16.862Z</time></trkpt><trkpt lat="46.2562247021658" lon="12.298895457166688"><ele>448.0</ele><time>2026-04-12T08:58:17.862Z</time></trkpt><trkpt lat="46.256439879103915" lon="12.298984041843937"><ele>442.5</ele><time>2026-04-12T08:58:18.862Z</time></trkpt><trkpt lat="46.256659890863695" lon="12.299078588343953"><ele>437.0</ele><time>2026-04-12T08:58:19.862Z</time></trkpt><trkpt lat="46.256879773538934" lon="12.299173338363127"><ele>437.0</ele><time>2026-04-12T08:58:20.862Z</time></trkpt><trkpt lat="46.25709985338577" lon="12.299277659828892"><ele>437.0</ele><time>2026-04-12T08:58:21.862Z</time></trkpt><trkpt lat="46.25731722615184" lon="12.299384984284732"><ele>441.66666666666663</ele><time>2026-04-12T08:58:22.862Z</time></trkpt><trkpt lat="46.25752727921669" lon="12.299494242683743"><ele>446.33333333333337</ele><time>2026-04-12T08:58:23.862Z</time></trkpt><trkpt lat="46.257731684768046" lon="12.299601274639052"><ele>451.0</ele><time>2026-04-12T08:58:24.862Z</time></trkpt><trkpt lat="46.25793757225991" lon="12.299693427424637"><ele>445.6666666666667</ele><time>2026-04-12T08:58:25.862Z</time></trkpt><trkpt lat="46.25814361129763" lon="12.299766894630846"><ele>440.33333333333337</ele><time>2026-04-12T08:58:26.862Z</time></trkpt><trkpt lat="46.25836153096103" lon="12.299826998695622"><ele>435.0</ele><time>2026-04-12T08:58:27.862Z</time></trkpt><trkpt lat="46.258579022417734" lon="12.299875062527034"><ele>435.0</ele><time>2026-04-12T08:58:28.862Z</time></trkpt><trkpt lat="46.25879219987444" lon="12.299913428725604"><ele>435.0</ele><time>2026-04-12T08:58:29.862Z</time></trkpt><trkpt lat="46.258996029943575" lon="12.299955067957727"><ele>435.0</ele><time>2026-04-12T08:58:30.862Z</time></trkpt><trkpt lat="46.25919565979616" lon="12.299991732395252"><ele>436.66666666666663</ele><time>2026-04-12T08:58:31.862Z</time></trkpt><trkpt lat="46.25939402341619" lon="12.300055526697902"><ele>438.3333333333333</ele><time>2026-04-12T08:58:32.862Z</time></trkpt><trkpt lat="46.25957970454691" lon="12.300137838560829"><ele>440.0</ele><time>2026-04-12T08:58:33.862Z</time></trkpt><trkpt lat="46.25976640524306" lon="12.300230762402308"><ele>441.66666666666663</ele><time>2026-04-12T08:58:34.862Z</time></trkpt><trkpt lat="46.25994792325479" lon="12.300315647881412"><ele>443.33333333333337</ele><time>2026-04-12T08:58:35.862Z</time></trkpt><trkpt lat="46.2601423294859" lon="12.30039960311837"><ele>445.0</ele><time>2026-04-12T08:58:36.862Z</time></trkpt><trkpt lat="46.26032907665556" lon="12.300482215250222"><ele>445.0</ele><time>2026-04-12T08:58:37.862Z</time></trkpt><trkpt lat="46.26050817483445" lon="12.30058005495051"><ele>445.0</ele><time>2026-04-12T08:58:38.862Z</time></trkpt><trkpt lat="46.26068396280139" lon="12.3006968670311"><ele>445.0</ele><time>2026-04-12T08:58:39.862Z</time></trkpt><trkpt lat="46.260842855234564" lon="12.30088637317266"><ele>447.0</ele><time>2026-04-12T08:58:40.862Z</time></trkpt><trkpt lat="46.26102896268042" lon="12.301047493799157"><ele>449.0</ele><time>2026-04-12T08:58:41.862Z</time></trkpt><trkpt lat="46.261220370335046" lon="12.30120853340631"><ele>451.0</ele><time>2026-04-12T08:58:42.862Z</time></trkpt><trkpt lat="46.26140820184663" lon="12.301357142902999"><ele>450.33333333333337</ele><time>2026-04-12T08:58:43.862Z</time></trkpt><trkpt lat="46.26157947006196" lon="12.301487685602508"><ele>449.66666666666663</ele><time>2026-04-12T08:58:44.862Z</time></trkpt><trkpt lat="46.261746357692125" lon="12.301606258532969"><ele>449.0</ele><time>2026-04-12T08:58:45.862Z</time></trkpt><trkpt lat="46.261905116906" lon="12.301695548285835"><ele>449.0</ele><time>2026-04-12T08:58:46.862Z</time></trkpt><trkpt lat="46.2620522618554" lon="12.301792605687666"><ele>449.0</ele><time>2026-04-12T08:58:47.862Z</time></trkpt><trkpt lat="46.26219190395202" lon="12.301889935728983"><ele>449.0</ele><time>2026-04-12T08:58:48.862Z</time></trkpt><trkpt lat="46.262331953884214" lon="12.301973850597093"><ele>448.3333333333333</ele><time>2026-04-12T08:58:49.862Z</time></trkpt><trkpt lat="46.26246865565646" lon="12.302069464005152"><ele>447.66666666666663</ele><time>2026-04-12T08:58:50.862Z</time></trkpt><trkpt lat="46.26261054812057" lon="12.302162129465149"><ele>447.0</ele><time>2026-04-12T08:58:51.862Z</time></trkpt><trkpt lat="46.26275877193864" lon="12.302255992236704"><ele>447.0</ele><time>2026-04-12T08:58:52.862Z</time></trkpt><trkpt lat="46.26290661843954" lon="12.302358160943774"><ele>447.0</ele><time>2026-04-12T08:58:53.862Z</time></trkpt><trkpt lat="46.26305460598445" lon="12.30246770321751"><ele>447.0</ele><time>2026-04-12T08:58:54.862Z</time></trkpt><trkpt lat="46.26320144224309" lon="12.30256687589252"><ele>453.33333333333337</ele><time>2026-04-12T08:58:55.862Z</time></trkpt><trkpt lat="46.2633506232098" lon="12.302665546401434"><ele>459.6666666666667</ele><time>2026-04-12T08:58:56.862Z</time></trkpt><trkpt lat="46.263499988680316" lon="12.302775053808883"><ele>466.0</ele><time>2026-04-12T08:58:57.862Z</time></trkpt><trkpt lat="46.26363678441197" lon="12.302869805367001"><ele>466.0</ele><time>2026-04-12T08:58:58.862Z</time></trkpt><trkpt lat="46.2637604958737" lon="12.302946658385052"><ele>466.0</ele><time>2026-04-12T08:58:59.862Z</time></trkpt><trkpt lat="46.263878842307726" lon="12.303017206800398"><ele>466.0</ele><time>2026-04-12T08:59:00.862Z</time></trkpt><trkpt lat="46.26397361167413" lon="12.303047019895569"><ele>466.0</ele><time>2026-04-12T08:59:01.862Z</time></trkpt><trkpt lat="46.26407323886936" lon="12.303079212064578"><ele>464.6</ele><time>2026-04-12T08:59:02.862Z</time></trkpt><trkpt lat="46.264177027695226" lon="12.303087971432022"><ele>463.20000000000005</ele><time>2026-04-12T08:59:03.862Z</time></trkpt><trkpt lat="46.26428643132561" lon="12.303081970439878"><ele>461.79999999999995</ele><time>2026-04-12T08:59:04.862Z</time></trkpt><trkpt lat="46.26439043002161" lon="12.303072227871148"><ele>460.4</ele><time>2026-04-12T08:59:05.862Z</time></trkpt><trkpt lat="46.264492205163556" lon="12.303045626459161"><ele>459.0</ele><time>2026-04-12T08:59:06.862Z</time></trkpt><trkpt lat="46.26458754282549" lon="12.303025797234254"><ele>462.0</ele><time>2026-04-12T08:59:07.862Z</time></trkpt><trkpt lat="46.264686277338676" lon="12.302972429460208"><ele>465.0</ele><time>2026-04-12T08:59:08.862Z</time></trkpt><trkpt lat="46.26477852515415" lon="12.302900274302882"><ele>468.0</ele><time>2026-04-12T08:59:09.862Z</time></trkpt><trkpt lat="46.2648717723713" lon="12.302814727517795"><ele>471.0</ele><time>2026-04-12T08:59:10.862Z</time></trkpt><trkpt lat="46.26495232444824" lon="12.302709354224758"><ele>474.0</ele><time>2026-04-12T08:59:11.862Z</time></trkpt><trkpt lat="46.26502934628372" lon="12.302593300962611"><ele>474.0</ele><time>2026-04-12T08:59:12.862Z</time></trkpt><trkpt lat="46.26509936220108" lon="12.302468123609037"><ele>474.0</ele><time>2026-04-12T08:59:13.862Z</time></trkpt><trkpt lat="46.26516648046302" lon="12.30233962178991"><ele>474.0</ele><time>2026-04-12T08:59:14.862Z</time></trkpt><trkpt lat="46.265235415973635" lon="12.302220712844901"><ele>474.0</ele><time>2026-04-12T08:59:15.862Z</time></trkpt><trkpt lat="46.26530499498604" lon="12.30211975934702"><ele>474.0</ele><time>2026-04-12T08:59:16.862Z</time></trkpt><trkpt lat="46.26537615229527" lon="12.302033133194788"><ele>473.8333333333333</ele><time>2026-04-12T08:59:17.862Z</time></trkpt><trkpt lat="46.26544258452278" lon="12.301947683573927"><ele>473.66666666666663</ele><time>2026-04-12T08:59:18.862Z</time></trkpt><trkpt lat="46.265509484077654" lon="12.301879373950502"><ele>473.5</ele><time>2026-04-12T08:59:19.862Z</time></trkpt><trkpt lat="46.26558043554163" lon="12.301816466863425"><ele>473.3333333333333</ele><time>2026-04-12T08:59:20.862Z</time></trkpt><trkpt lat="46.26564524657173" lon="12.301749083006237"><ele>473.16666666666663</ele><time>2026-04-12T08:59:21.862Z</time></trkpt><trkpt lat="46.2656856494256" lon="12.301648724859431"><ele>473.0</ele><time>2026-04-12T08:59:22.862Z</time></trkpt><trkpt lat="46.26569943580061" lon="12.30152753686221"><ele>474.2</ele><time>2026-04-12T08:59:23.862Z</time></trkpt><trkpt lat="46.265683655047276" lon="12.301400338513055"><ele>475.4</ele><time>2026-04-12T08:59:24.862Z</time></trkpt><trkpt lat="46.26565496791157" lon="12.30125712773414"><ele>476.59999999999997</ele><time>2026-04-12T08:59:25.862Z</time></trkpt><trkpt lat="46.265661004038584" lon="12.301095732574069"><ele>477.79999999999995</ele><time>2026-04-12T08:59:26.862Z</time></trkpt><trkpt lat="46.265690810622544" lon="12.3009463361867"><ele>479.0</ele><time>2026-04-12T08:59:27.862Z</time></trkpt><trkpt lat="46.265719280826076" lon="12.30082518539184"><ele>478.99999999999994</ele><time>2026-04-12T08:59:28.862Z</time></trkpt><trkpt lat="46.26573167925776" lon="12.300718130885752"><ele>479.0</ele><time>2026-04-12T08:59:29.862Z</time></trkpt><trkpt lat="46.26575082425987" lon="12.300538680719864"><ele>479.0</ele><time>2026-04-12T08:59:31.862Z</time></trkpt><trkpt lat="46.26576597527828" lon="12.300419926296854"><ele>479.0</ele><time>2026-04-12T08:59:32.862Z</time></trkpt><trkpt lat="46.26577214024672" lon="12.300295005518109"><ele>478.99999999999994</ele><time>2026-04-12T08:59:33.862Z</time></trkpt><trkpt lat="46.26576144003326" lon="12.300186499689913"><ele>479.0</ele><time>2026-04-12T08:59:34.862Z</time></trkpt><trkpt lat="46.265735543563515" lon="12.300081455303857"><ele>480.0</ele><time>2026-04-12T08:59:35.862Z</time></trkpt><trkpt lat="46.26568800020914" lon="12.299990030589052"><ele>481.0</ele><time>2026-04-12T08:59:36.862Z</time></trkpt><trkpt lat="46.26561615251074" lon="12.299917720851058"><ele>482.0</ele><time>2026-04-12T08:59:37.862Z</time></trkpt><trkpt lat="46.265523891895995" lon="12.299867031576978"><ele>483.0</ele><time>2026-04-12T08:59:38.862Z</time></trkpt><trkpt lat="46.26542188227834" lon="12.299872627032112"><ele>484.0</ele><time>2026-04-12T08:59:39.862Z</time></trkpt><trkpt lat="46.26532724177774" lon="12.299908067447976"><ele>485.2</ele><time>2026-04-12T08:59:40.862Z</time></trkpt><trkpt lat="46.26524302518613" lon="12.299971671435005"><ele>486.4</ele><time>2026-04-12T08:59:41.862Z</time></trkpt><trkpt lat="46.26517211374011" lon="12.300066680571987"><ele>487.6</ele><time>2026-04-12T08:59:42.862Z</time></trkpt><trkpt lat="46.265124067373925" lon="12.300199927537852"><ele>488.8</ele><time>2026-04-12T08:59:43.863Z</time></trkpt><trkpt lat="46.2650612584783" lon="12.300333897503803"><ele>490.0</ele><time>2026-04-12T08:59:44.863Z</time></trkpt><trkpt lat="46.26498058335627" lon="12.300455663369492"><ele>490.0</ele><time>2026-04-12T08:59:45.863Z</time></trkpt><trkpt lat="46.264906094144685" lon="12.30056763255346"><ele>490.0</ele><time>2026-04-12T08:59:46.863Z</time></trkpt><trkpt lat="46.264849011829185" lon="12.300669993807203"><ele>490.0</ele><time>2026-04-12T08:59:47.863Z</time></trkpt><trkpt lat="46.264793818487426" lon="12.300768747515773"><ele>490.0</ele><time>2026-04-12T08:59:48.863Z</time></trkpt><trkpt lat="46.26473201772284" lon="12.300857046577153"><ele>490.0</ele><time>2026-04-12T08:59:49.863Z</time></trkpt><trkpt lat="46.26464946405415" lon="12.300902625152371"><ele>490.25</ele><time>2026-04-12T08:59:50.863Z</time></trkpt><trkpt lat="46.26454723758711" lon="12.300919575948816"><ele>490.5</ele><time>2026-04-12T08:59:51.863Z</time></trkpt><trkpt lat="46.26443555662437" lon="12.300891876779259"><ele>490.75</ele><time>2026-04-12T08:59:52.863Z</time></trkpt><trkpt lat="46.26433838515169" lon="12.300796092047749"><ele>491.0</ele><time>2026-04-12T08:59:53.863Z</time></trkpt><trkpt lat="46.26426299656905" lon="12.300662838457008"><ele>491.25</ele><time>2026-04-12T08:59:54.863Z</time></trkpt><trkpt lat="46.264241249652216" lon="12.300493031731738"><ele>491.5</ele><time>2026-04-12T08:59:55.863Z</time></trkpt><trkpt lat="46.26420138307102" lon="12.300317301374841"><ele>491.75</ele><time>2026-04-12T08:59:56.863Z</time></trkpt><trkpt lat="46.26417246677783" lon="12.300118953640418"><ele>492.0</ele><time>2026-04-12T08:59:57.863Z</time></trkpt><trkpt lat="46.26413861951342" lon="12.299923309862956"><ele>492.0</ele><time>2026-04-12T08:59:58.863Z</time></trkpt><trkpt lat="46.26412904822021" lon="12.299758694153342"><ele>492.0</ele><time>2026-04-12T08:59:59.863Z</time></trkpt><trkpt lat="46.26412621197352" lon="12.299602619645574"><ele>492.0</ele><time>2026-04-12T09:00:00.863Z</time></trkpt><trkpt lat="46.26410191613593" lon="12.299447968015375"><ele>492.0</ele><time>2026-04-12T09:00:01.863Z</time></trkpt><trkpt lat="46.26406023026404" lon="12.299268202746504"><ele>492.0</ele><time>2026-04-12T09:00:02.863Z</time></trkpt><trkpt lat="46.26398314241147" lon="12.299081429016125"><ele>492.0</ele><time>2026-04-12T09:00:03.863Z</time></trkpt><trkpt lat="46.26389393212901" lon="12.298912555719015"><ele>492.0</ele><time>2026-04-12T09:00:04.863Z</time></trkpt><trkpt lat="46.26381098994981" lon="12.298755456300876"><ele>492.0</ele><time>2026-04-12T09:00:05.863Z</time></trkpt><trkpt lat="46.26373904694843" lon="12.298582802033847"><ele>490.5</ele><time>2026-04-12T09:00:06.863Z</time></trkpt><trkpt lat="46.26367674835512" lon="12.298394752911644"><ele>489.0</ele><time>2026-04-12T09:00:07.863Z</time></trkpt><trkpt lat="46.26362803633803" lon="12.298206967042066"><ele>487.5</ele><time>2026-04-12T09:00:08.863Z</time></trkpt><trkpt lat="46.26359197434216" lon="12.29800379841381"><ele>486.0</ele><time>2026-04-12T09:00:09.863Z</time></trkpt><trkpt lat="46.263575955673595" lon="12.297788492835245"><ele>493.25</ele><time>2026-04-12T09:00:10.863Z</time></trkpt><trkpt lat="46.2635705419036" lon="12.297579757686323"><ele>500.5</ele><time>2026-04-12T09:00:11.874Z</time></trkpt><trkpt lat="46.26357897948143" lon="12.29737797863238"><ele>507.75</ele><time>2026-04-12T09:00:12.881Z</time></trkpt><trkpt lat="46.263590875979595" lon="12.297169428280792"><ele>515.0</ele><time>2026-04-12T09:00:13.875Z</time></trkpt><trkpt lat="46.263602625897384" lon="12.296963447459788"><ele>538.5</ele><time>2026-04-12T09:00:14.875Z</time></trkpt><trkpt lat="46.26361434930282" lon="12.296757931557124"><ele>562.0</ele><time>2026-04-12T09:00:15.879Z</time></trkpt><trkpt lat="46.263642912032815" lon="12.296253787557196"><ele>562.0</ele><time>2026-04-12T09:00:39.66Z</time></trkpt><trkpt lat="46.263686042169354" lon="12.295478090127913"><ele>562.0</ele><time>2026-04-12T09:00:40.661Z</time></trkpt><trkpt lat="46.26373048847418" lon="12.294702435678694"><ele>562.0</ele><time>2026-04-12T09:00:41.66Z</time></trkpt><trkpt lat="46.26375623386369" lon="12.293924566531809"><ele>653.0</ele><time>2026-04-12T09:00:42.661Z</time></trkpt><trkpt lat="46.263815182485104" lon="12.29315059852536"><ele>648.0</ele><time>2026-04-12T09:00:43.661Z</time></trkpt><trkpt lat="46.26385801001881" lon="12.292374604392114"><ele>647.0</ele><time>2026-04-12T09:00:44.661Z</time></trkpt><trkpt lat="46.26389806390902" lon="12.291598476904573"><ele>647.0</ele><time>2026-04-12T09:00:45.661Z</time></trkpt><trkpt lat="46.26394025774364" lon="12.290822801650496"><ele>666.0</ele><time>2026-04-12T09:00:46.661Z</time></trkpt><trkpt lat="46.26398248115569" lon="12.290046582631925"><ele>620.0</ele><time>2026-04-12T09:00:47.661Z</time></trkpt><trkpt lat="46.26400650688941" lon="12.289268707807791"><ele>577.0</ele><time>2026-04-12T09:00:48.661Z</time></trkpt><trkpt lat="46.26406309096204" lon="12.28849466633463"><ele>552.0</ele><time>2026-04-12T09:00:49.66Z</time></trkpt><trkpt lat="46.26408650702807" lon="12.287716598094343"><ele>540.0</ele><time>2026-04-12T09:00:50.661Z</time></trkpt><trkpt lat="46.2641289" lon="12.2869452"><ele>560.0</ele><time>2026-04-12T09:00:51.661Z</time></trkpt><trkpt lat="46.2640452332625" lon="12.285536747917698"><ele>550.6666666666666</ele><time>2026-04-12T09:00:52.863Z</time></trkpt><trkpt lat="46.263937750513" lon="12.285260449508456"><ele>541.3333333333334</ele><time>2026-04-12T09:00:53.863Z</time></trkpt><trkpt lat="46.26377819503121" lon="12.285107091358277"><ele>532.0</ele><time>2026-04-12T09:00:54.863Z</time></trkpt><trkpt lat="46.26366303372556" lon="12.285093784159763"><ele>532.0</ele><time>2026-04-12T09:00:55.863Z</time></trkpt><trkpt lat="46.26360842257401" lon="12.284951176477971"><ele>532.0</ele><time>2026-04-12T09:00:56.863Z</time></trkpt><trkpt lat="46.26355754455541" lon="12.284817289457013"><ele>532.0</ele><time>2026-04-12T09:00:57.863Z</time></trkpt><trkpt lat="46.26352337985293" lon="12.284651304642978"><ele>532.0</ele><time>2026-04-12T09:00:58.863Z</time></trkpt><trkpt lat="46.26347564928239" lon="12.284454362847633"><ele>534.75</ele><time>2026-04-12T09:00:59.863Z</time></trkpt><trkpt lat="46.26345260298266" lon="12.284268127826452"><ele>537.5</ele><time>2026-04-12T09:01:00.863Z</time></trkpt><trkpt lat="46.26340266729885" lon="12.284091235443372"><ele>540.25</ele><time>2026-04-12T09:01:01.863Z</time></trkpt><trkpt lat="46.26334045056653" lon="12.283900190097208"><ele>543.0</ele><time>2026-04-12T09:01:02.863Z</time></trkpt><trkpt lat="46.2632439688487" lon="12.28371122123932"><ele>548.0</ele><time>2026-04-12T09:01:03.863Z</time></trkpt><trkpt lat="46.26315906581076" lon="12.283543139518871"><ele>553.0</ele><time>2026-04-12T09:01:04.863Z</time></trkpt><trkpt lat="46.26309836661649" lon="12.283341963222961"><ele>558.0</ele><time>2026-04-12T09:01:05.863Z</time></trkpt><trkpt lat="46.263059629316665" lon="12.283122895678531"><ele>547.6666666666666</ele><time>2026-04-12T09:01:06.863Z</time></trkpt><trkpt lat="46.26304873566217" lon="12.282870571747832"><ele>537.3333333333333</ele><time>2026-04-12T09:01:07.863Z</time></trkpt><trkpt lat="46.263051306657026" lon="12.282630643137944"><ele>527.0</ele><time>2026-04-12T09:01:08.863Z</time></trkpt><trkpt lat="46.26306952648946" lon="12.282357843128061"><ele>527.6666666666666</ele><time>2026-04-12T09:01:09.863Z</time></trkpt><trkpt lat="46.263082201672376" lon="12.282064298332541"><ele>528.3333333333334</ele><time>2026-04-12T09:01:10.863Z</time></trkpt><trkpt lat="46.263107325388056" lon="12.281745043193274"><ele>529.0</ele><time>2026-04-12T09:01:11.863Z</time></trkpt><trkpt lat="46.26312553619611" lon="12.281464816158003"><ele>541.0</ele><time>2026-04-12T09:01:12.863Z</time></trkpt><trkpt lat="46.26316302643914" lon="12.281211682272238"><ele>553.0</ele><time>2026-04-12T09:01:13.863Z</time></trkpt><trkpt lat="46.26320068851674" lon="12.280958859938579"><ele>565.0</ele><time>2026-04-12T09:01:14.863Z</time></trkpt><trkpt lat="46.26322819895255" lon="12.280725423920535"><ele>564.6666666666667</ele><time>2026-04-12T09:01:15.863Z</time></trkpt><trkpt lat="46.26325097926761" lon="12.28047988147668"><ele>564.3333333333334</ele><time>2026-04-12T09:01:16.863Z</time></trkpt><trkpt lat="46.26327117230845" lon="12.280234928599144"><ele>564.0</ele><time>2026-04-12T09:01:17.863Z</time></trkpt><trkpt lat="46.26327218104054" lon="12.28001581951095"><ele>564.0</ele><time>2026-04-12T09:01:18.863Z</time></trkpt><trkpt lat="46.2632661151342" lon="12.279796948586363"><ele>564.0</ele><time>2026-04-12T09:01:19.863Z</time></trkpt><trkpt lat="46.26326275446066" lon="12.279564556536481"><ele>564.0</ele><time>2026-04-12T09:01:20.863Z</time></trkpt><trkpt lat="46.2632665868977" lon="12.279330266421688"><ele>564.0</ele><time>2026-04-12T09:01:21.863Z</time></trkpt><trkpt lat="46.263266565496885" lon="12.27911109454342"><ele>564.0</ele><time>2026-04-12T09:01:22.863Z</time></trkpt><trkpt lat="46.263255993221996" lon="12.278896703243792"><ele>564.0</ele><time>2026-04-12T09:01:23.863Z</time></trkpt><trkpt lat="46.26325761494467" lon="12.278672264410348"><ele>564.3333333333334</ele><time>2026-04-12T09:01:24.863Z</time></trkpt><trkpt lat="46.26324326888398" lon="12.278461182058512"><ele>564.6666666666667</ele><time>2026-04-12T09:01:25.863Z</time></trkpt><trkpt lat="46.263239686637654" lon="12.278237075134754"><ele>565.0</ele><time>2026-04-12T09:01:26.863Z</time></trkpt><trkpt lat="46.26324788797808" lon="12.278005135162662"><ele>563.6666666666667</ele><time>2026-04-12T09:01:27.863Z</time></trkpt><trkpt lat="46.2632900278584" lon="12.27775938191162"><ele>562.3333333333334</ele><time>2026-04-12T09:01:28.863Z</time></trkpt><trkpt lat="46.26336321499845" lon="12.277522887463766"><ele>561.0</ele><time>2026-04-12T09:01:29.863Z</time></trkpt><trkpt lat="46.26345685996651" lon="12.277323892328749"><ele>558.0</ele><time>2026-04-12T09:01:30.863Z</time></trkpt><trkpt lat="46.263563322765705" lon="12.277182366936374"><ele>555.0</ele><time>2026-04-12T09:01:31.863Z</time></trkpt><trkpt lat="46.263633816354606" lon="12.277049589572686"><ele>552.0</ele><time>2026-04-12T09:01:32.863Z</time></trkpt><trkpt lat="46.263682565412275" lon="12.276934429862473"><ele>549.0</ele><time>2026-04-12T09:01:33.863Z</time></trkpt><trkpt lat="46.263730622459526" lon="12.276821795708898"><ele>546.0</ele><time>2026-04-12T09:01:34.863Z</time></trkpt><trkpt lat="46.2637881160186" lon="12.276689059345959"><ele>546.0</ele><time>2026-04-12T09:01:35.863Z</time></trkpt><trkpt lat="46.26385600888131" lon="12.276545228850898"><ele>546.0</ele><time>2026-04-12T09:01:36.863Z</time></trkpt><trkpt lat="46.26395568880412" lon="12.276392649591479"><ele>546.0</ele><time>2026-04-12T09:01:37.863Z</time></trkpt><trkpt lat="46.26410339554062" lon="12.27613962182425"><ele>552.0</ele><time>2026-04-12T09:01:38.863Z</time></trkpt><trkpt lat="46.26424439181234" lon="12.276049761765968"><ele>558.0</ele><time>2026-04-12T09:01:39.863Z</time></trkpt><trkpt lat="46.26439607420005" lon="12.275976016506489"><ele>564.0</ele><time>2026-04-12T09:01:40.863Z</time></trkpt><trkpt lat="46.26454709003052" lon="12.275875652352367"><ele>564.0</ele><time>2026-04-12T09:01:41.863Z</time></trkpt><trkpt lat="46.26468828632359" lon="12.275787389148974"><ele>564.0</ele><time>2026-04-12T09:01:42.863Z</time></trkpt><trkpt lat="46.26481859985061" lon="12.275669124225518"><ele>564.0</ele><time>2026-04-12T09:01:43.863Z</time></trkpt><trkpt lat="46.26494651867095" lon="12.275520353750109"><ele>565.6666666666666</ele><time>2026-04-12T09:01:44.863Z</time></trkpt><trkpt lat="46.26506087848808" lon="12.27535043872408"><ele>567.3333333333333</ele><time>2026-04-12T09:01:45.863Z</time></trkpt><trkpt lat="46.26515693686765" lon="12.275168687643875"><ele>569.0</ele><time>2026-04-12T09:01:46.863Z</time></trkpt><trkpt lat="46.2652445337451" lon="12.274996158864374"><ele>569.0</ele><time>2026-04-12T09:01:47.863Z</time></trkpt><trkpt lat="46.26533795477941" lon="12.274820048436"><ele>569.0</ele><time>2026-04-12T09:01:48.863Z</time></trkpt><trkpt lat="46.26544355976011" lon="12.274660022333839"><ele>569.0</ele><time>2026-04-12T09:01:49.864Z</time></trkpt><trkpt lat="46.26555949762408" lon="12.274517716170879"><ele>570.25</ele><time>2026-04-12T09:01:50.864Z</time></trkpt><trkpt lat="46.26567575133159" lon="12.274406346211666"><ele>571.5</ele><time>2026-04-12T09:01:51.864Z</time></trkpt><trkpt lat="46.26578157951015" lon="12.274312149005095"><ele>572.75</ele><time>2026-04-12T09:01:52.864Z</time></trkpt><trkpt lat="46.2658979470016" lon="12.274243148173602"><ele>574.0</ele><time>2026-04-12T09:01:53.864Z</time></trkpt><trkpt lat="46.26601534937147" lon="12.274248433214018"><ele>574.0</ele><time>2026-04-12T09:01:54.864Z</time></trkpt><trkpt lat="46.266137511697515" lon="12.27428063855932"><ele>574.0</ele><time>2026-04-12T09:01:55.864Z</time></trkpt><trkpt lat="46.26622252603865" lon="12.274362024639508"><ele>574.0</ele><time>2026-04-12T09:01:56.864Z</time></trkpt><trkpt lat="46.26629082245938" lon="12.274431837158337"><ele>574.0</ele><time>2026-04-12T09:01:57.864Z</time></trkpt><trkpt lat="46.266363232025135" lon="12.27447603247914"><ele>574.0</ele><time>2026-04-12T09:01:58.864Z</time></trkpt><trkpt lat="46.26640212834471" lon="12.274573474469806"><ele>574.0</ele><time>2026-04-12T09:01:59.864Z</time></trkpt><trkpt lat="46.26640005804924" lon="12.274707803144416"><ele>574.0</ele><time>2026-04-12T09:02:00.864Z</time></trkpt><trkpt lat="46.26642909876995" lon="12.274806299152802"><ele>574.0</ele><time>2026-04-12T09:02:01.864Z</time></trkpt><trkpt lat="46.26648189164506" lon="12.274868850351913"><ele>574.0</ele><time>2026-04-12T09:02:02.864Z</time></trkpt><trkpt lat="46.26655761536849" lon="12.274879900973193"><ele>574.0</ele><time>2026-04-12T09:02:03.864Z</time></trkpt><trkpt lat="46.26663579833289" lon="12.274841234754506"><ele>574.0</ele><time>2026-04-12T09:02:04.864Z</time></trkpt><trkpt lat="46.26669615245322" lon="12.274751307892508"><ele>577.3333333333334</ele><time>2026-04-12T09:02:05.864Z</time></trkpt><trkpt lat="46.26672843414263" lon="12.274627086386342"><ele>580.6666666666667</ele><time>2026-04-12T09:02:06.864Z</time></trkpt><trkpt lat="46.26675831798857" lon="12.274519548367023"><ele>584.0</ele><time>2026-04-12T09:02:07.864Z</time></trkpt><trkpt lat="46.26680868523326" lon="12.274422301163412"><ele>587.3333333333334</ele><time>2026-04-12T09:02:08.864Z</time></trkpt><trkpt lat="46.26686803526545" lon="12.274323834315606"><ele>590.6666666666666</ele><time>2026-04-12T09:02:09.864Z</time></trkpt><trkpt lat="46.26691774033296" lon="12.274205165698472"><ele>594.0</ele><time>2026-04-12T09:02:10.864Z</time></trkpt><trkpt lat="46.26693264528889" lon="12.274057380342205"><ele>594.25</ele><time>2026-04-12T09:02:11.864Z</time></trkpt><trkpt lat="46.266938339665934" lon="12.273880456953986"><ele>594.5</ele><time>2026-04-12T09:02:12.864Z</time></trkpt><trkpt lat="46.26698159604897" lon="12.273695658834312"><ele>594.75</ele><time>2026-04-12T09:02:13.864Z</time></trkpt><trkpt lat="46.26703356075329" lon="12.273479409538691"><ele>595.0</ele><time>2026-04-12T09:02:14.864Z</time></trkpt><trkpt lat="46.26708957178641" lon="12.27327932725129"><ele>595.0</ele><time>2026-04-12T09:02:15.864Z</time></trkpt><trkpt lat="46.26712592896879" lon="12.273115138876598"><ele>595.0</ele><time>2026-04-12T09:02:16.864Z</time></trkpt><trkpt lat="46.267170359121835" lon="12.272969191916662"><ele>595.0</ele><time>2026-04-12T09:02:17.864Z</time></trkpt><trkpt lat="46.26725361309077" lon="12.272821028931823"><ele>595.0</ele><time>2026-04-12T09:02:18.864Z</time></trkpt><trkpt lat="46.26734310906349" lon="12.272671298396595"><ele>595.2</ele><time>2026-04-12T09:02:19.864Z</time></trkpt><trkpt lat="46.267424735082386" lon="12.272523184792018"><ele>595.4</ele><time>2026-04-12T09:02:20.864Z</time></trkpt><trkpt lat="46.2674985186312" lon="12.27241204513858"><ele>595.6</ele><time>2026-04-12T09:02:21.864Z</time></trkpt><trkpt lat="46.26754504499087" lon="12.272286736932344"><ele>595.8</ele><time>2026-04-12T09:02:22.864Z</time></trkpt><trkpt lat="46.267579186983625" lon="12.272159570452484"><ele>596.0</ele><time>2026-04-12T09:02:23.864Z</time></trkpt><trkpt lat="46.26762447905976" lon="12.27205301991731"><ele>596.0</ele><time>2026-04-12T09:02:24.864Z</time></trkpt><trkpt lat="46.2676944068517" lon="12.27195899423014"><ele>596.0</ele><time>2026-04-12T09:02:25.864Z</time></trkpt><trkpt lat="46.26776376194883" lon="12.271877010289382"><ele>596.0</ele><time>2026-04-12T09:02:26.864Z</time></trkpt><trkpt lat="46.26780170560213" lon="12.271791828791315"><ele>596.0</ele><time>2026-04-12T09:02:27.864Z</time></trkpt><trkpt lat="46.2678214818784" lon="12.271703122029592"><ele>596.0</ele><time>2026-04-12T09:02:28.864Z</time></trkpt><trkpt lat="46.267831981401294" lon="12.271576241079144"><ele>596.0</ele><time>2026-04-12T09:02:29.864Z</time></trkpt><trkpt lat="46.26781304337801" lon="12.271406312300536"><ele>593.0</ele><time>2026-04-12T09:02:30.864Z</time></trkpt><trkpt lat="46.26780741339475" lon="12.271229076166247"><ele>590.0</ele><time>2026-04-12T09:02:31.864Z</time></trkpt><trkpt lat="46.26780322247483" lon="12.271082369492028"><ele>587.0</ele><time>2026-04-12T09:02:32.864Z</time></trkpt><trkpt lat="46.267822303480834" lon="12.270939819953755"><ele>584.0</ele><time>2026-04-12T09:02:33.864Z</time></trkpt><trkpt lat="46.26787347895576" lon="12.270734713645371"><ele>576.3333333333333</ele><time>2026-04-12T09:02:34.864Z</time></trkpt><trkpt lat="46.26792617559649" lon="12.27048904445706"><ele>568.6666666666666</ele><time>2026-04-12T09:02:35.864Z</time></trkpt><trkpt lat="46.26798759213656" lon="12.270205005985892"><ele>561.0</ele><time>2026-04-12T09:02:36.864Z</time></trkpt><trkpt lat="46.26805019887887" lon="12.269931914373007"><ele>551.0</ele><time>2026-04-12T09:02:37.864Z</time></trkpt><trkpt lat="46.26810137742296" lon="12.269694535421893"><ele>541.0</ele><time>2026-04-12T09:02:38.864Z</time></trkpt><trkpt lat="46.26818960535359" lon="12.26950335535042"><ele>531.0</ele><time>2026-04-12T09:02:39.864Z</time></trkpt><trkpt lat="46.26826560470525" lon="12.269305959197412"><ele>543.0</ele><time>2026-04-12T09:02:40.864Z</time></trkpt><trkpt lat="46.26832150783667" lon="12.26911160151301"><ele>555.0</ele><time>2026-04-12T09:02:41.864Z</time></trkpt><trkpt lat="46.268334780649454" lon="12.268915342026604"><ele>567.0</ele><time>2026-04-12T09:02:42.864Z</time></trkpt><trkpt lat="46.268366820648524" lon="12.26874997941487"><ele>579.0</ele><time>2026-04-12T09:02:43.864Z</time></trkpt><trkpt lat="46.268402526976196" lon="12.26860532302664"><ele>579.0</ele><time>2026-04-12T09:02:44.864Z</time></trkpt><trkpt lat="46.26850445441986" lon="12.268452467006442"><ele>579.0</ele><time>2026-04-12T09:02:45.864Z</time></trkpt><trkpt lat="46.268609381954455" lon="12.268297270062533"><ele>579.0</ele><time>2026-04-12T09:02:46.864Z</time></trkpt><trkpt lat="46.26867714964817" lon="12.268163380897219"><ele>579.0</ele><time>2026-04-12T09:02:47.864Z</time></trkpt><trkpt lat="46.26873554637652" lon="12.268036223462014"><ele>580.0</ele><time>2026-04-12T09:02:48.864Z</time></trkpt><trkpt lat="46.268799572261244" lon="12.267866369632811"><ele>581.0</ele><time>2026-04-12T09:02:49.864Z</time></trkpt><trkpt lat="46.2688269117015" lon="12.267665815279921"><ele>582.0</ele><time>2026-04-12T09:02:50.864Z</time></trkpt><trkpt lat="46.26882709332556" lon="12.267450530262588"><ele>583.0</ele><time>2026-04-12T09:02:51.864Z</time></trkpt><trkpt lat="46.268843746679316" lon="12.26725105750141"><ele>583.25</ele><time>2026-04-12T09:02:52.864Z</time></trkpt><trkpt lat="46.26887120266553" lon="12.26706028053834"><ele>583.5</ele><time>2026-04-12T09:02:53.864Z</time></trkpt><trkpt lat="46.26890082909962" lon="12.266884621267662"><ele>583.75</ele><time>2026-04-12T09:02:54.864Z</time></trkpt><trkpt lat="46.268932840641625" lon="12.26669742546496"><ele>584.0</ele><time>2026-04-12T09:02:55.864Z</time></trkpt><trkpt lat="46.26894014157004" lon="12.266497620759205"><ele>580.75</ele><time>2026-04-12T09:02:56.864Z</time></trkpt><trkpt lat="46.26891715807367" lon="12.266317764348859"><ele>577.5</ele><time>2026-04-12T09:02:57.864Z</time></trkpt><trkpt lat="46.26889618601991" lon="12.266127584996823"><ele>574.25</ele><time>2026-04-12T09:02:58.864Z</time></trkpt><trkpt lat="46.2688873539938" lon="12.265950245516684"><ele>571.0</ele><time>2026-04-12T09:02:59.864Z</time></trkpt><trkpt lat="46.26890750260986" lon="12.265785790773105"><ele>589.0</ele><time>2026-04-12T09:03:00.864Z</time></trkpt><trkpt lat="46.268951184800876" lon="12.265615652867918"><ele>607.0</ele><time>2026-04-12T09:03:01.864Z</time></trkpt><trkpt lat="46.26900484929746" lon="12.265437896046608"><ele>625.0</ele><time>2026-04-12T09:03:02.864Z</time></trkpt><trkpt lat="46.26905568590733" lon="12.265286297054914"><ele>643.0</ele><time>2026-04-12T09:03:03.864Z</time></trkpt><trkpt lat="46.26909648356217" lon="12.265144815013073"><ele>643.0</ele><time>2026-04-12T09:03:04.864Z</time></trkpt><trkpt lat="46.26910797107903" lon="12.264990960519004"><ele>643.0</ele><time>2026-04-12T09:03:05.864Z</time></trkpt><trkpt lat="46.26907966193516" lon="12.264841347457837"><ele>643.0</ele><time>2026-04-12T09:03:06.864Z</time></trkpt><trkpt lat="46.26904287562137" lon="12.264650491600687"><ele>643.0</ele><time>2026-04-12T09:03:07.864Z</time></trkpt><trkpt lat="46.269030764504535" lon="12.264452366353277"><ele>640.1999999999999</ele><time>2026-04-12T09:03:08.864Z</time></trkpt><trkpt lat="46.26905008248475" lon="12.264260909150815"><ele>637.4</ele><time>2026-04-12T09:03:09.864Z</time></trkpt><trkpt lat="46.26906361175002" lon="12.264140527203947"><ele>634.5999999999999</ele><time>2026-04-12T09:03:10.864Z</time></trkpt><trkpt lat="46.269062644414724" lon="12.2640046268216"><ele>631.8</ele><time>2026-04-12T09:03:11.864Z</time></trkpt><trkpt lat="46.269037102713426" lon="12.26384442162228"><ele>629.0</ele><time>2026-04-12T09:03:12.864Z</time></trkpt><trkpt lat="46.26900044589837" lon="12.263675178762455"><ele>629.0</ele><time>2026-04-12T09:03:13.864Z</time></trkpt><trkpt lat="46.26897092995117" lon="12.26350500587801"><ele>629.0</ele><time>2026-04-12T09:03:14.864Z</time></trkpt><trkpt lat="46.26895803836427" lon="12.263346052909164"><ele>629.0</ele><time>2026-04-12T09:03:15.864Z</time></trkpt><trkpt lat="46.26897665422011" lon="12.263206594923108"><ele>629.0</ele><time>2026-04-12T09:03:16.864Z</time></trkpt><trkpt lat="46.269000102048125" lon="12.263033227719399"><ele>625.2</ele><time>2026-04-12T09:03:17.864Z</time></trkpt><trkpt lat="46.26901922728972" lon="12.26290691909638"><ele>621.4</ele><time>2026-04-12T09:03:18.864Z</time></trkpt><trkpt lat="46.269050698555084" lon="12.262761643009208"><ele>617.6</ele><time>2026-04-12T09:03:19.864Z</time></trkpt><trkpt lat="46.26908739834532" lon="12.262641205430771"><ele>613.8</ele><time>2026-04-12T09:03:20.864Z</time></trkpt><trkpt lat="46.26917001020772" lon="12.262538396545429"><ele>610.0</ele><time>2026-04-12T09:03:21.864Z</time></trkpt><trkpt lat="46.26927902919266" lon="12.262439326879122"><ele>610.0</ele><time>2026-04-12T09:03:22.864Z</time></trkpt><trkpt lat="46.26941031106534" lon="12.262382022561166"><ele>610.0</ele><time>2026-04-12T09:03:23.864Z</time></trkpt><trkpt lat="46.26953049946053" lon="12.262268261817283"><ele>610.0</ele><time>2026-04-12T09:03:24.864Z</time></trkpt><trkpt lat="46.26962313323785" lon="12.262136583151579"><ele>610.0</ele><time>2026-04-12T09:03:25.864Z</time></trkpt><trkpt lat="46.26971053803741" lon="12.261989975949549"><ele>607.6666666666667</ele><time>2026-04-12T09:03:26.864Z</time></trkpt><trkpt lat="46.26983902385856" lon="12.261814796170192"><ele>605.3333333333334</ele><time>2026-04-12T09:03:27.864Z</time></trkpt><trkpt lat="46.269951901869476" lon="12.261564276773225"><ele>603.0</ele><time>2026-04-12T09:03:28.864Z</time></trkpt><trkpt lat="46.27005821956541" lon="12.261312214533882"><ele>603.0</ele><time>2026-04-12T09:03:29.864Z</time></trkpt><trkpt lat="46.270150020428794" lon="12.261095036460482"><ele>603.0</ele><time>2026-04-12T09:03:30.864Z</time></trkpt><trkpt lat="46.270244762676555" lon="12.260937209380812"><ele>603.0</ele><time>2026-04-12T09:03:31.864Z</time></trkpt><trkpt lat="46.270303192537476" lon="12.260771857099892"><ele>603.0</ele><time>2026-04-12T09:03:32.864Z</time></trkpt><trkpt lat="46.27034944030651" lon="12.260606728596805"><ele>598.3333333333334</ele><time>2026-04-12T09:03:33.864Z</time></trkpt><trkpt lat="46.27035272307787" lon="12.26035134334363"><ele>593.6666666666667</ele><time>2026-04-12T09:03:34.864Z</time></trkpt><trkpt lat="46.27039335198467" lon="12.260079607945068"><ele>589.0</ele><time>2026-04-12T09:03:35.864Z</time></trkpt><trkpt lat="46.27043985291998" lon="12.259805601887129"><ele>583.0</ele><time>2026-04-12T09:03:36.864Z</time></trkpt><trkpt lat="46.270438032608546" lon="12.259531103140484"><ele>577.0</ele><time>2026-04-12T09:03:37.864Z</time></trkpt><trkpt lat="46.27042347689517" lon="12.25929708496258"><ele>571.0</ele><time>2026-04-12T09:03:38.864Z</time></trkpt><trkpt lat="46.27048027399161" lon="12.259083696549796"><ele>576.0</ele><time>2026-04-12T09:03:39.864Z</time></trkpt><trkpt lat="46.27053574924302" lon="12.258875587971229"><ele>581.0</ele><time>2026-04-12T09:03:40.864Z</time></trkpt><trkpt lat="46.270534782755846" lon="12.258645284874499"><ele>586.0</ele><time>2026-04-12T09:03:41.864Z</time></trkpt><trkpt lat="46.270511654186706" lon="12.258382434610844"><ele>586.0</ele><time>2026-04-12T09:03:42.864Z</time></trkpt><trkpt lat="46.27050334152268" lon="12.258126003005389"><ele>586.0</ele><time>2026-04-12T09:03:43.864Z</time></trkpt><trkpt lat="46.270518280180724" lon="12.257893688605616"><ele>586.0</ele><time>2026-04-12T09:03:44.864Z</time></trkpt><trkpt lat="46.270553653816535" lon="12.257647962066441"><ele>592.5</ele><time>2026-04-12T09:03:45.864Z</time></trkpt><trkpt lat="46.27060288621132" lon="12.257334633699568"><ele>599.0</ele><time>2026-04-12T09:03:46.864Z</time></trkpt><trkpt lat="46.27065210723115" lon="12.257012562199497"><ele>616.6666666666666</ele><time>2026-04-12T09:03:47.864Z</time></trkpt><trkpt lat="46.27069540504088" lon="12.256695601623834"><ele>634.3333333333334</ele><time>2026-04-12T09:03:48.864Z</time></trkpt><trkpt lat="46.27070890338696" lon="12.256412447802862"><ele>652.0</ele><time>2026-04-12T09:03:49.864Z</time></trkpt><trkpt lat="46.27071778170174" lon="12.256123637760323"><ele>652.0</ele><time>2026-04-12T09:03:50.864Z</time></trkpt><trkpt lat="46.27073030148544" lon="12.25584927952651"><ele>652.0</ele><time>2026-04-12T09:03:51.864Z</time></trkpt><trkpt lat="46.27071552115996" lon="12.255597204172174"><ele>652.0</ele><time>2026-04-12T09:03:52.864Z</time></trkpt><trkpt lat="46.27065468928377" lon="12.255350326148887"><ele>648.6666666666667</ele><time>2026-04-12T09:03:53.864Z</time></trkpt><trkpt lat="46.27064804151698" lon="12.25512901174351"><ele>645.3333333333334</ele><time>2026-04-12T09:03:54.864Z</time></trkpt><trkpt lat="46.270663447619505" lon="12.254912873280029"><ele>642.0</ele><time>2026-04-12T09:03:55.865Z</time></trkpt><trkpt lat="46.27068416933607" lon="12.254693314555754"><ele>637.5</ele><time>2026-04-12T09:03:56.865Z</time></trkpt><trkpt lat="46.27070571265354" lon="12.254497739301192"><ele>633.0</ele><time>2026-04-12T09:03:57.865Z</time></trkpt><trkpt lat="46.27073704997293" lon="12.254336504764215"><ele>628.5</ele><time>2026-04-12T09:03:58.865Z</time></trkpt><trkpt lat="46.27078819655275" lon="12.254189713547794"><ele>624.0</ele><time>2026-04-12T09:03:59.865Z</time></trkpt><trkpt lat="46.2708412325722" lon="12.254071151327294"><ele>624.0</ele><time>2026-04-12T09:04:00.865Z</time></trkpt><trkpt lat="46.27092665475792" lon="12.253997634711375"><ele>624.0</ele><time>2026-04-12T09:04:01.865Z</time></trkpt><trkpt lat="46.271022027478416" lon="12.253958724318515"><ele>624.0</ele><time>2026-04-12T09:04:02.865Z</time></trkpt><trkpt lat="46.271141538223006" lon="12.253964339903314"><ele>624.0</ele><time>2026-04-12T09:04:03.865Z</time></trkpt><trkpt lat="46.27127196998865" lon="12.254007620344245"><ele>624.0</ele><time>2026-04-12T09:04:04.865Z</time></trkpt><trkpt lat="46.271417065393024" lon="12.254012831231382"><ele>624.0</ele><time>2026-04-12T09:04:05.865Z</time></trkpt><trkpt lat="46.27155941915163" lon="12.253964078803149"><ele>624.0</ele><time>2026-04-12T09:04:06.865Z</time></trkpt><trkpt lat="46.271672774177766" lon="12.253872876980413"><ele>624.0</ele><time>2026-04-12T09:04:07.865Z</time></trkpt><trkpt lat="46.27176724908495" lon="12.253721781447984"><ele>626.5</ele><time>2026-04-12T09:04:08.865Z</time></trkpt><trkpt lat="46.27183326684236" lon="12.253528221372537"><ele>629.0</ele><time>2026-04-12T09:04:09.865Z</time></trkpt><trkpt lat="46.271868913407516" lon="12.253323703458713"><ele>631.5</ele><time>2026-04-12T09:04:10.865Z</time></trkpt><trkpt lat="46.27190225632852" lon="12.253134592881128"><ele>634.0</ele><time>2026-04-12T09:04:11.865Z</time></trkpt><trkpt lat="46.27187366856782" lon="12.252940790265065"><ele>629.4</ele><time>2026-04-12T09:04:12.865Z</time></trkpt><trkpt lat="46.271870866160874" lon="12.252816277504833"><ele>624.8</ele><time>2026-04-12T09:04:13.865Z</time></trkpt><trkpt lat="46.27186226002119" lon="12.252691509178362"><ele>620.2</ele><time>2026-04-12T09:04:14.865Z</time></trkpt><trkpt lat="46.271892680397094" lon="12.252584459292288"><ele>615.6</ele><time>2026-04-12T09:04:15.865Z</time></trkpt><trkpt lat="46.27197625024521" lon="12.252533851734281"><ele>611.0</ele><time>2026-04-12T09:04:16.865Z</time></trkpt><trkpt lat="46.27208763947955" lon="12.252537585802278"><ele>611.0</ele><time>2026-04-12T09:04:17.865Z</time></trkpt><trkpt lat="46.27221899436634" lon="12.252552435335266"><ele>611.0</ele><time>2026-04-12T09:04:18.865Z</time></trkpt><trkpt lat="46.27236060843701" lon="12.252528257306624"><ele>611.0</ele><time>2026-04-12T09:04:19.865Z</time></trkpt><trkpt lat="46.27249007608262" lon="12.252446371723392"><ele>611.0</ele><time>2026-04-12T09:04:20.865Z</time></trkpt><trkpt lat="46.27260847602366" lon="12.252398439092458"><ele>610.4</ele><time>2026-04-12T09:04:21.865Z</time></trkpt><trkpt lat="46.272736378667545" lon="12.252417960719407"><ele>609.8</ele><time>2026-04-12T09:04:22.865Z</time></trkpt><trkpt lat="46.272832890448754" lon="12.252456539853746"><ele>609.1999999999999</ele><time>2026-04-12T09:04:23.865Z</time></trkpt><trkpt lat="46.27292841829181" lon="12.252440425523366"><ele>608.6</ele><time>2026-04-12T09:04:24.865Z</time></trkpt><trkpt lat="46.27298613157457" lon="12.252360886910981"><ele>608.0</ele><time>2026-04-12T09:04:25.865Z</time></trkpt><trkpt lat="46.27306479831115" lon="12.252267017533528"><ele>620.0</ele><time>2026-04-12T09:04:26.865Z</time></trkpt><trkpt lat="46.273119555565025" lon="12.252021947063742"><ele>632.0</ele><time>2026-04-12T09:04:27.865Z</time></trkpt><trkpt lat="46.27315481533213" lon="12.251814530305609"><ele>644.0</ele><time>2026-04-12T09:04:28.865Z</time></trkpt><trkpt lat="46.273214433903576" lon="12.251628001173435"><ele>644.0</ele><time>2026-04-12T09:04:29.865Z</time></trkpt><trkpt lat="46.273277698437475" lon="12.251458809691309"><ele>644.0</ele><time>2026-04-12T09:04:30.865Z</time></trkpt><trkpt lat="46.27333320999486" lon="12.251217196653862"><ele>644.0</ele><time>2026-04-12T09:04:31.865Z</time></trkpt><trkpt lat="46.27334044152671" lon="12.250976431271992"><ele>640.5</ele><time>2026-04-12T09:04:32.865Z</time></trkpt><trkpt lat="46.27334164583495" lon="12.250731232869835"><ele>637.0</ele><time>2026-04-12T09:04:33.865Z</time></trkpt><trkpt lat="46.273352473365584" lon="12.250570638908021"><ele>633.5</ele><time>2026-04-12T09:04:34.865Z</time></trkpt><trkpt lat="46.27336488000416" lon="12.250428592487651"><ele>630.0</ele><time>2026-04-12T09:04:35.865Z</time></trkpt><trkpt lat="46.27338372087903" lon="12.250324376177202"><ele>621.6666666666666</ele><time>2026-04-12T09:04:36.865Z</time></trkpt><trkpt lat="46.27351193832221" lon="12.2501474235594"><ele>613.3333333333333</ele><time>2026-04-12T09:04:38.865Z</time></trkpt><trkpt lat="46.27367461528302" lon="12.250090697077441"><ele>605.0</ele><time>2026-04-12T09:04:39.865Z</time></trkpt><trkpt lat="46.273830685292275" lon="12.249937138874756"><ele>603.6666666666666</ele><time>2026-04-12T09:04:40.865Z</time></trkpt><trkpt lat="46.27396386327964" lon="12.24986221997005"><ele>602.3333333333334</ele><time>2026-04-12T09:04:41.865Z</time></trkpt><trkpt lat="46.27407040040878" lon="12.24979659254541"><ele>601.0</ele><time>2026-04-12T09:04:42.865Z</time></trkpt><trkpt lat="46.274210275728" lon="12.249542249862529"><ele>601.0</ele><time>2026-04-12T09:04:43.865Z</time></trkpt><trkpt lat="46.27427474849012" lon="12.249405355818448"><ele>601.0</ele><time>2026-04-12T09:04:44.865Z</time></trkpt><trkpt lat="46.27433203335914" lon="12.249313808081908"><ele>601.0</ele><time>2026-04-12T09:04:45.865Z</time></trkpt><trkpt lat="46.27440970719749" lon="12.249275974947846"><ele>601.0</ele><time>2026-04-12T09:04:46.865Z</time></trkpt><trkpt lat="46.27449487558527" lon="12.2493582195281"><ele>601.0</ele><time>2026-04-12T09:04:47.865Z</time></trkpt><trkpt lat="46.27460409166685" lon="12.249444141461746"><ele>601.0</ele><time>2026-04-12T09:04:48.865Z</time></trkpt><trkpt lat="46.274736300342745" lon="12.249470212444022"><ele>601.0</ele><time>2026-04-12T09:04:49.865Z</time></trkpt><trkpt lat="46.274863784424994" lon="12.24943779095284"><ele>601.0</ele><time>2026-04-12T09:04:50.865Z</time></trkpt><trkpt lat="46.27497915478661" lon="12.249396934214248"><ele>601.0</ele><time>2026-04-12T09:04:51.865Z</time></trkpt><trkpt lat="46.275109078459025" lon="12.24934772344709"><ele>604.6666666666667</ele><time>2026-04-12T09:04:52.865Z</time></trkpt><trkpt lat="46.27528832120805" lon="12.249378129279865"><ele>608.3333333333334</ele><time>2026-04-12T09:04:53.865Z</time></trkpt><trkpt lat="46.27545705701124" lon="12.249375217015526"><ele>612.0</ele><time>2026-04-12T09:04:54.865Z</time></trkpt><trkpt lat="46.27559423375477" lon="12.249383624660227"><ele>616.5</ele><time>2026-04-12T09:04:55.865Z</time></trkpt><trkpt lat="46.275731417260836" lon="12.249349732573865"><ele>621.0</ele><time>2026-04-12T09:04:56.865Z</time></trkpt><trkpt lat="46.27584712709687" lon="12.249293587915444"><ele>625.5</ele><time>2026-04-12T09:04:57.865Z</time></trkpt><trkpt lat="46.27595407313949" lon="12.249227237218271"><ele>630.0</ele><time>2026-04-12T09:04:58.865Z</time></trkpt><trkpt lat="46.276048336542274" lon="12.249111171322886"><ele>630.0</ele><time>2026-04-12T09:04:59.865Z</time></trkpt><trkpt lat="46.27611848790101" lon="12.248970964582105"><ele>630.0</ele><time>2026-04-12T09:05:00.865Z</time></trkpt><trkpt lat="46.27617378567336" lon="12.2488282387085"><ele>630.0</ele><time>2026-04-12T09:05:01.865Z</time></trkpt><trkpt lat="46.27625075896438" lon="12.248729642531774"><ele>630.0</ele><time>2026-04-12T09:05:02.865Z</time></trkpt><trkpt lat="46.276343922980296" lon="12.248657820063466"><ele>630.0</ele><time>2026-04-12T09:05:03.865Z</time></trkpt><trkpt lat="46.276443903206136" lon="12.248562998125243"><ele>623.75</ele><time>2026-04-12T09:05:04.865Z</time></trkpt><trkpt lat="46.27656308106707" lon="12.248501335158442"><ele>617.5</ele><time>2026-04-12T09:05:05.865Z</time></trkpt><trkpt lat="46.27669126765374" lon="12.24844130197327"><ele>611.25</ele><time>2026-04-12T09:05:06.865Z</time></trkpt><trkpt lat="46.27681905150654" lon="12.248337451777688"><ele>605.0</ele><time>2026-04-12T09:05:07.865Z</time></trkpt><trkpt lat="46.27692319636011" lon="12.248208573766822"><ele>605.0</ele><time>2026-04-12T09:05:08.865Z</time></trkpt><trkpt lat="46.27704602789088" lon="12.248134807549862"><ele>605.0</ele><time>2026-04-12T09:05:09.865Z</time></trkpt><trkpt lat="46.277167809061595" lon="12.24806369139265"><ele>605.0</ele><time>2026-04-12T09:05:10.865Z</time></trkpt><trkpt lat="46.27727325357592" lon="12.247985219893092"><ele>605.0</ele><time>2026-04-12T09:05:11.865Z</time></trkpt><trkpt lat="46.27740227574904" lon="12.247826355471044"><ele>599.0</ele><time>2026-04-12T09:05:12.865Z</time></trkpt><trkpt lat="46.27751891532668" lon="12.247648775396064"><ele>593.0</ele><time>2026-04-12T09:05:13.865Z</time></trkpt><trkpt lat="46.27766313429164" lon="12.247431334373244"><ele>587.0</ele><time>2026-04-12T09:05:14.865Z</time></trkpt><trkpt lat="46.27779916185369" lon="12.247221051752414"><ele>591.3333333333333</ele><time>2026-04-12T09:05:15.865Z</time></trkpt><trkpt lat="46.277937736539975" lon="12.247005367039552"><ele>595.6666666666666</ele><time>2026-04-12T09:05:16.865Z</time></trkpt><trkpt lat="46.278054592878625" lon="12.246807682043364"><ele>600.0</ele><time>2026-04-12T09:05:17.865Z</time></trkpt><trkpt lat="46.27814176853814" lon="12.246608836173653"><ele>593.75</ele><time>2026-04-12T09:05:18.865Z</time></trkpt><trkpt lat="46.2782155253152" lon="12.246428742938749"><ele>587.5</ele><time>2026-04-12T09:05:19.865Z</time></trkpt><trkpt lat="46.278304826694686" lon="12.246286250689236"><ele>581.25</ele><time>2026-04-12T09:05:20.865Z</time></trkpt><trkpt lat="46.27840037752511" lon="12.246132668322144"><ele>575.0</ele><time>2026-04-12T09:05:21.865Z</time></trkpt><trkpt lat="46.27854411097978" lon="12.246035022713441"><ele>575.0</ele><time>2026-04-12T09:05:22.865Z</time></trkpt><trkpt lat="46.27871731459953" lon="12.245911714821746"><ele>575.0</ele><time>2026-04-12T09:05:23.865Z</time></trkpt><trkpt lat="46.27889315476758" lon="12.245748415844911"><ele>575.0</ele><time>2026-04-12T09:05:24.865Z</time></trkpt><trkpt lat="46.279068294361174" lon="12.245543189093343"><ele>578.0</ele><time>2026-04-12T09:05:25.865Z</time></trkpt><trkpt lat="46.279215771685394" lon="12.245341683710809"><ele>581.0</ele><time>2026-04-12T09:05:26.865Z</time></trkpt><trkpt lat="46.279345153111485" lon="12.245150368309154"><ele>584.0</ele><time>2026-04-12T09:05:27.865Z</time></trkpt><trkpt lat="46.279442864859774" lon="12.245014375412568"><ele>584.0</ele><time>2026-04-12T09:05:28.865Z</time></trkpt><trkpt lat="46.27953407346492" lon="12.244887901305255"><ele>584.0</ele><time>2026-04-12T09:05:29.865Z</time></trkpt><trkpt lat="46.27963632614628" lon="12.244786618752698"><ele>584.0</ele><time>2026-04-12T09:05:30.865Z</time></trkpt><trkpt lat="46.27975469795491" lon="12.244698534056095"><ele>584.0</ele><time>2026-04-12T09:05:31.865Z</time></trkpt><trkpt lat="46.27988534311943" lon="12.244675842826327"><ele>579.0</ele><time>2026-04-12T09:05:32.865Z</time></trkpt><trkpt lat="46.28005932965788" lon="12.244627112032255"><ele>574.0</ele><time>2026-04-12T09:05:33.865Z</time></trkpt><trkpt lat="46.28024516104346" lon="12.244568004998301"><ele>569.0</ele><time>2026-04-12T09:05:34.865Z</time></trkpt><trkpt lat="46.280408125142486" lon="12.244518060248307"><ele>569.0</ele><time>2026-04-12T09:05:35.865Z</time></trkpt><trkpt lat="46.28055967238602" lon="12.24449470422522"><ele>569.0</ele><time>2026-04-12T09:05:36.865Z</time></trkpt><trkpt lat="46.28069986572542" lon="12.244532643080762"><ele>569.0</ele><time>2026-04-12T09:05:37.865Z</time></trkpt><trkpt lat="46.2808210766958" lon="12.244571650417049"><ele>569.0</ele><time>2026-04-12T09:05:38.865Z</time></trkpt><trkpt lat="46.28094673704235" lon="12.244523358850264"><ele>571.3333333333333</ele><time>2026-04-12T09:05:39.865Z</time></trkpt><trkpt lat="46.28107710029436" lon="12.244389951748978"><ele>573.6666666666666</ele><time>2026-04-12T09:05:40.865Z</time></trkpt><trkpt lat="46.28118890723476" lon="12.244195269077904"><ele>576.0</ele><time>2026-04-12T09:05:41.865Z</time></trkpt><trkpt lat="46.28132978771348" lon="12.244016868656322"><ele>577.0</ele><time>2026-04-12T09:05:42.865Z</time></trkpt><trkpt lat="46.28147665043293" lon="12.2438220786472"><ele>578.0</ele><time>2026-04-12T09:05:43.865Z</time></trkpt><trkpt lat="46.28164044726971" lon="12.243604913952797"><ele>579.0</ele><time>2026-04-12T09:05:44.865Z</time></trkpt><trkpt lat="46.28181528969248" lon="12.243374469669654"><ele>579.0</ele><time>2026-04-12T09:05:45.865Z</time></trkpt><trkpt lat="46.28197800053484" lon="12.243160014939452"><ele>579.0</ele><time>2026-04-12T09:05:46.865Z</time></trkpt><trkpt lat="46.28213444955391" lon="12.24294578183532"><ele>579.0</ele><time>2026-04-12T09:05:47.865Z</time></trkpt><trkpt lat="46.282280029824626" lon="12.242768390710312"><ele>580.0</ele><time>2026-04-12T09:05:48.865Z</time></trkpt><trkpt lat="46.28242338951771" lon="12.242580011276804"><ele>581.0</ele><time>2026-04-12T09:05:49.865Z</time></trkpt><trkpt lat="46.282551359438095" lon="12.242406224175456"><ele>582.0</ele><time>2026-04-12T09:05:50.865Z</time></trkpt><trkpt lat="46.28269261941525" lon="12.242224723685517"><ele>583.6666666666666</ele><time>2026-04-12T09:05:51.865Z</time></trkpt><trkpt lat="46.28286491966644" lon="12.242041357254827"><ele>585.3333333333333</ele><time>2026-04-12T09:05:52.865Z</time></trkpt><trkpt lat="46.28305486011947" lon="12.241889190772069"><ele>587.0</ele><time>2026-04-12T09:05:53.865Z</time></trkpt><trkpt lat="46.28323101723005" lon="12.24175025049956"><ele>587.0</ele><time>2026-04-12T09:05:54.865Z</time></trkpt><trkpt lat="46.2833841347215" lon="12.241598270569288"><ele>587.0</ele><time>2026-04-12T09:05:55.865Z</time></trkpt><trkpt lat="46.28353509875933" lon="12.241457765446588"><ele>587.0</ele><time>2026-04-12T09:05:56.865Z</time></trkpt><trkpt lat="46.2836981459146" lon="12.24134039912116"><ele>581.6666666666666</ele><time>2026-04-12T09:05:57.865Z</time></trkpt><trkpt lat="46.28389696706435" lon="12.24126240339644"><ele>576.3333333333334</ele><time>2026-04-12T09:05:58.865Z</time></trkpt><trkpt lat="46.28409950666699" lon="12.241174246750031"><ele>571.0</ele><time>2026-04-12T09:05:59.865Z</time></trkpt><trkpt lat="46.284309952642346" lon="12.241103561000513"><ele>571.0</ele><time>2026-04-12T09:06:00.865Z</time></trkpt><trkpt lat="46.284491863986055" lon="12.2410336129918"><ele>571.0</ele><time>2026-04-12T09:06:01.866Z</time></trkpt><trkpt lat="46.28464820435221" lon="12.24097596434587"><ele>571.0</ele><time>2026-04-12T09:06:02.866Z</time></trkpt><trkpt lat="46.28479442662071" lon="12.240915445460326"><ele>573.3333333333334</ele><time>2026-04-12T09:06:03.866Z</time></trkpt><trkpt lat="46.28494268955166" lon="12.240871598486304"><ele>575.6666666666666</ele><time>2026-04-12T09:06:04.866Z</time></trkpt><trkpt lat="46.28508722811269" lon="12.240910506090128"><ele>578.0</ele><time>2026-04-12T09:06:05.866Z</time></trkpt><trkpt lat="46.285247433001395" lon="12.240950168707009"><ele>578.0</ele><time>2026-04-12T09:06:06.866Z</time></trkpt><trkpt lat="46.28542221605484" lon="12.240996560962037"><ele>578.0</ele><time>2026-04-12T09:06:07.866Z</time></trkpt><trkpt lat="46.28563014052227" lon="12.241017330942197"><ele>578.0</ele><time>2026-04-12T09:06:08.866Z</time></trkpt><trkpt lat="46.28582583048744" lon="12.24097587588341"><ele>582.0</ele><time>2026-04-12T09:06:09.866Z</time></trkpt><trkpt lat="46.28604725189041" lon="12.240907832170416"><ele>586.0</ele><time>2026-04-12T09:06:10.866Z</time></trkpt><trkpt lat="46.28626170326557" lon="12.240820036250966"><ele>590.0</ele><time>2026-04-12T09:06:11.866Z</time></trkpt><trkpt lat="46.286485285441785" lon="12.24073591057989"><ele>585.5</ele><time>2026-04-12T09:06:12.866Z</time></trkpt><trkpt lat="46.286724687606416" lon="12.240650791253318"><ele>581.0</ele><time>2026-04-12T09:06:13.866Z</time></trkpt><trkpt lat="46.28693103166248" lon="12.240589968437115"><ele>581.0</ele><time>2026-04-12T09:06:14.866Z</time></trkpt><trkpt lat="46.28711939375963" lon="12.240520872333416"><ele>581.0</ele><time>2026-04-12T09:06:15.866Z</time></trkpt><trkpt lat="46.2872991583135" lon="12.240454837571932"><ele>581.0</ele><time>2026-04-12T09:06:16.866Z</time></trkpt><trkpt lat="46.28745899635884" lon="12.24037608658246"><ele>582.75</ele><time>2026-04-12T09:06:17.866Z</time></trkpt><trkpt lat="46.28759401027075" lon="12.240362178634992"><ele>584.5</ele><time>2026-04-12T09:06:18.866Z</time></trkpt><trkpt lat="46.28773301321663" lon="12.240273529853551"><ele>586.25</ele><time>2026-04-12T09:06:19.866Z</time></trkpt><trkpt lat="46.28788169274882" lon="12.240215592297309"><ele>588.0</ele><time>2026-04-12T09:06:20.866Z</time></trkpt><trkpt lat="46.288034379722504" lon="12.240225643159693"><ele>588.6666666666666</ele><time>2026-04-12T09:06:21.866Z</time></trkpt><trkpt lat="46.288178658778385" lon="12.24026193588639"><ele>589.3333333333333</ele><time>2026-04-12T09:06:22.866Z</time></trkpt><trkpt lat="46.288356502243325" lon="12.240272033139675"><ele>590.0</ele><time>2026-04-12T09:06:23.866Z</time></trkpt><trkpt lat="46.28852400755548" lon="12.240337247964542"><ele>590.0</ele><time>2026-04-12T09:06:24.866Z</time></trkpt><trkpt lat="46.28870636046076" lon="12.240356312848242"><ele>590.0</ele><time>2026-04-12T09:06:25.866Z</time></trkpt><trkpt lat="46.288878179848574" lon="12.2403689225054"><ele>590.0</ele><time>2026-04-12T09:06:26.866Z</time></trkpt><trkpt lat="46.28905243666892" lon="12.240385654142555"><ele>591.5</ele><time>2026-04-12T09:06:27.866Z</time></trkpt><trkpt lat="46.28926221188995" lon="12.240331502176263"><ele>593.0</ele><time>2026-04-12T09:06:28.866Z</time></trkpt><trkpt lat="46.28962650078423" lon="12.24018844940327"><ele>591.6666666666666</ele><time>2026-04-12T09:06:29.866Z</time></trkpt><trkpt lat="46.289842803630656" lon="12.240140555019245"><ele>590.3333333333334</ele><time>2026-04-12T09:06:30.866Z</time></trkpt><trkpt lat="46.290034643576355" lon="12.240099188725791"><ele>589.0</ele><time>2026-04-12T09:06:31.866Z</time></trkpt><trkpt lat="46.29021127149364" lon="12.240060039839836"><ele>589.0</ele><time>2026-04-12T09:06:32.866Z</time></trkpt><trkpt lat="46.29038028654459" lon="12.240039629022784"><ele>589.0</ele><time>2026-04-12T09:06:33.866Z</time></trkpt><trkpt lat="46.290564545988296" lon="12.240048922480671"><ele>589.0</ele><time>2026-04-12T09:06:34.866Z</time></trkpt><trkpt lat="46.29073340483241" lon="12.240067396398391"><ele>590.0</ele><time>2026-04-12T09:06:35.866Z</time></trkpt><trkpt lat="46.29092218616816" lon="12.240128721319579"><ele>591.0</ele><time>2026-04-12T09:06:36.866Z</time></trkpt><trkpt lat="46.291139570928955" lon="12.240161639425356"><ele>592.0</ele><time>2026-04-12T09:06:37.866Z</time></trkpt><trkpt lat="46.29135504095881" lon="12.240185139812489"><ele>592.0</ele><time>2026-04-12T09:06:38.866Z</time></trkpt><trkpt lat="46.29160238244038" lon="12.240163181964189"><ele>592.0</ele><time>2026-04-12T09:06:39.866Z</time></trkpt><trkpt lat="46.29181807981119" lon="12.240194696777483"><ele>592.0</ele><time>2026-04-12T09:06:40.866Z</time></trkpt><trkpt lat="46.2920696609411" lon="12.240213847626116"><ele>592.0</ele><time>2026-04-12T09:06:41.866Z</time></trkpt><trkpt lat="46.29232367459181" lon="12.240221079154885"><ele>593.5</ele><time>2026-04-12T09:06:42.866Z</time></trkpt><trkpt lat="46.29262123354412" lon="12.240197689949875"><ele>595.0</ele><time>2026-04-12T09:06:43.866Z</time></trkpt><trkpt lat="46.29288274476773" lon="12.240185089982658"><ele>597.6666666666667</ele><time>2026-04-12T09:06:44.866Z</time></trkpt><trkpt lat="46.29311091477682" lon="12.240190830887002"><ele>600.3333333333334</ele><time>2026-04-12T09:06:45.866Z</time></trkpt><trkpt lat="46.29329923160263" lon="12.240208965915008"><ele>603.0</ele><time>2026-04-12T09:06:46.866Z</time></trkpt><trkpt lat="46.29348040862299" lon="12.24021521735482"><ele>603.0</ele><time>2026-04-12T09:06:47.866Z</time></trkpt><trkpt lat="46.293637467028496" lon="12.24022548502316"><ele>603.0</ele><time>2026-04-12T09:06:48.866Z</time></trkpt><trkpt lat="46.293781554464374" lon="12.240223036834182"><ele>603.0</ele><time>2026-04-12T09:06:49.866Z</time></trkpt><trkpt lat="46.29393417454967" lon="12.240179457868981"><ele>601.3333333333334</ele><time>2026-04-12T09:06:50.866Z</time></trkpt><trkpt lat="46.29408826174454" lon="12.240076805341939"><ele>599.6666666666667</ele><time>2026-04-12T09:06:51.866Z</time></trkpt><trkpt lat="46.29424101907426" lon="12.239921076517973"><ele>598.0</ele><time>2026-04-12T09:06:52.866Z</time></trkpt><trkpt lat="46.29439373061944" lon="12.239733027829653"><ele>598.0</ele><time>2026-04-12T09:06:53.866Z</time></trkpt><trkpt lat="46.29457245022587" lon="12.239577931555285"><ele>598.0</ele><time>2026-04-12T09:06:54.866Z</time></trkpt><trkpt lat="46.294754188560056" lon="12.239472628310688"><ele>598.0</ele><time>2026-04-12T09:06:55.866Z</time></trkpt><trkpt lat="46.294897022492286" lon="12.239380466191085"><ele>599.0</ele><time>2026-04-12T09:06:56.866Z</time></trkpt><trkpt lat="46.29501250209079" lon="12.239250234208292"><ele>600.0</ele><time>2026-04-12T09:06:57.866Z</time></trkpt><trkpt lat="46.2951152885382" lon="12.239053554084297"><ele>601.0</ele><time>2026-04-12T09:06:58.866Z</time></trkpt><trkpt lat="46.29520582258265" lon="12.23883573180484"><ele>601.0</ele><time>2026-04-12T09:06:59.866Z</time></trkpt><trkpt lat="46.295324732114075" lon="12.23866372370021"><ele>601.0</ele><time>2026-04-12T09:07:00.866Z</time></trkpt><trkpt lat="46.2954586179122" lon="12.238582533577691"><ele>601.0</ele><time>2026-04-12T09:07:01.866Z</time></trkpt><trkpt lat="46.295565756728294" lon="12.238496926047057"><ele>601.0</ele><time>2026-04-12T09:07:02.866Z</time></trkpt><trkpt lat="46.29564063964535" lon="12.238449709774148"><ele>603.75</ele><time>2026-04-12T09:07:03.866Z</time></trkpt><trkpt lat="46.29569512598162" lon="12.238317606514425"><ele>606.5</ele><time>2026-04-12T09:07:04.866Z</time></trkpt><trkpt lat="46.29569904462877" lon="12.23814332664196"><ele>609.25</ele><time>2026-04-12T09:07:05.866Z</time></trkpt><trkpt lat="46.29564824166605" lon="12.237948022594438"><ele>612.0</ele><time>2026-04-12T09:07:06.866Z</time></trkpt><trkpt lat="46.295542335049014" lon="12.237793116253629"><ele>612.0</ele><time>2026-04-12T09:07:07.866Z</time></trkpt><trkpt lat="46.29540928434238" lon="12.237625028376552"><ele>612.0</ele><time>2026-04-12T09:07:08.866Z</time></trkpt><trkpt lat="46.295329096354614" lon="12.237455410889096"><ele>612.0</ele><time>2026-04-12T09:07:09.866Z</time></trkpt><trkpt lat="46.295274658372946" lon="12.237257603515713"><ele>615.25</ele><time>2026-04-12T09:07:10.866Z</time></trkpt><trkpt lat="46.295224062199814" lon="12.237036688440261"><ele>618.5</ele><time>2026-04-12T09:07:11.866Z</time></trkpt><trkpt lat="46.29518197664773" lon="12.236843809308908"><ele>621.75</ele><time>2026-04-12T09:07:12.866Z</time></trkpt><trkpt lat="46.29515191234401" lon="12.236668180371485"><ele>625.0</ele><time>2026-04-12T09:07:13.866Z</time></trkpt><trkpt lat="46.295150941479264" lon="12.2365354075127"><ele>624.8</ele><time>2026-04-12T09:07:14.866Z</time></trkpt><trkpt lat="46.295132185591406" lon="12.236408782072743"><ele>624.6</ele><time>2026-04-12T09:07:15.866Z</time></trkpt><trkpt lat="46.29522653581537" lon="12.236316029607403"><ele>624.4</ele><time>2026-04-12T09:07:16.866Z</time></trkpt><trkpt lat="46.29531974208946" lon="12.23622950058905"><ele>624.2</ele><time>2026-04-12T09:07:17.866Z</time></trkpt><trkpt lat="46.29543769539955" lon="12.236138790486752"><ele>624.0</ele><time>2026-04-12T09:07:18.866Z</time></trkpt><trkpt lat="46.2955644227871" lon="12.236010513168113"><ele>626.3333333333334</ele><time>2026-04-12T09:07:19.866Z</time></trkpt><trkpt lat="46.29570073044318" lon="12.235848556132625"><ele>628.6666666666667</ele><time>2026-04-12T09:07:20.866Z</time></trkpt><trkpt lat="46.295852559756646" lon="12.235675002287346"><ele>631.0</ele><time>2026-04-12T09:07:21.866Z</time></trkpt><trkpt lat="46.295987356024284" lon="12.23551963137462"><ele>625.0</ele><time>2026-04-12T09:07:22.866Z</time></trkpt><trkpt lat="46.2961077788208" lon="12.235374445674507"><ele>619.0</ele><time>2026-04-12T09:07:23.866Z</time></trkpt><trkpt lat="46.29622176717579" lon="12.23518276988412"><ele>613.0</ele><time>2026-04-12T09:07:24.866Z</time></trkpt><trkpt lat="46.296325635988865" lon="12.234932930082456"><ele>625.5</ele><time>2026-04-12T09:07:25.866Z</time></trkpt><trkpt lat="46.29642561355738" lon="12.234641261651817"><ele>638.0</ele><time>2026-04-12T09:07:26.866Z</time></trkpt><trkpt lat="46.29654400703064" lon="12.234331087079841"><ele>638.0</ele><time>2026-04-12T09:07:27.866Z</time></trkpt><trkpt lat="46.296666233315584" lon="12.234037015876888"><ele>638.0</ele><time>2026-04-12T09:07:28.866Z</time></trkpt><trkpt lat="46.29677261652818" lon="12.23376213515833"><ele>632.3333333333333</ele><time>2026-04-12T09:07:29.866Z</time></trkpt><trkpt lat="46.29685894193497" lon="12.233487873119957"><ele>626.6666666666666</ele><time>2026-04-12T09:07:30.866Z</time></trkpt><trkpt lat="46.29692948494577" lon="12.233243535685977"><ele>621.0</ele><time>2026-04-12T09:07:31.866Z</time></trkpt><trkpt lat="46.296991639573704" lon="12.233017767953134"><ele>618.5</ele><time>2026-04-12T09:07:32.866Z</time></trkpt><trkpt lat="46.297047165354556" lon="12.232824325366767"><ele>616.0</ele><time>2026-04-12T09:07:33.866Z</time></trkpt><trkpt lat="46.297118481550434" lon="12.232670675870995"><ele>613.5</ele><time>2026-04-12T09:07:34.866Z</time></trkpt><trkpt lat="46.29722181266706" lon="12.232557049748445"><ele>611.0</ele><time>2026-04-12T09:07:35.866Z</time></trkpt><trkpt lat="46.29735592072783" lon="12.232485999683929"><ele>618.6666666666666</ele><time>2026-04-12T09:07:36.866Z</time></trkpt><trkpt lat="46.297507322648336" lon="12.232462111281242"><ele>626.3333333333334</ele><time>2026-04-12T09:07:37.866Z</time></trkpt><trkpt lat="46.297681869854685" lon="12.232474837610917"><ele>634.0</ele><time>2026-04-12T09:07:38.866Z</time></trkpt><trkpt lat="46.29786158241978" lon="12.232446624923199"><ele>634.0</ele><time>2026-04-12T09:07:39.866Z</time></trkpt><trkpt lat="46.29807729329167" lon="12.23238171559535"><ele>634.0</ele><time>2026-04-12T09:07:40.866Z</time></trkpt><trkpt lat="46.298314548991776" lon="12.232336228200381"><ele>625.5</ele><time>2026-04-12T09:07:41.866Z</time></trkpt><trkpt lat="46.298568382281566" lon="12.232220925187445"><ele>617.0</ele><time>2026-04-12T09:07:42.866Z</time></trkpt><trkpt lat="46.29879872942772" lon="12.232157876094979"><ele>615.75</ele><time>2026-04-12T09:07:43.866Z</time></trkpt><trkpt lat="46.29897049180768" lon="12.232131343565701"><ele>614.5</ele><time>2026-04-12T09:07:44.866Z</time></trkpt><trkpt lat="46.29910128243265" lon="12.232123396925719"><ele>613.25</ele><time>2026-04-12T09:07:45.866Z</time></trkpt><trkpt lat="46.29918913030085" lon="12.232118712335295"><ele>612.0</ele><time>2026-04-12T09:07:46.866Z</time></trkpt><trkpt lat="46.299286471903024" lon="12.232094119020164"><ele>612.0</ele><time>2026-04-12T09:07:47.866Z</time></trkpt><trkpt lat="46.29944908456777" lon="12.23197149458404"><ele>612.0</ele><time>2026-04-12T09:07:48.866Z</time></trkpt><trkpt lat="46.2996123595549" lon="12.23178589348742"><ele>612.0</ele><time>2026-04-12T09:07:49.866Z</time></trkpt><trkpt lat="46.29971050642002" lon="12.231621386353725"><ele>612.5</ele><time>2026-04-12T09:07:50.866Z</time></trkpt><trkpt lat="46.29980763316005" lon="12.231519928587977"><ele>613.0</ele><time>2026-04-12T09:07:51.866Z</time></trkpt><trkpt lat="46.299919775591505" lon="12.231449788979003"><ele>613.5</ele><time>2026-04-12T09:07:52.866Z</time></trkpt><trkpt lat="46.300048201061244" lon="12.231416110102769"><ele>614.0</ele><time>2026-04-12T09:07:53.866Z</time></trkpt><trkpt lat="46.30019593544027" lon="12.231466090732486"><ele>621.0</ele><time>2026-04-12T09:07:54.866Z</time></trkpt><trkpt lat="46.300367442423905" lon="12.231489530441245"><ele>628.0</ele><time>2026-04-12T09:07:55.866Z</time></trkpt><trkpt lat="46.30052837673335" lon="12.231498652048753"><ele>635.0</ele><time>2026-04-12T09:07:56.866Z</time></trkpt><trkpt lat="46.30066380092105" lon="12.231497318558247"><ele>630.6666666666666</ele><time>2026-04-12T09:07:57.866Z</time></trkpt><trkpt lat="46.300833851660535" lon="12.231434583404452"><ele>626.3333333333334</ele><time>2026-04-12T09:07:58.866Z</time></trkpt><trkpt lat="46.30102375402536" lon="12.231308137873791"><ele>622.0</ele><time>2026-04-12T09:07:59.866Z</time></trkpt><trkpt lat="46.30120642152713" lon="12.231106542723778"><ele>622.0</ele><time>2026-04-12T09:08:00.866Z</time></trkpt><trkpt lat="46.301386282343294" lon="12.230881161978571"><ele>622.0</ele><time>2026-04-12T09:08:01.866Z</time></trkpt><trkpt lat="46.30152626691554" lon="12.23066227742119"><ele>622.0</ele><time>2026-04-12T09:08:02.866Z</time></trkpt><trkpt lat="46.30144922096892" lon="12.230717202157768"><ele>626.0</ele><time>2026-04-12T09:08:03.866Z</time></trkpt><trkpt lat="46.301531756744296" lon="12.230515696345254"><ele>630.0</ele><time>2026-04-12T09:08:04.866Z</time></trkpt><trkpt lat="46.30160110636203" lon="12.230261451789008"><ele>634.0</ele><time>2026-04-12T09:08:05.866Z</time></trkpt><trkpt lat="46.30168686755463" lon="12.23001240926227"><ele>629.6666666666667</ele><time>2026-04-12T09:08:06.866Z</time></trkpt><trkpt lat="46.30176885603231" lon="12.229737637200799"><ele>625.3333333333334</ele><time>2026-04-12T09:08:07.867Z</time></trkpt><trkpt lat="46.301834708440516" lon="12.22947403207502"><ele>621.0</ele><time>2026-04-12T09:08:08.867Z</time></trkpt><trkpt lat="46.301882263281776" lon="12.229225167243548"><ele>621.0</ele><time>2026-04-12T09:08:09.867Z</time></trkpt><trkpt lat="46.30193292061728" lon="12.22900087673068"><ele>621.0</ele><time>2026-04-12T09:08:10.867Z</time></trkpt><trkpt lat="46.30197573413344" lon="12.228795223402082"><ele>621.0</ele><time>2026-04-12T09:08:11.867Z</time></trkpt><trkpt lat="46.30201281741517" lon="12.228612806668313"><ele>621.0</ele><time>2026-04-12T09:08:12.867Z</time></trkpt><trkpt lat="46.30207532662078" lon="12.228450902218384"><ele>623.0</ele><time>2026-04-12T09:08:13.867Z</time></trkpt><trkpt lat="46.30217443673901" lon="12.228316737965438"><ele>625.0</ele><time>2026-04-12T09:08:14.867Z</time></trkpt><trkpt lat="46.30231492472325" lon="12.228240736919046"><ele>627.0</ele><time>2026-04-12T09:08:15.867Z</time></trkpt><trkpt lat="46.30246952161665" lon="12.22815481324443"><ele>627.6666666666666</ele><time>2026-04-12T09:08:16.867Z</time></trkpt><trkpt lat="46.30265339965899" lon="12.228053747451092"><ele>628.3333333333333</ele><time>2026-04-12T09:08:17.867Z</time></trkpt><trkpt lat="46.302845006377645" lon="12.227902086645125"><ele>629.0</ele><time>2026-04-12T09:08:18.867Z</time></trkpt><trkpt lat="46.30304159860675" lon="12.227761560304412"><ele>633.0</ele><time>2026-04-12T09:08:19.867Z</time></trkpt><trkpt lat="46.30320309726536" lon="12.227612857443726"><ele>637.0</ele><time>2026-04-12T09:08:20.867Z</time></trkpt><trkpt lat="46.30332857508908" lon="12.227437865789824"><ele>641.0</ele><time>2026-04-12T09:08:21.867Z</time></trkpt><trkpt lat="46.30343945188602" lon="12.227243411959423"><ele>641.0</ele><time>2026-04-12T09:08:22.867Z</time></trkpt><trkpt lat="46.30355085673778" lon="12.227009362695485"><ele>641.0</ele><time>2026-04-12T09:08:23.867Z</time></trkpt><trkpt lat="46.3036372030199" lon="12.226727176444408"><ele>641.0</ele><time>2026-04-12T09:08:24.867Z</time></trkpt><trkpt lat="46.30370982791452" lon="12.226410135198734"><ele>638.5</ele><time>2026-04-12T09:08:25.867Z</time></trkpt><trkpt lat="46.30377385963526" lon="12.226061947038296"><ele>636.0</ele><time>2026-04-12T09:08:26.867Z</time></trkpt><trkpt lat="46.30384279056188" lon="12.225719836469224"><ele>638.3333333333334</ele><time>2026-04-12T09:08:27.867Z</time></trkpt><trkpt lat="46.30389622121938" lon="12.225436189239359"><ele>640.6666666666667</ele><time>2026-04-12T09:08:28.867Z</time></trkpt><trkpt lat="46.30393514274521" lon="12.225180789017916"><ele>643.0</ele><time>2026-04-12T09:08:29.867Z</time></trkpt><trkpt lat="46.30398596841011" lon="12.224973886535407"><ele>643.75</ele><time>2026-04-12T09:08:30.867Z</time></trkpt><trkpt lat="46.30401241206994" lon="12.22478156990363"><ele>644.5</ele><time>2026-04-12T09:08:31.867Z</time></trkpt><trkpt lat="46.304063188910284" lon="12.224584930980493"><ele>645.25</ele><time>2026-04-12T09:08:32.867Z</time></trkpt><trkpt lat="46.30412144582674" lon="12.224420747604155"><ele>646.0</ele><time>2026-04-12T09:08:33.867Z</time></trkpt><trkpt lat="46.30420156367286" lon="12.224278078501229"><ele>646.0</ele><time>2026-04-12T09:08:34.867Z</time></trkpt><trkpt lat="46.30430772847959" lon="12.224167450197841"><ele>646.0</ele><time>2026-04-12T09:08:35.867Z</time></trkpt><trkpt lat="46.3044410557026" lon="12.224111170327452"><ele>646.0</ele><time>2026-04-12T09:08:36.867Z</time></trkpt><trkpt lat="46.30460341933479" lon="12.224040867831288"><ele>646.0</ele><time>2026-04-12T09:08:37.867Z</time></trkpt><trkpt lat="46.304730616422646" lon="12.22398985034093"><ele>644.25</ele><time>2026-04-12T09:08:38.867Z</time></trkpt><trkpt lat="46.30487330717051" lon="12.223954879865936"><ele>642.5</ele><time>2026-04-12T09:08:39.867Z</time></trkpt><trkpt lat="46.30501508064926" lon="12.223969818261894"><ele>640.75</ele><time>2026-04-12T09:08:40.867Z</time></trkpt><trkpt lat="46.30516952590056" lon="12.224002983322807"><ele>639.0</ele><time>2026-04-12T09:08:41.867Z</time></trkpt><trkpt lat="46.30540501701057" lon="12.224000991453432"><ele>637.3333333333334</ele><time>2026-04-12T09:08:42.867Z</time></trkpt><trkpt lat="46.30562401747947" lon="12.223951651264603"><ele>635.6666666666667</ele><time>2026-04-12T09:08:43.867Z</time></trkpt><trkpt lat="46.30579441421491" lon="12.223941612635619"><ele>634.0</ele><time>2026-04-12T09:08:44.867Z</time></trkpt><trkpt lat="46.30596284292317" lon="12.223958997721732"><ele>634.0</ele><time>2026-04-12T09:08:45.867Z</time></trkpt><trkpt lat="46.306108689562755" lon="12.223969569612878"><ele>634.0</ele><time>2026-04-12T09:08:46.867Z</time></trkpt><trkpt lat="46.306337058664745" lon="12.224031661405812"><ele>634.0</ele><time>2026-04-12T09:08:47.867Z</time></trkpt><trkpt lat="46.30657726627259" lon="12.224072545729188"><ele>637.6666666666667</ele><time>2026-04-12T09:08:48.867Z</time></trkpt><trkpt lat="46.3067712951655" lon="12.224182895140924"><ele>641.3333333333334</ele><time>2026-04-12T09:08:49.867Z</time></trkpt><trkpt lat="46.30696311752474" lon="12.224237420905968"><ele>645.0</ele><time>2026-04-12T09:08:50.867Z</time></trkpt><trkpt lat="46.307128251450465" lon="12.224271539925363"><ele>643.3333333333334</ele><time>2026-04-12T09:08:51.867Z</time></trkpt><trkpt lat="46.307279391488876" lon="12.224338313883829"><ele>641.6666666666667</ele><time>2026-04-12T09:08:52.867Z</time></trkpt><trkpt lat="46.307432564133244" lon="12.224364882035085"><ele>640.0</ele><time>2026-04-12T09:08:53.867Z</time></trkpt><trkpt lat="46.30761946282464" lon="12.22433939971863"><ele>640.0</ele><time>2026-04-12T09:08:54.867Z</time></trkpt><trkpt lat="46.30778520794487" lon="12.224352694915654"><ele>640.0</ele><time>2026-04-12T09:08:55.867Z</time></trkpt><trkpt lat="46.307930614605226" lon="12.22437523449529"><ele>640.0</ele><time>2026-04-12T09:08:56.867Z</time></trkpt><trkpt lat="46.30809549172642" lon="12.224415123070193"><ele>637.25</ele><time>2026-04-12T09:08:57.867Z</time></trkpt><trkpt lat="46.30823519508099" lon="12.22442403160129"><ele>634.5</ele><time>2026-04-12T09:08:58.867Z</time></trkpt><trkpt lat="46.30837148563756" lon="12.224496734454693"><ele>631.75</ele><time>2026-04-12T09:08:59.867Z</time></trkpt><trkpt lat="46.30851057091023" lon="12.224583349319428"><ele>629.0</ele><time>2026-04-12T09:09:00.867Z</time></trkpt><trkpt lat="46.308696375904724" lon="12.224670676217228"><ele>629.0</ele><time>2026-04-12T09:09:01.867Z</time></trkpt><trkpt lat="46.30888116066458" lon="12.22474317466195"><ele>629.0</ele><time>2026-04-12T09:09:02.867Z</time></trkpt><trkpt lat="46.30904902584125" lon="12.22473859937638"><ele>629.0</ele><time>2026-04-12T09:09:03.867Z</time></trkpt><trkpt lat="46.30919398225363" lon="12.22474387947545"><ele>628.25</ele><time>2026-04-12T09:09:04.867Z</time></trkpt><trkpt lat="46.30932026579788" lon="12.224781605443564"><ele>627.5</ele><time>2026-04-12T09:09:05.867Z</time></trkpt><trkpt lat="46.30945930844454" lon="12.224851361760544"><ele>626.75</ele><time>2026-04-12T09:09:06.867Z</time></trkpt><trkpt lat="46.30958501602808" lon="12.22496253792386"><ele>626.0</ele><time>2026-04-12T09:09:07.867Z</time></trkpt><trkpt lat="46.30972162391211" lon="12.225111704451265"><ele>628.3333333333333</ele><time>2026-04-12T09:09:08.867Z</time></trkpt><trkpt lat="46.309839014108206" lon="12.22528800235364"><ele>630.6666666666666</ele><time>2026-04-12T09:09:09.867Z</time></trkpt><trkpt lat="46.30996332777303" lon="12.225486297760318"><ele>633.0</ele><time>2026-04-12T09:09:10.867Z</time></trkpt><trkpt lat="46.310082490630755" lon="12.225717854979818"><ele>641.6666666666666</ele><time>2026-04-12T09:09:11.867Z</time></trkpt><trkpt lat="46.31017826184858" lon="12.22594071667522"><ele>650.3333333333333</ele><time>2026-04-12T09:09:12.867Z</time></trkpt><trkpt lat="46.310276843905164" lon="12.226134502539999"><ele>659.0</ele><time>2026-04-12T09:09:13.867Z</time></trkpt><trkpt lat="46.3103776840328" lon="12.226326668496077"><ele>655.3333333333333</ele><time>2026-04-12T09:09:14.867Z</time></trkpt><trkpt lat="46.31051305429391" lon="12.226495953945225"><ele>651.6666666666666</ele><time>2026-04-12T09:09:15.867Z</time></trkpt><trkpt lat="46.310669772575345" lon="12.226652727967759"><ele>648.0</ele><time>2026-04-12T09:09:16.867Z</time></trkpt><trkpt lat="46.31082681646203" lon="12.226763740754045"><ele>648.0</ele><time>2026-04-12T09:09:17.867Z</time></trkpt><trkpt lat="46.31099101354826" lon="12.226849851992244"><ele>648.0</ele><time>2026-04-12T09:09:18.867Z</time></trkpt><trkpt lat="46.31114937465818" lon="12.226913847871863"><ele>648.0</ele><time>2026-04-12T09:09:19.867Z</time></trkpt><trkpt lat="46.31129161421526" lon="12.226970342864767"><ele>644.6666666666666</ele><time>2026-04-12T09:09:20.867Z</time></trkpt><trkpt lat="46.31145671815189" lon="12.227000041059192"><ele>641.3333333333333</ele><time>2026-04-12T09:09:21.867Z</time></trkpt><trkpt lat="46.31164160510912" lon="12.226958168710576"><ele>638.0</ele><time>2026-04-12T09:09:22.867Z</time></trkpt><trkpt lat="46.311843887373435" lon="12.226869102380869"><ele>638.0</ele><time>2026-04-12T09:09:23.867Z</time></trkpt><trkpt lat="46.31200635558091" lon="12.226820206975257"><ele>638.0</ele><time>2026-04-12T09:09:24.867Z</time></trkpt><trkpt lat="46.312145771879294" lon="12.226799229892118"><ele>638.0</ele><time>2026-04-12T09:09:25.867Z</time></trkpt><trkpt lat="46.312304330628564" lon="12.226827788855015"><ele>639.0</ele><time>2026-04-12T09:09:26.867Z</time></trkpt><trkpt lat="46.31246780491009" lon="12.226902305008283"><ele>640.0</ele><time>2026-04-12T09:09:27.867Z</time></trkpt><trkpt lat="46.312631363552896" lon="12.227049840130528"><ele>641.0</ele><time>2026-04-12T09:09:28.867Z</time></trkpt><trkpt lat="46.31283432212114" lon="12.227194531139048"><ele>646.0</ele><time>2026-04-12T09:09:29.867Z</time></trkpt><trkpt lat="46.31304622122918" lon="12.227333067548253"><ele>651.0</ele><time>2026-04-12T09:09:30.867Z</time></trkpt><trkpt lat="46.313270865576285" lon="12.227477393873354"><ele>651.0</ele><time>2026-04-12T09:09:31.867Z</time></trkpt><trkpt lat="46.31351801514758" lon="12.227587995703212"><ele>651.0</ele><time>2026-04-12T09:09:32.867Z</time></trkpt><trkpt lat="46.31372867671464" lon="12.227658123862946"><ele>648.6666666666666</ele><time>2026-04-12T09:09:33.867Z</time></trkpt><trkpt lat="46.313936929021445" lon="12.227711746715608"><ele>646.3333333333333</ele><time>2026-04-12T09:09:34.867Z</time></trkpt><trkpt lat="46.31413589671023" lon="12.227755259980931"><ele>644.0</ele><time>2026-04-12T09:09:35.867Z</time></trkpt><trkpt lat="46.31433485768744" lon="12.227783914742242"><ele>644.0</ele><time>2026-04-12T09:09:36.867Z</time></trkpt><trkpt lat="46.31451911727475" lon="12.22785882473093"><ele>644.0</ele><time>2026-04-12T09:09:37.867Z</time></trkpt><trkpt lat="46.31469183579435" lon="12.227911034542572"><ele>644.0</ele><time>2026-04-12T09:09:38.867Z</time></trkpt><trkpt lat="46.31486926772582" lon="12.22801747803266"><ele>648.3333333333333</ele><time>2026-04-12T09:09:39.867Z</time></trkpt><trkpt lat="46.31505190802415" lon="12.228158104837512"><ele>652.6666666666666</ele><time>2026-04-12T09:09:40.867Z</time></trkpt><trkpt lat="46.31522577880335" lon="12.228326405434958"><ele>657.0</ele><time>2026-04-12T09:09:41.867Z</time></trkpt><trkpt lat="46.315398063634305" lon="12.228558260430724"><ele>661.0</ele><time>2026-04-12T09:09:42.867Z</time></trkpt><trkpt lat="46.315579730343565" lon="12.228803605900026"><ele>665.0</ele><time>2026-04-12T09:09:43.867Z</time></trkpt><trkpt lat="46.3157653587245" lon="12.22906182086517"><ele>665.0</ele><time>2026-04-12T09:09:44.867Z</time></trkpt><trkpt lat="46.31596645113238" lon="12.229302175873531"><ele>665.0</ele><time>2026-04-12T09:09:45.867Z</time></trkpt><trkpt lat="46.31618312909946" lon="12.22954398172984"><ele>667.5</ele><time>2026-04-12T09:09:46.867Z</time></trkpt><trkpt lat="46.31640845548795" lon="12.229733695754623"><ele>670.0</ele><time>2026-04-12T09:09:47.867Z</time></trkpt><trkpt lat="46.316648626405744" lon="12.229904379662413"><ele>670.0</ele><time>2026-04-12T09:09:48.867Z</time></trkpt><trkpt lat="46.3168831416646" lon="12.230033722335099"><ele>670.0</ele><time>2026-04-12T09:09:49.867Z</time></trkpt><trkpt lat="46.31708981843352" lon="12.230161429899225"><ele>666.3333333333334</ele><time>2026-04-12T09:09:50.867Z</time></trkpt><trkpt lat="46.31727592538087" lon="12.230286417564068"><ele>662.6666666666666</ele><time>2026-04-12T09:09:51.867Z</time></trkpt><trkpt lat="46.31745072113103" lon="12.23039399936813"><ele>659.0</ele><time>2026-04-12T09:09:52.867Z</time></trkpt><trkpt lat="46.31760649979406" lon="12.230499345616176"><ele>659.0</ele><time>2026-04-12T09:09:53.867Z</time></trkpt><trkpt lat="46.317749761090745" lon="12.230591633016578"><ele>659.0</ele><time>2026-04-12T09:09:54.867Z</time></trkpt><trkpt lat="46.31788429149249" lon="12.230691082232891"><ele>659.0</ele><time>2026-04-12T09:09:55.867Z</time></trkpt><trkpt lat="46.318013619361" lon="12.230820071200345"><ele>659.6666666666666</ele><time>2026-04-12T09:09:56.867Z</time></trkpt><trkpt lat="46.318136051928306" lon="12.230937407073945"><ele>660.3333333333334</ele><time>2026-04-12T09:09:57.867Z</time></trkpt><trkpt lat="46.31826568054162" lon="12.231112036488433"><ele>661.0</ele><time>2026-04-12T09:09:58.867Z</time></trkpt><trkpt lat="46.31838945840082" lon="12.231266551673366"><ele>661.0</ele><time>2026-04-12T09:09:59.867Z</time></trkpt><trkpt lat="46.3184917132991" lon="12.231413980780097"><ele>661.0</ele><time>2026-04-12T09:10:00.867Z</time></trkpt><trkpt lat="46.31859259378471" lon="12.231568307963608"><ele>661.0</ele><time>2026-04-12T09:10:01.867Z</time></trkpt><trkpt lat="46.31869022760351" lon="12.231723461910395"><ele>661.0</ele><time>2026-04-12T09:10:02.867Z</time></trkpt><trkpt lat="46.31877237512496" lon="12.231873093312235"><ele>662.5</ele><time>2026-04-12T09:10:03.867Z</time></trkpt><trkpt lat="46.31886824421119" lon="12.232037755890904"><ele>664.0</ele><time>2026-04-12T09:10:04.867Z</time></trkpt><trkpt lat="46.31894877922218" lon="12.232202120747564"><ele>665.5</ele><time>2026-04-12T09:10:05.867Z</time></trkpt><trkpt lat="46.31903982098925" lon="12.232370509907305"><ele>667.0</ele><time>2026-04-12T09:10:06.867Z</time></trkpt><trkpt lat="46.31913509625372" lon="12.232587939322146"><ele>667.0</ele><time>2026-04-12T09:10:07.867Z</time></trkpt><trkpt lat="46.319211558201125" lon="12.232810210680828"><ele>667.0</ele><time>2026-04-12T09:10:08.867Z</time></trkpt><trkpt lat="46.319285536905845" lon="12.233014816220564"><ele>667.0</ele><time>2026-04-12T09:10:09.867Z</time></trkpt><trkpt lat="46.319376308047914" lon="12.233210432235111"><ele>672.3333333333334</ele><time>2026-04-12T09:10:10.867Z</time></trkpt><trkpt lat="46.31947734455591" lon="12.233383227090243"><ele>677.6666666666666</ele><time>2026-04-12T09:10:11.867Z</time></trkpt><trkpt lat="46.319576742048056" lon="12.233548885428965"><ele>683.0</ele><time>2026-04-12T09:10:12.867Z</time></trkpt><trkpt lat="46.31968019647179" lon="12.233700218191304"><ele>683.5</ele><time>2026-04-12T09:10:13.868Z</time></trkpt><trkpt lat="46.319784523501504" lon="12.233841433147019"><ele>684.0</ele><time>2026-04-12T09:10:14.868Z</time></trkpt><trkpt lat="46.31989145973857" lon="12.233977181422754"><ele>684.5</ele><time>2026-04-12T09:10:15.868Z</time></trkpt><trkpt lat="46.32000426114197" lon="12.234061372868663"><ele>685.0</ele><time>2026-04-12T09:10:16.868Z</time></trkpt><trkpt lat="46.32013121682305" lon="12.234141070888613"><ele>685.0</ele><time>2026-04-12T09:10:17.868Z</time></trkpt><trkpt lat="46.32026576555844" lon="12.2341960755125"><ele>685.0</ele><time>2026-04-12T09:10:18.868Z</time></trkpt><trkpt lat="46.320401255125645" lon="12.234240586194138"><ele>685.0</ele><time>2026-04-12T09:10:19.868Z</time></trkpt><trkpt lat="46.32055520356152" lon="12.234274228148518"><ele>685.0</ele><time>2026-04-12T09:10:20.869Z</time></trkpt><trkpt lat="46.320685748516524" lon="12.234330038757696"><ele>681.25</ele><time>2026-04-12T09:10:21.869Z</time></trkpt><trkpt lat="46.3208093226041" lon="12.234377700826036"><ele>677.5</ele><time>2026-04-12T09:10:22.869Z</time></trkpt><trkpt lat="46.32095347924368" lon="12.234405771346314"><ele>673.75</ele><time>2026-04-12T09:10:23.869Z</time></trkpt><trkpt lat="46.32108553613468" lon="12.23439035279784"><ele>670.0</ele><time>2026-04-12T09:10:24.869Z</time></trkpt><trkpt lat="46.32120966556152" lon="12.23432797151284"><ele>670.0</ele><time>2026-04-12T09:10:25.869Z</time></trkpt><trkpt lat="46.3213467752885" lon="12.23425369510456"><ele>670.0</ele><time>2026-04-12T09:10:26.869Z</time></trkpt><trkpt lat="46.32148910491171" lon="12.234161821026953"><ele>670.0</ele><time>2026-04-12T09:10:27.869Z</time></trkpt><trkpt lat="46.32163259078107" lon="12.234141381868724"><ele>670.0</ele><time>2026-04-12T09:10:28.869Z</time></trkpt><trkpt lat="46.321771039427425" lon="12.234124613124473"><ele>673.5</ele><time>2026-04-12T09:10:29.869Z</time></trkpt><trkpt lat="46.32190983545921" lon="12.23411801119839"><ele>677.0</ele><time>2026-04-12T09:10:30.869Z</time></trkpt><trkpt lat="46.322047759840345" lon="12.234119256234303"><ele>680.5</ele><time>2026-04-12T09:10:31.869Z</time></trkpt><trkpt lat="46.32221443393366" lon="12.234121268651837"><ele>684.0</ele><time>2026-04-12T09:10:32.869Z</time></trkpt><trkpt lat="46.322358098507145" lon="12.234107226277715"><ele>682.3333333333334</ele><time>2026-04-12T09:10:33.869Z</time></trkpt><trkpt lat="46.322512189232945" lon="12.23406682203146"><ele>680.6666666666667</ele><time>2026-04-12T09:10:34.869Z</time></trkpt><trkpt lat="46.322652489734615" lon="12.233995147253822"><ele>679.0</ele><time>2026-04-12T09:10:35.869Z</time></trkpt><trkpt lat="46.322783524697854" lon="12.233899080104848"><ele>679.0</ele><time>2026-04-12T09:10:36.869Z</time></trkpt><trkpt lat="46.322881190315634" lon="12.233799598896802"><ele>679.0</ele><time>2026-04-12T09:10:37.869Z</time></trkpt><trkpt lat="46.32299196495715" lon="12.233673913086378"><ele>679.0</ele><time>2026-04-12T09:10:38.869Z</time></trkpt><trkpt lat="46.323086064011214" lon="12.233572638099485"><ele>679.0</ele><time>2026-04-12T09:10:39.869Z</time></trkpt><trkpt lat="46.3231901784435" lon="12.233458698321906"><ele>681.75</ele><time>2026-04-12T09:10:40.869Z</time></trkpt><trkpt lat="46.32329417887474" lon="12.233358088073112"><ele>684.5</ele><time>2026-04-12T09:10:41.869Z</time></trkpt><trkpt lat="46.323394735531714" lon="12.23321954952433"><ele>687.25</ele><time>2026-04-12T09:10:42.869Z</time></trkpt><trkpt lat="46.32349416680703" lon="12.233085308986892"><ele>690.0</ele><time>2026-04-12T09:10:43.869Z</time></trkpt><trkpt lat="46.32360352174361" lon="12.232931957655982"><ele>690.0</ele><time>2026-04-12T09:10:44.869Z</time></trkpt><trkpt lat="46.32370495283416" lon="12.232776908618225"><ele>690.0</ele><time>2026-04-12T09:10:45.869Z</time></trkpt><trkpt lat="46.32380943599564" lon="12.232607002201071"><ele>690.0</ele><time>2026-04-12T09:10:46.869Z</time></trkpt><trkpt lat="46.32393802064214" lon="12.232461413220205"><ele>691.6666666666666</ele><time>2026-04-12T09:10:47.869Z</time></trkpt><trkpt lat="46.32406705351592" lon="12.232335280355718"><ele>693.3333333333333</ele><time>2026-04-12T09:10:48.869Z</time></trkpt><trkpt lat="46.32421629461487" lon="12.232266869408878"><ele>695.0</ele><time>2026-04-12T09:10:49.869Z</time></trkpt><trkpt lat="46.32435938787604" lon="12.23218107093647"><ele>695.0</ele><time>2026-04-12T09:10:50.869Z</time></trkpt><trkpt lat="46.324502013031" lon="12.232089432551223"><ele>695.0</ele><time>2026-04-12T09:10:51.869Z</time></trkpt><trkpt lat="46.324641942151416" lon="12.232012867340103"><ele>695.0</ele><time>2026-04-12T09:10:52.869Z</time></trkpt><trkpt lat="46.32476226798637" lon="12.231946044976073"><ele>695.0</ele><time>2026-04-12T09:10:53.869Z</time></trkpt><trkpt lat="46.32487188650267" lon="12.231893722626227"><ele>697.25</ele><time>2026-04-12T09:10:54.869Z</time></trkpt><trkpt lat="46.324976531298404" lon="12.231881660958102"><ele>699.5</ele><time>2026-04-12T09:10:55.869Z</time></trkpt><trkpt lat="46.325093828461426" lon="12.231898511917814"><ele>701.75</ele><time>2026-04-12T09:10:56.869Z</time></trkpt><trkpt lat="46.325211764198436" lon="12.231961546790092"><ele>704.0</ele><time>2026-04-12T09:10:57.869Z</time></trkpt><trkpt lat="46.32533083419324" lon="12.23204230010121"><ele>704.0</ele><time>2026-04-12T09:10:58.869Z</time></trkpt><trkpt lat="46.325438978938024" lon="12.232153900688893"><ele>704.0</ele><time>2026-04-12T09:10:59.869Z</time></trkpt><trkpt lat="46.32554044885861" lon="12.232294345742616"><ele>704.0</ele><time>2026-04-12T09:11:00.869Z</time></trkpt><trkpt lat="46.32563853278428" lon="12.232444093453354"><ele>704.0</ele><time>2026-04-12T09:11:01.869Z</time></trkpt><trkpt lat="46.32574082686078" lon="12.232593432171821"><ele>707.0</ele><time>2026-04-12T09:11:02.869Z</time></trkpt><trkpt lat="46.32584638129365" lon="12.232742178456027"><ele>710.0</ele><time>2026-04-12T09:11:03.869Z</time></trkpt><trkpt lat="46.32595180146973" lon="12.2328912541218"><ele>713.0</ele><time>2026-04-12T09:11:04.869Z</time></trkpt><trkpt lat="46.32605952468565" lon="12.23304231836802"><ele>716.0</ele><time>2026-04-12T09:11:05.869Z</time></trkpt><trkpt lat="46.32616895426261" lon="12.233178553312156"><ele>717.75</ele><time>2026-04-12T09:11:06.869Z</time></trkpt><trkpt lat="46.326282678892916" lon="12.233306312828466"><ele>719.5</ele><time>2026-04-12T09:11:07.869Z</time></trkpt><trkpt lat="46.32639935497851" lon="12.233424779258474"><ele>721.25</ele><time>2026-04-12T09:11:08.869Z</time></trkpt><trkpt lat="46.32650862098378" lon="12.233535682128958"><ele>723.0</ele><time>2026-04-12T09:11:09.869Z</time></trkpt><trkpt lat="46.326608896452456" lon="12.233641801128243"><ele>723.0</ele><time>2026-04-12T09:11:10.869Z</time></trkpt><trkpt lat="46.32671593106527" lon="12.233720072453279"><ele>723.0</ele><time>2026-04-12T09:11:11.869Z</time></trkpt><trkpt lat="46.32684171284342" lon="12.233751864215224"><ele>723.0</ele><time>2026-04-12T09:11:12.869Z</time></trkpt><trkpt lat="46.326978477477425" lon="12.23375638851667"><ele>723.0</ele><time>2026-04-12T09:11:13.869Z</time></trkpt><trkpt lat="46.32714563929033" lon="12.233746049730684"><ele>722.0</ele><time>2026-04-12T09:11:14.869Z</time></trkpt><trkpt lat="46.32727408517293" lon="12.233737635602191"><ele>721.0</ele><time>2026-04-12T09:11:15.869Z</time></trkpt><trkpt lat="46.327426930500266" lon="12.23373514297526"><ele>720.0</ele><time>2026-04-12T09:11:16.869Z</time></trkpt><trkpt lat="46.327580911616586" lon="12.233736772496618"><ele>719.0</ele><time>2026-04-12T09:11:17.869Z</time></trkpt><trkpt lat="46.327734681239015" lon="12.233699032057777"><ele>719.0</ele><time>2026-04-12T09:11:18.869Z</time></trkpt><trkpt lat="46.3278760647869" lon="12.233627944141672"><ele>719.0</ele><time>2026-04-12T09:11:19.869Z</time></trkpt><trkpt lat="46.328017859161825" lon="12.233592796008766"><ele>719.0</ele><time>2026-04-12T09:11:20.869Z</time></trkpt><trkpt lat="46.32814427646255" lon="12.23353263360313"><ele>719.0</ele><time>2026-04-12T09:11:21.869Z</time></trkpt><trkpt lat="46.32825015493554" lon="12.233474675959412"><ele>722.75</ele><time>2026-04-12T09:11:22.869Z</time></trkpt><trkpt lat="46.32836462406763" lon="12.233399091836635"><ele>726.5</ele><time>2026-04-12T09:11:23.869Z</time></trkpt><trkpt lat="46.328479013599505" lon="12.233325171173233"><ele>730.25</ele><time>2026-04-12T09:11:24.869Z</time></trkpt><trkpt lat="46.32859809826179" lon="12.233245662257564"><ele>734.0</ele><time>2026-04-12T09:11:25.869Z</time></trkpt><trkpt lat="46.32885794866692" lon="12.23319707758976"><ele>739.5</ele><time>2026-04-12T09:11:27.869Z</time></trkpt><trkpt lat="46.32898919978927" lon="12.233193517752632"><ele>745.0</ele><time>2026-04-12T09:11:28.869Z</time></trkpt><trkpt lat="46.3291181266165" lon="12.233174094066143"><ele>750.5</ele><time>2026-04-12T09:11:29.869Z</time></trkpt><trkpt lat="46.32925438741315" lon="12.233215886028344"><ele>756.0</ele><time>2026-04-12T09:11:30.869Z</time></trkpt><trkpt lat="46.32938518749992" lon="12.233278529816028"><ele>756.0</ele><time>2026-04-12T09:11:31.869Z</time></trkpt><trkpt lat="46.32951328250706" lon="12.233338965682254"><ele>756.0</ele><time>2026-04-12T09:11:32.869Z</time></trkpt><trkpt lat="46.32964709152053" lon="12.233368225092049"><ele>756.0</ele><time>2026-04-12T09:11:33.869Z</time></trkpt><trkpt lat="46.3297831521212" lon="12.233370811774897"><ele>756.0</ele><time>2026-04-12T09:11:34.869Z</time></trkpt><trkpt lat="46.32991658819361" lon="12.233357106986277"><ele>755.0</ele><time>2026-04-12T09:11:35.869Z</time></trkpt><trkpt lat="46.33005483541871" lon="12.233347346531339"><ele>754.0</ele><time>2026-04-12T09:11:36.869Z</time></trkpt><trkpt lat="46.33018184974626" lon="12.233282346432382"><ele>753.0</ele><time>2026-04-12T09:11:37.869Z</time></trkpt><trkpt lat="46.33031988674598" lon="12.233192499141735"><ele>752.0</ele><time>2026-04-12T09:11:38.869Z</time></trkpt><trkpt lat="46.33045956872939" lon="12.233100343386345"><ele>748.3333333333333</ele><time>2026-04-12T09:11:39.869Z</time></trkpt><trkpt lat="46.330602435827615" lon="12.233010931716644"><ele>744.6666666666666</ele><time>2026-04-12T09:11:40.869Z</time></trkpt><trkpt lat="46.330756779627116" lon="12.232941519359876"><ele>741.0</ele><time>2026-04-12T09:11:41.869Z</time></trkpt><trkpt lat="46.330912125092496" lon="12.232861924554106"><ele>741.0</ele><time>2026-04-12T09:11:42.869Z</time></trkpt><trkpt lat="46.33105217338821" lon="12.23279496624072"><ele>741.0</ele><time>2026-04-12T09:11:43.869Z</time></trkpt><trkpt lat="46.33117293187549" lon="12.232727953087327"><ele>741.0</ele><time>2026-04-12T09:11:44.869Z</time></trkpt><trkpt lat="46.3312867283721" lon="12.232650861871262"><ele>741.0</ele><time>2026-04-12T09:11:45.869Z</time></trkpt><trkpt lat="46.33140028566861" lon="12.232603490982523"><ele>745.25</ele><time>2026-04-12T09:11:46.869Z</time></trkpt><trkpt lat="46.331498718451044" lon="12.23256635664603"><ele>749.5</ele><time>2026-04-12T09:11:47.869Z</time></trkpt><trkpt lat="46.331597547947034" lon="12.232583333169451"><ele>753.75</ele><time>2026-04-12T09:11:48.869Z</time></trkpt><trkpt lat="46.33167910593657" lon="12.232603841234344"><ele>758.0</ele><time>2026-04-12T09:11:49.869Z</time></trkpt><trkpt lat="46.33184307407618" lon="12.232647953186627"><ele>758.0</ele><time>2026-04-12T09:11:50.869Z</time></trkpt><trkpt lat="46.3319952180317" lon="12.232679295537128"><ele>758.0</ele><time>2026-04-12T09:11:51.869Z</time></trkpt><trkpt lat="46.33207126197253" lon="12.23267744541432"><ele>758.0</ele><time>2026-04-12T09:11:52.869Z</time></trkpt><trkpt lat="46.33215709904517" lon="12.232686675190681"><ele>758.0</ele><time>2026-04-12T09:11:53.869Z</time></trkpt><trkpt lat="46.33223780849071" lon="12.232708470157629"><ele>758.0</ele><time>2026-04-12T09:11:54.869Z</time></trkpt><trkpt lat="46.33232301514392" lon="12.232719173140529"><ele>759.5</ele><time>2026-04-12T09:11:55.869Z</time></trkpt><trkpt lat="46.33241220169625" lon="12.232729283817424"><ele>761.0</ele><time>2026-04-12T09:11:56.869Z</time></trkpt><trkpt lat="46.33247212346982" lon="12.232664484635215"><ele>762.5</ele><time>2026-04-12T09:11:57.869Z</time></trkpt><trkpt lat="46.33258011976293" lon="12.232530873472584"><ele>764.0</ele><time>2026-04-12T09:11:59.869Z</time></trkpt><trkpt lat="46.33277570569834" lon="12.231746112883691"><ele>758.25</ele><time>2026-04-12T09:12:01.869Z</time></trkpt><trkpt lat="46.33276052385485" lon="12.231454357512275"><ele>752.5</ele><time>2026-04-12T09:12:02.869Z</time></trkpt><trkpt lat="46.33275444097839" lon="12.231288213782952"><ele>746.75</ele><time>2026-04-12T09:12:03.869Z</time></trkpt><trkpt lat="46.332764445154986" lon="12.231142949898166"><ele>741.0</ele><time>2026-04-12T09:12:04.869Z</time></trkpt><trkpt lat="46.33280423396262" lon="12.23101784344988"><ele>741.0</ele><time>2026-04-12T09:12:05.869Z</time></trkpt><trkpt lat="46.332896034446634" lon="12.230923459803531"><ele>741.0</ele><time>2026-04-12T09:12:06.869Z</time></trkpt><trkpt lat="46.33303034814948" lon="12.230796143231922"><ele>741.0</ele><time>2026-04-12T09:12:07.869Z</time></trkpt><trkpt lat="46.33319070314357" lon="12.23070375530545"><ele>741.0</ele><time>2026-04-12T09:12:08.869Z</time></trkpt><trkpt lat="46.33334425494052" lon="12.230573794913898"><ele>743.0</ele><time>2026-04-12T09:12:09.869Z</time></trkpt><trkpt lat="46.3334738728831" lon="12.230452901389583"><ele>745.0</ele><time>2026-04-12T09:12:10.869Z</time></trkpt><trkpt lat="46.3336077736393" lon="12.23034167337578"><ele>747.0</ele><time>2026-04-12T09:12:11.869Z</time></trkpt><trkpt lat="46.333687411984826" lon="12.2302351852421"><ele>749.0</ele><time>2026-04-12T09:12:12.869Z</time></trkpt><trkpt lat="46.333756738561796" lon="12.230196274930975"><ele>761.25</ele><time>2026-04-12T09:12:13.869Z</time></trkpt><trkpt lat="46.33389170633768" lon="12.230197087666301"><ele>773.5</ele><time>2026-04-12T09:12:14.869Z</time></trkpt><trkpt lat="46.33400732290645" lon="12.230182657727177"><ele>785.75</ele><time>2026-04-12T09:12:15.869Z</time></trkpt><trkpt lat="46.33412607279563" lon="12.230173327490407"><ele>798.0</ele><time>2026-04-12T09:12:16.869Z</time></trkpt><trkpt lat="46.3342577739508" lon="12.230156032876272"><ele>798.0</ele><time>2026-04-12T09:12:17.885Z</time></trkpt><trkpt lat="46.33455446925604" lon="12.229988146584695"><ele>798.0</ele><time>2026-04-12T09:12:19.869Z</time></trkpt><trkpt lat="46.334622739607" lon="12.229796747143048"><ele>799.25</ele><time>2026-04-12T09:12:20.869Z</time></trkpt><trkpt lat="46.33463573426989" lon="12.229580025762575"><ele>800.5</ele><time>2026-04-12T09:12:21.869Z</time></trkpt><trkpt lat="46.33469940098649" lon="12.229408413961652"><ele>801.75</ele><time>2026-04-12T09:12:22.869Z</time></trkpt><trkpt lat="46.33479465981285" lon="12.22928293591795"><ele>803.0</ele><time>2026-04-12T09:12:23.869Z</time></trkpt><trkpt lat="46.334917939151275" lon="12.229082711631477"><ele>784.0</ele><time>2026-04-12T09:12:24.869Z</time></trkpt><trkpt lat="46.33504141173626" lon="12.228924313627418"><ele>765.0</ele><time>2026-04-12T09:12:25.869Z</time></trkpt><trkpt lat="46.33517196020083" lon="12.228800538992544"><ele>746.0</ele><time>2026-04-12T09:12:26.869Z</time></trkpt><trkpt lat="46.335292010798334" lon="12.228684308777646"><ele>746.0</ele><time>2026-04-12T09:12:27.869Z</time></trkpt><trkpt lat="46.335401140808905" lon="12.228585520099504"><ele>746.0</ele><time>2026-04-12T09:12:28.869Z</time></trkpt><trkpt lat="46.33553680320744" lon="12.228517496850404"><ele>746.0</ele><time>2026-04-12T09:12:29.869Z</time></trkpt><trkpt lat="46.335663916503115" lon="12.228479596442183"><ele>746.0</ele><time>2026-04-12T09:12:31.869Z</time></trkpt><trkpt lat="46.33614176855092" lon="12.228410236084247"><ele>761.6666666666666</ele><time>2026-04-12T09:12:33.869Z</time></trkpt><trkpt lat="46.33635126206087" lon="12.228386538364134"><ele>777.3333333333333</ele><time>2026-04-12T09:12:34.869Z</time></trkpt><trkpt lat="46.336571109376315" lon="12.228361621925659"><ele>793.0</ele><time>2026-04-12T09:12:35.881Z</time></trkpt><trkpt lat="46.33679105140743" lon="12.228336694750183"><ele>806.5</ele><time>2026-04-12T09:12:36.885Z</time></trkpt><trkpt lat="46.33702249281462" lon="12.22837461809937"><ele>820.0</ele><time>2026-04-12T09:12:37.885Z</time></trkpt><trkpt lat="46.337236392554495" lon="12.228316172668764"><ele>813.6666666666666</ele><time>2026-04-12T09:12:38.886Z</time></trkpt><trkpt lat="46.337384283585784" lon="12.227990571420852"><ele>807.3333333333333</ele><time>2026-04-12T09:12:40.869Z</time></trkpt><trkpt lat="46.33750865533835" lon="12.22787531319381"><ele>801.0</ele><time>2026-04-12T09:12:41.869Z</time></trkpt><trkpt lat="46.33763757113182" lon="12.227719892659803"><ele>801.0</ele><time>2026-04-12T09:12:42.869Z</time></trkpt><trkpt lat="46.337722479277076" lon="12.227568236276893"><ele>801.0</ele><time>2026-04-12T09:12:43.869Z</time></trkpt><trkpt lat="46.337785315941275" lon="12.22736660928974"><ele>801.0</ele><time>2026-04-12T09:12:44.869Z</time></trkpt><trkpt lat="46.33784249992391" lon="12.227187996391098"><ele>801.0</ele><time>2026-04-12T09:12:45.869Z</time></trkpt><trkpt lat="46.33789896401336" lon="12.226948143743437"><ele>801.25</ele><time>2026-04-12T09:12:46.869Z</time></trkpt><trkpt lat="46.33798648084463" lon="12.226747748109684"><ele>801.5</ele><time>2026-04-12T09:12:47.869Z</time></trkpt><trkpt lat="46.33806271373894" lon="12.226582138064853"><ele>801.75</ele><time>2026-04-12T09:12:48.869Z</time></trkpt><trkpt lat="46.33814730896193" lon="12.226436622010935"><ele>802.0</ele><time>2026-04-12T09:12:49.869Z</time></trkpt><trkpt lat="46.33822577683879" lon="12.22631974366025"><ele>802.0</ele><time>2026-04-12T09:12:50.869Z</time></trkpt><trkpt lat="46.3383049538481" lon="12.226233448575053"><ele>802.0</ele><time>2026-04-12T09:12:51.869Z</time></trkpt><trkpt lat="46.33836730259501" lon="12.22614481914894"><ele>802.0</ele><time>2026-04-12T09:12:52.869Z</time></trkpt><trkpt lat="46.33846622852023" lon="12.225985745606302"><ele>802.0</ele><time>2026-04-12T09:12:53.869Z</time></trkpt><trkpt lat="46.33857005643067" lon="12.225854455017588"><ele>802.0</ele><time>2026-04-12T09:12:54.869Z</time></trkpt><trkpt lat="46.33871079750524" lon="12.225750635807291"><ele>802.0</ele><time>2026-04-12T09:12:55.869Z</time></trkpt><trkpt lat="46.33882108947532" lon="12.225672655758132"><ele>802.0</ele><time>2026-04-12T09:12:56.869Z</time></trkpt><trkpt lat="46.33890631239429" lon="12.2255545809944"><ele>802.0</ele><time>2026-04-12T09:12:57.869Z</time></trkpt><trkpt lat="46.33896588307411" lon="12.22539704541147"><ele>805.0</ele><time>2026-04-12T09:12:58.869Z</time></trkpt><trkpt lat="46.33898791692326" lon="12.225211333037057"><ele>808.0</ele><time>2026-04-12T09:12:59.869Z</time></trkpt><trkpt lat="46.33897232360491" lon="12.225017868358908"><ele>811.0</ele><time>2026-04-12T09:13:00.869Z</time></trkpt><trkpt lat="46.33899629287981" lon="12.224881062186059"><ele>814.0</ele><time>2026-04-12T09:13:01.869Z</time></trkpt><trkpt lat="46.339062404078796" lon="12.224755059745672"><ele>814.0</ele><time>2026-04-12T09:13:02.869Z</time></trkpt><trkpt lat="46.339180816156116" lon="12.224676056813525"><ele>814.0</ele><time>2026-04-12T09:13:03.869Z</time></trkpt><trkpt lat="46.339318629037614" lon="12.224583899121125"><ele>814.0</ele><time>2026-04-12T09:13:04.869Z</time></trkpt><trkpt lat="46.33945700390386" lon="12.224478798767358"><ele>814.0</ele><time>2026-04-12T09:13:05.869Z</time></trkpt><trkpt lat="46.33955501537574" lon="12.224299980863936"><ele>814.0</ele><time>2026-04-12T09:13:06.869Z</time></trkpt><trkpt lat="46.339634357476136" lon="12.224071013368892"><ele>814.0</ele><time>2026-04-12T09:13:07.869Z</time></trkpt><trkpt lat="46.339684878247034" lon="12.223803473623219"><ele>814.0</ele><time>2026-04-12T09:13:08.869Z</time></trkpt><trkpt lat="46.33972242893349" lon="12.2235068565115"><ele>824.0</ele><time>2026-04-12T09:13:09.869Z</time></trkpt><trkpt lat="46.339754583859076" lon="12.223184049029772"><ele>834.0</ele><time>2026-04-12T09:13:10.869Z</time></trkpt><trkpt lat="46.33976112748601" lon="12.222816026600013"><ele>834.0</ele><time>2026-04-12T09:13:11.869Z</time></trkpt><trkpt lat="46.33977645501824" lon="12.222438097200019"><ele>834.0</ele><time>2026-04-12T09:13:12.869Z</time></trkpt><trkpt lat="46.33980024942153" lon="12.222026705074232"><ele>833.5</ele><time>2026-04-12T09:13:13.869Z</time></trkpt><trkpt lat="46.339827655276395" lon="12.221644431159502"><ele>833.0</ele><time>2026-04-12T09:13:14.869Z</time></trkpt><trkpt lat="46.33985091510517" lon="12.221307841863164"><ele>835.0</ele><time>2026-04-12T09:13:15.869Z</time></trkpt><trkpt lat="46.33986855063416" lon="12.220998395423146"><ele>837.0</ele><time>2026-04-12T09:13:16.869Z</time></trkpt><trkpt lat="46.33988658247237" lon="12.22070462762223"><ele>839.0</ele><time>2026-04-12T09:13:17.869Z</time></trkpt><trkpt lat="46.33990246500521" lon="12.220451477261479"><ele>839.5</ele><time>2026-04-12T09:13:18.869Z</time></trkpt><trkpt lat="46.33991644528514" lon="12.220230154229071"><ele>840.0</ele><time>2026-04-12T09:13:19.869Z</time></trkpt><trkpt lat="46.339943026809635" lon="12.220024672399813"><ele>840.5</ele><time>2026-04-12T09:13:20.869Z</time></trkpt><trkpt lat="46.33997236594571" lon="12.219827660790283"><ele>841.0</ele><time>2026-04-12T09:13:21.869Z</time></trkpt><trkpt lat="46.34003157307733" lon="12.219610341222266"><ele>839.6666666666666</ele><time>2026-04-12T09:13:22.869Z</time></trkpt><trkpt lat="46.34010942305917" lon="12.219373817363806"><ele>838.3333333333333</ele><time>2026-04-12T09:13:23.869Z</time></trkpt><trkpt lat="46.34019093074719" lon="12.219107430144112"><ele>837.0</ele><time>2026-04-12T09:13:24.869Z</time></trkpt><trkpt lat="46.34028796706503" lon="12.218831756336904"><ele>832.0</ele><time>2026-04-12T09:13:25.869Z</time></trkpt><trkpt lat="46.3403694702651" lon="12.218590082138384"><ele>827.0</ele><time>2026-04-12T09:13:26.869Z</time></trkpt><trkpt lat="46.34044324531062" lon="12.2183718251894"><ele>822.0</ele><time>2026-04-12T09:13:27.869Z</time></trkpt><trkpt lat="46.34050034976415" lon="12.21814990364472"><ele>818.6666666666667</ele><time>2026-04-12T09:13:28.869Z</time></trkpt><trkpt lat="46.340534438092604" lon="12.217893426334976"><ele>815.3333333333334</ele><time>2026-04-12T09:13:29.869Z</time></trkpt><trkpt lat="46.34053920964932" lon="12.217582328539146"><ele>812.0</ele><time>2026-04-12T09:13:30.869Z</time></trkpt><trkpt lat="46.34052978301489" lon="12.217234101991163"><ele>810.0</ele><time>2026-04-12T09:13:31.869Z</time></trkpt><trkpt lat="46.34053524395234" lon="12.216854924363561"><ele>808.0</ele><time>2026-04-12T09:13:32.869Z</time></trkpt><trkpt lat="46.34053801003393" lon="12.216442945005726"><ele>807.5</ele><time>2026-04-12T09:13:33.869Z</time></trkpt><trkpt lat="46.340529209176815" lon="12.216004158501288"><ele>807.0</ele><time>2026-04-12T09:13:34.869Z</time></trkpt><trkpt lat="46.34053704014556" lon="12.215603130830466"><ele>807.0</ele><time>2026-04-12T09:13:35.869Z</time></trkpt><trkpt lat="46.340541514621" lon="12.215241113529386"><ele>807.0</ele><time>2026-04-12T09:13:36.869Z</time></trkpt><trkpt lat="46.3405400562212" lon="12.214894041785241"><ele>805.0</ele><time>2026-04-12T09:13:37.869Z</time></trkpt><trkpt lat="46.34053558073822" lon="12.214569946535416"><ele>803.0</ele><time>2026-04-12T09:13:38.869Z</time></trkpt><trkpt lat="46.34053767835288" lon="12.214277564208063"><ele>801.0</ele><time>2026-04-12T09:13:39.869Z</time></trkpt><trkpt lat="46.34053491826046" lon="12.214036606030653"><ele>800.0</ele><time>2026-04-12T09:13:40.869Z</time></trkpt><trkpt lat="46.34052358809923" lon="12.213827768161764"><ele>799.0</ele><time>2026-04-12T09:13:41.869Z</time></trkpt><trkpt lat="46.340534799475975" lon="12.21364450499451"><ele>798.0</ele><time>2026-04-12T09:13:42.869Z</time></trkpt><trkpt lat="46.34056466605386" lon="12.213462002644235"><ele>797.0</ele><time>2026-04-12T09:13:43.869Z</time></trkpt><trkpt lat="46.340628769573044" lon="12.213257474701546"><ele>805.6666666666667</ele><time>2026-04-12T09:13:44.869Z</time></trkpt><trkpt lat="46.3407037436025" lon="12.213011897026899"><ele>814.3333333333333</ele><time>2026-04-12T09:13:45.869Z</time></trkpt><trkpt lat="46.34076978933336" lon="12.212735915002048"><ele>823.0</ele><time>2026-04-12T09:13:46.869Z</time></trkpt><trkpt lat="46.340817205743434" lon="12.21247531560344"><ele>821.6666666666666</ele><time>2026-04-12T09:13:47.869Z</time></trkpt><trkpt lat="46.34082833032948" lon="12.212206225233238"><ele>820.3333333333333</ele><time>2026-04-12T09:13:48.869Z</time></trkpt><trkpt lat="46.34082116516362" lon="12.211955635927394"><ele>819.0</ele><time>2026-04-12T09:13:49.869Z</time></trkpt><trkpt lat="46.34080527204187" lon="12.211711502276268"><ele>819.0</ele><time>2026-04-12T09:13:50.869Z</time></trkpt><trkpt lat="46.34080130004675" lon="12.211499133582079"><ele>819.0</ele><time>2026-04-12T09:13:51.869Z</time></trkpt><trkpt lat="46.34078390704271" lon="12.211299477199793"><ele>819.0</ele><time>2026-04-12T09:13:52.869Z</time></trkpt><trkpt lat="46.34074140765711" lon="12.211106307430383"><ele>819.0</ele><time>2026-04-12T09:13:53.869Z</time></trkpt><trkpt lat="46.34067099799714" lon="12.21090735004755"><ele>821.25</ele><time>2026-04-12T09:13:54.869Z</time></trkpt><trkpt lat="46.340580759208514" lon="12.210731837236462"><ele>823.5</ele><time>2026-04-12T09:13:55.869Z</time></trkpt><trkpt lat="46.34050282081604" lon="12.210566084636303"><ele>825.75</ele><time>2026-04-12T09:13:56.869Z</time></trkpt><trkpt lat="46.34044040400301" lon="12.21042394984901"><ele>828.0</ele><time>2026-04-12T09:13:57.869Z</time></trkpt><trkpt lat="46.34039927534409" lon="12.210274948877418"><ele>820.0</ele><time>2026-04-12T09:13:58.869Z</time></trkpt><trkpt lat="46.340378746491545" lon="12.210134081066027"><ele>812.0</ele><time>2026-04-12T09:13:59.869Z</time></trkpt><trkpt lat="46.34040187531972" lon="12.209987424875537"><ele>804.0</ele><time>2026-04-12T09:14:00.869Z</time></trkpt><trkpt lat="46.34042112748833" lon="12.209779249629854"><ele>796.0</ele><time>2026-04-12T09:14:01.869Z</time></trkpt><trkpt lat="46.34047512023004" lon="12.209556944955521"><ele>796.0</ele><time>2026-04-12T09:14:02.869Z</time></trkpt><trkpt lat="46.340519138891125" lon="12.209293415934185"><ele>796.0</ele><time>2026-04-12T09:14:03.869Z</time></trkpt><trkpt lat="46.34057364707694" lon="12.208989027878422"><ele>796.0</ele><time>2026-04-12T09:14:04.869Z</time></trkpt><trkpt lat="46.34064266887001" lon="12.208623944923314"><ele>800.5</ele><time>2026-04-12T09:14:05.869Z</time></trkpt><trkpt lat="46.340733894879335" lon="12.208281916763843"><ele>805.0</ele><time>2026-04-12T09:14:06.869Z</time></trkpt><trkpt lat="46.34081526928869" lon="12.20800925924336"><ele>805.0</ele><time>2026-04-12T09:14:07.869Z</time></trkpt><trkpt lat="46.340879671645574" lon="12.207710730945823"><ele>805.0</ele><time>2026-04-12T09:14:08.869Z</time></trkpt><trkpt lat="46.34094205175867" lon="12.207397149805633"><ele>805.0</ele><time>2026-04-12T09:14:09.869Z</time></trkpt><trkpt lat="46.34099381895311" lon="12.207081086184429"><ele>805.3333333333333</ele><time>2026-04-12T09:14:10.869Z</time></trkpt><trkpt lat="46.34104132513856" lon="12.206785177766463"><ele>805.6666666666667</ele><time>2026-04-12T09:14:11.869Z</time></trkpt><trkpt lat="46.341088870870074" lon="12.206517172887033"><ele>806.0</ele><time>2026-04-12T09:14:12.869Z</time></trkpt><trkpt lat="46.34114122645219" lon="12.206270359121307"><ele>807.3333333333334</ele><time>2026-04-12T09:14:13.869Z</time></trkpt><trkpt lat="46.34120591552427" lon="12.206009845019336"><ele>808.6666666666667</ele><time>2026-04-12T09:14:14.869Z</time></trkpt><trkpt lat="46.341279175570946" lon="12.205733494802432"><ele>810.0</ele><time>2026-04-12T09:14:15.869Z</time></trkpt><trkpt lat="46.34135788200442" lon="12.20543659736294"><ele>832.3333333333333</ele><time>2026-04-12T09:14:16.884Z</time></trkpt><trkpt lat="46.341448046239115" lon="12.20517218913994"><ele>854.6666666666666</ele><time>2026-04-12T09:14:17.885Z</time></trkpt><trkpt lat="46.34152765509303" lon="12.204892578712574"><ele>877.0</ele><time>2026-04-12T09:14:18.884Z</time></trkpt><trkpt lat="46.34160946056915" lon="12.204605253150614"><ele>884.5</ele><time>2026-04-12T09:14:19.889Z</time></trkpt><trkpt lat="46.34169262281707" lon="12.204313579690856"><ele>892.0</ele><time>2026-04-12T09:14:20.881Z</time></trkpt><trkpt lat="46.342875980815236" lon="12.199238799523748"><ele>873.0</ele><time>2026-04-12T09:14:37.869Z</time></trkpt><trkpt lat="46.34289767178491" lon="12.199044144117918"><ele>854.0</ele><time>2026-04-12T09:14:38.869Z</time></trkpt><trkpt lat="46.34297330177553" lon="12.198859785648452"><ele>835.0</ele><time>2026-04-12T09:14:39.869Z</time></trkpt><trkpt lat="46.34306235298124" lon="12.1987019972308"><ele>816.0</ele><time>2026-04-12T09:14:40.869Z</time></trkpt><trkpt lat="46.34315260312025" lon="12.198548801056521"><ele>814.0</ele><time>2026-04-12T09:14:41.869Z</time></trkpt><trkpt lat="46.343294905720455" lon="12.198482694860667"><ele>812.0</ele><time>2026-04-12T09:14:42.869Z</time></trkpt><trkpt lat="46.34355550411955" lon="12.19818273437969"><ele>813.6666666666667</ele><time>2026-04-12T09:14:43.87Z</time></trkpt><trkpt lat="46.343704998217504" lon="12.197949762973591"><ele>815.3333333333333</ele><time>2026-04-12T09:14:44.87Z</time></trkpt><trkpt lat="46.343841215737" lon="12.197711938668991"><ele>817.0</ele><time>2026-04-12T09:14:45.87Z</time></trkpt><trkpt lat="46.34397129970683" lon="12.197480023532975"><ele>814.6666666666666</ele><time>2026-04-12T09:14:46.87Z</time></trkpt><trkpt lat="46.34410079592414" lon="12.197283413372551"><ele>812.3333333333333</ele><time>2026-04-12T09:14:47.87Z</time></trkpt><trkpt lat="46.34420110146188" lon="12.197066876573443"><ele>810.0</ele><time>2026-04-12T09:14:48.87Z</time></trkpt><trkpt lat="46.34430744536968" lon="12.196877153870744"><ele>810.0</ele><time>2026-04-12T09:14:49.87Z</time></trkpt><trkpt lat="46.34439804273879" lon="12.196685486949342"><ele>810.0</ele><time>2026-04-12T09:14:50.87Z</time></trkpt><trkpt lat="46.34448626812782" lon="12.196509065632037"><ele>810.0</ele><time>2026-04-12T09:14:51.87Z</time></trkpt><trkpt lat="46.34456958284612" lon="12.19634898331666"><ele>810.0</ele><time>2026-04-12T09:14:52.87Z</time></trkpt><trkpt lat="46.34464269034104" lon="12.196200952846688"><ele>811.0</ele><time>2026-04-12T09:14:53.87Z</time></trkpt><trkpt lat="46.34472202662818" lon="12.19606662498307"><ele>812.0</ele><time>2026-04-12T09:14:54.87Z</time></trkpt><trkpt lat="46.344801633787974" lon="12.195947037912509"><ele>813.0</ele><time>2026-04-12T09:14:55.87Z</time></trkpt><trkpt lat="46.344886235473865" lon="12.195855244186795"><ele>814.0</ele><time>2026-04-12T09:14:56.87Z</time></trkpt><trkpt lat="46.34497270552007" lon="12.195759782445569"><ele>813.9999999999999</ele><time>2026-04-12T09:14:57.87Z</time></trkpt><trkpt lat="46.34503925087097" lon="12.195696693225111"><ele>814.0</ele><time>2026-04-12T09:14:58.87Z</time></trkpt><trkpt lat="46.3450896129684" lon="12.195610275162784"><ele>814.0</ele><time>2026-04-12T09:15:00.87Z</time></trkpt><trkpt lat="46.345054134402545" lon="12.195471650898432"><ele>814.0</ele><time>2026-04-12T09:18:01.871Z</time></trkpt><trkpt lat="46.34511042448056" lon="12.19553214427771"><ele>813.9999999999999</ele><time>2026-04-12T09:18:11.871Z</time></trkpt><trkpt lat="46.34514977980929" lon="12.195383628221208"><ele>814.0</ele><time>2026-04-12T09:18:46.871Z</time></trkpt><trkpt lat="46.34512284761746" lon="12.195472560837128"><ele>812.3333333333333</ele><time>2026-04-12T09:19:00.872Z</time></trkpt><trkpt lat="46.345132971028825" lon="12.195350412809844"><ele>810.6666666666666</ele><time>2026-04-12T09:20:44.872Z</time></trkpt><trkpt lat="46.34516033466568" lon="12.195242819213236"><ele>809.0</ele><time>2026-04-12T09:20:48.872Z</time></trkpt><trkpt lat="46.34520686279945" lon="12.195131733623276"><ele>807.3333333333333</ele><time>2026-04-12T09:20:49.872Z</time></trkpt><trkpt lat="46.345272365455166" lon="12.19500423951839"><ele>805.6666666666666</ele><time>2026-04-12T09:20:50.872Z</time></trkpt><trkpt lat="46.34532402119883" lon="12.19491885296551"><ele>804.0</ele><time>2026-04-12T09:20:51.872Z</time></trkpt><trkpt lat="46.345372961128064" lon="12.194823291721171"><ele>804.0</ele><time>2026-04-12T09:20:52.872Z</time></trkpt><trkpt lat="46.345427549674895" lon="12.194699245278596"><ele>804.0</ele><time>2026-04-12T09:20:53.872Z</time></trkpt><trkpt lat="46.345489111388446" lon="12.19453029213068"><ele>804.0</ele><time>2026-04-12T09:20:54.872Z</time></trkpt><trkpt lat="46.34556847906442" lon="12.194309982540018"><ele>804.0</ele><time>2026-04-12T09:20:55.872Z</time></trkpt><trkpt lat="46.34564036253004" lon="12.194081167123283"><ele>806.5</ele><time>2026-04-12T09:20:56.872Z</time></trkpt><trkpt lat="46.34568955196258" lon="12.193893275606658"><ele>809.0</ele><time>2026-04-12T09:20:57.872Z</time></trkpt><trkpt lat="46.34574623712153" lon="12.193718345916954"><ele>811.5</ele><time>2026-04-12T09:20:58.872Z</time></trkpt><trkpt lat="46.345792072204254" lon="12.193534976547422"><ele>814.0</ele><time>2026-04-12T09:20:59.872Z</time></trkpt><trkpt lat="46.34583787638446" lon="12.193333515737615"><ele>812.5</ele><time>2026-04-12T09:21:00.872Z</time></trkpt><trkpt lat="46.34586913138341" lon="12.193129424374545"><ele>811.0</ele><time>2026-04-12T09:21:01.873Z</time></trkpt><trkpt lat="46.34587369064966" lon="12.192943052870467"><ele>809.5</ele><time>2026-04-12T09:21:02.873Z</time></trkpt><trkpt lat="46.345858104167235" lon="12.192733236998329"><ele>808.0</ele><time>2026-04-12T09:21:03.873Z</time></trkpt><trkpt lat="46.34583093797077" lon="12.192496259081299"><ele>808.3333333333333</ele><time>2026-04-12T09:21:04.873Z</time></trkpt><trkpt lat="46.34580703920389" lon="12.192241373581938"><ele>808.6666666666667</ele><time>2026-04-12T09:21:05.873Z</time></trkpt><trkpt lat="46.34577942429409" lon="12.191944884125814"><ele>809.0</ele><time>2026-04-12T09:21:06.873Z</time></trkpt><trkpt lat="46.34575072214309" lon="12.191628380796269"><ele>813.5</ele><time>2026-04-12T09:21:07.873Z</time></trkpt><trkpt lat="46.345713999179374" lon="12.191285660249584"><ele>818.0</ele><time>2026-04-12T09:21:08.873Z</time></trkpt><trkpt lat="46.34569934048404" lon="12.190955938028518"><ele>818.0</ele><time>2026-04-12T09:21:09.873Z</time></trkpt><trkpt lat="46.345704173360595" lon="12.190692627549055"><ele>818.0</ele><time>2026-04-12T09:21:10.873Z</time></trkpt><trkpt lat="46.34567706798973" lon="12.19046657194"><ele>818.0</ele><time>2026-04-12T09:21:11.873Z</time></trkpt><trkpt lat="46.34565312250581" lon="12.190243732605918"><ele>819.0</ele><time>2026-04-12T09:21:12.873Z</time></trkpt><trkpt lat="46.34563157800556" lon="12.190043236812565"><ele>820.0</ele><time>2026-04-12T09:21:13.873Z</time></trkpt><trkpt lat="46.34560650138408" lon="12.189821480706128"><ele>821.0</ele><time>2026-04-12T09:21:14.873Z</time></trkpt><trkpt lat="46.34559305782071" lon="12.189561028363146"><ele>821.3333333333334</ele><time>2026-04-12T09:21:15.873Z</time></trkpt><trkpt lat="46.34560683348032" lon="12.18923848058372"><ele>821.6666666666667</ele><time>2026-04-12T09:21:16.873Z</time></trkpt><trkpt lat="46.34563420488811" lon="12.188939515678117"><ele>822.0</ele><time>2026-04-12T09:21:17.873Z</time></trkpt><trkpt lat="46.345660762469095" lon="12.188649521291778"><ele>823.0</ele><time>2026-04-12T09:21:18.873Z</time></trkpt><trkpt lat="46.34569815795692" lon="12.188246782534149"><ele>824.0</ele><time>2026-04-12T09:21:19.873Z</time></trkpt><trkpt lat="46.34572487713355" lon="12.187953315106608"><ele>824.3333333333334</ele><time>2026-04-12T09:21:20.873Z</time></trkpt><trkpt lat="46.34581404510031" lon="12.187702398950814"><ele>824.6666666666667</ele><time>2026-04-12T09:21:21.873Z</time></trkpt><trkpt lat="46.34583042257378" lon="12.187452645917048"><ele>825.0</ele><time>2026-04-12T09:21:22.873Z</time></trkpt><trkpt lat="46.345838587234496" lon="12.187237820757696"><ele>826.0</ele><time>2026-04-12T09:21:23.873Z</time></trkpt><trkpt lat="46.34583564200563" lon="12.18704437270599"><ele>827.0</ele><time>2026-04-12T09:21:24.873Z</time></trkpt><trkpt lat="46.34577110879998" lon="12.186878587051874"><ele>828.0</ele><time>2026-04-12T09:21:25.873Z</time></trkpt><trkpt lat="46.34576364258187" lon="12.186710367705775"><ele>829.0</ele><time>2026-04-12T09:21:26.873Z</time></trkpt><trkpt lat="46.34567791748945" lon="12.186546588788593"><ele>831.6666666666666</ele><time>2026-04-12T09:21:27.873Z</time></trkpt><trkpt lat="46.34562709046739" lon="12.186351255792227"><ele>834.3333333333333</ele><time>2026-04-12T09:21:28.873Z</time></trkpt><trkpt lat="46.34553820532452" lon="12.186087644856368"><ele>837.0</ele><time>2026-04-12T09:21:29.873Z</time></trkpt><trkpt lat="46.345427285901955" lon="12.18583403593534"><ele>837.0</ele><time>2026-04-12T09:21:30.873Z</time></trkpt><trkpt lat="46.34530558120679" lon="12.185554806865333"><ele>837.0</ele><time>2026-04-12T09:21:31.873Z</time></trkpt><trkpt lat="46.344949735771955" lon="12.184676957600505"><ele>837.0</ele><time>2026-04-12T09:21:32.873Z</time></trkpt><trkpt lat="46.344831999283315" lon="12.184418151359562"><ele>837.0</ele><time>2026-04-12T09:21:33.873Z</time></trkpt><trkpt lat="46.344727742349875" lon="12.18418345559527"><ele>837.0</ele><time>2026-04-12T09:21:34.873Z</time></trkpt><trkpt lat="46.34463515972816" lon="12.183974693287137"><ele>838.0</ele><time>2026-04-12T09:21:35.873Z</time></trkpt><trkpt lat="46.344554681019005" lon="12.18379746906163"><ele>839.0</ele><time>2026-04-12T09:21:36.873Z</time></trkpt><trkpt lat="46.34449758377452" lon="12.183641923192258"><ele>840.0</ele><time>2026-04-12T09:21:37.873Z</time></trkpt><trkpt lat="46.344495537124516" lon="12.183481840170456"><ele>841.0</ele><time>2026-04-12T09:21:38.873Z</time></trkpt><trkpt lat="46.34452513536628" lon="12.183355161614452"><ele>841.0</ele><time>2026-04-12T09:21:39.873Z</time></trkpt><trkpt lat="46.34460729786271" lon="12.183266214471622"><ele>841.0</ele><time>2026-04-12T09:21:40.873Z</time></trkpt><trkpt lat="46.34471087500887" lon="12.183169845696217"><ele>841.0</ele><time>2026-04-12T09:21:41.873Z</time></trkpt><trkpt lat="46.344839469340265" lon="12.183039587992798"><ele>841.0</ele><time>2026-04-12T09:21:42.873Z</time></trkpt><trkpt lat="46.34500107221138" lon="12.182859035860972"><ele>838.3333333333333</ele><time>2026-04-12T09:21:43.873Z</time></trkpt><trkpt lat="46.345166598578565" lon="12.182663927438183"><ele>835.6666666666667</ele><time>2026-04-12T09:21:44.873Z</time></trkpt><trkpt lat="46.3453409134631" lon="12.182455161851404"><ele>833.0</ele><time>2026-04-12T09:21:45.873Z</time></trkpt><trkpt lat="46.34551081408597" lon="12.182253976650754"><ele>835.3333333333334</ele><time>2026-04-12T09:21:46.873Z</time></trkpt><trkpt lat="46.34566711663436" lon="12.182076160072807"><ele>837.6666666666667</ele><time>2026-04-12T09:21:47.873Z</time></trkpt><trkpt lat="46.34581262627942" lon="12.181912108069454"><ele>840.0</ele><time>2026-04-12T09:21:48.873Z</time></trkpt><trkpt lat="46.3459438676744" lon="12.181737626792692"><ele>840.0</ele><time>2026-04-12T09:21:49.873Z</time></trkpt><trkpt lat="46.34606892083193" lon="12.181596338926408"><ele>840.0</ele><time>2026-04-12T09:21:50.873Z</time></trkpt><trkpt lat="46.34617292181891" lon="12.181431007531"><ele>840.0</ele><time>2026-04-12T09:21:51.873Z</time></trkpt><trkpt lat="46.346280654934475" lon="12.181279963087382"><ele>838.0</ele><time>2026-04-12T09:21:52.873Z</time></trkpt><trkpt lat="46.34637796274133" lon="12.18112994465728"><ele>836.0</ele><time>2026-04-12T09:21:53.873Z</time></trkpt><trkpt lat="46.346451569084095" lon="12.180969897150874"><ele>834.0</ele><time>2026-04-12T09:21:54.873Z</time></trkpt><trkpt lat="46.346479237854226" lon="12.180778382512758"><ele>832.0</ele><time>2026-04-12T09:21:55.873Z</time></trkpt><trkpt lat="46.34647016516721" lon="12.180561942205593"><ele>832.3333333333333</ele><time>2026-04-12T09:21:56.873Z</time></trkpt><trkpt lat="46.346405246803066" lon="12.18035162365656"><ele>832.6666666666667</ele><time>2026-04-12T09:21:57.873Z</time></trkpt><trkpt lat="46.34633814903929" lon="12.180061541737386"><ele>833.0</ele><time>2026-04-12T09:21:58.873Z</time></trkpt><trkpt lat="46.34629483111167" lon="12.179784571147144"><ele>834.6666666666667</ele><time>2026-04-12T09:21:59.873Z</time></trkpt><trkpt lat="46.34623311507436" lon="12.179496450364669"><ele>836.3333333333333</ele><time>2026-04-12T09:22:00.873Z</time></trkpt><trkpt lat="46.34619684266716" lon="12.17920612845189"><ele>838.0</ele><time>2026-04-12T09:22:01.873Z</time></trkpt><trkpt lat="46.34613933012293" lon="12.1789349618232"><ele>838.0</ele><time>2026-04-12T09:22:02.873Z</time></trkpt><trkpt lat="46.346101201106094" lon="12.178692034579472"><ele>838.0</ele><time>2026-04-12T09:22:03.873Z</time></trkpt><trkpt lat="46.34605124723336" lon="12.178472552302031"><ele>838.0</ele><time>2026-04-12T09:22:04.873Z</time></trkpt><trkpt lat="46.346019578532506" lon="12.178257887873912"><ele>838.0</ele><time>2026-04-12T09:22:05.873Z</time></trkpt><trkpt lat="46.3459882578038" lon="12.178056954028069"><ele>838.0</ele><time>2026-04-12T09:22:06.873Z</time></trkpt><trkpt lat="46.34597545505913" lon="12.17787110431"><ele>838.0</ele><time>2026-04-12T09:22:07.873Z</time></trkpt><trkpt lat="46.345965542409395" lon="12.177723851497252"><ele>838.0</ele><time>2026-04-12T09:22:08.873Z</time></trkpt><trkpt lat="46.34595966334924" lon="12.177611880346735"><ele>837.9999999999999</ele><time>2026-04-12T09:22:09.873Z</time></trkpt><trkpt lat="46.34596783917752" lon="12.177513733038785"><ele>838.0</ele><time>2026-04-12T09:22:11.873Z</time></trkpt><trkpt lat="46.34599434654879" lon="12.177611678674703"><ele>838.0</ele><time>2026-04-12T09:25:17.875Z</time></trkpt><trkpt lat="46.345999033313824" lon="12.17770626776864"><ele>838.0</ele><time>2026-04-12T09:25:25.875Z</time></trkpt><trkpt lat="46.34600690036346" lon="12.17781403768068"><ele>838.0</ele><time>2026-04-12T09:25:32.875Z</time></trkpt><trkpt lat="46.346035718300804" lon="12.177900020309105"><ele>837.9999999999999</ele><time>2026-04-12T09:25:38.875Z</time></trkpt><trkpt lat="46.3460110517308" lon="12.178040332007642"><ele>838.0</ele><time>2026-04-12T09:26:00.875Z</time></trkpt><trkpt lat="46.34600671208274" lon="12.17814658999513"><ele>838.0</ele><time>2026-04-12T09:26:16.875Z</time></trkpt><trkpt lat="46.346032331802604" lon="12.178241650323093"><ele>838.0</ele><time>2026-04-12T09:26:24.875Z</time></trkpt><trkpt lat="46.34598052922105" lon="12.177931522294598"><ele>838.0</ele><time>2026-04-12T09:26:43.889Z</time></trkpt><trkpt lat="46.345869136784515" lon="12.178256485419048"><ele>838.0</ele><time>2026-04-12T09:26:45.875Z</time></trkpt><trkpt lat="46.345831606588824" lon="12.178336158778214"><ele>838.0</ele><time>2026-04-12T09:26:53.887Z</time></trkpt><trkpt lat="46.34596464903445" lon="12.178119771639352"><ele>838.0</ele><time>2026-04-12T09:27:02.676Z</time></trkpt><trkpt lat="46.346047856197174" lon="12.17803841632147"><ele>838.0</ele><time>2026-04-12T09:29:16.634Z</time></trkpt><trkpt lat="46.34601598459691" lon="12.177945823658378"><ele>838.0</ele><time>2026-04-12T09:29:18.961Z</time></trkpt><trkpt lat="46.34592321130432" lon="12.17774080979696"><ele>837.9999999999999</ele><time>2026-04-12T09:32:17.285Z</time></trkpt><trkpt lat="46.34597855986845" lon="12.177939946740969"><ele>838.0</ele><time>2026-04-12T09:32:40.29Z</time></trkpt><trkpt lat="46.34599077023522" lon="12.178044871746152"><ele>838.0</ele><time>2026-04-12T09:33:44.875Z</time></trkpt><trkpt lat="46.346018351120094" lon="12.1781286525367"><ele>838.0</ele><time>2026-04-12T09:34:29.879Z</time></trkpt><trkpt lat="46.345994948882016" lon="12.178035262478344"><ele>837.9999999999999</ele><time>2026-04-12T09:37:41.88Z</time></trkpt><trkpt lat="46.346055651013906" lon="12.177999417880205"><ele>838.0</ele><time>2026-04-12T09:37:46.88Z</time></trkpt><trkpt lat="46.34608605358479" lon="12.1779107103251"><ele>837.9999999999999</ele><time>2026-04-12T09:38:01.881Z</time></trkpt><trkpt lat="46.34601518666262" lon="12.177847917053777"><ele>838.0</ele><time>2026-04-12T09:38:09.881Z</time></trkpt><trkpt lat="46.34602771431992" lon="12.177755894654087"><ele>838.0</ele><time>2026-04-12T09:38:19.881Z</time></trkpt><trkpt lat="46.3460469483865" lon="12.177646446968229"><ele>838.0</ele><time>2026-04-12T09:38:25.881Z</time></trkpt><trkpt lat="46.34603823840325" lon="12.177551909186228"><ele>838.0</ele><time>2026-04-12T09:38:37.881Z</time></trkpt><trkpt lat="46.345976437850105" lon="12.177527408266691"><ele>837.9999999999999</ele><time>2026-04-12T09:40:40.881Z</time></trkpt><trkpt lat="46.34594411015231" lon="12.177444223361782"><ele>838.0</ele><time>2026-04-12T09:45:14.881Z</time></trkpt><trkpt lat="46.34593075130436" lon="12.177335432138191"><ele>838.5</ele><time>2026-04-12T09:45:15.881Z</time></trkpt><trkpt lat="46.34592250819373" lon="12.177195354951344"><ele>839.0</ele><time>2026-04-12T09:45:16.881Z</time></trkpt><trkpt lat="46.34592252796682" lon="12.17706515044467"><ele>839.5</ele><time>2026-04-12T09:45:17.881Z</time></trkpt><trkpt lat="46.345939975783686" lon="12.176892081624237"><ele>840.0</ele><time>2026-04-12T09:45:18.881Z</time></trkpt><trkpt lat="46.345966506812395" lon="12.17666242773618"><ele>841.0</ele><time>2026-04-12T09:45:19.881Z</time></trkpt><trkpt lat="46.34600244289501" lon="12.176383489852377"><ele>842.0</ele><time>2026-04-12T09:45:20.881Z</time></trkpt><trkpt lat="46.34604070143658" lon="12.17611493658091"><ele>843.0</ele><time>2026-04-12T09:45:21.881Z</time></trkpt><trkpt lat="46.34606040063102" lon="12.175902351274384"><ele>843.0</ele><time>2026-04-12T09:45:22.881Z</time></trkpt><trkpt lat="46.34611041398937" lon="12.175699942662625"><ele>843.0</ele><time>2026-04-12T09:45:23.881Z</time></trkpt><trkpt lat="46.346139922748414" lon="12.175487281496112"><ele>843.0</ele><time>2026-04-12T09:45:24.881Z</time></trkpt><trkpt lat="46.34616561640487" lon="12.175291166698107"><ele>843.0</ele><time>2026-04-12T09:45:25.881Z</time></trkpt><trkpt lat="46.34618094505401" lon="12.175107599984202"><ele>843.4</ele><time>2026-04-12T09:45:26.881Z</time></trkpt><trkpt lat="46.346185998005296" lon="12.174942990451187"><ele>843.8</ele><time>2026-04-12T09:45:27.881Z</time></trkpt><trkpt lat="46.346161085429" lon="12.17480194775129"><ele>844.2</ele><time>2026-04-12T09:45:28.881Z</time></trkpt><trkpt lat="46.346145449999504" lon="12.174668024316055"><ele>844.6</ele><time>2026-04-12T09:45:29.881Z</time></trkpt><trkpt lat="46.346111677861494" lon="12.174513656616224"><ele>845.0</ele><time>2026-04-12T09:45:30.881Z</time></trkpt><trkpt lat="46.346092979325356" lon="12.174353982201817"><ele>846.5</ele><time>2026-04-12T09:45:31.881Z</time></trkpt><trkpt lat="46.34605976520875" lon="12.17417639746147"><ele>848.0</ele><time>2026-04-12T09:45:32.881Z</time></trkpt><trkpt lat="46.346021126923134" lon="12.174003115787492"><ele>849.5</ele><time>2026-04-12T09:45:33.881Z</time></trkpt><trkpt lat="46.34600719002467" lon="12.173800136817547"><ele>851.0</ele><time>2026-04-12T09:45:34.881Z</time></trkpt><trkpt lat="46.34600140507047" lon="12.173600455906314"><ele>852.0</ele><time>2026-04-12T09:45:35.881Z</time></trkpt><trkpt lat="46.346088294220564" lon="12.173671738049848"><ele>853.0</ele><time>2026-04-12T09:45:36.881Z</time></trkpt><trkpt lat="46.34610143198006" lon="12.173457925685806"><ele>854.0</ele><time>2026-04-12T09:45:37.881Z</time></trkpt><trkpt lat="46.3461293470794" lon="12.173205060471357"><ele>855.0</ele><time>2026-04-12T09:45:38.881Z</time></trkpt><trkpt lat="46.34615889266897" lon="12.172932471799443"><ele>855.3333333333333</ele><time>2026-04-12T09:45:39.881Z</time></trkpt><trkpt lat="46.34619246205049" lon="12.17263011021909"><ele>855.6666666666666</ele><time>2026-04-12T09:45:40.881Z</time></trkpt><trkpt lat="46.346207996216165" lon="12.172360118886614"><ele>856.0</ele><time>2026-04-12T09:45:41.881Z</time></trkpt><trkpt lat="46.34622919483722" lon="12.172133926156176"><ele>856.0</ele><time>2026-04-12T09:45:42.881Z</time></trkpt><trkpt lat="46.34624182552451" lon="12.171917847711107"><ele>856.0</ele><time>2026-04-12T09:45:43.881Z</time></trkpt><trkpt lat="46.34624436652883" lon="12.171722944107795"><ele>856.0</ele><time>2026-04-12T09:45:44.881Z</time></trkpt><trkpt lat="46.34626407145813" lon="12.171526534108757"><ele>856.0</ele><time>2026-04-12T09:45:45.881Z</time></trkpt><trkpt lat="46.34627595035326" lon="12.171302012502059"><ele>855.6666666666666</ele><time>2026-04-12T09:45:46.881Z</time></trkpt><trkpt lat="46.34629483613496" lon="12.171108727137453"><ele>855.3333333333333</ele><time>2026-04-12T09:45:47.881Z</time></trkpt><trkpt lat="46.346342002888925" lon="12.170902738576741"><ele>855.0</ele><time>2026-04-12T09:45:48.881Z</time></trkpt><trkpt lat="46.34639975534916" lon="12.170663968077662"><ele>857.25</ele><time>2026-04-12T09:45:49.881Z</time></trkpt><trkpt lat="46.346468783639494" lon="12.170456120627495"><ele>859.5</ele><time>2026-04-12T09:45:50.881Z</time></trkpt><trkpt lat="46.34654095748362" lon="12.170287331928874"><ele>861.75</ele><time>2026-04-12T09:45:51.881Z</time></trkpt><trkpt lat="46.34659736208146" lon="12.170132368003296"><ele>864.0</ele><time>2026-04-12T09:45:52.881Z</time></trkpt><trkpt lat="46.346643387347875" lon="12.170016685643983"><ele>864.0</ele><time>2026-04-12T09:45:53.881Z</time></trkpt><trkpt lat="46.34668321235913" lon="12.169922456419332"><ele>864.0</ele><time>2026-04-12T09:45:54.881Z</time></trkpt><trkpt lat="46.34676770280941" lon="12.169837200660753"><ele>864.0</ele><time>2026-04-12T09:45:55.881Z</time></trkpt><trkpt lat="46.34688562795725" lon="12.169789460045642"><ele>864.0</ele><time>2026-04-12T09:45:56.881Z</time></trkpt><trkpt lat="46.347032191174705" lon="12.169748472964546"><ele>865.6666666666667</ele><time>2026-04-12T09:45:57.881Z</time></trkpt><trkpt lat="46.347187616377376" lon="12.169642859276367"><ele>867.3333333333334</ele><time>2026-04-12T09:45:58.881Z</time></trkpt><trkpt lat="46.3474057463695" lon="12.16952837614313"><ele>869.0</ele><time>2026-04-12T09:45:59.881Z</time></trkpt><trkpt lat="46.347585736676294" lon="12.169392922222375"><ele>869.0</ele><time>2026-04-12T09:46:00.881Z</time></trkpt><trkpt lat="46.34772778044079" lon="12.169278767211262"><ele>869.0</ele><time>2026-04-12T09:46:01.881Z</time></trkpt><trkpt lat="46.347866960345065" lon="12.169142621222854"><ele>869.0</ele><time>2026-04-12T09:46:02.881Z</time></trkpt><trkpt lat="46.347981362697595" lon="12.16901345500089"><ele>876.0</ele><time>2026-04-12T09:46:03.881Z</time></trkpt><trkpt lat="46.34808308401486" lon="12.168854816410155"><ele>883.0</ele><time>2026-04-12T09:46:04.881Z</time></trkpt><trkpt lat="46.34816208100798" lon="12.168667669198753"><ele>890.0</ele><time>2026-04-12T09:46:05.881Z</time></trkpt><trkpt lat="46.34821616374392" lon="12.168449009904577"><ele>890.0</ele><time>2026-04-12T09:46:06.881Z</time></trkpt><trkpt lat="46.348278986466426" lon="12.168205968037098"><ele>890.0</ele><time>2026-04-12T09:46:07.881Z</time></trkpt><trkpt lat="46.348287045938356" lon="12.16791881123257"><ele>890.0</ele><time>2026-04-12T09:46:08.881Z</time></trkpt><trkpt lat="46.34830932437888" lon="12.167643595352404"><ele>889.3333333333334</ele><time>2026-04-12T09:46:09.881Z</time></trkpt><trkpt lat="46.34834932927935" lon="12.167387901178628"><ele>888.6666666666667</ele><time>2026-04-12T09:46:10.881Z</time></trkpt><trkpt lat="46.34840400993367" lon="12.167129408416875"><ele>888.0</ele><time>2026-04-12T09:46:11.881Z</time></trkpt><trkpt lat="46.348477796278445" lon="12.166881534192276"><ele>885.0</ele><time>2026-04-12T09:46:12.881Z</time></trkpt><trkpt lat="46.34853711418759" lon="12.166623797540442"><ele>882.0</ele><time>2026-04-12T09:46:13.881Z</time></trkpt><trkpt lat="46.34858522664831" lon="12.16638967770142"><ele>879.0</ele><time>2026-04-12T09:46:14.881Z</time></trkpt><trkpt lat="46.34864300697019" lon="12.16613846217884"><ele>879.0</ele><time>2026-04-12T09:46:15.881Z</time></trkpt><trkpt lat="46.34872071167584" lon="12.165897146201601"><ele>879.0</ele><time>2026-04-12T09:46:16.881Z</time></trkpt><trkpt lat="46.34880807568967" lon="12.165638696936501"><ele>879.0</ele><time>2026-04-12T09:46:17.881Z</time></trkpt><trkpt lat="46.3488925318039" lon="12.165408764683162"><ele>882.0</ele><time>2026-04-12T09:46:18.881Z</time></trkpt><trkpt lat="46.3489809719188" lon="12.16518470397089"><ele>885.0</ele><time>2026-04-12T09:46:19.881Z</time></trkpt><trkpt lat="46.349052101562066" lon="12.164962685473226"><ele>888.0</ele><time>2026-04-12T09:46:20.881Z</time></trkpt><trkpt lat="46.34914986453057" lon="12.164762399354276"><ele>888.0</ele><time>2026-04-12T09:46:21.881Z</time></trkpt><trkpt lat="46.349268402727475" lon="12.164580199335692"><ele>888.0</ele><time>2026-04-12T09:46:22.881Z</time></trkpt><trkpt lat="46.349394369602976" lon="12.16439571178496"><ele>888.0</ele><time>2026-04-12T09:46:23.881Z</time></trkpt><trkpt lat="46.34953168628721" lon="12.164223800122752"><ele>888.0</ele><time>2026-04-12T09:46:24.881Z</time></trkpt><trkpt lat="46.34967491772679" lon="12.164082339817606"><ele>888.0</ele><time>2026-04-12T09:46:25.881Z</time></trkpt><trkpt lat="46.349819517575696" lon="12.163925759128828"><ele>888.0</ele><time>2026-04-12T09:46:26.881Z</time></trkpt><trkpt lat="46.349963940909994" lon="12.163767218636988"><ele>893.6666666666667</ele><time>2026-04-12T09:46:27.881Z</time></trkpt><trkpt lat="46.35010678149842" lon="12.163590405136262"><ele>899.3333333333334</ele><time>2026-04-12T09:46:28.881Z</time></trkpt><trkpt lat="46.35024073508851" lon="12.163397075792478"><ele>905.0</ele><time>2026-04-12T09:46:29.881Z</time></trkpt><trkpt lat="46.35036045927831" lon="12.163201750733204"><ele>907.0</ele><time>2026-04-12T09:46:30.881Z</time></trkpt><trkpt lat="46.35046658098472" lon="12.163014144696287"><ele>909.0</ele><time>2026-04-12T09:46:31.881Z</time></trkpt><trkpt lat="46.35058151579894" lon="12.162861307195676"><ele>911.0</ele><time>2026-04-12T09:46:32.881Z</time></trkpt><trkpt lat="46.35067811118207" lon="12.162741313831937"><ele>911.0</ele><time>2026-04-12T09:46:33.881Z</time></trkpt><trkpt lat="46.350724935368696" lon="12.162571627546447"><ele>911.0</ele><time>2026-04-12T09:46:34.881Z</time></trkpt><trkpt lat="46.35073425103094" lon="12.162445430264475"><ele>911.0</ele><time>2026-04-12T09:46:35.881Z</time></trkpt><trkpt lat="46.35078748239483" lon="12.162241771423032"><ele>911.0</ele><time>2026-04-12T09:46:36.881Z</time></trkpt><trkpt lat="46.35082966976298" lon="12.161881386884202"><ele>909.3333333333334</ele><time>2026-04-12T09:46:37.881Z</time></trkpt><trkpt lat="46.350825454698814" lon="12.161632911170154"><ele>907.6666666666667</ele><time>2026-04-12T09:46:38.881Z</time></trkpt><trkpt lat="46.35081185542041" lon="12.161368679090824"><ele>906.0</ele><time>2026-04-12T09:46:39.881Z</time></trkpt><trkpt lat="46.350785324151104" lon="12.161198253645516"><ele>906.0</ele><time>2026-04-12T09:46:40.881Z</time></trkpt><trkpt lat="46.35077124302636" lon="12.161057359855599"><ele>906.0</ele><time>2026-04-12T09:46:41.881Z</time></trkpt><trkpt lat="46.35078508365995" lon="12.160884884250976"><ele>906.0</ele><time>2026-04-12T09:46:42.881Z</time></trkpt><trkpt lat="46.35082877896118" lon="12.16068158901605"><ele>906.0</ele><time>2026-04-12T09:46:43.881Z</time></trkpt><trkpt lat="46.35092763181707" lon="12.16045603133829"><ele>907.3333333333333</ele><time>2026-04-12T09:46:44.881Z</time></trkpt><trkpt lat="46.35101918115223" lon="12.160218047129817"><ele>908.6666666666666</ele><time>2026-04-12T09:46:45.881Z</time></trkpt><trkpt lat="46.35110323014984" lon="12.159993916530077"><ele>910.0</ele><time>2026-04-12T09:46:46.881Z</time></trkpt><trkpt lat="46.35115492456467" lon="12.159881358249136"><ele>914.6666666666666</ele><time>2026-04-12T09:46:47.881Z</time></trkpt><trkpt lat="46.351213376277684" lon="12.159691055445432"><ele>919.3333333333333</ele><time>2026-04-12T09:46:48.881Z</time></trkpt><trkpt lat="46.35128799767785" lon="12.15952699847331"><ele>924.0</ele><time>2026-04-12T09:46:49.881Z</time></trkpt><trkpt lat="46.35140312290303" lon="12.159300320423954"><ele>923.5</ele><time>2026-04-12T09:46:50.881Z</time></trkpt><trkpt lat="46.35148061551817" lon="12.159107818402063"><ele>923.0</ele><time>2026-04-12T09:46:51.881Z</time></trkpt><trkpt lat="46.35154518429184" lon="12.158933384734553"><ele>922.5</ele><time>2026-04-12T09:46:52.881Z</time></trkpt><trkpt lat="46.35157858544637" lon="12.158732498456896"><ele>922.0</ele><time>2026-04-12T09:46:53.881Z</time></trkpt><trkpt lat="46.35157712389871" lon="12.158514760862989"><ele>922.0</ele><time>2026-04-12T09:46:54.881Z</time></trkpt><trkpt lat="46.35153972158999" lon="12.158299155915893"><ele>922.0</ele><time>2026-04-12T09:46:55.881Z</time></trkpt><trkpt lat="46.35148841945298" lon="12.158087799647227"><ele>922.0</ele><time>2026-04-12T09:46:56.881Z</time></trkpt><trkpt lat="46.351452349044976" lon="12.157883997591123"><ele>923.0</ele><time>2026-04-12T09:46:57.881Z</time></trkpt><trkpt lat="46.351454882435384" lon="12.15765151569585"><ele>924.0</ele><time>2026-04-12T09:46:58.881Z</time></trkpt><trkpt lat="46.35150766331749" lon="12.157480055023612"><ele>925.0</ele><time>2026-04-12T09:46:59.881Z</time></trkpt><trkpt lat="46.3515566468165" lon="12.157412446434781"><ele>926.0</ele><time>2026-04-12T09:47:00.881Z</time></trkpt><trkpt lat="46.35164118761076" lon="12.15727719061813"><ele>926.0</ele><time>2026-04-12T09:47:01.881Z</time></trkpt><trkpt lat="46.35176155796974" lon="12.157152830277546"><ele>926.0</ele><time>2026-04-12T09:47:02.881Z</time></trkpt><trkpt lat="46.351886574247764" lon="12.15703839128623"><ele>926.0</ele><time>2026-04-12T09:47:03.881Z</time></trkpt><trkpt lat="46.35199665942964" lon="12.156934288713597"><ele>926.0</ele><time>2026-04-12T09:47:04.881Z</time></trkpt><trkpt lat="46.35210428788715" lon="12.156813930944745"><ele>926.0</ele><time>2026-04-12T09:47:05.881Z</time></trkpt><trkpt lat="46.35220326978718" lon="12.156672007450654"><ele>926.0</ele><time>2026-04-12T09:47:06.881Z</time></trkpt><trkpt lat="46.352274157262215" lon="12.156464765634222"><ele>926.0</ele><time>2026-04-12T09:47:07.881Z</time></trkpt><trkpt lat="46.352310823497476" lon="12.156216395187087"><ele>925.3333333333334</ele><time>2026-04-12T09:47:08.881Z</time></trkpt><trkpt lat="46.35237686699799" lon="12.155985234506934"><ele>924.6666666666667</ele><time>2026-04-12T09:47:09.881Z</time></trkpt><trkpt lat="46.3523547797804" lon="12.155794901330756"><ele>924.0</ele><time>2026-04-12T09:47:10.881Z</time></trkpt><trkpt lat="46.35235251792333" lon="12.1555685509614"><ele>926.0</ele><time>2026-04-12T09:47:11.881Z</time></trkpt><trkpt lat="46.35234557167539" lon="12.15536377432036"><ele>928.0</ele><time>2026-04-12T09:47:12.881Z</time></trkpt><trkpt lat="46.35234582172516" lon="12.155175981566188"><ele>930.0</ele><time>2026-04-12T09:47:13.881Z</time></trkpt><trkpt lat="46.35231326409737" lon="12.15493521428569"><ele>932.0</ele><time>2026-04-12T09:47:14.881Z</time></trkpt><trkpt lat="46.352287500717736" lon="12.154733686513268"><ele>934.0</ele><time>2026-04-12T09:47:15.881Z</time></trkpt><trkpt lat="46.352212822470456" lon="12.154534891370357"><ele>936.0</ele><time>2026-04-12T09:47:16.881Z</time></trkpt><trkpt lat="46.35219407449372" lon="12.154342535095484"><ele>938.0</ele><time>2026-04-12T09:47:17.881Z</time></trkpt><trkpt lat="46.352182632713884" lon="12.154175702877819"><ele>940.0</ele><time>2026-04-12T09:47:18.881Z</time></trkpt><trkpt lat="46.352211817562484" lon="12.154011317299501"><ele>936.0</ele><time>2026-04-12T09:47:19.881Z</time></trkpt><trkpt lat="46.35226743477214" lon="12.153869792204945"><ele>932.0</ele><time>2026-04-12T09:47:20.881Z</time></trkpt><trkpt lat="46.35235502544528" lon="12.15376298531224"><ele>928.0</ele><time>2026-04-12T09:47:21.881Z</time></trkpt><trkpt lat="46.352453647546824" lon="12.1536412250843"><ele>924.0</ele><time>2026-04-12T09:47:22.881Z</time></trkpt><trkpt lat="46.352568282728825" lon="12.153484261253249"><ele>924.0</ele><time>2026-04-12T09:47:23.881Z</time></trkpt><trkpt lat="46.35267998675336" lon="12.153341399576387"><ele>924.0</ele><time>2026-04-12T09:47:24.881Z</time></trkpt><trkpt lat="46.352794463781386" lon="12.153165394524548"><ele>924.0</ele><time>2026-04-12T09:47:25.881Z</time></trkpt><trkpt lat="46.35291414181531" lon="12.152993618671909"><ele>929.0</ele><time>2026-04-12T09:47:26.881Z</time></trkpt><trkpt lat="46.353039666951574" lon="12.152777535805926"><ele>934.0</ele><time>2026-04-12T09:47:27.881Z</time></trkpt><trkpt lat="46.35311584696345" lon="12.152536556933008"><ele>939.0</ele><time>2026-04-12T09:47:28.881Z</time></trkpt><trkpt lat="46.3531900162359" lon="12.15229308661251"><ele>939.0</ele><time>2026-04-12T09:47:29.881Z</time></trkpt><trkpt lat="46.35323935321354" lon="12.152041752924431"><ele>939.0</ele><time>2026-04-12T09:47:30.881Z</time></trkpt><trkpt lat="46.35326100785267" lon="12.151779396302187"><ele>939.0</ele><time>2026-04-12T09:47:31.881Z</time></trkpt><trkpt lat="46.353273903105375" lon="12.151496389801927"><ele>938.3333333333333</ele><time>2026-04-12T09:47:32.881Z</time></trkpt><trkpt lat="46.35329241586803" lon="12.151210626463346"><ele>937.6666666666666</ele><time>2026-04-12T09:47:33.881Z</time></trkpt><trkpt lat="46.35331813590243" lon="12.15093733253741"><ele>937.0</ele><time>2026-04-12T09:47:34.881Z</time></trkpt><trkpt lat="46.35333752387818" lon="12.150683470213883"><ele>936.75</ele><time>2026-04-12T09:47:35.881Z</time></trkpt><trkpt lat="46.35337436289772" lon="12.150454578213392"><ele>936.5</ele><time>2026-04-12T09:47:36.881Z</time></trkpt><trkpt lat="46.35341118167204" lon="12.1502382051567"><ele>936.25</ele><time>2026-04-12T09:47:37.881Z</time></trkpt><trkpt lat="46.353458128896186" lon="12.15005716673932"><ele>936.0</ele><time>2026-04-12T09:47:38.881Z</time></trkpt><trkpt lat="46.353499155041305" lon="12.149839759362905"><ele>936.0</ele><time>2026-04-12T09:47:39.881Z</time></trkpt><trkpt lat="46.35352870063137" lon="12.149624075785917"><ele>936.0</ele><time>2026-04-12T09:47:40.881Z</time></trkpt><trkpt lat="46.35353488397018" lon="12.149432500015317"><ele>936.0</ele><time>2026-04-12T09:47:41.881Z</time></trkpt><trkpt lat="46.353503818312724" lon="12.149239158603235"><ele>936.0</ele><time>2026-04-12T09:47:42.881Z</time></trkpt><trkpt lat="46.35344162695062" lon="12.149067517235212"><ele>936.75</ele><time>2026-04-12T09:47:43.881Z</time></trkpt><trkpt lat="46.3534070959997" lon="12.148950760646343"><ele>937.5</ele><time>2026-04-12T09:47:44.881Z</time></trkpt><trkpt lat="46.35336504476312" lon="12.148810774938267"><ele>938.25</ele><time>2026-04-12T09:47:45.881Z</time></trkpt><trkpt lat="46.35332018237216" lon="12.14855825818759"><ele>939.0</ele><time>2026-04-12T09:47:46.881Z</time></trkpt><trkpt lat="46.35330688974717" lon="12.1483540297884"><ele>935.6666666666667</ele><time>2026-04-12T09:47:47.881Z</time></trkpt><trkpt lat="46.353315385182675" lon="12.148148805319215"><ele>932.3333333333334</ele><time>2026-04-12T09:47:48.881Z</time></trkpt><trkpt lat="46.35341971858663" lon="12.14794781310836"><ele>929.0</ele><time>2026-04-12T09:47:49.881Z</time></trkpt><trkpt lat="46.35345943852302" lon="12.14774484969045"><ele>929.0</ele><time>2026-04-12T09:47:50.881Z</time></trkpt><trkpt lat="46.353529571545735" lon="12.147540312038013"><ele>929.0</ele><time>2026-04-12T09:47:51.881Z</time></trkpt><trkpt lat="46.35361547308694" lon="12.147368517647143"><ele>929.0</ele><time>2026-04-12T09:47:52.881Z</time></trkpt><trkpt lat="46.353713649017415" lon="12.147209474615835"><ele>930.0</ele><time>2026-04-12T09:47:53.881Z</time></trkpt><trkpt lat="46.353805879742296" lon="12.147038413660932"><ele>931.0</ele><time>2026-04-12T09:47:54.881Z</time></trkpt><trkpt lat="46.35391215327518" lon="12.146872182209531"><ele>932.0</ele><time>2026-04-12T09:47:55.881Z</time></trkpt><trkpt lat="46.354020736818455" lon="12.146688984426575"><ele>930.3333333333334</ele><time>2026-04-12T09:47:56.881Z</time></trkpt><trkpt lat="46.354120379266774" lon="12.14652393074469"><ele>928.6666666666667</ele><time>2026-04-12T09:47:57.881Z</time></trkpt><trkpt lat="46.35418093868257" lon="12.146374414905598"><ele>927.0</ele><time>2026-04-12T09:47:58.881Z</time></trkpt><trkpt lat="46.354419684414935" lon="12.146032104568759"><ele>927.0</ele><time>2026-04-12T09:48:00.881Z</time></trkpt><trkpt lat="46.3545088891305" lon="12.145868135192018"><ele>927.0</ele><time>2026-04-12T09:48:01.881Z</time></trkpt><trkpt lat="46.35459387547593" lon="12.145702871078766"><ele>927.0</ele><time>2026-04-12T09:48:02.881Z</time></trkpt><trkpt lat="46.35469845247908" lon="12.145550695679635"><ele>927.0</ele><time>2026-04-12T09:48:03.881Z</time></trkpt><trkpt lat="46.35479809141943" lon="12.145390289894461"><ele>930.3333333333333</ele><time>2026-04-12T09:48:04.881Z</time></trkpt><trkpt lat="46.35489955297051" lon="12.14521760386016"><ele>933.6666666666666</ele><time>2026-04-12T09:48:05.881Z</time></trkpt><trkpt lat="46.355029321481595" lon="12.145065939951792"><ele>937.0</ele><time>2026-04-12T09:48:06.881Z</time></trkpt><trkpt lat="46.355178913198735" lon="12.144949959736616"><ele>938.25</ele><time>2026-04-12T09:48:07.881Z</time></trkpt><trkpt lat="46.355323387746495" lon="12.144862627396028"><ele>939.5</ele><time>2026-04-12T09:48:08.881Z</time></trkpt><trkpt lat="46.355457881813045" lon="12.144850357455677"><ele>940.75</ele><time>2026-04-12T09:48:09.881Z</time></trkpt><trkpt lat="46.35560586567683" lon="12.144824438382583"><ele>942.0</ele><time>2026-04-12T09:48:10.881Z</time></trkpt><trkpt lat="46.35576672585025" lon="12.144797226863485"><ele>942.0</ele><time>2026-04-12T09:48:11.881Z</time></trkpt><trkpt lat="46.355929484399375" lon="12.144749478832258"><ele>942.0</ele><time>2026-04-12T09:48:12.881Z</time></trkpt><trkpt lat="46.35610474413384" lon="12.144751341106684"><ele>942.0</ele><time>2026-04-12T09:48:13.881Z</time></trkpt><trkpt lat="46.356282030672546" lon="12.14473303035194"><ele>943.6666666666667</ele><time>2026-04-12T09:48:14.881Z</time></trkpt><trkpt lat="46.35646252181908" lon="12.144699880627304"><ele>945.3333333333334</ele><time>2026-04-12T09:48:15.881Z</time></trkpt><trkpt lat="46.35663434336416" lon="12.144723406507852"><ele>947.0</ele><time>2026-04-12T09:48:16.881Z</time></trkpt><trkpt lat="46.35681817425796" lon="12.144745949003083"><ele>947.0</ele><time>2026-04-12T09:48:17.881Z</time></trkpt><trkpt lat="46.35700415108896" lon="12.144769046449769"><ele>947.0</ele><time>2026-04-12T09:48:18.881Z</time></trkpt><trkpt lat="46.35718805227817" lon="12.144768962863926"><ele>947.0</ele><time>2026-04-12T09:48:19.881Z</time></trkpt><trkpt lat="46.35735960941209" lon="12.144796822803617"><ele>948.0</ele><time>2026-04-12T09:48:20.881Z</time></trkpt><trkpt lat="46.35751393415231" lon="12.14481453375995"><ele>949.0</ele><time>2026-04-12T09:48:21.881Z</time></trkpt><trkpt lat="46.35765113002743" lon="12.144808838870974"><ele>950.0</ele><time>2026-04-12T09:48:22.881Z</time></trkpt><trkpt lat="46.35776745516945" lon="12.144765069375627"><ele>951.0</ele><time>2026-04-12T09:48:23.881Z</time></trkpt><trkpt lat="46.35783591696411" lon="12.14463968974471"><ele>951.0</ele><time>2026-04-12T09:48:24.881Z</time></trkpt><trkpt lat="46.3578615922822" lon="12.144473923408787"><ele>951.0</ele><time>2026-04-12T09:48:25.881Z</time></trkpt><trkpt lat="46.35787976995026" lon="12.144290450157534"><ele>951.0</ele><time>2026-04-12T09:48:26.881Z</time></trkpt><trkpt lat="46.35790636784363" lon="12.144103456888445"><ele>951.0</ele><time>2026-04-12T09:48:27.881Z</time></trkpt><trkpt lat="46.357914357205026" lon="12.143894169402376"><ele>954.5</ele><time>2026-04-12T09:48:28.881Z</time></trkpt><trkpt lat="46.35792923228843" lon="12.14367692002821"><ele>958.0</ele><time>2026-04-12T09:48:29.881Z</time></trkpt><trkpt lat="46.35794330343274" lon="12.143491503005993"><ele>961.5</ele><time>2026-04-12T09:48:30.881Z</time></trkpt><trkpt lat="46.35798325204246" lon="12.143342720965038"><ele>965.0</ele><time>2026-04-12T09:48:31.882Z</time></trkpt><trkpt lat="46.358050439291894" lon="12.14317875218477"><ele>968.0</ele><time>2026-04-12T09:48:32.882Z</time></trkpt><trkpt lat="46.35815646229378" lon="12.143053357302554"><ele>971.0</ele><time>2026-04-12T09:48:33.882Z</time></trkpt><trkpt lat="46.35828449568923" lon="12.142924742274174"><ele>974.0</ele><time>2026-04-12T09:48:34.882Z</time></trkpt><trkpt lat="46.35841982690564" lon="12.142785275529574"><ele>974.0</ele><time>2026-04-12T09:48:35.882Z</time></trkpt><trkpt lat="46.35854794653928" lon="12.14262723789925"><ele>974.0</ele><time>2026-04-12T09:48:36.882Z</time></trkpt><trkpt lat="46.3586921220168" lon="12.142467090710523"><ele>974.0</ele><time>2026-04-12T09:48:37.882Z</time></trkpt><trkpt lat="46.35882959147423" lon="12.14233568136548"><ele>973.25</ele><time>2026-04-12T09:48:38.882Z</time></trkpt><trkpt lat="46.35895843938057" lon="12.142240332872708"><ele>972.5</ele><time>2026-04-12T09:48:39.882Z</time></trkpt><trkpt lat="46.35909525733249" lon="12.142202842691143"><ele>971.75</ele><time>2026-04-12T09:48:40.882Z</time></trkpt><trkpt lat="46.35924449134757" lon="12.142136434339502"><ele>971.0</ele><time>2026-04-12T09:48:41.882Z</time></trkpt><trkpt lat="46.359387540809735" lon="12.142077372370668"><ele>971.0</ele><time>2026-04-12T09:48:42.882Z</time></trkpt><trkpt lat="46.35952458943556" lon="12.14197953323336"><ele>971.0</ele><time>2026-04-12T09:48:43.882Z</time></trkpt><trkpt lat="46.35965558909441" lon="12.141843261356037"><ele>971.0</ele><time>2026-04-12T09:48:44.882Z</time></trkpt><trkpt lat="46.359760739928085" lon="12.141668312685677"><ele>972.6666666666667</ele><time>2026-04-12T09:48:45.882Z</time></trkpt><trkpt lat="46.35986395900452" lon="12.141481852295122"><ele>974.3333333333333</ele><time>2026-04-12T09:48:46.882Z</time></trkpt><trkpt lat="46.35997784848906" lon="12.141317140013207"><ele>976.0</ele><time>2026-04-12T09:48:47.882Z</time></trkpt><trkpt lat="46.3600780462683" lon="12.141164580177419"><ele>976.0</ele><time>2026-04-12T09:48:48.882Z</time></trkpt><trkpt lat="46.360149115378555" lon="12.141018129962445"><ele>976.0</ele><time>2026-04-12T09:48:49.882Z</time></trkpt><trkpt lat="46.36024848454111" lon="12.140924292085511"><ele>976.0</ele><time>2026-04-12T09:48:50.882Z</time></trkpt><trkpt lat="46.360363949883244" lon="12.140850695360658"><ele>976.0</ele><time>2026-04-12T09:48:51.882Z</time></trkpt><trkpt lat="46.360493807927234" lon="12.140894862554541"><ele>978.8</ele><time>2026-04-12T09:48:52.882Z</time></trkpt><trkpt lat="46.36063582593572" lon="12.140876321136087"><ele>981.5999999999999</ele><time>2026-04-12T09:48:53.882Z</time></trkpt><trkpt lat="46.36076097447721" lon="12.140910183951"><ele>984.4</ele><time>2026-04-12T09:48:54.882Z</time></trkpt><trkpt lat="46.3608128555492" lon="12.140854802206904"><ele>987.2</ele><time>2026-04-12T09:48:55.882Z</time></trkpt><trkpt lat="46.36086048272833" lon="12.140792530838821"><ele>990.0</ele><time>2026-04-12T09:48:56.882Z</time></trkpt><trkpt lat="46.36093750737138" lon="12.140707439690193"><ele>990.0</ele><time>2026-04-12T09:48:57.882Z</time></trkpt><trkpt lat="46.361013126617785" lon="12.140618063808155"><ele>990.0</ele><time>2026-04-12T09:48:58.882Z</time></trkpt><trkpt lat="46.361131645930776" lon="12.14046017796744"><ele>990.0</ele><time>2026-04-12T09:48:59.882Z</time></trkpt><trkpt lat="46.36130856658365" lon="12.140177433479344"><ele>992.75</ele><time>2026-04-12T09:49:00.882Z</time></trkpt><trkpt lat="46.36143276205825" lon="12.1399722716022"><ele>995.5</ele><time>2026-04-12T09:49:01.882Z</time></trkpt><trkpt lat="46.36152535662167" lon="12.139864658435545"><ele>998.25</ele><time>2026-04-12T09:49:02.882Z</time></trkpt><trkpt lat="46.361629671861365" lon="12.139804610295299"><ele>1001.0</ele><time>2026-04-12T09:49:03.882Z</time></trkpt><trkpt lat="46.36177869541453" lon="12.139763994755752"><ele>1001.0</ele><time>2026-04-12T09:49:04.882Z</time></trkpt><trkpt lat="46.36192836102324" lon="12.139712648420671"><ele>1001.0</ele><time>2026-04-12T09:49:05.882Z</time></trkpt><trkpt lat="46.362057092082985" lon="12.139690568064063"><ele>1001.0</ele><time>2026-04-12T09:49:06.882Z</time></trkpt><trkpt lat="46.36217836433445" lon="12.139605183816956"><ele>1001.0</ele><time>2026-04-12T09:49:07.882Z</time></trkpt><trkpt lat="46.36229879166759" lon="12.139591319807222"><ele>1003.5</ele><time>2026-04-12T09:49:08.882Z</time></trkpt><trkpt lat="46.36241284770348" lon="12.139659479331637"><ele>1006.0</ele><time>2026-04-12T09:49:09.882Z</time></trkpt><trkpt lat="46.36252000699596" lon="12.139739254724814"><ele>1008.5</ele><time>2026-04-12T09:49:10.882Z</time></trkpt><trkpt lat="46.36268857676367" lon="12.139829897191555"><ele>1011.0</ele><time>2026-04-12T09:49:11.882Z</time></trkpt><trkpt lat="46.36285810935296" lon="12.13984478950293"><ele>1011.0</ele><time>2026-04-12T09:49:12.882Z</time></trkpt><trkpt lat="46.362987736289305" lon="12.139814062527282"><ele>1011.0</ele><time>2026-04-12T09:49:13.882Z</time></trkpt><trkpt lat="46.363128365711795" lon="12.139836364548472"><ele>1011.0</ele><time>2026-04-12T09:49:14.882Z</time></trkpt><trkpt lat="46.36325024756475" lon="12.139921967205709"><ele>1011.0</ele><time>2026-04-12T09:49:15.882Z</time></trkpt><trkpt lat="46.36340255375133" lon="12.140061186972213"><ele>1014.0</ele><time>2026-04-12T09:49:16.882Z</time></trkpt><trkpt lat="46.36354979046075" lon="12.140146238837234"><ele>1017.0</ele><time>2026-04-12T09:49:17.882Z</time></trkpt><trkpt lat="46.363688117655286" lon="12.140191471562177"><ele>1020.0</ele><time>2026-04-12T09:49:18.882Z</time></trkpt><trkpt lat="46.36382931098256" lon="12.140220491560282"><ele>1023.0</ele><time>2026-04-12T09:49:19.882Z</time></trkpt><trkpt lat="46.36398884594388" lon="12.140195031525531"><ele>1023.0</ele><time>2026-04-12T09:49:20.882Z</time></trkpt><trkpt lat="46.36415080319851" lon="12.140142299593702"><ele>1023.0</ele><time>2026-04-12T09:49:21.882Z</time></trkpt><trkpt lat="46.36432103485039" lon="12.140130812796906"><ele>1023.0</ele><time>2026-04-12T09:49:22.882Z</time></trkpt><trkpt lat="46.36448321632652" lon="12.140101939812949"><ele>1023.0</ele><time>2026-04-12T09:49:23.882Z</time></trkpt><trkpt lat="46.36462898395192" lon="12.140060785347359"><ele>1023.0</ele><time>2026-04-12T09:49:24.882Z</time></trkpt><trkpt lat="46.36475537485352" lon="12.140035961535265"><ele>1023.0</ele><time>2026-04-12T09:49:25.882Z</time></trkpt><trkpt lat="46.36487753716616" lon="12.14006437755653"><ele>1023.0</ele><time>2026-04-12T09:49:26.882Z</time></trkpt><trkpt lat="46.36495379428927" lon="12.140145646547525"><ele>1024.2</ele><time>2026-04-12T09:49:27.882Z</time></trkpt><trkpt lat="46.36506623013305" lon="12.140210561916675"><ele>1025.4</ele><time>2026-04-12T09:49:28.882Z</time></trkpt><trkpt lat="46.36515367274806" lon="12.140264960117422"><ele>1026.6000000000001</ele><time>2026-04-12T09:49:29.882Z</time></trkpt><trkpt lat="46.36522645608589" lon="12.140326375048923"><ele>1027.8</ele><time>2026-04-12T09:49:30.882Z</time></trkpt><trkpt lat="46.365291288833134" lon="12.140413225477204"><ele>1029.0</ele><time>2026-04-12T09:49:31.882Z</time></trkpt><trkpt lat="46.36530586533942" lon="12.140534671835379"><ele>1029.0</ele><time>2026-04-12T09:49:32.882Z</time></trkpt><trkpt lat="46.365269002418266" lon="12.140643068854914"><ele>1029.0</ele><time>2026-04-12T09:49:33.882Z</time></trkpt><trkpt lat="46.365179412000245" lon="12.140714453358369"><ele>1029.0</ele><time>2026-04-12T09:49:34.882Z</time></trkpt><trkpt lat="46.365074187784984" lon="12.140722936183543"><ele>1029.0</ele><time>2026-04-12T09:49:35.882Z</time></trkpt><trkpt lat="46.36496688290472" lon="12.14077628578303"><ele>1029.0</ele><time>2026-04-12T09:49:36.882Z</time></trkpt><trkpt lat="46.36485364188935" lon="12.140800652993288"><ele>1031.4</ele><time>2026-04-12T09:49:37.882Z</time></trkpt><trkpt lat="46.364755838807895" lon="12.14086008332927"><ele>1033.8000000000002</ele><time>2026-04-12T09:49:38.882Z</time></trkpt><trkpt lat="46.36469576376106" lon="12.140959475471275"><ele>1036.1999999999998</ele><time>2026-04-12T09:49:39.882Z</time></trkpt><trkpt lat="46.36467696999661" lon="12.141084199197103"><ele>1038.6</ele><time>2026-04-12T09:49:40.882Z</time></trkpt><trkpt lat="46.36469308769201" lon="12.141225154674302"><ele>1041.0</ele><time>2026-04-12T09:49:41.882Z</time></trkpt><trkpt lat="46.364751196016115" lon="12.141354693221444"><ele>1041.0</ele><time>2026-04-12T09:49:42.882Z</time></trkpt><trkpt lat="46.36484050395273" lon="12.141441387840663"><ele>1041.0</ele><time>2026-04-12T09:49:43.882Z</time></trkpt><trkpt lat="46.36493195160278" lon="12.141430543502068"><ele>1041.0</ele><time>2026-04-12T09:49:44.882Z</time></trkpt><trkpt lat="46.365050679377156" lon="12.141414492757525"><ele>1041.0</ele><time>2026-04-12T09:49:45.882Z</time></trkpt><trkpt lat="46.36519243864642" lon="12.141366650126704"><ele>1041.0</ele><time>2026-04-12T09:49:46.882Z</time></trkpt><trkpt lat="46.36533730668344" lon="12.141313997079756"><ele>1041.0</ele><time>2026-04-12T09:49:47.882Z</time></trkpt><trkpt lat="46.36549038409122" lon="12.141258127805127"><ele>1041.0</ele><time>2026-04-12T09:49:48.882Z</time></trkpt><trkpt lat="46.36562906455118" lon="12.141207513128311"><ele>1044.75</ele><time>2026-04-12T09:49:49.882Z</time></trkpt><trkpt lat="46.365755687480856" lon="12.141161298972781"><ele>1048.5</ele><time>2026-04-12T09:49:50.882Z</time></trkpt><trkpt lat="46.36588123291578" lon="12.141115848990488"><ele>1052.25</ele><time>2026-04-12T09:49:51.882Z</time></trkpt><trkpt lat="46.366009030029616" lon="12.141071966407976"><ele>1056.0</ele><time>2026-04-12T09:49:52.882Z</time></trkpt><trkpt lat="46.36615060691494" lon="12.141028769274964"><ele>1056.0</ele><time>2026-04-12T09:49:53.882Z</time></trkpt><trkpt lat="46.36629071858231" lon="12.140985836360594"><ele>1056.0</ele><time>2026-04-12T09:49:54.882Z</time></trkpt><trkpt lat="46.36643092599102" lon="12.141034486382456"><ele>1056.0</ele><time>2026-04-12T09:49:55.882Z</time></trkpt><trkpt lat="46.36660375130495" lon="12.141087605522339"><ele>1058.6666666666667</ele><time>2026-04-12T09:49:56.882Z</time></trkpt><trkpt lat="46.36677244004853" lon="12.141193321756719"><ele>1061.3333333333335</ele><time>2026-04-12T09:49:57.882Z</time></trkpt><trkpt lat="46.36690880960914" lon="12.141262084110952"><ele>1064.0</ele><time>2026-04-12T09:49:58.882Z</time></trkpt><trkpt lat="46.36704315262913" lon="12.141293552453462"><ele>1064.0</ele><time>2026-04-12T09:49:59.882Z</time></trkpt><trkpt lat="46.36716636241587" lon="12.141277266185698"><ele>1064.0</ele><time>2026-04-12T09:50:00.882Z</time></trkpt><trkpt lat="46.36732450398631" lon="12.141230872838738"><ele>1064.0</ele><time>2026-04-12T09:50:01.882Z</time></trkpt><trkpt lat="46.36750734662926" lon="12.141165985711202"><ele>1063.25</ele><time>2026-04-12T09:50:02.882Z</time></trkpt><trkpt lat="46.36768862779561" lon="12.141121241783114"><ele>1062.5</ele><time>2026-04-12T09:50:03.882Z</time></trkpt><trkpt lat="46.367814326379886" lon="12.141088685455323"><ele>1061.75</ele><time>2026-04-12T09:50:04.882Z</time></trkpt><trkpt lat="46.36789289827226" lon="12.141085259193051"><ele>1061.0</ele><time>2026-04-12T09:50:05.882Z</time></trkpt><trkpt lat="46.368003143121854" lon="12.141045666832422"><ele>1064.75</ele><time>2026-04-12T09:50:06.882Z</time></trkpt><trkpt lat="46.36810761781679" lon="12.141021387092295"><ele>1068.5</ele><time>2026-04-12T09:50:07.882Z</time></trkpt><trkpt lat="46.36820246429337" lon="12.141056761788084"><ele>1072.25</ele><time>2026-04-12T09:50:08.882Z</time></trkpt><trkpt lat="46.36839233169478" lon="12.141136153265961"><ele>1076.0</ele><time>2026-04-12T09:50:09.882Z</time></trkpt><trkpt lat="46.36851946238319" lon="12.141111373141024"><ele>1076.0</ele><time>2026-04-12T09:50:10.882Z</time></trkpt><trkpt lat="46.3686466433454" lon="12.141025266233898"><ele>1076.0</ele><time>2026-04-12T09:50:11.882Z</time></trkpt><trkpt lat="46.36873385281449" lon="12.14091622824839"><ele>1076.0</ele><time>2026-04-12T09:50:12.882Z</time></trkpt><trkpt lat="46.36883739781734" lon="12.140783448511618"><ele>1076.0</ele><time>2026-04-12T09:50:13.882Z</time></trkpt><trkpt lat="46.36897183427417" lon="12.140688280686744"><ele>1081.0</ele><time>2026-04-12T09:50:14.882Z</time></trkpt><trkpt lat="46.36914266931175" lon="12.140510254824207"><ele>1086.0</ele><time>2026-04-12T09:50:15.882Z</time></trkpt><trkpt lat="46.36923865218557" lon="12.140385594404487"><ele>1091.0</ele><time>2026-04-12T09:50:16.882Z</time></trkpt><trkpt lat="46.36930483426741" lon="12.140219707136191"><ele>1091.0</ele><time>2026-04-12T09:50:17.882Z</time></trkpt><trkpt lat="46.36935783098464" lon="12.140033222803353"><ele>1091.0</ele><time>2026-04-12T09:50:18.882Z</time></trkpt><trkpt lat="46.369412100179936" lon="12.13985990490422"><ele>1091.0</ele><time>2026-04-12T09:50:19.882Z</time></trkpt><trkpt lat="46.36950656680539" lon="12.139717644191467"><ele>1091.0</ele><time>2026-04-12T09:50:20.882Z</time></trkpt><trkpt lat="46.36960791812247" lon="12.13958132458267"><ele>1094.0</ele><time>2026-04-12T09:50:21.882Z</time></trkpt><trkpt lat="46.36969950192429" lon="12.139461977022902"><ele>1097.0</ele><time>2026-04-12T09:50:22.882Z</time></trkpt><trkpt lat="46.369794097129265" lon="12.139345402100405"><ele>1100.0</ele><time>2026-04-12T09:50:23.882Z</time></trkpt><trkpt lat="46.36987450385668" lon="12.139236089259674"><ele>1103.0</ele><time>2026-04-12T09:50:24.882Z</time></trkpt><trkpt lat="46.370009406456646" lon="12.138939943474533"><ele>1103.0</ele><time>2026-04-12T09:50:25.882Z</time></trkpt><trkpt lat="46.370105730332526" lon="12.1388571175248"><ele>1103.0</ele><time>2026-04-12T09:50:26.882Z</time></trkpt><trkpt lat="46.37023390068224" lon="12.138771856956224"><ele>1103.0</ele><time>2026-04-12T09:50:27.882Z</time></trkpt><trkpt lat="46.37036726783443" lon="12.138645079553875"><ele>1103.0</ele><time>2026-04-12T09:50:28.882Z</time></trkpt><trkpt lat="46.370502980187034" lon="12.138498984542425"><ele>1107.3333333333335</ele><time>2026-04-12T09:50:29.882Z</time></trkpt><trkpt lat="46.37064157281045" lon="12.138344638847235"><ele>1111.6666666666667</ele><time>2026-04-12T09:50:30.882Z</time></trkpt><trkpt lat="46.37078520145951" lon="12.138214118891542"><ele>1116.0</ele><time>2026-04-12T09:50:31.882Z</time></trkpt><trkpt lat="46.370918128152084" lon="12.138102147672994"><ele>1116.0</ele><time>2026-04-12T09:50:32.882Z</time></trkpt><trkpt lat="46.3710341702946" lon="12.137993756322121"><ele>1116.0</ele><time>2026-04-12T09:50:33.882Z</time></trkpt><trkpt lat="46.37113798492243" lon="12.137907441331864"><ele>1116.0</ele><time>2026-04-12T09:50:34.882Z</time></trkpt><trkpt lat="46.37123362544586" lon="12.137829252189308"><ele>1116.0</ele><time>2026-04-12T09:50:35.882Z</time></trkpt><trkpt lat="46.37131449912017" lon="12.137744037759473"><ele>1118.75</ele><time>2026-04-12T09:50:36.882Z</time></trkpt><trkpt lat="46.371431924961065" lon="12.137663555415644"><ele>1121.5</ele><time>2026-04-12T09:50:37.883Z</time></trkpt><trkpt lat="46.37152052481553" lon="12.137633935640295"><ele>1124.25</ele><time>2026-04-12T09:50:38.883Z</time></trkpt><trkpt lat="46.371633883416884" lon="12.13772385308969"><ele>1127.0</ele><time>2026-04-12T09:50:39.883Z</time></trkpt><trkpt lat="46.371756604859286" lon="12.137775593931318"><ele>1127.0</ele><time>2026-04-12T09:50:40.883Z</time></trkpt><trkpt lat="46.37188262529234" lon="12.137837977024615"><ele>1127.0</ele><time>2026-04-12T09:50:41.883Z</time></trkpt><trkpt lat="46.37201416219738" lon="12.137909514387747"><ele>1127.0</ele><time>2026-04-12T09:50:42.883Z</time></trkpt><trkpt lat="46.37214746818816" lon="12.137985812420629"><ele>1127.0</ele><time>2026-04-12T09:50:43.883Z</time></trkpt><trkpt lat="46.37226476225139" lon="12.13805318449974"><ele>1128.8</ele><time>2026-04-12T09:50:44.883Z</time></trkpt><trkpt lat="46.372377018738185" lon="12.138088681003747"><ele>1130.6</ele><time>2026-04-12T09:50:45.883Z</time></trkpt><trkpt lat="46.372468170637" lon="12.138102411377176"><ele>1132.3999999999999</ele><time>2026-04-12T09:50:46.883Z</time></trkpt><trkpt lat="46.37255394746193" lon="12.138051959883455"><ele>1134.2</ele><time>2026-04-12T09:50:47.883Z</time></trkpt><trkpt lat="46.372646875426106" lon="12.13791448076201"><ele>1136.0</ele><time>2026-04-12T09:50:48.883Z</time></trkpt><trkpt lat="46.372728988535414" lon="12.13773503374128"><ele>1136.0</ele><time>2026-04-12T09:50:49.883Z</time></trkpt><trkpt lat="46.37283171958799" lon="12.137572155531084"><ele>1136.0</ele><time>2026-04-12T09:50:50.883Z</time></trkpt><trkpt lat="46.3729277781275" lon="12.137400014515926"><ele>1136.0</ele><time>2026-04-12T09:50:51.883Z</time></trkpt><trkpt lat="46.3730225058589" lon="12.13724880192718"><ele>1136.0</ele><time>2026-04-12T09:50:52.883Z</time></trkpt><trkpt lat="46.3731127015979" lon="12.137113646723819"><ele>1140.75</ele><time>2026-04-12T09:50:53.883Z</time></trkpt><trkpt lat="46.37320030981252" lon="12.136983513866275"><ele>1145.5</ele><time>2026-04-12T09:50:54.883Z</time></trkpt><trkpt lat="46.3732521115662" lon="12.136849476390989"><ele>1150.25</ele><time>2026-04-12T09:50:55.883Z</time></trkpt><trkpt lat="46.37326369831213" lon="12.136677161617268"><ele>1155.0</ele><time>2026-04-12T09:50:56.883Z</time></trkpt><trkpt lat="46.37321964827467" lon="12.136486050099316"><ele>1158.0</ele><time>2026-04-12T09:50:57.883Z</time></trkpt><trkpt lat="46.373127619774436" lon="12.136302606570519"><ele>1161.0</ele><time>2026-04-12T09:50:58.883Z</time></trkpt><trkpt lat="46.37303380074737" lon="12.136186183173105"><ele>1164.0</ele><time>2026-04-12T09:50:59.883Z</time></trkpt><trkpt lat="46.37295690871239" lon="12.136086796584731"><ele>1167.0</ele><time>2026-04-12T09:51:00.883Z</time></trkpt><trkpt lat="46.372906852588414" lon="12.135981602497711"><ele>1158.75</ele><time>2026-04-12T09:51:01.883Z</time></trkpt><trkpt lat="46.37287588124628" lon="12.135845039674194"><ele>1150.5</ele><time>2026-04-12T09:51:02.883Z</time></trkpt><trkpt lat="46.37290706123089" lon="12.135678986473016"><ele>1142.25</ele><time>2026-04-12T09:51:03.883Z</time></trkpt><trkpt lat="46.3729423760163" lon="12.135453107059215"><ele>1134.0</ele><time>2026-04-12T09:51:04.883Z</time></trkpt><trkpt lat="46.37301044651151" lon="12.135231061850686"><ele>1143.0</ele><time>2026-04-12T09:51:05.883Z</time></trkpt><trkpt lat="46.37311101720481" lon="12.135033607309616"><ele>1152.0</ele><time>2026-04-12T09:51:06.883Z</time></trkpt><trkpt lat="46.3731913305585" lon="12.134838399224861"><ele>1161.0</ele><time>2026-04-12T09:51:07.883Z</time></trkpt><trkpt lat="46.37326297067352" lon="12.134655837236775"><ele>1161.0</ele><time>2026-04-12T09:51:08.883Z</time></trkpt><trkpt lat="46.37329901644226" lon="12.134435458767403"><ele>1161.0</ele><time>2026-04-12T09:51:09.883Z</time></trkpt><trkpt lat="46.37332085031324" lon="12.134193984946739"><ele>1161.0</ele><time>2026-04-12T09:51:10.883Z</time></trkpt><trkpt lat="46.37331919960747" lon="12.133917515406509"><ele>1162.3333333333333</ele><time>2026-04-12T09:51:11.883Z</time></trkpt><trkpt lat="46.3733144409683" lon="12.133622214329717"><ele>1163.6666666666665</ele><time>2026-04-12T09:51:12.883Z</time></trkpt><trkpt lat="46.37332860457779" lon="12.133344083808392"><ele>1165.0</ele><time>2026-04-12T09:51:13.883Z</time></trkpt><trkpt lat="46.373325744074265" lon="12.133080669877438"><ele>1167.3333333333333</ele><time>2026-04-12T09:51:14.883Z</time></trkpt><trkpt lat="46.37330835228809" lon="12.132848674348441"><ele>1169.6666666666667</ele><time>2026-04-12T09:51:15.883Z</time></trkpt><trkpt lat="46.373280331931376" lon="12.132639493341914"><ele>1172.0</ele><time>2026-04-12T09:51:16.883Z</time></trkpt><trkpt lat="46.3732371176235" lon="12.132437776484672"><ele>1170.75</ele><time>2026-04-12T09:51:17.883Z</time></trkpt><trkpt lat="46.373240387534736" lon="12.13225870102984"><ele>1169.5</ele><time>2026-04-12T09:51:18.883Z</time></trkpt><trkpt lat="46.373265397962854" lon="12.132046801083321"><ele>1168.25</ele><time>2026-04-12T09:51:19.883Z</time></trkpt><trkpt lat="46.37332873338439" lon="12.131830395119271"><ele>1167.0</ele><time>2026-04-12T09:51:20.883Z</time></trkpt><trkpt lat="46.37339826332704" lon="12.131632221174682"><ele>1163.5</ele><time>2026-04-12T09:51:21.883Z</time></trkpt><trkpt lat="46.37345654003663" lon="12.131455900025044"><ele>1160.0</ele><time>2026-04-12T09:51:22.883Z</time></trkpt><trkpt lat="46.37352884666105" lon="12.131326508606879"><ele>1156.5</ele><time>2026-04-12T09:51:23.883Z</time></trkpt><trkpt lat="46.373605800397335" lon="12.131158482330795"><ele>1153.0</ele><time>2026-04-12T09:51:24.883Z</time></trkpt><trkpt lat="46.37368050712941" lon="12.131015882672678"><ele>1153.0</ele><time>2026-04-12T09:51:25.883Z</time></trkpt><trkpt lat="46.373761790754386" lon="12.13088899849316"><ele>1153.0</ele><time>2026-04-12T09:51:26.883Z</time></trkpt><trkpt lat="46.37386534968776" lon="12.130759402012352"><ele>1153.0</ele><time>2026-04-12T09:51:27.883Z</time></trkpt><trkpt lat="46.373967032528455" lon="12.13067347988602"><ele>1153.0</ele><time>2026-04-12T09:51:28.883Z</time></trkpt><trkpt lat="46.374064113087194" lon="12.130589859932252"><ele>1158.75</ele><time>2026-04-12T09:51:29.883Z</time></trkpt><trkpt lat="46.37415134465125" lon="12.130474603473901"><ele>1164.5</ele><time>2026-04-12T09:51:30.883Z</time></trkpt><trkpt lat="46.37421033296323" lon="12.130328195113522"><ele>1170.25</ele><time>2026-04-12T09:51:31.883Z</time></trkpt><trkpt lat="46.37425942033121" lon="12.130154369888"><ele>1176.0</ele><time>2026-04-12T09:51:32.883Z</time></trkpt><trkpt lat="46.37428781213361" lon="12.129940374467544"><ele>1176.5</ele><time>2026-04-12T09:51:33.883Z</time></trkpt><trkpt lat="46.37430336487865" lon="12.129738219469104"><ele>1177.0</ele><time>2026-04-12T09:51:34.883Z</time></trkpt><trkpt lat="46.37430503085884" lon="12.129569525982095"><ele>1177.5</ele><time>2026-04-12T09:51:35.883Z</time></trkpt><trkpt lat="46.37426014709284" lon="12.129401096415618"><ele>1178.0</ele><time>2026-04-12T09:51:36.883Z</time></trkpt><trkpt lat="46.37417322226198" lon="12.129215392288163"><ele>1178.0</ele><time>2026-04-12T09:51:37.883Z</time></trkpt><trkpt lat="46.374082340091924" lon="12.129017546709358"><ele>1178.0</ele><time>2026-04-12T09:51:38.883Z</time></trkpt><trkpt lat="46.37401329769138" lon="12.128924006348168"><ele>1178.0</ele><time>2026-04-12T09:51:40.883Z</time></trkpt><trkpt lat="46.37397245314948" lon="12.12881299932786"><ele>1178.0</ele><time>2026-04-12T09:51:41.883Z</time></trkpt><trkpt lat="46.37390976306204" lon="12.128696135386171"><ele>1178.0</ele><time>2026-04-12T09:51:42.883Z</time></trkpt><trkpt lat="46.37382305523956" lon="12.128583719107148"><ele>1173.8</ele><time>2026-04-12T09:51:43.883Z</time></trkpt><trkpt lat="46.37371670332047" lon="12.128494041873216"><ele>1169.6</ele><time>2026-04-12T09:51:44.883Z</time></trkpt><trkpt lat="46.37363264241843" lon="12.128402357660642"><ele>1165.4</ele><time>2026-04-12T09:51:45.883Z</time></trkpt><trkpt lat="46.37356426212291" lon="12.12830064367158"><ele>1161.2</ele><time>2026-04-12T09:51:46.883Z</time></trkpt><trkpt lat="46.37353132146916" lon="12.128173530599193"><ele>1157.0</ele><time>2026-04-12T09:51:47.883Z</time></trkpt><trkpt lat="46.37354235650593" lon="12.128048529674299"><ele>1156.0</ele><time>2026-04-12T09:51:48.883Z</time></trkpt><trkpt lat="46.37361074147382" lon="12.127920366076717"><ele>1155.0</ele><time>2026-04-12T09:51:49.883Z</time></trkpt><trkpt lat="46.37370544538805" lon="12.12782317161482"><ele>1154.0</ele><time>2026-04-12T09:51:50.883Z</time></trkpt><trkpt lat="46.37382236252444" lon="12.127766547245246"><ele>1153.0</ele><time>2026-04-12T09:51:51.883Z</time></trkpt><trkpt lat="46.37394800510817" lon="12.127726450575214"><ele>1159.6666666666665</ele><time>2026-04-12T09:51:52.883Z</time></trkpt><trkpt lat="46.3741002597622" lon="12.127710880555156"><ele>1166.3333333333333</ele><time>2026-04-12T09:51:53.883Z</time></trkpt><trkpt lat="46.37426687123062" lon="12.127644696546325"><ele>1173.0</ele><time>2026-04-12T09:51:54.883Z</time></trkpt><trkpt lat="46.37442661178859" lon="12.127567595265376"><ele>1173.0</ele><time>2026-04-12T09:51:55.883Z</time></trkpt><trkpt lat="46.37460223482984" lon="12.12750016224241"><ele>1173.0</ele><time>2026-04-12T09:51:56.883Z</time></trkpt><trkpt lat="46.37481849589" lon="12.127442793611797"><ele>1173.0</ele><time>2026-04-12T09:51:57.883Z</time></trkpt><trkpt lat="46.37499395364832" lon="12.127374758441352"><ele>1175.5</ele><time>2026-04-12T09:51:58.883Z</time></trkpt><trkpt lat="46.37514961050369" lon="12.127304578892145"><ele>1178.0</ele><time>2026-04-12T09:51:59.883Z</time></trkpt><trkpt lat="46.375279368930535" lon="12.127250092070467"><ele>1180.5</ele><time>2026-04-12T09:52:00.883Z</time></trkpt><trkpt lat="46.37538823531439" lon="12.127189700777771"><ele>1183.0</ele><time>2026-04-12T09:52:01.883Z</time></trkpt><trkpt lat="46.37550202654207" lon="12.127108611755503"><ele>1185.75</ele><time>2026-04-12T09:52:02.883Z</time></trkpt><trkpt lat="46.375589300255086" lon="12.126976186150864"><ele>1188.5</ele><time>2026-04-12T09:52:03.883Z</time></trkpt><trkpt lat="46.37564587565254" lon="12.126780305009891"><ele>1191.25</ele><time>2026-04-12T09:52:04.883Z</time></trkpt><trkpt lat="46.37567139495443" lon="12.126546540062137"><ele>1194.0</ele><time>2026-04-12T09:52:05.883Z</time></trkpt><trkpt lat="46.37565891462235" lon="12.126284869633142"><ele>1194.5</ele><time>2026-04-12T09:52:06.883Z</time></trkpt><trkpt lat="46.37564013052954" lon="12.126055192667883"><ele>1195.0</ele><time>2026-04-12T09:52:07.883Z</time></trkpt><trkpt lat="46.37562443659317" lon="12.125856279565452"><ele>1195.5</ele><time>2026-04-12T09:52:08.883Z</time></trkpt><trkpt lat="46.37561486319221" lon="12.12565804998894"><ele>1196.0</ele><time>2026-04-12T09:52:09.883Z</time></trkpt><trkpt lat="46.375610609519704" lon="12.125461228270837"><ele>1196.25</ele><time>2026-04-12T09:52:10.883Z</time></trkpt><trkpt lat="46.375604378019176" lon="12.125259848661237"><ele>1196.5</ele><time>2026-04-12T09:52:11.883Z</time></trkpt><trkpt lat="46.37560128027012" lon="12.12508036470876"><ele>1196.75</ele><time>2026-04-12T09:52:12.883Z</time></trkpt><trkpt lat="46.37560475092319" lon="12.12490916800874"><ele>1197.0</ele><time>2026-04-12T09:52:13.883Z</time></trkpt><trkpt lat="46.37563331533353" lon="12.124726360501777"><ele>1197.5</ele><time>2026-04-12T09:52:14.883Z</time></trkpt><trkpt lat="46.37570183004995" lon="12.124559539026066"><ele>1198.0</ele><time>2026-04-12T09:52:15.883Z</time></trkpt><trkpt lat="46.37580876227387" lon="12.124416862254087"><ele>1198.5</ele><time>2026-04-12T09:52:16.883Z</time></trkpt><trkpt lat="46.375958891228294" lon="12.124343498379478"><ele>1199.0</ele><time>2026-04-12T09:52:17.883Z</time></trkpt><trkpt lat="46.376159425975985" lon="12.12434118711539"><ele>1199.0</ele><time>2026-04-12T09:52:18.883Z</time></trkpt><trkpt lat="46.37632820525333" lon="12.124350568867705"><ele>1199.0</ele><time>2026-04-12T09:52:19.883Z</time></trkpt><trkpt lat="46.37646989396679" lon="12.124357426100007"><ele>1199.0</ele><time>2026-04-12T09:52:20.883Z</time></trkpt><trkpt lat="46.376642818137555" lon="12.124365797093702"><ele>1200.8</ele><time>2026-04-12T09:52:21.883Z</time></trkpt><trkpt lat="46.37676742267463" lon="12.124371827504085"><ele>1202.6000000000001</ele><time>2026-04-12T09:52:22.883Z</time></trkpt><trkpt lat="46.37686456044727" lon="12.124376528630526"><ele>1204.4</ele><time>2026-04-12T09:52:23.883Z</time></trkpt><trkpt lat="46.376997057494464" lon="12.12438289893104"><ele>1206.2</ele><time>2026-04-12T09:52:24.883Z</time></trkpt><trkpt lat="46.377090082454465" lon="12.124387362460906"><ele>1208.0</ele><time>2026-04-12T09:52:25.883Z</time></trkpt><trkpt lat="46.377193823356706" lon="12.124391463867559"><ele>1211.0</ele><time>2026-04-12T09:52:26.883Z</time></trkpt><trkpt lat="46.3773077420836" lon="12.124395176117243"><ele>1214.0</ele><time>2026-04-12T09:52:27.883Z</time></trkpt><trkpt lat="46.37741733493635" lon="12.124400135253326"><ele>1217.0</ele><time>2026-04-12T09:52:28.883Z</time></trkpt><trkpt lat="46.37754029892148" lon="12.124406513777545"><ele>1220.0</ele><time>2026-04-12T09:52:29.883Z</time></trkpt><trkpt lat="46.37767440194667" lon="12.124429922135688"><ele>1220.0</ele><time>2026-04-12T09:52:30.883Z</time></trkpt><trkpt lat="46.37780841933199" lon="12.12448802142095"><ele>1220.0</ele><time>2026-04-12T09:52:31.883Z</time></trkpt><trkpt lat="46.377910322430346" lon="12.124586878267849"><ele>1220.0</ele><time>2026-04-12T09:52:32.883Z</time></trkpt><trkpt lat="46.378048770323204" lon="12.124767439109842"><ele>1220.0</ele><time>2026-04-12T09:52:33.883Z</time></trkpt><trkpt lat="46.37815155122651" lon="12.1249005820698"><ele>1221.25</ele><time>2026-04-12T09:52:34.883Z</time></trkpt><trkpt lat="46.37824371031167" lon="12.124992121938213"><ele>1222.5</ele><time>2026-04-12T09:52:35.883Z</time></trkpt><trkpt lat="46.37834484636568" lon="12.125037553807564"><ele>1223.75</ele><time>2026-04-12T09:52:36.883Z</time></trkpt><trkpt lat="46.37847026782735" lon="12.125032534904463"><ele>1225.0</ele><time>2026-04-12T09:52:37.883Z</time></trkpt><trkpt lat="46.37860970344016" lon="12.124986960509853"><ele>1225.0</ele><time>2026-04-12T09:52:38.883Z</time></trkpt><trkpt lat="46.37877058278386" lon="12.124962482562506"><ele>1225.0</ele><time>2026-04-12T09:52:39.883Z</time></trkpt><trkpt lat="46.37891192170896" lon="12.124911260504037"><ele>1225.0</ele><time>2026-04-12T09:52:40.883Z</time></trkpt><trkpt lat="46.379031740342555" lon="12.124845560918118"><ele>1225.0</ele><time>2026-04-12T09:52:41.883Z</time></trkpt><trkpt lat="46.37913527655856" lon="12.12471916104668"><ele>1229.0</ele><time>2026-04-12T09:52:42.883Z</time></trkpt><trkpt lat="46.379212115219275" lon="12.124541700540636"><ele>1233.0</ele><time>2026-04-12T09:52:43.884Z</time></trkpt><trkpt lat="46.37923869617624" lon="12.124301149063818"><ele>1237.0</ele><time>2026-04-12T09:52:44.884Z</time></trkpt><trkpt lat="46.37925422950462" lon="12.12404838512902"><ele>1237.0</ele><time>2026-04-12T09:52:45.884Z</time></trkpt><trkpt lat="46.37929783200021" lon="12.123772180581978"><ele>1237.0</ele><time>2026-04-12T09:52:46.884Z</time></trkpt><trkpt lat="46.37935334946424" lon="12.123502703341954"><ele>1237.0</ele><time>2026-04-12T09:52:47.884Z</time></trkpt><trkpt lat="46.379384996682795" lon="12.123210126137629"><ele>1237.3333333333333</ele><time>2026-04-12T09:52:48.884Z</time></trkpt><trkpt lat="46.37943055803206" lon="12.122904178986822"><ele>1237.6666666666667</ele><time>2026-04-12T09:52:49.884Z</time></trkpt><trkpt lat="46.37946981497359" lon="12.122623881491197"><ele>1238.0</ele><time>2026-04-12T09:52:50.884Z</time></trkpt><trkpt lat="46.37950431271997" lon="12.12239193009001"><ele>1238.0</ele><time>2026-04-12T09:52:51.884Z</time></trkpt><trkpt lat="46.379549227399984" lon="12.122207070820831"><ele>1238.0</ele><time>2026-04-12T09:52:52.884Z</time></trkpt><trkpt lat="46.37962242298296" lon="12.122050691374364"><ele>1238.0</ele><time>2026-04-12T09:52:53.884Z</time></trkpt><trkpt lat="46.37974960755951" lon="12.121958926467642"><ele>1238.0</ele><time>2026-04-12T09:52:54.884Z</time></trkpt><trkpt lat="46.37989897120479" lon="12.12194154410949"><ele>1243.0</ele><time>2026-04-12T09:52:55.884Z</time></trkpt><trkpt lat="46.38007073004994" lon="12.121909292060916"><ele>1248.0</ele><time>2026-04-12T09:52:56.884Z</time></trkpt><trkpt lat="46.3802522783452" lon="12.121844651388379"><ele>1253.0</ele><time>2026-04-12T09:52:57.884Z</time></trkpt><trkpt lat="46.38042479021995" lon="12.12180436502174"><ele>1255.75</ele><time>2026-04-12T09:52:58.884Z</time></trkpt><trkpt lat="46.38057856411136" lon="12.121766706884603"><ele>1258.5</ele><time>2026-04-12T09:52:59.884Z</time></trkpt><trkpt lat="46.38071714358204" lon="12.121737230687554"><ele>1261.25</ele><time>2026-04-12T09:53:00.884Z</time></trkpt><trkpt lat="46.380842576097876" lon="12.121706167990027"><ele>1264.0</ele><time>2026-04-12T09:53:01.884Z</time></trkpt><trkpt lat="46.38096945769503" lon="12.121692879160413"><ele>1264.0</ele><time>2026-04-12T09:53:02.884Z</time></trkpt><trkpt lat="46.38109296728755" lon="12.121678461645127"><ele>1264.0</ele><time>2026-04-12T09:53:03.884Z</time></trkpt><trkpt lat="46.38118289963982" lon="12.121685847342794"><ele>1264.0</ele><time>2026-04-12T09:53:04.884Z</time></trkpt><trkpt lat="46.38123193792551" lon="12.121811024925261"><ele>1264.0</ele><time>2026-04-12T09:53:05.884Z</time></trkpt><trkpt lat="46.381285496182876" lon="12.122005163377546"><ele>1265.8</ele><time>2026-04-12T09:53:06.884Z</time></trkpt><trkpt lat="46.38135434683431" lon="12.122192147849525"><ele>1267.6000000000001</ele><time>2026-04-12T09:53:07.884Z</time></trkpt><trkpt lat="46.381439461078145" lon="12.1222905469687"><ele>1269.4</ele><time>2026-04-12T09:53:08.884Z</time></trkpt><trkpt lat="46.38147063659309" lon="12.122399385147121"><ele>1271.2</ele><time>2026-04-12T09:53:09.884Z</time></trkpt><trkpt lat="46.38150979165908" lon="12.122479007241743"><ele>1273.0</ele><time>2026-04-12T09:53:10.884Z</time></trkpt><trkpt lat="46.38158243137105" lon="12.12252181106372"><ele>1273.0</ele><time>2026-04-12T09:53:11.884Z</time></trkpt><trkpt lat="46.38165756000357" lon="12.122499488470904"><ele>1273.0</ele><time>2026-04-12T09:53:12.884Z</time></trkpt><trkpt lat="46.381741431372895" lon="12.122427429794342"><ele>1273.0</ele><time>2026-04-12T09:53:13.884Z</time></trkpt><trkpt lat="46.38181935885885" lon="12.122301767594653"><ele>1273.0</ele><time>2026-04-12T09:53:14.884Z</time></trkpt><trkpt lat="46.381901334157" lon="12.122165001694155"><ele>1273.0</ele><time>2026-04-12T09:53:15.884Z</time></trkpt><trkpt lat="46.3819726554247" lon="12.122039640284388"><ele>1273.0</ele><time>2026-04-12T09:53:16.884Z</time></trkpt><trkpt lat="46.38203615160843" lon="12.121957069556586"><ele>1273.0</ele><time>2026-04-12T09:53:17.884Z</time></trkpt><trkpt lat="46.38210231569288" lon="12.121959794122013"><ele>1273.0</ele><time>2026-04-12T09:53:18.884Z</time></trkpt><trkpt lat="46.38225712586963" lon="12.121410130599857"><ele>1277.25</ele><time>2026-04-12T09:53:21.884Z</time></trkpt><trkpt lat="46.38225829423007" lon="12.121223837129612"><ele>1281.5</ele><time>2026-04-12T09:53:22.884Z</time></trkpt><trkpt lat="46.382241048801724" lon="12.121040886512922"><ele>1285.75</ele><time>2026-04-12T09:53:23.884Z</time></trkpt><trkpt lat="46.38224452732494" lon="12.120874933718511"><ele>1290.0</ele><time>2026-04-12T09:53:24.884Z</time></trkpt><trkpt lat="46.38226658265239" lon="12.120713664994922"><ele>1290.0</ele><time>2026-04-12T09:53:25.884Z</time></trkpt><trkpt lat="46.38229296456692" lon="12.12057959208509"><ele>1290.0</ele><time>2026-04-12T09:53:26.884Z</time></trkpt><trkpt lat="46.382354159744644" lon="12.120446042270448"><ele>1290.0</ele><time>2026-04-12T09:53:27.884Z</time></trkpt><trkpt lat="46.38244006815161" lon="12.12032315837961"><ele>1290.0</ele><time>2026-04-12T09:53:28.884Z</time></trkpt><trkpt lat="46.38254989618802" lon="12.120185983263191"><ele>1290.0</ele><time>2026-04-12T09:53:29.884Z</time></trkpt><trkpt lat="46.382675085797196" lon="12.120012464466878"><ele>1290.0</ele><time>2026-04-12T09:53:30.884Z</time></trkpt><trkpt lat="46.38280663906449" lon="12.119843433479556"><ele>1290.0</ele><time>2026-04-12T09:53:31.884Z</time></trkpt><trkpt lat="46.382922039162814" lon="12.11970077406763"><ele>1292.6666666666667</ele><time>2026-04-12T09:53:32.884Z</time></trkpt><trkpt lat="46.38304511044789" lon="12.119543601039519"><ele>1295.3333333333335</ele><time>2026-04-12T09:53:33.884Z</time></trkpt><trkpt lat="46.383172326683884" lon="12.119381117524906"><ele>1298.0</ele><time>2026-04-12T09:53:34.884Z</time></trkpt><trkpt lat="46.3833080844857" lon="12.119208565021777"><ele>1298.3333333333335</ele><time>2026-04-12T09:53:35.884Z</time></trkpt><trkpt lat="46.38344871469737" lon="12.11903254497785"><ele>1298.6666666666667</ele><time>2026-04-12T09:53:36.884Z</time></trkpt><trkpt lat="46.38359440967316" lon="12.118845245950444"><ele>1299.0</ele><time>2026-04-12T09:53:37.884Z</time></trkpt><trkpt lat="46.38375804187136" lon="12.118653116354878"><ele>1304.6666666666667</ele><time>2026-04-12T09:53:38.884Z</time></trkpt><trkpt lat="46.38390585493361" lon="12.118440441521686"><ele>1310.3333333333335</ele><time>2026-04-12T09:53:39.884Z</time></trkpt><trkpt lat="46.38404268605385" lon="12.118271702532054"><ele>1316.0</ele><time>2026-04-12T09:53:40.884Z</time></trkpt><trkpt lat="46.384163700804066" lon="12.118107651027161"><ele>1316.6666666666667</ele><time>2026-04-12T09:53:41.884Z</time></trkpt><trkpt lat="46.38428025313995" lon="12.117917387777013"><ele>1317.3333333333333</ele><time>2026-04-12T09:53:42.884Z</time></trkpt><trkpt lat="46.384379944294956" lon="12.117672922411524"><ele>1318.0</ele><time>2026-04-12T09:53:43.884Z</time></trkpt><trkpt lat="46.38445489023376" lon="12.117409501848204"><ele>1315.0</ele><time>2026-04-12T09:53:44.884Z</time></trkpt><trkpt lat="46.38451822860311" lon="12.117158749648196"><ele>1312.0</ele><time>2026-04-12T09:53:45.884Z</time></trkpt><trkpt lat="46.38457234062573" lon="12.11693415080926"><ele>1309.0</ele><time>2026-04-12T09:53:46.884Z</time></trkpt><trkpt lat="46.384633751362806" lon="12.116720185313843"><ele>1314.3333333333333</ele><time>2026-04-12T09:53:47.884Z</time></trkpt><trkpt lat="46.384691092422294" lon="12.11648777266669"><ele>1319.6666666666667</ele><time>2026-04-12T09:53:48.884Z</time></trkpt><trkpt lat="46.38476106018246" lon="12.116267489652941"><ele>1325.0</ele><time>2026-04-12T09:53:49.884Z</time></trkpt><trkpt lat="46.384825376775375" lon="12.116039460545407"><ele>1325.0</ele><time>2026-04-12T09:53:50.884Z</time></trkpt><trkpt lat="46.38488339380606" lon="12.115812248540864"><ele>1325.0</ele><time>2026-04-12T09:53:51.884Z</time></trkpt><trkpt lat="46.384946700316625" lon="12.115625714535893"><ele>1325.0</ele><time>2026-04-12T09:53:52.884Z</time></trkpt><trkpt lat="46.38499337968732" lon="12.11548317575588"><ele>1325.0</ele><time>2026-04-12T09:53:53.884Z</time></trkpt><trkpt lat="46.38508811569053" lon="12.115290319596681"><ele>1322.0</ele><time>2026-04-12T09:53:54.884Z</time></trkpt><trkpt lat="46.3851930327399" lon="12.115123722640526"><ele>1319.0</ele><time>2026-04-12T09:53:55.884Z</time></trkpt><trkpt lat="46.38532377713285" lon="12.114981543026337"><ele>1316.0</ele><time>2026-04-12T09:53:56.884Z</time></trkpt><trkpt lat="46.38546588115886" lon="12.114822910455677"><ele>1318.6666666666667</ele><time>2026-04-12T09:53:57.884Z</time></trkpt><trkpt lat="46.38562126234747" lon="12.114674164819784"><ele>1321.3333333333333</ele><time>2026-04-12T09:53:58.884Z</time></trkpt><trkpt lat="46.38579022398076" lon="12.114528469591857"><ele>1324.0</ele><time>2026-04-12T09:53:59.884Z</time></trkpt><trkpt lat="46.38595578719734" lon="12.11438899898483"><ele>1324.0</ele><time>2026-04-12T09:54:00.884Z</time></trkpt><trkpt lat="46.38610346266591" lon="12.114264782312048"><ele>1324.0</ele><time>2026-04-12T09:54:01.884Z</time></trkpt><trkpt lat="46.38623746405145" lon="12.114163748580834"><ele>1324.0</ele><time>2026-04-12T09:54:02.884Z</time></trkpt><trkpt lat="46.386358802983956" lon="12.114087178734234"><ele>1327.0</ele><time>2026-04-12T09:54:03.884Z</time></trkpt><trkpt lat="46.38647687350895" lon="12.11403231374003"><ele>1330.0</ele><time>2026-04-12T09:54:04.884Z</time></trkpt><trkpt lat="46.38661468468461" lon="12.113997147578763"><ele>1333.0</ele><time>2026-04-12T09:54:05.884Z</time></trkpt><trkpt lat="46.38676241076777" lon="12.113976547752939"><ele>1336.0</ele><time>2026-04-12T09:54:06.884Z</time></trkpt><trkpt lat="46.386920756590094" lon="12.113955005126336"><ele>1336.0</ele><time>2026-04-12T09:54:07.884Z</time></trkpt><trkpt lat="46.38709508438402" lon="12.113925306211243"><ele>1336.0</ele><time>2026-04-12T09:54:08.884Z</time></trkpt><trkpt lat="46.387264830194646" lon="12.113895995928772"><ele>1336.0</ele><time>2026-04-12T09:54:09.884Z</time></trkpt><trkpt lat="46.38742301394255" lon="12.113860964860159"><ele>1335.6666666666665</ele><time>2026-04-12T09:54:10.884Z</time></trkpt><trkpt lat="46.387572118273006" lon="12.113848761279929"><ele>1335.3333333333333</ele><time>2026-04-12T09:54:11.884Z</time></trkpt><trkpt lat="46.387728242198214" lon="12.113821365369102"><ele>1335.0</ele><time>2026-04-12T09:54:12.884Z</time></trkpt><trkpt lat="46.38788325680865" lon="12.113751963278734"><ele>1337.3333333333333</ele><time>2026-04-12T09:54:13.884Z</time></trkpt><trkpt lat="46.388038583924576" lon="12.113660969255195"><ele>1339.6666666666665</ele><time>2026-04-12T09:54:14.884Z</time></trkpt><trkpt lat="46.38818656148818" lon="12.113544606379737"><ele>1342.0</ele><time>2026-04-12T09:54:15.884Z</time></trkpt><trkpt lat="46.388330523272835" lon="12.113395659356499"><ele>1340.6666666666665</ele><time>2026-04-12T09:54:16.884Z</time></trkpt><trkpt lat="46.388476992585154" lon="12.113229657924665"><ele>1339.3333333333333</ele><time>2026-04-12T09:54:17.884Z</time></trkpt><trkpt lat="46.38863903513046" lon="12.113063950304987"><ele>1338.0</ele><time>2026-04-12T09:54:18.884Z</time></trkpt><trkpt lat="46.38881620217458" lon="12.112913756557266"><ele>1341.3333333333333</ele><time>2026-04-12T09:54:19.884Z</time></trkpt><trkpt lat="46.38899678871818" lon="12.11273811313179"><ele>1344.6666666666665</ele><time>2026-04-12T09:54:20.884Z</time></trkpt><trkpt lat="46.38916940065975" lon="12.11257695322969"><ele>1348.0</ele><time>2026-04-12T09:54:21.884Z</time></trkpt><trkpt lat="46.389327149753356" lon="12.112432697258377"><ele>1347.6666666666665</ele><time>2026-04-12T09:54:22.884Z</time></trkpt><trkpt lat="46.3895005557489" lon="12.112280490446086"><ele>1347.3333333333333</ele><time>2026-04-12T09:54:23.884Z</time></trkpt><trkpt lat="46.38965820731304" lon="12.112137819067348"><ele>1347.0</ele><time>2026-04-12T09:54:24.884Z</time></trkpt><trkpt lat="46.389812904858125" lon="12.111985427363372"><ele>1347.0</ele><time>2026-04-12T09:54:25.884Z</time></trkpt><trkpt lat="46.38996800738128" lon="12.111829588593787"><ele>1347.0</ele><time>2026-04-12T09:54:26.884Z</time></trkpt><trkpt lat="46.39011364249072" lon="12.111676299548982"><ele>1347.0</ele><time>2026-04-12T09:54:27.884Z</time></trkpt><trkpt lat="46.390245269271375" lon="12.111492178256494"><ele>1345.3333333333333</ele><time>2026-04-12T09:54:28.884Z</time></trkpt><trkpt lat="46.39036506868027" lon="12.11127000707634"><ele>1343.6666666666665</ele><time>2026-04-12T09:54:29.884Z</time></trkpt><trkpt lat="46.390483804296444" lon="12.111019624960136"><ele>1342.0</ele><time>2026-04-12T09:54:30.884Z</time></trkpt><trkpt lat="46.39061002100643" lon="12.110770611062046"><ele>1341.6666666666665</ele><time>2026-04-12T09:54:31.884Z</time></trkpt><trkpt lat="46.39075147112758" lon="12.110527677086797"><ele>1341.3333333333333</ele><time>2026-04-12T09:54:32.884Z</time></trkpt><trkpt lat="46.390890297338224" lon="12.110292992651734"><ele>1341.0</ele><time>2026-04-12T09:54:33.884Z</time></trkpt><trkpt lat="46.391024357201374" lon="12.110055757197982"><ele>1341.3333333333333</ele><time>2026-04-12T09:54:34.884Z</time></trkpt><trkpt lat="46.391153325540515" lon="12.109832140754264"><ele>1341.6666666666665</ele><time>2026-04-12T09:54:35.884Z</time></trkpt><trkpt lat="46.39126007682569" lon="12.109607351448622"><ele>1342.0</ele><time>2026-04-12T09:54:36.884Z</time></trkpt><trkpt lat="46.39134038540265" lon="12.109374269270925"><ele>1342.3333333333333</ele><time>2026-04-12T09:54:37.884Z</time></trkpt><trkpt lat="46.391387337720424" lon="12.109108985692924"><ele>1342.6666666666667</ele><time>2026-04-12T09:54:38.884Z</time></trkpt><trkpt lat="46.39140259158776" lon="12.108822876729777"><ele>1343.0</ele><time>2026-04-12T09:54:39.884Z</time></trkpt><trkpt lat="46.39139700940815" lon="12.108528919800646"><ele>1343.6666666666667</ele><time>2026-04-12T09:54:40.884Z</time></trkpt><trkpt lat="46.39139821600931" lon="12.108227945308425"><ele>1344.3333333333333</ele><time>2026-04-12T09:54:41.884Z</time></trkpt><trkpt lat="46.39141191228077" lon="12.107929131888241"><ele>1345.0</ele><time>2026-04-12T09:54:42.884Z</time></trkpt><trkpt lat="46.39142793487647" lon="12.107618043512309"><ele>1348.0</ele><time>2026-04-12T09:54:43.884Z</time></trkpt><trkpt lat="46.391438333545814" lon="12.107342619029072"><ele>1351.0</ele><time>2026-04-12T09:54:44.884Z</time></trkpt><trkpt lat="46.39144205336765" lon="12.107070517214087"><ele>1354.0</ele><time>2026-04-12T09:54:45.884Z</time></trkpt><trkpt lat="46.39144650415131" lon="12.10682056266212"><ele>1354.0</ele><time>2026-04-12T09:54:46.884Z</time></trkpt><trkpt lat="46.39145919820293" lon="12.106582151208563"><ele>1354.0</ele><time>2026-04-12T09:54:47.884Z</time></trkpt><trkpt lat="46.39146642365386" lon="12.106341274287272"><ele>1354.0</ele><time>2026-04-12T09:54:48.884Z</time></trkpt><trkpt lat="46.39146924010889" lon="12.106093734988187"><ele>1355.75</ele><time>2026-04-12T09:54:49.885Z</time></trkpt><trkpt lat="46.39147235419918" lon="12.105862325854476"><ele>1357.5</ele><time>2026-04-12T09:54:50.885Z</time></trkpt><trkpt lat="46.39147777347424" lon="12.105652460794698"><ele>1359.25</ele><time>2026-04-12T09:54:51.885Z</time></trkpt><trkpt lat="46.391477603353316" lon="12.105466759196323"><ele>1361.0</ele><time>2026-04-12T09:54:52.885Z</time></trkpt><trkpt lat="46.39149959875458" lon="12.105277325665364"><ele>1362.0</ele><time>2026-04-12T09:54:53.885Z</time></trkpt><trkpt lat="46.39157115241129" lon="12.105092456233818"><ele>1363.0</ele><time>2026-04-12T09:54:54.885Z</time></trkpt><trkpt lat="46.39169817113606" lon="12.10489430868489"><ele>1364.0</ele><time>2026-04-12T09:54:55.885Z</time></trkpt><trkpt lat="46.39180588642711" lon="12.104706265136917"><ele>1364.25</ele><time>2026-04-12T09:54:56.885Z</time></trkpt><trkpt lat="46.39191111422812" lon="12.104520106571535"><ele>1364.5</ele><time>2026-04-12T09:54:57.885Z</time></trkpt><trkpt lat="46.3919692746445" lon="12.10438098258719"><ele>1364.75</ele><time>2026-04-12T09:54:58.885Z</time></trkpt><trkpt lat="46.39207560330146" lon="12.104196502146186"><ele>1365.0</ele><time>2026-04-12T09:54:59.885Z</time></trkpt><trkpt lat="46.392182179280695" lon="12.1040071404314"><ele>1368.75</ele><time>2026-04-12T09:55:00.885Z</time></trkpt><trkpt lat="46.3922918806922" lon="12.10384913690577"><ele>1372.5</ele><time>2026-04-12T09:55:01.885Z</time></trkpt><trkpt lat="46.39236691780082" lon="12.103680535752872"><ele>1376.25</ele><time>2026-04-12T09:55:02.885Z</time></trkpt><trkpt lat="46.39243782012645" lon="12.103562409880839"><ele>1380.0</ele><time>2026-04-12T09:55:03.885Z</time></trkpt><trkpt lat="46.39249630566893" lon="12.103467751865612"><ele>1380.0</ele><time>2026-04-12T09:55:04.885Z</time></trkpt><trkpt lat="46.392558167120605" lon="12.103376167104532"><ele>1380.0</ele><time>2026-04-12T09:55:05.885Z</time></trkpt><trkpt lat="46.39261607539255" lon="12.103267848626887"><ele>1380.0</ele><time>2026-04-12T09:55:06.885Z</time></trkpt><trkpt lat="46.392677520630116" lon="12.103151689741532"><ele>1380.0</ele><time>2026-04-12T09:55:07.885Z</time></trkpt><trkpt lat="46.39274806916047" lon="12.103049233771388"><ele>1380.0</ele><time>2026-04-12T09:55:08.885Z</time></trkpt><trkpt lat="46.392821594913634" lon="12.102941530096427"><ele>1380.0</ele><time>2026-04-12T09:55:09.885Z</time></trkpt><trkpt lat="46.39289292893757" lon="12.102807545305557"><ele>1380.0</ele><time>2026-04-12T09:55:10.885Z</time></trkpt><trkpt lat="46.392976482219055" lon="12.102674681045258"><ele>1380.0</ele><time>2026-04-12T09:55:11.885Z</time></trkpt><trkpt lat="46.393054861897234" lon="12.102534730023676"><ele>1380.0</ele><time>2026-04-12T09:55:12.885Z</time></trkpt><trkpt lat="46.39313077250284" lon="12.102382712342097"><ele>1380.0</ele><time>2026-04-12T09:55:13.885Z</time></trkpt><trkpt lat="46.39321480216347" lon="12.102251422196291"><ele>1380.0</ele><time>2026-04-12T09:55:14.885Z</time></trkpt><trkpt lat="46.393330535003365" lon="12.102186956362923"><ele>1380.0</ele><time>2026-04-12T09:55:15.885Z</time></trkpt><trkpt lat="46.39344357317696" lon="12.102151928743453"><ele>1380.0</ele><time>2026-04-12T09:55:16.885Z</time></trkpt><trkpt lat="46.39355748145342" lon="12.102150251389475"><ele>1380.0</ele><time>2026-04-12T09:55:17.885Z</time></trkpt><trkpt lat="46.39364258961512" lon="12.10217021071671"><ele>1380.0</ele><time>2026-04-12T09:55:18.885Z</time></trkpt><trkpt lat="46.39368740852895" lon="12.10227376353342"><ele>1380.0</ele><time>2026-04-12T09:55:19.885Z</time></trkpt><trkpt lat="46.39371801484314" lon="12.102462462482924"><ele>1380.0</ele><time>2026-04-12T09:55:20.885Z</time></trkpt><trkpt lat="46.39377013815539" lon="12.102624205747912"><ele>1380.0</ele><time>2026-04-12T09:55:21.885Z</time></trkpt><trkpt lat="46.3938481788665" lon="12.102795781882946"><ele>1384.3333333333333</ele><time>2026-04-12T09:55:22.885Z</time></trkpt><trkpt lat="46.39390140713337" lon="12.103001417544954"><ele>1388.6666666666665</ele><time>2026-04-12T09:55:23.885Z</time></trkpt><trkpt lat="46.39397249008759" lon="12.103204167647737"><ele>1393.0</ele><time>2026-04-12T09:55:24.885Z</time></trkpt><trkpt lat="46.39405183942307" lon="12.103399778385237"><ele>1394.5</ele><time>2026-04-12T09:55:25.885Z</time></trkpt><trkpt lat="46.394111335390384" lon="12.103583955104334"><ele>1396.0</ele><time>2026-04-12T09:55:26.885Z</time></trkpt><trkpt lat="46.394153835653924" lon="12.103740748365661"><ele>1397.5</ele><time>2026-04-12T09:55:27.885Z</time></trkpt><trkpt lat="46.394206905351794" lon="12.103858603863838"><ele>1399.0</ele><time>2026-04-12T09:55:28.885Z</time></trkpt><trkpt lat="46.39429149879631" lon="12.103974957991184"><ele>1399.0</ele><time>2026-04-12T09:55:29.885Z</time></trkpt><trkpt lat="46.394397364128984" lon="12.10404765588123"><ele>1399.0</ele><time>2026-04-12T09:55:30.885Z</time></trkpt><trkpt lat="46.39454912788229" lon="12.104061842591015"><ele>1399.0</ele><time>2026-04-12T09:55:31.885Z</time></trkpt><trkpt lat="46.39470549882142" lon="12.10402177770752"><ele>1399.0</ele><time>2026-04-12T09:55:32.885Z</time></trkpt><trkpt lat="46.394820438280455" lon="12.10393088194739"><ele>1402.5</ele><time>2026-04-12T09:55:33.885Z</time></trkpt><trkpt lat="46.394956452345376" lon="12.103852765768718"><ele>1406.0</ele><time>2026-04-12T09:55:34.885Z</time></trkpt><trkpt lat="46.39507963433786" lon="12.103744791235655"><ele>1409.5</ele><time>2026-04-12T09:55:35.885Z</time></trkpt><trkpt lat="46.39520450803225" lon="12.103692633835117"><ele>1413.0</ele><time>2026-04-12T09:55:36.885Z</time></trkpt><trkpt lat="46.39530491384105" lon="12.103657288556127"><ele>1413.0</ele><time>2026-04-12T09:55:37.885Z</time></trkpt><trkpt lat="46.39539182397967" lon="12.103649958557053"><ele>1413.0</ele><time>2026-04-12T09:55:38.885Z</time></trkpt><trkpt lat="46.395454358995984" lon="12.103726130365802"><ele>1413.0</ele><time>2026-04-12T09:55:39.885Z</time></trkpt><trkpt lat="46.39547861594385" lon="12.10385376054621"><ele>1413.0</ele><time>2026-04-12T09:55:40.885Z</time></trkpt><trkpt lat="46.39546936923728" lon="12.104000512765248"><ele>1413.0</ele><time>2026-04-12T09:55:41.885Z</time></trkpt><trkpt lat="46.395414834500194" lon="12.104046435596196"><ele>1413.0</ele><time>2026-04-12T09:55:42.885Z</time></trkpt><trkpt lat="46.39551311916056" lon="12.10426435984042"><ele>1416.25</ele><time>2026-04-12T09:55:44.885Z</time></trkpt><trkpt lat="46.39558536221844" lon="12.104299846465356"><ele>1419.5</ele><time>2026-04-12T09:55:45.885Z</time></trkpt><trkpt lat="46.39574615915888" lon="12.104201806660349"><ele>1422.75</ele><time>2026-04-12T09:55:47.885Z</time></trkpt><trkpt lat="46.39576964085179" lon="12.104035150899465"><ele>1426.0</ele><time>2026-04-12T09:55:48.885Z</time></trkpt><trkpt lat="46.395726353866536" lon="12.103877239397418"><ele>1429.8</ele><time>2026-04-12T09:55:49.885Z</time></trkpt><trkpt lat="46.39573354720088" lon="12.103770800315166"><ele>1433.6</ele><time>2026-04-12T09:55:50.885Z</time></trkpt><trkpt lat="46.39573303912131" lon="12.103616210275808"><ele>1437.4</ele><time>2026-04-12T09:55:52.885Z</time></trkpt><trkpt lat="46.395802265292765" lon="12.103534689065686"><ele>1441.2</ele><time>2026-04-12T09:55:54.885Z</time></trkpt><trkpt lat="46.39589689343191" lon="12.103731148510306"><ele>1445.0</ele><time>2026-04-12T09:55:56.885Z</time></trkpt><trkpt lat="46.39592137527599" lon="12.103891499122316"><ele>1441.2</ele><time>2026-04-12T09:55:57.885Z</time></trkpt><trkpt lat="46.39591282301701" lon="12.104095961656498"><ele>1437.4</ele><time>2026-04-12T09:55:58.885Z</time></trkpt><trkpt lat="46.39591866750809" lon="12.104259757528064"><ele>1433.6</ele><time>2026-04-12T09:55:59.885Z</time></trkpt><trkpt lat="46.395933582320744" lon="12.104396249500946"><ele>1429.8</ele><time>2026-04-12T09:56:00.885Z</time></trkpt><trkpt lat="46.39594573972492" lon="12.104518915996696"><ele>1426.0</ele><time>2026-04-12T09:56:01.885Z</time></trkpt><trkpt lat="46.39597059375575" lon="12.104650594809868"><ele>1426.0</ele><time>2026-04-12T09:56:02.885Z</time></trkpt><trkpt lat="46.39603666365844" lon="12.104758889138772"><ele>1426.0</ele><time>2026-04-12T09:56:03.885Z</time></trkpt><trkpt lat="46.396118307423876" lon="12.104816408731487"><ele>1426.0</ele><time>2026-04-12T09:56:04.885Z</time></trkpt><trkpt lat="46.39621640145476" lon="12.104815082905747"><ele>1426.0</ele><time>2026-04-12T09:56:05.885Z</time></trkpt><trkpt lat="46.39631348195384" lon="12.104764808220178"><ele>1426.0</ele><time>2026-04-12T09:56:06.885Z</time></trkpt><trkpt lat="46.39639600564731" lon="12.1046619956998"><ele>1429.0</ele><time>2026-04-12T09:56:07.885Z</time></trkpt><trkpt lat="46.39641829685902" lon="12.104537110013476"><ele>1432.0</ele><time>2026-04-12T09:56:08.885Z</time></trkpt><trkpt lat="46.39643894619685" lon="12.104363939841043"><ele>1435.0</ele><time>2026-04-12T09:56:09.885Z</time></trkpt><trkpt lat="46.396407905570875" lon="12.104211212189991"><ele>1438.0</ele><time>2026-04-12T09:56:10.885Z</time></trkpt><trkpt lat="46.39637039480089" lon="12.104085156408143"><ele>1441.0</ele><time>2026-04-12T09:56:11.885Z</time></trkpt><trkpt lat="46.39628353170333" lon="12.103903777385714"><ele>1441.6666666666665</ele><time>2026-04-12T09:56:13.885Z</time></trkpt><trkpt lat="46.396244152364545" lon="12.10381790938021"><ele>1442.3333333333333</ele><time>2026-04-12T09:56:15.885Z</time></trkpt><trkpt lat="46.39626626939772" lon="12.103680687282601"><ele>1443.0</ele><time>2026-04-12T09:56:17.885Z</time></trkpt><trkpt lat="46.396329604009246" lon="12.103649870344308"><ele>1443.6666666666667</ele><time>2026-04-12T09:56:18.885Z</time></trkpt><trkpt lat="46.39640709952944" lon="12.103695170867574"><ele>1444.3333333333335</ele><time>2026-04-12T09:56:19.885Z</time></trkpt><trkpt lat="46.396494876902025" lon="12.103801777706213"><ele>1445.0</ele><time>2026-04-12T09:56:20.885Z</time></trkpt><trkpt lat="46.396551102225935" lon="12.103927795208525"><ele>1444.3333333333335</ele><time>2026-04-12T09:56:21.885Z</time></trkpt><trkpt lat="46.39660609687798" lon="12.104009896117436"><ele>1443.6666666666667</ele><time>2026-04-12T09:56:22.885Z</time></trkpt><trkpt lat="46.39663090369795" lon="12.104095577940068"><ele>1443.0</ele><time>2026-04-12T09:56:23.885Z</time></trkpt><trkpt lat="46.396682462885586" lon="12.10417494951197"><ele>1442.3333333333333</ele><time>2026-04-12T09:56:24.885Z</time></trkpt><trkpt lat="46.39676282429365" lon="12.104212142959781"><ele>1441.6666666666665</ele><time>2026-04-12T09:56:25.885Z</time></trkpt><trkpt lat="46.39685051692652" lon="12.10417150391399"><ele>1441.0</ele><time>2026-04-12T09:56:26.885Z</time></trkpt><trkpt lat="46.39691821151554" lon="12.104085265425054"><ele>1444.0</ele><time>2026-04-12T09:56:27.885Z</time></trkpt><trkpt lat="46.396959448646626" lon="12.103951659208027"><ele>1447.0</ele><time>2026-04-12T09:56:28.885Z</time></trkpt><trkpt lat="46.396966946411254" lon="12.103816379467471"><ele>1450.0</ele><time>2026-04-12T09:56:29.885Z</time></trkpt><trkpt lat="46.396956332232776" lon="12.10370805847658"><ele>1453.0</ele><time>2026-04-12T09:56:30.885Z</time></trkpt><trkpt lat="46.39693400458833" lon="12.10359782350846"><ele>1456.0</ele><time>2026-04-12T09:56:31.885Z</time></trkpt><trkpt lat="46.39688347647713" lon="12.103480782434419"><ele>1459.0</ele><time>2026-04-12T09:56:32.885Z</time></trkpt><trkpt lat="46.39681537498447" lon="12.10340458366935"><ele>1459.0</ele><time>2026-04-12T09:56:33.885Z</time></trkpt><trkpt lat="46.39672228609401" lon="12.103392251150659"><ele>1459.0</ele><time>2026-04-12T09:56:34.885Z</time></trkpt><trkpt lat="46.3966485214375" lon="12.103437899615743"><ele>1459.0</ele><time>2026-04-12T09:56:35.885Z</time></trkpt><trkpt lat="46.39658443805333" lon="12.10345336535196"><ele>1459.0</ele><time>2026-04-12T09:56:36.885Z</time></trkpt><trkpt lat="46.39651685959778" lon="12.103466394694983"><ele>1459.0</ele><time>2026-04-12T09:56:37.885Z</time></trkpt><trkpt lat="46.396456533508704" lon="12.103357255684887"><ele>1459.0</ele><time>2026-04-12T09:56:39.885Z</time></trkpt><trkpt lat="46.39649167008284" lon="12.103263101548452"><ele>1467.5</ele><time>2026-04-12T09:56:40.885Z</time></trkpt><trkpt lat="46.396564229367776" lon="12.103231346179381"><ele>1476.0</ele><time>2026-04-12T09:56:41.885Z</time></trkpt><trkpt lat="46.39665982879433" lon="12.103225555280423"><ele>1484.5</ele><time>2026-04-12T09:56:42.885Z</time></trkpt><trkpt lat="46.39678558672642" lon="12.10313291181751"><ele>1493.0</ele><time>2026-04-12T09:56:43.885Z</time></trkpt><trkpt lat="46.39690617152661" lon="12.103000438492902"><ele>1493.0</ele><time>2026-04-12T09:56:44.885Z</time></trkpt><trkpt lat="46.39701506233442" lon="12.10288465036492"><ele>1493.0</ele><time>2026-04-12T09:56:45.885Z</time></trkpt><trkpt lat="46.39713064902845" lon="12.102847056154951"><ele>1493.0</ele><time>2026-04-12T09:56:46.885Z</time></trkpt><trkpt lat="46.39727442819301" lon="12.102893474408713"><ele>1493.0</ele><time>2026-04-12T09:56:47.885Z</time></trkpt><trkpt lat="46.397431391778845" lon="12.102944337143976"><ele>1489.0</ele><time>2026-04-12T09:56:48.885Z</time></trkpt><trkpt lat="46.3975995921671" lon="12.103059137367193"><ele>1485.0</ele><time>2026-04-12T09:56:49.885Z</time></trkpt><trkpt lat="46.397752345559795" lon="12.103155225730829"><ele>1481.0</ele><time>2026-04-12T09:56:50.885Z</time></trkpt><trkpt lat="46.39788136472103" lon="12.103223755182485"><ele>1480.1999999999998</ele><time>2026-04-12T09:56:51.885Z</time></trkpt><trkpt lat="46.39799081311828" lon="12.103276668482712"><ele>1479.3999999999999</ele><time>2026-04-12T09:56:52.885Z</time></trkpt><trkpt lat="46.39808288787025" lon="12.103327357082637"><ele>1478.6</ele><time>2026-04-12T09:56:53.885Z</time></trkpt><trkpt lat="46.39816093825393" lon="12.103377758657864"><ele>1477.8</ele><time>2026-04-12T09:56:54.885Z</time></trkpt><trkpt lat="46.398230247548916" lon="12.103393846424073"><ele>1477.0</ele><time>2026-04-12T09:56:55.886Z</time></trkpt><trkpt lat="46.39832760883572" lon="12.103306350553494"><ele>1477.8</ele><time>2026-04-12T09:56:57.886Z</time></trkpt><trkpt lat="46.39832229678616" lon="12.103192180939567"><ele>1478.6</ele><time>2026-04-12T09:56:58.886Z</time></trkpt><trkpt lat="46.39825402022664" lon="12.10308593353321"><ele>1479.3999999999999</ele><time>2026-04-12T09:56:59.886Z</time></trkpt><trkpt lat="46.39817293412075" lon="12.102994129536635"><ele>1480.1999999999998</ele><time>2026-04-12T09:57:00.886Z</time></trkpt><trkpt lat="46.39803065705962" lon="12.102867492333994"><ele>1481.0</ele><time>2026-04-12T09:57:01.886Z</time></trkpt><trkpt lat="46.397895517513106" lon="12.10273011478647"><ele>1481.0</ele><time>2026-04-12T09:57:02.886Z</time></trkpt><trkpt lat="46.397783442618966" lon="12.102617519741322"><ele>1481.0</ele><time>2026-04-12T09:57:03.886Z</time></trkpt><trkpt lat="46.39769751566403" lon="12.10252945893159"><ele>1481.0</ele><time>2026-04-12T09:57:04.886Z</time></trkpt><trkpt lat="46.39759921015155" lon="12.10243893382311"><ele>1481.0</ele><time>2026-04-12T09:57:05.887Z</time></trkpt><trkpt lat="46.39749884760325" lon="12.102343283136278"><ele>1488.0</ele><time>2026-04-12T09:57:06.887Z</time></trkpt><trkpt lat="46.39738388285386" lon="12.10225658170209"><ele>1495.0</ele><time>2026-04-12T09:57:07.887Z</time></trkpt><trkpt lat="46.397283583009376" lon="12.102182911123252"><ele>1502.0</ele><time>2026-04-12T09:57:08.887Z</time></trkpt><trkpt lat="46.39718956833415" lon="12.102161851090033"><ele>1509.0</ele><time>2026-04-12T09:57:09.887Z</time></trkpt><trkpt lat="46.39710636831163" lon="12.102156127434206"><ele>1516.0</ele><time>2026-04-12T09:57:10.887Z</time></trkpt><trkpt lat="46.39700028345554" lon="12.102113738639963"><ele>1516.0</ele><time>2026-04-12T09:57:12.887Z</time></trkpt><trkpt lat="46.3969786334209" lon="12.101977788987773"><ele>1516.0</ele><time>2026-04-12T09:57:14.887Z</time></trkpt><trkpt lat="46.39704153034973" lon="12.101939294181264"><ele>1516.0</ele><time>2026-04-12T09:57:15.887Z</time></trkpt><trkpt lat="46.397132498236026" lon="12.101929237936641"><ele>1516.0</ele><time>2026-04-12T09:57:16.887Z</time></trkpt><trkpt lat="46.39722368531667" lon="12.101977991882617"><ele>1516.0</ele><time>2026-04-12T09:57:17.887Z</time></trkpt><trkpt lat="46.39734865076077" lon="12.102046305667862"><ele>1516.0</ele><time>2026-04-12T09:57:18.887Z</time></trkpt><trkpt lat="46.397506455209914" lon="12.102102804585215"><ele>1516.0</ele><time>2026-04-12T09:57:19.887Z</time></trkpt><trkpt lat="46.39764051276357" lon="12.102154141381192"><ele>1516.0</ele><time>2026-04-12T09:57:20.887Z</time></trkpt><trkpt lat="46.39775504988622" lon="12.102203189949686"><ele>1516.0</ele><time>2026-04-12T09:57:21.887Z</time></trkpt><trkpt lat="46.397871067759525" lon="12.102276897328382"><ele>1516.0</ele><time>2026-04-12T09:57:22.887Z</time></trkpt><trkpt lat="46.3979931017032" lon="12.102360480440693"><ele>1516.0</ele><time>2026-04-12T09:57:23.887Z</time></trkpt><trkpt lat="46.398118831374404" lon="12.102460892163958"><ele>1516.0</ele><time>2026-04-12T09:57:24.887Z</time></trkpt><trkpt lat="46.3982571630165" lon="12.102574519078502"><ele>1516.0</ele><time>2026-04-12T09:57:25.887Z</time></trkpt><trkpt lat="46.398408337857134" lon="12.10271001542938"><ele>1515.6666666666665</ele><time>2026-04-12T09:57:26.887Z</time></trkpt><trkpt lat="46.39855609505022" lon="12.102844573239416"><ele>1515.3333333333333</ele><time>2026-04-12T09:57:27.887Z</time></trkpt><trkpt lat="46.39868636394734" lon="12.102958701279755"><ele>1515.0</ele><time>2026-04-12T09:57:28.887Z</time></trkpt><trkpt lat="46.39884369248656" lon="12.103030821019466"><ele>1515.0</ele><time>2026-04-12T09:57:29.887Z</time></trkpt><trkpt lat="46.399020436735505" lon="12.103072555882488"><ele>1515.0</ele><time>2026-04-12T09:57:30.887Z</time></trkpt><trkpt lat="46.399188625284204" lon="12.103123746936582"><ele>1515.0</ele><time>2026-04-12T09:57:31.887Z</time></trkpt><trkpt lat="46.39931239708331" lon="12.103179286319763"><ele>1515.0</ele><time>2026-04-12T09:57:32.887Z</time></trkpt><trkpt lat="46.39941373148074" lon="12.10320152595047"><ele>1515.0</ele><time>2026-04-12T09:57:33.887Z</time></trkpt><trkpt lat="46.39951812876597" lon="12.103218734031184"><ele>1515.0</ele><time>2026-04-12T09:57:34.887Z</time></trkpt><trkpt lat="46.39961985722163" lon="12.103185581726985"><ele>1515.0</ele><time>2026-04-12T09:57:35.887Z</time></trkpt><trkpt lat="46.39970224300015" lon="12.103099802889172"><ele>1515.0</ele><time>2026-04-12T09:57:36.887Z</time></trkpt><trkpt lat="46.399813113775785" lon="12.10304847532968"><ele>1515.8</ele><time>2026-04-12T09:57:37.887Z</time></trkpt><trkpt lat="46.39986349616095" lon="12.102918579743562"><ele>1516.6</ele><time>2026-04-12T09:57:38.887Z</time></trkpt><trkpt lat="46.399920347861126" lon="12.102821642477133"><ele>1517.4</ele><time>2026-04-12T09:57:39.887Z</time></trkpt><trkpt lat="46.39999925401383" lon="12.10275193321134"><ele>1518.2</ele><time>2026-04-12T09:57:40.887Z</time></trkpt><trkpt lat="46.40010789699477" lon="12.102707469383603"><ele>1519.0</ele><time>2026-04-12T09:57:41.887Z</time></trkpt><trkpt lat="46.40019821547808" lon="12.102703142393597"><ele>1519.0</ele><time>2026-04-12T09:57:42.887Z</time></trkpt><trkpt lat="46.40029571932248" lon="12.1026950320934"><ele>1519.0</ele><time>2026-04-12T09:57:43.887Z</time></trkpt><trkpt lat="46.4004033845206" lon="12.102647809243551"><ele>1519.0</ele><time>2026-04-12T09:57:44.887Z</time></trkpt><trkpt lat="46.400515562559804" lon="12.102536585157461"><ele>1519.0</ele><time>2026-04-12T09:57:45.887Z</time></trkpt><trkpt lat="46.4006330086428" lon="12.102374941523314"><ele>1519.0</ele><time>2026-04-12T09:57:46.887Z</time></trkpt><trkpt lat="46.400722407278344" lon="12.102201243155124"><ele>1519.0</ele><time>2026-04-12T09:57:47.887Z</time></trkpt><trkpt lat="46.400798179624786" lon="12.102045406738931"><ele>1519.0</ele><time>2026-04-12T09:57:48.887Z</time></trkpt><trkpt lat="46.40089789762623" lon="12.101914428649787"><ele>1519.0</ele><time>2026-04-12T09:57:49.887Z</time></trkpt><trkpt lat="46.400998216772216" lon="12.101826552933613"><ele>1519.0</ele><time>2026-04-12T09:57:50.887Z</time></trkpt><trkpt lat="46.40111717896687" lon="12.10176607367752"><ele>1519.0</ele><time>2026-04-12T09:57:51.887Z</time></trkpt><trkpt lat="46.40123228409605" lon="12.101729821391022"><ele>1519.0</ele><time>2026-04-12T09:57:52.887Z</time></trkpt><trkpt lat="46.40135563106983" lon="12.10171610564268"><ele>1519.0</ele><time>2026-04-12T09:57:53.887Z</time></trkpt><trkpt lat="46.40148045205559" lon="12.101744693379855"><ele>1518.0</ele><time>2026-04-12T09:57:54.887Z</time></trkpt><trkpt lat="46.40161348215386" lon="12.10176801298187"><ele>1517.0</ele><time>2026-04-12T09:57:55.887Z</time></trkpt><trkpt lat="46.40175342713529" lon="12.101799176580522"><ele>1516.0</ele><time>2026-04-12T09:57:56.887Z</time></trkpt><trkpt lat="46.40189871653227" lon="12.101831335843391"><ele>1515.0</ele><time>2026-04-12T09:57:57.887Z</time></trkpt><trkpt lat="46.40205004451557" lon="12.101863360876148"><ele>1515.0</ele><time>2026-04-12T09:57:58.887Z</time></trkpt><trkpt lat="46.402198139146435" lon="12.101892617031321"><ele>1515.0</ele><time>2026-04-12T09:57:59.887Z</time></trkpt><trkpt lat="46.40232278403107" lon="12.101923615051712"><ele>1515.0</ele><time>2026-04-12T09:58:00.887Z</time></trkpt><trkpt lat="46.40245769146747" lon="12.101941111640995"><ele>1515.0</ele><time>2026-04-12T09:58:01.887Z</time></trkpt><trkpt lat="46.402610341723374" lon="12.101921978802586"><ele>1515.0</ele><time>2026-04-12T09:58:02.887Z</time></trkpt><trkpt lat="46.402760487119956" lon="12.101906927674962"><ele>1515.0</ele><time>2026-04-12T09:58:03.887Z</time></trkpt><trkpt lat="46.4029257153122" lon="12.101872325830868"><ele>1515.0</ele><time>2026-04-12T09:58:04.887Z</time></trkpt><trkpt lat="46.403098936813066" lon="12.10183649724031"><ele>1517.6666666666667</ele><time>2026-04-12T09:58:05.887Z</time></trkpt><trkpt lat="46.4032902717977" lon="12.101797404288842"><ele>1520.3333333333335</ele><time>2026-04-12T09:58:06.887Z</time></trkpt><trkpt lat="46.40349331812506" lon="12.101766215286137"><ele>1523.0</ele><time>2026-04-12T09:58:07.887Z</time></trkpt><trkpt lat="46.40371312752563" lon="12.101723330184026"><ele>1522.0</ele><time>2026-04-12T09:58:08.887Z</time></trkpt><trkpt lat="46.403905433764095" lon="12.101671765970178"><ele>1521.0</ele><time>2026-04-12T09:58:09.887Z</time></trkpt><trkpt lat="46.40408561666581" lon="12.10161534229884"><ele>1520.0</ele><time>2026-04-12T09:58:10.887Z</time></trkpt><trkpt lat="46.4042373504361" lon="12.101548811692945"><ele>1520.0</ele><time>2026-04-12T09:58:11.887Z</time></trkpt><trkpt lat="46.40438185401454" lon="12.101463007404266"><ele>1520.0</ele><time>2026-04-12T09:58:12.887Z</time></trkpt><trkpt lat="46.40453077928116" lon="12.10136301505351"><ele>1520.0</ele><time>2026-04-12T09:58:13.887Z</time></trkpt><trkpt lat="46.40467865227565" lon="12.101267270481756"><ele>1524.0</ele><time>2026-04-12T09:58:14.887Z</time></trkpt><trkpt lat="46.40482445560088" lon="12.101168521622242"><ele>1528.0</ele><time>2026-04-12T09:58:15.887Z</time></trkpt><trkpt lat="46.40496987709923" lon="12.101078508735823"><ele>1532.0</ele><time>2026-04-12T09:58:16.887Z</time></trkpt><trkpt lat="46.40511777905021" lon="12.100975206517102"><ele>1532.0</ele><time>2026-04-12T09:58:17.887Z</time></trkpt><trkpt lat="46.40526708942203" lon="12.100881903060635"><ele>1532.0</ele><time>2026-04-12T09:58:18.887Z</time></trkpt><trkpt lat="46.40541155914788" lon="12.100789789332337"><ele>1532.0</ele><time>2026-04-12T09:58:19.887Z</time></trkpt><trkpt lat="46.40556437958619" lon="12.100700188733901"><ele>1533.0</ele><time>2026-04-12T09:58:20.887Z</time></trkpt><trkpt lat="46.405718919209846" lon="12.10061335447098"><ele>1534.0</ele><time>2026-04-12T09:58:21.887Z</time></trkpt><trkpt lat="46.40588241256534" lon="12.100537108769801"><ele>1535.0</ele><time>2026-04-12T09:58:22.887Z</time></trkpt><trkpt lat="46.40604728028745" lon="12.100481713949439"><ele>1535.0</ele><time>2026-04-12T09:58:23.887Z</time></trkpt><trkpt lat="46.406213244325905" lon="12.10043142591988"><ele>1535.0</ele><time>2026-04-12T09:58:24.887Z</time></trkpt><trkpt lat="46.406362641574304" lon="12.100386746080604"><ele>1535.0</ele><time>2026-04-12T09:58:25.887Z</time></trkpt><trkpt lat="46.406492655741175" lon="12.100347414973804"><ele>1537.0</ele><time>2026-04-12T09:58:26.887Z</time></trkpt><trkpt lat="46.406596004035165" lon="12.100342951911786"><ele>1539.0</ele><time>2026-04-12T09:58:27.887Z</time></trkpt><trkpt lat="46.4066829605977" lon="12.100409217445346"><ele>1541.0</ele><time>2026-04-12T09:58:28.887Z</time></trkpt><trkpt lat="46.40674833729016" lon="12.100546693518472"><ele>1543.0</ele><time>2026-04-12T09:58:29.887Z</time></trkpt><trkpt lat="46.40672540463502" lon="12.100714845716578"><ele>1545.0</ele><time>2026-04-12T09:58:30.887Z</time></trkpt><trkpt lat="46.40666308496181" lon="12.100846038482253"><ele>1544.25</ele><time>2026-04-12T09:58:31.887Z</time></trkpt><trkpt lat="46.40658419427348" lon="12.100980208566744"><ele>1543.5</ele><time>2026-04-12T09:58:32.887Z</time></trkpt><trkpt lat="46.40649314892703" lon="12.101131957253193"><ele>1542.75</ele><time>2026-04-12T09:58:33.887Z</time></trkpt><trkpt lat="46.406399326890195" lon="12.101284986177921"><ele>1542.0</ele><time>2026-04-12T09:58:34.887Z</time></trkpt><trkpt lat="46.406316571023766" lon="12.101423829645368"><ele>1542.0</ele><time>2026-04-12T09:58:35.887Z</time></trkpt><trkpt lat="46.40626672298299" lon="12.101558019005543"><ele>1542.0</ele><time>2026-04-12T09:58:36.887Z</time></trkpt><trkpt lat="46.40625148356892" lon="12.101661230052734"><ele>1542.0</ele><time>2026-04-12T09:58:37.887Z</time></trkpt><trkpt lat="46.406277164868136" lon="12.101841526488743"><ele>1542.0</ele><time>2026-04-12T09:58:38.887Z</time></trkpt><trkpt lat="46.4063643768855" lon="12.101937508532911"><ele>1542.0</ele><time>2026-04-12T09:58:39.887Z</time></trkpt><trkpt lat="46.406480430745326" lon="12.101970752398067"><ele>1547.75</ele><time>2026-04-12T09:58:40.887Z</time></trkpt><trkpt lat="46.40659971858914" lon="12.101935067519852"><ele>1553.5</ele><time>2026-04-12T09:58:41.887Z</time></trkpt><trkpt lat="46.406704081449924" lon="12.101828319538198"><ele>1559.25</ele><time>2026-04-12T09:58:42.887Z</time></trkpt><trkpt lat="46.406802854245726" lon="12.101697768535036"><ele>1565.0</ele><time>2026-04-12T09:58:43.887Z</time></trkpt><trkpt lat="46.40692459964484" lon="12.101607283609884"><ele>1566.6666666666665</ele><time>2026-04-12T09:58:44.887Z</time></trkpt><trkpt lat="46.40706746478266" lon="12.101483225766371"><ele>1568.3333333333335</ele><time>2026-04-12T09:58:45.887Z</time></trkpt><trkpt lat="46.407229317451346" lon="12.101338679996951"><ele>1570.0</ele><time>2026-04-12T09:58:46.887Z</time></trkpt><trkpt lat="46.40737746080794" lon="12.101211321334576"><ele>1570.0</ele><time>2026-04-12T09:58:47.887Z</time></trkpt><trkpt lat="46.407535964510785" lon="12.10110061482221"><ele>1570.0</ele><time>2026-04-12T09:58:48.887Z</time></trkpt><trkpt lat="46.407694533357855" lon="12.100968537017916"><ele>1570.0</ele><time>2026-04-12T09:58:49.887Z</time></trkpt><trkpt lat="46.40784937893679" lon="12.100856508401675"><ele>1570.0</ele><time>2026-04-12T09:58:50.887Z</time></trkpt><trkpt lat="46.407992125623785" lon="12.1007502256763"><ele>1570.0</ele><time>2026-04-12T09:58:51.887Z</time></trkpt><trkpt lat="46.408104874771865" lon="12.100598473221883"><ele>1570.0</ele><time>2026-04-12T09:58:52.887Z</time></trkpt><trkpt lat="46.40819867333812" lon="12.100376064143465"><ele>1571.3333333333335</ele><time>2026-04-12T09:58:53.887Z</time></trkpt><trkpt lat="46.40825812725443" lon="12.100124271786006"><ele>1572.6666666666665</ele><time>2026-04-12T09:58:54.887Z</time></trkpt><trkpt lat="46.40828348517217" lon="12.09989448206154"><ele>1574.0</ele><time>2026-04-12T09:58:55.887Z</time></trkpt><trkpt lat="46.408323907637694" lon="12.09970044382359"><ele>1574.0</ele><time>2026-04-12T09:58:56.887Z</time></trkpt><trkpt lat="46.408389237140966" lon="12.099554102065142"><ele>1574.0</ele><time>2026-04-12T09:58:57.887Z</time></trkpt><trkpt lat="46.40846745173319" lon="12.099444176092986"><ele>1574.0</ele><time>2026-04-12T09:58:58.887Z</time></trkpt><trkpt lat="46.408558951923176" lon="12.099355982072156"><ele>1574.0</ele><time>2026-04-12T09:58:59.887Z</time></trkpt><trkpt lat="46.408669156009346" lon="12.09929303263731"><ele>1574.0</ele><time>2026-04-12T09:59:00.887Z</time></trkpt><trkpt lat="46.408770937354525" lon="12.099278707833552"><ele>1574.0</ele><time>2026-04-12T09:59:01.888Z</time></trkpt><trkpt lat="46.40885430361906" lon="12.099260114181963"><ele>1574.0</ele><time>2026-04-12T09:59:02.888Z</time></trkpt><trkpt lat="46.4089153510059" lon="12.099373375192025"><ele>1574.0</ele><time>2026-04-12T09:59:03.888Z</time></trkpt><trkpt lat="46.408966817370974" lon="12.099459910456659"><ele>1574.0</ele><time>2026-04-12T09:59:04.888Z</time></trkpt><trkpt lat="46.409003280532346" lon="12.099573071446006"><ele>1576.75</ele><time>2026-04-12T09:59:05.888Z</time></trkpt><trkpt lat="46.40901777391825" lon="12.099707813815892"><ele>1579.5</ele><time>2026-04-12T09:59:06.888Z</time></trkpt><trkpt lat="46.4090117617189" lon="12.099849800697735"><ele>1582.25</ele><time>2026-04-12T09:59:07.888Z</time></trkpt><trkpt lat="46.40897085716387" lon="12.099995679504465"><ele>1585.0</ele><time>2026-04-12T09:59:08.888Z</time></trkpt><trkpt lat="46.408878717572385" lon="12.100188421289394"><ele>1584.25</ele><time>2026-04-12T09:59:09.888Z</time></trkpt><trkpt lat="46.40881675839504" lon="12.100415596267062"><ele>1583.5</ele><time>2026-04-12T09:59:10.888Z</time></trkpt><trkpt lat="46.4087470993196" lon="12.100588787734052"><ele>1582.75</ele><time>2026-04-12T09:59:11.888Z</time></trkpt><trkpt lat="46.40869612510393" lon="12.100757754477142"><ele>1582.0</ele><time>2026-04-12T09:59:12.888Z</time></trkpt><trkpt lat="46.40863045214256" lon="12.100904786673501"><ele>1583.5</ele><time>2026-04-12T09:59:13.888Z</time></trkpt><trkpt lat="46.408573260096084" lon="12.101054527853986"><ele>1585.0</ele><time>2026-04-12T09:59:14.888Z</time></trkpt><trkpt lat="46.408548557103934" lon="12.101221302696255"><ele>1586.5</ele><time>2026-04-12T09:59:15.888Z</time></trkpt><trkpt lat="46.40853843337112" lon="12.101426126227473"><ele>1588.0</ele><time>2026-04-12T09:59:16.888Z</time></trkpt><trkpt lat="46.40850396914567" lon="12.101608452671256"><ele>1590.0</ele><time>2026-04-12T09:59:17.888Z</time></trkpt><trkpt lat="46.408497938719016" lon="12.101776835016043"><ele>1592.0</ele><time>2026-04-12T09:59:18.888Z</time></trkpt><trkpt lat="46.408517846238816" lon="12.101895838426488"><ele>1594.0</ele><time>2026-04-12T09:59:19.888Z</time></trkpt><trkpt lat="46.408576106060366" lon="12.101996279113838"><ele>1596.0</ele><time>2026-04-12T09:59:20.888Z</time></trkpt><trkpt lat="46.40864001450198" lon="12.102057607800663"><ele>1598.0</ele><time>2026-04-12T09:59:21.888Z</time></trkpt><trkpt lat="46.4087282409365" lon="12.102057744844059"><ele>1598.0</ele><time>2026-04-12T09:59:22.888Z</time></trkpt><trkpt lat="46.40881161512246" lon="12.101991857558739"><ele>1598.0</ele><time>2026-04-12T09:59:23.888Z</time></trkpt><trkpt lat="46.40887144062202" lon="12.101876377030173"><ele>1598.0</ele><time>2026-04-12T09:59:24.888Z</time></trkpt><trkpt lat="46.40888487315238" lon="12.101733815232262"><ele>1598.0</ele><time>2026-04-12T09:59:25.888Z</time></trkpt><trkpt lat="46.40886645187278" lon="12.10157792088332"><ele>1598.0</ele><time>2026-04-12T09:59:26.888Z</time></trkpt><trkpt lat="46.408841879417736" lon="12.101445170950438"><ele>1599.8000000000002</ele><time>2026-04-12T09:59:27.888Z</time></trkpt><trkpt lat="46.40883339817384" lon="12.101312045462112"><ele>1601.6</ele><time>2026-04-12T09:59:28.888Z</time></trkpt><trkpt lat="46.408874648719916" lon="12.101195809252165"><ele>1603.4</ele><time>2026-04-12T09:59:29.888Z</time></trkpt><trkpt lat="46.408952193166066" lon="12.101106690933538"><ele>1605.1999999999998</ele><time>2026-04-12T09:59:30.888Z</time></trkpt><trkpt lat="46.40904704996563" lon="12.10103289633143"><ele>1607.0</ele><time>2026-04-12T09:59:31.888Z</time></trkpt><trkpt lat="46.409173441484455" lon="12.100933158753605"><ele>1607.0</ele><time>2026-04-12T09:59:32.888Z</time></trkpt><trkpt lat="46.40930941827531" lon="12.100849675831663"><ele>1607.0</ele><time>2026-04-12T09:59:33.888Z</time></trkpt><trkpt lat="46.409434725041656" lon="12.100735573375138"><ele>1607.0</ele><time>2026-04-12T09:59:34.888Z</time></trkpt><trkpt lat="46.409537422223025" lon="12.100648055252366"><ele>1607.0</ele><time>2026-04-12T09:59:35.888Z</time></trkpt><trkpt lat="46.409640060068945" lon="12.100562742404941"><ele>1607.75</ele><time>2026-04-12T09:59:36.888Z</time></trkpt><trkpt lat="46.40975237926559" lon="12.100483105882525"><ele>1608.5</ele><time>2026-04-12T09:59:37.888Z</time></trkpt><trkpt lat="46.40985787335866" lon="12.100411110548139"><ele>1609.25</ele><time>2026-04-12T09:59:38.888Z</time></trkpt><trkpt lat="46.40998498309547" lon="12.100406480188221"><ele>1610.0</ele><time>2026-04-12T09:59:39.888Z</time></trkpt><trkpt lat="46.410131181185456" lon="12.100416957049795"><ele>1610.0</ele><time>2026-04-12T09:59:40.888Z</time></trkpt><trkpt lat="46.41029447693617" lon="12.10042260892304"><ele>1610.0</ele><time>2026-04-12T09:59:41.888Z</time></trkpt><trkpt lat="46.41046148592783" lon="12.10043666167632"><ele>1610.0</ele><time>2026-04-12T09:59:42.888Z</time></trkpt><trkpt lat="46.410612846100875" lon="12.100449336238379"><ele>1612.25</ele><time>2026-04-12T09:59:43.888Z</time></trkpt><trkpt lat="46.41074365529867" lon="12.100457295261723"><ele>1614.5</ele><time>2026-04-12T09:59:44.888Z</time></trkpt><trkpt lat="46.4108748815625" lon="12.100439833924364"><ele>1616.75</ele><time>2026-04-12T09:59:45.888Z</time></trkpt><trkpt lat="46.41100362008864" lon="12.100375242022396"><ele>1619.0</ele><time>2026-04-12T09:59:46.888Z</time></trkpt><trkpt lat="46.411096382881496" lon="12.100284300468132"><ele>1619.0</ele><time>2026-04-12T09:59:47.888Z</time></trkpt><trkpt lat="46.41120569359275" lon="12.100246265202152"><ele>1619.0</ele><time>2026-04-12T09:59:48.888Z</time></trkpt><trkpt lat="46.411384832297706" lon="12.100145371964302"><ele>1619.0</ele><time>2026-04-12T09:59:49.888Z</time></trkpt><trkpt lat="46.411534158243526" lon="12.10013019184241"><ele>1623.6666666666665</ele><time>2026-04-12T09:59:50.888Z</time></trkpt><trkpt lat="46.4116902373743" lon="12.100121534514118"><ele>1628.3333333333335</ele><time>2026-04-12T09:59:51.888Z</time></trkpt><trkpt lat="46.41184979660802" lon="12.100160959127034"><ele>1633.0</ele><time>2026-04-12T09:59:52.888Z</time></trkpt><trkpt lat="46.41199135587433" lon="12.10020656081947"><ele>1633.0</ele><time>2026-04-12T09:59:53.888Z</time></trkpt><trkpt lat="46.41210796585939" lon="12.10025375064863"><ele>1633.0</ele><time>2026-04-12T09:59:54.888Z</time></trkpt><trkpt lat="46.41223474922702" lon="12.100232807167233"><ele>1633.0</ele><time>2026-04-12T09:59:55.888Z</time></trkpt><trkpt lat="46.41235375040707" lon="12.100182780916722"><ele>1633.0</ele><time>2026-04-12T09:59:56.888Z</time></trkpt><trkpt lat="46.41245684898972" lon="12.100055858327861"><ele>1636.0</ele><time>2026-04-12T09:59:57.888Z</time></trkpt><trkpt lat="46.412518066795606" lon="12.099880374680051"><ele>1639.0</ele><time>2026-04-12T09:59:58.888Z</time></trkpt><trkpt lat="46.41253327365323" lon="12.099700465043359"><ele>1642.0</ele><time>2026-04-12T09:59:59.888Z</time></trkpt><trkpt lat="46.41253060235935" lon="12.099553176599109"><ele>1645.0</ele><time>2026-04-12T10:00:00.888Z</time></trkpt><trkpt lat="46.41259028507978" lon="12.099440659262463"><ele>1645.0</ele><time>2026-04-12T10:00:01.888Z</time></trkpt><trkpt lat="46.412665470358554" lon="12.09931855289218"><ele>1645.0</ele><time>2026-04-12T10:00:02.888Z</time></trkpt><trkpt lat="46.41277276081501" lon="12.099227110125211"><ele>1645.0</ele><time>2026-04-12T10:00:03.888Z</time></trkpt><trkpt lat="46.41289230276045" lon="12.0991508153368"><ele>1645.0</ele><time>2026-04-12T10:00:04.888Z</time></trkpt><trkpt lat="46.41304921499485" lon="12.099101953993927"><ele>1643.6666666666667</ele><time>2026-04-12T10:00:05.888Z</time></trkpt><trkpt lat="46.41320381287227" lon="12.09907647859326"><ele>1642.3333333333335</ele><time>2026-04-12T10:00:06.888Z</time></trkpt><trkpt lat="46.41337938743551" lon="12.099058689497316"><ele>1641.0</ele><time>2026-04-12T10:00:07.888Z</time></trkpt><trkpt lat="46.4135372650928" lon="12.099019246955056"><ele>1641.0</ele><time>2026-04-12T10:00:08.888Z</time></trkpt><trkpt lat="46.41368160104146" lon="12.098976313001252"><ele>1641.0</ele><time>2026-04-12T10:00:09.888Z</time></trkpt><trkpt lat="46.413813542677424" lon="12.098917944166553"><ele>1641.0</ele><time>2026-04-12T10:00:10.888Z</time></trkpt><trkpt lat="46.41394279757276" lon="12.098834878123185"><ele>1641.0</ele><time>2026-04-12T10:00:11.888Z</time></trkpt><trkpt lat="46.41406744505885" lon="12.098730410934477"><ele>1644.75</ele><time>2026-04-12T10:00:12.888Z</time></trkpt><trkpt lat="46.41417499325176" lon="12.098599466684101"><ele>1648.5</ele><time>2026-04-12T10:00:13.888Z</time></trkpt><trkpt lat="46.41429115929814" lon="12.098484877487449"><ele>1652.25</ele><time>2026-04-12T10:00:14.888Z</time></trkpt><trkpt lat="46.41443502213234" lon="12.098422112453086"><ele>1656.0</ele><time>2026-04-12T10:00:15.888Z</time></trkpt><trkpt lat="46.414569305918334" lon="12.09832866948471"><ele>1659.0</ele><time>2026-04-12T10:00:16.888Z</time></trkpt><trkpt lat="46.41470783399118" lon="12.098265201994817"><ele>1662.0</ele><time>2026-04-12T10:00:17.888Z</time></trkpt><trkpt lat="46.414862618796924" lon="12.098252775462498"><ele>1665.0</ele><time>2026-04-12T10:00:18.888Z</time></trkpt><trkpt lat="46.41501522202211" lon="12.098283255106153"><ele>1665.0</ele><time>2026-04-12T10:00:19.888Z</time></trkpt><trkpt lat="46.4151627260267" lon="12.098339442132696"><ele>1665.0</ele><time>2026-04-12T10:00:20.888Z</time></trkpt><trkpt lat="46.41529954121469" lon="12.098437045332108"><ele>1665.0</ele><time>2026-04-12T10:00:21.888Z</time></trkpt><trkpt lat="46.41540118447614" lon="12.098590290929584"><ele>1665.0</ele><time>2026-04-12T10:00:22.888Z</time></trkpt><trkpt lat="46.41547454223492" lon="12.098796233131608"><ele>1665.0</ele><time>2026-04-12T10:00:23.888Z</time></trkpt><trkpt lat="46.41556994725019" lon="12.098995539755384"><ele>1665.0</ele><time>2026-04-12T10:00:24.888Z</time></trkpt><trkpt lat="46.41564840359224" lon="12.099203679597526"><ele>1666.0</ele><time>2026-04-12T10:00:25.888Z</time></trkpt><trkpt lat="46.41573160109674" lon="12.099402101160516"><ele>1667.0</ele><time>2026-04-12T10:00:26.888Z</time></trkpt><trkpt lat="46.41582611485714" lon="12.099569009698898"><ele>1668.0</ele><time>2026-04-12T10:00:27.888Z</time></trkpt><trkpt lat="46.41594040194523" lon="12.099714418440913"><ele>1668.0</ele><time>2026-04-12T10:00:28.888Z</time></trkpt><trkpt lat="46.41608386261115" lon="12.09983969335821"><ele>1668.0</ele><time>2026-04-12T10:00:29.888Z</time></trkpt><trkpt lat="46.416214257914625" lon="12.099933774386123"><ele>1668.0</ele><time>2026-04-12T10:00:30.888Z</time></trkpt><trkpt lat="46.41635507359501" lon="12.100051401403311"><ele>1670.6666666666665</ele><time>2026-04-12T10:00:31.888Z</time></trkpt><trkpt lat="46.416495099981574" lon="12.100164826981525"><ele>1673.3333333333333</ele><time>2026-04-12T10:00:32.888Z</time></trkpt><trkpt lat="46.4166914755625" lon="12.100266449513548"><ele>1676.0</ele><time>2026-04-12T10:00:33.888Z</time></trkpt><trkpt lat="46.41685838155659" lon="12.100376645557088"><ele>1676.0</ele><time>2026-04-12T10:00:34.888Z</time></trkpt><trkpt lat="46.4170108235312" lon="12.100486099111427"><ele>1676.0</ele><time>2026-04-12T10:00:35.888Z</time></trkpt><trkpt lat="46.417154805344154" lon="12.100573987910296"><ele>1676.0</ele><time>2026-04-12T10:00:36.888Z</time></trkpt><trkpt lat="46.41730517032318" lon="12.100661414753334"><ele>1676.25</ele><time>2026-04-12T10:00:37.888Z</time></trkpt><trkpt lat="46.41746888608391" lon="12.10073051312719"><ele>1676.5</ele><time>2026-04-12T10:00:38.888Z</time></trkpt><trkpt lat="46.417537871945854" lon="12.100783745962906"><ele>1676.75</ele><time>2026-04-12T10:00:39.888Z</time></trkpt><trkpt lat="46.41763813174639" lon="12.100786701342575"><ele>1677.0</ele><time>2026-04-12T10:00:40.888Z</time></trkpt><trkpt lat="46.4177687136358" lon="12.100724381825513"><ele>1677.0</ele><time>2026-04-12T10:00:41.888Z</time></trkpt><trkpt lat="46.41787510120714" lon="12.100608758606404"><ele>1677.0</ele><time>2026-04-12T10:00:42.888Z</time></trkpt><trkpt lat="46.41797040028095" lon="12.100437468545334"><ele>1677.0</ele><time>2026-04-12T10:00:43.888Z</time></trkpt><trkpt lat="46.41804332400931" lon="12.100232786643026"><ele>1677.0</ele><time>2026-04-12T10:00:44.888Z</time></trkpt><trkpt lat="46.41809656372007" lon="12.100024527104054"><ele>1684.0</ele><time>2026-04-12T10:00:45.888Z</time></trkpt><trkpt lat="46.41816834153907" lon="12.099832815302165"><ele>1691.0</ele><time>2026-04-12T10:00:46.888Z</time></trkpt><trkpt lat="46.41824688971683" lon="12.099659691102678"><ele>1698.0</ele><time>2026-04-12T10:00:47.888Z</time></trkpt><trkpt lat="46.41830214140344" lon="12.099469163019295"><ele>1705.0</ele><time>2026-04-12T10:00:48.888Z</time></trkpt><trkpt lat="46.41832500302348" lon="12.099260887735694"><ele>1706.6666666666667</ele><time>2026-04-12T10:00:49.888Z</time></trkpt><trkpt lat="46.41831636281959" lon="12.099030930622833"><ele>1708.3333333333335</ele><time>2026-04-12T10:00:50.888Z</time></trkpt><trkpt lat="46.41828081841817" lon="12.098786593535136"><ele>1710.0</ele><time>2026-04-12T10:00:51.888Z</time></trkpt><trkpt lat="46.4182366005512" lon="12.09855021259031"><ele>1710.0</ele><time>2026-04-12T10:00:52.888Z</time></trkpt><trkpt lat="46.418192440554556" lon="12.098305549935539"><ele>1710.0</ele><time>2026-04-12T10:00:53.888Z</time></trkpt><trkpt lat="46.41819453179541" lon="12.098033527520828"><ele>1710.0</ele><time>2026-04-12T10:00:54.888Z</time></trkpt><trkpt lat="46.41820155886012" lon="12.097765301086708"><ele>1710.3333333333335</ele><time>2026-04-12T10:00:55.888Z</time></trkpt><trkpt lat="46.41821988061672" lon="12.097475924015184"><ele>1710.6666666666667</ele><time>2026-04-12T10:00:56.888Z</time></trkpt><trkpt lat="46.4182514101511" lon="12.097208508849565"><ele>1711.0</ele><time>2026-04-12T10:00:57.888Z</time></trkpt><trkpt lat="46.41828589280392" lon="12.09696896391188"><ele>1712.6666666666667</ele><time>2026-04-12T10:00:58.888Z</time></trkpt><trkpt lat="46.418314680982924" lon="12.096727659216405"><ele>1714.3333333333335</ele><time>2026-04-12T10:00:59.888Z</time></trkpt><trkpt lat="46.41833623498207" lon="12.096485805619793"><ele>1716.0</ele><time>2026-04-12T10:01:00.888Z</time></trkpt><trkpt lat="46.4183372731331" lon="12.09624767899582"><ele>1715.6666666666665</ele><time>2026-04-12T10:01:01.888Z</time></trkpt><trkpt lat="46.41830877632826" lon="12.096010498844256"><ele>1715.3333333333333</ele><time>2026-04-12T10:01:02.888Z</time></trkpt><trkpt lat="46.41829509841717" lon="12.0957946856335"><ele>1715.0</ele><time>2026-04-12T10:01:03.888Z</time></trkpt><trkpt lat="46.41825605254759" lon="12.095598937669404"><ele>1715.0</ele><time>2026-04-12T10:01:04.888Z</time></trkpt><trkpt lat="46.41826295395793" lon="12.095409609515286"><ele>1715.0</ele><time>2026-04-12T10:01:05.888Z</time></trkpt><trkpt lat="46.41832561625262" lon="12.095203508697937"><ele>1715.0</ele><time>2026-04-12T10:01:06.888Z</time></trkpt><trkpt lat="46.41840060007263" lon="12.095010906028811"><ele>1715.0</ele><time>2026-04-12T10:01:07.889Z</time></trkpt><trkpt lat="46.41846292320047" lon="12.094835872332885"><ele>1713.3333333333333</ele><time>2026-04-12T10:01:08.889Z</time></trkpt><trkpt lat="46.4185076349249" lon="12.09470200458734"><ele>1711.6666666666665</ele><time>2026-04-12T10:01:09.889Z</time></trkpt><trkpt lat="46.41854337251931" lon="12.094601003921875"><ele>1710.0</ele><time>2026-04-12T10:01:10.889Z</time></trkpt><trkpt lat="46.418603552684665" lon="12.094565535264355"><ele>1708.3333333333335</ele><time>2026-04-12T10:01:11.889Z</time></trkpt><trkpt lat="46.41866571953182" lon="12.09462384979671"><ele>1706.6666666666667</ele><time>2026-04-12T10:01:12.889Z</time></trkpt><trkpt lat="46.41866640093587" lon="12.094755911623624"><ele>1705.0</ele><time>2026-04-12T10:01:13.889Z</time></trkpt><trkpt lat="46.41860078901074" lon="12.094842179396894"><ele>1707.5</ele><time>2026-04-12T10:01:14.889Z</time></trkpt><trkpt lat="46.41856605591738" lon="12.094981656394037"><ele>1710.0</ele><time>2026-04-12T10:01:15.889Z</time></trkpt><trkpt lat="46.41853116164199" lon="12.09514219179552"><ele>1712.5</ele><time>2026-04-12T10:01:16.889Z</time></trkpt><trkpt lat="46.418517913049286" lon="12.095348031168921"><ele>1715.0</ele><time>2026-04-12T10:01:17.889Z</time></trkpt><trkpt lat="46.41851348218623" lon="12.095550710886386"><ele>1715.0</ele><time>2026-04-12T10:01:18.889Z</time></trkpt><trkpt lat="46.418534028571806" lon="12.095733347621072"><ele>1715.0</ele><time>2026-04-12T10:01:19.889Z</time></trkpt><trkpt lat="46.41855735357701" lon="12.095908633975618"><ele>1715.0</ele><time>2026-04-12T10:01:20.889Z</time></trkpt><trkpt lat="46.41856054386332" lon="12.096081459862837"><ele>1715.0</ele><time>2026-04-12T10:01:21.889Z</time></trkpt><trkpt lat="46.41858843230126" lon="12.09624443181778"><ele>1715.25</ele><time>2026-04-12T10:01:22.889Z</time></trkpt><trkpt lat="46.418595445444545" lon="12.096412934865683"><ele>1715.5</ele><time>2026-04-12T10:01:23.889Z</time></trkpt><trkpt lat="46.41860756604213" lon="12.096593256183333"><ele>1715.75</ele><time>2026-04-12T10:01:24.889Z</time></trkpt><trkpt lat="46.41861723581992" lon="12.09677974214941"><ele>1716.0</ele><time>2026-04-12T10:01:25.889Z</time></trkpt><trkpt lat="46.418625762280136" lon="12.096977936943436"><ele>1716.0</ele><time>2026-04-12T10:01:26.889Z</time></trkpt><trkpt lat="46.41866949700696" lon="12.09717101176982"><ele>1716.0</ele><time>2026-04-12T10:01:27.889Z</time></trkpt><trkpt lat="46.41874692389583" lon="12.097338834604326"><ele>1716.0</ele><time>2026-04-12T10:01:28.889Z</time></trkpt><trkpt lat="46.41886253127329" lon="12.097487444506529"><ele>1716.0</ele><time>2026-04-12T10:01:29.889Z</time></trkpt><trkpt lat="46.41894073970779" lon="12.097693909817275"><ele>1729.0</ele><time>2026-04-12T10:01:30.889Z</time></trkpt><trkpt lat="46.41899439803078" lon="12.097924287372434"><ele>1742.0</ele><time>2026-04-12T10:01:31.889Z</time></trkpt><trkpt lat="46.4190214983504" lon="12.098166950565345"><ele>1755.0</ele><time>2026-04-12T10:01:32.889Z</time></trkpt><trkpt lat="46.41904663003849" lon="12.098439816861466"><ele>1754.0</ele><time>2026-04-12T10:01:33.889Z</time></trkpt><trkpt lat="46.41906824556626" lon="12.098729387507275"><ele>1753.0</ele><time>2026-04-12T10:01:34.889Z</time></trkpt><trkpt lat="46.41911707718864" lon="12.099019616342304"><ele>1752.0</ele><time>2026-04-12T10:01:35.889Z</time></trkpt><trkpt lat="46.419164872927055" lon="12.09927843492107"><ele>1752.0</ele><time>2026-04-12T10:01:36.889Z</time></trkpt><trkpt lat="46.4192187968937" lon="12.099498685279913"><ele>1752.0</ele><time>2026-04-12T10:01:37.889Z</time></trkpt><trkpt lat="46.41928273251923" lon="12.099690892006453"><ele>1752.0</ele><time>2026-04-12T10:01:38.889Z</time></trkpt><trkpt lat="46.41932142438158" lon="12.099905437361038"><ele>1749.0</ele><time>2026-04-12T10:01:39.889Z</time></trkpt><trkpt lat="46.41938273575368" lon="12.100107502345347"><ele>1746.0</ele><time>2026-04-12T10:01:40.889Z</time></trkpt><trkpt lat="46.41941249447531" lon="12.100318765861589"><ele>1743.0</ele><time>2026-04-12T10:01:41.889Z</time></trkpt><trkpt lat="46.41944111160755" lon="12.100530075863569"><ele>1740.0</ele><time>2026-04-12T10:01:42.889Z</time></trkpt><trkpt lat="46.41948302877267" lon="12.100750533675305"><ele>1739.0</ele><time>2026-04-12T10:01:43.889Z</time></trkpt><trkpt lat="46.4195495746218" lon="12.10097414565841"><ele>1738.0</ele><time>2026-04-12T10:01:44.889Z</time></trkpt><trkpt lat="46.41964434286074" lon="12.101210079622298"><ele>1737.0</ele><time>2026-04-12T10:01:45.889Z</time></trkpt><trkpt lat="46.4197468169778" lon="12.101431108166965"><ele>1748.6666666666665</ele><time>2026-04-12T10:01:46.889Z</time></trkpt><trkpt lat="46.419824400941835" lon="12.101642899198072"><ele>1760.3333333333333</ele><time>2026-04-12T10:01:47.889Z</time></trkpt><trkpt lat="46.41991318875318" lon="12.101852319939324"><ele>1772.0</ele><time>2026-04-12T10:01:48.889Z</time></trkpt><trkpt lat="46.4200101818756" lon="12.102070999016378"><ele>1772.0</ele><time>2026-04-12T10:01:49.889Z</time></trkpt><trkpt lat="46.42006155048828" lon="12.102327339536947"><ele>1772.0</ele><time>2026-04-12T10:01:50.889Z</time></trkpt><trkpt lat="46.42012571753853" lon="12.102584253514745"><ele>1772.0</ele><time>2026-04-12T10:01:51.889Z</time></trkpt><trkpt lat="46.420190543577824" lon="12.102835479700198"><ele>1772.3333333333333</ele><time>2026-04-12T10:01:52.889Z</time></trkpt><trkpt lat="46.420274076466164" lon="12.103064905564201"><ele>1772.6666666666665</ele><time>2026-04-12T10:01:53.889Z</time></trkpt><trkpt lat="46.42034335870017" lon="12.10328734266877"><ele>1773.0</ele><time>2026-04-12T10:01:54.889Z</time></trkpt><trkpt lat="46.420399925559074" lon="12.103503084670912"><ele>1773.0</ele><time>2026-04-12T10:01:55.889Z</time></trkpt><trkpt lat="46.42046152327984" lon="12.103700509721763"><ele>1773.0</ele><time>2026-04-12T10:01:56.889Z</time></trkpt><trkpt lat="46.42051284728492" lon="12.103865010343716"><ele>1773.0</ele><time>2026-04-12T10:01:57.889Z</time></trkpt><trkpt lat="46.420567138913206" lon="12.104004761690717"><ele>1773.0</ele><time>2026-04-12T10:01:58.889Z</time></trkpt><trkpt lat="46.42060846325774" lon="12.10414934438658"><ele>1773.1666666666667</ele><time>2026-04-12T10:01:59.889Z</time></trkpt><trkpt lat="46.42064502660908" lon="12.104283233962384"><ele>1773.3333333333335</ele><time>2026-04-12T10:02:00.889Z</time></trkpt><trkpt lat="46.420678591358296" lon="12.104401917620963"><ele>1773.5</ele><time>2026-04-12T10:02:01.889Z</time></trkpt><trkpt lat="46.420705458480384" lon="12.104512483720297"><ele>1773.6666666666667</ele><time>2026-04-12T10:02:02.889Z</time></trkpt><trkpt lat="46.4207275956937" lon="12.104610702619144"><ele>1773.8333333333335</ele><time>2026-04-12T10:02:03.889Z</time></trkpt><trkpt lat="46.42075272209809" lon="12.104728749709931"><ele>1774.0</ele><time>2026-04-12T10:02:04.889Z</time></trkpt><trkpt lat="46.42077622497221" lon="12.104853678812193"><ele>1773.3333333333335</ele><time>2026-04-12T10:02:05.889Z</time></trkpt><trkpt lat="46.420801091777" lon="12.104968519253141"><ele>1772.6666666666667</ele><time>2026-04-12T10:02:06.889Z</time></trkpt><trkpt lat="46.42082135486944" lon="12.105059115228665"><ele>1772.0</ele><time>2026-04-12T10:02:07.889Z</time></trkpt><trkpt lat="46.420855861397705" lon="12.105179375091588"><ele>1771.3333333333335</ele><time>2026-04-12T10:02:09.889Z</time></trkpt><trkpt lat="46.42088460594767" lon="12.105262479616224"><ele>1770.6666666666667</ele><time>2026-04-12T10:02:10.889Z</time></trkpt><trkpt lat="46.420922726544894" lon="12.105362999127495"><ele>1770.0</ele><time>2026-04-12T10:02:11.889Z</time></trkpt><trkpt lat="46.42096189116425" lon="12.105495984146714"><ele>1770.0</ele><time>2026-04-12T10:02:12.889Z</time></trkpt><trkpt lat="46.421005052723935" lon="12.105607061671659"><ele>1770.0</ele><time>2026-04-12T10:02:13.889Z</time></trkpt><trkpt lat="46.4210692945747" lon="12.105700851071152"><ele>1770.0</ele><time>2026-04-12T10:02:14.889Z</time></trkpt><trkpt lat="46.42116189016313" lon="12.105773752868938"><ele>1770.0</ele><time>2026-04-12T10:02:15.889Z</time></trkpt><trkpt lat="46.42126990704961" lon="12.10583844376612"><ele>1770.0</ele><time>2026-04-12T10:02:16.889Z</time></trkpt><trkpt lat="46.42138580986309" lon="12.105912475721835"><ele>1770.2</ele><time>2026-04-12T10:02:17.889Z</time></trkpt><trkpt lat="46.421504681949735" lon="12.105970930174786"><ele>1770.4</ele><time>2026-04-12T10:02:18.889Z</time></trkpt><trkpt lat="46.42160099226609" lon="12.106030368191268"><ele>1770.6</ele><time>2026-04-12T10:02:19.889Z</time></trkpt><trkpt lat="46.42168969150655" lon="12.106072558555597"><ele>1770.8</ele><time>2026-04-12T10:02:20.889Z</time></trkpt><trkpt lat="46.42177587565241" lon="12.106121958672503"><ele>1771.0</ele><time>2026-04-12T10:02:21.889Z</time></trkpt><trkpt lat="46.42186526514511" lon="12.106186744807824"><ele>1771.0</ele><time>2026-04-12T10:02:22.889Z</time></trkpt><trkpt lat="46.421974739262154" lon="12.10625807203499"><ele>1771.0</ele><time>2026-04-12T10:02:23.889Z</time></trkpt><trkpt lat="46.422097011474825" lon="12.10634001659091"><ele>1771.0</ele><time>2026-04-12T10:02:24.889Z</time></trkpt><trkpt lat="46.42223104415654" lon="12.106427411216208"><ele>1771.0</ele><time>2026-04-12T10:02:25.889Z</time></trkpt><trkpt lat="46.42235122596806" lon="12.106501782585086"><ele>1774.3333333333335</ele><time>2026-04-12T10:02:26.889Z</time></trkpt><trkpt lat="46.42249111059407" lon="12.106572127726757"><ele>1777.6666666666665</ele><time>2026-04-12T10:02:27.889Z</time></trkpt><trkpt lat="46.42264647298446" lon="12.10662272094525"><ele>1781.0</ele><time>2026-04-12T10:02:28.889Z</time></trkpt><trkpt lat="46.42283071426065" lon="12.106663927783291"><ele>1772.3333333333333</ele><time>2026-04-12T10:02:29.889Z</time></trkpt><trkpt lat="46.423018562664744" lon="12.106693883912955"><ele>1763.6666666666665</ele><time>2026-04-12T10:02:30.889Z</time></trkpt><trkpt lat="46.42319498082747" lon="12.106712360840916"><ele>1755.0</ele><time>2026-04-12T10:02:31.889Z</time></trkpt><trkpt lat="46.423361087739764" lon="12.106728465366269"><ele>1755.0</ele><time>2026-04-12T10:02:32.889Z</time></trkpt><trkpt lat="46.42351565562509" lon="12.106764747406535"><ele>1755.0</ele><time>2026-04-12T10:02:33.889Z</time></trkpt><trkpt lat="46.42367272040528" lon="12.10679883656743"><ele>1755.0</ele><time>2026-04-12T10:02:34.889Z</time></trkpt><trkpt lat="46.423824883959085" lon="12.106843775193653"><ele>1758.0</ele><time>2026-04-12T10:02:35.889Z</time></trkpt><trkpt lat="46.423972549938696" lon="12.106921716499464"><ele>1761.0</ele><time>2026-04-12T10:02:36.889Z</time></trkpt><trkpt lat="46.42410487358324" lon="12.107039621495046"><ele>1764.0</ele><time>2026-04-12T10:02:37.889Z</time></trkpt><trkpt lat="46.4242401043197" lon="12.107177569086218"><ele>1764.0</ele><time>2026-04-12T10:02:38.889Z</time></trkpt><trkpt lat="46.42436440203896" lon="12.107306166212721"><ele>1764.0</ele><time>2026-04-12T10:02:39.889Z</time></trkpt><trkpt lat="46.424492446885914" lon="12.107409914067455"><ele>1764.0</ele><time>2026-04-12T10:02:40.889Z</time></trkpt><trkpt lat="46.424636709165945" lon="12.107486928575511"><ele>1755.0</ele><time>2026-04-12T10:02:41.889Z</time></trkpt><trkpt lat="46.4247998158771" lon="12.107531899338781"><ele>1746.0</ele><time>2026-04-12T10:02:42.889Z</time></trkpt><trkpt lat="46.424981167819595" lon="12.107557223553036"><ele>1737.0</ele><time>2026-04-12T10:02:43.889Z</time></trkpt><trkpt lat="46.42516396759432" lon="12.107583261370289"><ele>1737.0</ele><time>2026-04-12T10:02:44.889Z</time></trkpt><trkpt lat="46.42534260771609" lon="12.107613102421178"><ele>1737.0</ele><time>2026-04-12T10:02:45.889Z</time></trkpt><trkpt lat="46.42551564595509" lon="12.107645318446755"><ele>1737.0</ele><time>2026-04-12T10:02:46.889Z</time></trkpt><trkpt lat="46.42566420014586" lon="12.107676197017273"><ele>1737.5</ele><time>2026-04-12T10:02:47.889Z</time></trkpt><trkpt lat="46.4258105937696" lon="12.107702859332171"><ele>1738.0</ele><time>2026-04-12T10:02:48.889Z</time></trkpt><trkpt lat="46.42594020881419" lon="12.107720020400993"><ele>1738.5</ele><time>2026-04-12T10:02:49.889Z</time></trkpt><trkpt lat="46.42606440976089" lon="12.107711451665448"><ele>1739.0</ele><time>2026-04-12T10:02:50.889Z</time></trkpt><trkpt lat="46.42619471577305" lon="12.107679148093805"><ele>1739.0</ele><time>2026-04-12T10:02:51.889Z</time></trkpt><trkpt lat="46.42631022539754" lon="12.107623784145472"><ele>1739.0</ele><time>2026-04-12T10:02:52.889Z</time></trkpt><trkpt lat="46.42642037732448" lon="12.107596884878719"><ele>1739.0</ele><time>2026-04-12T10:02:53.889Z</time></trkpt><trkpt lat="46.426513121121395" lon="12.107562765053851"><ele>1739.0</ele><time>2026-04-12T10:02:54.889Z</time></trkpt><trkpt lat="46.42658390427207" lon="12.107548979212098"><ele>1739.0</ele><time>2026-04-12T10:02:55.889Z</time></trkpt><trkpt lat="46.42670096946281" lon="12.10758216921806"><ele>1737.6666666666665</ele><time>2026-04-12T10:02:57.889Z</time></trkpt><trkpt lat="46.42672293271858" lon="12.107680696289023"><ele>1736.3333333333333</ele><time>2026-04-12T10:02:58.889Z</time></trkpt><trkpt lat="46.426700099059836" lon="12.107790183731044"><ele>1735.0</ele><time>2026-04-12T10:02:59.889Z</time></trkpt><trkpt lat="46.42665649951404" lon="12.107875900672303"><ele>1733.6666666666665</ele><time>2026-04-12T10:03:00.889Z</time></trkpt><trkpt lat="46.4265671635082" lon="12.107916772571874"><ele>1732.3333333333333</ele><time>2026-04-12T10:03:01.889Z</time></trkpt><trkpt lat="46.42645428731037" lon="12.107969397804338"><ele>1731.0</ele><time>2026-04-12T10:03:02.889Z</time></trkpt><trkpt lat="46.42635377017917" lon="12.108019374388418"><ele>1729.8</ele><time>2026-04-12T10:03:03.889Z</time></trkpt><trkpt lat="46.42625618348382" lon="12.108091228839067"><ele>1728.6</ele><time>2026-04-12T10:03:04.889Z</time></trkpt><trkpt lat="46.42617624741628" lon="12.108168168460477"><ele>1727.4</ele><time>2026-04-12T10:03:05.889Z</time></trkpt><trkpt lat="46.42610035154537" lon="12.10826469774547"><ele>1726.2</ele><time>2026-04-12T10:03:06.889Z</time></trkpt><trkpt lat="46.42603430068655" lon="12.108376014255432"><ele>1725.0</ele><time>2026-04-12T10:03:07.889Z</time></trkpt><trkpt lat="46.42596515143417" lon="12.10851188883485"><ele>1725.0</ele><time>2026-04-12T10:03:08.889Z</time></trkpt><trkpt lat="46.42588665169637" lon="12.108641222775944"><ele>1725.0</ele><time>2026-04-12T10:03:09.889Z</time></trkpt><trkpt lat="46.425806006907976" lon="12.10875113307889"><ele>1725.0</ele><time>2026-04-12T10:03:10.889Z</time></trkpt><trkpt lat="46.42573014814405" lon="12.108863098577963"><ele>1725.0</ele><time>2026-04-12T10:03:11.889Z</time></trkpt><trkpt lat="46.42566424653957" lon="12.108955896647807"><ele>1725.0</ele><time>2026-04-12T10:03:12.889Z</time></trkpt><trkpt lat="46.42563850073781" lon="12.109067604804633"><ele>1722.4</ele><time>2026-04-12T10:03:13.89Z</time></trkpt><trkpt lat="46.425638452526265" lon="12.109191093138364"><ele>1719.8</ele><time>2026-04-12T10:03:14.89Z</time></trkpt><trkpt lat="46.425656930657745" lon="12.109307662643976"><ele>1717.1999999999998</ele><time>2026-04-12T10:03:15.89Z</time></trkpt><trkpt lat="46.42572053219379" lon="12.10940232031831"><ele>1714.6</ele><time>2026-04-12T10:03:16.89Z</time></trkpt><trkpt lat="46.425842646715026" lon="12.109433981907591"><ele>1712.0</ele><time>2026-04-12T10:03:17.89Z</time></trkpt><trkpt lat="46.42594844258132" lon="12.109390197591413"><ele>1712.0</ele><time>2026-04-12T10:03:18.89Z</time></trkpt><trkpt lat="46.42607487288887" lon="12.109357662917352"><ele>1712.0</ele><time>2026-04-12T10:03:19.89Z</time></trkpt><trkpt lat="46.426213220770116" lon="12.109338574252053"><ele>1712.0</ele><time>2026-04-12T10:03:20.89Z</time></trkpt><trkpt lat="46.426334530323246" lon="12.109321603604387"><ele>1712.0</ele><time>2026-04-12T10:03:21.89Z</time></trkpt><trkpt lat="46.42651054343739" lon="12.109298466483029"><ele>1710.5</ele><time>2026-04-12T10:03:22.89Z</time></trkpt><trkpt lat="46.42666054569524" lon="12.109298155456248"><ele>1709.0</ele><time>2026-04-12T10:03:23.89Z</time></trkpt><trkpt lat="46.42679726203609" lon="12.109322440228276"><ele>1707.5</ele><time>2026-04-12T10:03:24.89Z</time></trkpt><trkpt lat="46.42692309454491" lon="12.109352522269177"><ele>1706.0</ele><time>2026-04-12T10:03:25.89Z</time></trkpt><trkpt lat="46.42704079676118" lon="12.109368027086434"><ele>1704.5</ele><time>2026-04-12T10:03:26.89Z</time></trkpt><trkpt lat="46.42714461314686" lon="12.109431307557053"><ele>1703.0</ele><time>2026-04-12T10:03:27.89Z</time></trkpt><trkpt lat="46.427256092628745" lon="12.109493751729287"><ele>1701.5</ele><time>2026-04-12T10:03:28.89Z</time></trkpt><trkpt lat="46.42734132017375" lon="12.109616278740127"><ele>1700.0</ele><time>2026-04-12T10:03:29.89Z</time></trkpt><trkpt lat="46.427370778252204" lon="12.109754843198772"><ele>1700.0</ele><time>2026-04-12T10:03:30.89Z</time></trkpt><trkpt lat="46.427386029773366" lon="12.109896730158946"><ele>1700.0</ele><time>2026-04-12T10:03:31.89Z</time></trkpt><trkpt lat="46.427378062129264" lon="12.110024884565721"><ele>1700.0</ele><time>2026-04-12T10:03:32.89Z</time></trkpt><trkpt lat="46.427314755353805" lon="12.11017905632576"><ele>1700.0</ele><time>2026-04-12T10:03:33.89Z</time></trkpt><trkpt lat="46.427287623196946" lon="12.110340999457245"><ele>1700.0</ele><time>2026-04-12T10:03:34.89Z</time></trkpt><trkpt lat="46.42725666115791" lon="12.110513045847998"><ele>1698.0</ele><time>2026-04-12T10:03:35.89Z</time></trkpt><trkpt lat="46.42722985330984" lon="12.110680819276602"><ele>1696.0</ele><time>2026-04-12T10:03:36.89Z</time></trkpt><trkpt lat="46.427234302631184" lon="12.110856074286607"><ele>1694.0</ele><time>2026-04-12T10:03:37.89Z</time></trkpt><trkpt lat="46.42724073445672" lon="12.111017891921799"><ele>1692.0</ele><time>2026-04-12T10:03:38.89Z</time></trkpt><trkpt lat="46.42724339250606" lon="12.111176993963754"><ele>1690.5</ele><time>2026-04-12T10:03:39.89Z</time></trkpt><trkpt lat="46.42724311946645" lon="12.111335232880661"><ele>1689.0</ele><time>2026-04-12T10:03:40.89Z</time></trkpt><trkpt lat="46.42718092741774" lon="12.11147076000931"><ele>1687.5</ele><time>2026-04-12T10:03:41.89Z</time></trkpt><trkpt lat="46.42713096657947" lon="12.111631336999485"><ele>1686.0</ele><time>2026-04-12T10:03:42.89Z</time></trkpt><trkpt lat="46.42706306530545" lon="12.111784686610203"><ele>1689.4</ele><time>2026-04-12T10:03:43.89Z</time></trkpt><trkpt lat="46.42701239433354" lon="12.111932554754537"><ele>1692.8</ele><time>2026-04-12T10:03:44.89Z</time></trkpt><trkpt lat="46.426973819297785" lon="12.112067607396371"><ele>1696.2</ele><time>2026-04-12T10:03:45.89Z</time></trkpt><trkpt lat="46.42695923051585" lon="12.112207686636893"><ele>1699.6000000000001</ele><time>2026-04-12T10:03:46.89Z</time></trkpt><trkpt lat="46.42695910147562" lon="12.112336885360047"><ele>1703.0</ele><time>2026-04-12T10:03:47.89Z</time></trkpt><trkpt lat="46.42697307517259" lon="12.112444001041382"><ele>1703.6000000000001</ele><time>2026-04-12T10:03:48.89Z</time></trkpt><trkpt lat="46.426984172776145" lon="12.112605950003319"><ele>1704.2</ele><time>2026-04-12T10:03:50.89Z</time></trkpt><trkpt lat="46.427011116790496" lon="12.112767431234458"><ele>1704.8</ele><time>2026-04-12T10:03:52.89Z</time></trkpt><trkpt lat="46.427063603120814" lon="12.112926660552239"><ele>1705.4</ele><time>2026-04-12T10:03:54.89Z</time></trkpt><trkpt lat="46.42714650562005" lon="12.112964306872597"><ele>1706.0</ele><time>2026-04-12T10:03:55.89Z</time></trkpt><trkpt lat="46.42722640632667" lon="12.1129771532215"><ele>1699.8</ele><time>2026-04-12T10:03:56.89Z</time></trkpt><trkpt lat="46.427305464216026" lon="12.112869890270364"><ele>1693.6</ele><time>2026-04-12T10:03:57.89Z</time></trkpt><trkpt lat="46.42739705889233" lon="12.112777467642903"><ele>1687.4</ele><time>2026-04-12T10:03:58.89Z</time></trkpt><trkpt lat="46.42746182945474" lon="12.112714915785112"><ele>1681.2</ele><time>2026-04-12T10:03:59.89Z</time></trkpt><trkpt lat="46.427534019393356" lon="12.112670874447657"><ele>1675.0</ele><time>2026-04-12T10:04:00.89Z</time></trkpt><trkpt lat="46.42761310581046" lon="12.112651132831818"><ele>1675.0</ele><time>2026-04-12T10:04:01.89Z</time></trkpt><trkpt lat="46.42766853121697" lon="12.112742189131449"><ele>1675.0</ele><time>2026-04-12T10:04:02.89Z</time></trkpt><trkpt lat="46.42773056437756" lon="12.112859505187878"><ele>1675.0</ele><time>2026-04-12T10:04:03.89Z</time></trkpt><trkpt lat="46.427799372653176" lon="12.11299714469944"><ele>1675.0</ele><time>2026-04-12T10:04:04.89Z</time></trkpt><trkpt lat="46.42785935994264" lon="12.113098986541734"><ele>1675.0</ele><time>2026-04-12T10:04:05.89Z</time></trkpt><trkpt lat="46.42792693753179" lon="12.113212771937713"><ele>1672.4</ele><time>2026-04-12T10:04:06.89Z</time></trkpt><trkpt lat="46.428011313308396" lon="12.113335582059506"><ele>1669.8</ele><time>2026-04-12T10:04:07.89Z</time></trkpt><trkpt lat="46.42808648507141" lon="12.113450314479556"><ele>1667.1999999999998</ele><time>2026-04-12T10:04:08.89Z</time></trkpt><trkpt lat="46.42815210013669" lon="12.113578737398901"><ele>1664.6</ele><time>2026-04-12T10:04:09.89Z</time></trkpt><trkpt lat="46.42821196604607" lon="12.113684416873403"><ele>1662.0</ele><time>2026-04-12T10:04:10.89Z</time></trkpt><trkpt lat="46.42827044541847" lon="12.113766541132115"><ele>1662.0</ele><time>2026-04-12T10:04:11.89Z</time></trkpt><trkpt lat="46.42833795278573" lon="12.113815285784522"><ele>1662.0</ele><time>2026-04-12T10:04:12.89Z</time></trkpt><trkpt lat="46.428423432865536" lon="12.113793248057728"><ele>1662.0</ele><time>2026-04-12T10:04:13.89Z</time></trkpt><trkpt lat="46.4284947559195" lon="12.11370648738321"><ele>1662.0</ele><time>2026-04-12T10:04:14.89Z</time></trkpt><trkpt lat="46.42853480028353" lon="12.113575566217994"><ele>1662.0</ele><time>2026-04-12T10:04:15.89Z</time></trkpt><trkpt lat="46.428536123068085" lon="12.113414134833253"><ele>1661.0</ele><time>2026-04-12T10:04:16.89Z</time></trkpt><trkpt lat="46.42851690094237" lon="12.113215746880352"><ele>1660.0</ele><time>2026-04-12T10:04:17.89Z</time></trkpt><trkpt lat="46.428499648110254" lon="12.113007142327966"><ele>1659.0</ele><time>2026-04-12T10:04:18.89Z</time></trkpt><trkpt lat="46.42849724560579" lon="12.112808486635336"><ele>1658.0</ele><time>2026-04-12T10:04:19.89Z</time></trkpt><trkpt lat="46.42849709972553" lon="12.112640209858059"><ele>1658.0</ele><time>2026-04-12T10:04:20.89Z</time></trkpt><trkpt lat="46.428495438054476" lon="12.112430797535525"><ele>1658.0</ele><time>2026-04-12T10:04:21.89Z</time></trkpt><trkpt lat="46.428489819905266" lon="12.112245928698025"><ele>1658.0</ele><time>2026-04-12T10:04:22.89Z</time></trkpt><trkpt lat="46.428487691497786" lon="12.112070852012828"><ele>1658.0</ele><time>2026-04-12T10:04:23.89Z</time></trkpt><trkpt lat="46.42848899983656" lon="12.111910096115126"><ele>1657.75</ele><time>2026-04-12T10:04:24.89Z</time></trkpt><trkpt lat="46.4284870380391" lon="12.111731621088369"><ele>1657.5</ele><time>2026-04-12T10:04:25.89Z</time></trkpt><trkpt lat="46.42849237064029" lon="12.111560868831276"><ele>1657.25</ele><time>2026-04-12T10:04:26.89Z</time></trkpt><trkpt lat="46.42850139965924" lon="12.11139772739845"><ele>1657.0</ele><time>2026-04-12T10:04:27.89Z</time></trkpt><trkpt lat="46.42851857231813" lon="12.111242707387113"><ele>1657.0</ele><time>2026-04-12T10:04:28.89Z</time></trkpt><trkpt lat="46.42854459483038" lon="12.111091985324949"><ele>1657.0</ele><time>2026-04-12T10:04:29.89Z</time></trkpt><trkpt lat="46.428580705588" lon="12.110947705285358"><ele>1657.0</ele><time>2026-04-12T10:04:30.89Z</time></trkpt><trkpt lat="46.4285736590703" lon="12.1107984144765"><ele>1657.0</ele><time>2026-04-12T10:04:31.89Z</time></trkpt><trkpt lat="46.42855242358109" lon="12.11064798772974"><ele>1657.0</ele><time>2026-04-12T10:04:32.89Z</time></trkpt><trkpt lat="46.4285306476045" lon="12.110517945690255"><ele>1658.6666666666667</ele><time>2026-04-12T10:04:33.89Z</time></trkpt><trkpt lat="46.42851606817572" lon="12.110425558516775"><ele>1660.3333333333335</ele><time>2026-04-12T10:04:34.89Z</time></trkpt><trkpt lat="46.4285283299403" lon="12.110263413276309"><ele>1662.0</ele><time>2026-04-12T10:04:36.89Z</time></trkpt><trkpt lat="46.42860529033531" lon="12.110239021953374"><ele>1663.6666666666665</ele><time>2026-04-12T10:04:37.89Z</time></trkpt><trkpt lat="46.42866754717285" lon="12.110259666724158"><ele>1665.3333333333333</ele><time>2026-04-12T10:04:38.89Z</time></trkpt><trkpt lat="46.42870206064271" lon="12.110366850358758"><ele>1667.0</ele><time>2026-04-12T10:04:39.89Z</time></trkpt><trkpt lat="46.42866933837103" lon="12.11049783227871"><ele>1667.0</ele><time>2026-04-12T10:04:40.89Z</time></trkpt><trkpt lat="46.42868485920272" lon="12.110636220083343"><ele>1667.0</ele><time>2026-04-12T10:04:41.89Z</time></trkpt><trkpt lat="46.42871138672249" lon="12.110780402488714"><ele>1667.0</ele><time>2026-04-12T10:04:42.89Z</time></trkpt><trkpt lat="46.42873211589899" lon="12.110921409228238"><ele>1667.0</ele><time>2026-04-12T10:04:43.89Z</time></trkpt><trkpt lat="46.428769121594506" lon="12.111077710942734"><ele>1667.0</ele><time>2026-04-12T10:04:44.89Z</time></trkpt><trkpt lat="46.42881713900805" lon="12.111242643590062"><ele>1660.6</ele><time>2026-04-12T10:04:45.89Z</time></trkpt><trkpt lat="46.42885927727866" lon="12.11140794885799"><ele>1654.1999999999998</ele><time>2026-04-12T10:04:46.89Z</time></trkpt><trkpt lat="46.42889845577622" lon="12.111570675228952"><ele>1647.8</ele><time>2026-04-12T10:04:47.89Z</time></trkpt><trkpt lat="46.428927632456556" lon="12.11171263582412"><ele>1641.4</ele><time>2026-04-12T10:04:48.89Z</time></trkpt><trkpt lat="46.42895236325713" lon="12.111830338957985"><ele>1635.0</ele><time>2026-04-12T10:04:49.89Z</time></trkpt><trkpt lat="46.42897319188581" lon="12.111921749572899"><ele>1635.0</ele><time>2026-04-12T10:04:50.89Z</time></trkpt><trkpt lat="46.42900748117236" lon="12.112002177172156"><ele>1635.0</ele><time>2026-04-12T10:04:51.89Z</time></trkpt><trkpt lat="46.42913066243797" lon="12.112033177600946"><ele>1635.0</ele><time>2026-04-12T10:04:53.89Z</time></trkpt><trkpt lat="46.429185585754745" lon="12.111965522778474"><ele>1635.0</ele><time>2026-04-12T10:04:54.89Z</time></trkpt><trkpt lat="46.42923026836724" lon="12.111866974869175"><ele>1635.0</ele><time>2026-04-12T10:04:55.89Z</time></trkpt><trkpt lat="46.42920441175543" lon="12.111729058542181"><ele>1635.0</ele><time>2026-04-12T10:04:56.89Z</time></trkpt><trkpt lat="46.429150731317264" lon="12.111605852438482"><ele>1634.0</ele><time>2026-04-12T10:04:57.89Z</time></trkpt><trkpt lat="46.429091030215666" lon="12.111476911791224"><ele>1633.0</ele><time>2026-04-12T10:04:58.89Z</time></trkpt><trkpt lat="46.42906160012677" lon="12.111341225650072"><ele>1632.0</ele><time>2026-04-12T10:04:59.89Z</time></trkpt><trkpt lat="46.42905629024835" lon="12.111226981095232"><ele>1631.0</ele><time>2026-04-12T10:05:00.89Z</time></trkpt><trkpt lat="46.42901616399152" lon="12.111059947415265"><ele>1630.0</ele><time>2026-04-12T10:05:01.89Z</time></trkpt><trkpt lat="46.42898865300429" lon="12.110902989903328"><ele>1630.0</ele><time>2026-04-12T10:05:02.89Z</time></trkpt><trkpt lat="46.428968396743485" lon="12.11075082773958"><ele>1630.0</ele><time>2026-04-12T10:05:03.89Z</time></trkpt><trkpt lat="46.428971554604665" lon="12.110615089427357"><ele>1630.0</ele><time>2026-04-12T10:05:04.89Z</time></trkpt><trkpt lat="46.42899286763707" lon="12.110463160263455"><ele>1630.0</ele><time>2026-04-12T10:05:05.89Z</time></trkpt><trkpt lat="46.42904829351634" lon="12.110323807942677"><ele>1630.0</ele><time>2026-04-12T10:05:06.89Z</time></trkpt><trkpt lat="46.4291003362891" lon="12.110175801187008"><ele>1630.0</ele><time>2026-04-12T10:05:07.89Z</time></trkpt><trkpt lat="46.429142047810515" lon="12.11001102837563"><ele>1630.0</ele><time>2026-04-12T10:05:08.89Z</time></trkpt><trkpt lat="46.429177709440424" lon="12.10986043398598"><ele>1630.0</ele><time>2026-04-12T10:05:09.89Z</time></trkpt><trkpt lat="46.4292148078181" lon="12.109688199932414"><ele>1630.0</ele><time>2026-04-12T10:05:10.89Z</time></trkpt><trkpt lat="46.42925597927972" lon="12.109524578033275"><ele>1631.0</ele><time>2026-04-12T10:05:11.89Z</time></trkpt><trkpt lat="46.42930710231757" lon="12.10934595888778"><ele>1632.0</ele><time>2026-04-12T10:05:12.89Z</time></trkpt><trkpt lat="46.42936321671828" lon="12.10917098297191"><ele>1633.0</ele><time>2026-04-12T10:05:13.89Z</time></trkpt><trkpt lat="46.429436353482245" lon="12.108991012706618"><ele>1634.0</ele><time>2026-04-12T10:05:14.89Z</time></trkpt><trkpt lat="46.42952130178604" lon="12.10881882076989"><ele>1635.3333333333333</ele><time>2026-04-12T10:05:15.89Z</time></trkpt><trkpt lat="46.42961447705799" lon="12.108657740797634"><ele>1636.6666666666665</ele><time>2026-04-12T10:05:16.89Z</time></trkpt><trkpt lat="46.429703257771386" lon="12.108476579798532"><ele>1638.0</ele><time>2026-04-12T10:05:17.89Z</time></trkpt><trkpt lat="46.42979514382053" lon="12.108296789736304"><ele>1627.0</ele><time>2026-04-12T10:05:18.89Z</time></trkpt><trkpt lat="46.429879072622995" lon="12.1081155110101"><ele>1616.0</ele><time>2026-04-12T10:05:19.891Z</time></trkpt><trkpt lat="46.42997516171893" lon="12.107930871828842"><ele>1605.0</ele><time>2026-04-12T10:05:20.891Z</time></trkpt><trkpt lat="46.43007850145897" lon="12.107741851336726"><ele>1605.0</ele><time>2026-04-12T10:05:21.891Z</time></trkpt><trkpt lat="46.430169699538716" lon="12.10755329883254"><ele>1605.0</ele><time>2026-04-12T10:05:22.891Z</time></trkpt><trkpt lat="46.43026743735693" lon="12.107367601221052"><ele>1605.0</ele><time>2026-04-12T10:05:23.891Z</time></trkpt><trkpt lat="46.43036666588298" lon="12.107199914336027"><ele>1604.6666666666665</ele><time>2026-04-12T10:05:24.891Z</time></trkpt><trkpt lat="46.430453603149466" lon="12.107022707047912"><ele>1604.3333333333333</ele><time>2026-04-12T10:05:25.891Z</time></trkpt><trkpt lat="46.43054655890443" lon="12.106846401613002"><ele>1604.0</ele><time>2026-04-12T10:05:26.891Z</time></trkpt><trkpt lat="46.430640893112624" lon="12.10667872569326"><ele>1603.6666666666665</ele><time>2026-04-12T10:05:27.891Z</time></trkpt><trkpt lat="46.43074388373934" lon="12.106504750463237"><ele>1603.3333333333335</ele><time>2026-04-12T10:05:28.891Z</time></trkpt><trkpt lat="46.430848026513786" lon="12.106308205615822"><ele>1603.0</ele><time>2026-04-12T10:05:29.891Z</time></trkpt><trkpt lat="46.43095049085632" lon="12.10611045539573"><ele>1603.0</ele><time>2026-04-12T10:05:30.891Z</time></trkpt><trkpt lat="46.43106863374357" lon="12.105927287863624"><ele>1603.0</ele><time>2026-04-12T10:05:31.891Z</time></trkpt><trkpt lat="46.43117146000447" lon="12.105733833695501"><ele>1603.0</ele><time>2026-04-12T10:05:32.891Z</time></trkpt><trkpt lat="46.43127418025583" lon="12.105540381468243"><ele>1598.3333333333335</ele><time>2026-04-12T10:05:33.891Z</time></trkpt><trkpt lat="46.43137296737085" lon="12.105349259087347"><ele>1593.6666666666665</ele><time>2026-04-12T10:05:34.891Z</time></trkpt><trkpt lat="46.43147700811305" lon="12.105157878317724"><ele>1589.0</ele><time>2026-04-12T10:05:35.891Z</time></trkpt><trkpt lat="46.43157814329794" lon="12.104945001017278"><ele>1590.3333333333333</ele><time>2026-04-12T10:05:36.891Z</time></trkpt><trkpt lat="46.43167208289914" lon="12.104727717734185"><ele>1591.6666666666665</ele><time>2026-04-12T10:05:37.891Z</time></trkpt><trkpt lat="46.431743252919304" lon="12.104491949373793"><ele>1593.0</ele><time>2026-04-12T10:05:38.891Z</time></trkpt><trkpt lat="46.43179538705869" lon="12.104234454645544"><ele>1593.3333333333335</ele><time>2026-04-12T10:05:39.891Z</time></trkpt><trkpt lat="46.4318553998699" lon="12.10399282382399"><ele>1593.6666666666667</ele><time>2026-04-12T10:05:40.891Z</time></trkpt><trkpt lat="46.431927526227255" lon="12.103759894383147"><ele>1594.0</ele><time>2026-04-12T10:05:41.891Z</time></trkpt><trkpt lat="46.432014558414764" lon="12.103542944517653"><ele>1594.0</ele><time>2026-04-12T10:05:42.891Z</time></trkpt><trkpt lat="46.43211499967084" lon="12.103338258790131"><ele>1594.0</ele><time>2026-04-12T10:05:43.891Z</time></trkpt><trkpt lat="46.432217567436275" lon="12.103116237375142"><ele>1594.0</ele><time>2026-04-12T10:05:44.891Z</time></trkpt><trkpt lat="46.432343945424414" lon="12.102892948192766"><ele>1590.6666666666667</ele><time>2026-04-12T10:05:45.891Z</time></trkpt><trkpt lat="46.43244265941835" lon="12.102662547210478"><ele>1587.3333333333335</ele><time>2026-04-12T10:05:46.891Z</time></trkpt><trkpt lat="46.432537028176185" lon="12.102431182823228"><ele>1584.0</ele><time>2026-04-12T10:05:47.891Z</time></trkpt><trkpt lat="46.4326333741034" lon="12.102198078218862"><ele>1584.0</ele><time>2026-04-12T10:05:48.891Z</time></trkpt><trkpt lat="46.432738378677826" lon="12.101962307594656"><ele>1584.0</ele><time>2026-04-12T10:05:49.891Z</time></trkpt><trkpt lat="46.43283889973684" lon="12.101726338407964"><ele>1584.0</ele><time>2026-04-12T10:05:50.891Z</time></trkpt><trkpt lat="46.43293962156942" lon="12.10148364519465"><ele>1579.6666666666665</ele><time>2026-04-12T10:05:51.891Z</time></trkpt><trkpt lat="46.433038596366025" lon="12.101248538673078"><ele>1575.3333333333333</ele><time>2026-04-12T10:05:52.891Z</time></trkpt><trkpt lat="46.43313195762311" lon="12.10101051545685"><ele>1571.0</ele><time>2026-04-12T10:05:53.891Z</time></trkpt><trkpt lat="46.433226279310645" lon="12.100762627439314"><ele>1570.6666666666665</ele><time>2026-04-12T10:05:54.891Z</time></trkpt><trkpt lat="46.43329855925122" lon="12.100508864103215"><ele>1570.3333333333335</ele><time>2026-04-12T10:05:55.891Z</time></trkpt><trkpt lat="46.433363497134664" lon="12.100257786925253"><ele>1570.0</ele><time>2026-04-12T10:05:56.891Z</time></trkpt><trkpt lat="46.43342227676341" lon="12.100015667114986"><ele>1569.3333333333335</ele><time>2026-04-12T10:05:57.891Z</time></trkpt><trkpt lat="46.433489407601435" lon="12.099783717565241"><ele>1568.6666666666665</ele><time>2026-04-12T10:05:58.891Z</time></trkpt><trkpt lat="46.4335695894345" lon="12.099560085997252"><ele>1568.0</ele><time>2026-04-12T10:05:59.891Z</time></trkpt><trkpt lat="46.43366215588491" lon="12.099346441272504"><ele>1568.0</ele><time>2026-04-12T10:06:00.891Z</time></trkpt><trkpt lat="46.433766679876776" lon="12.099153889265299"><ele>1568.0</ele><time>2026-04-12T10:06:01.891Z</time></trkpt><trkpt lat="46.43386305929442" lon="12.098967492630095"><ele>1568.0</ele><time>2026-04-12T10:06:02.891Z</time></trkpt><trkpt lat="46.433958121178414" lon="12.098761614762552"><ele>1564.6666666666665</ele><time>2026-04-12T10:06:03.891Z</time></trkpt><trkpt lat="46.43404029109385" lon="12.09854730375464"><ele>1561.3333333333335</ele><time>2026-04-12T10:06:04.891Z</time></trkpt><trkpt lat="46.4341151463546" lon="12.098331834159199"><ele>1558.0</ele><time>2026-04-12T10:06:05.891Z</time></trkpt><trkpt lat="46.43415754794738" lon="12.098087430872244"><ele>1555.6666666666667</ele><time>2026-04-12T10:06:06.891Z</time></trkpt><trkpt lat="46.43419906225601" lon="12.09781773580174"><ele>1553.3333333333335</ele><time>2026-04-12T10:06:07.891Z</time></trkpt><trkpt lat="46.43422751027675" lon="12.097557895092754"><ele>1551.0</ele><time>2026-04-12T10:06:08.891Z</time></trkpt><trkpt lat="46.43425595918688" lon="12.097304788499542"><ele>1551.0</ele><time>2026-04-12T10:06:09.891Z</time></trkpt><trkpt lat="46.434283397495676" lon="12.097051204518587"><ele>1551.0</ele><time>2026-04-12T10:06:10.891Z</time></trkpt><trkpt lat="46.43432131761354" lon="12.09681827025786"><ele>1551.0</ele><time>2026-04-12T10:06:11.891Z</time></trkpt><trkpt lat="46.4343796159555" lon="12.096572635267249"><ele>1551.3333333333335</ele><time>2026-04-12T10:06:12.891Z</time></trkpt><trkpt lat="46.43447082113135" lon="12.0963123421276"><ele>1551.6666666666667</ele><time>2026-04-12T10:06:13.891Z</time></trkpt><trkpt lat="46.43457368210782" lon="12.09606123740369"><ele>1552.0</ele><time>2026-04-12T10:06:14.891Z</time></trkpt><trkpt lat="46.43467959421293" lon="12.095832919092205"><ele>1548.6666666666667</ele><time>2026-04-12T10:06:15.891Z</time></trkpt><trkpt lat="46.43477977984931" lon="12.095573255014916"><ele>1545.3333333333335</ele><time>2026-04-12T10:06:16.891Z</time></trkpt><trkpt lat="46.43487219227889" lon="12.095329468746995"><ele>1542.0</ele><time>2026-04-12T10:06:17.891Z</time></trkpt><trkpt lat="46.43496082561077" lon="12.095098615239824"><ele>1541.0</ele><time>2026-04-12T10:06:18.891Z</time></trkpt><trkpt lat="46.435030346980724" lon="12.094861574046016"><ele>1540.0</ele><time>2026-04-12T10:06:19.891Z</time></trkpt><trkpt lat="46.43507697547247" lon="12.09461047389634"><ele>1539.0</ele><time>2026-04-12T10:06:20.891Z</time></trkpt><trkpt lat="46.43510171819269" lon="12.094353102864499"><ele>1538.3333333333335</ele><time>2026-04-12T10:06:21.891Z</time></trkpt><trkpt lat="46.43510893311044" lon="12.094081109559097"><ele>1537.6666666666667</ele><time>2026-04-12T10:06:22.891Z</time></trkpt><trkpt lat="46.43512808878322" lon="12.093797983127972"><ele>1537.0</ele><time>2026-04-12T10:06:23.891Z</time></trkpt><trkpt lat="46.43514459816581" lon="12.093498517381862"><ele>1537.3333333333335</ele><time>2026-04-12T10:06:24.891Z</time></trkpt><trkpt lat="46.435160747569924" lon="12.093202813581533"><ele>1537.6666666666665</ele><time>2026-04-12T10:06:25.891Z</time></trkpt><trkpt lat="46.43517627001138" lon="12.09291806865777"><ele>1538.0</ele><time>2026-04-12T10:06:26.891Z</time></trkpt><trkpt lat="46.4352122965419" lon="12.092646112444124"><ele>1537.6666666666665</ele><time>2026-04-12T10:06:27.891Z</time></trkpt><trkpt lat="46.43527718192396" lon="12.092397629662011"><ele>1537.3333333333335</ele><time>2026-04-12T10:06:28.891Z</time></trkpt><trkpt lat="46.435340325316176" lon="12.092116168788847"><ele>1537.0</ele><time>2026-04-12T10:06:29.891Z</time></trkpt><trkpt lat="46.435389220643465" lon="12.0918291548339"><ele>1535.3333333333335</ele><time>2026-04-12T10:06:30.891Z</time></trkpt><trkpt lat="46.43542682813517" lon="12.091557022000755"><ele>1533.6666666666667</ele><time>2026-04-12T10:06:31.891Z</time></trkpt><trkpt lat="46.43545253311066" lon="12.091301406259499"><ele>1532.0</ele><time>2026-04-12T10:06:32.891Z</time></trkpt><trkpt lat="46.43550107213627" lon="12.091068923486477"><ele>1529.0</ele><time>2026-04-12T10:06:33.891Z</time></trkpt><trkpt lat="46.43554251054453" lon="12.090840398785863"><ele>1526.0</ele><time>2026-04-12T10:06:34.891Z</time></trkpt><trkpt lat="46.43558991192252" lon="12.090570971843045"><ele>1523.0</ele><time>2026-04-12T10:06:35.891Z</time></trkpt><trkpt lat="46.435634469754056" lon="12.090289423143682"><ele>1521.6666666666667</ele><time>2026-04-12T10:06:36.891Z</time></trkpt><trkpt lat="46.43566844101039" lon="12.089993795535122"><ele>1520.3333333333333</ele><time>2026-04-12T10:06:37.891Z</time></trkpt><trkpt lat="46.43570846997921" lon="12.089701754915376"><ele>1519.0</ele><time>2026-04-12T10:06:38.891Z</time></trkpt><trkpt lat="46.435703551191516" lon="12.089843274345869"><ele>1518.6666666666665</ele><time>2026-04-12T10:06:39.891Z</time></trkpt><trkpt lat="46.435689383503075" lon="12.08960858656203"><ele>1518.3333333333333</ele><time>2026-04-12T10:06:40.891Z</time></trkpt><trkpt lat="46.43565841553581" lon="12.089365189885086"><ele>1518.0</ele><time>2026-04-12T10:06:41.891Z</time></trkpt><trkpt lat="46.435603618968" lon="12.089108670078698"><ele>1517.0</ele><time>2026-04-12T10:06:42.891Z</time></trkpt><trkpt lat="46.43555070871215" lon="12.088847646942746"><ele>1516.0</ele><time>2026-04-12T10:06:43.891Z</time></trkpt><trkpt lat="46.435501734991206" lon="12.088603341640148"><ele>1515.0</ele><time>2026-04-12T10:06:44.891Z</time></trkpt><trkpt lat="46.43545432134855" lon="12.088351319104483"><ele>1513.3333333333333</ele><time>2026-04-12T10:06:45.891Z</time></trkpt><trkpt lat="46.43539648912324" lon="12.088070234480183"><ele>1511.6666666666665</ele><time>2026-04-12T10:06:46.891Z</time></trkpt><trkpt lat="46.43534055777393" lon="12.087797512272317"><ele>1510.0</ele><time>2026-04-12T10:06:47.891Z</time></trkpt><trkpt lat="46.43528742756346" lon="12.087501323885824"><ele>1509.0</ele><time>2026-04-12T10:06:48.891Z</time></trkpt><trkpt lat="46.43522979161234" lon="12.08718588330093"><ele>1508.0</ele><time>2026-04-12T10:06:49.891Z</time></trkpt><trkpt lat="46.435174338580204" lon="12.086897875169988"><ele>1507.0</ele><time>2026-04-12T10:06:50.891Z</time></trkpt><trkpt lat="46.4351506378846" lon="12.086570588750025"><ele>1506.5</ele><time>2026-04-12T10:06:51.891Z</time></trkpt><trkpt lat="46.43514407488365" lon="12.086207368833174"><ele>1506.0</ele><time>2026-04-12T10:06:52.891Z</time></trkpt><trkpt lat="46.43515828474716" lon="12.085821179404158"><ele>1505.0</ele><time>2026-04-12T10:06:53.891Z</time></trkpt><trkpt lat="46.43517228276782" lon="12.085461437558068"><ele>1504.0</ele><time>2026-04-12T10:06:54.891Z</time></trkpt><trkpt lat="46.43517961833106" lon="12.085125332102615"><ele>1504.0</ele><time>2026-04-12T10:06:55.891Z</time></trkpt><trkpt lat="46.435182743860146" lon="12.084780076429338"><ele>1504.0</ele><time>2026-04-12T10:06:56.891Z</time></trkpt><trkpt lat="46.435195099208705" lon="12.08445125146477"><ele>1504.0</ele><time>2026-04-12T10:06:57.891Z</time></trkpt><trkpt lat="46.43520459418475" lon="12.084126277387654"><ele>1504.0</ele><time>2026-04-12T10:06:58.891Z</time></trkpt><trkpt lat="46.43522039019818" lon="12.083798252799113"><ele>1501.5</ele><time>2026-04-12T10:06:59.891Z</time></trkpt><trkpt lat="46.435253177521915" lon="12.083465248457323"><ele>1499.0</ele><time>2026-04-12T10:07:00.891Z</time></trkpt><trkpt lat="46.43529184355091" lon="12.083135032922423"><ele>1496.0</ele><time>2026-04-12T10:07:01.891Z</time></trkpt><trkpt lat="46.43533392216009" lon="12.082812130395066"><ele>1493.0</ele><time>2026-04-12T10:07:02.891Z</time></trkpt><trkpt lat="46.43538843622561" lon="12.082503300789247"><ele>1490.0</ele><time>2026-04-12T10:07:03.891Z</time></trkpt><trkpt lat="46.435424488887456" lon="12.082202015486061"><ele>1490.3333333333335</ele><time>2026-04-12T10:07:04.891Z</time></trkpt><trkpt lat="46.43545964274432" lon="12.081917324683433"><ele>1490.6666666666667</ele><time>2026-04-12T10:07:05.891Z</time></trkpt><trkpt lat="46.435484809994854" lon="12.08164686796496"><ele>1491.0</ele><time>2026-04-12T10:07:06.891Z</time></trkpt><trkpt lat="46.43550452088666" lon="12.081374879904228"><ele>1491.0</ele><time>2026-04-12T10:07:07.891Z</time></trkpt><trkpt lat="46.43552661641895" lon="12.08110188189509"><ele>1491.0</ele><time>2026-04-12T10:07:08.891Z</time></trkpt><trkpt lat="46.43553832203204" lon="12.080840006082646"><ele>1491.0</ele><time>2026-04-12T10:07:09.891Z</time></trkpt><trkpt lat="46.435532703738524" lon="12.080588405248845"><ele>1488.0</ele><time>2026-04-12T10:07:10.891Z</time></trkpt><trkpt lat="46.435503422283155" lon="12.080344719357138"><ele>1485.0</ele><time>2026-04-12T10:07:11.891Z</time></trkpt><trkpt lat="46.435475947731454" lon="12.080101367885934"><ele>1482.0</ele><time>2026-04-12T10:07:12.891Z</time></trkpt><trkpt lat="46.4354550617898" lon="12.07988123617994"><ele>1479.0</ele><time>2026-04-12T10:07:13.891Z</time></trkpt><trkpt lat="46.435437805837964" lon="12.079694354847424"><ele>1476.0</ele><time>2026-04-12T10:07:14.891Z</time></trkpt><trkpt lat="46.43539557326671" lon="12.079519417551278"><ele>1473.0</ele><time>2026-04-12T10:07:15.891Z</time></trkpt><trkpt lat="46.43531736393538" lon="12.079363539642516"><ele>1470.0</ele><time>2026-04-12T10:07:16.891Z</time></trkpt><trkpt lat="46.435205203311675" lon="12.079218538178832"><ele>1467.6666666666667</ele><time>2026-04-12T10:07:17.891Z</time></trkpt><trkpt lat="46.43505180161848" lon="12.079095284610174"><ele>1465.3333333333335</ele><time>2026-04-12T10:07:18.891Z</time></trkpt><trkpt lat="46.434901158536995" lon="12.078996283831659"><ele>1463.0</ele><time>2026-04-12T10:07:19.891Z</time></trkpt><trkpt lat="46.43475683449438" lon="12.07890187731568"><ele>1461.25</ele><time>2026-04-12T10:07:20.891Z</time></trkpt><trkpt lat="46.434618331889546" lon="12.078815075538031"><ele>1459.5</ele><time>2026-04-12T10:07:21.891Z</time></trkpt><trkpt lat="46.4344960848428" lon="12.07871796995159"><ele>1457.75</ele><time>2026-04-12T10:07:22.891Z</time></trkpt><trkpt lat="46.4343856663849" lon="12.078630579539409"><ele>1456.0</ele><time>2026-04-12T10:07:23.891Z</time></trkpt><trkpt lat="46.434291666479126" lon="12.078543245195398"><ele>1456.0</ele><time>2026-04-12T10:07:24.891Z</time></trkpt><trkpt lat="46.43423634238455" lon="12.078409100531665"><ele>1456.0</ele><time>2026-04-12T10:07:25.893Z</time></trkpt><trkpt lat="46.43420714228395" lon="12.078244925290388"><ele>1456.0</ele><time>2026-04-12T10:07:26.893Z</time></trkpt><trkpt lat="46.434198766797046" lon="12.07803041809439"><ele>1456.0</ele><time>2026-04-12T10:07:27.893Z</time></trkpt><trkpt lat="46.43421585315558" lon="12.077808888904215"><ele>1455.6666666666665</ele><time>2026-04-12T10:07:28.893Z</time></trkpt><trkpt lat="46.434230475132786" lon="12.077577343119794"><ele>1455.3333333333333</ele><time>2026-04-12T10:07:29.893Z</time></trkpt><trkpt lat="46.434242017195054" lon="12.077332339750532"><ele>1455.0</ele><time>2026-04-12T10:07:30.893Z</time></trkpt><trkpt lat="46.434251152531964" lon="12.077097587987907"><ele>1453.0</ele><time>2026-04-12T10:07:31.893Z</time></trkpt><trkpt lat="46.43425920322145" lon="12.076852437236054"><ele>1451.0</ele><time>2026-04-12T10:07:32.893Z</time></trkpt><trkpt lat="46.434296008058666" lon="12.076611014110808"><ele>1449.0</ele><time>2026-04-12T10:07:33.893Z</time></trkpt><trkpt lat="46.434353676678306" lon="12.076367715650154"><ele>1448.3333333333333</ele><time>2026-04-12T10:07:34.893Z</time></trkpt><trkpt lat="46.43443381904167" lon="12.076119929878327"><ele>1447.6666666666665</ele><time>2026-04-12T10:07:35.893Z</time></trkpt><trkpt lat="46.434503053357055" lon="12.075878295502623"><ele>1447.0</ele><time>2026-04-12T10:07:36.893Z</time></trkpt><trkpt lat="46.434558003432116" lon="12.075635251155784"><ele>1447.0</ele><time>2026-04-12T10:07:37.893Z</time></trkpt><trkpt lat="46.43460324465617" lon="12.075382425629973"><ele>1447.0</ele><time>2026-04-12T10:07:38.893Z</time></trkpt><trkpt lat="46.434638409147176" lon="12.075129819374343"><ele>1447.0</ele><time>2026-04-12T10:07:39.893Z</time></trkpt><trkpt lat="46.434677037948674" lon="12.074891836506316"><ele>1443.75</ele><time>2026-04-12T10:07:40.893Z</time></trkpt><trkpt lat="46.434718328440226" lon="12.074679859636031"><ele>1440.5</ele><time>2026-04-12T10:07:41.893Z</time></trkpt><trkpt lat="46.43476186433527" lon="12.074480419654215"><ele>1437.25</ele><time>2026-04-12T10:07:42.893Z</time></trkpt><trkpt lat="46.434840588793755" lon="12.074338409253787"><ele>1434.0</ele><time>2026-04-12T10:07:43.893Z</time></trkpt><trkpt lat="46.434926774318285" lon="12.074220430342528"><ele>1434.0</ele><time>2026-04-12T10:07:44.893Z</time></trkpt><trkpt lat="46.43509565695206" lon="12.074177407831955"><ele>1434.0</ele><time>2026-04-12T10:07:45.893Z</time></trkpt><trkpt lat="46.43524217770168" lon="12.074091672651155"><ele>1434.0</ele><time>2026-04-12T10:07:46.893Z</time></trkpt><trkpt lat="46.435388987601904" lon="12.074043135188646"><ele>1431.25</ele><time>2026-04-12T10:07:47.893Z</time></trkpt><trkpt lat="46.43553067503851" lon="12.07399671526329"><ele>1428.5</ele><time>2026-04-12T10:07:48.893Z</time></trkpt><trkpt lat="46.43566572808497" lon="12.073931832299245"><ele>1425.75</ele><time>2026-04-12T10:07:49.893Z</time></trkpt><trkpt lat="46.43580941808464" lon="12.073862265953226"><ele>1423.0</ele><time>2026-04-12T10:07:50.893Z</time></trkpt><trkpt lat="46.43593408876128" lon="12.073801513349286"><ele>1423.0</ele><time>2026-04-12T10:07:51.893Z</time></trkpt><trkpt lat="46.43604802697661" lon="12.073726455482719"><ele>1423.0</ele><time>2026-04-12T10:07:52.893Z</time></trkpt><trkpt lat="46.43617616849402" lon="12.073627245809558"><ele>1423.0</ele><time>2026-04-12T10:07:53.893Z</time></trkpt><trkpt lat="46.43627172381922" lon="12.073517349952269"><ele>1423.0</ele><time>2026-04-12T10:07:54.893Z</time></trkpt><trkpt lat="46.43636858107716" lon="12.073392997009199"><ele>1421.5</ele><time>2026-04-12T10:07:55.893Z</time></trkpt><trkpt lat="46.43644019176447" lon="12.073264144220005"><ele>1420.0</ele><time>2026-04-12T10:07:56.893Z</time></trkpt><trkpt lat="46.436515392896105" lon="12.073147563342385"><ele>1418.5</ele><time>2026-04-12T10:07:57.893Z</time></trkpt><trkpt lat="46.43659517384681" lon="12.073019302627685"><ele>1417.0</ele><time>2026-04-12T10:07:58.893Z</time></trkpt><trkpt lat="46.43667251689978" lon="12.072897846671342"><ele>1417.0</ele><time>2026-04-12T10:07:59.893Z</time></trkpt><trkpt lat="46.43674795941601" lon="12.072798353437358"><ele>1417.0</ele><time>2026-04-12T10:08:00.893Z</time></trkpt><trkpt lat="46.436817177366834" lon="12.072689442129962"><ele>1417.0</ele><time>2026-04-12T10:08:01.893Z</time></trkpt><trkpt lat="46.43687544844717" lon="12.072581722648149"><ele>1417.0</ele><time>2026-04-12T10:08:02.893Z</time></trkpt><trkpt lat="46.43693418241526" lon="12.072460566980357"><ele>1417.0</ele><time>2026-04-12T10:08:03.893Z</time></trkpt><trkpt lat="46.43696424270971" lon="12.072331959257147"><ele>1416.1999999999998</ele><time>2026-04-12T10:08:04.893Z</time></trkpt><trkpt lat="46.436963273625196" lon="12.072173062156573"><ele>1415.4</ele><time>2026-04-12T10:08:05.893Z</time></trkpt><trkpt lat="46.43695167574723" lon="12.072026611347255"><ele>1414.6</ele><time>2026-04-12T10:08:06.893Z</time></trkpt><trkpt lat="46.4369507970075" lon="12.07188076056109"><ele>1413.8000000000002</ele><time>2026-04-12T10:08:07.893Z</time></trkpt><trkpt lat="46.43696860999163" lon="12.071748914253323"><ele>1413.0</ele><time>2026-04-12T10:08:08.893Z</time></trkpt><trkpt lat="46.437027440675756" lon="12.071647405181809"><ele>1413.75</ele><time>2026-04-12T10:08:09.893Z</time></trkpt><trkpt lat="46.43707047355117" lon="12.071476700041718"><ele>1414.5</ele><time>2026-04-12T10:08:10.893Z</time></trkpt><trkpt lat="46.43714944594884" lon="12.071344205572183"><ele>1415.25</ele><time>2026-04-12T10:08:11.893Z</time></trkpt><trkpt lat="46.437229848915194" lon="12.071216567200464"><ele>1416.0</ele><time>2026-04-12T10:08:12.893Z</time></trkpt><trkpt lat="46.43729667266365" lon="12.07110138517529"><ele>1416.0</ele><time>2026-04-12T10:08:13.893Z</time></trkpt><trkpt lat="46.437355268107716" lon="12.070998068544977"><ele>1416.0</ele><time>2026-04-12T10:08:14.893Z</time></trkpt><trkpt lat="46.4374018692266" lon="12.070899314097062"><ele>1416.0</ele><time>2026-04-12T10:08:15.893Z</time></trkpt><trkpt lat="46.43741582922611" lon="12.070803048224764"><ele>1416.0</ele><time>2026-04-12T10:08:16.893Z</time></trkpt><trkpt lat="46.43742299848734" lon="12.070638002279312"><ele>1416.0</ele><time>2026-04-12T10:08:18.893Z</time></trkpt><trkpt lat="46.437451928918605" lon="12.070514377628104"><ele>1416.0</ele><time>2026-04-12T10:08:20.893Z</time></trkpt><trkpt lat="46.437478052016544" lon="12.07037382632339"><ele>1415.8333333333333</ele><time>2026-04-12T10:08:22.893Z</time></trkpt><trkpt lat="46.437512095858274" lon="12.07028854909426"><ele>1415.6666666666667</ele><time>2026-04-12T10:08:23.893Z</time></trkpt><trkpt lat="46.437548012670916" lon="12.070161999217401"><ele>1415.5</ele><time>2026-04-12T10:08:24.893Z</time></trkpt><trkpt lat="46.43758938089703" lon="12.070047034589184"><ele>1415.3333333333335</ele><time>2026-04-12T10:08:25.893Z</time></trkpt><trkpt lat="46.437630119987666" lon="12.069944083896763"><ele>1415.1666666666667</ele><time>2026-04-12T10:08:26.893Z</time></trkpt><trkpt lat="46.4376784751842" lon="12.069830646508214"><ele>1415.0</ele><time>2026-04-12T10:08:27.893Z</time></trkpt><trkpt lat="46.43773553896097" lon="12.069703954694793"><ele>1415.2</ele><time>2026-04-12T10:08:28.893Z</time></trkpt><trkpt lat="46.437801407224846" lon="12.069556899052783"><ele>1415.4</ele><time>2026-04-12T10:08:29.893Z</time></trkpt><trkpt lat="46.43786604409274" lon="12.069433596028432"><ele>1415.6</ele><time>2026-04-12T10:08:30.893Z</time></trkpt><trkpt lat="46.43794708482877" lon="12.069329729110725"><ele>1415.8</ele><time>2026-04-12T10:08:31.893Z</time></trkpt><trkpt lat="46.43803142859709" lon="12.069230450340878"><ele>1416.0</ele><time>2026-04-12T10:08:32.893Z</time></trkpt><trkpt lat="46.43815180428389" lon="12.069150396224245"><ele>1415.0</ele><time>2026-04-12T10:08:33.893Z</time></trkpt><trkpt lat="46.438257158866165" lon="12.069100756756555"><ele>1414.0</ele><time>2026-04-12T10:08:34.893Z</time></trkpt><trkpt lat="46.438457238995575" lon="12.068904009841278"><ele>1413.0</ele><time>2026-04-12T10:08:35.893Z</time></trkpt><trkpt lat="46.43860226014137" lon="12.06877588940879"><ele>1413.0</ele><time>2026-04-12T10:08:36.893Z</time></trkpt><trkpt lat="46.43872184916928" lon="12.068647589194246"><ele>1413.0</ele><time>2026-04-12T10:08:37.893Z</time></trkpt><trkpt lat="46.43883804168808" lon="12.068505456677583"><ele>1413.0</ele><time>2026-04-12T10:08:38.893Z</time></trkpt><trkpt lat="46.43894993415642" lon="12.068348335831292"><ele>1415.25</ele><time>2026-04-12T10:08:39.893Z</time></trkpt><trkpt lat="46.43905264046373" lon="12.068176528743466"><ele>1417.5</ele><time>2026-04-12T10:08:40.893Z</time></trkpt><trkpt lat="46.43914480499121" lon="12.068021679850451"><ele>1419.75</ele><time>2026-04-12T10:08:41.893Z</time></trkpt><trkpt lat="46.43923418827828" lon="12.067889894437267"><ele>1422.0</ele><time>2026-04-12T10:08:42.893Z</time></trkpt><trkpt lat="46.43931619743656" lon="12.067788957662222"><ele>1422.0</ele><time>2026-04-12T10:08:43.893Z</time></trkpt><trkpt lat="46.43937918083713" lon="12.067668698428228"><ele>1422.0</ele><time>2026-04-12T10:08:44.893Z</time></trkpt><trkpt lat="46.439455297382786" lon="12.067583487355268"><ele>1422.0</ele><time>2026-04-12T10:08:45.893Z</time></trkpt><trkpt lat="46.43952313234888" lon="12.067486340286813"><ele>1422.0</ele><time>2026-04-12T10:08:46.893Z</time></trkpt><trkpt lat="46.43959366281667" lon="12.067381871408594"><ele>1422.0</ele><time>2026-04-12T10:08:47.893Z</time></trkpt><trkpt lat="46.43966208651984" lon="12.067286156518383"><ele>1423.25</ele><time>2026-04-12T10:08:48.893Z</time></trkpt><trkpt lat="46.43974758592505" lon="12.067183368347504"><ele>1424.5</ele><time>2026-04-12T10:08:49.893Z</time></trkpt><trkpt lat="46.43983171005264" lon="12.067060707843227"><ele>1425.75</ele><time>2026-04-12T10:08:50.893Z</time></trkpt><trkpt lat="46.439918695299376" lon="12.066930108592484"><ele>1427.0</ele><time>2026-04-12T10:08:51.893Z</time></trkpt><trkpt lat="46.4400165144326" lon="12.066784145701023"><ele>1427.0</ele><time>2026-04-12T10:08:52.893Z</time></trkpt><trkpt lat="46.44014659685508" lon="12.066696922669614"><ele>1427.0</ele><time>2026-04-12T10:08:53.893Z</time></trkpt><trkpt lat="46.440270302931005" lon="12.066580727341229"><ele>1427.0</ele><time>2026-04-12T10:08:54.893Z</time></trkpt><trkpt lat="46.44039857460545" lon="12.066494950484993"><ele>1427.0</ele><time>2026-04-12T10:08:55.893Z</time></trkpt><trkpt lat="46.440547447283116" lon="12.06644202942783"><ele>1426.25</ele><time>2026-04-12T10:08:56.893Z</time></trkpt><trkpt lat="46.44069505092295" lon="12.066416615552058"><ele>1425.5</ele><time>2026-04-12T10:08:57.893Z</time></trkpt><trkpt lat="46.44082957919501" lon="12.066440274146327"><ele>1424.75</ele><time>2026-04-12T10:08:58.893Z</time></trkpt><trkpt lat="46.44095011108279" lon="12.06648460291633"><ele>1424.0</ele><time>2026-04-12T10:08:59.893Z</time></trkpt><trkpt lat="46.44105881131087" lon="12.066511860722205"><ele>1424.0</ele><time>2026-04-12T10:09:00.893Z</time></trkpt><trkpt lat="46.4411563469217" lon="12.06646533856281"><ele>1424.0</ele><time>2026-04-12T10:09:01.893Z</time></trkpt><trkpt lat="46.4412406006467" lon="12.06635112309899"><ele>1424.0</ele><time>2026-04-12T10:09:02.893Z</time></trkpt><trkpt lat="46.4413147158853" lon="12.066167568453391"><ele>1424.0</ele><time>2026-04-12T10:09:03.893Z</time></trkpt><trkpt lat="46.44136046053247" lon="12.06591489958295"><ele>1426.6666666666667</ele><time>2026-04-12T10:09:04.893Z</time></trkpt><trkpt lat="46.44137862562164" lon="12.065727154729576"><ele>1429.3333333333333</ele><time>2026-04-12T10:09:05.893Z</time></trkpt><trkpt lat="46.44145188227833" lon="12.065509315818124"><ele>1432.0</ele><time>2026-04-12T10:09:06.893Z</time></trkpt><trkpt lat="46.441569442568145" lon="12.065292270791863"><ele>1432.0</ele><time>2026-04-12T10:09:07.893Z</time></trkpt><trkpt lat="46.441702090673445" lon="12.065059925368788"><ele>1432.0</ele><time>2026-04-12T10:09:08.893Z</time></trkpt><trkpt lat="46.441834245059525" lon="12.06484837412967"><ele>1432.0</ele><time>2026-04-12T10:09:09.893Z</time></trkpt><trkpt lat="46.44194528720662" lon="12.06463333422867"><ele>1433.6666666666665</ele><time>2026-04-12T10:09:10.893Z</time></trkpt><trkpt lat="46.44204533387707" lon="12.064428843789731"><ele>1435.3333333333333</ele><time>2026-04-12T10:09:11.893Z</time></trkpt><trkpt lat="46.442136318265895" lon="12.064206780130384"><ele>1437.0</ele><time>2026-04-12T10:09:12.893Z</time></trkpt><trkpt lat="46.44219389481238" lon="12.063948031405479"><ele>1437.0</ele><time>2026-04-12T10:09:13.893Z</time></trkpt><trkpt lat="46.44224373090348" lon="12.063710311992425"><ele>1437.0</ele><time>2026-04-12T10:09:14.893Z</time></trkpt><trkpt lat="46.44229696207336" lon="12.063479493307403"><ele>1437.0</ele><time>2026-04-12T10:09:15.893Z</time></trkpt><trkpt lat="46.442342470189615" lon="12.063259238667165"><ele>1434.6666666666667</ele><time>2026-04-12T10:09:16.893Z</time></trkpt><trkpt lat="46.44239594728369" lon="12.063050115137672"><ele>1432.3333333333335</ele><time>2026-04-12T10:09:17.893Z</time></trkpt><trkpt lat="46.442471160913065" lon="12.06286063467243"><ele>1430.0</ele><time>2026-04-12T10:09:18.893Z</time></trkpt><trkpt lat="46.442570394050705" lon="12.06269538481964"><ele>1430.0</ele><time>2026-04-12T10:09:19.893Z</time></trkpt><trkpt lat="46.44265729465477" lon="12.06259611926841"><ele>1430.0</ele><time>2026-04-12T10:09:20.893Z</time></trkpt><trkpt lat="46.44273686026183" lon="12.062535450797897"><ele>1430.0</ele><time>2026-04-12T10:09:21.893Z</time></trkpt><trkpt lat="46.44284851274358" lon="12.062552474629125"><ele>1430.0</ele><time>2026-04-12T10:09:22.893Z</time></trkpt><trkpt lat="46.44296041850456" lon="12.062558396038511"><ele>1430.0</ele><time>2026-04-12T10:09:23.893Z</time></trkpt><trkpt lat="46.44307301133154" lon="12.062551010297915"><ele>1426.6666666666667</ele><time>2026-04-12T10:09:24.893Z</time></trkpt><trkpt lat="46.44328081177882" lon="12.062424030682294"><ele>1423.3333333333333</ele><time>2026-04-12T10:09:25.893Z</time></trkpt><trkpt lat="46.44339614996001" lon="12.062370884438005"><ele>1420.0</ele><time>2026-04-12T10:09:26.893Z</time></trkpt><trkpt lat="46.44350443131437" lon="12.062287487827017"><ele>1420.0</ele><time>2026-04-12T10:09:27.893Z</time></trkpt><trkpt lat="46.44358978974713" lon="12.062168237603084"><ele>1420.0</ele><time>2026-04-12T10:09:28.893Z</time></trkpt><trkpt lat="46.44365445582731" lon="12.062001384629925"><ele>1420.0</ele><time>2026-04-12T10:09:29.893Z</time></trkpt><trkpt lat="46.44372441098275" lon="12.061816610590082"><ele>1420.0</ele><time>2026-04-12T10:09:30.893Z</time></trkpt><trkpt lat="46.44380710036886" lon="12.061625232834647"><ele>1418.5</ele><time>2026-04-12T10:09:31.894Z</time></trkpt><trkpt lat="46.44388982437485" lon="12.06145555196936"><ele>1417.0</ele><time>2026-04-12T10:09:32.894Z</time></trkpt><trkpt lat="46.44398856210994" lon="12.061290691824976"><ele>1415.5</ele><time>2026-04-12T10:09:33.894Z</time></trkpt><trkpt lat="46.44408762896581" lon="12.061143793800166"><ele>1414.0</ele><time>2026-04-12T10:09:34.894Z</time></trkpt><trkpt lat="46.44418894169142" lon="12.061004746297233"><ele>1414.0</ele><time>2026-04-12T10:09:35.894Z</time></trkpt><trkpt lat="46.444293413364726" lon="12.060867113366815"><ele>1414.0</ele><time>2026-04-12T10:09:36.894Z</time></trkpt><trkpt lat="46.44439448661347" lon="12.060739560206994"><ele>1414.0</ele><time>2026-04-12T10:09:37.894Z</time></trkpt><trkpt lat="46.444494674337626" lon="12.060609542944128"><ele>1414.0</ele><time>2026-04-12T10:09:38.894Z</time></trkpt><trkpt lat="46.44458789855404" lon="12.060496729968852"><ele>1414.0</ele><time>2026-04-12T10:09:39.894Z</time></trkpt><trkpt lat="46.44465950045165" lon="12.060434815094412"><ele>1414.0</ele><time>2026-04-12T10:09:40.894Z</time></trkpt><trkpt lat="46.44474174105063" lon="12.060376844116911"><ele>1414.0</ele><time>2026-04-12T10:09:42.894Z</time></trkpt><trkpt lat="46.44480013932032" lon="12.06031494029932"><ele>1414.0</ele><time>2026-04-12T10:09:46.894Z</time></trkpt><trkpt lat="46.44486890491937" lon="12.060286404944941"><ele>1414.0</ele><time>2026-04-12T10:09:57.894Z</time></trkpt><trkpt lat="46.44493723856293" lon="12.060308650487531"><ele>1414.0</ele><time>2026-04-12T10:10:03.894Z</time></trkpt><trkpt lat="46.44498558047502" lon="12.06024863826731"><ele>1414.0</ele><time>2026-04-12T10:10:06.894Z</time></trkpt><trkpt lat="46.44502839085905" lon="12.060113216052562"><ele>1414.0</ele><time>2026-04-12T10:11:54.895Z</time></trkpt><trkpt lat="46.44513896280792" lon="12.060014020907333"><ele>1414.0</ele><time>2026-04-12T10:11:56.895Z</time></trkpt><trkpt lat="46.44525189592113" lon="12.059938866663401"><ele>1414.0</ele><time>2026-04-12T10:11:57.895Z</time></trkpt><trkpt lat="46.44534691772696" lon="12.059889790272697"><ele>1412.5</ele><time>2026-04-12T10:11:58.895Z</time></trkpt><trkpt lat="46.44543582854233" lon="12.05983631997799"><ele>1411.0</ele><time>2026-04-12T10:11:59.895Z</time></trkpt><trkpt lat="46.445561380695544" lon="12.05976132304039"><ele>1409.5</ele><time>2026-04-12T10:12:00.895Z</time></trkpt><trkpt lat="46.44567173394133" lon="12.059673806868302"><ele>1408.0</ele><time>2026-04-12T10:12:01.895Z</time></trkpt><trkpt lat="46.44577370113311" lon="12.05960247212725"><ele>1408.0</ele><time>2026-04-12T10:12:02.895Z</time></trkpt><trkpt lat="46.44587392490114" lon="12.059529652439823"><ele>1408.0</ele><time>2026-04-12T10:12:03.895Z</time></trkpt><trkpt lat="46.44596921946567" lon="12.059407273508869"><ele>1408.0</ele><time>2026-04-12T10:12:04.895Z</time></trkpt><trkpt lat="46.44605261398314" lon="12.05923980881998"><ele>1408.0</ele><time>2026-04-12T10:12:05.895Z</time></trkpt><trkpt lat="46.44612536494045" lon="12.059016777864787"><ele>1407.3333333333333</ele><time>2026-04-12T10:12:06.895Z</time></trkpt><trkpt lat="46.446201743028354" lon="12.058738547543642"><ele>1406.6666666666667</ele><time>2026-04-12T10:12:07.895Z</time></trkpt><trkpt lat="46.44626960432025" lon="12.058459542957381"><ele>1406.0</ele><time>2026-04-12T10:12:08.895Z</time></trkpt><trkpt lat="46.446335009519636" lon="12.058208777659337"><ele>1409.0</ele><time>2026-04-12T10:12:09.895Z</time></trkpt><trkpt lat="46.44640235455495" lon="12.05799633666186"><ele>1412.0</ele><time>2026-04-12T10:12:10.895Z</time></trkpt><trkpt lat="46.446467947959725" lon="12.057784717361548"><ele>1415.0</ele><time>2026-04-12T10:12:11.895Z</time></trkpt><trkpt lat="46.44652952180932" lon="12.057596029162637"><ele>1414.25</ele><time>2026-04-12T10:12:12.895Z</time></trkpt><trkpt lat="46.44658424417784" lon="12.057416856478856"><ele>1413.5</ele><time>2026-04-12T10:12:13.895Z</time></trkpt><trkpt lat="46.44663339071076" lon="12.05723890064394"><ele>1412.75</ele><time>2026-04-12T10:12:14.895Z</time></trkpt><trkpt lat="46.446679704507915" lon="12.057058099809325"><ele>1412.0</ele><time>2026-04-12T10:12:15.895Z</time></trkpt><trkpt lat="46.446718250302816" lon="12.056879965083926"><ele>1412.0</ele><time>2026-04-12T10:12:16.895Z</time></trkpt><trkpt lat="46.44673480383027" lon="12.056706262495183"><ele>1412.0</ele><time>2026-04-12T10:12:17.895Z</time></trkpt><trkpt lat="46.446742510177074" lon="12.056519691706358"><ele>1412.0</ele><time>2026-04-12T10:12:18.895Z</time></trkpt><trkpt lat="46.446755916393414" lon="12.05633375119184"><ele>1412.0</ele><time>2026-04-12T10:12:19.895Z</time></trkpt><trkpt lat="46.44677149212517" lon="12.056154454171791"><ele>1411.6</ele><time>2026-04-12T10:12:20.895Z</time></trkpt><trkpt lat="46.44678042629659" lon="12.055974560667423"><ele>1411.1999999999998</ele><time>2026-04-12T10:12:21.895Z</time></trkpt><trkpt lat="46.44679004611558" lon="12.055820719375435"><ele>1410.8</ele><time>2026-04-12T10:12:22.895Z</time></trkpt><trkpt lat="46.446814764616235" lon="12.055677044813526"><ele>1410.4</ele><time>2026-04-12T10:12:23.895Z</time></trkpt><trkpt lat="46.446842583207015" lon="12.055539612880509"><ele>1410.0</ele><time>2026-04-12T10:12:24.895Z</time></trkpt><trkpt lat="46.446881418631726" lon="12.05541231836004"><ele>1409.8</ele><time>2026-04-12T10:12:25.895Z</time></trkpt><trkpt lat="46.44693050260351" lon="12.05529690426657"><ele>1409.6</ele><time>2026-04-12T10:12:26.895Z</time></trkpt><trkpt lat="46.446991978196856" lon="12.055187286005802"><ele>1409.4</ele><time>2026-04-12T10:12:27.895Z</time></trkpt><trkpt lat="46.447055142738726" lon="12.055092921124308"><ele>1409.2</ele><time>2026-04-12T10:12:28.895Z</time></trkpt><trkpt lat="46.447119011127796" lon="12.054987835292083"><ele>1409.0</ele><time>2026-04-12T10:12:29.895Z</time></trkpt><trkpt lat="46.44717803655981" lon="12.054887491586923"><ele>1409.0</ele><time>2026-04-12T10:12:30.895Z</time></trkpt><trkpt lat="46.44724408656979" lon="12.054789775514383"><ele>1409.0</ele><time>2026-04-12T10:12:31.895Z</time></trkpt><trkpt lat="46.4473091496684" lon="12.05468616459553"><ele>1409.0</ele><time>2026-04-12T10:12:32.895Z</time></trkpt><trkpt lat="46.44736802070328" lon="12.054580006516726"><ele>1409.0</ele><time>2026-04-12T10:12:33.895Z</time></trkpt><trkpt lat="46.447424619256054" lon="12.054483459460043"><ele>1409.0</ele><time>2026-04-12T10:12:34.895Z</time></trkpt><trkpt lat="46.4474920001399" lon="12.054389482309949"><ele>1409.0</ele><time>2026-04-12T10:12:35.895Z</time></trkpt><trkpt lat="46.44756560084892" lon="12.054269146819053"><ele>1409.0</ele><time>2026-04-12T10:12:36.895Z</time></trkpt><trkpt lat="46.44764342400199" lon="12.054142735644259"><ele>1409.0</ele><time>2026-04-12T10:12:37.895Z</time></trkpt><trkpt lat="46.44772085784939" lon="12.054016742755918"><ele>1409.0</ele><time>2026-04-12T10:12:38.895Z</time></trkpt><trkpt lat="46.44780901528062" lon="12.05389033770003"><ele>1410.5</ele><time>2026-04-12T10:12:39.895Z</time></trkpt><trkpt lat="46.44791965578084" lon="12.053773551780838"><ele>1412.0</ele><time>2026-04-12T10:12:40.895Z</time></trkpt><trkpt lat="46.44802584282899" lon="12.053682501557955"><ele>1413.5</ele><time>2026-04-12T10:12:41.895Z</time></trkpt><trkpt lat="46.44807930177673" lon="12.053526126591807"><ele>1415.0</ele><time>2026-04-12T10:12:42.895Z</time></trkpt><trkpt lat="46.44814346390115" lon="12.053382573570094"><ele>1418.25</ele><time>2026-04-12T10:12:43.895Z</time></trkpt><trkpt lat="46.44817981758086" lon="12.053217936814272"><ele>1421.5</ele><time>2026-04-12T10:12:44.895Z</time></trkpt><trkpt lat="46.448184516606" lon="12.05305289539284"><ele>1424.75</ele><time>2026-04-12T10:12:45.895Z</time></trkpt><trkpt lat="46.448147230241425" lon="12.052909737602905"><ele>1428.0</ele><time>2026-04-12T10:12:46.895Z</time></trkpt><trkpt lat="46.4480817381465" lon="12.05276017526755"><ele>1428.0</ele><time>2026-04-12T10:12:47.895Z</time></trkpt><trkpt lat="46.44797489510075" lon="12.052623200007492"><ele>1428.0</ele><time>2026-04-12T10:12:48.895Z</time></trkpt><trkpt lat="46.44784388462822" lon="12.052531232944157"><ele>1428.0</ele><time>2026-04-12T10:12:49.895Z</time></trkpt><trkpt lat="46.447675587845616" lon="12.05239316674609"><ele>1426.3333333333333</ele><time>2026-04-12T10:12:50.895Z</time></trkpt><trkpt lat="46.447512761635664" lon="12.05227533168877"><ele>1424.6666666666665</ele><time>2026-04-12T10:12:51.895Z</time></trkpt><trkpt lat="46.4473712412907" lon="12.052180628798151"><ele>1423.0</ele><time>2026-04-12T10:12:52.895Z</time></trkpt><trkpt lat="46.44725253033001" lon="12.052101992817335"><ele>1423.0</ele><time>2026-04-12T10:12:53.895Z</time></trkpt><trkpt lat="46.44715350422658" lon="12.052016976480978"><ele>1423.0</ele><time>2026-04-12T10:12:54.895Z</time></trkpt><trkpt lat="46.44708791306154" lon="12.051902197060826"><ele>1423.0</ele><time>2026-04-12T10:12:55.895Z</time></trkpt><trkpt lat="46.44704768850068" lon="12.051753109814765"><ele>1423.0</ele><time>2026-04-12T10:12:56.895Z</time></trkpt><trkpt lat="46.44702841498921" lon="12.051606540874383"><ele>1423.0</ele><time>2026-04-12T10:12:57.895Z</time></trkpt><trkpt lat="46.447076639606216" lon="12.051459006855971"><ele>1422.0</ele><time>2026-04-12T10:12:58.895Z</time></trkpt><trkpt lat="46.44711317199683" lon="12.051250354129733"><ele>1421.0</ele><time>2026-04-12T10:12:59.895Z</time></trkpt><trkpt lat="46.447158841457906" lon="12.051029117091417"><ele>1420.0</ele><time>2026-04-12T10:13:00.895Z</time></trkpt><trkpt lat="46.447208142449306" lon="12.0507684576277"><ele>1419.6666666666665</ele><time>2026-04-12T10:13:01.895Z</time></trkpt><trkpt lat="46.44726802157794" lon="12.050478809132679"><ele>1419.3333333333333</ele><time>2026-04-12T10:13:02.895Z</time></trkpt><trkpt lat="46.44733606325067" lon="12.050196519154865"><ele>1419.0</ele><time>2026-04-12T10:13:03.895Z</time></trkpt><trkpt lat="46.44738561192999" lon="12.049924105002454"><ele>1414.6666666666667</ele><time>2026-04-12T10:13:04.895Z</time></trkpt><trkpt lat="46.44744296099549" lon="12.049663559083287"><ele>1410.3333333333335</ele><time>2026-04-12T10:13:05.895Z</time></trkpt><trkpt lat="46.447504143269036" lon="12.049431733993009"><ele>1406.0</ele><time>2026-04-12T10:13:06.895Z</time></trkpt><trkpt lat="46.447553223574644" lon="12.049219467280977"><ele>1400.6666666666667</ele><time>2026-04-12T10:13:07.895Z</time></trkpt><trkpt lat="46.44761879144481" lon="12.049006149105992"><ele>1395.3333333333333</ele><time>2026-04-12T10:13:08.895Z</time></trkpt><trkpt lat="46.44774065784595" lon="12.04882331451892"><ele>1390.0</ele><time>2026-04-12T10:13:09.895Z</time></trkpt><trkpt lat="46.447872263855906" lon="12.048612392261548"><ele>1394.0</ele><time>2026-04-12T10:13:10.895Z</time></trkpt><trkpt lat="46.44806848928419" lon="12.048350566974024"><ele>1398.0</ele><time>2026-04-12T10:13:11.895Z</time></trkpt><trkpt lat="46.448216185973294" lon="12.04808733151926"><ele>1398.0</ele><time>2026-04-12T10:13:12.895Z</time></trkpt><trkpt lat="46.44836956341309" lon="12.047776146625067"><ele>1398.0</ele><time>2026-04-12T10:13:13.895Z</time></trkpt><trkpt lat="46.44853271096452" lon="12.047542875270576"><ele>1394.0</ele><time>2026-04-12T10:13:14.895Z</time></trkpt><trkpt lat="46.448660551249795" lon="12.04729950155316"><ele>1390.0</ele><time>2026-04-12T10:13:15.895Z</time></trkpt><trkpt lat="46.44876405026079" lon="12.04704297539753"><ele>1386.0</ele><time>2026-04-12T10:13:16.895Z</time></trkpt><trkpt lat="46.448850629619294" lon="12.046784818025888"><ele>1389.6666666666667</ele><time>2026-04-12T10:13:17.895Z</time></trkpt><trkpt lat="46.44893270077478" lon="12.046553399905305"><ele>1393.3333333333335</ele><time>2026-04-12T10:13:18.895Z</time></trkpt><trkpt lat="46.44901660671264" lon="12.046345873840377"><ele>1397.0</ele><time>2026-04-12T10:13:19.895Z</time></trkpt><trkpt lat="46.44910502662905" lon="12.046167284557312"><ele>1397.0</ele><time>2026-04-12T10:13:20.895Z</time></trkpt><trkpt lat="46.4492103626223" lon="12.045991025936287"><ele>1397.0</ele><time>2026-04-12T10:13:21.895Z</time></trkpt><trkpt lat="46.449321338596945" lon="12.045853048249572"><ele>1397.0</ele><time>2026-04-12T10:13:22.895Z</time></trkpt><trkpt lat="46.44944085730709" lon="12.045742875730353"><ele>1397.0</ele><time>2026-04-12T10:13:23.895Z</time></trkpt><trkpt lat="46.44956287362545" lon="12.045658705142387"><ele>1398.25</ele><time>2026-04-12T10:13:24.895Z</time></trkpt><trkpt lat="46.44968715321655" lon="12.045591664664396"><ele>1399.5</ele><time>2026-04-12T10:13:25.895Z</time></trkpt><trkpt lat="46.449808901578294" lon="12.045495449254268"><ele>1400.75</ele><time>2026-04-12T10:13:26.895Z</time></trkpt><trkpt lat="46.4499160733644" lon="12.045381455935349"><ele>1402.0</ele><time>2026-04-12T10:13:27.895Z</time></trkpt><trkpt lat="46.4500144278371" lon="12.045231886725007"><ele>1402.0</ele><time>2026-04-12T10:13:28.895Z</time></trkpt><trkpt lat="46.4500822568786" lon="12.04505321980818"><ele>1402.0</ele><time>2026-04-12T10:13:29.895Z</time></trkpt><trkpt lat="46.450124857806095" lon="12.0448657402941"><ele>1402.0</ele><time>2026-04-12T10:13:30.895Z</time></trkpt><trkpt lat="46.450160030418104" lon="12.044679740988483"><ele>1402.0</ele><time>2026-04-12T10:13:31.895Z</time></trkpt><trkpt lat="46.45020189180013" lon="12.044491932535827"><ele>1399.0</ele><time>2026-04-12T10:13:32.895Z</time></trkpt><trkpt lat="46.450239918775026" lon="12.044301323040647"><ele>1396.0</ele><time>2026-04-12T10:13:33.895Z</time></trkpt><trkpt lat="46.45029304737775" lon="12.044133348045232"><ele>1393.0</ele><time>2026-04-12T10:13:34.895Z</time></trkpt><trkpt lat="46.450349856365115" lon="12.043947322528203"><ele>1390.0</ele><time>2026-04-12T10:13:35.895Z</time></trkpt><trkpt lat="46.45040090379426" lon="12.043763351304602"><ele>1391.0</ele><time>2026-04-12T10:13:36.895Z</time></trkpt><trkpt lat="46.45045171861533" lon="12.04357575991175"><ele>1392.0</ele><time>2026-04-12T10:13:37.895Z</time></trkpt><trkpt lat="46.450506731413746" lon="12.0433852154932"><ele>1393.0</ele><time>2026-04-12T10:13:38.895Z</time></trkpt><trkpt lat="46.450567697895714" lon="12.043139959602966"><ele>1393.0</ele><time>2026-04-12T10:13:39.895Z</time></trkpt><trkpt lat="46.45064576701708" lon="12.042878278364235"><ele>1393.0</ele><time>2026-04-12T10:13:40.895Z</time></trkpt><trkpt lat="46.45073993477069" lon="12.042754946870756"><ele>1393.0</ele><time>2026-04-12T10:13:42.895Z</time></trkpt><trkpt lat="46.45077167073139" lon="12.042619288271771"><ele>1393.0</ele><time>2026-04-12T10:13:43.896Z</time></trkpt><trkpt lat="46.45081528791512" lon="12.04240330392195"><ele>1391.6666666666665</ele><time>2026-04-12T10:13:44.896Z</time></trkpt><trkpt lat="46.45077455616116" lon="12.042114465071048"><ele>1390.3333333333333</ele><time>2026-04-12T10:13:45.896Z</time></trkpt><trkpt lat="46.45076576911776" lon="12.041916699981993"><ele>1389.0</ele><time>2026-04-12T10:13:46.896Z</time></trkpt><trkpt lat="46.45074826479884" lon="12.041725799277824"><ele>1387.0</ele><time>2026-04-12T10:13:47.896Z</time></trkpt><trkpt lat="46.45073276780893" lon="12.0415449647247"><ele>1385.0</ele><time>2026-04-12T10:13:48.896Z</time></trkpt><trkpt lat="46.450726110868814" lon="12.041359911856977"><ele>1383.0</ele><time>2026-04-12T10:13:49.896Z</time></trkpt><trkpt lat="46.45072958902185" lon="12.041163781199085"><ele>1381.0</ele><time>2026-04-12T10:13:50.896Z</time></trkpt><trkpt lat="46.450741852271" lon="12.040951643227263"><ele>1377.6666666666665</ele><time>2026-04-12T10:13:51.896Z</time></trkpt><trkpt lat="46.45076483636798" lon="12.04068926384065"><ele>1374.3333333333333</ele><time>2026-04-12T10:13:52.896Z</time></trkpt><trkpt lat="46.450787844442374" lon="12.040393071746655"><ele>1371.0</ele><time>2026-04-12T10:13:53.896Z</time></trkpt><trkpt lat="46.45081735647594" lon="12.040074977888079"><ele>1369.6666666666667</ele><time>2026-04-12T10:13:54.896Z</time></trkpt><trkpt lat="46.45085388813355" lon="12.03977917139848"><ele>1368.3333333333335</ele><time>2026-04-12T10:13:55.896Z</time></trkpt><trkpt lat="46.450896752727836" lon="12.039505377116395"><ele>1367.0</ele><time>2026-04-12T10:13:56.896Z</time></trkpt><trkpt lat="46.450936292523636" lon="12.039207489215828"><ele>1363.3333333333335</ele><time>2026-04-12T10:13:57.896Z</time></trkpt><trkpt lat="46.45097412928338" lon="12.038916518926637"><ele>1359.6666666666667</ele><time>2026-04-12T10:13:58.896Z</time></trkpt><trkpt lat="46.45101464878984" lon="12.038637156863182"><ele>1356.0</ele><time>2026-04-12T10:13:59.896Z</time></trkpt><trkpt lat="46.45104151941039" lon="12.038352264576675"><ele>1352.6666666666667</ele><time>2026-04-12T10:14:00.896Z</time></trkpt><trkpt lat="46.451076892623306" lon="12.038075455973592"><ele>1349.3333333333335</ele><time>2026-04-12T10:14:01.896Z</time></trkpt><trkpt lat="46.45111430550709" lon="12.037801006004889"><ele>1346.0</ele><time>2026-04-12T10:14:02.896Z</time></trkpt><trkpt lat="46.45115215828583" lon="12.037529251315236"><ele>1342.3333333333335</ele><time>2026-04-12T10:14:03.896Z</time></trkpt><trkpt lat="46.451188998805414" lon="12.037255586434688"><ele>1338.6666666666667</ele><time>2026-04-12T10:14:04.896Z</time></trkpt><trkpt lat="46.45121815114933" lon="12.036981109481161"><ele>1335.0</ele><time>2026-04-12T10:14:05.896Z</time></trkpt><trkpt lat="46.451244819331755" lon="12.036713951185652"><ele>1334.3333333333333</ele><time>2026-04-12T10:14:06.896Z</time></trkpt><trkpt lat="46.45127049343738" lon="12.036460479304187"><ele>1333.6666666666665</ele><time>2026-04-12T10:14:07.896Z</time></trkpt><trkpt lat="46.45129253364085" lon="12.036229746872838"><ele>1333.0</ele><time>2026-04-12T10:14:08.896Z</time></trkpt><trkpt lat="46.45130715589202" lon="12.036003566766018"><ele>1335.5</ele><time>2026-04-12T10:14:09.896Z</time></trkpt><trkpt lat="46.45132430915008" lon="12.035804164845851"><ele>1338.0</ele><time>2026-04-12T10:14:10.896Z</time></trkpt><trkpt lat="46.4513298410321" lon="12.035607711214249"><ele>1340.5</ele><time>2026-04-12T10:14:11.896Z</time></trkpt><trkpt lat="46.45134355713367" lon="12.035401630189995"><ele>1343.0</ele><time>2026-04-12T10:14:12.896Z</time></trkpt><trkpt lat="46.45135659780106" lon="12.035207941117898"><ele>1343.0</ele><time>2026-04-12T10:14:13.896Z</time></trkpt><trkpt lat="46.45138680297956" lon="12.035024830701952"><ele>1343.0</ele><time>2026-04-12T10:14:14.896Z</time></trkpt><trkpt lat="46.4514261099976" lon="12.034861218999596"><ele>1343.0</ele><time>2026-04-12T10:14:15.896Z</time></trkpt><trkpt lat="46.45146781085914" lon="12.034688018048188"><ele>1343.0</ele><time>2026-04-12T10:14:16.896Z</time></trkpt><trkpt lat="46.45151242432302" lon="12.034547694205202"><ele>1341.6000000000001</ele><time>2026-04-12T10:14:17.896Z</time></trkpt><trkpt lat="46.45156102452849" lon="12.034432907259603"><ele>1340.2</ele><time>2026-04-12T10:14:18.896Z</time></trkpt><trkpt lat="46.45162701147778" lon="12.034329187088538"><ele>1338.8</ele><time>2026-04-12T10:14:19.896Z</time></trkpt><trkpt lat="46.45171392939884" lon="12.034236618954328"><ele>1337.4</ele><time>2026-04-12T10:14:20.896Z</time></trkpt><trkpt lat="46.45181472042231" lon="12.034150112293485"><ele>1336.0</ele><time>2026-04-12T10:14:21.896Z</time></trkpt><trkpt lat="46.45193130504684" lon="12.03408251125106"><ele>1332.5</ele><time>2026-04-12T10:14:22.896Z</time></trkpt><trkpt lat="46.452053594991604" lon="12.033998960976925"><ele>1329.0</ele><time>2026-04-12T10:14:23.896Z</time></trkpt><trkpt lat="46.452212367906206" lon="12.033929465983011"><ele>1325.5</ele><time>2026-04-12T10:14:24.896Z</time></trkpt><trkpt lat="46.45233610933609" lon="12.033902747494992"><ele>1322.0</ele><time>2026-04-12T10:14:25.896Z</time></trkpt><trkpt lat="46.45248338520724" lon="12.033873621346501"><ele>1322.0</ele><time>2026-04-12T10:14:26.896Z</time></trkpt><trkpt lat="46.45262416314128" lon="12.033796070524089"><ele>1322.0</ele><time>2026-04-12T10:14:27.896Z</time></trkpt><trkpt lat="46.452792800975296" lon="12.033734340347646"><ele>1322.0</ele><time>2026-04-12T10:14:28.896Z</time></trkpt><trkpt lat="46.45295306223277" lon="12.033675739371578"><ele>1323.6666666666667</ele><time>2026-04-12T10:14:29.896Z</time></trkpt><trkpt lat="46.4531154431895" lon="12.033586851000262"><ele>1325.3333333333333</ele><time>2026-04-12T10:14:30.896Z</time></trkpt><trkpt lat="46.45328517162408" lon="12.033491570205518"><ele>1327.0</ele><time>2026-04-12T10:14:31.896Z</time></trkpt><trkpt lat="46.45346479397545" lon="12.033383214660406"><ele>1321.3333333333333</ele><time>2026-04-12T10:14:32.896Z</time></trkpt><trkpt lat="46.45363604586163" lon="12.033291843754467"><ele>1315.6666666666667</ele><time>2026-04-12T10:14:33.896Z</time></trkpt><trkpt lat="46.45380048291378" lon="12.03318357790028"><ele>1310.0</ele><time>2026-04-12T10:14:34.896Z</time></trkpt><trkpt lat="46.45397245509141" lon="12.033076997887543"><ele>1310.0</ele><time>2026-04-12T10:14:35.896Z</time></trkpt><trkpt lat="46.454135208524505" lon="12.032983317912278"><ele>1310.0</ele><time>2026-04-12T10:14:36.896Z</time></trkpt><trkpt lat="46.454303050212076" lon="12.032889794535107"><ele>1310.0</ele><time>2026-04-12T10:14:37.896Z</time></trkpt><trkpt lat="46.45447484957863" lon="12.032783941899808"><ele>1314.3333333333335</ele><time>2026-04-12T10:14:38.896Z</time></trkpt><trkpt lat="46.45464026804663" lon="12.032694800585459"><ele>1318.6666666666667</ele><time>2026-04-12T10:14:39.896Z</time></trkpt><trkpt lat="46.45481747193484" lon="12.032590356994655"><ele>1323.0</ele><time>2026-04-12T10:14:40.896Z</time></trkpt><trkpt lat="46.45499679962122" lon="12.03248091252663"><ele>1318.3333333333333</ele><time>2026-04-12T10:14:41.896Z</time></trkpt><trkpt lat="46.45518603369614" lon="12.032365340443127"><ele>1313.6666666666665</ele><time>2026-04-12T10:14:42.896Z</time></trkpt><trkpt lat="46.45538093605412" lon="12.032250049334714"><ele>1309.0</ele><time>2026-04-12T10:14:43.896Z</time></trkpt><trkpt lat="46.455567567648735" lon="12.032140999002618"><ele>1309.0</ele><time>2026-04-12T10:14:44.896Z</time></trkpt><trkpt lat="46.45574531284173" lon="12.032044297253295"><ele>1309.0</ele><time>2026-04-12T10:14:45.896Z</time></trkpt><trkpt lat="46.45591808966178" lon="12.031941473293411"><ele>1309.0</ele><time>2026-04-12T10:14:46.896Z</time></trkpt><trkpt lat="46.4560932245789" lon="12.031844278692196"><ele>1309.0</ele><time>2026-04-12T10:14:47.896Z</time></trkpt><trkpt lat="46.4562610189754" lon="12.03175380715482"><ele>1309.0</ele><time>2026-04-12T10:14:48.896Z</time></trkpt><trkpt lat="46.45642598354208" lon="12.031662804568047"><ele>1309.0</ele><time>2026-04-12T10:14:49.896Z</time></trkpt><trkpt lat="46.45657465558603" lon="12.031585344674737"><ele>1312.5</ele><time>2026-04-12T10:14:50.896Z</time></trkpt><trkpt lat="46.45671915007865" lon="12.031511580849942"><ele>1316.0</ele><time>2026-04-12T10:14:51.896Z</time></trkpt><trkpt lat="46.456860143803695" lon="12.031538541340048"><ele>1319.5</ele><time>2026-04-12T10:14:52.896Z</time></trkpt><trkpt lat="46.45700433221349" lon="12.031559555174113"><ele>1323.0</ele><time>2026-04-12T10:14:53.896Z</time></trkpt><trkpt lat="46.45715473995696" lon="12.031566929219961"><ele>1325.3333333333333</ele><time>2026-04-12T10:14:54.896Z</time></trkpt><trkpt lat="46.45732112289423" lon="12.03161101616157"><ele>1327.6666666666665</ele><time>2026-04-12T10:14:55.896Z</time></trkpt><trkpt lat="46.45749409981842" lon="12.031691252054635"><ele>1330.0</ele><time>2026-04-12T10:14:56.896Z</time></trkpt><trkpt lat="46.457660634682604" lon="12.031764864132034"><ele>1330.0</ele><time>2026-04-12T10:14:57.896Z</time></trkpt><trkpt lat="46.45780727269125" lon="12.031828030511463"><ele>1330.0</ele><time>2026-04-12T10:14:58.896Z</time></trkpt><trkpt lat="46.457979218454966" lon="12.031884257089931"><ele>1330.0</ele><time>2026-04-12T10:14:59.896Z</time></trkpt><trkpt lat="46.45816095318258" lon="12.031934870441459"><ele>1331.0</ele><time>2026-04-12T10:15:00.896Z</time></trkpt><trkpt lat="46.458330150122315" lon="12.03198858823117"><ele>1332.0</ele><time>2026-04-12T10:15:01.896Z</time></trkpt><trkpt lat="46.45847569302627" lon="12.032030552678867"><ele>1333.0</ele><time>2026-04-12T10:15:02.896Z</time></trkpt><trkpt lat="46.45859111576569" lon="12.032057793073934"><ele>1334.0</ele><time>2026-04-12T10:15:03.896Z</time></trkpt><trkpt lat="46.458696484350135" lon="12.032046581368535"><ele>1338.2</ele><time>2026-04-12T10:15:04.896Z</time></trkpt><trkpt lat="46.45878821952539" lon="12.031983033917198"><ele>1342.4</ele><time>2026-04-12T10:15:05.896Z</time></trkpt><trkpt lat="46.4588801075039" lon="12.031869125624235"><ele>1346.6</ele><time>2026-04-12T10:15:06.896Z</time></trkpt><trkpt lat="46.45893471937476" lon="12.031733072194116"><ele>1350.8</ele><time>2026-04-12T10:15:07.896Z</time></trkpt><trkpt lat="46.45899733842611" lon="12.031608189647184"><ele>1355.0</ele><time>2026-04-12T10:15:08.896Z</time></trkpt><trkpt lat="46.459066672250025" lon="12.031499787276564"><ele>1355.0</ele><time>2026-04-12T10:15:09.896Z</time></trkpt><trkpt lat="46.459179862796816" lon="12.031508182503625"><ele>1355.0</ele><time>2026-04-12T10:15:10.896Z</time></trkpt><trkpt lat="46.459306172106594" lon="12.031606785210332"><ele>1355.0</ele><time>2026-04-12T10:15:11.896Z</time></trkpt><trkpt lat="46.45946257590439" lon="12.031645539509682"><ele>1355.0</ele><time>2026-04-12T10:15:12.896Z</time></trkpt><trkpt lat="46.45962401716062" lon="12.031670653635615"><ele>1359.6666666666667</ele><time>2026-04-12T10:15:13.896Z</time></trkpt><trkpt lat="46.45980242315961" lon="12.031661595063227"><ele>1364.3333333333333</ele><time>2026-04-12T10:15:14.896Z</time></trkpt><trkpt lat="46.45999238565388" lon="12.031667840447094"><ele>1369.0</ele><time>2026-04-12T10:15:15.896Z</time></trkpt><trkpt lat="46.460144221188685" lon="12.031708610070009"><ele>1369.0</ele><time>2026-04-12T10:15:16.896Z</time></trkpt><trkpt lat="46.460258559268894" lon="12.0317958241068"><ele>1369.0</ele><time>2026-04-12T10:15:17.896Z</time></trkpt><trkpt lat="46.4603831037866" lon="12.031887704431398"><ele>1369.0</ele><time>2026-04-12T10:15:18.896Z</time></trkpt><trkpt lat="46.46047530609043" lon="12.0319830492982"><ele>1369.0</ele><time>2026-04-12T10:15:19.896Z</time></trkpt><trkpt lat="46.46058502638594" lon="12.032019561418068"><ele>1374.5</ele><time>2026-04-12T10:15:20.896Z</time></trkpt><trkpt lat="46.46095755288394" lon="12.031845451621155"><ele>1380.0</ele><time>2026-04-12T10:15:23.896Z</time></trkpt><trkpt lat="46.461105738140326" lon="12.031781969922598"><ele>1380.0</ele><time>2026-04-12T10:15:24.896Z</time></trkpt><trkpt lat="46.46128003918996" lon="12.031756145562497"><ele>1380.0</ele><time>2026-04-12T10:15:25.896Z</time></trkpt><trkpt lat="46.46146036293012" lon="12.031774996186762"><ele>1380.0</ele><time>2026-04-12T10:15:26.896Z</time></trkpt><trkpt lat="46.46161695738335" lon="12.031810299660437"><ele>1381.0</ele><time>2026-04-12T10:15:27.896Z</time></trkpt><trkpt lat="46.46174709303688" lon="12.031856399114309"><ele>1382.0</ele><time>2026-04-12T10:15:28.896Z</time></trkpt><trkpt lat="46.461892792877876" lon="12.031827409403398"><ele>1383.0</ele><time>2026-04-12T10:15:29.896Z</time></trkpt><trkpt lat="46.46204276459759" lon="12.031743900669527"><ele>1384.0</ele><time>2026-04-12T10:15:30.896Z</time></trkpt><trkpt lat="46.462200833571" lon="12.031642660528682"><ele>1391.6666666666665</ele><time>2026-04-12T10:15:31.896Z</time></trkpt><trkpt lat="46.46238428501141" lon="12.031519430558637"><ele>1399.3333333333333</ele><time>2026-04-12T10:15:32.896Z</time></trkpt><trkpt lat="46.462561346090276" lon="12.031407724483833"><ele>1407.0</ele><time>2026-04-12T10:15:33.896Z</time></trkpt><trkpt lat="46.46275707557567" lon="12.03130671970644"><ele>1409.6666666666667</ele><time>2026-04-12T10:15:34.896Z</time></trkpt><trkpt lat="46.462965531501176" lon="12.03123035285818"><ele>1412.3333333333335</ele><time>2026-04-12T10:15:35.896Z</time></trkpt><trkpt lat="46.46318541648251" lon="12.031150612580477"><ele>1415.0</ele><time>2026-04-12T10:15:36.896Z</time></trkpt><trkpt lat="46.46341834029245" lon="12.031087498380487"><ele>1415.0</ele><time>2026-04-12T10:15:37.896Z</time></trkpt><trkpt lat="46.46364188071803" lon="12.031015323846196"><ele>1415.0</ele><time>2026-04-12T10:15:38.896Z</time></trkpt><trkpt lat="46.463850843047" lon="12.030934115971585"><ele>1415.0</ele><time>2026-04-12T10:15:39.896Z</time></trkpt><trkpt lat="46.464063854014405" lon="12.030872064647005"><ele>1434.0</ele><time>2026-04-12T10:15:40.896Z</time></trkpt><trkpt lat="46.46427192334666" lon="12.030760397043146"><ele>1453.0</ele><time>2026-04-12T10:15:41.896Z</time></trkpt><trkpt lat="46.464479955639156" lon="12.030623302829646"><ele>1451.3333333333333</ele><time>2026-04-12T10:15:42.896Z</time></trkpt><trkpt lat="46.46467091431281" lon="12.030470639440091"><ele>1449.6666666666667</ele><time>2026-04-12T10:15:43.896Z</time></trkpt><trkpt lat="46.46485477521063" lon="12.03034524396859"><ele>1448.0</ele><time>2026-04-12T10:15:44.896Z</time></trkpt><trkpt lat="46.465052810742286" lon="12.03031008427337"><ele>1448.0</ele><time>2026-04-12T10:15:45.896Z</time></trkpt><trkpt lat="46.46525021991097" lon="12.030259983825486"><ele>1448.0</ele><time>2026-04-12T10:15:46.896Z</time></trkpt><trkpt lat="46.465401782676814" lon="12.030200422555527"><ele>1448.0</ele><time>2026-04-12T10:15:47.896Z</time></trkpt><trkpt lat="46.465533808295966" lon="12.030147762156275"><ele>1446.8000000000002</ele><time>2026-04-12T10:15:48.896Z</time></trkpt><trkpt lat="46.46564740678177" lon="12.030062098244086"><ele>1445.6</ele><time>2026-04-12T10:15:49.897Z</time></trkpt><trkpt lat="46.46573569989204" lon="12.029984210752179"><ele>1444.4</ele><time>2026-04-12T10:15:50.897Z</time></trkpt><trkpt lat="46.465829673613094" lon="12.02997887606873"><ele>1443.1999999999998</ele><time>2026-04-12T10:15:51.897Z</time></trkpt><trkpt lat="46.46592869368185" lon="12.030042984424588"><ele>1442.0</ele><time>2026-04-12T10:15:52.897Z</time></trkpt><trkpt lat="46.465990788845254" lon="12.030100885505782"><ele>1442.0</ele><time>2026-04-12T10:15:53.897Z</time></trkpt><trkpt lat="46.466052897251096" lon="12.030156498931515"><ele>1442.0</ele><time>2026-04-12T10:15:54.897Z</time></trkpt><trkpt lat="46.466230756269134" lon="12.030340804762012"><ele>1442.0</ele><time>2026-04-12T10:15:55.897Z</time></trkpt><trkpt lat="46.466326066824216" lon="12.030417500575902"><ele>1442.0</ele><time>2026-04-12T10:15:56.897Z</time></trkpt><trkpt lat="46.46644673131386" lon="12.030436720310021"><ele>1443.3333333333335</ele><time>2026-04-12T10:15:57.897Z</time></trkpt><trkpt lat="46.466500668236215" lon="12.030360252364556"><ele>1444.6666666666667</ele><time>2026-04-12T10:15:58.897Z</time></trkpt><trkpt lat="46.46646486877297" lon="12.030219138271576"><ele>1446.0</ele><time>2026-04-12T10:15:59.897Z</time></trkpt><trkpt lat="46.46643292836743" lon="12.030091422586116"><ele>1447.3333333333333</ele><time>2026-04-12T10:16:00.897Z</time></trkpt><trkpt lat="46.466377324796454" lon="12.03001247596355"><ele>1448.6666666666665</ele><time>2026-04-12T10:16:01.897Z</time></trkpt><trkpt lat="46.46632364075167" lon="12.029946657394607"><ele>1450.0</ele><time>2026-04-12T10:16:02.897Z</time></trkpt><trkpt lat="46.46632020824701" lon="12.029838188870855"><ele>1450.0</ele><time>2026-04-12T10:16:03.897Z</time></trkpt><trkpt lat="46.46635487338058" lon="12.029753154598724"><ele>1450.0</ele><time>2026-04-12T10:16:04.897Z</time></trkpt><trkpt lat="46.46647023793108" lon="12.02982867520285"><ele>1450.0</ele><time>2026-04-12T10:16:06.897Z</time></trkpt><trkpt lat="46.46652683082471" lon="12.029913113774239"><ele>1450.0</ele><time>2026-04-12T10:16:07.897Z</time></trkpt><trkpt lat="46.46658958228041" lon="12.03001931712955"><ele>1450.0</ele><time>2026-04-12T10:16:08.897Z</time></trkpt><trkpt lat="46.466791752753224" lon="12.030053937669242"><ele>1450.0</ele><time>2026-04-12T10:16:09.897Z</time></trkpt><trkpt lat="46.46694751814926" lon="12.030029085996482"><ele>1450.0</ele><time>2026-04-12T10:16:10.897Z</time></trkpt><trkpt lat="46.467120822636815" lon="12.029957384202332"><ele>1450.0</ele><time>2026-04-12T10:16:11.897Z</time></trkpt><trkpt lat="46.46727184593112" lon="12.029907936714313"><ele>1455.0</ele><time>2026-04-12T10:16:12.897Z</time></trkpt><trkpt lat="46.46738197302166" lon="12.029900379834809"><ele>1460.0</ele><time>2026-04-12T10:16:13.897Z</time></trkpt><trkpt lat="46.46746779264155" lon="12.029947585406804"><ele>1465.0</ele><time>2026-04-12T10:16:14.897Z</time></trkpt><trkpt lat="46.467558090075684" lon="12.030123072230321"><ele>1470.0</ele><time>2026-04-12T10:16:16.897Z</time></trkpt><trkpt lat="46.46755510770265" lon="12.030305546054466"><ele>1470.0</ele><time>2026-04-12T10:16:17.897Z</time></trkpt><trkpt lat="46.4675723996502" lon="12.030489927652022"><ele>1470.0</ele><time>2026-04-12T10:16:18.897Z</time></trkpt><trkpt lat="46.46757078966242" lon="12.030656305072538"><ele>1470.0</ele><time>2026-04-12T10:16:19.897Z</time></trkpt><trkpt lat="46.4675279595945" lon="12.030778500218167"><ele>1470.0</ele><time>2026-04-12T10:16:20.897Z</time></trkpt><trkpt lat="46.46741873716199" lon="12.030858841239635"><ele>1468.0</ele><time>2026-04-12T10:16:21.897Z</time></trkpt><trkpt lat="46.46727922069284" lon="12.030981733431428"><ele>1466.0</ele><time>2026-04-12T10:16:22.897Z</time></trkpt><trkpt lat="46.46715582685067" lon="12.031157115175217"><ele>1464.0</ele><time>2026-04-12T10:16:23.897Z</time></trkpt><trkpt lat="46.4670782980402" lon="12.031307713422416"><ele>1463.5</ele><time>2026-04-12T10:16:24.897Z</time></trkpt><trkpt lat="46.46696819799634" lon="12.031507600520039"><ele>1463.0</ele><time>2026-04-12T10:16:25.897Z</time></trkpt><trkpt lat="46.46687208093718" lon="12.031673475435541"><ele>1462.5</ele><time>2026-04-12T10:16:26.897Z</time></trkpt><trkpt lat="46.46678874764493" lon="12.031802040514906"><ele>1462.0</ele><time>2026-04-12T10:16:27.897Z</time></trkpt><trkpt lat="46.46672588038899" lon="12.031913670223442"><ele>1462.0</ele><time>2026-04-12T10:16:28.897Z</time></trkpt><trkpt lat="46.466699511043394" lon="12.032023687664665"><ele>1462.0</ele><time>2026-04-12T10:16:29.897Z</time></trkpt><trkpt lat="46.46671866537442" lon="12.032124086047661"><ele>1462.0</ele><time>2026-04-12T10:16:30.897Z</time></trkpt><trkpt lat="46.466756201533784" lon="12.032228269936581"><ele>1462.0</ele><time>2026-04-12T10:16:31.897Z</time></trkpt><trkpt lat="46.466865869360745" lon="12.03228380155397"><ele>1462.0</ele><time>2026-04-12T10:16:32.897Z</time></trkpt><trkpt lat="46.4669780794693" lon="12.032209792100938"><ele>1462.0</ele><time>2026-04-12T10:16:33.897Z</time></trkpt><trkpt lat="46.46710855281334" lon="12.032130321198931"><ele>1462.0</ele><time>2026-04-12T10:16:34.897Z</time></trkpt><trkpt lat="46.46722907102688" lon="12.032002215233431"><ele>1462.0</ele><time>2026-04-12T10:16:35.897Z</time></trkpt><trkpt lat="46.467372962877675" lon="12.031892925580333"><ele>1462.6666666666665</ele><time>2026-04-12T10:16:36.897Z</time></trkpt><trkpt lat="46.46754638418622" lon="12.031762712299932"><ele>1463.3333333333333</ele><time>2026-04-12T10:16:37.897Z</time></trkpt><trkpt lat="46.46768806180827" lon="12.031683880067396"><ele>1464.0</ele><time>2026-04-12T10:16:38.897Z</time></trkpt><trkpt lat="46.46785136111675" lon="12.03161947276594"><ele>1467.6666666666667</ele><time>2026-04-12T10:16:39.897Z</time></trkpt><trkpt lat="46.468042480039784" lon="12.031587062420579"><ele>1471.3333333333335</ele><time>2026-04-12T10:16:40.897Z</time></trkpt><trkpt lat="46.468259700710625" lon="12.031588344951073"><ele>1475.0</ele><time>2026-04-12T10:16:41.897Z</time></trkpt><trkpt lat="46.4684462065224" lon="12.031574982058299"><ele>1475.0</ele><time>2026-04-12T10:16:42.897Z</time></trkpt><trkpt lat="46.468567139157386" lon="12.03157017906258"><ele>1475.0</ele><time>2026-04-12T10:16:43.897Z</time></trkpt><trkpt lat="46.4686973740296" lon="12.03159336435059"><ele>1475.0</ele><time>2026-04-12T10:16:44.897Z</time></trkpt><trkpt lat="46.46882522145639" lon="12.031660548390343"><ele>1475.0</ele><time>2026-04-12T10:16:45.897Z</time></trkpt><trkpt lat="46.46897295318339" lon="12.031754412406467"><ele>1486.0</ele><time>2026-04-12T10:16:46.897Z</time></trkpt><trkpt lat="46.469145922650824" lon="12.031848007130911"><ele>1497.0</ele><time>2026-04-12T10:16:47.897Z</time></trkpt><trkpt lat="46.469355682270475" lon="12.031851235318742"><ele>1508.0</ele><time>2026-04-12T10:16:48.897Z</time></trkpt><trkpt lat="46.4695072515557" lon="12.03185176343561"><ele>1507.0</ele><time>2026-04-12T10:16:49.897Z</time></trkpt><trkpt lat="46.46962984223495" lon="12.031842002382259"><ele>1506.0</ele><time>2026-04-12T10:16:50.897Z</time></trkpt><trkpt lat="46.4697242981514" lon="12.031916247815563"><ele>1505.0</ele><time>2026-04-12T10:16:51.897Z</time></trkpt><trkpt lat="46.46983198126863" lon="12.031980510779485"><ele>1504.0</ele><time>2026-04-12T10:16:52.897Z</time></trkpt><trkpt lat="46.46992660597416" lon="12.032110755769798"><ele>1504.0</ele><time>2026-04-12T10:16:53.897Z</time></trkpt><trkpt lat="46.46999826197266" lon="12.032214989537168"><ele>1504.0</ele><time>2026-04-12T10:16:54.897Z</time></trkpt><trkpt lat="46.470071185412955" lon="12.032257188307444"><ele>1504.0</ele><time>2026-04-12T10:16:55.897Z</time></trkpt><trkpt lat="46.470171848903604" lon="12.03222411326703"><ele>1504.0</ele><time>2026-04-12T10:16:56.897Z</time></trkpt><trkpt lat="46.47028348249086" lon="12.032179285689198"><ele>1504.0</ele><time>2026-04-12T10:16:57.897Z</time></trkpt><trkpt lat="46.47042044098333" lon="12.032116458965376"><ele>1510.25</ele><time>2026-04-12T10:16:58.897Z</time></trkpt><trkpt lat="46.470527582937" lon="12.032000279972987"><ele>1516.5</ele><time>2026-04-12T10:16:59.897Z</time></trkpt><trkpt lat="46.47058349820708" lon="12.031855413655991"><ele>1522.75</ele><time>2026-04-12T10:17:00.897Z</time></trkpt><trkpt lat="46.47061274855869" lon="12.031686001936894"><ele>1529.0</ele><time>2026-04-12T10:17:01.897Z</time></trkpt><trkpt lat="46.470609041201705" lon="12.03151346496172"><ele>1531.4</ele><time>2026-04-12T10:17:02.897Z</time></trkpt><trkpt lat="46.470611502575515" lon="12.0313719052732"><ele>1533.8000000000002</ele><time>2026-04-12T10:17:03.897Z</time></trkpt><trkpt lat="46.47063039798828" lon="12.031275335263544"><ele>1536.1999999999998</ele><time>2026-04-12T10:17:04.897Z</time></trkpt><trkpt lat="46.4707553040048" lon="12.031250961815399"><ele>1538.6</ele><time>2026-04-12T10:17:06.897Z</time></trkpt><trkpt lat="46.47079778450623" lon="12.031359130413081"><ele>1541.0</ele><time>2026-04-12T10:17:07.897Z</time></trkpt><trkpt lat="46.47076233870151" lon="12.031504038431803"><ele>1538.0</ele><time>2026-04-12T10:17:08.897Z</time></trkpt><trkpt lat="46.47074032031554" lon="12.031671145377278"><ele>1535.0</ele><time>2026-04-12T10:17:09.897Z</time></trkpt><trkpt lat="46.470726062418784" lon="12.031857636390136"><ele>1532.0</ele><time>2026-04-12T10:17:10.897Z</time></trkpt><trkpt lat="46.47069487439854" lon="12.032036290815183"><ele>1529.0</ele><time>2026-04-12T10:17:11.897Z</time></trkpt><trkpt lat="46.470650948837125" lon="12.032160165755915"><ele>1529.0</ele><time>2026-04-12T10:17:12.897Z</time></trkpt><trkpt lat="46.47064517042278" lon="12.032263640364542"><ele>1529.0</ele><time>2026-04-12T10:17:13.897Z</time></trkpt><trkpt lat="46.47066742322723" lon="12.032372428007267"><ele>1529.0</ele><time>2026-04-12T10:17:14.897Z</time></trkpt><trkpt lat="46.470740599739585" lon="12.03249072271223"><ele>1529.0</ele><time>2026-04-12T10:17:15.897Z</time></trkpt><trkpt lat="46.47083794624151" lon="12.032586553861533"><ele>1529.0</ele><time>2026-04-12T10:17:16.897Z</time></trkpt><trkpt lat="46.470904670679005" lon="12.032672472910097"><ele>1529.0</ele><time>2026-04-12T10:17:17.897Z</time></trkpt><trkpt lat="46.47100482021038" lon="12.032702330533965"><ele>1529.0</ele><time>2026-04-12T10:17:18.897Z</time></trkpt><trkpt lat="46.471061463920016" lon="12.032662377897461"><ele>1529.0</ele><time>2026-04-12T10:17:19.897Z</time></trkpt><trkpt lat="46.47107227805742" lon="12.032440746863472"><ele>1529.0</ele><time>2026-04-12T10:17:21.897Z</time></trkpt><trkpt lat="46.47100857382064" lon="12.032346833543187"><ele>1529.0</ele><time>2026-04-12T10:17:22.897Z</time></trkpt><trkpt lat="46.470923732691226" lon="12.03228106593249"><ele>1529.0</ele><time>2026-04-12T10:17:23.897Z</time></trkpt><trkpt lat="46.470928687524385" lon="12.032089409568515"><ele>1529.0</ele><time>2026-04-12T10:17:25.897Z</time></trkpt><trkpt lat="46.470996468670755" lon="12.031963742724953"><ele>1529.0</ele><time>2026-04-12T10:17:26.897Z</time></trkpt><trkpt lat="46.471074677545076" lon="12.031804007099362"><ele>1529.0</ele><time>2026-04-12T10:17:27.897Z</time></trkpt><trkpt lat="46.47115015053677" lon="12.031610563490663"><ele>1532.0</ele><time>2026-04-12T10:17:28.897Z</time></trkpt><trkpt lat="46.47121348909015" lon="12.031391503615312"><ele>1535.0</ele><time>2026-04-12T10:17:29.897Z</time></trkpt><trkpt lat="46.471242778247394" lon="12.031214108063416"><ele>1538.0</ele><time>2026-04-12T10:17:30.897Z</time></trkpt><trkpt lat="46.47124397465604" lon="12.031044991858199"><ele>1541.0</ele><time>2026-04-12T10:17:31.897Z</time></trkpt><trkpt lat="46.471209618014385" lon="12.030886474164388"><ele>1547.0</ele><time>2026-04-12T10:17:32.897Z</time></trkpt><trkpt lat="46.47114419973818" lon="12.030733961140859"><ele>1553.0</ele><time>2026-04-12T10:17:33.897Z</time></trkpt><trkpt lat="46.4710404792281" lon="12.0305985571095"><ele>1559.0</ele><time>2026-04-12T10:17:34.897Z</time></trkpt><trkpt lat="46.47092135386415" lon="12.030470414993532"><ele>1565.0</ele><time>2026-04-12T10:17:35.897Z</time></trkpt><trkpt lat="46.470833923095746" lon="12.030273815905721"><ele>1565.0</ele><time>2026-04-12T10:17:36.897Z</time></trkpt><trkpt lat="46.47074868371294" lon="12.030166939454014"><ele>1565.0</ele><time>2026-04-12T10:17:37.897Z</time></trkpt><trkpt lat="46.4706624723136" lon="12.030078247228698"><ele>1565.0</ele><time>2026-04-12T10:17:38.897Z</time></trkpt><trkpt lat="46.47056315768913" lon="12.030033747816736"><ele>1565.0</ele><time>2026-04-12T10:17:39.897Z</time></trkpt><trkpt lat="46.47049137149874" lon="12.029966178488726"><ele>1565.0</ele><time>2026-04-12T10:17:40.897Z</time></trkpt><trkpt lat="46.470465477379626" lon="12.029824983691677"><ele>1565.0</ele><time>2026-04-12T10:17:42.897Z</time></trkpt><trkpt lat="46.470527211566534" lon="12.029771298112152"><ele>1565.0</ele><time>2026-04-12T10:17:43.897Z</time></trkpt><trkpt lat="46.47061938835332" lon="12.029793895919495"><ele>1565.0</ele><time>2026-04-12T10:17:44.897Z</time></trkpt><trkpt lat="46.47068041989833" lon="12.029948815078486"><ele>1565.0</ele><time>2026-04-12T10:17:45.897Z</time></trkpt><trkpt lat="46.470762880007236" lon="12.030020862200354"><ele>1565.0</ele><time>2026-04-12T10:17:46.897Z</time></trkpt><trkpt lat="46.47086849518423" lon="12.030059840133173"><ele>1565.0</ele><time>2026-04-12T10:17:47.897Z</time></trkpt><trkpt lat="46.47100173028148" lon="12.03011656652143"><ele>1565.0</ele><time>2026-04-12T10:17:48.897Z</time></trkpt><trkpt lat="46.471143513367956" lon="12.030182225664483"><ele>1565.0</ele><time>2026-04-12T10:17:49.897Z</time></trkpt><trkpt lat="46.47129268726773" lon="12.030275737241034"><ele>1569.0</ele><time>2026-04-12T10:17:50.897Z</time></trkpt><trkpt lat="46.47141163965846" lon="12.030372354754537"><ele>1573.0</ele><time>2026-04-12T10:17:51.897Z</time></trkpt><trkpt lat="46.471489271273356" lon="12.030481819531413"><ele>1577.0</ele><time>2026-04-12T10:17:52.897Z</time></trkpt><trkpt lat="46.47153421166529" lon="12.030634717786475"><ele>1581.0</ele><time>2026-04-12T10:17:53.897Z</time></trkpt><trkpt lat="46.471579149111356" lon="12.030839519587017"><ele>1581.0</ele><time>2026-04-12T10:17:54.897Z</time></trkpt><trkpt lat="46.471623599296294" lon="12.031066459218659"><ele>1581.0</ele><time>2026-04-12T10:17:55.899Z</time></trkpt><trkpt lat="46.471648505862575" lon="12.03128719228859"><ele>1581.0</ele><time>2026-04-12T10:17:56.899Z</time></trkpt><trkpt lat="46.47166261354223" lon="12.03146020966278"><ele>1581.0</ele><time>2026-04-12T10:17:57.899Z</time></trkpt><trkpt lat="46.47168115305194" lon="12.031582498741802"><ele>1581.0</ele><time>2026-04-12T10:17:58.899Z</time></trkpt><trkpt lat="46.47175136487082" lon="12.031697232232741"><ele>1581.0</ele><time>2026-04-12T10:18:00.899Z</time></trkpt><trkpt lat="46.4718283693428" lon="12.03171036836892"><ele>1581.0</ele><time>2026-04-12T10:18:01.899Z</time></trkpt><trkpt lat="46.47190787702587" lon="12.031612689828988"><ele>1581.0</ele><time>2026-04-12T10:18:02.899Z</time></trkpt><trkpt lat="46.47198257254333" lon="12.031463616929788"><ele>1581.0</ele><time>2026-04-12T10:18:03.899Z</time></trkpt><trkpt lat="46.47206927107442" lon="12.031325793220782"><ele>1587.25</ele><time>2026-04-12T10:18:04.899Z</time></trkpt><trkpt lat="46.47214863585231" lon="12.031289883831175"><ele>1593.5</ele><time>2026-04-12T10:18:05.899Z</time></trkpt><trkpt lat="46.472295248408116" lon="12.031171980599998"><ele>1599.75</ele><time>2026-04-12T10:18:06.899Z</time></trkpt><trkpt lat="46.472476600082956" lon="12.031075284966894"><ele>1606.0</ele><time>2026-04-12T10:18:07.899Z</time></trkpt><trkpt lat="46.47267971589437" lon="12.031008981750263"><ele>1606.0</ele><time>2026-04-12T10:18:08.899Z</time></trkpt><trkpt lat="46.472872212378206" lon="12.030975832104158"><ele>1606.0</ele><time>2026-04-12T10:18:09.899Z</time></trkpt><trkpt lat="46.47306498662885" lon="12.030973928421027"><ele>1606.0</ele><time>2026-04-12T10:18:10.899Z</time></trkpt><trkpt lat="46.473235743345334" lon="12.030928167899038"><ele>1606.3333333333335</ele><time>2026-04-12T10:18:11.899Z</time></trkpt><trkpt lat="46.47342403880535" lon="12.03089188319318"><ele>1606.6666666666665</ele><time>2026-04-12T10:18:12.899Z</time></trkpt><trkpt lat="46.473627624900146" lon="12.030863828566552"><ele>1607.0</ele><time>2026-04-12T10:18:13.899Z</time></trkpt><trkpt lat="46.473842868693744" lon="12.030812771015881"><ele>1619.0</ele><time>2026-04-12T10:18:14.899Z</time></trkpt><trkpt lat="46.474050436294995" lon="12.030757853834666"><ele>1631.0</ele><time>2026-04-12T10:18:15.899Z</time></trkpt><trkpt lat="46.47423229642242" lon="12.030743990986185"><ele>1643.0</ele><time>2026-04-12T10:18:16.899Z</time></trkpt><trkpt lat="46.47437480497205" lon="12.030716208236495"><ele>1643.0</ele><time>2026-04-12T10:18:17.899Z</time></trkpt><trkpt lat="46.474490721367765" lon="12.030698690398706"><ele>1643.0</ele><time>2026-04-12T10:18:18.899Z</time></trkpt><trkpt lat="46.47458319938688" lon="12.03071819509918"><ele>1643.0</ele><time>2026-04-12T10:18:19.899Z</time></trkpt><trkpt lat="46.47465585855621" lon="12.030757298468117"><ele>1643.0</ele><time>2026-04-12T10:18:20.899Z</time></trkpt><trkpt lat="46.47469184024302" lon="12.03084984661447"><ele>1643.0</ele><time>2026-04-12T10:18:21.899Z</time></trkpt><trkpt lat="46.47468827542439" lon="12.030987366266066"><ele>1639.75</ele><time>2026-04-12T10:18:22.899Z</time></trkpt><trkpt lat="46.474736696969174" lon="12.031163261128713"><ele>1636.5</ele><time>2026-04-12T10:18:23.899Z</time></trkpt><trkpt lat="46.47478645355974" lon="12.031359554342227"><ele>1633.25</ele><time>2026-04-12T10:18:24.899Z</time></trkpt><trkpt lat="46.474805650397016" lon="12.031532052595775"><ele>1630.0</ele><time>2026-04-12T10:18:25.899Z</time></trkpt><trkpt lat="46.474775271282304" lon="12.031668972392197"><ele>1630.0</ele><time>2026-04-12T10:18:26.899Z</time></trkpt><trkpt lat="46.47473655907251" lon="12.031810750184874"><ele>1630.0</ele><time>2026-04-12T10:18:27.899Z</time></trkpt><trkpt lat="46.47475394759147" lon="12.031975421413524"><ele>1630.0</ele><time>2026-04-12T10:18:28.899Z</time></trkpt><trkpt lat="46.47481925593902" lon="12.032037329541021"><ele>1630.0</ele><time>2026-04-12T10:18:29.899Z</time></trkpt><trkpt lat="46.474901716602844" lon="12.032052746239467"><ele>1630.0</ele><time>2026-04-12T10:18:30.899Z</time></trkpt><trkpt lat="46.47498836900993" lon="12.031936225353947"><ele>1630.0</ele><time>2026-04-12T10:18:31.899Z</time></trkpt><trkpt lat="46.47506484393529" lon="12.031795718498039"><ele>1630.0</ele><time>2026-04-12T10:18:32.899Z</time></trkpt><trkpt lat="46.47512751304186" lon="12.031633651554456"><ele>1630.0</ele><time>2026-04-12T10:18:33.899Z</time></trkpt><trkpt lat="46.47520904917625" lon="12.031469109322291"><ele>1630.0</ele><time>2026-04-12T10:18:34.899Z</time></trkpt><trkpt lat="46.475259263170635" lon="12.031271128105145"><ele>1629.0</ele><time>2026-04-12T10:18:35.899Z</time></trkpt><trkpt lat="46.475284736890245" lon="12.03111796907834"><ele>1628.0</ele><time>2026-04-12T10:18:36.899Z</time></trkpt><trkpt lat="46.4753100075084" lon="12.031011979579844"><ele>1627.0</ele><time>2026-04-12T10:18:37.899Z</time></trkpt><trkpt lat="46.47537510719105" lon="12.030971833603646"><ele>1626.0</ele><time>2026-04-12T10:18:38.899Z</time></trkpt><trkpt lat="46.475438596509065" lon="12.031003326114263"><ele>1625.0</ele><time>2026-04-12T10:18:39.899Z</time></trkpt><trkpt lat="46.47549521680446" lon="12.031167235281645"><ele>1625.0</ele><time>2026-04-12T10:18:40.899Z</time></trkpt><trkpt lat="46.47543675587283" lon="12.03132159620879"><ele>1625.0</ele><time>2026-04-12T10:18:41.899Z</time></trkpt><trkpt lat="46.47538955046773" lon="12.031453166799729"><ele>1625.0</ele><time>2026-04-12T10:18:42.899Z</time></trkpt><trkpt lat="46.4753544698941" lon="12.031639243626117"><ele>1625.0</ele><time>2026-04-12T10:18:43.899Z</time></trkpt><trkpt lat="46.47531721925184" lon="12.03185536175863"><ele>1626.6666666666665</ele><time>2026-04-12T10:18:44.899Z</time></trkpt><trkpt lat="46.475283663146705" lon="12.032082434431157"><ele>1628.3333333333335</ele><time>2026-04-12T10:18:45.899Z</time></trkpt><trkpt lat="46.47526088693215" lon="12.0323386430533"><ele>1630.0</ele><time>2026-04-12T10:18:46.899Z</time></trkpt><trkpt lat="46.47523735198566" lon="12.032577368910767"><ele>1633.2</ele><time>2026-04-12T10:18:47.899Z</time></trkpt><trkpt lat="46.47519622914994" lon="12.032762737511293"><ele>1636.4</ele><time>2026-04-12T10:18:48.899Z</time></trkpt><trkpt lat="46.47516925558729" lon="12.032916619968443"><ele>1639.6</ele><time>2026-04-12T10:18:49.899Z</time></trkpt><trkpt lat="46.47513093973179" lon="12.032993075456721"><ele>1642.8</ele><time>2026-04-12T10:18:50.899Z</time></trkpt><trkpt lat="46.47505948045617" lon="12.033043696125466"><ele>1646.0</ele><time>2026-04-12T10:18:51.899Z</time></trkpt><trkpt lat="46.474985430283695" lon="12.033001283782747"><ele>1646.0</ele><time>2026-04-12T10:18:52.899Z</time></trkpt><trkpt lat="46.47487963622955" lon="12.032962799776447"><ele>1646.0</ele><time>2026-04-12T10:18:53.899Z</time></trkpt><trkpt lat="46.47473097800602" lon="12.033071198160393"><ele>1646.0</ele><time>2026-04-12T10:18:54.899Z</time></trkpt><trkpt lat="46.474625923048855" lon="12.033157535969599"><ele>1646.0</ele><time>2026-04-12T10:18:55.899Z</time></trkpt><trkpt lat="46.47456591080605" lon="12.033375611876385"><ele>1645.1999999999998</ele><time>2026-04-12T10:18:56.899Z</time></trkpt><trkpt lat="46.474590960142386" lon="12.033480828621425"><ele>1644.3999999999999</ele><time>2026-04-12T10:18:57.899Z</time></trkpt><trkpt lat="46.47456808258361" lon="12.033590847237333"><ele>1643.6</ele><time>2026-04-12T10:18:58.899Z</time></trkpt><trkpt lat="46.47457289696042" lon="12.03371212309207"><ele>1642.8</ele><time>2026-04-12T10:18:59.899Z</time></trkpt><trkpt lat="46.474604870244896" lon="12.03398058362739"><ele>1642.0</ele><time>2026-04-12T10:19:00.899Z</time></trkpt><trkpt lat="46.47468161988368" lon="12.034129911138148"><ele>1653.3333333333335</ele><time>2026-04-12T10:19:01.899Z</time></trkpt><trkpt lat="46.474811426802994" lon="12.03424469080193"><ele>1664.6666666666665</ele><time>2026-04-12T10:19:02.899Z</time></trkpt><trkpt lat="46.47493657295565" lon="12.034360164016995"><ele>1676.0</ele><time>2026-04-12T10:19:03.899Z</time></trkpt><trkpt lat="46.475063385583226" lon="12.034498065911002"><ele>1676.0</ele><time>2026-04-12T10:19:04.899Z</time></trkpt><trkpt lat="46.475165469753605" lon="12.03463425575087"><ele>1676.0</ele><time>2026-04-12T10:19:05.899Z</time></trkpt><trkpt lat="46.47520698502952" lon="12.034767507478941"><ele>1676.0</ele><time>2026-04-12T10:19:06.899Z</time></trkpt><trkpt lat="46.47523189327041" lon="12.034947219129544"><ele>1676.0</ele><time>2026-04-12T10:19:07.899Z</time></trkpt><trkpt lat="46.47524629151222" lon="12.035167162115068"><ele>1674.3333333333333</ele><time>2026-04-12T10:19:08.899Z</time></trkpt><trkpt lat="46.4752478341535" lon="12.03539723262357"><ele>1672.6666666666665</ele><time>2026-04-12T10:19:09.899Z</time></trkpt><trkpt lat="46.47521337680809" lon="12.035611630025944"><ele>1671.0</ele><time>2026-04-12T10:19:10.899Z</time></trkpt><trkpt lat="46.47512277188286" lon="12.03577859749326"><ele>1673.5</ele><time>2026-04-12T10:19:11.899Z</time></trkpt><trkpt lat="46.475084170834776" lon="12.035955939938802"><ele>1676.0</ele><time>2026-04-12T10:19:12.899Z</time></trkpt><trkpt lat="46.47507177193382" lon="12.036121092641563"><ele>1678.5</ele><time>2026-04-12T10:19:13.899Z</time></trkpt><trkpt lat="46.47506728791037" lon="12.036299994124521"><ele>1681.0</ele><time>2026-04-12T10:19:14.899Z</time></trkpt><trkpt lat="46.475105185148934" lon="12.036499143059519"><ele>1681.6666666666667</ele><time>2026-04-12T10:19:15.899Z</time></trkpt><trkpt lat="46.47518074943372" lon="12.036689975953266"><ele>1682.3333333333335</ele><time>2026-04-12T10:19:16.899Z</time></trkpt><trkpt lat="46.47521248858436" lon="12.036897897635606"><ele>1683.0</ele><time>2026-04-12T10:19:17.899Z</time></trkpt><trkpt lat="46.475209717801626" lon="12.037118211774196"><ele>1683.0</ele><time>2026-04-12T10:19:18.899Z</time></trkpt><trkpt lat="46.47523672746561" lon="12.037386172309928"><ele>1683.0</ele><time>2026-04-12T10:19:19.899Z</time></trkpt><trkpt lat="46.47524299796912" lon="12.03766676327054"><ele>1683.0</ele><time>2026-04-12T10:19:20.899Z</time></trkpt><trkpt lat="46.475239189635296" lon="12.037964065228017"><ele>1682.3333333333335</ele><time>2026-04-12T10:19:21.899Z</time></trkpt><trkpt lat="46.47523481863192" lon="12.038261642286024"><ele>1681.6666666666667</ele><time>2026-04-12T10:19:22.899Z</time></trkpt><trkpt lat="46.4752167355004" lon="12.038546476996997"><ele>1681.0</ele><time>2026-04-12T10:19:23.899Z</time></trkpt><trkpt lat="46.475195333090696" lon="12.038771147543162"><ele>1681.8</ele><time>2026-04-12T10:19:24.899Z</time></trkpt><trkpt lat="46.475175330615535" lon="12.038972635599624"><ele>1682.6</ele><time>2026-04-12T10:19:25.899Z</time></trkpt><trkpt lat="46.475142053064374" lon="12.039135378363904"><ele>1683.4</ele><time>2026-04-12T10:19:26.899Z</time></trkpt><trkpt lat="46.47514710791051" lon="12.039246104318869"><ele>1684.2</ele><time>2026-04-12T10:19:27.899Z</time></trkpt><trkpt lat="46.475199064235476" lon="12.039334467820577"><ele>1685.0</ele><time>2026-04-12T10:19:28.899Z</time></trkpt><trkpt lat="46.47526318825155" lon="12.039389100108082"><ele>1685.0</ele><time>2026-04-12T10:19:29.899Z</time></trkpt><trkpt lat="46.47535248406614" lon="12.039316527902852"><ele>1685.0</ele><time>2026-04-12T10:19:30.899Z</time></trkpt><trkpt lat="46.47541413683289" lon="12.039216639594558"><ele>1685.0</ele><time>2026-04-12T10:19:31.899Z</time></trkpt><trkpt lat="46.47543529361944" lon="12.039060111620921"><ele>1685.0</ele><time>2026-04-12T10:19:32.899Z</time></trkpt><trkpt lat="46.47544292767414" lon="12.03888755977509"><ele>1685.0</ele><time>2026-04-12T10:19:33.899Z</time></trkpt><trkpt lat="46.475466038710074" lon="12.038683570411207"><ele>1700.6666666666665</ele><time>2026-04-12T10:19:34.899Z</time></trkpt><trkpt lat="46.47550530777084" lon="12.038474149443669"><ele>1716.3333333333335</ele><time>2026-04-12T10:19:35.899Z</time></trkpt><trkpt lat="46.47555136676387" lon="12.038249587475084"><ele>1732.0</ele><time>2026-04-12T10:19:36.899Z</time></trkpt><trkpt lat="46.475603468341724" lon="12.03801073742711"><ele>1732.0</ele><time>2026-04-12T10:19:37.899Z</time></trkpt><trkpt lat="46.475639362101795" lon="12.037755009558529"><ele>1732.0</ele><time>2026-04-12T10:19:38.899Z</time></trkpt><trkpt lat="46.475703233459946" lon="12.037503507978524"><ele>1732.0</ele><time>2026-04-12T10:19:39.899Z</time></trkpt><trkpt lat="46.475741659310586" lon="12.037219186534204"><ele>1732.0</ele><time>2026-04-12T10:19:40.899Z</time></trkpt><trkpt lat="46.4757730829811" lon="12.036867175919042"><ele>1732.0</ele><time>2026-04-12T10:19:41.899Z</time></trkpt><trkpt lat="46.475784315059585" lon="12.036638629973904"><ele>1732.0</ele><time>2026-04-12T10:19:42.899Z</time></trkpt><trkpt lat="46.47579993718938" lon="12.036433543977807"><ele>1731.5</ele><time>2026-04-12T10:19:43.899Z</time></trkpt><trkpt lat="46.47582429333568" lon="12.036247831175569"><ele>1731.0</ele><time>2026-04-12T10:19:44.899Z</time></trkpt><trkpt lat="46.47586858998544" lon="12.03607051728721"><ele>1730.5</ele><time>2026-04-12T10:19:45.899Z</time></trkpt><trkpt lat="46.47595531057435" lon="12.035902969168754"><ele>1730.0</ele><time>2026-04-12T10:19:46.899Z</time></trkpt><trkpt lat="46.476019520643916" lon="12.035691080920355"><ele>1727.0</ele><time>2026-04-12T10:19:47.899Z</time></trkpt><trkpt lat="46.47608558905136" lon="12.03545379333678"><ele>1724.0</ele><time>2026-04-12T10:19:48.899Z</time></trkpt><trkpt lat="46.47615648787489" lon="12.035217122405026"><ele>1721.0</ele><time>2026-04-12T10:19:49.899Z</time></trkpt><trkpt lat="46.47623025064156" lon="12.034984662664572"><ele>1720.3333333333333</ele><time>2026-04-12T10:19:50.899Z</time></trkpt><trkpt lat="46.476274227021996" lon="12.034740319997281"><ele>1719.6666666666665</ele><time>2026-04-12T10:19:51.899Z</time></trkpt><trkpt lat="46.47625677265015" lon="12.034484033551912"><ele>1719.0</ele><time>2026-04-12T10:19:52.899Z</time></trkpt><trkpt lat="46.476255783100534" lon="12.034265015213268"><ele>1732.0</ele><time>2026-04-12T10:19:53.899Z</time></trkpt><trkpt lat="46.476327827659944" lon="12.034060677332233"><ele>1745.0</ele><time>2026-04-12T10:19:54.899Z</time></trkpt><trkpt lat="46.476349425385536" lon="12.033835016603067"><ele>1758.0</ele><time>2026-04-12T10:19:55.899Z</time></trkpt><trkpt lat="46.476365341670686" lon="12.03362543770694"><ele>1758.0</ele><time>2026-04-12T10:19:56.899Z</time></trkpt><trkpt lat="46.47638032032768" lon="12.033476500812757"><ele>1758.0</ele><time>2026-04-12T10:19:57.899Z</time></trkpt><trkpt lat="46.476440695850314" lon="12.03333212390346"><ele>1758.0</ele><time>2026-04-12T10:19:58.899Z</time></trkpt><trkpt lat="46.4765180023909" lon="12.033207209233687"><ele>1758.0</ele><time>2026-04-12T10:19:59.899Z</time></trkpt><trkpt lat="46.47662529740939" lon="12.033108566743534"><ele>1760.75</ele><time>2026-04-12T10:20:00.899Z</time></trkpt><trkpt lat="46.47675679070179" lon="12.033091388162225"><ele>1763.5</ele><time>2026-04-12T10:20:01.9Z</time></trkpt><trkpt lat="46.47691257962035" lon="12.033043668647995"><ele>1766.25</ele><time>2026-04-12T10:20:02.9Z</time></trkpt><trkpt lat="46.47703786585835" lon="12.032995026499496"><ele>1769.0</ele><time>2026-04-12T10:20:03.9Z</time></trkpt><trkpt lat="46.47715953691619" lon="12.032851435686469"><ele>1769.0</ele><time>2026-04-12T10:20:04.9Z</time></trkpt><trkpt lat="46.47726050767478" lon="12.032676860469756"><ele>1769.0</ele><time>2026-04-12T10:20:05.9Z</time></trkpt><trkpt lat="46.477344288074825" lon="12.03246391795566"><ele>1769.0</ele><time>2026-04-12T10:20:06.9Z</time></trkpt><trkpt lat="46.47741037719861" lon="12.032297766053338"><ele>1764.25</ele><time>2026-04-12T10:20:07.9Z</time></trkpt><trkpt lat="46.47750804802845" lon="12.032186125012801"><ele>1759.5</ele><time>2026-04-12T10:20:08.9Z</time></trkpt><trkpt lat="46.47764683680767" lon="12.032082227347468"><ele>1754.75</ele><time>2026-04-12T10:20:09.9Z</time></trkpt><trkpt lat="46.477759933518506" lon="12.03193641105258"><ele>1750.0</ele><time>2026-04-12T10:20:10.9Z</time></trkpt><trkpt lat="46.47784927483053" lon="12.031763074413401"><ele>1750.0</ele><time>2026-04-12T10:20:11.9Z</time></trkpt><trkpt lat="46.477913481074026" lon="12.031599223559429"><ele>1750.0</ele><time>2026-04-12T10:20:12.9Z</time></trkpt><trkpt lat="46.47799199446816" lon="12.03145689954457"><ele>1750.0</ele><time>2026-04-12T10:20:13.9Z</time></trkpt><trkpt lat="46.47809495251313" lon="12.03135475407739"><ele>1750.0</ele><time>2026-04-12T10:20:14.9Z</time></trkpt><trkpt lat="46.47820158038389" lon="12.031265300134221"><ele>1750.0</ele><time>2026-04-12T10:20:15.9Z</time></trkpt><trkpt lat="46.47829291708369" lon="12.031214253239925"><ele>1750.0</ele><time>2026-04-12T10:20:16.9Z</time></trkpt><trkpt lat="46.478372436475034" lon="12.031196755068295"><ele>1750.0</ele><time>2026-04-12T10:20:17.9Z</time></trkpt><trkpt lat="46.47845110902118" lon="12.031252041624056"><ele>1750.0</ele><time>2026-04-12T10:20:18.9Z</time></trkpt><trkpt lat="46.47847362586673" lon="12.031376316874741"><ele>1750.0</ele><time>2026-04-12T10:20:19.9Z</time></trkpt><trkpt lat="46.47852327213402" lon="12.031521871603907"><ele>1755.0</ele><time>2026-04-12T10:20:20.9Z</time></trkpt><trkpt lat="46.47864522011081" lon="12.031682949299872"><ele>1760.0</ele><time>2026-04-12T10:20:21.9Z</time></trkpt><trkpt lat="46.47875373331519" lon="12.031790734527645"><ele>1765.0</ele><time>2026-04-12T10:20:22.9Z</time></trkpt><trkpt lat="46.47885683685125" lon="12.031853454789411"><ele>1770.0</ele><time>2026-04-12T10:20:23.9Z</time></trkpt><trkpt lat="46.47891601709589" lon="12.03193327302418"><ele>1770.0</ele><time>2026-04-12T10:20:24.9Z</time></trkpt><trkpt lat="46.47895989263204" lon="12.032007868957821"><ele>1770.0</ele><time>2026-04-12T10:20:25.9Z</time></trkpt><trkpt lat="46.47894087094569" lon="12.032101412370515"><ele>1770.0</ele><time>2026-04-12T10:20:26.9Z</time></trkpt><trkpt lat="46.478756338940876" lon="12.032104291611358"><ele>1770.0</ele><time>2026-04-12T10:20:28.9Z</time></trkpt><trkpt lat="46.47870109551641" lon="12.032020096945944"><ele>1770.0</ele><time>2026-04-12T10:20:29.9Z</time></trkpt><trkpt lat="46.47860343023219" lon="12.031953066816705"><ele>1770.0</ele><time>2026-04-12T10:20:30.9Z</time></trkpt><trkpt lat="46.478502259820075" lon="12.03189478746736"><ele>1770.0</ele><time>2026-04-12T10:20:31.9Z</time></trkpt><trkpt lat="46.478416096172246" lon="12.031831748553502"><ele>1770.0</ele><time>2026-04-12T10:20:32.9Z</time></trkpt><trkpt lat="46.47834225391753" lon="12.031797971482472"><ele>1770.0</ele><time>2026-04-12T10:20:33.9Z</time></trkpt><trkpt lat="46.47826226132579" lon="12.031826138678365"><ele>1770.0</ele><time>2026-04-12T10:20:34.9Z</time></trkpt><trkpt lat="46.47817984868787" lon="12.031869136179237"><ele>1770.0</ele><time>2026-04-12T10:20:35.9Z</time></trkpt><trkpt lat="46.478156684901975" lon="12.032024183261532"><ele>1770.0</ele><time>2026-04-12T10:20:36.9Z</time></trkpt><trkpt lat="46.478187169436026" lon="12.032146012854428"><ele>1770.0</ele><time>2026-04-12T10:20:37.9Z</time></trkpt><trkpt lat="46.47829379035928" lon="12.032197481632343"><ele>1770.0</ele><time>2026-04-12T10:20:38.9Z</time></trkpt><trkpt lat="46.47839882912" lon="12.03219393722113"><ele>1770.0</ele><time>2026-04-12T10:20:39.9Z</time></trkpt><trkpt lat="46.47846948432376" lon="12.032239572695213"><ele>1770.0</ele><time>2026-04-12T10:20:40.9Z</time></trkpt><trkpt lat="46.4785961172141" lon="12.032328404502055"><ele>1770.0</ele><time>2026-04-12T10:20:41.9Z</time></trkpt><trkpt lat="46.47873016497326" lon="12.03244639656094"><ele>1770.0</ele><time>2026-04-12T10:20:42.9Z</time></trkpt><trkpt lat="46.47889979584215" lon="12.032531724801428"><ele>1777.0</ele><time>2026-04-12T10:20:43.9Z</time></trkpt><trkpt lat="46.47904158934926" lon="12.03256982535164"><ele>1784.0</ele><time>2026-04-12T10:20:44.9Z</time></trkpt><trkpt lat="46.47915347896826" lon="12.032639830054666"><ele>1791.0</ele><time>2026-04-12T10:20:45.9Z</time></trkpt><trkpt lat="46.479259201533665" lon="12.032742641311689"><ele>1798.0</ele><time>2026-04-12T10:20:46.9Z</time></trkpt><trkpt lat="46.4793269041072" lon="12.032862339510972"><ele>1798.0</ele><time>2026-04-12T10:20:47.9Z</time></trkpt><trkpt lat="46.47943605625828" lon="12.03293518512712"><ele>1798.0</ele><time>2026-04-12T10:20:48.9Z</time></trkpt><trkpt lat="46.479551182491626" lon="12.03297717266883"><ele>1798.0</ele><time>2026-04-12T10:20:49.9Z</time></trkpt><trkpt lat="46.47968012708012" lon="12.032955719457561"><ele>1798.0</ele><time>2026-04-12T10:20:50.9Z</time></trkpt><trkpt lat="46.47980495338865" lon="12.03287031007329"><ele>1800.75</ele><time>2026-04-12T10:20:51.9Z</time></trkpt><trkpt lat="46.47991985076614" lon="12.032756195209345"><ele>1803.5</ele><time>2026-04-12T10:20:52.9Z</time></trkpt><trkpt lat="46.480030586544146" lon="12.032715832710611"><ele>1806.25</ele><time>2026-04-12T10:20:53.9Z</time></trkpt><trkpt lat="46.48014481317781" lon="12.032743602766368"><ele>1809.0</ele><time>2026-04-12T10:20:54.9Z</time></trkpt><trkpt lat="46.48026287492628" lon="12.032748357162138"><ele>1809.0</ele><time>2026-04-12T10:20:55.9Z</time></trkpt><trkpt lat="46.480365821551636" lon="12.032677447149597"><ele>1809.0</ele><time>2026-04-12T10:20:56.9Z</time></trkpt><trkpt lat="46.48042979281279" lon="12.03257399640919"><ele>1809.0</ele><time>2026-04-12T10:20:57.9Z</time></trkpt><trkpt lat="46.48047903661512" lon="12.032476886701932"><ele>1809.0</ele><time>2026-04-12T10:20:58.9Z</time></trkpt><trkpt lat="46.48057300951842" lon="12.03252329731048"><ele>1809.0</ele><time>2026-04-12T10:21:00.9Z</time></trkpt><trkpt lat="46.480565999746695" lon="12.032631065771781"><ele>1809.0</ele><time>2026-04-12T10:21:01.9Z</time></trkpt><trkpt lat="46.480488287317485" lon="12.032709511895447"><ele>1809.0</ele><time>2026-04-12T10:21:02.9Z</time></trkpt><trkpt lat="46.480377968011446" lon="12.03293156052618"><ele>1809.0</ele><time>2026-04-12T10:21:03.9Z</time></trkpt><trkpt lat="46.48027608897888" lon="12.033077999209224"><ele>1809.0</ele><time>2026-04-12T10:21:04.9Z</time></trkpt><trkpt lat="46.48017263830606" lon="12.033173206072304"><ele>1809.0</ele><time>2026-04-12T10:21:05.9Z</time></trkpt><trkpt lat="46.48007936910664" lon="12.033207331712717"><ele>1809.0</ele><time>2026-04-12T10:21:06.9Z</time></trkpt><trkpt lat="46.480002512075224" lon="12.033257470902031"><ele>1809.0</ele><time>2026-04-12T10:21:07.9Z</time></trkpt><trkpt lat="46.479922463992324" lon="12.033400769451637"><ele>1809.0</ele><time>2026-04-12T10:21:09.9Z</time></trkpt><trkpt lat="46.479955460367535" lon="12.03350510807761"><ele>1809.0</ele><time>2026-04-12T10:21:10.9Z</time></trkpt><trkpt lat="46.48003693442846" lon="12.033536051921658"><ele>1814.25</ele><time>2026-04-12T10:21:11.9Z</time></trkpt><trkpt lat="46.48015063437324" lon="12.033510883259495"><ele>1819.5</ele><time>2026-04-12T10:21:12.9Z</time></trkpt><trkpt lat="46.48027452586134" lon="12.03345291920707"><ele>1824.75</ele><time>2026-04-12T10:21:13.9Z</time></trkpt><trkpt lat="46.48040699999378" lon="12.033418734454054"><ele>1830.0</ele><time>2026-04-12T10:21:14.9Z</time></trkpt><trkpt lat="46.480567333205485" lon="12.033377847779468"><ele>1831.8</ele><time>2026-04-12T10:21:15.9Z</time></trkpt><trkpt lat="46.48070279763547" lon="12.033330130058612"><ele>1833.6</ele><time>2026-04-12T10:21:16.9Z</time></trkpt><trkpt lat="46.480816517689775" lon="12.033322097268162"><ele>1835.4</ele><time>2026-04-12T10:21:17.9Z</time></trkpt><trkpt lat="46.48090520929879" lon="12.033284602897128"><ele>1837.2</ele><time>2026-04-12T10:21:18.9Z</time></trkpt><trkpt lat="46.48099461146044" lon="12.0332521903225"><ele>1839.0</ele><time>2026-04-12T10:21:19.9Z</time></trkpt><trkpt lat="46.48107337337698" lon="12.033245782700254"><ele>1839.0</ele><time>2026-04-12T10:21:20.9Z</time></trkpt><trkpt lat="46.481126506968685" lon="12.033295896501961"><ele>1839.0</ele><time>2026-04-12T10:21:21.9Z</time></trkpt><trkpt lat="46.48115891501316" lon="12.033473193521047"><ele>1839.0</ele><time>2026-04-12T10:21:23.9Z</time></trkpt><trkpt lat="46.48109493151589" lon="12.03356830991063"><ele>1839.0</ele><time>2026-04-12T10:21:24.9Z</time></trkpt><trkpt lat="46.480993953823074" lon="12.033593978794793"><ele>1839.0</ele><time>2026-04-12T10:21:25.9Z</time></trkpt><trkpt lat="46.48088361921268" lon="12.03365459867083"><ele>1839.0</ele><time>2026-04-12T10:21:26.9Z</time></trkpt><trkpt lat="46.48073107830781" lon="12.033693410255538"><ele>1839.0</ele><time>2026-04-12T10:21:27.9Z</time></trkpt><trkpt lat="46.48061379862231" lon="12.033703329577746"><ele>1839.0</ele><time>2026-04-12T10:21:28.9Z</time></trkpt><trkpt lat="46.4805306224709" lon="12.03371777998366"><ele>1839.0</ele><time>2026-04-12T10:21:29.9Z</time></trkpt><trkpt lat="46.48047996280518" lon="12.03378379728712"><ele>1839.0</ele><time>2026-04-12T10:21:30.9Z</time></trkpt><trkpt lat="46.48047620184857" lon="12.033886587681769"><ele>1839.0</ele><time>2026-04-12T10:21:31.9Z</time></trkpt><trkpt lat="46.48051551103855" lon="12.03398922002241"><ele>1839.0</ele><time>2026-04-12T10:21:32.9Z</time></trkpt><trkpt lat="46.48060096135999" lon="12.034028335914819"><ele>1839.0</ele><time>2026-04-12T10:21:33.9Z</time></trkpt><trkpt lat="46.48071355861823" lon="12.034030051431085"><ele>1839.0</ele><time>2026-04-12T10:21:34.9Z</time></trkpt><trkpt lat="46.480849471130945" lon="12.034011450599788"><ele>1839.0</ele><time>2026-04-12T10:21:35.9Z</time></trkpt><trkpt lat="46.48097758338185" lon="12.034019551752273"><ele>1839.0</ele><time>2026-04-12T10:21:36.9Z</time></trkpt><trkpt lat="46.48113335170385" lon="12.034037590101613"><ele>1839.0</ele><time>2026-04-12T10:21:37.9Z</time></trkpt><trkpt lat="46.48132043727868" lon="12.034079958491393"><ele>1839.0</ele><time>2026-04-12T10:21:38.9Z</time></trkpt><trkpt lat="46.48151766535222" lon="12.034134329968301"><ele>1847.0</ele><time>2026-04-12T10:21:39.9Z</time></trkpt><trkpt lat="46.481675364352654" lon="12.034189828585168"><ele>1855.0</ele><time>2026-04-12T10:21:40.9Z</time></trkpt><trkpt lat="46.481829376414645" lon="12.034243330279587"><ele>1863.0</ele><time>2026-04-12T10:21:41.9Z</time></trkpt><trkpt lat="46.481992506472444" lon="12.034281171885505"><ele>1864.0</ele><time>2026-04-12T10:21:42.918Z</time></trkpt><trkpt lat="46.482148534877695" lon="12.034332914431722"><ele>1865.0</ele><time>2026-04-12T10:21:43.918Z</time></trkpt><trkpt lat="46.48229889428644" lon="12.03438295225726"><ele>1866.0</ele><time>2026-04-12T10:21:44.918Z</time></trkpt><trkpt lat="46.48242928624285" lon="12.034439403698473"><ele>1866.0</ele><time>2026-04-12T10:21:45.918Z</time></trkpt><trkpt lat="46.482593013934" lon="12.034497039124023"><ele>1866.0</ele><time>2026-04-12T10:21:46.917Z</time></trkpt><trkpt lat="46.48313740639013" lon="12.034598417238064"><ele>1867.6666666666665</ele><time>2026-04-12T10:21:48.9Z</time></trkpt><trkpt lat="46.48330820187939" lon="12.034605685154338"><ele>1869.3333333333333</ele><time>2026-04-12T10:21:49.9Z</time></trkpt><trkpt lat="46.48349524198697" lon="12.034597988280321"><ele>1871.0</ele><time>2026-04-12T10:21:50.9Z</time></trkpt><trkpt lat="46.48364200319737" lon="12.034582098273008"><ele>1871.0</ele><time>2026-04-12T10:21:51.9Z</time></trkpt><trkpt lat="46.483776770281075" lon="12.034601773618139"><ele>1871.0</ele><time>2026-04-12T10:21:52.9Z</time></trkpt><trkpt lat="46.48371460796222" lon="12.034707853413499"><ele>1871.0</ele><time>2026-04-12T10:21:54.9Z</time></trkpt><trkpt lat="46.483623198195396" lon="12.034829809157099"><ele>1871.0</ele><time>2026-04-12T10:21:56.9Z</time></trkpt><trkpt lat="46.48352145979949" lon="12.03479075524856"><ele>1871.0</ele><time>2026-04-12T10:21:57.9Z</time></trkpt><trkpt lat="46.483419254522715" lon="12.034835018183598"><ele>1871.0</ele><time>2026-04-12T10:21:58.9Z</time></trkpt><trkpt lat="46.48330057697765" lon="12.034869523193318"><ele>1871.0</ele><time>2026-04-12T10:21:59.9Z</time></trkpt><trkpt lat="46.48317256821367" lon="12.03491515680424"><ele>1871.0</ele><time>2026-04-12T10:22:00.9Z</time></trkpt><trkpt lat="46.48302846609537" lon="12.034973350572352"><ele>1879.0</ele><time>2026-04-12T10:22:01.9Z</time></trkpt><trkpt lat="46.48286386827037" lon="12.035014269681774"><ele>1887.0</ele><time>2026-04-12T10:22:02.9Z</time></trkpt><trkpt lat="46.48268753004252" lon="12.035074982329386"><ele>1895.0</ele><time>2026-04-12T10:22:03.9Z</time></trkpt><trkpt lat="46.48251047652094" lon="12.035132832701743"><ele>1895.0</ele><time>2026-04-12T10:22:04.9Z</time></trkpt><trkpt lat="46.4823515104339" lon="12.035166142192852"><ele>1895.0</ele><time>2026-04-12T10:22:05.9Z</time></trkpt><trkpt lat="46.482189727675895" lon="12.035195372159588"><ele>1895.0</ele><time>2026-04-12T10:22:06.9Z</time></trkpt><trkpt lat="46.482055474452906" lon="12.035215430674128"><ele>1894.1666666666665</ele><time>2026-04-12T10:22:07.901Z</time></trkpt><trkpt lat="46.48194684685178" lon="12.03522273005375"><ele>1893.3333333333333</ele><time>2026-04-12T10:22:08.901Z</time></trkpt><trkpt lat="46.481869952364725" lon="12.035212278056544"><ele>1892.5</ele><time>2026-04-12T10:22:09.901Z</time></trkpt><trkpt lat="46.48180738224953" lon="12.035229847552642"><ele>1891.6666666666665</ele><time>2026-04-12T10:22:10.901Z</time></trkpt><trkpt lat="46.481758255861564" lon="12.035291703947477"><ele>1890.8333333333333</ele><time>2026-04-12T10:22:11.901Z</time></trkpt><trkpt lat="46.48175016480362" lon="12.035394031122836"><ele>1890.0</ele><time>2026-04-12T10:22:12.901Z</time></trkpt><trkpt lat="46.48177810897969" lon="12.035501465479896"><ele>1890.0</ele><time>2026-04-12T10:22:13.901Z</time></trkpt><trkpt lat="46.481880401807594" lon="12.035543442613841"><ele>1890.0</ele><time>2026-04-12T10:22:14.901Z</time></trkpt><trkpt lat="46.48198808126751" lon="12.035541487770583"><ele>1890.0</ele><time>2026-04-12T10:22:15.901Z</time></trkpt><trkpt lat="46.48211482514967" lon="12.035528010934184"><ele>1890.0</ele><time>2026-04-12T10:22:16.901Z</time></trkpt><trkpt lat="46.48226798951129" lon="12.035531349014846"><ele>1891.6666666666665</ele><time>2026-04-12T10:22:17.901Z</time></trkpt><trkpt lat="46.482435582941164" lon="12.035547459190813"><ele>1893.3333333333333</ele><time>2026-04-12T10:22:18.901Z</time></trkpt><trkpt lat="46.48263051309952" lon="12.03556113774256"><ele>1895.0</ele><time>2026-04-12T10:22:19.901Z</time></trkpt><trkpt lat="46.48281559033539" lon="12.035571401944448"><ele>1897.0</ele><time>2026-04-12T10:22:20.901Z</time></trkpt><trkpt lat="46.482976302325625" lon="12.03557695681629"><ele>1899.0</ele><time>2026-04-12T10:22:21.901Z</time></trkpt><trkpt lat="46.48314282276273" lon="12.03559085385923"><ele>1901.0</ele><time>2026-04-12T10:22:22.901Z</time></trkpt><trkpt lat="46.483319025288914" lon="12.035614086171734"><ele>1901.0</ele><time>2026-04-12T10:22:23.901Z</time></trkpt><trkpt lat="46.48352074148404" lon="12.035640294291172"><ele>1901.0</ele><time>2026-04-12T10:22:24.901Z</time></trkpt><trkpt lat="46.48372714456322" lon="12.035659179373106"><ele>1901.0</ele><time>2026-04-12T10:22:25.901Z</time></trkpt><trkpt lat="46.483942786833694" lon="12.035655025368996"><ele>1904.3333333333333</ele><time>2026-04-12T10:22:26.901Z</time></trkpt><trkpt lat="46.484141284380115" lon="12.035627976899322"><ele>1907.6666666666665</ele><time>2026-04-12T10:22:27.901Z</time></trkpt><trkpt lat="46.484314371820076" lon="12.035566633032484"><ele>1911.0</ele><time>2026-04-12T10:22:28.901Z</time></trkpt><trkpt lat="46.484451783698496" lon="12.035505977507857"><ele>1911.0</ele><time>2026-04-12T10:22:29.901Z</time></trkpt><trkpt lat="46.48457505279219" lon="12.035443917967404"><ele>1911.0</ele><time>2026-04-12T10:22:30.901Z</time></trkpt><trkpt lat="46.484684363637854" lon="12.035389834076291"><ele>1911.0</ele><time>2026-04-12T10:22:31.901Z</time></trkpt><trkpt lat="46.48479625587391" lon="12.03533527915894"><ele>1911.0</ele><time>2026-04-12T10:22:32.901Z</time></trkpt><trkpt lat="46.48490004826025" lon="12.035290021058485"><ele>1913.5</ele><time>2026-04-12T10:22:33.901Z</time></trkpt><trkpt lat="46.48496861181464" lon="12.03526725524937"><ele>1916.0</ele><time>2026-04-12T10:22:34.901Z</time></trkpt><trkpt lat="46.48505871199765" lon="12.035350546633214"><ele>1918.5</ele><time>2026-04-12T10:22:36.901Z</time></trkpt><trkpt lat="46.48503590149813" lon="12.035448369313228"><ele>1921.0</ele><time>2026-04-12T10:22:37.901Z</time></trkpt><trkpt lat="46.48498854317044" lon="12.035548789294857"><ele>1923.5</ele><time>2026-04-12T10:22:38.901Z</time></trkpt><trkpt lat="46.484896593875014" lon="12.035598129021885"><ele>1926.0</ele><time>2026-04-12T10:22:39.901Z</time></trkpt><trkpt lat="46.484805908747866" lon="12.035706246976773"><ele>1926.0</ele><time>2026-04-12T10:22:40.901Z</time></trkpt><trkpt lat="46.484672563567194" lon="12.035790958869082"><ele>1926.0</ele><time>2026-04-12T10:22:41.901Z</time></trkpt><trkpt lat="46.48453730559483" lon="12.035857106216998"><ele>1926.0</ele><time>2026-04-12T10:22:42.901Z</time></trkpt><trkpt lat="46.48443344137264" lon="12.035885893010034"><ele>1926.0</ele><time>2026-04-12T10:22:43.901Z</time></trkpt><trkpt lat="46.484367512987454" lon="12.035907661937477"><ele>1929.8</ele><time>2026-04-12T10:22:44.901Z</time></trkpt><trkpt lat="46.48434526584956" lon="12.036060623573796"><ele>1933.6</ele><time>2026-04-12T10:22:46.901Z</time></trkpt><trkpt lat="46.484387393354005" lon="12.036140632979011"><ele>1937.4</ele><time>2026-04-12T10:22:47.901Z</time></trkpt><trkpt lat="46.48446231828977" lon="12.036165097337587"><ele>1941.2</ele><time>2026-04-12T10:22:48.901Z</time></trkpt><trkpt lat="46.48455104323125" lon="12.036138626439008"><ele>1945.0</ele><time>2026-04-12T10:22:49.901Z</time></trkpt><trkpt lat="46.48466510385012" lon="12.03609021195166"><ele>1949.0</ele><time>2026-04-12T10:22:50.901Z</time></trkpt><trkpt lat="46.484790416551206" lon="12.03604909424311"><ele>1953.0</ele><time>2026-04-12T10:22:51.901Z</time></trkpt><trkpt lat="46.48493967486841" lon="12.036004795402556"><ele>1957.0</ele><time>2026-04-12T10:22:52.901Z</time></trkpt><trkpt lat="46.485111665652106" lon="12.035985262943127"><ele>1957.0</ele><time>2026-04-12T10:22:53.901Z</time></trkpt><trkpt lat="46.485270390467534" lon="12.03599274967624"><ele>1957.0</ele><time>2026-04-12T10:22:54.901Z</time></trkpt><trkpt lat="46.48540087262141" lon="12.036001023660972"><ele>1957.0</ele><time>2026-04-12T10:22:55.901Z</time></trkpt><trkpt lat="46.48552764648121" lon="12.03596421684097"><ele>1957.0</ele><time>2026-04-12T10:22:56.901Z</time></trkpt><trkpt lat="46.485658371836685" lon="12.035896955777899"><ele>1960.0</ele><time>2026-04-12T10:22:57.901Z</time></trkpt><trkpt lat="46.48580906009313" lon="12.035893300603254"><ele>1963.0</ele><time>2026-04-12T10:22:58.901Z</time></trkpt><trkpt lat="46.485972790882414" lon="12.035878708083413"><ele>1966.0</ele><time>2026-04-12T10:22:59.901Z</time></trkpt><trkpt lat="46.48615175473574" lon="12.035889777972372"><ele>1970.0</ele><time>2026-04-12T10:23:00.901Z</time></trkpt><trkpt lat="46.48632346530612" lon="12.03589780185495"><ele>1974.0</ele><time>2026-04-12T10:23:01.901Z</time></trkpt><trkpt lat="46.486464810543765" lon="12.035912245027939"><ele>1978.0</ele><time>2026-04-12T10:23:02.901Z</time></trkpt><trkpt lat="46.486590137502645" lon="12.035913017602393"><ele>1982.0</ele><time>2026-04-12T10:23:03.901Z</time></trkpt><trkpt lat="46.48671029750908" lon="12.035903617705621"><ele>1982.0</ele><time>2026-04-12T10:23:04.901Z</time></trkpt><trkpt lat="46.486811951583356" lon="12.035894895606186"><ele>1981.9999999999998</ele><time>2026-04-12T10:23:05.901Z</time></trkpt><trkpt lat="46.486893872091414" lon="12.035829722031325"><ele>1981.9999999999998</ele><time>2026-04-12T10:23:06.901Z</time></trkpt><trkpt lat="46.48696712090265" lon="12.035715438529925"><ele>1982.0</ele><time>2026-04-12T10:23:07.901Z</time></trkpt><trkpt lat="46.487005634334416" lon="12.035557327434637"><ele>1982.0</ele><time>2026-04-12T10:23:08.901Z</time></trkpt><trkpt lat="46.48699404851119" lon="12.035389989134545"><ele>1980.6</ele><time>2026-04-12T10:23:09.901Z</time></trkpt><trkpt lat="46.48693962479643" lon="12.035239774560905"><ele>1979.1999999999998</ele><time>2026-04-12T10:23:10.901Z</time></trkpt><trkpt lat="46.48688017965896" lon="12.035129305696675"><ele>1977.8</ele><time>2026-04-12T10:23:11.901Z</time></trkpt><trkpt lat="46.4869054497681" lon="12.034969230426135"><ele>1976.4</ele><time>2026-04-12T10:23:13.901Z</time></trkpt><trkpt lat="46.48698753191767" lon="12.034912001052817"><ele>1975.0</ele><time>2026-04-12T10:23:14.901Z</time></trkpt><trkpt lat="46.487071709419595" lon="12.034889432862487"><ele>1978.4</ele><time>2026-04-12T10:23:15.901Z</time></trkpt><trkpt lat="46.4871624464259" lon="12.034921581050126"><ele>1981.8</ele><time>2026-04-12T10:23:16.901Z</time></trkpt><trkpt lat="46.48721153459486" lon="12.035036182385086"><ele>1985.1999999999998</ele><time>2026-04-12T10:23:17.901Z</time></trkpt><trkpt lat="46.4872652432031" lon="12.035167256732109"><ele>1988.6</ele><time>2026-04-12T10:23:18.901Z</time></trkpt><trkpt lat="46.48733489641456" lon="12.035327031496962"><ele>1992.0</ele><time>2026-04-12T10:23:19.901Z</time></trkpt><trkpt lat="46.48741167741512" lon="12.035503156093677"><ele>1993.0</ele><time>2026-04-12T10:23:20.901Z</time></trkpt><trkpt lat="46.48747250373015" lon="12.035642682940017"><ele>1993.9999999999998</ele><time>2026-04-12T10:23:21.901Z</time></trkpt><trkpt lat="46.48752044291404" lon="12.035760823091454"><ele>1994.9999999999998</ele><time>2026-04-12T10:23:22.901Z</time></trkpt><trkpt lat="46.48757130907955" lon="12.035866346347587"><ele>1996.0</ele><time>2026-04-12T10:23:23.901Z</time></trkpt><trkpt lat="46.48757749478999" lon="12.036002450977968"><ele>1997.0</ele><time>2026-04-12T10:23:24.901Z</time></trkpt><trkpt lat="46.487533550086276" lon="12.036115617661961"><ele>1997.75</ele><time>2026-04-12T10:23:25.901Z</time></trkpt><trkpt lat="46.48743967765444" lon="12.036186168683223"><ele>1998.5</ele><time>2026-04-12T10:23:26.901Z</time></trkpt><trkpt lat="46.487320252187146" lon="12.03624710731816"><ele>1999.25</ele><time>2026-04-12T10:23:27.901Z</time></trkpt><trkpt lat="46.48716266094752" lon="12.036355992717777"><ele>2000.0</ele><time>2026-04-12T10:23:28.901Z</time></trkpt><trkpt lat="46.48701143081784" lon="12.03650434160829"><ele>2000.25</ele><time>2026-04-12T10:23:29.901Z</time></trkpt><trkpt lat="46.48687284819943" lon="12.03668490024225"><ele>2000.5</ele><time>2026-04-12T10:23:30.901Z</time></trkpt><trkpt lat="46.48679283075746" lon="12.036783740515844"><ele>2000.75</ele><time>2026-04-12T10:23:31.901Z</time></trkpt><trkpt lat="46.48667653085083" lon="12.036914171769427"><ele>2001.0</ele><time>2026-04-12T10:23:32.901Z</time></trkpt><trkpt lat="46.48657569555719" lon="12.03700700904461"><ele>2001.0</ele><time>2026-04-12T10:23:33.901Z</time></trkpt><trkpt lat="46.4864849226727" lon="12.0370805433359"><ele>2001.0</ele><time>2026-04-12T10:23:34.901Z</time></trkpt><trkpt lat="46.486413780172384" lon="12.037168852577189"><ele>2001.0</ele><time>2026-04-12T10:23:35.901Z</time></trkpt><trkpt lat="46.486360671340904" lon="12.037239919374318"><ele>2001.0</ele><time>2026-04-12T10:23:36.901Z</time></trkpt><trkpt lat="46.486319968672575" lon="12.037333640171987"><ele>2001.0</ele><time>2026-04-12T10:23:37.901Z</time></trkpt><trkpt lat="46.486332473770034" lon="12.037473443665176"><ele>2001.0</ele><time>2026-04-12T10:23:38.901Z</time></trkpt><trkpt lat="46.48636070570059" lon="12.03758096470853"><ele>2004.0</ele><time>2026-04-12T10:23:39.901Z</time></trkpt><trkpt lat="46.48641853125664" lon="12.037637336865714"><ele>2007.0</ele><time>2026-04-12T10:23:40.901Z</time></trkpt><trkpt lat="46.48648155137676" lon="12.0376712289206"><ele>2010.0</ele><time>2026-04-12T10:23:41.901Z</time></trkpt><trkpt lat="46.48655656569649" lon="12.037677605566238"><ele>2013.0</ele><time>2026-04-12T10:23:42.901Z</time></trkpt><trkpt lat="46.486645868987566" lon="12.037641148252419"><ele>2016.0</ele><time>2026-04-12T10:23:43.901Z</time></trkpt><trkpt lat="46.48674361529196" lon="12.037560857832759"><ele>2019.0</ele><time>2026-04-12T10:23:44.901Z</time></trkpt><trkpt lat="46.486838993877775" lon="12.037484875993398"><ele>2016.3333333333335</ele><time>2026-04-12T10:23:45.901Z</time></trkpt><trkpt lat="46.486965388811505" lon="12.037406068067765"><ele>2013.6666666666667</ele><time>2026-04-12T10:23:46.901Z</time></trkpt><trkpt lat="46.487110518554765" lon="12.037300830473137"><ele>2011.0</ele><time>2026-04-12T10:23:47.901Z</time></trkpt><trkpt lat="46.48724844634557" lon="12.037214238735821"><ele>2011.0</ele><time>2026-04-12T10:23:48.901Z</time></trkpt><trkpt lat="46.48736874604331" lon="12.037131758224774"><ele>2011.0</ele><time>2026-04-12T10:23:49.901Z</time></trkpt><trkpt lat="46.487468336273324" lon="12.037067161396546"><ele>2011.0</ele><time>2026-04-12T10:23:50.901Z</time></trkpt><trkpt lat="46.48755049463924" lon="12.03701371659602"><ele>2011.0</ele><time>2026-04-12T10:23:51.901Z</time></trkpt><trkpt lat="46.48763048130509" lon="12.036996836395131"><ele>2011.0</ele><time>2026-04-12T10:23:52.901Z</time></trkpt><trkpt lat="46.48774415111537" lon="12.037105268944632"><ele>2011.0</ele><time>2026-04-12T10:23:54.901Z</time></trkpt><trkpt lat="46.48777710496919" lon="12.037217005359944"><ele>2011.0</ele><time>2026-04-12T10:23:55.901Z</time></trkpt><trkpt lat="46.48774281102596" lon="12.037384257924517"><ele>2011.0</ele><time>2026-04-12T10:23:56.901Z</time></trkpt><trkpt lat="46.48770803062042" lon="12.037484796690038"><ele>2011.0</ele><time>2026-04-12T10:23:57.901Z</time></trkpt><trkpt lat="46.487588041856725" lon="12.037530512022963"><ele>2011.0</ele><time>2026-04-12T10:23:58.901Z</time></trkpt><trkpt lat="46.48747010295053" lon="12.037616059734633"><ele>2013.6666666666667</ele><time>2026-04-12T10:23:59.901Z</time></trkpt><trkpt lat="46.487335969319226" lon="12.037730260005182"><ele>2016.3333333333335</ele><time>2026-04-12T10:24:00.901Z</time></trkpt><trkpt lat="46.48717250866345" lon="12.03784258668861"><ele>2019.0</ele><time>2026-04-12T10:24:01.901Z</time></trkpt><trkpt lat="46.48699897866436" lon="12.03799435338495"><ele>2019.0</ele><time>2026-04-12T10:24:02.901Z</time></trkpt><trkpt lat="46.48685023156246" lon="12.038100204527336"><ele>2019.0</ele><time>2026-04-12T10:24:03.901Z</time></trkpt><trkpt lat="46.48674339054853" lon="12.038195941394235"><ele>2019.0</ele><time>2026-04-12T10:24:04.901Z</time></trkpt><trkpt lat="46.486646770364786" lon="12.038308324380019"><ele>2019.0</ele><time>2026-04-12T10:24:05.901Z</time></trkpt><trkpt lat="46.4865392025427" lon="12.038394580253414"><ele>2023.75</ele><time>2026-04-12T10:24:06.901Z</time></trkpt><trkpt lat="46.48639767288761" lon="12.038446915998573"><ele>2028.5</ele><time>2026-04-12T10:24:07.901Z</time></trkpt><trkpt lat="46.48625734306838" lon="12.038503219427065"><ele>2033.25</ele><time>2026-04-12T10:24:08.901Z</time></trkpt><trkpt lat="46.48615476237319" lon="12.038532681671839"><ele>2038.0</ele><time>2026-04-12T10:24:09.901Z</time></trkpt><trkpt lat="46.485814020296736" lon="12.038887880834096"><ele>2038.0</ele><time>2026-04-12T10:24:10.901Z</time></trkpt><trkpt lat="46.48568554983696" lon="12.038968720597502"><ele>2038.0</ele><time>2026-04-12T10:24:11.901Z</time></trkpt><trkpt lat="46.48556384060751" lon="12.039061376761417"><ele>2038.0</ele><time>2026-04-12T10:24:12.901Z</time></trkpt><trkpt lat="46.48545383683525" lon="12.039186186129513"><ele>2038.0</ele><time>2026-04-12T10:24:13.902Z</time></trkpt><trkpt lat="46.4853497322551" lon="12.039323627169091"><ele>2040.75</ele><time>2026-04-12T10:24:14.902Z</time></trkpt><trkpt lat="46.48525184567796" lon="12.039465461535126"><ele>2043.5</ele><time>2026-04-12T10:24:15.902Z</time></trkpt><trkpt lat="46.48515967261573" lon="12.039569772291216"><ele>2046.25</ele><time>2026-04-12T10:24:16.902Z</time></trkpt><trkpt lat="46.48503964408053" lon="12.039588481552988"><ele>2049.0</ele><time>2026-04-12T10:24:17.902Z</time></trkpt><trkpt lat="46.48492611496047" lon="12.039606445418348"><ele>2049.0</ele><time>2026-04-12T10:24:18.902Z</time></trkpt><trkpt lat="46.48479409407639" lon="12.039620988780763"><ele>2049.0</ele><time>2026-04-12T10:24:19.902Z</time></trkpt><trkpt lat="46.484656892832945" lon="12.039634704678694"><ele>2049.0</ele><time>2026-04-12T10:24:20.902Z</time></trkpt><trkpt lat="46.48452512034018" lon="12.039649424985654"><ele>2049.0</ele><time>2026-04-12T10:24:21.902Z</time></trkpt><trkpt lat="46.48442326395696" lon="12.039671529871379"><ele>2049.1666666666665</ele><time>2026-04-12T10:24:22.902Z</time></trkpt><trkpt lat="46.4843267047764" lon="12.039679221075858"><ele>2049.3333333333335</ele><time>2026-04-12T10:24:23.902Z</time></trkpt><trkpt lat="46.48424335066108" lon="12.039709920539718"><ele>2049.5</ele><time>2026-04-12T10:24:24.902Z</time></trkpt><trkpt lat="46.48418212675649" lon="12.039782309061732"><ele>2049.666666666667</ele><time>2026-04-12T10:24:25.902Z</time></trkpt><trkpt lat="46.48414897865471" lon="12.03989528347109"><ele>2049.8333333333335</ele><time>2026-04-12T10:24:26.902Z</time></trkpt><trkpt lat="46.48416841750497" lon="12.04000658248458"><ele>2050.0</ele><time>2026-04-12T10:24:27.902Z</time></trkpt><trkpt lat="46.48423266770334" lon="12.040098547830567"><ele>2054.5</ele><time>2026-04-12T10:24:28.902Z</time></trkpt><trkpt lat="46.48432822242393" lon="12.04014159666063"><ele>2059.0</ele><time>2026-04-12T10:24:29.902Z</time></trkpt><trkpt lat="46.484442649540526" lon="12.040139366193584"><ele>2063.5</ele><time>2026-04-12T10:24:30.902Z</time></trkpt><trkpt lat="46.484572941726874" lon="12.040098166614209"><ele>2068.0</ele><time>2026-04-12T10:24:31.902Z</time></trkpt><trkpt lat="46.48476522117681" lon="12.040082475633813"><ele>2069.3333333333335</ele><time>2026-04-12T10:24:32.902Z</time></trkpt><trkpt lat="46.48491384087926" lon="12.040082223923056"><ele>2070.6666666666665</ele><time>2026-04-12T10:24:33.902Z</time></trkpt><trkpt lat="46.485056748767505" lon="12.040104703645415"><ele>2072.0</ele><time>2026-04-12T10:24:34.902Z</time></trkpt><trkpt lat="46.485215911411686" lon="12.04015728581838"><ele>2072.0</ele><time>2026-04-12T10:24:35.902Z</time></trkpt><trkpt lat="46.48536862678345" lon="12.040230573565756"><ele>2072.0</ele><time>2026-04-12T10:24:36.902Z</time></trkpt><trkpt lat="46.48549592865183" lon="12.040301703995802"><ele>2072.0</ele><time>2026-04-12T10:24:37.902Z</time></trkpt><trkpt lat="46.48560044881051" lon="12.040369623178632"><ele>2072.0</ele><time>2026-04-12T10:24:38.902Z</time></trkpt><trkpt lat="46.485676600986885" lon="12.040428359425098"><ele>2074.2</ele><time>2026-04-12T10:24:39.902Z</time></trkpt><trkpt lat="46.48573561834335" lon="12.040479383710851"><ele>2076.3999999999996</ele><time>2026-04-12T10:24:40.902Z</time></trkpt><trkpt lat="46.485766931398864" lon="12.040685239059734"><ele>2078.6000000000004</ele><time>2026-04-12T10:24:42.902Z</time></trkpt><trkpt lat="46.485718151797556" lon="12.04081850495236"><ele>2080.8</ele><time>2026-04-12T10:24:43.902Z</time></trkpt><trkpt lat="46.48568038619591" lon="12.04099588177109"><ele>2083.0</ele><time>2026-04-12T10:24:44.902Z</time></trkpt><trkpt lat="46.48564530385158" lon="12.041148478286196"><ele>2084.8</ele><time>2026-04-12T10:24:45.902Z</time></trkpt><trkpt lat="46.48563679285283" lon="12.041275676970477"><ele>2086.6000000000004</ele><time>2026-04-12T10:24:46.902Z</time></trkpt><trkpt lat="46.48561746882369" lon="12.041403142282403"><ele>2088.3999999999996</ele><time>2026-04-12T10:24:47.902Z</time></trkpt><trkpt lat="46.48563115482539" lon="12.04155391489429"><ele>2090.2</ele><time>2026-04-12T10:24:48.902Z</time></trkpt><trkpt lat="46.48568744977304" lon="12.041692772481682"><ele>2092.0</ele><time>2026-04-12T10:24:49.902Z</time></trkpt><trkpt lat="46.48579009791253" lon="12.0417765633517"><ele>2093.0</ele><time>2026-04-12T10:24:50.902Z</time></trkpt><trkpt lat="46.485910560157514" lon="12.041797437529434"><ele>2094.0</ele><time>2026-04-12T10:24:51.902Z</time></trkpt><trkpt lat="46.486042727964595" lon="12.041757977083558"><ele>2095.0</ele><time>2026-04-12T10:24:52.902Z</time></trkpt><trkpt lat="46.48617516399457" lon="12.04170383124807"><ele>2096.0</ele><time>2026-04-12T10:24:53.902Z</time></trkpt><trkpt lat="46.48630633372109" lon="12.041676684852197"><ele>2099.4</ele><time>2026-04-12T10:24:54.902Z</time></trkpt><trkpt lat="46.48640555310229" lon="12.041652870982952"><ele>2102.8</ele><time>2026-04-12T10:24:55.902Z</time></trkpt><trkpt lat="46.486495717781416" lon="12.041667729495405"><ele>2106.2000000000003</ele><time>2026-04-12T10:24:56.902Z</time></trkpt><trkpt lat="46.48656368907757" lon="12.041735774649942"><ele>2109.6</ele><time>2026-04-12T10:24:57.902Z</time></trkpt><trkpt lat="46.48663551116809" lon="12.041813301923945"><ele>2113.0</ele><time>2026-04-12T10:24:58.902Z</time></trkpt><trkpt lat="46.48663987679262" lon="12.041970046793598"><ele>2113.0</ele><time>2026-04-12T10:24:59.902Z</time></trkpt><trkpt lat="46.48659611431065" lon="12.042126333226577"><ele>2113.0</ele><time>2026-04-12T10:25:00.902Z</time></trkpt><trkpt lat="46.48654505751774" lon="12.042318400583795"><ele>2113.0</ele><time>2026-04-12T10:25:01.902Z</time></trkpt><trkpt lat="46.48648904720314" lon="12.042536481031046"><ele>2113.0</ele><time>2026-04-12T10:25:02.902Z</time></trkpt><trkpt lat="46.486431152223645" lon="12.042761899872405"><ele>2113.75</ele><time>2026-04-12T10:25:03.902Z</time></trkpt><trkpt lat="46.48638517334151" lon="12.042941689999283"><ele>2114.5</ele><time>2026-04-12T10:25:04.902Z</time></trkpt><trkpt lat="46.48634006953859" lon="12.043120946610113"><ele>2115.25</ele><time>2026-04-12T10:25:05.902Z</time></trkpt><trkpt lat="46.48628914043276" lon="12.043323355117941"><ele>2116.0</ele><time>2026-04-12T10:25:06.902Z</time></trkpt><trkpt lat="46.48623403717579" lon="12.043548566418202"><ele>2116.0</ele><time>2026-04-12T10:25:07.902Z</time></trkpt><trkpt lat="46.48617354465415" lon="12.04376935840745"><ele>2116.0</ele><time>2026-04-12T10:25:08.902Z</time></trkpt><trkpt lat="46.48609144046649" lon="12.043988764495781"><ele>2116.0</ele><time>2026-04-12T10:25:09.902Z</time></trkpt><trkpt lat="46.48597647771912" lon="12.044189315271334"><ele>2119.666666666667</ele><time>2026-04-12T10:25:10.902Z</time></trkpt><trkpt lat="46.485862458977586" lon="12.04442060680477"><ele>2123.3333333333335</ele><time>2026-04-12T10:25:11.902Z</time></trkpt><trkpt lat="46.48574261921946" lon="12.04461633003658"><ele>2127.0</ele><time>2026-04-12T10:25:12.902Z</time></trkpt><trkpt lat="46.48564484805968" lon="12.044803434230047"><ele>2127.0</ele><time>2026-04-12T10:25:13.902Z</time></trkpt><trkpt lat="46.48553163793038" lon="12.044961501696802"><ele>2127.0</ele><time>2026-04-12T10:25:14.902Z</time></trkpt><trkpt lat="46.48543489255163" lon="12.045127323295402"><ele>2127.0</ele><time>2026-04-12T10:25:15.902Z</time></trkpt><trkpt lat="46.4853386188171" lon="12.045285644170315"><ele>2128.0</ele><time>2026-04-12T10:25:16.902Z</time></trkpt><trkpt lat="46.48525773111915" lon="12.045436680891617"><ele>2129.0</ele><time>2026-04-12T10:25:17.902Z</time></trkpt><trkpt lat="46.48513950452126" lon="12.045528395950669"><ele>2130.0</ele><time>2026-04-12T10:25:18.902Z</time></trkpt><trkpt lat="46.48502050227438" lon="12.045632332202324"><ele>2131.0</ele><time>2026-04-12T10:25:19.902Z</time></trkpt><trkpt lat="46.48491946133504" lon="12.045745319607622"><ele>2133.6</ele><time>2026-04-12T10:25:20.902Z</time></trkpt><trkpt lat="46.48483132477612" lon="12.045816776601152"><ele>2136.2</ele><time>2026-04-12T10:25:21.902Z</time></trkpt><trkpt lat="46.4847641906512" lon="12.04588269605"><ele>2138.8</ele><time>2026-04-12T10:25:22.902Z</time></trkpt><trkpt lat="46.4846995453138" lon="12.04596709708088"><ele>2141.4</ele><time>2026-04-12T10:25:23.902Z</time></trkpt><trkpt lat="46.484649684101186" lon="12.046090985538331"><ele>2144.0</ele><time>2026-04-12T10:25:24.902Z</time></trkpt><trkpt lat="46.48462440496757" lon="12.0462574847936"><ele>2144.0</ele><time>2026-04-12T10:25:25.902Z</time></trkpt><trkpt lat="46.4846267827512" lon="12.046509302223871"><ele>2144.0</ele><time>2026-04-12T10:25:26.902Z</time></trkpt><trkpt lat="46.484632617690174" lon="12.046730739907167"><ele>2144.0</ele><time>2026-04-12T10:25:27.902Z</time></trkpt><trkpt lat="46.48467714214294" lon="12.046864497122296"><ele>2144.0</ele><time>2026-04-12T10:25:28.902Z</time></trkpt><trkpt lat="46.48469448464214" lon="12.047092482817884"><ele>2146.2</ele><time>2026-04-12T10:25:29.902Z</time></trkpt><trkpt lat="46.48470944481163" lon="12.047290568238903"><ele>2148.4</ele><time>2026-04-12T10:25:30.902Z</time></trkpt><trkpt lat="46.484706284400545" lon="12.047440481575594"><ele>2150.6</ele><time>2026-04-12T10:25:31.902Z</time></trkpt><trkpt lat="46.484711357177964" lon="12.04756400296661"><ele>2152.8</ele><time>2026-04-12T10:25:32.902Z</time></trkpt><trkpt lat="46.48471005628948" lon="12.047721516344762"><ele>2155.0</ele><time>2026-04-12T10:25:34.902Z</time></trkpt><trkpt lat="46.48467875771628" lon="12.047859143452847"><ele>2155.8</ele><time>2026-04-12T10:25:36.902Z</time></trkpt><trkpt lat="46.48460287815075" lon="12.047896766602516"><ele>2156.6</ele><time>2026-04-12T10:25:37.902Z</time></trkpt><trkpt lat="46.48451474941171" lon="12.047909116856546"><ele>2157.4</ele><time>2026-04-12T10:25:38.902Z</time></trkpt><trkpt lat="46.484398399703174" lon="12.047938225681381"><ele>2158.2</ele><time>2026-04-12T10:25:39.902Z</time></trkpt><trkpt lat="46.48425828906494" lon="12.04793855638238"><ele>2159.0</ele><time>2026-04-12T10:25:40.902Z</time></trkpt><trkpt lat="46.48413600401439" lon="12.047952529405197"><ele>2159.0</ele><time>2026-04-12T10:25:41.902Z</time></trkpt><trkpt lat="46.48403071803385" lon="12.04796670303647"><ele>2159.0</ele><time>2026-04-12T10:25:42.902Z</time></trkpt><trkpt lat="46.4839422194356" lon="12.047981576314406"><ele>2159.0</ele><time>2026-04-12T10:25:43.902Z</time></trkpt><trkpt lat="46.48387646619356" lon="12.047994277011167"><ele>2159.0</ele><time>2026-04-12T10:25:44.902Z</time></trkpt><trkpt lat="46.48381881676197" lon="12.048032736934394"><ele>2159.0</ele><time>2026-04-12T10:25:45.902Z</time></trkpt><trkpt lat="46.48376273641138" lon="12.048111196287763"><ele>2159.0</ele><time>2026-04-12T10:25:46.902Z</time></trkpt><trkpt lat="46.48370776366289" lon="12.04818824005367"><ele>2160.8</ele><time>2026-04-12T10:25:47.902Z</time></trkpt><trkpt lat="46.48372521301657" lon="12.048344942715651"><ele>2162.6000000000004</ele><time>2026-04-12T10:25:48.902Z</time></trkpt><trkpt lat="46.48376665523353" lon="12.048477472152737"><ele>2164.4</ele><time>2026-04-12T10:25:49.902Z</time></trkpt><trkpt lat="46.4838249901455" lon="12.04859613548308"><ele>2166.2000000000003</ele><time>2026-04-12T10:25:50.902Z</time></trkpt><trkpt lat="46.48386421354512" lon="12.048737247203963"><ele>2168.0</ele><time>2026-04-12T10:25:51.902Z</time></trkpt><trkpt lat="46.48391527441463" lon="12.048846142339723"><ele>2168.0</ele><time>2026-04-12T10:25:52.902Z</time></trkpt><trkpt lat="46.4840627566391" lon="12.049060081512042"><ele>2168.0</ele><time>2026-04-12T10:25:54.902Z</time></trkpt><trkpt lat="46.48419329883524" lon="12.049144290308593"><ele>2168.0</ele><time>2026-04-12T10:25:55.902Z</time></trkpt><trkpt lat="46.48433475340003" lon="12.049194928282782"><ele>2170.2000000000003</ele><time>2026-04-12T10:25:56.902Z</time></trkpt><trkpt lat="46.48441672303884" lon="12.049231317843129"><ele>2172.4</ele><time>2026-04-12T10:25:59.902Z</time></trkpt><trkpt lat="46.48445572637192" lon="12.04940493957569"><ele>2174.6000000000004</ele><time>2026-04-12T10:26:01.902Z</time></trkpt><trkpt lat="46.48442599687342" lon="12.049509299424896"><ele>2176.8</ele><time>2026-04-12T10:26:02.902Z</time></trkpt><trkpt lat="46.48435709449876" lon="12.049582712613946"><ele>2179.0</ele><time>2026-04-12T10:26:03.902Z</time></trkpt><trkpt lat="46.48426119790493" lon="12.049610867412257"><ele>2179.0</ele><time>2026-04-12T10:26:04.902Z</time></trkpt><trkpt lat="46.48415663996348" lon="12.049593651480501"><ele>2179.0</ele><time>2026-04-12T10:26:05.902Z</time></trkpt><trkpt lat="46.484066793998494" lon="12.049588557101185"><ele>2179.0</ele><time>2026-04-12T10:26:06.902Z</time></trkpt><trkpt lat="46.4839987631599" lon="12.049614741120061"><ele>2179.0</ele><time>2026-04-12T10:26:07.902Z</time></trkpt><trkpt lat="46.48388465744103" lon="12.049705236743582"><ele>2179.0</ele><time>2026-04-12T10:26:09.902Z</time></trkpt><trkpt lat="46.483838600145965" lon="12.049793505605363"><ele>2179.0</ele><time>2026-04-12T10:26:10.902Z</time></trkpt><trkpt lat="46.48380476287824" lon="12.049919133771354"><ele>2179.0</ele><time>2026-04-12T10:26:11.902Z</time></trkpt><trkpt lat="46.483793128758414" lon="12.050044974424958"><ele>2179.0</ele><time>2026-04-12T10:26:12.902Z</time></trkpt><trkpt lat="46.483816846846736" lon="12.050177930226386"><ele>2179.0</ele><time>2026-04-12T10:26:13.902Z</time></trkpt><trkpt lat="46.48385132184848" lon="12.050310459104423"><ele>2179.0</ele><time>2026-04-12T10:26:14.902Z</time></trkpt><trkpt lat="46.48395173099618" lon="12.050396582540664"><ele>2181.0</ele><time>2026-04-12T10:26:15.902Z</time></trkpt><trkpt lat="46.484060510514865" lon="12.050471577055495"><ele>2183.0</ele><time>2026-04-12T10:26:16.902Z</time></trkpt><trkpt lat="46.48416977339078" lon="12.050520541887426"><ele>2185.0</ele><time>2026-04-12T10:26:17.902Z</time></trkpt><trkpt lat="46.4842792800248" lon="12.0505970533761"><ele>2187.0</ele><time>2026-04-12T10:26:18.902Z</time></trkpt><trkpt lat="46.48437006960156" lon="12.050648601065646"><ele>2187.0</ele><time>2026-04-12T10:26:19.903Z</time></trkpt><trkpt lat="46.484444808197814" lon="12.05069182563354"><ele>2187.0</ele><time>2026-04-12T10:26:20.903Z</time></trkpt><trkpt lat="46.48450761620672" lon="12.050746668263576"><ele>2187.0</ele><time>2026-04-12T10:26:21.903Z</time></trkpt><trkpt lat="46.48455486588509" lon="12.050827873923593"><ele>2187.0</ele><time>2026-04-12T10:26:22.904Z</time></trkpt><trkpt lat="46.484600910221616" lon="12.05092090886432"><ele>2187.0</ele><time>2026-04-12T10:26:23.904Z</time></trkpt><trkpt lat="46.48459594621381" lon="12.051059108290852"><ele>2187.0</ele><time>2026-04-12T10:26:24.904Z</time></trkpt><trkpt lat="46.48454839553282" lon="12.051200986288254"><ele>2189.5</ele><time>2026-04-12T10:26:25.904Z</time></trkpt><trkpt lat="46.48443945613152" lon="12.051281524635101"><ele>2192.0</ele><time>2026-04-12T10:26:26.904Z</time></trkpt><trkpt lat="46.48433423447813" lon="12.05138912656753"><ele>2194.5</ele><time>2026-04-12T10:26:27.904Z</time></trkpt><trkpt lat="46.484241554751286" lon="12.051519106090373"><ele>2197.0</ele><time>2026-04-12T10:26:28.904Z</time></trkpt><trkpt lat="46.48413829857648" lon="12.051614966300786"><ele>2200.0</ele><time>2026-04-12T10:26:29.904Z</time></trkpt><trkpt lat="46.48406357949741" lon="12.051742332451967"><ele>2203.0</ele><time>2026-04-12T10:26:30.904Z</time></trkpt><trkpt lat="46.48399686266353" lon="12.05187651293633"><ele>2206.0</ele><time>2026-04-12T10:26:31.904Z</time></trkpt><trkpt lat="46.483937870377" lon="12.052026810295468"><ele>2209.0</ele><time>2026-04-12T10:26:32.904Z</time></trkpt><trkpt lat="46.48388405106212" lon="12.052179969602285"><ele>2209.0</ele><time>2026-04-12T10:26:33.904Z</time></trkpt><trkpt lat="46.48383883470373" lon="12.052336333300872"><ele>2209.0</ele><time>2026-04-12T10:26:34.904Z</time></trkpt><trkpt lat="46.48379409568628" lon="12.052490610878579"><ele>2209.0</ele><time>2026-04-12T10:26:35.904Z</time></trkpt><trkpt lat="46.4837533577406" lon="12.052642808774735"><ele>2209.0</ele><time>2026-04-12T10:26:36.904Z</time></trkpt><trkpt lat="46.483690316752224" lon="12.052763489440103"><ele>2209.0</ele><time>2026-04-12T10:26:37.904Z</time></trkpt><trkpt lat="46.48365049322743" lon="12.05287209053716"><ele>2211.0</ele><time>2026-04-12T10:26:38.904Z</time></trkpt><trkpt lat="46.483578005346246" lon="12.052944769548757"><ele>2213.0</ele><time>2026-04-12T10:26:39.904Z</time></trkpt><trkpt lat="46.48347909262104" lon="12.052947585161785"><ele>2215.0</ele><time>2026-04-12T10:26:40.904Z</time></trkpt><trkpt lat="46.483374193593505" lon="12.052971458796511"><ele>2217.0</ele><time>2026-04-12T10:26:41.904Z</time></trkpt><trkpt lat="46.483240220083125" lon="12.053002294578087"><ele>2219.0</ele><time>2026-04-12T10:26:42.904Z</time></trkpt><trkpt lat="46.48309589049264" lon="12.053016246144034"><ele>2219.0</ele><time>2026-04-12T10:26:43.904Z</time></trkpt><trkpt lat="46.482964972672356" lon="12.053042256106895"><ele>2219.0</ele><time>2026-04-12T10:26:44.904Z</time></trkpt><trkpt lat="46.48286274990427" lon="12.053059197101353"><ele>2219.0</ele><time>2026-04-12T10:26:45.904Z</time></trkpt><trkpt lat="46.482786780967004" lon="12.053074084585049"><ele>2219.0</ele><time>2026-04-12T10:26:46.904Z</time></trkpt><trkpt lat="46.48270348403642" lon="12.053107234565001"><ele>2219.0</ele><time>2026-04-12T10:26:48.904Z</time></trkpt><trkpt lat="46.48263063077002" lon="12.053136919219321"><ele>2219.6</ele><time>2026-04-12T10:26:52.904Z</time></trkpt><trkpt lat="46.482751830259225" lon="12.05315802928377"><ele>2220.2</ele><time>2026-04-12T10:26:57.904Z</time></trkpt><trkpt lat="46.482819201885405" lon="12.053108244830506"><ele>2220.7999999999997</ele><time>2026-04-12T10:26:59.904Z</time></trkpt><trkpt lat="46.48265860263509" lon="12.053135386101056"><ele>2221.4</ele><time>2026-04-12T10:31:13.906Z</time></trkpt><trkpt lat="46.48259836713757" lon="12.053162934598735"><ele>2222.0</ele><time>2026-04-12T10:31:14.906Z</time></trkpt><trkpt lat="46.482558022791785" lon="12.053253353762814"><ele>2223.333333333333</ele><time>2026-04-12T10:31:16.906Z</time></trkpt><trkpt lat="46.48251145520534" lon="12.053356041941221"><ele>2224.6666666666665</ele><time>2026-04-12T10:31:19.906Z</time></trkpt><trkpt lat="46.48250713253288" lon="12.053450371399537"><ele>2226.0</ele><time>2026-04-12T10:32:21.906Z</time></trkpt><trkpt lat="46.482509858642516" lon="12.05354326639476"><ele>2227.3333333333335</ele><time>2026-04-12T10:32:33.906Z</time></trkpt><trkpt lat="46.482576513941034" lon="12.053587041858034"><ele>2228.666666666667</ele><time>2026-04-12T10:33:23.907Z</time></trkpt><trkpt lat="46.482513503582794" lon="12.053566741888607"><ele>2230.0</ele><time>2026-04-12T10:33:37.907Z</time></trkpt><trkpt lat="46.482555071621796" lon="12.053713398222817"><ele>2230.0</ele><time>2026-04-12T10:33:48.907Z</time></trkpt><trkpt lat="46.48259552230352" lon="12.05380362680715"><ele>2230.0</ele><time>2026-04-12T10:33:54.907Z</time></trkpt><trkpt lat="46.482560083378054" lon="12.053881803518676"><ele>2230.0</ele><time>2026-04-12T10:34:28.907Z</time></trkpt><trkpt lat="46.48251829526109" lon="12.053801298819245"><ele>2230.0</ele><time>2026-04-12T10:35:36.907Z</time></trkpt><trkpt lat="46.48250474305471" lon="12.053711914842022"><ele>2230.0</ele><time>2026-04-12T10:35:42.907Z</time></trkpt><trkpt lat="46.48250091714422" lon="12.053620651046844"><ele>2230.0</ele><time>2026-04-12T10:35:49.907Z</time></trkpt><trkpt lat="46.4825164800927" lon="12.053523161450967"><ele>2230.0</ele><time>2026-04-12T10:42:56.906Z</time></trkpt><trkpt lat="46.482511347612274" lon="12.05365795730591"><ele>2230.0</ele><time>2026-04-12T10:44:13.907Z</time></trkpt><trkpt lat="46.48252342205462" lon="12.053749065337588"><ele>2230.0</ele><time>2026-04-12T10:44:14.907Z</time></trkpt><trkpt lat="46.482536097466" lon="12.053854776019222"><ele>2230.0</ele><time>2026-04-12T10:44:16.907Z</time></trkpt><trkpt lat="46.48259878447333" lon="12.053806535370393"><ele>2230.0</ele><time>2026-04-12T10:49:30.909Z</time></trkpt><trkpt lat="46.482655124659644" lon="12.053761514496056"><ele>2230.0</ele><time>2026-04-12T10:49:36.909Z</time></trkpt><trkpt lat="46.48259760570788" lon="12.05367146072459"><ele>2230.0</ele><time>2026-04-12T10:52:37.91Z</time></trkpt><trkpt lat="46.48256135732192" lon="12.053758668312545"><ele>2230.0</ele><time>2026-04-12T10:52:43.91Z</time></trkpt><trkpt lat="46.48255419468076" lon="12.053861062736"><ele>2230.0</ele><time>2026-04-12T10:52:48.91Z</time></trkpt><trkpt lat="46.48250947039947" lon="12.053980808226516"><ele>2230.0</ele><time>2026-04-12T10:56:58.911Z</time></trkpt><trkpt lat="46.48250388576229" lon="12.054180034214681"><ele>2230.0</ele><time>2026-04-12T10:57:00.911Z</time></trkpt><trkpt lat="46.48250579282234" lon="12.054351482488032"><ele>2230.0</ele><time>2026-04-12T10:57:02.911Z</time></trkpt><trkpt lat="46.4824959241882" lon="12.054512372899168"><ele>2230.5</ele><time>2026-04-12T10:57:04.911Z</time></trkpt><trkpt lat="46.48246276444664" lon="12.054669323726563"><ele>2231.0</ele><time>2026-04-12T10:57:06.911Z</time></trkpt><trkpt lat="46.482404382701965" lon="12.05480399783704"><ele>2231.5</ele><time>2026-04-12T10:57:08.911Z</time></trkpt><trkpt lat="46.48233846124914" lon="12.054933226352121"><ele>2232.0</ele><time>2026-04-12T10:57:10.911Z</time></trkpt><trkpt lat="46.482258825641" lon="12.055084276375739"><ele>2232.8333333333335</ele><time>2026-04-12T10:57:12.911Z</time></trkpt><trkpt lat="46.48220635133409" lon="12.05518449185421"><ele>2233.6666666666665</ele><time>2026-04-12T10:57:13.911Z</time></trkpt><trkpt lat="46.48215826244243" lon="12.055277704503604"><ele>2234.5</ele><time>2026-04-12T10:57:14.911Z</time></trkpt><trkpt lat="46.48211013513534" lon="12.055365491195143"><ele>2235.333333333333</ele><time>2026-04-12T10:57:15.911Z</time></trkpt><trkpt lat="46.48206413055547" lon="12.055464879314563"><ele>2236.1666666666665</ele><time>2026-04-12T10:57:16.911Z</time></trkpt><trkpt lat="46.48201572731697" lon="12.055554053076666"><ele>2237.0</ele><time>2026-04-12T10:57:17.911Z</time></trkpt><trkpt lat="46.48196677217213" lon="12.055643312223019"><ele>2237.0</ele><time>2026-04-12T10:57:18.911Z</time></trkpt><trkpt lat="46.481914959744024" lon="12.055733661981293"><ele>2237.0</ele><time>2026-04-12T10:57:19.911Z</time></trkpt><trkpt lat="46.48186498784147" lon="12.055829204807575"><ele>2237.0</ele><time>2026-04-12T10:57:20.911Z</time></trkpt><trkpt lat="46.4818150082708" lon="12.055929356249354"><ele>2237.0</ele><time>2026-04-12T10:57:21.911Z</time></trkpt><trkpt lat="46.4817641872828" lon="12.056030071203322"><ele>2237.0</ele><time>2026-04-12T10:57:22.911Z</time></trkpt><trkpt lat="46.48171574582391" lon="12.056135228869854"><ele>2237.0</ele><time>2026-04-12T10:57:23.911Z</time></trkpt><trkpt lat="46.481670214331785" lon="12.056245822507858"><ele>2234.4</ele><time>2026-04-12T10:57:24.911Z</time></trkpt><trkpt lat="46.48162994538104" lon="12.056354105931947"><ele>2231.7999999999997</ele><time>2026-04-12T10:57:25.911Z</time></trkpt><trkpt lat="46.4815940912354" lon="12.05646815883073"><ele>2229.2</ele><time>2026-04-12T10:57:26.911Z</time></trkpt><trkpt lat="46.481559800624204" lon="12.056587004695873"><ele>2226.6</ele><time>2026-04-12T10:57:27.911Z</time></trkpt><trkpt lat="46.48152450142145" lon="12.056712731426536"><ele>2224.0</ele><time>2026-04-12T10:57:28.911Z</time></trkpt><trkpt lat="46.48148941275952" lon="12.056851469553589"><ele>2221.8333333333335</ele><time>2026-04-12T10:57:29.911Z</time></trkpt><trkpt lat="46.48145679046041" lon="12.057039523279588"><ele>2219.666666666667</ele><time>2026-04-12T10:57:31.911Z</time></trkpt><trkpt lat="46.481457581461676" lon="12.057150828038298"><ele>2217.5</ele><time>2026-04-12T10:57:32.911Z</time></trkpt><trkpt lat="46.48148202049539" lon="12.057251489577668"><ele>2215.3333333333335</ele><time>2026-04-12T10:57:33.911Z</time></trkpt><trkpt lat="46.481528100325804" lon="12.057328974616595"><ele>2213.1666666666665</ele><time>2026-04-12T10:57:34.911Z</time></trkpt><trkpt lat="46.481586067421404" lon="12.057394525644343"><ele>2211.0</ele><time>2026-04-12T10:57:35.911Z</time></trkpt><trkpt lat="46.481655694248104" lon="12.057430558418126"><ele>2211.0</ele><time>2026-04-12T10:57:36.911Z</time></trkpt><trkpt lat="46.481741454657666" lon="12.057440680036047"><ele>2211.0</ele><time>2026-04-12T10:57:37.911Z</time></trkpt><trkpt lat="46.48182970345452" lon="12.057416563006436"><ele>2211.0</ele><time>2026-04-12T10:57:38.911Z</time></trkpt><trkpt lat="46.481906044913934" lon="12.057366033263326"><ele>2211.0</ele><time>2026-04-12T10:57:39.911Z</time></trkpt><trkpt lat="46.481981727947016" lon="12.057285834918115"><ele>2211.0</ele><time>2026-04-12T10:57:40.911Z</time></trkpt><trkpt lat="46.48205469868079" lon="12.057183657765579"><ele>2208.8</ele><time>2026-04-12T10:57:41.912Z</time></trkpt><trkpt lat="46.482125756013616" lon="12.05708618977462"><ele>2206.6</ele><time>2026-04-12T10:57:42.911Z</time></trkpt><trkpt lat="46.48219670413269" lon="12.056988654105128"><ele>2204.4</ele><time>2026-04-12T10:57:43.911Z</time></trkpt><trkpt lat="46.48227441100482" lon="12.056900487212738"><ele>2202.2</ele><time>2026-04-12T10:57:44.911Z</time></trkpt><trkpt lat="46.48235090999273" lon="12.05681380142799"><ele>2200.0</ele><time>2026-04-12T10:57:45.911Z</time></trkpt><trkpt lat="46.482412905115645" lon="12.056739663760125"><ele>2200.0</ele><time>2026-04-12T10:57:46.911Z</time></trkpt><trkpt lat="46.48246415293119" lon="12.056674068426661"><ele>2200.0</ele><time>2026-04-12T10:57:47.911Z</time></trkpt><trkpt lat="46.482520965797406" lon="12.056614019060847"><ele>2200.0</ele><time>2026-04-12T10:57:48.911Z</time></trkpt><trkpt lat="46.48258018028447" lon="12.056566331122632"><ele>2200.0</ele><time>2026-04-12T10:57:49.912Z</time></trkpt><trkpt lat="46.48264881957525" lon="12.056555972746207"><ele>2200.0</ele><time>2026-04-12T10:57:50.912Z</time></trkpt><trkpt lat="46.48271907988662" lon="12.056620725380306"><ele>2200.0</ele><time>2026-04-12T10:57:51.912Z</time></trkpt><trkpt lat="46.482778503361104" lon="12.056678946839556"><ele>2200.0</ele><time>2026-04-12T10:57:52.912Z</time></trkpt><trkpt lat="46.48277410679703" lon="12.056819566269562"><ele>2200.0</ele><time>2026-04-12T10:57:53.912Z</time></trkpt><trkpt lat="46.48276816181323" lon="12.056960353365863"><ele>2200.0</ele><time>2026-04-12T10:57:54.912Z</time></trkpt><trkpt lat="46.482768364739144" lon="12.05714101483394"><ele>2200.0</ele><time>2026-04-12T10:57:55.912Z</time></trkpt><trkpt lat="46.48276507371276" lon="12.057315653666068"><ele>2200.0</ele><time>2026-04-12T10:57:56.912Z</time></trkpt><trkpt lat="46.48277868991632" lon="12.057488235226387"><ele>2198.0</ele><time>2026-04-12T10:57:57.912Z</time></trkpt><trkpt lat="46.48277253576902" lon="12.057660899735207"><ele>2196.0</ele><time>2026-04-12T10:57:58.912Z</time></trkpt><trkpt lat="46.48277512963068" lon="12.057824479052801"><ele>2194.0</ele><time>2026-04-12T10:57:59.912Z</time></trkpt><trkpt lat="46.482773690129534" lon="12.05799803991492"><ele>2192.0</ele><time>2026-04-12T10:58:00.912Z</time></trkpt><trkpt lat="46.48277605817412" lon="12.05817922710273"><ele>2190.75</ele><time>2026-04-12T10:58:01.912Z</time></trkpt><trkpt lat="46.48277042267265" lon="12.0583930507659"><ele>2189.5</ele><time>2026-04-12T10:58:02.912Z</time></trkpt><trkpt lat="46.482771001347125" lon="12.058564955690656"><ele>2188.25</ele><time>2026-04-12T10:58:03.912Z</time></trkpt><trkpt lat="46.48277115355904" lon="12.058738732814824"><ele>2187.0</ele><time>2026-04-12T10:58:04.912Z</time></trkpt><trkpt lat="46.482771766161385" lon="12.058902155590259"><ele>2187.0</ele><time>2026-04-12T10:58:05.912Z</time></trkpt><trkpt lat="46.48276881889298" lon="12.059063710786228"><ele>2187.0</ele><time>2026-04-12T10:58:06.912Z</time></trkpt><trkpt lat="46.48277288191504" lon="12.059216508393462"><ele>2187.0</ele><time>2026-04-12T10:58:07.912Z</time></trkpt><trkpt lat="46.48277412522456" lon="12.059370052710607"><ele>2187.0</ele><time>2026-04-12T10:58:08.912Z</time></trkpt><trkpt lat="46.482777685266655" lon="12.059514106757419"><ele>2187.0</ele><time>2026-04-12T10:58:09.912Z</time></trkpt><trkpt lat="46.48276079187402" lon="12.05966903074994"><ele>2186.6</ele><time>2026-04-12T10:58:10.912Z</time></trkpt><trkpt lat="46.48283142075816" lon="12.059761665176978"><ele>2186.2</ele><time>2026-04-12T10:58:11.912Z</time></trkpt><trkpt lat="46.482890700170536" lon="12.05986376140965"><ele>2185.8</ele><time>2026-04-12T10:58:12.912Z</time></trkpt><trkpt lat="46.48296576940475" lon="12.059945074909606"><ele>2185.4</ele><time>2026-04-12T10:58:13.912Z</time></trkpt><trkpt lat="46.48305015268427" lon="12.059997636024502"><ele>2185.0</ele><time>2026-04-12T10:58:14.912Z</time></trkpt><trkpt lat="46.483143823006074" lon="12.06002439705574"><ele>2183.25</ele><time>2026-04-12T10:58:15.912Z</time></trkpt><trkpt lat="46.483248372479196" lon="12.060030914525614"><ele>2181.5</ele><time>2026-04-12T10:58:16.912Z</time></trkpt><trkpt lat="46.483361344961985" lon="12.059982119951616"><ele>2179.75</ele><time>2026-04-12T10:58:17.912Z</time></trkpt><trkpt lat="46.48346522453605" lon="12.0599118364146"><ele>2178.0</ele><time>2026-04-12T10:58:18.912Z</time></trkpt><trkpt lat="46.483569694538005" lon="12.059825331843905"><ele>2178.0</ele><time>2026-04-12T10:58:19.912Z</time></trkpt><trkpt lat="46.48367606448451" lon="12.059747756720487"><ele>2178.0</ele><time>2026-04-12T10:58:20.912Z</time></trkpt><trkpt lat="46.48377431466692" lon="12.059670871813054"><ele>2178.0</ele><time>2026-04-12T10:58:21.912Z</time></trkpt><trkpt lat="46.48387531944428" lon="12.059609496405512"><ele>2178.0</ele><time>2026-04-12T10:58:22.912Z</time></trkpt><trkpt lat="46.4839795451387" lon="12.0595487214092"><ele>2175.6</ele><time>2026-04-12T10:58:23.912Z</time></trkpt><trkpt lat="46.484076711374364" lon="12.059478645887484"><ele>2173.2000000000003</ele><time>2026-04-12T10:58:24.912Z</time></trkpt><trkpt lat="46.48417640322574" lon="12.059409989275652"><ele>2170.8</ele><time>2026-04-12T10:58:25.912Z</time></trkpt><trkpt lat="46.48427845339465" lon="12.05934678744492"><ele>2168.4</ele><time>2026-04-12T10:58:26.912Z</time></trkpt><trkpt lat="46.48438070481996" lon="12.059288582485637"><ele>2166.0</ele><time>2026-04-12T10:58:27.912Z</time></trkpt><trkpt lat="46.4844855530602" lon="12.059221671313043"><ele>2163.75</ele><time>2026-04-12T10:58:28.912Z</time></trkpt><trkpt lat="46.48459750013446" lon="12.059146474358968"><ele>2161.5</ele><time>2026-04-12T10:58:29.912Z</time></trkpt><trkpt lat="46.48470516126609" lon="12.059083112275454"><ele>2159.25</ele><time>2026-04-12T10:58:30.912Z</time></trkpt><trkpt lat="46.48482078508525" lon="12.0590233961117"><ele>2157.0</ele><time>2026-04-12T10:58:31.912Z</time></trkpt><trkpt lat="46.484927102079354" lon="12.05896039855551"><ele>2157.0</ele><time>2026-04-12T10:58:32.912Z</time></trkpt><trkpt lat="46.485029560087405" lon="12.058899363296332"><ele>2157.0</ele><time>2026-04-12T10:58:33.912Z</time></trkpt><trkpt lat="46.48513261101706" lon="12.058829259465787"><ele>2157.0</ele><time>2026-04-12T10:58:34.912Z</time></trkpt><trkpt lat="46.48521874191786" lon="12.05873262029463"><ele>2157.0</ele><time>2026-04-12T10:58:35.912Z</time></trkpt><trkpt lat="46.48530823352714" lon="12.058621819815682"><ele>2157.0</ele><time>2026-04-12T10:58:36.912Z</time></trkpt><trkpt lat="46.48538960648003" lon="12.058473793564566"><ele>2157.0</ele><time>2026-04-12T10:58:37.912Z</time></trkpt><trkpt lat="46.485480653197776" lon="12.058321988339365"><ele>2157.0</ele><time>2026-04-12T10:58:38.912Z</time></trkpt><trkpt lat="46.48555000002843" lon="12.058170692707714"><ele>2157.0</ele><time>2026-04-12T10:58:39.912Z</time></trkpt><trkpt lat="46.48561538480375" lon="12.058024531544469"><ele>2157.4</ele><time>2026-04-12T10:58:40.912Z</time></trkpt><trkpt lat="46.485683110179984" lon="12.057833358844837"><ele>2157.7999999999997</ele><time>2026-04-12T10:58:41.912Z</time></trkpt><trkpt lat="46.48572979010813" lon="12.05773223195325"><ele>2158.2</ele><time>2026-04-12T10:58:42.912Z</time></trkpt><trkpt lat="46.48579831486007" lon="12.057630365238358"><ele>2158.6</ele><time>2026-04-12T10:58:43.912Z</time></trkpt><trkpt lat="46.48584304536904" lon="12.057516414721782"><ele>2159.0</ele><time>2026-04-12T10:58:44.912Z</time></trkpt><trkpt lat="46.485912218510784" lon="12.057433541159925"><ele>2159.0</ele><time>2026-04-12T10:58:45.912Z</time></trkpt><trkpt lat="46.48599919827967" lon="12.057385952456302"><ele>2159.0</ele><time>2026-04-12T10:58:46.912Z</time></trkpt><trkpt lat="46.48610236279779" lon="12.057378447962792"><ele>2159.0</ele><time>2026-04-12T10:58:47.912Z</time></trkpt><trkpt lat="46.4862204930884" lon="12.0574288952709"><ele>2159.0</ele><time>2026-04-12T10:58:48.912Z</time></trkpt><trkpt lat="46.486340288716306" lon="12.057507937391508"><ele>2154.5</ele><time>2026-04-12T10:58:49.912Z</time></trkpt><trkpt lat="46.48645687700944" lon="12.05759923452024"><ele>2150.0</ele><time>2026-04-12T10:58:50.912Z</time></trkpt><trkpt lat="46.486565569779195" lon="12.05766079474855"><ele>2145.5</ele><time>2026-04-12T10:58:51.912Z</time></trkpt><trkpt lat="46.486678140473806" lon="12.057693287803673"><ele>2141.0</ele><time>2026-04-12T10:58:52.912Z</time></trkpt><trkpt lat="46.48679764860963" lon="12.057699074890937"><ele>2141.0</ele><time>2026-04-12T10:58:53.912Z</time></trkpt><trkpt lat="46.48690608863543" lon="12.057653539933572"><ele>2141.0</ele><time>2026-04-12T10:58:54.912Z</time></trkpt><trkpt lat="46.48702280461111" lon="12.057585465222528"><ele>2141.0</ele><time>2026-04-12T10:58:55.912Z</time></trkpt><trkpt lat="46.48714422705288" lon="12.057513577218334"><ele>2141.0</ele><time>2026-04-12T10:58:56.912Z</time></trkpt><trkpt lat="46.48725659515498" lon="12.057453241718738"><ele>2140.2</ele><time>2026-04-12T10:58:57.912Z</time></trkpt><trkpt lat="46.48736079036386" lon="12.057406838289253"><ele>2139.3999999999996</ele><time>2026-04-12T10:58:58.912Z</time></trkpt><trkpt lat="46.487457224348084" lon="12.057374181809104"><ele>2138.6</ele><time>2026-04-12T10:58:59.912Z</time></trkpt><trkpt lat="46.48756398032409" lon="12.057386166180637"><ele>2137.7999999999997</ele><time>2026-04-12T10:59:00.912Z</time></trkpt><trkpt lat="46.48766744691902" lon="12.057426425574493"><ele>2137.0</ele><time>2026-04-12T10:59:01.912Z</time></trkpt><trkpt lat="46.487781912830165" lon="12.057489948943912"><ele>2137.0</ele><time>2026-04-12T10:59:02.912Z</time></trkpt><trkpt lat="46.48789815317033" lon="12.05758132301183"><ele>2137.0</ele><time>2026-04-12T10:59:03.912Z</time></trkpt><trkpt lat="46.48801005236189" lon="12.057688904150218"><ele>2137.0</ele><time>2026-04-12T10:59:04.912Z</time></trkpt><trkpt lat="46.48811694267305" lon="12.057792718852216"><ele>2137.0</ele><time>2026-04-12T10:59:05.912Z</time></trkpt><trkpt lat="46.48822210197638" lon="12.057894203953706"><ele>2139.25</ele><time>2026-04-12T10:59:06.912Z</time></trkpt><trkpt lat="46.48832426698345" lon="12.058006040485138"><ele>2141.5</ele><time>2026-04-12T10:59:07.912Z</time></trkpt><trkpt lat="46.488390970133786" lon="12.058168438590496"><ele>2143.75</ele><time>2026-04-12T10:59:08.912Z</time></trkpt><trkpt lat="46.488459076932315" lon="12.058336149887976"><ele>2146.0</ele><time>2026-04-12T10:59:09.912Z</time></trkpt><trkpt lat="46.488534507652815" lon="12.058500178199726"><ele>2141.25</ele><time>2026-04-12T10:59:10.912Z</time></trkpt><trkpt lat="46.488595653477596" lon="12.058669028455244"><ele>2136.5</ele><time>2026-04-12T10:59:11.912Z</time></trkpt><trkpt lat="46.488655291851" lon="12.058844844768824"><ele>2131.75</ele><time>2026-04-12T10:59:12.912Z</time></trkpt><trkpt lat="46.488720604560825" lon="12.05901126965896"><ele>2127.0</ele><time>2026-04-12T10:59:13.912Z</time></trkpt><trkpt lat="46.48879124338435" lon="12.059170444421872"><ele>2126.6</ele><time>2026-04-12T10:59:14.912Z</time></trkpt><trkpt lat="46.48884387210809" lon="12.059324816802377"><ele>2126.2</ele><time>2026-04-12T10:59:15.912Z</time></trkpt><trkpt lat="46.48887527147609" lon="12.05948548049981"><ele>2125.8</ele><time>2026-04-12T10:59:16.912Z</time></trkpt><trkpt lat="46.48889530226419" lon="12.05964956458237"><ele>2125.4</ele><time>2026-04-12T10:59:17.912Z</time></trkpt><trkpt lat="46.488906813874806" lon="12.059785116093174"><ele>2125.0</ele><time>2026-04-12T10:59:18.912Z</time></trkpt><trkpt lat="46.48893210498338" lon="12.059892064363922"><ele>2121.8</ele><time>2026-04-12T10:59:19.912Z</time></trkpt><trkpt lat="46.48898965995374" lon="12.05998993045329"><ele>2118.6</ele><time>2026-04-12T10:59:20.912Z</time></trkpt><trkpt lat="46.48906874208674" lon="12.060079239690879"><ele>2115.4</ele><time>2026-04-12T10:59:21.912Z</time></trkpt><trkpt lat="46.48916381390819" lon="12.060171013359849"><ele>2112.2</ele><time>2026-04-12T10:59:22.912Z</time></trkpt><trkpt lat="46.48927367705516" lon="12.060276138676663"><ele>2109.0</ele><time>2026-04-12T10:59:23.912Z</time></trkpt><trkpt lat="46.48938527399563" lon="12.060391685792647"><ele>2109.0</ele><time>2026-04-12T10:59:24.912Z</time></trkpt><trkpt lat="46.4894914183831" lon="12.060509888722605"><ele>2109.0</ele><time>2026-04-12T10:59:25.912Z</time></trkpt><trkpt lat="46.48959974766376" lon="12.060635772263277"><ele>2109.0</ele><time>2026-04-12T10:59:26.912Z</time></trkpt><trkpt lat="46.48971473283736" lon="12.060761427202369"><ele>2109.0</ele><time>2026-04-12T10:59:27.912Z</time></trkpt><trkpt lat="46.48982907135667" lon="12.060890771311369"><ele>2105.0</ele><time>2026-04-12T10:59:28.912Z</time></trkpt><trkpt lat="46.48995605582439" lon="12.061018163502943"><ele>2101.0</ele><time>2026-04-12T10:59:29.912Z</time></trkpt><trkpt lat="46.4900874086867" lon="12.061163424266905"><ele>2097.0</ele><time>2026-04-12T10:59:30.912Z</time></trkpt><trkpt lat="46.4902036385949" lon="12.06130855161958"><ele>2097.0</ele><time>2026-04-12T10:59:31.912Z</time></trkpt><trkpt lat="46.49031545733314" lon="12.061438402145509"><ele>2097.0</ele><time>2026-04-12T10:59:32.912Z</time></trkpt><trkpt lat="46.490412021292606" lon="12.061547639308493"><ele>2097.0</ele><time>2026-04-12T10:59:33.912Z</time></trkpt><trkpt lat="46.4904970182223" lon="12.06163081979137"><ele>2097.0</ele><time>2026-04-12T10:59:34.912Z</time></trkpt><trkpt lat="46.49059584155265" lon="12.061683603299075"><ele>2095.5</ele><time>2026-04-12T10:59:35.912Z</time></trkpt><trkpt lat="46.49071000349326" lon="12.061714833196396"><ele>2094.0</ele><time>2026-04-12T10:59:36.912Z</time></trkpt><trkpt lat="46.49083232656831" lon="12.061712697198887"><ele>2092.5</ele><time>2026-04-12T10:59:37.912Z</time></trkpt><trkpt lat="46.49095844484183" lon="12.061683225822105"><ele>2091.0</ele><time>2026-04-12T10:59:38.912Z</time></trkpt><trkpt lat="46.49108740891968" lon="12.061656658033284"><ele>2091.0</ele><time>2026-04-12T10:59:39.912Z</time></trkpt><trkpt lat="46.49121771643156" lon="12.061652963731072"><ele>2091.0</ele><time>2026-04-12T10:59:40.912Z</time></trkpt><trkpt lat="46.491348786397914" lon="12.06168247010049"><ele>2091.0</ele><time>2026-04-12T10:59:41.912Z</time></trkpt><trkpt lat="46.49146601543546" lon="12.06172612437957"><ele>2091.0</ele><time>2026-04-12T10:59:42.912Z</time></trkpt><trkpt lat="46.491570772841534" lon="12.061752911780209"><ele>2089.8</ele><time>2026-04-12T10:59:43.912Z</time></trkpt><trkpt lat="46.49168395940219" lon="12.061764563991286"><ele>2088.6</ele><time>2026-04-12T10:59:44.912Z</time></trkpt><trkpt lat="46.49180034517311" lon="12.061739636624392"><ele>2087.4</ele><time>2026-04-12T10:59:45.912Z</time></trkpt><trkpt lat="46.491910470647845" lon="12.061697294833712"><ele>2086.2</ele><time>2026-04-12T10:59:46.912Z</time></trkpt><trkpt lat="46.49200464745242" lon="12.061642338031184"><ele>2085.0</ele><time>2026-04-12T10:59:47.912Z</time></trkpt><trkpt lat="46.49208865219312" lon="12.061581502256626"><ele>2085.8</ele><time>2026-04-12T10:59:48.912Z</time></trkpt><trkpt lat="46.49216453986133" lon="12.06151924065078"><ele>2086.6</ele><time>2026-04-12T10:59:49.912Z</time></trkpt><trkpt lat="46.492226485494506" lon="12.061481796391393"><ele>2087.4</ele><time>2026-04-12T10:59:50.912Z</time></trkpt><trkpt lat="46.492334714445256" lon="12.061538399945126"><ele>2088.2</ele><time>2026-04-12T10:59:52.912Z</time></trkpt><trkpt lat="46.49234288797444" lon="12.061712356463874"><ele>2089.0</ele><time>2026-04-12T10:59:54.912Z</time></trkpt><trkpt lat="46.49231473064725" lon="12.061805073300262"><ele>2088.2</ele><time>2026-04-12T10:59:55.912Z</time></trkpt><trkpt lat="46.4922255828213" lon="12.061849149213637"><ele>2087.4</ele><time>2026-04-12T10:59:56.912Z</time></trkpt><trkpt lat="46.492135008561426" lon="12.0619314170976"><ele>2086.6</ele><time>2026-04-12T10:59:57.912Z</time></trkpt><trkpt lat="46.49205811556151" lon="12.062049924505104"><ele>2085.8</ele><time>2026-04-12T10:59:58.913Z</time></trkpt><trkpt lat="46.49197433638235" lon="12.062179754013352"><ele>2085.0</ele><time>2026-04-12T10:59:59.912Z</time></trkpt><trkpt lat="46.49190282181092" lon="12.062316365910569"><ele>2085.0</ele><time>2026-04-12T11:00:00.912Z</time></trkpt><trkpt lat="46.49183578921972" lon="12.062446471511498"><ele>2085.0</ele><time>2026-04-12T11:00:01.913Z</time></trkpt><trkpt lat="46.491782003426685" lon="12.062571407118092"><ele>2085.0</ele><time>2026-04-12T11:00:02.913Z</time></trkpt><trkpt lat="46.491723656810315" lon="12.062672959163933"><ele>2085.0</ele><time>2026-04-12T11:00:03.913Z</time></trkpt><trkpt lat="46.491655527920564" lon="12.062770645742013"><ele>2085.0</ele><time>2026-04-12T11:00:04.913Z</time></trkpt><trkpt lat="46.49157374594085" lon="12.062847270506074"><ele>2083.0</ele><time>2026-04-12T11:00:05.913Z</time></trkpt><trkpt lat="46.4914815493216" lon="12.062845572207497"><ele>2081.0</ele><time>2026-04-12T11:00:06.913Z</time></trkpt><trkpt lat="46.491393858934984" lon="12.062851922700734"><ele>2079.0</ele><time>2026-04-12T11:00:07.913Z</time></trkpt><trkpt lat="46.491305367028914" lon="12.062822115220465"><ele>2077.0</ele><time>2026-04-12T11:00:08.913Z</time></trkpt><trkpt lat="46.4912165531791" lon="12.062797007905814"><ele>2075.0</ele><time>2026-04-12T11:00:09.913Z</time></trkpt><trkpt lat="46.49113996307013" lon="12.062765042043045"><ele>2073.0</ele><time>2026-04-12T11:00:10.913Z</time></trkpt><trkpt lat="46.491061063828354" lon="12.062770433324008"><ele>2073.0</ele><time>2026-04-12T11:00:11.913Z</time></trkpt><trkpt lat="46.49100815251199" lon="12.062838665206028"><ele>2073.0</ele><time>2026-04-12T11:00:12.913Z</time></trkpt><trkpt lat="46.49098806896233" lon="12.062944072565044"><ele>2073.0</ele><time>2026-04-12T11:00:13.913Z</time></trkpt><trkpt lat="46.49100857926064" lon="12.06305521242432"><ele>2073.0</ele><time>2026-04-12T11:00:14.913Z</time></trkpt><trkpt lat="46.49105833667222" lon="12.063141563588562"><ele>2073.0</ele><time>2026-04-12T11:00:15.913Z</time></trkpt><trkpt lat="46.491138285139634" lon="12.063188293522638"><ele>2073.0</ele><time>2026-04-12T11:00:16.913Z</time></trkpt><trkpt lat="46.49124599148816" lon="12.063210981160653"><ele>2072.0</ele><time>2026-04-12T11:00:17.913Z</time></trkpt><trkpt lat="46.49135686167899" lon="12.063217395597341"><ele>2071.0</ele><time>2026-04-12T11:00:18.913Z</time></trkpt><trkpt lat="46.49147273117728" lon="12.063234018195562"><ele>2070.0</ele><time>2026-04-12T11:00:19.913Z</time></trkpt><trkpt lat="46.49159435242004" lon="12.063257351810439"><ele>2069.0</ele><time>2026-04-12T11:00:20.913Z</time></trkpt><trkpt lat="46.491704647027326" lon="12.06327571717569"><ele>2065.833333333333</ele><time>2026-04-12T11:00:21.913Z</time></trkpt><trkpt lat="46.491800646152264" lon="12.063311732251849"><ele>2062.6666666666665</ele><time>2026-04-12T11:00:22.913Z</time></trkpt><trkpt lat="46.491892162491354" lon="12.063336118667122"><ele>2059.5</ele><time>2026-04-12T11:00:23.913Z</time></trkpt><trkpt lat="46.49195038253781" lon="12.063374852419035"><ele>2056.3333333333335</ele><time>2026-04-12T11:00:24.913Z</time></trkpt><trkpt lat="46.492002256988975" lon="12.063447042549184"><ele>2053.166666666667</ele><time>2026-04-12T11:00:25.913Z</time></trkpt><trkpt lat="46.49202474731022" lon="12.063532535629832"><ele>2050.0</ele><time>2026-04-12T11:00:26.913Z</time></trkpt><trkpt lat="46.49200579167818" lon="12.063632958932022"><ele>2050.0</ele><time>2026-04-12T11:00:27.913Z</time></trkpt><trkpt lat="46.49196639439247" lon="12.063729518575093"><ele>2050.0</ele><time>2026-04-12T11:00:28.913Z</time></trkpt><trkpt lat="46.49191512562484" lon="12.063814192001793"><ele>2050.0</ele><time>2026-04-12T11:00:29.913Z</time></trkpt><trkpt lat="46.491831252102855" lon="12.063852306664845"><ele>2050.0</ele><time>2026-04-12T11:00:30.913Z</time></trkpt><trkpt lat="46.491722813357796" lon="12.063815105488505"><ele>2050.0</ele><time>2026-04-12T11:00:31.913Z</time></trkpt><trkpt lat="46.49161552038238" lon="12.063815466208597"><ele>2050.0</ele><time>2026-04-12T11:00:32.913Z</time></trkpt><trkpt lat="46.49148487013158" lon="12.063813477279544"><ele>2050.0</ele><time>2026-04-12T11:00:33.913Z</time></trkpt><trkpt lat="46.491361052171634" lon="12.063786742049723"><ele>2050.0</ele><time>2026-04-12T11:00:34.913Z</time></trkpt><trkpt lat="46.49124251731417" lon="12.063747578270442"><ele>2050.0</ele><time>2026-04-12T11:00:35.913Z</time></trkpt><trkpt lat="46.49111933752773" lon="12.06371539800543"><ele>2048.5</ele><time>2026-04-12T11:00:36.913Z</time></trkpt><trkpt lat="46.49100218784182" lon="12.06368581263794"><ele>2047.0</ele><time>2026-04-12T11:00:37.913Z</time></trkpt><trkpt lat="46.490874484895386" lon="12.063655381401942"><ele>2045.5</ele><time>2026-04-12T11:00:38.913Z</time></trkpt><trkpt lat="46.49075029602837" lon="12.063632345161977"><ele>2044.0</ele><time>2026-04-12T11:00:39.913Z</time></trkpt><trkpt lat="46.49063004995866" lon="12.063608362645116"><ele>2044.0</ele><time>2026-04-12T11:00:40.913Z</time></trkpt><trkpt lat="46.49051938271293" lon="12.06360410584328"><ele>2044.0</ele><time>2026-04-12T11:00:41.913Z</time></trkpt><trkpt lat="46.490419282497406" lon="12.063638198539431"><ele>2044.0</ele><time>2026-04-12T11:00:42.913Z</time></trkpt><trkpt lat="46.49028126121441" lon="12.063662087602985"><ele>2044.0</ele><time>2026-04-12T11:00:43.913Z</time></trkpt><trkpt lat="46.49016494424326" lon="12.063689933237004"><ele>2043.25</ele><time>2026-04-12T11:00:44.913Z</time></trkpt><trkpt lat="46.49005240470675" lon="12.063731960860435"><ele>2042.5</ele><time>2026-04-12T11:00:45.913Z</time></trkpt><trkpt lat="46.48994103213163" lon="12.063768791743948"><ele>2041.75</ele><time>2026-04-12T11:00:46.913Z</time></trkpt><trkpt lat="46.48982775097604" lon="12.063811100546852"><ele>2041.0</ele><time>2026-04-12T11:00:47.913Z</time></trkpt><trkpt lat="46.48970962821092" lon="12.063849640638061"><ele>2038.25</ele><time>2026-04-12T11:00:48.913Z</time></trkpt><trkpt lat="46.48958748568154" lon="12.063872931835743"><ele>2035.5</ele><time>2026-04-12T11:00:49.913Z</time></trkpt><trkpt lat="46.48945841687817" lon="12.063881372864547"><ele>2032.75</ele><time>2026-04-12T11:00:50.913Z</time></trkpt><trkpt lat="46.48932004940608" lon="12.06389012195644"><ele>2030.0</ele><time>2026-04-12T11:00:51.913Z</time></trkpt><trkpt lat="46.48918329520924" lon="12.063892133177623"><ele>2030.0</ele><time>2026-04-12T11:00:52.913Z</time></trkpt><trkpt lat="46.48904350910962" lon="12.063896620595731"><ele>2030.0</ele><time>2026-04-12T11:00:53.913Z</time></trkpt><trkpt lat="46.488913036987064" lon="12.063900481507027"><ele>2030.0</ele><time>2026-04-12T11:00:54.913Z</time></trkpt><trkpt lat="46.48877531052125" lon="12.063908839044531"><ele>2030.0</ele><time>2026-04-12T11:00:55.913Z</time></trkpt><trkpt lat="46.488647493659464" lon="12.063908906272465"><ele>2029.3333333333333</ele><time>2026-04-12T11:00:56.913Z</time></trkpt><trkpt lat="46.48853500241726" lon="12.063915251235938"><ele>2028.6666666666665</ele><time>2026-04-12T11:00:57.913Z</time></trkpt><trkpt lat="46.48843488856466" lon="12.063915834612741"><ele>2028.0</ele><time>2026-04-12T11:00:58.913Z</time></trkpt><trkpt lat="46.48835363535545" lon="12.063921864533505"><ele>2027.3333333333335</ele><time>2026-04-12T11:00:59.913Z</time></trkpt><trkpt lat="46.48828089685595" lon="12.063922807792709"><ele>2026.6666666666667</ele><time>2026-04-12T11:01:00.913Z</time></trkpt><trkpt lat="46.48822165543895" lon="12.063964795869442"><ele>2026.0</ele><time>2026-04-12T11:01:01.913Z</time></trkpt><trkpt lat="46.48818517004636" lon="12.064046193894535"><ele>2022.6</ele><time>2026-04-12T11:01:02.913Z</time></trkpt><trkpt lat="46.488185336272124" lon="12.064161713170524"><ele>2019.1999999999998</ele><time>2026-04-12T11:01:03.913Z</time></trkpt><trkpt lat="46.48823210264107" lon="12.064277181594742"><ele>2015.8000000000002</ele><time>2026-04-12T11:01:04.913Z</time></trkpt><trkpt lat="46.4883095032032" lon="12.064381078685042"><ele>2012.4</ele><time>2026-04-12T11:01:05.913Z</time></trkpt><trkpt lat="46.48841606774433" lon="12.064472070239422"><ele>2009.0</ele><time>2026-04-12T11:01:06.913Z</time></trkpt><trkpt lat="46.4885662955147" lon="12.06462785774065"><ele>2009.0</ele><time>2026-04-12T11:01:07.913Z</time></trkpt><trkpt lat="46.488664573547865" lon="12.064756322437125"><ele>2009.0</ele><time>2026-04-12T11:01:08.913Z</time></trkpt><trkpt lat="46.48875183002157" lon="12.064888942534207"><ele>2009.0</ele><time>2026-04-12T11:01:09.913Z</time></trkpt><trkpt lat="46.48881272512043" lon="12.065048980267127"><ele>2009.0</ele><time>2026-04-12T11:01:10.913Z</time></trkpt><trkpt lat="46.48885703232331" lon="12.065222171885251"><ele>2007.75</ele><time>2026-04-12T11:01:11.913Z</time></trkpt><trkpt lat="46.48889853617493" lon="12.06540782255111"><ele>2006.5</ele><time>2026-04-12T11:01:12.913Z</time></trkpt><trkpt lat="46.48894899361961" lon="12.065581378865186"><ele>2005.25</ele><time>2026-04-12T11:01:13.913Z</time></trkpt><trkpt lat="46.48901647044357" lon="12.065746540733375"><ele>2004.0</ele><time>2026-04-12T11:01:14.913Z</time></trkpt><trkpt lat="46.489106690326594" lon="12.065905758031967"><ele>2001.0</ele><time>2026-04-12T11:01:15.913Z</time></trkpt><trkpt lat="46.48920656518665" lon="12.066044096992934"><ele>1998.0</ele><time>2026-04-12T11:01:16.913Z</time></trkpt><trkpt lat="46.489296616443134" lon="12.066200247639408"><ele>1995.0</ele><time>2026-04-12T11:01:17.913Z</time></trkpt><trkpt lat="46.4893943003025" lon="12.06631014946108"><ele>1992.0</ele><time>2026-04-12T11:01:18.913Z</time></trkpt><trkpt lat="46.48947529457877" lon="12.06641837228123"><ele>1992.0</ele><time>2026-04-12T11:01:19.913Z</time></trkpt><trkpt lat="46.48955311030571" lon="12.066487534891547"><ele>1992.0</ele><time>2026-04-12T11:01:20.913Z</time></trkpt><trkpt lat="46.4896269983194" lon="12.066537583896146"><ele>1992.0</ele><time>2026-04-12T11:01:21.913Z</time></trkpt><trkpt lat="46.4896884951195" lon="12.066574460213042"><ele>1992.0</ele><time>2026-04-12T11:01:22.913Z</time></trkpt><trkpt lat="46.489738425907866" lon="12.066729209987676"><ele>1992.0</ele><time>2026-04-12T11:01:24.913Z</time></trkpt><trkpt lat="46.48970725260064" lon="12.066816339511442"><ele>1992.0</ele><time>2026-04-12T11:01:25.913Z</time></trkpt><trkpt lat="46.48963432921768" lon="12.066878387894919"><ele>1988.0</ele><time>2026-04-12T11:01:26.913Z</time></trkpt><trkpt lat="46.489529226018284" lon="12.06686983154944"><ele>1983.9999999999998</ele><time>2026-04-12T11:01:27.913Z</time></trkpt><trkpt lat="46.48944884986853" lon="12.066831344692158"><ele>1979.9999999999998</ele><time>2026-04-12T11:01:28.913Z</time></trkpt><trkpt lat="46.4893425524496" lon="12.066842064869139"><ele>1976.0</ele><time>2026-04-12T11:01:29.913Z</time></trkpt><trkpt lat="46.489237037629785" lon="12.066826654896229"><ele>1972.0</ele><time>2026-04-12T11:01:30.913Z</time></trkpt><trkpt lat="46.489121779933214" lon="12.066817905672686"><ele>1972.0</ele><time>2026-04-12T11:01:31.913Z</time></trkpt><trkpt lat="46.48900388608807" lon="12.066804908462068"><ele>1971.9999999999998</ele><time>2026-04-12T11:01:32.913Z</time></trkpt><trkpt lat="46.48890149659235" lon="12.066792996050356"><ele>1971.9999999999998</ele><time>2026-04-12T11:01:33.913Z</time></trkpt><trkpt lat="46.48881648548742" lon="12.066781364214911"><ele>1972.0</ele><time>2026-04-12T11:01:34.913Z</time></trkpt><trkpt lat="46.4887412843585" lon="12.066776785028495"><ele>1972.0</ele><time>2026-04-12T11:01:35.913Z</time></trkpt><trkpt lat="46.488640358821584" lon="12.066887474186364"><ele>1972.0</ele><time>2026-04-12T11:01:37.913Z</time></trkpt><trkpt lat="46.48863909037866" lon="12.067010683612752"><ele>1971.9999999999998</ele><time>2026-04-12T11:01:38.913Z</time></trkpt><trkpt lat="46.488690416500816" lon="12.067130359659862"><ele>1971.9999999999998</ele><time>2026-04-12T11:01:39.913Z</time></trkpt><trkpt lat="46.488760299754055" lon="12.067213502478294"><ele>1972.0</ele><time>2026-04-12T11:01:40.913Z</time></trkpt><trkpt lat="46.488880163756384" lon="12.067228917620785"><ele>1972.0</ele><time>2026-04-12T11:01:41.913Z</time></trkpt><trkpt lat="46.48899309467843" lon="12.067271068989516"><ele>1972.0</ele><time>2026-04-12T11:01:42.913Z</time></trkpt><trkpt lat="46.48911288810795" lon="12.067323572769979"><ele>1972.0</ele><time>2026-04-12T11:01:43.913Z</time></trkpt><trkpt lat="46.489235724746145" lon="12.067392712286226"><ele>1972.0</ele><time>2026-04-12T11:01:44.913Z</time></trkpt><trkpt lat="46.48936215602078" lon="12.067502535746359"><ele>1972.0</ele><time>2026-04-12T11:01:45.913Z</time></trkpt><trkpt lat="46.48948564988336" lon="12.067599188213212"><ele>1971.0</ele><time>2026-04-12T11:01:46.913Z</time></trkpt><trkpt lat="46.48960518627737" lon="12.067685061370334"><ele>1970.0</ele><time>2026-04-12T11:01:47.913Z</time></trkpt><trkpt lat="46.48970892478128" lon="12.067769638290534"><ele>1969.0</ele><time>2026-04-12T11:01:48.913Z</time></trkpt><trkpt lat="46.48981224484565" lon="12.067856290337298"><ele>1968.0</ele><time>2026-04-12T11:01:49.913Z</time></trkpt><trkpt lat="46.48990066384413" lon="12.06795214183143"><ele>1968.0</ele><time>2026-04-12T11:01:50.913Z</time></trkpt><trkpt lat="46.48997351736653" lon="12.068073222342532"><ele>1968.0</ele><time>2026-04-12T11:01:51.913Z</time></trkpt><trkpt lat="46.490022297898" lon="12.068223743431766"><ele>1968.0</ele><time>2026-04-12T11:01:52.913Z</time></trkpt><trkpt lat="46.49009273872352" lon="12.068365495805079"><ele>1968.0</ele><time>2026-04-12T11:01:53.913Z</time></trkpt><trkpt lat="46.49014657394266" lon="12.068537731666058"><ele>1966.0</ele><time>2026-04-12T11:01:54.913Z</time></trkpt><trkpt lat="46.49018785407156" lon="12.068686084555178"><ele>1964.0000000000002</ele><time>2026-04-12T11:01:55.913Z</time></trkpt><trkpt lat="46.490194445351136" lon="12.068836751128774"><ele>1962.0000000000002</ele><time>2026-04-12T11:01:56.913Z</time></trkpt><trkpt lat="46.49022412740726" lon="12.068963336256537"><ele>1960.0</ele><time>2026-04-12T11:01:57.913Z</time></trkpt><trkpt lat="46.490245361550215" lon="12.069076487197226"><ele>1958.0</ele><time>2026-04-12T11:01:58.913Z</time></trkpt><trkpt lat="46.49027440619474" lon="12.069177983480717"><ele>1956.0</ele><time>2026-04-12T11:01:59.913Z</time></trkpt><trkpt lat="46.490330733315645" lon="12.06928034583524"><ele>1954.0000000000002</ele><time>2026-04-12T11:02:00.913Z</time></trkpt><trkpt lat="46.49040941792262" lon="12.069366584342124"><ele>1952.0000000000002</ele><time>2026-04-12T11:02:01.914Z</time></trkpt><trkpt lat="46.490484198013874" lon="12.069460697447916"><ele>1950.0</ele><time>2026-04-12T11:02:02.914Z</time></trkpt><trkpt lat="46.49054218687555" lon="12.069584350480016"><ele>1948.0</ele><time>2026-04-12T11:02:03.914Z</time></trkpt><trkpt lat="46.49056664024239" lon="12.069733747791517"><ele>1948.0</ele><time>2026-04-12T11:02:04.914Z</time></trkpt><trkpt lat="46.49061050863449" lon="12.069884294422295"><ele>1948.0000000000002</ele><time>2026-04-12T11:02:05.914Z</time></trkpt><trkpt lat="46.49063664710258" lon="12.070040586879816"><ele>1948.0000000000002</ele><time>2026-04-12T11:02:06.914Z</time></trkpt><trkpt lat="46.49064887915514" lon="12.07018201485668"><ele>1948.0</ele><time>2026-04-12T11:02:07.914Z</time></trkpt><trkpt lat="46.4906740917212" lon="12.0703046273864"><ele>1948.0</ele><time>2026-04-12T11:02:08.914Z</time></trkpt><trkpt lat="46.490716012406374" lon="12.07040639282184"><ele>1945.8000000000002</ele><time>2026-04-12T11:02:09.914Z</time></trkpt><trkpt lat="46.49078566542202" lon="12.070468218662581"><ele>1943.6000000000001</ele><time>2026-04-12T11:02:10.914Z</time></trkpt><trkpt lat="46.49087774469796" lon="12.070476351490868"><ele>1941.3999999999999</ele><time>2026-04-12T11:02:11.914Z</time></trkpt><trkpt lat="46.490981661266346" lon="12.070444625246093"><ele>1939.1999999999998</ele><time>2026-04-12T11:02:12.914Z</time></trkpt><trkpt lat="46.491098566759746" lon="12.070383478915936"><ele>1937.0</ele><time>2026-04-12T11:02:13.914Z</time></trkpt><trkpt lat="46.491203668762225" lon="12.070373788148702"><ele>1935.0</ele><time>2026-04-12T11:02:14.914Z</time></trkpt><trkpt lat="46.49131161192734" lon="12.070398952824094"><ele>1933.0</ele><time>2026-04-12T11:02:15.914Z</time></trkpt><trkpt lat="46.49140984974757" lon="12.070471964751098"><ele>1931.0</ele><time>2026-04-12T11:02:16.914Z</time></trkpt><trkpt lat="46.491507713075315" lon="12.07058371307502"><ele>1929.0</ele><time>2026-04-12T11:02:17.914Z</time></trkpt><trkpt lat="46.49159668480807" lon="12.070725875516532"><ele>1927.0</ele><time>2026-04-12T11:02:18.914Z</time></trkpt><trkpt lat="46.491682712283634" lon="12.070854473980624"><ele>1925.0</ele><time>2026-04-12T11:02:19.914Z</time></trkpt><trkpt lat="46.49177394472331" lon="12.07097516286595"><ele>1923.0</ele><time>2026-04-12T11:02:20.914Z</time></trkpt><trkpt lat="46.49187168967246" lon="12.071095887829028"><ele>1921.0</ele><time>2026-04-12T11:02:21.914Z</time></trkpt><trkpt lat="46.4919604486932" lon="12.071226423133568"><ele>1921.0</ele><time>2026-04-12T11:02:22.914Z</time></trkpt><trkpt lat="46.49202801544294" lon="12.07138978887411"><ele>1921.0</ele><time>2026-04-12T11:02:23.914Z</time></trkpt><trkpt lat="46.492094253973605" lon="12.071524814440407"><ele>1921.0</ele><time>2026-04-12T11:02:24.914Z</time></trkpt><trkpt lat="46.492172975599324" lon="12.071619473604091"><ele>1921.0</ele><time>2026-04-12T11:02:25.914Z</time></trkpt><trkpt lat="46.49226941502219" lon="12.071719866498162"><ele>1919.8</ele><time>2026-04-12T11:02:26.914Z</time></trkpt><trkpt lat="46.492376193481384" lon="12.071790808204042"><ele>1918.6</ele><time>2026-04-12T11:02:27.914Z</time></trkpt><trkpt lat="46.4924871034752" lon="12.071859148483865"><ele>1917.4</ele><time>2026-04-12T11:02:28.914Z</time></trkpt><trkpt lat="46.492584840997324" lon="12.071920389440411"><ele>1916.2</ele><time>2026-04-12T11:02:29.914Z</time></trkpt><trkpt lat="46.492666298940456" lon="12.071973423249384"><ele>1915.0</ele><time>2026-04-12T11:02:30.914Z</time></trkpt><trkpt lat="46.49272754924935" lon="12.072009213382955"><ele>1915.0000000000002</ele><time>2026-04-12T11:02:31.914Z</time></trkpt><trkpt lat="46.49275369719547" lon="12.072162322330616"><ele>1915.0</ele><time>2026-04-12T11:02:33.914Z</time></trkpt><trkpt lat="46.49271346792456" lon="12.07225206300593"><ele>1915.0</ele><time>2026-04-12T11:02:34.914Z</time></trkpt><trkpt lat="46.492641949930245" lon="12.0722973943255"><ele>1915.0</ele><time>2026-04-12T11:02:35.914Z</time></trkpt><trkpt lat="46.4925735757803" lon="12.072277411962466"><ele>1915.0000000000002</ele><time>2026-04-12T11:02:36.914Z</time></trkpt><trkpt lat="46.49250550194452" lon="12.072210465649821"><ele>1915.0</ele><time>2026-04-12T11:02:37.914Z</time></trkpt><trkpt lat="46.4924312774527" lon="12.072125764355354"><ele>1915.0000000000002</ele><time>2026-04-12T11:02:38.914Z</time></trkpt><trkpt lat="46.49234822377231" lon="12.072053639270186"><ele>1915.0</ele><time>2026-04-12T11:02:39.914Z</time></trkpt><trkpt lat="46.49227654404581" lon="12.071980664430736"><ele>1915.0</ele><time>2026-04-12T11:02:40.914Z</time></trkpt><trkpt lat="46.49220354086421" lon="12.07194387585527"><ele>1915.0</ele><time>2026-04-12T11:02:41.914Z</time></trkpt><trkpt lat="46.49212882951041" lon="12.071965805453672"><ele>1915.0000000000002</ele><time>2026-04-12T11:02:42.914Z</time></trkpt><trkpt lat="46.4920766270012" lon="12.072040786737045"><ele>1915.0</ele><time>2026-04-12T11:02:43.914Z</time></trkpt><trkpt lat="46.49206597314598" lon="12.072157065179127"><ele>1915.0</ele><time>2026-04-12T11:02:44.914Z</time></trkpt><trkpt lat="46.49207734544381" lon="12.072293900473873"><ele>1915.0</ele><time>2026-04-12T11:02:45.914Z</time></trkpt><trkpt lat="46.492161702857665" lon="12.072429712458174"><ele>1915.0</ele><time>2026-04-12T11:02:46.914Z</time></trkpt><trkpt lat="46.49223503725256" lon="12.072579976645086"><ele>1915.0</ele><time>2026-04-12T11:02:47.914Z</time></trkpt><trkpt lat="46.492315133624" lon="12.072730777886294"><ele>1911.4</ele><time>2026-04-12T11:02:48.914Z</time></trkpt><trkpt lat="46.49237647076436" lon="12.072856409408487"><ele>1907.8</ele><time>2026-04-12T11:02:49.914Z</time></trkpt><trkpt lat="46.49243122677622" lon="12.072951156117242"><ele>1904.1999999999998</ele><time>2026-04-12T11:02:50.914Z</time></trkpt><trkpt lat="46.492517762390314" lon="12.073015537459645"><ele>1900.6</ele><time>2026-04-12T11:02:51.914Z</time></trkpt><trkpt lat="46.49262729252546" lon="12.073019677250901"><ele>1897.0</ele><time>2026-04-12T11:02:52.914Z</time></trkpt><trkpt lat="46.49273838734665" lon="12.072973777584307"><ele>1897.0</ele><time>2026-04-12T11:02:53.914Z</time></trkpt><trkpt lat="46.49284004532074" lon="12.072914783985926"><ele>1896.9999999999998</ele><time>2026-04-12T11:02:54.914Z</time></trkpt><trkpt lat="46.4929312088477" lon="12.072965377096482"><ele>1896.9999999999998</ele><time>2026-04-12T11:02:55.914Z</time></trkpt><trkpt lat="46.49302196103493" lon="12.073018665334457"><ele>1897.0</ele><time>2026-04-12T11:02:56.914Z</time></trkpt><trkpt lat="46.493111628201554" lon="12.073073733273658"><ele>1897.0</ele><time>2026-04-12T11:02:57.914Z</time></trkpt><trkpt lat="46.4931853065344" lon="12.073117667122713"><ele>1897.6</ele><time>2026-04-12T11:02:58.914Z</time></trkpt><trkpt lat="46.49324675477666" lon="12.073165174018982"><ele>1898.1999999999998</ele><time>2026-04-12T11:02:59.914Z</time></trkpt><trkpt lat="46.493289677885365" lon="12.073300304921611"><ele>1898.8</ele><time>2026-04-12T11:03:01.914Z</time></trkpt><trkpt lat="46.49319261012284" lon="12.073431952065478"><ele>1899.4</ele><time>2026-04-12T11:03:03.914Z</time></trkpt><trkpt lat="46.49312125851714" lon="12.07345549970684"><ele>1900.0</ele><time>2026-04-12T11:03:04.914Z</time></trkpt><trkpt lat="46.49303955500226" lon="12.073454098110565"><ele>1897.5000000000002</ele><time>2026-04-12T11:03:05.914Z</time></trkpt><trkpt lat="46.49295788452989" lon="12.073447784947911"><ele>1895.0</ele><time>2026-04-12T11:03:06.914Z</time></trkpt><trkpt lat="46.49289605044644" lon="12.073491155251112"><ele>1892.5</ele><time>2026-04-12T11:03:07.914Z</time></trkpt><trkpt lat="46.49286126846839" lon="12.073587175406034"><ele>1890.0</ele><time>2026-04-12T11:03:08.914Z</time></trkpt><trkpt lat="46.492862874793126" lon="12.073693747874474"><ele>1887.5000000000002</ele><time>2026-04-12T11:03:09.914Z</time></trkpt><trkpt lat="46.492906023501426" lon="12.073788739231079"><ele>1885.0</ele><time>2026-04-12T11:03:10.914Z</time></trkpt><trkpt lat="46.49298139593485" lon="12.073862958430365"><ele>1885.0</ele><time>2026-04-12T11:03:11.914Z</time></trkpt><trkpt lat="46.49308817186382" lon="12.073905070935657"><ele>1885.0</ele><time>2026-04-12T11:03:12.914Z</time></trkpt><trkpt lat="46.493182439541364" lon="12.073931105399767"><ele>1885.0</ele><time>2026-04-12T11:03:13.914Z</time></trkpt><trkpt lat="46.49327653666484" lon="12.073989705796762"><ele>1885.0</ele><time>2026-04-12T11:03:14.914Z</time></trkpt><trkpt lat="46.493371598974434" lon="12.074035882439201"><ele>1885.0</ele><time>2026-04-12T11:03:15.914Z</time></trkpt><trkpt lat="46.49347184608991" lon="12.074068491418487"><ele>1883.2</ele><time>2026-04-12T11:03:16.914Z</time></trkpt><trkpt lat="46.49356620681954" lon="12.074173145419895"><ele>1881.4</ele><time>2026-04-12T11:03:17.914Z</time></trkpt><trkpt lat="46.49362109290278" lon="12.07425581805053"><ele>1879.6</ele><time>2026-04-12T11:03:18.914Z</time></trkpt><trkpt lat="46.49368873861092" lon="12.074377650049136"><ele>1877.8</ele><time>2026-04-12T11:03:19.914Z</time></trkpt><trkpt lat="46.4937564621049" lon="12.074501027966079"><ele>1876.0</ele><time>2026-04-12T11:03:20.914Z</time></trkpt><trkpt lat="46.493836352929165" lon="12.074613748136755"><ele>1876.0</ele><time>2026-04-12T11:03:21.914Z</time></trkpt><trkpt lat="46.49390491527841" lon="12.074738210414885"><ele>1876.0</ele><time>2026-04-12T11:03:22.914Z</time></trkpt><trkpt lat="46.49397527999152" lon="12.074856277839908"><ele>1876.0</ele><time>2026-04-12T11:03:23.914Z</time></trkpt><trkpt lat="46.494031525391726" lon="12.074995484140205"><ele>1876.0</ele><time>2026-04-12T11:03:24.914Z</time></trkpt><trkpt lat="46.4941021815393" lon="12.07512267992333"><ele>1876.0</ele><time>2026-04-12T11:03:25.914Z</time></trkpt><trkpt lat="46.49418372101124" lon="12.075235199092006"><ele>1873.1999999999998</ele><time>2026-04-12T11:03:26.914Z</time></trkpt><trkpt lat="46.494247141895734" lon="12.0753581094242"><ele>1870.3999999999999</ele><time>2026-04-12T11:03:27.914Z</time></trkpt><trkpt lat="46.49431386959811" lon="12.075477821607002"><ele>1867.6</ele><time>2026-04-12T11:03:28.914Z</time></trkpt><trkpt lat="46.49437896644723" lon="12.075576783645893"><ele>1864.8</ele><time>2026-04-12T11:03:29.914Z</time></trkpt><trkpt lat="46.49445351330467" lon="12.075645574040731"><ele>1862.0</ele><time>2026-04-12T11:03:30.914Z</time></trkpt><trkpt lat="46.49453095902233" lon="12.075693951392655"><ele>1861.9999999999998</ele><time>2026-04-12T11:03:31.914Z</time></trkpt><trkpt lat="46.49462455176905" lon="12.07569934231327"><ele>1862.0</ele><time>2026-04-12T11:03:32.914Z</time></trkpt><trkpt lat="46.49470450838893" lon="12.075695056769659"><ele>1862.0</ele><time>2026-04-12T11:03:33.914Z</time></trkpt><trkpt lat="46.49478838004661" lon="12.075661024303374"><ele>1862.0</ele><time>2026-04-12T11:03:34.914Z</time></trkpt><trkpt lat="46.49487743482831" lon="12.07561448051905"><ele>1861.9999999999998</ele><time>2026-04-12T11:03:35.914Z</time></trkpt><trkpt lat="46.494959818180476" lon="12.075560843153802"><ele>1862.0</ele><time>2026-04-12T11:03:36.914Z</time></trkpt><trkpt lat="46.495043437156596" lon="12.075492126886253"><ele>1861.9999999999998</ele><time>2026-04-12T11:03:37.914Z</time></trkpt><trkpt lat="46.49512813005817" lon="12.075452492819181"><ele>1862.0</ele><time>2026-04-12T11:03:38.914Z</time></trkpt><trkpt lat="46.49520369156064" lon="12.075412903265715"><ele>1862.0</ele><time>2026-04-12T11:03:39.914Z</time></trkpt><trkpt lat="46.495278312936215" lon="12.075383933893018"><ele>1862.0</ele><time>2026-04-12T11:03:40.914Z</time></trkpt><trkpt lat="46.49537438572593" lon="12.075366409073785"><ele>1861.9999999999998</ele><time>2026-04-12T11:03:42.914Z</time></trkpt><trkpt lat="46.49541797486012" lon="12.075440364409795"><ele>1862.0</ele><time>2026-04-12T11:03:43.914Z</time></trkpt><trkpt lat="46.49542277001949" lon="12.075542488347693"><ele>1861.9999999999998</ele><time>2026-04-12T11:03:44.914Z</time></trkpt><trkpt lat="46.49539504662997" lon="12.075627835031385"><ele>1862.0</ele><time>2026-04-12T11:03:45.914Z</time></trkpt><trkpt lat="46.49531862802924" lon="12.075652964340584"><ele>1862.0</ele><time>2026-04-12T11:03:46.914Z</time></trkpt><trkpt lat="46.49524108645699" lon="12.07566051236401"><ele>1862.0</ele><time>2026-04-12T11:03:47.914Z</time></trkpt><trkpt lat="46.49516096074772" lon="12.075660639355114"><ele>1861.9999999999998</ele><time>2026-04-12T11:03:48.914Z</time></trkpt><trkpt lat="46.49508812051132" lon="12.075786889599765"><ele>1862.0</ele><time>2026-04-12T11:03:50.914Z</time></trkpt><trkpt lat="46.49509265582788" lon="12.075885090818257"><ele>1858.8333333333333</ele><time>2026-04-12T11:03:51.914Z</time></trkpt><trkpt lat="46.49512781622584" lon="12.07597493069609"><ele>1855.6666666666665</ele><time>2026-04-12T11:03:52.914Z</time></trkpt><trkpt lat="46.49518431070918" lon="12.076055221613922"><ele>1852.5</ele><time>2026-04-12T11:03:53.914Z</time></trkpt><trkpt lat="46.49528693238606" lon="12.076052816680305"><ele>1849.3333333333335</ele><time>2026-04-12T11:03:54.914Z</time></trkpt><trkpt lat="46.49536665873781" lon="12.076053450304947"><ele>1846.1666666666667</ele><time>2026-04-12T11:03:55.914Z</time></trkpt><trkpt lat="46.49543501700326" lon="12.076062910311386"><ele>1843.0</ele><time>2026-04-12T11:03:56.914Z</time></trkpt><trkpt lat="46.49553221308052" lon="12.076054854375508"><ele>1840.8000000000002</ele><time>2026-04-12T11:03:57.914Z</time></trkpt><trkpt lat="46.49563124590501" lon="12.076101018100035"><ele>1838.6000000000001</ele><time>2026-04-12T11:03:58.914Z</time></trkpt><trkpt lat="46.495713144774335" lon="12.076149448391277"><ele>1836.3999999999999</ele><time>2026-04-12T11:03:59.914Z</time></trkpt><trkpt lat="46.49577987600733" lon="12.076198367585475"><ele>1834.1999999999998</ele><time>2026-04-12T11:04:00.914Z</time></trkpt><trkpt lat="46.4958935333998" lon="12.076219758966046"><ele>1832.0</ele><time>2026-04-12T11:04:02.914Z</time></trkpt><trkpt lat="46.496023909474104" lon="12.076163514361923"><ele>1831.9999999999998</ele><time>2026-04-12T11:04:04.914Z</time></trkpt><trkpt lat="46.496059037618245" lon="12.076035310527326"><ele>1832.0</ele><time>2026-04-12T11:04:05.914Z</time></trkpt><trkpt lat="46.49605390572007" lon="12.075879355918781"><ele>1832.0</ele><time>2026-04-12T11:04:06.914Z</time></trkpt><trkpt lat="46.496044657923385" lon="12.075746316727114"><ele>1832.0</ele><time>2026-04-12T11:04:07.915Z</time></trkpt><trkpt lat="46.496026388643536" lon="12.075628628069019"><ele>1831.9999999999998</ele><time>2026-04-12T11:04:08.915Z</time></trkpt><trkpt lat="46.49603391645565" lon="12.075533590523124"><ele>1832.0</ele><time>2026-04-12T11:04:09.915Z</time></trkpt><trkpt lat="46.49610585366352" lon="12.075424060292507"><ele>1832.6</ele><time>2026-04-12T11:04:11.915Z</time></trkpt><trkpt lat="46.49617911130566" lon="12.075428375188011"><ele>1833.1999999999998</ele><time>2026-04-12T11:04:12.915Z</time></trkpt><trkpt lat="46.49626194091436" lon="12.07544064734887"><ele>1833.8</ele><time>2026-04-12T11:04:13.915Z</time></trkpt><trkpt lat="46.49635989568297" lon="12.075555865421888"><ele>1834.4</ele><time>2026-04-12T11:04:14.915Z</time></trkpt><trkpt lat="46.496450346845535" lon="12.075600575365359"><ele>1835.0</ele><time>2026-04-12T11:04:15.915Z</time></trkpt><trkpt lat="46.49655117049432" lon="12.075672266662849"><ele>1835.0</ele><time>2026-04-12T11:04:16.915Z</time></trkpt><trkpt lat="46.49666943970389" lon="12.075740388715069"><ele>1835.0</ele><time>2026-04-12T11:04:17.915Z</time></trkpt><trkpt lat="46.49678462355901" lon="12.075810311534319"><ele>1835.0</ele><time>2026-04-12T11:04:18.915Z</time></trkpt><trkpt lat="46.496895076064845" lon="12.075879314132052"><ele>1835.0</ele><time>2026-04-12T11:04:19.915Z</time></trkpt><trkpt lat="46.497002342207345" lon="12.075942450173741"><ele>1830.4</ele><time>2026-04-12T11:04:20.915Z</time></trkpt><trkpt lat="46.497110695559115" lon="12.076010774029726"><ele>1825.8</ele><time>2026-04-12T11:04:21.915Z</time></trkpt><trkpt lat="46.49721662137459" lon="12.076070841531575"><ele>1821.1999999999998</ele><time>2026-04-12T11:04:22.915Z</time></trkpt><trkpt lat="46.497308760797424" lon="12.076097802806162"><ele>1816.6</ele><time>2026-04-12T11:04:23.915Z</time></trkpt><trkpt lat="46.497417142948684" lon="12.076109952622929"><ele>1812.0</ele><time>2026-04-12T11:04:24.915Z</time></trkpt><trkpt lat="46.497525717041455" lon="12.07610774714235"><ele>1812.0</ele><time>2026-04-12T11:04:25.915Z</time></trkpt><trkpt lat="46.49763827562477" lon="12.076073098062752"><ele>1812.0</ele><time>2026-04-12T11:04:26.915Z</time></trkpt><trkpt lat="46.49776315365928" lon="12.076013606811808"><ele>1812.0</ele><time>2026-04-12T11:04:27.915Z</time></trkpt><trkpt lat="46.49787114237535" lon="12.075973272496267"><ele>1812.0</ele><time>2026-04-12T11:04:28.915Z</time></trkpt><trkpt lat="46.49796421078941" lon="12.075942203522667"><ele>1810.5</ele><time>2026-04-12T11:04:29.915Z</time></trkpt><trkpt lat="46.49806156733835" lon="12.075903847458502"><ele>1809.0</ele><time>2026-04-12T11:04:30.915Z</time></trkpt><trkpt lat="46.498217844285335" lon="12.075814092870516"><ele>1807.5</ele><time>2026-04-12T11:04:31.915Z</time></trkpt><trkpt lat="46.498354958651916" lon="12.075781036682187"><ele>1806.0</ele><time>2026-04-12T11:04:32.915Z</time></trkpt><trkpt lat="46.49849759368728" lon="12.075755097170928"><ele>1810.3333333333335</ele><time>2026-04-12T11:04:33.915Z</time></trkpt><trkpt lat="46.49864428741686" lon="12.075749225236326"><ele>1814.6666666666667</ele><time>2026-04-12T11:04:34.915Z</time></trkpt><trkpt lat="46.498793887918296" lon="12.075719926278104"><ele>1819.0</ele><time>2026-04-12T11:04:35.915Z</time></trkpt><trkpt lat="46.498949596969446" lon="12.075700337681972"><ele>1819.0</ele><time>2026-04-12T11:04:36.915Z</time></trkpt><trkpt lat="46.499098703945776" lon="12.07567962520109"><ele>1819.0</ele><time>2026-04-12T11:04:37.915Z</time></trkpt><trkpt lat="46.49923100735002" lon="12.075672378154643"><ele>1819.0</ele><time>2026-04-12T11:04:38.915Z</time></trkpt><trkpt lat="46.499390120737104" lon="12.075650129854273"><ele>1819.0</ele><time>2026-04-12T11:04:39.915Z</time></trkpt><trkpt lat="46.49954493146123" lon="12.075625471181812"><ele>1814.3333333333335</ele><time>2026-04-12T11:04:40.915Z</time></trkpt><trkpt lat="46.49970295801519" lon="12.075611882256695"><ele>1809.6666666666665</ele><time>2026-04-12T11:04:41.915Z</time></trkpt><trkpt lat="46.499864127088166" lon="12.07560423446141"><ele>1805.0</ele><time>2026-04-12T11:04:42.915Z</time></trkpt><trkpt lat="46.50003915683316" lon="12.075578608459004"><ele>1805.0</ele><time>2026-04-12T11:04:43.915Z</time></trkpt><trkpt lat="46.500192889589385" lon="12.075574237167018"><ele>1805.0</ele><time>2026-04-12T11:04:44.915Z</time></trkpt><trkpt lat="46.50033937278304" lon="12.075573621070218"><ele>1805.0</ele><time>2026-04-12T11:04:45.915Z</time></trkpt><trkpt lat="46.5005002950992" lon="12.075579767000933"><ele>1802.0</ele><time>2026-04-12T11:04:46.915Z</time></trkpt><trkpt lat="46.50067083925837" lon="12.07558372289637"><ele>1799.0</ele><time>2026-04-12T11:04:47.915Z</time></trkpt><trkpt lat="46.500822416806486" lon="12.07559684216384"><ele>1796.0</ele><time>2026-04-12T11:04:48.915Z</time></trkpt><trkpt lat="46.50093972537039" lon="12.07562669780261"><ele>1793.0</ele><time>2026-04-12T11:04:49.915Z</time></trkpt><trkpt lat="46.5010654669718" lon="12.075588249870915"><ele>1793.0</ele><time>2026-04-12T11:04:50.915Z</time></trkpt><trkpt lat="46.50117616256889" lon="12.07553858676927"><ele>1793.0000000000002</ele><time>2026-04-12T11:04:51.915Z</time></trkpt><trkpt lat="46.50126965624047" lon="12.075474613571602"><ele>1793.0000000000002</ele><time>2026-04-12T11:04:52.915Z</time></trkpt><trkpt lat="46.50134887624414" lon="12.075402808450946"><ele>1793.0</ele><time>2026-04-12T11:04:53.915Z</time></trkpt><trkpt lat="46.501422743332284" lon="12.075289732974646"><ele>1793.0</ele><time>2026-04-12T11:04:54.915Z</time></trkpt><trkpt lat="46.501511467867644" lon="12.075184577667823"><ele>1789.8000000000002</ele><time>2026-04-12T11:04:55.915Z</time></trkpt><trkpt lat="46.50161626914623" lon="12.07512773881259"><ele>1786.6000000000001</ele><time>2026-04-12T11:04:56.915Z</time></trkpt><trkpt lat="46.50172031151528" lon="12.075142362921609"><ele>1783.3999999999999</ele><time>2026-04-12T11:04:57.915Z</time></trkpt><trkpt lat="46.5018139174062" lon="12.075110421739929"><ele>1780.1999999999998</ele><time>2026-04-12T11:04:58.915Z</time></trkpt><trkpt lat="46.501896729118066" lon="12.075100799922339"><ele>1777.0</ele><time>2026-04-12T11:04:59.915Z</time></trkpt><trkpt lat="46.5020046223622" lon="12.07517826436912"><ele>1777.0000000000002</ele><time>2026-04-12T11:05:01.915Z</time></trkpt><trkpt lat="46.502029921127104" lon="12.075270375502077"><ele>1777.0</ele><time>2026-04-12T11:05:02.915Z</time></trkpt><trkpt lat="46.50200511095846" lon="12.075365873554162"><ele>1777.0</ele><time>2026-04-12T11:05:03.915Z</time></trkpt><trkpt lat="46.50193952890136" lon="12.075420532226726"><ele>1777.0</ele><time>2026-04-12T11:05:04.915Z</time></trkpt><trkpt lat="46.50188131002074" lon="12.075476032690137"><ele>1777.0000000000002</ele><time>2026-04-12T11:05:05.915Z</time></trkpt><trkpt lat="46.50179590409886" lon="12.075427397758215"><ele>1777.0</ele><time>2026-04-12T11:05:06.915Z</time></trkpt><trkpt lat="46.501711447538206" lon="12.07542161390436"><ele>1777.0</ele><time>2026-04-12T11:05:07.915Z</time></trkpt><trkpt lat="46.501640821924305" lon="12.075437007372038"><ele>1777.0</ele><time>2026-04-12T11:05:08.915Z</time></trkpt><trkpt lat="46.50157827672771" lon="12.07549991885765"><ele>1777.0</ele><time>2026-04-12T11:05:09.915Z</time></trkpt><trkpt lat="46.50155978166394" lon="12.075594979431955"><ele>1777.0</ele><time>2026-04-12T11:05:10.915Z</time></trkpt><trkpt lat="46.501567080408776" lon="12.075696733278376"><ele>1777.0</ele><time>2026-04-12T11:05:11.915Z</time></trkpt><trkpt lat="46.501609131222" lon="12.075787554655086"><ele>1777.0</ele><time>2026-04-12T11:05:12.915Z</time></trkpt><trkpt lat="46.501664648815805" lon="12.07585441897762"><ele>1777.0</ele><time>2026-04-12T11:05:13.915Z</time></trkpt><trkpt lat="46.50176286175685" lon="12.07582037168948"><ele>1777.0</ele><time>2026-04-12T11:05:14.915Z</time></trkpt><trkpt lat="46.501861007069216" lon="12.075760046785575"><ele>1776.9999999999998</ele><time>2026-04-12T11:05:15.915Z</time></trkpt><trkpt lat="46.50196388281579" lon="12.075672903856905"><ele>1776.9999999999998</ele><time>2026-04-12T11:05:16.915Z</time></trkpt><trkpt lat="46.502066381563594" lon="12.075595488564602"><ele>1777.0</ele><time>2026-04-12T11:05:17.915Z</time></trkpt><trkpt lat="46.50214649152028" lon="12.075543054121598"><ele>1777.0</ele><time>2026-04-12T11:05:18.915Z</time></trkpt><trkpt lat="46.50221776634974" lon="12.075502088252984"><ele>1775.5000000000002</ele><time>2026-04-12T11:05:19.915Z</time></trkpt><trkpt lat="46.50228515207423" lon="12.075503869698274"><ele>1774.0</ele><time>2026-04-12T11:05:20.915Z</time></trkpt><trkpt lat="46.50239264997752" lon="12.075576571660724"><ele>1772.5</ele><time>2026-04-12T11:05:22.915Z</time></trkpt><trkpt lat="46.502398435714916" lon="12.07567770581005"><ele>1771.0</ele><time>2026-04-12T11:05:23.915Z</time></trkpt><trkpt lat="46.50236774135271" lon="12.07577131202511"><ele>1769.5000000000002</ele><time>2026-04-12T11:05:24.915Z</time></trkpt><trkpt lat="46.502304744018595" lon="12.075819474301195"><ele>1768.0</ele><time>2026-04-12T11:05:25.915Z</time></trkpt><trkpt lat="46.50222623921382" lon="12.07580920415036"><ele>1766.8333333333335</ele><time>2026-04-12T11:05:26.915Z</time></trkpt><trkpt lat="46.50214805052252" lon="12.07580998550252"><ele>1765.6666666666667</ele><time>2026-04-12T11:05:27.915Z</time></trkpt><trkpt lat="46.502084404015825" lon="12.075826910699211"><ele>1764.5</ele><time>2026-04-12T11:05:28.915Z</time></trkpt><trkpt lat="46.50204039809593" lon="12.075917468364871"><ele>1763.3333333333335</ele><time>2026-04-12T11:05:29.915Z</time></trkpt><trkpt lat="46.50204257637659" lon="12.076032380006117"><ele>1762.1666666666667</ele><time>2026-04-12T11:05:30.915Z</time></trkpt><trkpt lat="46.50208067342759" lon="12.076134004714655"><ele>1761.0</ele><time>2026-04-12T11:05:31.915Z</time></trkpt><trkpt lat="46.50214378707806" lon="12.076205399585907"><ele>1758.6</ele><time>2026-04-12T11:05:32.915Z</time></trkpt><trkpt lat="46.5022525431966" lon="12.076190616871045"><ele>1756.1999999999998</ele><time>2026-04-12T11:05:33.915Z</time></trkpt><trkpt lat="46.50234931686057" lon="12.076165543606843"><ele>1753.8000000000002</ele><time>2026-04-12T11:05:34.915Z</time></trkpt><trkpt lat="46.50244396925031" lon="12.076133270249114"><ele>1751.4</ele><time>2026-04-12T11:05:35.915Z</time></trkpt><trkpt lat="46.50253566562151" lon="12.076099984439239"><ele>1749.0</ele><time>2026-04-12T11:05:36.915Z</time></trkpt><trkpt lat="46.50260996118271" lon="12.076041976161438"><ele>1749.0</ele><time>2026-04-12T11:05:37.915Z</time></trkpt><trkpt lat="46.50266672425885" lon="12.075937151388619"><ele>1749.0</ele><time>2026-04-12T11:05:38.915Z</time></trkpt><trkpt lat="46.50270403399203" lon="12.07582730470626"><ele>1749.0</ele><time>2026-04-12T11:05:39.915Z</time></trkpt><trkpt lat="46.50271490821953" lon="12.075719589534955"><ele>1749.0</ele><time>2026-04-12T11:05:40.915Z</time></trkpt><trkpt lat="46.502782967224995" lon="12.075561214283429"><ele>1749.0</ele><time>2026-04-12T11:05:42.915Z</time></trkpt><trkpt lat="46.50284815812506" lon="12.075517004597529"><ele>1750.0</ele><time>2026-04-12T11:05:43.915Z</time></trkpt><trkpt lat="46.502913448080726" lon="12.075554218349398"><ele>1751.0</ele><time>2026-04-12T11:05:44.915Z</time></trkpt><trkpt lat="46.50296186683635" lon="12.075627584418898"><ele>1752.0</ele><time>2026-04-12T11:05:45.915Z</time></trkpt><trkpt lat="46.50297764213409" lon="12.075736239801458"><ele>1753.0</ele><time>2026-04-12T11:05:46.915Z</time></trkpt><trkpt lat="46.50294914835172" lon="12.075859869957908"><ele>1754.0</ele><time>2026-04-12T11:05:47.915Z</time></trkpt><trkpt lat="46.502960601982295" lon="12.075974893493036"><ele>1755.0</ele><time>2026-04-12T11:05:48.915Z</time></trkpt><trkpt lat="46.502955325694764" lon="12.07609541584481"><ele>1752.1666666666667</ele><time>2026-04-12T11:05:49.915Z</time></trkpt><trkpt lat="46.502955466170654" lon="12.076224835441053"><ele>1749.3333333333335</ele><time>2026-04-12T11:05:50.915Z</time></trkpt><trkpt lat="46.50293966246325" lon="12.076345502730419"><ele>1746.5</ele><time>2026-04-12T11:05:51.915Z</time></trkpt><trkpt lat="46.50295046794695" lon="12.076453659234115"><ele>1743.6666666666667</ele><time>2026-04-12T11:05:52.915Z</time></trkpt><trkpt lat="46.50299468917045" lon="12.076519325097179"><ele>1740.8333333333335</ele><time>2026-04-12T11:05:53.915Z</time></trkpt><trkpt lat="46.503055394964996" lon="12.076567667215292"><ele>1738.0</ele><time>2026-04-12T11:05:54.915Z</time></trkpt><trkpt lat="46.50313446902777" lon="12.076553097755438"><ele>1738.0</ele><time>2026-04-12T11:05:55.915Z</time></trkpt><trkpt lat="46.5032285589749" lon="12.076491012294522"><ele>1738.0000000000002</ele><time>2026-04-12T11:05:56.915Z</time></trkpt><trkpt lat="46.503314448649" lon="12.076429896995771"><ele>1738.0000000000002</ele><time>2026-04-12T11:05:57.915Z</time></trkpt><trkpt lat="46.50340599406595" lon="12.076394209306825"><ele>1738.0</ele><time>2026-04-12T11:05:58.915Z</time></trkpt><trkpt lat="46.503491348710064" lon="12.076342247919193"><ele>1738.0</ele><time>2026-04-12T11:05:59.915Z</time></trkpt><trkpt lat="46.503586030057306" lon="12.076361085221908"><ele>1738.0</ele><time>2026-04-12T11:06:00.915Z</time></trkpt><trkpt lat="46.50367370100576" lon="12.07641890586497"><ele>1738.0000000000002</ele><time>2026-04-12T11:06:01.915Z</time></trkpt><trkpt lat="46.50370772551394" lon="12.076589953746202"><ele>1738.0000000000002</ele><time>2026-04-12T11:06:03.915Z</time></trkpt><trkpt lat="46.50377357158148" lon="12.076643431722287"><ele>1738.0</ele><time>2026-04-12T11:06:04.915Z</time></trkpt><trkpt lat="46.5038597194766" lon="12.076730039041035"><ele>1738.0</ele><time>2026-04-12T11:06:05.915Z</time></trkpt><trkpt lat="46.50396026444874" lon="12.076842451844298"><ele>1733.3333333333335</ele><time>2026-04-12T11:06:06.915Z</time></trkpt><trkpt lat="46.504021897560534" lon="12.076911359462496"><ele>1728.6666666666665</ele><time>2026-04-12T11:06:07.915Z</time></trkpt><trkpt lat="46.504318500516085" lon="12.077034834758875"><ele>1724.0</ele><time>2026-04-12T11:06:08.915Z</time></trkpt><trkpt lat="46.50443611673007" lon="12.077058873858046"><ele>1724.0</ele><time>2026-04-12T11:06:09.915Z</time></trkpt><trkpt lat="46.50455074140292" lon="12.077064934269627"><ele>1724.0</ele><time>2026-04-12T11:06:10.915Z</time></trkpt><trkpt lat="46.50467221031943" lon="12.077062781636366"><ele>1724.0</ele><time>2026-04-12T11:06:11.915Z</time></trkpt><trkpt lat="46.50478443895742" lon="12.077054788545876"><ele>1724.0</ele><time>2026-04-12T11:06:12.915Z</time></trkpt><trkpt lat="46.50488751109532" lon="12.077037518609549"><ele>1722.8000000000002</ele><time>2026-04-12T11:06:13.916Z</time></trkpt><trkpt lat="46.50498758629983" lon="12.076993992198567"><ele>1721.6000000000001</ele><time>2026-04-12T11:06:14.916Z</time></trkpt><trkpt lat="46.50507670976797" lon="12.076908241854616"><ele>1720.4</ele><time>2026-04-12T11:06:15.916Z</time></trkpt><trkpt lat="46.50514290393956" lon="12.076826088185818"><ele>1719.2</ele><time>2026-04-12T11:06:16.916Z</time></trkpt><trkpt lat="46.505213073980656" lon="12.076757601425497"><ele>1718.0</ele><time>2026-04-12T11:06:17.916Z</time></trkpt><trkpt lat="46.50528401678075" lon="12.076750429147785"><ele>1718.0</ele><time>2026-04-12T11:06:18.916Z</time></trkpt><trkpt lat="46.50534320484129" lon="12.076815986157117"><ele>1718.0000000000002</ele><time>2026-04-12T11:06:19.916Z</time></trkpt><trkpt lat="46.50538515305979" lon="12.076915425077251"><ele>1718.0000000000002</ele><time>2026-04-12T11:06:20.916Z</time></trkpt><trkpt lat="46.50540711221217" lon="12.077084773983309"><ele>1718.0</ele><time>2026-04-12T11:06:21.916Z</time></trkpt><trkpt lat="46.50547494744139" lon="12.077231586365553"><ele>1718.0</ele><time>2026-04-12T11:06:22.916Z</time></trkpt><trkpt lat="46.5055369010943" lon="12.077435539727864"><ele>1716.3333333333333</ele><time>2026-04-12T11:06:23.916Z</time></trkpt><trkpt lat="46.50561099610875" lon="12.077669739301509"><ele>1714.6666666666665</ele><time>2026-04-12T11:06:24.916Z</time></trkpt><trkpt lat="46.50566668041613" lon="12.077893671147773"><ele>1713.0</ele><time>2026-04-12T11:06:25.916Z</time></trkpt><trkpt lat="46.505717414866126" lon="12.078127745718337"><ele>1710.6666666666665</ele><time>2026-04-12T11:06:26.916Z</time></trkpt><trkpt lat="46.50576503045568" lon="12.078343037172301"><ele>1708.3333333333333</ele><time>2026-04-12T11:06:27.916Z</time></trkpt><trkpt lat="46.5058291350384" lon="12.07854792902711"><ele>1706.0</ele><time>2026-04-12T11:06:28.916Z</time></trkpt><trkpt lat="46.5058797171296" lon="12.078746313470067"><ele>1706.0</ele><time>2026-04-12T11:06:29.916Z</time></trkpt><trkpt lat="46.505924360277625" lon="12.078951536177916"><ele>1706.0</ele><time>2026-04-12T11:06:30.916Z</time></trkpt><trkpt lat="46.50597419740093" lon="12.079133363292966"><ele>1706.0</ele><time>2026-04-12T11:06:31.916Z</time></trkpt><trkpt lat="46.50603052364728" lon="12.079308847492603"><ele>1706.0</ele><time>2026-04-12T11:06:32.916Z</time></trkpt><trkpt lat="46.50609307120922" lon="12.079481343275457"><ele>1706.25</ele><time>2026-04-12T11:06:33.916Z</time></trkpt><trkpt lat="46.506150739742786" lon="12.079639525685899"><ele>1706.5</ele><time>2026-04-12T11:06:34.916Z</time></trkpt><trkpt lat="46.50621885034439" lon="12.079786017952856"><ele>1706.75</ele><time>2026-04-12T11:06:35.916Z</time></trkpt><trkpt lat="46.50630411129754" lon="12.07993007715734"><ele>1707.0</ele><time>2026-04-12T11:06:36.916Z</time></trkpt><trkpt lat="46.50640890346813" lon="12.080071712675608"><ele>1704.0</ele><time>2026-04-12T11:06:37.916Z</time></trkpt><trkpt lat="46.506517074858024" lon="12.080216695814016"><ele>1701.0</ele><time>2026-04-12T11:06:38.916Z</time></trkpt><trkpt lat="46.50662385823681" lon="12.08035427249139"><ele>1698.0</ele><time>2026-04-12T11:06:39.916Z</time></trkpt><trkpt lat="46.506730818025694" lon="12.08050423934716"><ele>1695.0</ele><time>2026-04-12T11:06:40.916Z</time></trkpt><trkpt lat="46.50683056878331" lon="12.080648446785982"><ele>1693.6666666666665</ele><time>2026-04-12T11:06:41.916Z</time></trkpt><trkpt lat="46.50692462450442" lon="12.080786990610056"><ele>1692.3333333333333</ele><time>2026-04-12T11:06:42.916Z</time></trkpt><trkpt lat="46.50703864624657" lon="12.080946094479279"><ele>1691.0</ele><time>2026-04-12T11:06:43.916Z</time></trkpt><trkpt lat="46.50715936284672" lon="12.081114783590104"><ele>1691.0</ele><time>2026-04-12T11:06:44.916Z</time></trkpt><trkpt lat="46.50728336214595" lon="12.081280787740516"><ele>1691.0</ele><time>2026-04-12T11:06:45.916Z</time></trkpt><trkpt lat="46.50739815377429" lon="12.081449747303123"><ele>1691.0</ele><time>2026-04-12T11:06:46.916Z</time></trkpt><trkpt lat="46.50751014471624" lon="12.08161532390933"><ele>1690.6666666666665</ele><time>2026-04-12T11:06:47.916Z</time></trkpt><trkpt lat="46.50762464010701" lon="12.08176831813021"><ele>1690.3333333333335</ele><time>2026-04-12T11:06:48.916Z</time></trkpt><trkpt lat="46.50776767270424" lon="12.08196227632072"><ele>1690.0</ele><time>2026-04-12T11:06:49.916Z</time></trkpt><trkpt lat="46.50794202383977" lon="12.082201843134497"><ele>1689.5</ele><time>2026-04-12T11:06:50.916Z</time></trkpt><trkpt lat="46.50806818659447" lon="12.08238645609732"><ele>1689.0</ele><time>2026-04-12T11:06:51.916Z</time></trkpt><trkpt lat="46.508158574901955" lon="12.082522345727318"><ele>1688.5</ele><time>2026-04-12T11:06:53.916Z</time></trkpt><trkpt lat="46.50823364345477" lon="12.082653909480348"><ele>1688.0</ele><time>2026-04-12T11:06:54.916Z</time></trkpt><trkpt lat="46.508299385076036" lon="12.082795999744473"><ele>1684.75</ele><time>2026-04-12T11:06:55.916Z</time></trkpt><trkpt lat="46.508349155908405" lon="12.082973407357127"><ele>1681.5</ele><time>2026-04-12T11:06:56.916Z</time></trkpt><trkpt lat="46.50839509579193" lon="12.083135037872099"><ele>1678.25</ele><time>2026-04-12T11:06:57.916Z</time></trkpt><trkpt lat="46.50844352124348" lon="12.083265573426226"><ele>1675.0</ele><time>2026-04-12T11:06:58.916Z</time></trkpt><trkpt lat="46.50851228648097" lon="12.083382693634052"><ele>1673.75</ele><time>2026-04-12T11:06:59.916Z</time></trkpt><trkpt lat="46.508602719065934" lon="12.083470122741286"><ele>1672.5</ele><time>2026-04-12T11:07:00.916Z</time></trkpt><trkpt lat="46.50870376032439" lon="12.083555712904031"><ele>1671.25</ele><time>2026-04-12T11:07:01.916Z</time></trkpt><trkpt lat="46.50883351901866" lon="12.083609159866937"><ele>1670.0</ele><time>2026-04-12T11:07:02.916Z</time></trkpt><trkpt lat="46.50897539964219" lon="12.083669135190592"><ele>1670.0</ele><time>2026-04-12T11:07:03.916Z</time></trkpt><trkpt lat="46.50911590992377" lon="12.083745755616937"><ele>1670.0</ele><time>2026-04-12T11:07:04.916Z</time></trkpt><trkpt lat="46.50924471360279" lon="12.083857934522754"><ele>1670.0</ele><time>2026-04-12T11:07:05.916Z</time></trkpt><trkpt lat="46.5093416757138" lon="12.084009837410282"><ele>1670.0</ele><time>2026-04-12T11:07:06.916Z</time></trkpt><trkpt lat="46.50945292937869" lon="12.084138723883447"><ele>1670.25</ele><time>2026-04-12T11:07:07.916Z</time></trkpt><trkpt lat="46.5095364626305" lon="12.084280111770552"><ele>1670.5</ele><time>2026-04-12T11:07:08.916Z</time></trkpt><trkpt lat="46.5096264271758" lon="12.084379268054962"><ele>1670.75</ele><time>2026-04-12T11:07:09.916Z</time></trkpt><trkpt lat="46.509731773247786" lon="12.084441883432149"><ele>1671.0</ele><time>2026-04-12T11:07:10.916Z</time></trkpt><trkpt lat="46.50982877047534" lon="12.084458871815414"><ele>1671.0</ele><time>2026-04-12T11:07:11.916Z</time></trkpt><trkpt lat="46.50995013366271" lon="12.08443075120688"><ele>1671.0</ele><time>2026-04-12T11:07:12.916Z</time></trkpt><trkpt lat="46.510066415957795" lon="12.084380207665363"><ele>1671.0</ele><time>2026-04-12T11:07:13.916Z</time></trkpt><trkpt lat="46.51018401511244" lon="12.084332404329432"><ele>1671.0</ele><time>2026-04-12T11:07:14.916Z</time></trkpt><trkpt lat="46.51032171467101" lon="12.084285041265428"><ele>1671.4</ele><time>2026-04-12T11:07:15.916Z</time></trkpt><trkpt lat="46.51044247045186" lon="12.08425591718505"><ele>1671.8</ele><time>2026-04-12T11:07:16.916Z</time></trkpt><trkpt lat="46.51054686322809" lon="12.0842250974034"><ele>1672.2</ele><time>2026-04-12T11:07:17.916Z</time></trkpt><trkpt lat="46.51063691199087" lon="12.084213897318424"><ele>1672.6000000000001</ele><time>2026-04-12T11:07:18.916Z</time></trkpt><trkpt lat="46.510733424848986" lon="12.084245052893891"><ele>1673.0</ele><time>2026-04-12T11:07:19.916Z</time></trkpt><trkpt lat="46.510806675305616" lon="12.084386593314294"><ele>1673.0</ele><time>2026-04-12T11:07:20.916Z</time></trkpt><trkpt lat="46.510887353891334" lon="12.084494756246109"><ele>1673.0</ele><time>2026-04-12T11:07:21.916Z</time></trkpt><trkpt lat="46.5109824835507" lon="12.084598364146922"><ele>1673.0</ele><time>2026-04-12T11:07:22.916Z</time></trkpt><trkpt lat="46.51106303510017" lon="12.084728373743959"><ele>1673.0</ele><time>2026-04-12T11:07:23.916Z</time></trkpt><trkpt lat="46.511147389672836" lon="12.084828237580851"><ele>1673.0</ele><time>2026-04-12T11:07:24.916Z</time></trkpt><trkpt lat="46.5112294940764" lon="12.084907479251632"><ele>1673.0</ele><time>2026-04-12T11:07:25.916Z</time></trkpt><trkpt lat="46.51131748903132" lon="12.08495638529145"><ele>1673.0</ele><time>2026-04-12T11:07:26.916Z</time></trkpt><trkpt lat="46.511406643125795" lon="12.08499141661171"><ele>1673.0</ele><time>2026-04-12T11:07:27.916Z</time></trkpt><trkpt lat="46.51147494402037" lon="12.085025129598776"><ele>1673.0</ele><time>2026-04-12T11:07:28.916Z</time></trkpt><trkpt lat="46.51154414892389" lon="12.085177283506843"><ele>1670.3333333333333</ele><time>2026-04-12T11:07:30.916Z</time></trkpt><trkpt lat="46.511509761802074" lon="12.085266931380978"><ele>1667.6666666666665</ele><time>2026-04-12T11:07:31.916Z</time></trkpt><trkpt lat="46.511446180757986" lon="12.085314097090718"><ele>1665.0</ele><time>2026-04-12T11:07:32.916Z</time></trkpt><trkpt lat="46.511320022223515" lon="12.0852856158807"><ele>1662.3333333333335</ele><time>2026-04-12T11:07:34.916Z</time></trkpt><trkpt lat="46.51124462848267" lon="12.085280456804087"><ele>1659.6666666666667</ele><time>2026-04-12T11:07:35.916Z</time></trkpt><trkpt lat="46.51117275832182" lon="12.085302638949386"><ele>1657.0</ele><time>2026-04-12T11:07:36.916Z</time></trkpt><trkpt lat="46.511129077972704" lon="12.085369818800936"><ele>1657.0000000000002</ele><time>2026-04-12T11:07:37.916Z</time></trkpt><trkpt lat="46.511117577528466" lon="12.085473063209518"><ele>1657.0</ele><time>2026-04-12T11:07:38.916Z</time></trkpt><trkpt lat="46.511135209731776" lon="12.085582753849716"><ele>1657.0</ele><time>2026-04-12T11:07:39.916Z</time></trkpt><trkpt lat="46.51119907751514" lon="12.085659753096246"><ele>1657.0</ele><time>2026-04-12T11:07:40.916Z</time></trkpt><trkpt lat="46.51128315781104" lon="12.085682757936091"><ele>1657.0000000000002</ele><time>2026-04-12T11:07:41.916Z</time></trkpt><trkpt lat="46.51139072705343" lon="12.085691691393967"><ele>1657.0</ele><time>2026-04-12T11:07:42.916Z</time></trkpt><trkpt lat="46.511492692001895" lon="12.085713028401965"><ele>1653.8</ele><time>2026-04-12T11:07:43.916Z</time></trkpt><trkpt lat="46.511566342321984" lon="12.085805967241127"><ele>1650.6</ele><time>2026-04-12T11:07:44.916Z</time></trkpt><trkpt lat="46.51162463359633" lon="12.08592254602636"><ele>1647.3999999999999</ele><time>2026-04-12T11:07:45.916Z</time></trkpt><trkpt lat="46.51164830250595" lon="12.086068997424768"><ele>1644.1999999999998</ele><time>2026-04-12T11:07:46.916Z</time></trkpt><trkpt lat="46.51169092811066" lon="12.086203064776543"><ele>1641.0</ele><time>2026-04-12T11:07:47.916Z</time></trkpt><trkpt lat="46.51175182890548" lon="12.086333897165627"><ele>1641.0</ele><time>2026-04-12T11:07:48.916Z</time></trkpt><trkpt lat="46.51178898020009" lon="12.086473989514834"><ele>1641.0</ele><time>2026-04-12T11:07:49.916Z</time></trkpt><trkpt lat="46.51185752850381" lon="12.086596348894341"><ele>1641.0</ele><time>2026-04-12T11:07:50.916Z</time></trkpt><trkpt lat="46.51189922585143" lon="12.086722438757494"><ele>1641.0</ele><time>2026-04-12T11:07:51.916Z</time></trkpt><trkpt lat="46.51193391345059" lon="12.086826744395143"><ele>1641.0</ele><time>2026-04-12T11:07:52.916Z</time></trkpt><trkpt lat="46.511975238802165" lon="12.08693256071934"><ele>1639.4</ele><time>2026-04-12T11:07:53.916Z</time></trkpt><trkpt lat="46.51197275140308" lon="12.087059537037241"><ele>1637.8</ele><time>2026-04-12T11:07:54.916Z</time></trkpt><trkpt lat="46.51194262682133" lon="12.087184524250409"><ele>1636.2</ele><time>2026-04-12T11:07:55.916Z</time></trkpt><trkpt lat="46.51188104864852" lon="12.087285623848038"><ele>1634.6000000000001</ele><time>2026-04-12T11:07:56.916Z</time></trkpt><trkpt lat="46.511787293560744" lon="12.08737701354768"><ele>1633.0</ele><time>2026-04-12T11:07:57.916Z</time></trkpt><trkpt lat="46.511708574095536" lon="12.087498362385467"><ele>1631.3333333333335</ele><time>2026-04-12T11:07:58.916Z</time></trkpt><trkpt lat="46.51162726163029" lon="12.0875634809905"><ele>1629.6666666666667</ele><time>2026-04-12T11:07:59.916Z</time></trkpt><trkpt lat="46.51157039614041" lon="12.087652941195739"><ele>1628.0</ele><time>2026-04-12T11:08:00.916Z</time></trkpt><trkpt lat="46.51152367105409" lon="12.087750146940872"><ele>1626.3333333333335</ele><time>2026-04-12T11:08:01.916Z</time></trkpt><trkpt lat="46.51150988184909" lon="12.087868391679855"><ele>1624.6666666666667</ele><time>2026-04-12T11:08:02.916Z</time></trkpt><trkpt lat="46.51152035727836" lon="12.087989577995131"><ele>1623.0</ele><time>2026-04-12T11:08:03.916Z</time></trkpt><trkpt lat="46.511565447901496" lon="12.088109832840537"><ele>1623.0</ele><time>2026-04-12T11:08:04.916Z</time></trkpt><trkpt lat="46.511635457782305" lon="12.088203271982264"><ele>1623.0</ele><time>2026-04-12T11:08:05.916Z</time></trkpt><trkpt lat="46.51172565995685" lon="12.088263924871198"><ele>1623.0</ele><time>2026-04-12T11:08:06.916Z</time></trkpt><trkpt lat="46.51183206610156" lon="12.088289254627918"><ele>1623.0</ele><time>2026-04-12T11:08:07.916Z</time></trkpt><trkpt lat="46.51192793563838" lon="12.088318529454092"><ele>1623.0</ele><time>2026-04-12T11:08:08.916Z</time></trkpt><trkpt lat="46.51199706672032" lon="12.08833210354269"><ele>1621.5</ele><time>2026-04-12T11:08:09.916Z</time></trkpt><trkpt lat="46.51203244184087" lon="12.088409836751847"><ele>1620.0</ele><time>2026-04-12T11:08:10.916Z</time></trkpt><trkpt lat="46.512039866672616" lon="12.088502799895338"><ele>1618.5</ele><time>2026-04-12T11:08:11.916Z</time></trkpt><trkpt lat="46.51199520731132" lon="12.088603192451604"><ele>1617.0</ele><time>2026-04-12T11:08:12.916Z</time></trkpt><trkpt lat="46.511925207282" lon="12.088655908601488"><ele>1615.5</ele><time>2026-04-12T11:08:13.916Z</time></trkpt><trkpt lat="46.51185100647847" lon="12.088655453918934"><ele>1614.0</ele><time>2026-04-12T11:08:14.916Z</time></trkpt><trkpt lat="46.5117869522588" lon="12.088559116032723"><ele>1614.0</ele><time>2026-04-12T11:08:15.916Z</time></trkpt><trkpt lat="46.5117083683306" lon="12.088470559551713"><ele>1614.0</ele><time>2026-04-12T11:08:16.916Z</time></trkpt><trkpt lat="46.51164957869875" lon="12.088388881517933"><ele>1614.0</ele><time>2026-04-12T11:08:17.916Z</time></trkpt><trkpt lat="46.51158415070816" lon="12.088361782824931"><ele>1614.0</ele><time>2026-04-12T11:08:18.916Z</time></trkpt><trkpt lat="46.51151306411253" lon="12.088408688639683"><ele>1614.0</ele><time>2026-04-12T11:08:19.917Z</time></trkpt><trkpt lat="46.511469008185244" lon="12.08849519745731"><ele>1614.0</ele><time>2026-04-12T11:08:20.917Z</time></trkpt><trkpt lat="46.511447284269636" lon="12.088596637176364"><ele>1614.0</ele><time>2026-04-12T11:08:21.917Z</time></trkpt><trkpt lat="46.511464958740056" lon="12.088711579784631"><ele>1614.0</ele><time>2026-04-12T11:08:22.917Z</time></trkpt><trkpt lat="46.511530990608705" lon="12.088810199740271"><ele>1614.0</ele><time>2026-04-12T11:08:23.917Z</time></trkpt><trkpt lat="46.51164932070479" lon="12.088846279745836"><ele>1614.0</ele><time>2026-04-12T11:08:24.917Z</time></trkpt><trkpt lat="46.511758507375404" lon="12.08887255168245"><ele>1614.0</ele><time>2026-04-12T11:08:25.917Z</time></trkpt><trkpt lat="46.511853006567314" lon="12.0889218067118"><ele>1614.0</ele><time>2026-04-12T11:08:26.917Z</time></trkpt><trkpt lat="46.51194271901366" lon="12.088999812381473"><ele>1614.0</ele><time>2026-04-12T11:08:27.917Z</time></trkpt><trkpt lat="46.51207086423832" lon="12.08899899328363"><ele>1614.0</ele><time>2026-04-12T11:08:28.917Z</time></trkpt><trkpt lat="46.51218223203601" lon="12.08899915177609"><ele>1614.0</ele><time>2026-04-12T11:08:29.917Z</time></trkpt><trkpt lat="46.51229513098561" lon="12.08898955992462"><ele>1613.0</ele><time>2026-04-12T11:08:30.917Z</time></trkpt><trkpt lat="46.51241303766404" lon="12.089002059841018"><ele>1612.0</ele><time>2026-04-12T11:08:31.917Z</time></trkpt><trkpt lat="46.512513388162915" lon="12.089008713442503"><ele>1611.0</ele><time>2026-04-12T11:08:32.917Z</time></trkpt><trkpt lat="46.51261949270164" lon="12.088992310104853"><ele>1610.0</ele><time>2026-04-12T11:08:33.917Z</time></trkpt><trkpt lat="46.512744191529386" lon="12.088945511507331"><ele>1610.0</ele><time>2026-04-12T11:08:34.917Z</time></trkpt><trkpt lat="46.51286245494984" lon="12.088855245109222"><ele>1610.0</ele><time>2026-04-12T11:08:35.917Z</time></trkpt><trkpt lat="46.51298012373485" lon="12.08876223623503"><ele>1610.0</ele><time>2026-04-12T11:08:36.917Z</time></trkpt><trkpt lat="46.51312010430055" lon="12.088698692576132"><ele>1610.0</ele><time>2026-04-12T11:08:37.917Z</time></trkpt><trkpt lat="46.51326434565049" lon="12.088615030414436"><ele>1607.1666666666665</ele><time>2026-04-12T11:08:38.917Z</time></trkpt><trkpt lat="46.51338321256461" lon="12.088543124997324"><ele>1604.3333333333333</ele><time>2026-04-12T11:08:40.917Z</time></trkpt><trkpt lat="46.5134483703643" lon="12.088532033563093"><ele>1601.5</ele><time>2026-04-12T11:08:41.917Z</time></trkpt><trkpt lat="46.513514991542195" lon="12.088506118357278"><ele>1598.6666666666665</ele><time>2026-04-12T11:08:42.917Z</time></trkpt><trkpt lat="46.51358416143579" lon="12.088528957473077"><ele>1595.8333333333333</ele><time>2026-04-12T11:08:43.917Z</time></trkpt><trkpt lat="46.51363521294803" lon="12.08860363766174"><ele>1593.0</ele><time>2026-04-12T11:08:44.917Z</time></trkpt><trkpt lat="46.51365287777124" lon="12.088706731124518"><ele>1593.0</ele><time>2026-04-12T11:08:45.917Z</time></trkpt><trkpt lat="46.513641265831374" lon="12.088809450505835"><ele>1593.0</ele><time>2026-04-12T11:08:46.917Z</time></trkpt><trkpt lat="46.51359659583373" lon="12.088893889497896"><ele>1593.0</ele><time>2026-04-12T11:08:47.917Z</time></trkpt><trkpt lat="46.51350181989428" lon="12.0889289743995"><ele>1593.0</ele><time>2026-04-12T11:08:48.917Z</time></trkpt><trkpt lat="46.51341046609404" lon="12.088948211875264"><ele>1593.0</ele><time>2026-04-12T11:08:49.917Z</time></trkpt><trkpt lat="46.51331733049767" lon="12.0890266265951"><ele>1593.0</ele><time>2026-04-12T11:08:50.917Z</time></trkpt><trkpt lat="46.51322306538607" lon="12.089110895437525"><ele>1590.5</ele><time>2026-04-12T11:08:51.917Z</time></trkpt><trkpt lat="46.51313329528604" lon="12.08921137873415"><ele>1588.0</ele><time>2026-04-12T11:08:52.917Z</time></trkpt><trkpt lat="46.51306429067535" lon="12.089336922642845"><ele>1585.5</ele><time>2026-04-12T11:08:53.917Z</time></trkpt><trkpt lat="46.51300704983264" lon="12.089477053630445"><ele>1583.0</ele><time>2026-04-12T11:08:54.917Z</time></trkpt><trkpt lat="46.512936304264976" lon="12.089608426655168"><ele>1582.4999999999998</ele><time>2026-04-12T11:08:55.917Z</time></trkpt><trkpt lat="46.51287939457153" lon="12.08972229006159"><ele>1582.0</ele><time>2026-04-12T11:08:56.917Z</time></trkpt><trkpt lat="46.51282310215373" lon="12.089812043827331"><ele>1581.5</ele><time>2026-04-12T11:08:57.917Z</time></trkpt><trkpt lat="46.51279786061698" lon="12.089975562004891"><ele>1581.0</ele><time>2026-04-12T11:08:59.917Z</time></trkpt><trkpt lat="46.512827620837555" lon="12.090068775297084"><ele>1580.4999999999998</ele><time>2026-04-12T11:09:00.917Z</time></trkpt><trkpt lat="46.51289698978839" lon="12.090115760178184"><ele>1580.0</ele><time>2026-04-12T11:09:01.917Z</time></trkpt><trkpt lat="46.51296926756712" lon="12.090130180019825"><ele>1580.75</ele><time>2026-04-12T11:09:02.917Z</time></trkpt><trkpt lat="46.51310332266039" lon="12.090062751451361"><ele>1581.5</ele><time>2026-04-12T11:09:03.917Z</time></trkpt><trkpt lat="46.513199062198495" lon="12.090008544521785"><ele>1582.25</ele><time>2026-04-12T11:09:04.917Z</time></trkpt><trkpt lat="46.513302182815664" lon="12.089988128353937"><ele>1583.0</ele><time>2026-04-12T11:09:05.917Z</time></trkpt><trkpt lat="46.513409064314885" lon="12.089917383693356"><ele>1583.0</ele><time>2026-04-12T11:09:06.917Z</time></trkpt><trkpt lat="46.51350603306083" lon="12.089904504724467"><ele>1583.0</ele><time>2026-04-12T11:09:07.917Z</time></trkpt><trkpt lat="46.513606487059505" lon="12.08986099205188"><ele>1583.0</ele><time>2026-04-12T11:09:08.917Z</time></trkpt><trkpt lat="46.51371081048337" lon="12.089776145992294"><ele>1583.0</ele><time>2026-04-12T11:09:09.917Z</time></trkpt><trkpt lat="46.51380452599066" lon="12.089674923153902"><ele>1583.0</ele><time>2026-04-12T11:09:10.917Z</time></trkpt><trkpt lat="46.513869366828615" lon="12.089568683640536"><ele>1578.4999999999998</ele><time>2026-04-12T11:09:11.917Z</time></trkpt><trkpt lat="46.51391645988892" lon="12.089463202494418"><ele>1574.0</ele><time>2026-04-12T11:09:12.917Z</time></trkpt><trkpt lat="46.51396629964233" lon="12.089374909594522"><ele>1569.5</ele><time>2026-04-12T11:09:13.917Z</time></trkpt><trkpt lat="46.514027125605146" lon="12.089318166944684"><ele>1565.0</ele><time>2026-04-12T11:09:14.917Z</time></trkpt><trkpt lat="46.51411304148591" lon="12.089304643022256"><ele>1560.4999999999998</ele><time>2026-04-12T11:09:15.917Z</time></trkpt><trkpt lat="46.51419921540928" lon="12.089338536943758"><ele>1556.0</ele><time>2026-04-12T11:09:16.917Z</time></trkpt><trkpt lat="46.514263706771956" lon="12.089414849550359"><ele>1556.0</ele><time>2026-04-12T11:09:17.917Z</time></trkpt><trkpt lat="46.51431486761843" lon="12.089515033066027"><ele>1556.0</ele><time>2026-04-12T11:09:18.917Z</time></trkpt><trkpt lat="46.51434589063646" lon="12.089644281501236"><ele>1556.0</ele><time>2026-04-12T11:09:19.917Z</time></trkpt><trkpt lat="46.514320461559414" lon="12.089789482834787"><ele>1556.0</ele><time>2026-04-12T11:09:20.917Z</time></trkpt><trkpt lat="46.5142994253486" lon="12.089948784570874"><ele>1556.0</ele><time>2026-04-12T11:09:21.917Z</time></trkpt><trkpt lat="46.51429015653935" lon="12.090127896983637"><ele>1553.5</ele><time>2026-04-12T11:09:22.917Z</time></trkpt><trkpt lat="46.5142784474822" lon="12.090304489236166"><ele>1551.0</ele><time>2026-04-12T11:09:23.917Z</time></trkpt><trkpt lat="46.51428081448009" lon="12.090488703842853"><ele>1548.5</ele><time>2026-04-12T11:09:24.917Z</time></trkpt><trkpt lat="46.51428385902234" lon="12.090679031517043"><ele>1546.0</ele><time>2026-04-12T11:09:25.917Z</time></trkpt><trkpt lat="46.51431280973747" lon="12.090914122995628"><ele>1544.75</ele><time>2026-04-12T11:09:26.917Z</time></trkpt><trkpt lat="46.51437891616754" lon="12.091127757806948"><ele>1543.5</ele><time>2026-04-12T11:09:27.917Z</time></trkpt><trkpt lat="46.514428836364026" lon="12.091314839328914"><ele>1542.25</ele><time>2026-04-12T11:09:28.917Z</time></trkpt><trkpt lat="46.514471148660114" lon="12.091505276282799"><ele>1541.0</ele><time>2026-04-12T11:09:29.917Z</time></trkpt><trkpt lat="46.514507108834195" lon="12.091703039823905"><ele>1541.25</ele><time>2026-04-12T11:09:30.917Z</time></trkpt><trkpt lat="46.514558327597626" lon="12.091894605216503"><ele>1541.5</ele><time>2026-04-12T11:09:31.917Z</time></trkpt><trkpt lat="46.51459540080968" lon="12.09208385179569"><ele>1541.75</ele><time>2026-04-12T11:09:32.917Z</time></trkpt><trkpt lat="46.514628248684424" lon="12.092247082937734"><ele>1542.0</ele><time>2026-04-12T11:09:33.917Z</time></trkpt><trkpt lat="46.51465509598353" lon="12.092406031161886"><ele>1540.8</ele><time>2026-04-12T11:09:34.917Z</time></trkpt><trkpt lat="46.51468166857946" lon="12.092556913981358"><ele>1539.6</ele><time>2026-04-12T11:09:35.917Z</time></trkpt><trkpt lat="46.51471179992077" lon="12.092697977591875"><ele>1538.3999999999999</ele><time>2026-04-12T11:09:36.917Z</time></trkpt><trkpt lat="46.514736152379456" lon="12.092833808331681"><ele>1537.1999999999998</ele><time>2026-04-12T11:09:37.917Z</time></trkpt><trkpt lat="46.51478805934256" lon="12.092972468416196"><ele>1536.0</ele><time>2026-04-12T11:09:38.917Z</time></trkpt><trkpt lat="46.51485755937133" lon="12.093094694147181"><ele>1536.0</ele><time>2026-04-12T11:09:39.917Z</time></trkpt><trkpt lat="46.51494896716981" lon="12.093229157993331"><ele>1536.0</ele><time>2026-04-12T11:09:40.917Z</time></trkpt><trkpt lat="46.51504378066311" lon="12.093359221533953"><ele>1536.0</ele><time>2026-04-12T11:09:41.917Z</time></trkpt><trkpt lat="46.5151204116653" lon="12.09347619320456"><ele>1536.0</ele><time>2026-04-12T11:09:42.917Z</time></trkpt><trkpt lat="46.51520448459732" lon="12.093616251273467"><ele>1534.25</ele><time>2026-04-12T11:09:43.917Z</time></trkpt><trkpt lat="46.51531229025621" lon="12.093748257918493"><ele>1532.5</ele><time>2026-04-12T11:09:44.917Z</time></trkpt><trkpt lat="46.51541714582732" lon="12.093895802421388"><ele>1530.75</ele><time>2026-04-12T11:09:45.917Z</time></trkpt><trkpt lat="46.5155152487423" lon="12.094025502670567"><ele>1529.0</ele><time>2026-04-12T11:09:46.917Z</time></trkpt><trkpt lat="46.51560833310493" lon="12.094124374639714"><ele>1527.5</ele><time>2026-04-12T11:09:47.917Z</time></trkpt><trkpt lat="46.515718429416324" lon="12.094195766406449"><ele>1526.0</ele><time>2026-04-12T11:09:48.917Z</time></trkpt><trkpt lat="46.51583568029645" lon="12.094253867405461"><ele>1524.5</ele><time>2026-04-12T11:09:49.917Z</time></trkpt><trkpt lat="46.51595460401438" lon="12.09428103980032"><ele>1523.0</ele><time>2026-04-12T11:09:50.917Z</time></trkpt><trkpt lat="46.516065211171664" lon="12.094329965934106"><ele>1523.0</ele><time>2026-04-12T11:09:51.917Z</time></trkpt><trkpt lat="46.51616019114779" lon="12.094423194265772"><ele>1523.0</ele><time>2026-04-12T11:09:52.917Z</time></trkpt><trkpt lat="46.516241155265945" lon="12.094557845659766"><ele>1523.0</ele><time>2026-04-12T11:09:53.917Z</time></trkpt><trkpt lat="46.51632718932628" lon="12.094726408940558"><ele>1523.0</ele><time>2026-04-12T11:09:54.917Z</time></trkpt><trkpt lat="46.51640327504569" lon="12.09489567121342"><ele>1521.75</ele><time>2026-04-12T11:09:55.917Z</time></trkpt><trkpt lat="46.51646618867903" lon="12.095045143152651"><ele>1520.5</ele><time>2026-04-12T11:09:56.917Z</time></trkpt><trkpt lat="46.51651713081128" lon="12.095178144911188"><ele>1519.25</ele><time>2026-04-12T11:09:57.917Z</time></trkpt><trkpt lat="46.51656100857787" lon="12.09533457913889"><ele>1518.0</ele><time>2026-04-12T11:09:58.917Z</time></trkpt><trkpt lat="46.51656605145099" lon="12.095523634741706"><ele>1518.0</ele><time>2026-04-12T11:09:59.917Z</time></trkpt><trkpt lat="46.51657252765876" lon="12.095725990153898"><ele>1518.0</ele><time>2026-04-12T11:10:00.917Z</time></trkpt><trkpt lat="46.51655384490962" lon="12.095930778465638"><ele>1518.0</ele><time>2026-04-12T11:10:01.917Z</time></trkpt><trkpt lat="46.516533455885515" lon="12.096143182707262"><ele>1518.0</ele><time>2026-04-12T11:10:02.917Z</time></trkpt><trkpt lat="46.51651344655625" lon="12.09637373728228"><ele>1520.3333333333333</ele><time>2026-04-12T11:10:03.917Z</time></trkpt><trkpt lat="46.51650815859177" lon="12.096644157699632"><ele>1522.6666666666665</ele><time>2026-04-12T11:10:04.917Z</time></trkpt><trkpt lat="46.51648692729854" lon="12.096907559350745"><ele>1525.0</ele><time>2026-04-12T11:10:05.917Z</time></trkpt><trkpt lat="46.516472856676465" lon="12.097153627998047"><ele>1525.0</ele><time>2026-04-12T11:10:06.917Z</time></trkpt><trkpt lat="46.5164669042778" lon="12.09738393331967"><ele>1525.0</ele><time>2026-04-12T11:10:07.917Z</time></trkpt><trkpt lat="46.51646132945942" lon="12.097607072026097"><ele>1525.0</ele><time>2026-04-12T11:10:08.917Z</time></trkpt><trkpt lat="46.51645769552667" lon="12.097825386753946"><ele>1523.75</ele><time>2026-04-12T11:10:09.917Z</time></trkpt><trkpt lat="46.51645401540164" lon="12.098027983790336"><ele>1522.5</ele><time>2026-04-12T11:10:10.917Z</time></trkpt><trkpt lat="46.51645170077313" lon="12.098233852173564"><ele>1521.25</ele><time>2026-04-12T11:10:11.917Z</time></trkpt><trkpt lat="46.51644958501528" lon="12.098433222807758"><ele>1520.0</ele><time>2026-04-12T11:10:12.917Z</time></trkpt><trkpt lat="46.516459169186376" lon="12.098613959287487"><ele>1518.75</ele><time>2026-04-12T11:10:13.917Z</time></trkpt><trkpt lat="46.516478084514596" lon="12.098784600155364"><ele>1517.5</ele><time>2026-04-12T11:10:14.917Z</time></trkpt><trkpt lat="46.5164975901592" lon="12.09895155968386"><ele>1516.25</ele><time>2026-04-12T11:10:15.917Z</time></trkpt><trkpt lat="46.516536618926224" lon="12.099099238008913"><ele>1515.0</ele><time>2026-04-12T11:10:16.917Z</time></trkpt><trkpt lat="46.51659822682825" lon="12.09923214690344"><ele>1513.5</ele><time>2026-04-12T11:10:17.917Z</time></trkpt><trkpt lat="46.5166795974448" lon="12.099351348095045"><ele>1512.0</ele><time>2026-04-12T11:10:18.917Z</time></trkpt><trkpt lat="46.51678464708962" lon="12.099463626796068"><ele>1510.5</ele><time>2026-04-12T11:10:19.917Z</time></trkpt><trkpt lat="46.516896514158844" lon="12.0995811999676"><ele>1509.0</ele><time>2026-04-12T11:10:20.917Z</time></trkpt><trkpt lat="46.51700786307875" lon="12.099681579979618"><ele>1512.75</ele><time>2026-04-12T11:10:21.917Z</time></trkpt><trkpt lat="46.51710923246311" lon="12.099771981736499"><ele>1516.5</ele><time>2026-04-12T11:10:22.917Z</time></trkpt><trkpt lat="46.51720191638612" lon="12.099872168885915"><ele>1520.25</ele><time>2026-04-12T11:10:23.917Z</time></trkpt><trkpt lat="46.51727730069696" lon="12.099989369911672"><ele>1524.0</ele><time>2026-04-12T11:10:24.917Z</time></trkpt><trkpt lat="46.51732423005" lon="12.100132615156758"><ele>1524.0</ele><time>2026-04-12T11:10:25.919Z</time></trkpt><trkpt lat="46.51731145641536" lon="12.100283122140194"><ele>1524.0</ele><time>2026-04-12T11:10:26.919Z</time></trkpt><trkpt lat="46.517285633769326" lon="12.100432504949765"><ele>1524.0</ele><time>2026-04-12T11:10:27.919Z</time></trkpt><trkpt lat="46.51727770195315" lon="12.100588702175637"><ele>1524.0</ele><time>2026-04-12T11:10:28.919Z</time></trkpt><trkpt lat="46.51728242835777" lon="12.100747604629921"><ele>1524.0</ele><time>2026-04-12T11:10:29.919Z</time></trkpt><trkpt lat="46.51733791398224" lon="12.100915043781216"><ele>1522.0</ele><time>2026-04-12T11:10:30.919Z</time></trkpt><trkpt lat="46.5174231075178" lon="12.101071039342402"><ele>1520.0</ele><time>2026-04-12T11:10:31.919Z</time></trkpt><trkpt lat="46.517514717119624" lon="12.101239962143849"><ele>1518.0</ele><time>2026-04-12T11:10:32.919Z</time></trkpt><trkpt lat="46.517600370714675" lon="12.101427986972352"><ele>1516.0</ele><time>2026-04-12T11:10:33.919Z</time></trkpt><trkpt lat="46.5177026638804" lon="12.101617590178847"><ele>1514.3333333333333</ele><time>2026-04-12T11:10:34.919Z</time></trkpt><trkpt lat="46.51781634797997" lon="12.101777466668961"><ele>1512.6666666666667</ele><time>2026-04-12T11:10:35.919Z</time></trkpt><trkpt lat="46.51791917954836" lon="12.101937653723196"><ele>1511.0</ele><time>2026-04-12T11:10:36.919Z</time></trkpt><trkpt lat="46.51801394326496" lon="12.10210911645072"><ele>1515.0</ele><time>2026-04-12T11:10:37.919Z</time></trkpt><trkpt lat="46.51813390351701" lon="12.102276761911027"><ele>1519.0</ele><time>2026-04-12T11:10:38.919Z</time></trkpt><trkpt lat="46.51825867297819" lon="12.102450981458848"><ele>1523.0</ele><time>2026-04-12T11:10:39.919Z</time></trkpt><trkpt lat="46.51840486919668" lon="12.102640030453767"><ele>1523.0</ele><time>2026-04-12T11:10:40.919Z</time></trkpt><trkpt lat="46.51856674349225" lon="12.102819265517425"><ele>1523.0</ele><time>2026-04-12T11:10:41.919Z</time></trkpt><trkpt lat="46.518708354320545" lon="12.10301588388584"><ele>1523.0</ele><time>2026-04-12T11:10:42.919Z</time></trkpt><trkpt lat="46.518830388018" lon="12.103170160378077"><ele>1529.0</ele><time>2026-04-12T11:10:43.919Z</time></trkpt><trkpt lat="46.51896238401842" lon="12.10332687297761"><ele>1535.0</ele><time>2026-04-12T11:10:44.919Z</time></trkpt><trkpt lat="46.519067297488654" lon="12.103536882678457"><ele>1541.0</ele><time>2026-04-12T11:10:45.919Z</time></trkpt><trkpt lat="46.51918201481325" lon="12.103740567054803"><ele>1541.0</ele><time>2026-04-12T11:10:46.919Z</time></trkpt><trkpt lat="46.51929725375082" lon="12.103926168842642"><ele>1541.0</ele><time>2026-04-12T11:10:47.919Z</time></trkpt><trkpt lat="46.519393606049476" lon="12.104106563608315"><ele>1541.0</ele><time>2026-04-12T11:10:48.919Z</time></trkpt><trkpt lat="46.51946908179795" lon="12.10430719357823"><ele>1541.3333333333333</ele><time>2026-04-12T11:10:49.919Z</time></trkpt><trkpt lat="46.519526089643456" lon="12.104533669268863"><ele>1541.6666666666665</ele><time>2026-04-12T11:10:50.919Z</time></trkpt><trkpt lat="46.51958751324555" lon="12.104765757189115"><ele>1542.0</ele><time>2026-04-12T11:10:51.919Z</time></trkpt><trkpt lat="46.51961915680317" lon="12.104975017198745"><ele>1542.0</ele><time>2026-04-12T11:10:52.919Z</time></trkpt><trkpt lat="46.5196422197973" lon="12.105192325155398"><ele>1542.0</ele><time>2026-04-12T11:10:53.919Z</time></trkpt><trkpt lat="46.519661452690926" lon="12.105393857312263"><ele>1542.0</ele><time>2026-04-12T11:10:54.919Z</time></trkpt><trkpt lat="46.51968706310768" lon="12.10556138742778"><ele>1542.0</ele><time>2026-04-12T11:10:55.919Z</time></trkpt><trkpt lat="46.51972920410709" lon="12.105704736296824"><ele>1536.25</ele><time>2026-04-12T11:10:56.919Z</time></trkpt><trkpt lat="46.519789563081325" lon="12.105818325043206"><ele>1530.5</ele><time>2026-04-12T11:10:57.919Z</time></trkpt><trkpt lat="46.519888612522124" lon="12.105890509877245"><ele>1524.75</ele><time>2026-04-12T11:10:58.919Z</time></trkpt><trkpt lat="46.51999316356733" lon="12.105960938102251"><ele>1519.0</ele><time>2026-04-12T11:10:59.919Z</time></trkpt><trkpt lat="46.520109579383835" lon="12.106047258771804"><ele>1519.0</ele><time>2026-04-12T11:11:00.919Z</time></trkpt><trkpt lat="46.52024295871753" lon="12.106145179222006"><ele>1519.0</ele><time>2026-04-12T11:11:01.919Z</time></trkpt><trkpt lat="46.52037068959034" lon="12.106251392798068"><ele>1519.0</ele><time>2026-04-12T11:11:02.919Z</time></trkpt><trkpt lat="46.52052169706252" lon="12.10636149699499"><ele>1521.5</ele><time>2026-04-12T11:11:03.919Z</time></trkpt><trkpt lat="46.52064930467304" lon="12.106439952388888"><ele>1524.0</ele><time>2026-04-12T11:11:04.919Z</time></trkpt><trkpt lat="46.52077555372139" lon="12.106553126233582"><ele>1526.5</ele><time>2026-04-12T11:11:05.919Z</time></trkpt><trkpt lat="46.52090444412199" lon="12.106663585591672"><ele>1529.0</ele><time>2026-04-12T11:11:06.919Z</time></trkpt><trkpt lat="46.5210253152714" lon="12.106779774160717"><ele>1529.0</ele><time>2026-04-12T11:11:07.919Z</time></trkpt><trkpt lat="46.521128909981044" lon="12.106942147810914"><ele>1529.0</ele><time>2026-04-12T11:11:08.919Z</time></trkpt><trkpt lat="46.52120339780144" lon="12.107143301747259"><ele>1529.0</ele><time>2026-04-12T11:11:09.919Z</time></trkpt><trkpt lat="46.52129116680668" lon="12.107349026018237"><ele>1535.0</ele><time>2026-04-12T11:11:10.919Z</time></trkpt><trkpt lat="46.52138225909465" lon="12.107521944058455"><ele>1541.0</ele><time>2026-04-12T11:11:11.919Z</time></trkpt><trkpt lat="46.521454873892935" lon="12.107700342238147"><ele>1547.0</ele><time>2026-04-12T11:11:12.919Z</time></trkpt><trkpt lat="46.52148511566473" lon="12.107907299057734"><ele>1553.0</ele><time>2026-04-12T11:11:13.919Z</time></trkpt><trkpt lat="46.521505020430716" lon="12.108136925713703"><ele>1550.0</ele><time>2026-04-12T11:11:14.919Z</time></trkpt><trkpt lat="46.5215276313875" lon="12.108379737532053"><ele>1547.0</ele><time>2026-04-12T11:11:15.919Z</time></trkpt><trkpt lat="46.52155650582971" lon="12.108625605305239"><ele>1544.0</ele><time>2026-04-12T11:11:16.919Z</time></trkpt><trkpt lat="46.52156804131484" lon="12.10883918132635"><ele>1544.0</ele><time>2026-04-12T11:11:17.919Z</time></trkpt><trkpt lat="46.52157404192029" lon="12.109049399385865"><ele>1544.0</ele><time>2026-04-12T11:11:18.919Z</time></trkpt><trkpt lat="46.52156163126257" lon="12.109259960578024"><ele>1544.0</ele><time>2026-04-12T11:11:19.919Z</time></trkpt><trkpt lat="46.52154006913774" lon="12.109456433295454"><ele>1544.0</ele><time>2026-04-12T11:11:20.919Z</time></trkpt><trkpt lat="46.52148701501948" lon="12.109659060523551"><ele>1542.5</ele><time>2026-04-12T11:11:21.919Z</time></trkpt><trkpt lat="46.52142821169771" lon="12.10984755656254"><ele>1541.0</ele><time>2026-04-12T11:11:22.919Z</time></trkpt><trkpt lat="46.521357751106244" lon="12.110033134675469"><ele>1539.5</ele><time>2026-04-12T11:11:23.919Z</time></trkpt><trkpt lat="46.52132030928867" lon="12.110199075500017"><ele>1538.0</ele><time>2026-04-12T11:11:24.919Z</time></trkpt><trkpt lat="46.521322999893165" lon="12.110339065719497"><ele>1537.6000000000001</ele><time>2026-04-12T11:11:25.919Z</time></trkpt><trkpt lat="46.52131776797906" lon="12.110506351774172"><ele>1537.2</ele><time>2026-04-12T11:11:26.919Z</time></trkpt><trkpt lat="46.52136693628876" lon="12.110409054334383"><ele>1536.8</ele><time>2026-04-12T11:11:27.919Z</time></trkpt><trkpt lat="46.52142382488532" lon="12.110514586281996"><ele>1536.4</ele><time>2026-04-12T11:11:28.919Z</time></trkpt><trkpt lat="46.52148804943729" lon="12.110609440336988"><ele>1536.0</ele><time>2026-04-12T11:11:29.919Z</time></trkpt><trkpt lat="46.52157018326934" lon="12.110647845482088"><ele>1536.0</ele><time>2026-04-12T11:11:30.919Z</time></trkpt><trkpt lat="46.52166746155994" lon="12.11064719406218"><ele>1536.0</ele><time>2026-04-12T11:11:31.919Z</time></trkpt><trkpt lat="46.521755785366395" lon="12.110606743546448"><ele>1536.0</ele><time>2026-04-12T11:11:32.919Z</time></trkpt><trkpt lat="46.52185142982381" lon="12.110534300245643"><ele>1536.0</ele><time>2026-04-12T11:11:33.919Z</time></trkpt><trkpt lat="46.52194808743077" lon="12.110442546126157"><ele>1536.0</ele><time>2026-04-12T11:11:34.919Z</time></trkpt><trkpt lat="46.52204181138359" lon="12.110370603058977"><ele>1537.0</ele><time>2026-04-12T11:11:35.919Z</time></trkpt><trkpt lat="46.522131274729794" lon="12.110310587145582"><ele>1538.0</ele><time>2026-04-12T11:11:36.919Z</time></trkpt><trkpt lat="46.522213589510564" lon="12.110257648377651"><ele>1539.0</ele><time>2026-04-12T11:11:37.919Z</time></trkpt><trkpt lat="46.52227519325639" lon="12.110210710433542"><ele>1540.0</ele><time>2026-04-12T11:11:38.919Z</time></trkpt><trkpt lat="46.52236929533142" lon="12.110128173924933"><ele>1541.0</ele><time>2026-04-12T11:11:40.919Z</time></trkpt><trkpt lat="46.52247030198724" lon="12.110079215112941"><ele>1541.0</ele><time>2026-04-12T11:11:42.919Z</time></trkpt><trkpt lat="46.52253414409544" lon="12.110209937126676"><ele>1541.0</ele><time>2026-04-12T11:11:44.919Z</time></trkpt><trkpt lat="46.522572129312714" lon="12.110315415302221"><ele>1541.0</ele><time>2026-04-12T11:11:45.919Z</time></trkpt><trkpt lat="46.522632608800464" lon="12.11042901713849"><ele>1541.0</ele><time>2026-04-12T11:11:46.919Z</time></trkpt><trkpt lat="46.52269304210336" lon="12.110572969246451"><ele>1541.0</ele><time>2026-04-12T11:11:47.919Z</time></trkpt><trkpt lat="46.522775089207585" lon="12.110713658919922"><ele>1541.5</ele><time>2026-04-12T11:11:48.919Z</time></trkpt><trkpt lat="46.522878648736956" lon="12.11085770486508"><ele>1542.0</ele><time>2026-04-12T11:11:49.919Z</time></trkpt><trkpt lat="46.522987455633306" lon="12.1109569437994"><ele>1542.5</ele><time>2026-04-12T11:11:50.919Z</time></trkpt><trkpt lat="46.523103036279416" lon="12.11106203548036"><ele>1543.0</ele><time>2026-04-12T11:11:51.919Z</time></trkpt><trkpt lat="46.52321791436772" lon="12.111163461154682"><ele>1542.0</ele><time>2026-04-12T11:11:52.919Z</time></trkpt><trkpt lat="46.52332780532273" lon="12.111279488897097"><ele>1541.0</ele><time>2026-04-12T11:11:53.919Z</time></trkpt><trkpt lat="46.52343913889053" lon="12.111394404570461"><ele>1540.0</ele><time>2026-04-12T11:11:54.919Z</time></trkpt><trkpt lat="46.52355357081938" lon="12.11148756045525"><ele>1539.0</ele><time>2026-04-12T11:11:55.919Z</time></trkpt><trkpt lat="46.52365694877103" lon="12.111591798928066"><ele>1537.5</ele><time>2026-04-12T11:11:56.919Z</time></trkpt><trkpt lat="46.52375815925739" lon="12.111690164379073"><ele>1536.0</ele><time>2026-04-12T11:11:57.919Z</time></trkpt><trkpt lat="46.52385908527169" lon="12.111781937102776"><ele>1534.5</ele><time>2026-04-12T11:11:58.919Z</time></trkpt><trkpt lat="46.52395399968496" lon="12.111869385210298"><ele>1533.0</ele><time>2026-04-12T11:11:59.919Z</time></trkpt><trkpt lat="46.52404808980838" lon="12.111960665225855"><ele>1533.0</ele><time>2026-04-12T11:12:00.919Z</time></trkpt><trkpt lat="46.52413471215593" lon="12.112048034677423"><ele>1533.0</ele><time>2026-04-12T11:12:01.919Z</time></trkpt><trkpt lat="46.52420624244351" lon="12.112147246649199"><ele>1533.0</ele><time>2026-04-12T11:12:02.919Z</time></trkpt><trkpt lat="46.52427092969939" lon="12.112274040224039"><ele>1533.0</ele><time>2026-04-12T11:12:03.919Z</time></trkpt><trkpt lat="46.52431852722341" lon="12.11241768830192"><ele>1533.0</ele><time>2026-04-12T11:12:04.919Z</time></trkpt><trkpt lat="46.52436164759917" lon="12.112568726567966"><ele>1533.0</ele><time>2026-04-12T11:12:05.919Z</time></trkpt><trkpt lat="46.52439967352624" lon="12.112715891532503"><ele>1533.0</ele><time>2026-04-12T11:12:06.919Z</time></trkpt><trkpt lat="46.5244271428796" lon="12.112864853756534"><ele>1533.0</ele><time>2026-04-12T11:12:07.919Z</time></trkpt><trkpt lat="46.52442724155393" lon="12.11303185142698"><ele>1533.0</ele><time>2026-04-12T11:12:08.919Z</time></trkpt><trkpt lat="46.52436618700706" lon="12.113183047521254"><ele>1533.0</ele><time>2026-04-12T11:12:09.919Z</time></trkpt><trkpt lat="46.524317139337256" lon="12.113320237314978"><ele>1533.0</ele><time>2026-04-12T11:12:10.919Z</time></trkpt><trkpt lat="46.524225364432596" lon="12.113416735779818"><ele>1533.0</ele><time>2026-04-12T11:12:11.919Z</time></trkpt><trkpt lat="46.52410925731473" lon="12.113475115432204"><ele>1533.0</ele><time>2026-04-12T11:12:12.919Z</time></trkpt><trkpt lat="46.52399084389556" lon="12.11353818923835"><ele>1533.0</ele><time>2026-04-12T11:12:13.919Z</time></trkpt><trkpt lat="46.52386584789949" lon="12.113612924518106"><ele>1533.0</ele><time>2026-04-12T11:12:14.919Z</time></trkpt><trkpt lat="46.52373450422172" lon="12.113667783907752"><ele>1533.0</ele><time>2026-04-12T11:12:15.919Z</time></trkpt><trkpt lat="46.52361886852832" lon="12.113686538298278"><ele>1533.0</ele><time>2026-04-12T11:12:16.919Z</time></trkpt><trkpt lat="46.52352023403116" lon="12.113722676297161"><ele>1531.8000000000002</ele><time>2026-04-12T11:12:17.919Z</time></trkpt><trkpt lat="46.52341228621734" lon="12.1137062534373"><ele>1530.6</ele><time>2026-04-12T11:12:18.919Z</time></trkpt><trkpt lat="46.5233082081047" lon="12.113674680304555"><ele>1529.4</ele><time>2026-04-12T11:12:19.919Z</time></trkpt><trkpt lat="46.523211652709975" lon="12.113644787132067"><ele>1528.1999999999998</ele><time>2026-04-12T11:12:20.919Z</time></trkpt><trkpt lat="46.52312194737046" lon="12.113631618109572"><ele>1527.0</ele><time>2026-04-12T11:12:21.919Z</time></trkpt><trkpt lat="46.52304635809137" lon="12.113637205404224"><ele>1527.0</ele><time>2026-04-12T11:12:22.919Z</time></trkpt><trkpt lat="46.522982389712006" lon="12.113692122246029"><ele>1527.0</ele><time>2026-04-12T11:12:23.919Z</time></trkpt><trkpt lat="46.52294720317713" lon="12.113801632460966"><ele>1527.0</ele><time>2026-04-12T11:12:24.919Z</time></trkpt><trkpt lat="46.52296193406235" lon="12.113914627422457"><ele>1527.0</ele><time>2026-04-12T11:12:25.919Z</time></trkpt><trkpt lat="46.523027708878686" lon="12.113992422681049"><ele>1527.0</ele><time>2026-04-12T11:12:26.919Z</time></trkpt><trkpt lat="46.523107208434716" lon="12.114039431013722"><ele>1527.0</ele><time>2026-04-12T11:12:27.919Z</time></trkpt><trkpt lat="46.52321076016923" lon="12.11398910712631"><ele>1527.0</ele><time>2026-04-12T11:12:28.919Z</time></trkpt><trkpt lat="46.52329038072817" lon="12.114001212120463"><ele>1527.0</ele><time>2026-04-12T11:12:29.919Z</time></trkpt><trkpt lat="46.52336019589882" lon="12.114009804626834"><ele>1527.0</ele><time>2026-04-12T11:12:30.919Z</time></trkpt><trkpt lat="46.52341199209218" lon="12.11410296317888"><ele>1527.0</ele><time>2026-04-12T11:12:31.92Z</time></trkpt><trkpt lat="46.52342273438639" lon="12.114227214103355"><ele>1527.0</ele><time>2026-04-12T11:12:32.92Z</time></trkpt><trkpt lat="46.52336661477261" lon="12.114336890471144"><ele>1527.0</ele><time>2026-04-12T11:12:33.92Z</time></trkpt><trkpt lat="46.523275670627484" lon="12.114384885202657"><ele>1527.25</ele><time>2026-04-12T11:12:34.92Z</time></trkpt><trkpt lat="46.523182007515715" lon="12.114462359268947"><ele>1527.5</ele><time>2026-04-12T11:12:35.92Z</time></trkpt><trkpt lat="46.523077346589076" lon="12.114561171783343"><ele>1527.75</ele><time>2026-04-12T11:12:36.92Z</time></trkpt><trkpt lat="46.522964470086826" lon="12.114653799811501"><ele>1528.0</ele><time>2026-04-12T11:12:37.92Z</time></trkpt><trkpt lat="46.52287291306315" lon="12.114742938530714"><ele>1525.6000000000001</ele><time>2026-04-12T11:12:38.92Z</time></trkpt><trkpt lat="46.52279029286034" lon="12.11479074487379"><ele>1523.2</ele><time>2026-04-12T11:12:39.92Z</time></trkpt><trkpt lat="46.52269100335" lon="12.114794176164523"><ele>1520.8</ele><time>2026-04-12T11:12:40.92Z</time></trkpt><trkpt lat="46.522603386848154" lon="12.114727022383116"><ele>1518.4</ele><time>2026-04-12T11:12:41.92Z</time></trkpt><trkpt lat="46.52254792197924" lon="12.114602560726771"><ele>1516.0</ele><time>2026-04-12T11:12:42.92Z</time></trkpt><trkpt lat="46.52252383180078" lon="12.114502785109892"><ele>1516.0</ele><time>2026-04-12T11:12:43.92Z</time></trkpt><trkpt lat="46.52247371782494" lon="12.114282576533027"><ele>1516.0</ele><time>2026-04-12T11:12:44.92Z</time></trkpt><trkpt lat="46.522382945579224" lon="12.114069453401234"><ele>1516.0</ele><time>2026-04-12T11:12:45.92Z</time></trkpt><trkpt lat="46.522331137288965" lon="12.113902978677455"><ele>1515.5</ele><time>2026-04-12T11:12:46.92Z</time></trkpt><trkpt lat="46.52227506089251" lon="12.113753944059166"><ele>1515.0</ele><time>2026-04-12T11:12:47.92Z</time></trkpt><trkpt lat="46.522223978185416" lon="12.113597582876876"><ele>1514.5</ele><time>2026-04-12T11:12:48.92Z</time></trkpt><trkpt lat="46.52215695345259" lon="12.113452902973146"><ele>1514.0</ele><time>2026-04-12T11:12:49.92Z</time></trkpt><trkpt lat="46.52208137349142" lon="12.113338962689099"><ele>1514.2</ele><time>2026-04-12T11:12:50.92Z</time></trkpt><trkpt lat="46.521983411963305" lon="12.11325302122459"><ele>1514.4</ele><time>2026-04-12T11:12:51.92Z</time></trkpt><trkpt lat="46.52186953076546" lon="12.113214519113813"><ele>1514.6</ele><time>2026-04-12T11:12:52.92Z</time></trkpt><trkpt lat="46.521768924305185" lon="12.113181740009962"><ele>1514.8</ele><time>2026-04-12T11:12:53.92Z</time></trkpt><trkpt lat="46.521682141302314" lon="12.113153559682186"><ele>1515.0</ele><time>2026-04-12T11:12:54.92Z</time></trkpt><trkpt lat="46.521595496371575" lon="12.113158146716335"><ele>1515.0</ele><time>2026-04-12T11:12:55.92Z</time></trkpt><trkpt lat="46.52151819822295" lon="12.113217634129066"><ele>1515.0</ele><time>2026-04-12T11:12:56.92Z</time></trkpt><trkpt lat="46.52149126228569" lon="12.113334749255788"><ele>1515.0</ele><time>2026-04-12T11:12:57.92Z</time></trkpt><trkpt lat="46.52146653902874" lon="12.113455362812504"><ele>1515.0</ele><time>2026-04-12T11:12:58.92Z</time></trkpt><trkpt lat="46.521534518018775" lon="12.113587125585981"><ele>1515.0</ele><time>2026-04-12T11:12:59.92Z</time></trkpt><trkpt lat="46.52161411893787" lon="12.11370780726159"><ele>1513.75</ele><time>2026-04-12T11:13:00.92Z</time></trkpt><trkpt lat="46.52169972859618" lon="12.113843200003041"><ele>1512.5</ele><time>2026-04-12T11:13:01.92Z</time></trkpt><trkpt lat="46.52179178379165" lon="12.113986732243381"><ele>1511.25</ele><time>2026-04-12T11:13:02.92Z</time></trkpt><trkpt lat="46.52185840265537" lon="12.114146320029805"><ele>1510.0</ele><time>2026-04-12T11:13:03.92Z</time></trkpt><trkpt lat="46.521923269164624" lon="12.114281388252477"><ele>1507.8</ele><time>2026-04-12T11:13:04.92Z</time></trkpt><trkpt lat="46.5219095482896" lon="12.114401837068145"><ele>1505.6</ele><time>2026-04-12T11:13:05.92Z</time></trkpt><trkpt lat="46.52191950632903" lon="12.114555037297684"><ele>1503.4</ele><time>2026-04-12T11:13:06.92Z</time></trkpt><trkpt lat="46.521897655371596" lon="12.114699939806046"><ele>1501.2</ele><time>2026-04-12T11:13:07.92Z</time></trkpt><trkpt lat="46.52187498421812" lon="12.11480954509778"><ele>1499.0</ele><time>2026-04-12T11:13:08.92Z</time></trkpt><trkpt lat="46.52188243205417" lon="12.114935258955098"><ele>1501.75</ele><time>2026-04-12T11:13:09.92Z</time></trkpt><trkpt lat="46.52193185018952" lon="12.115087124633762"><ele>1504.5</ele><time>2026-04-12T11:13:10.92Z</time></trkpt><trkpt lat="46.522010441185344" lon="12.115256374613653"><ele>1507.25</ele><time>2026-04-12T11:13:11.92Z</time></trkpt><trkpt lat="46.522106467278014" lon="12.115380102823021"><ele>1510.0</ele><time>2026-04-12T11:13:12.92Z</time></trkpt><trkpt lat="46.52221388648104" lon="12.115501723649752"><ele>1510.0</ele><time>2026-04-12T11:13:13.92Z</time></trkpt><trkpt lat="46.52232347894214" lon="12.115613394211682"><ele>1510.0</ele><time>2026-04-12T11:13:14.92Z</time></trkpt><trkpt lat="46.522432419519035" lon="12.11571227945742"><ele>1510.0</ele><time>2026-04-12T11:13:15.92Z</time></trkpt><trkpt lat="46.52255250478339" lon="12.1158351439125"><ele>1510.0</ele><time>2026-04-12T11:13:16.92Z</time></trkpt><trkpt lat="46.522668105647156" lon="12.115949973565325"><ele>1510.0</ele><time>2026-04-12T11:13:17.92Z</time></trkpt><trkpt lat="46.522770359521864" lon="12.116057618539179"><ele>1510.0</ele><time>2026-04-12T11:13:18.92Z</time></trkpt><trkpt lat="46.52285562351895" lon="12.116139544202492"><ele>1510.0</ele><time>2026-04-12T11:13:19.92Z</time></trkpt><trkpt lat="46.52291879707277" lon="12.116198117722924"><ele>1510.0</ele><time>2026-04-12T11:13:20.92Z</time></trkpt><trkpt lat="46.52297577912036" lon="12.116271096817082"><ele>1510.0</ele><time>2026-04-12T11:13:21.92Z</time></trkpt><trkpt lat="46.52302896417457" lon="12.116326727083326"><ele>1510.0</ele><time>2026-04-12T11:13:22.92Z</time></trkpt><trkpt lat="46.5230807845377" lon="12.116402993639928"><ele>1508.0</ele><time>2026-04-12T11:13:23.92Z</time></trkpt><trkpt lat="46.523027239608815" lon="12.1165748830158"><ele>1506.0</ele><time>2026-04-12T11:13:25.92Z</time></trkpt><trkpt lat="46.522945927555966" lon="12.116611296458492"><ele>1504.0</ele><time>2026-04-12T11:13:26.92Z</time></trkpt><trkpt lat="46.522868954412516" lon="12.11658055642094"><ele>1502.0</ele><time>2026-04-12T11:13:27.92Z</time></trkpt><trkpt lat="46.52278447942682" lon="12.116409631510528"><ele>1500.0</ele><time>2026-04-12T11:13:28.92Z</time></trkpt><trkpt lat="46.52267444555289" lon="12.116321718031934"><ele>1498.25</ele><time>2026-04-12T11:13:29.92Z</time></trkpt><trkpt lat="46.52258164294857" lon="12.116191304049899"><ele>1496.5</ele><time>2026-04-12T11:13:30.92Z</time></trkpt><trkpt lat="46.52246543543246" lon="12.116097379403204"><ele>1494.75</ele><time>2026-04-12T11:13:31.92Z</time></trkpt><trkpt lat="46.52235438641392" lon="12.11601173306693"><ele>1493.0</ele><time>2026-04-12T11:13:32.92Z</time></trkpt><trkpt lat="46.52223774527277" lon="12.115918970123971"><ele>1493.0</ele><time>2026-04-12T11:13:33.92Z</time></trkpt><trkpt lat="46.522117116477695" lon="12.115822397111023"><ele>1493.0</ele><time>2026-04-12T11:13:34.92Z</time></trkpt><trkpt lat="46.521993574223195" lon="12.115731881309342"><ele>1493.0</ele><time>2026-04-12T11:13:35.92Z</time></trkpt><trkpt lat="46.52187677399224" lon="12.115667134351362"><ele>1493.0</ele><time>2026-04-12T11:13:36.92Z</time></trkpt><trkpt lat="46.521766754840044" lon="12.115583490418059"><ele>1490.75</ele><time>2026-04-12T11:13:37.92Z</time></trkpt><trkpt lat="46.521662380585894" lon="12.11548180819172"><ele>1488.5</ele><time>2026-04-12T11:13:38.92Z</time></trkpt><trkpt lat="46.52159161794325" lon="12.115333953918475"><ele>1486.25</ele><time>2026-04-12T11:13:39.92Z</time></trkpt><trkpt lat="46.52156115091078" lon="12.115182588102307"><ele>1484.0</ele><time>2026-04-12T11:13:40.92Z</time></trkpt><trkpt lat="46.5215080593118" lon="12.115036526220226"><ele>1484.0</ele><time>2026-04-12T11:13:41.92Z</time></trkpt><trkpt lat="46.52151019981513" lon="12.114916394290223"><ele>1484.0</ele><time>2026-04-12T11:13:42.92Z</time></trkpt><trkpt lat="46.52146122982121" lon="12.114850752618946"><ele>1484.0</ele><time>2026-04-12T11:13:43.92Z</time></trkpt><trkpt lat="46.521359705681334" lon="12.11470063077206"><ele>1484.0</ele><time>2026-04-12T11:13:44.92Z</time></trkpt><trkpt lat="46.52116056086399" lon="12.114631063951256"><ele>1484.6</ele><time>2026-04-12T11:13:45.92Z</time></trkpt><trkpt lat="46.52104343413771" lon="12.114595056307444"><ele>1485.2</ele><time>2026-04-12T11:13:46.92Z</time></trkpt><trkpt lat="46.52093645227869" lon="12.114559843125647"><ele>1485.8</ele><time>2026-04-12T11:13:47.92Z</time></trkpt><trkpt lat="46.52083555398679" lon="12.114505745726031"><ele>1486.3999999999999</ele><time>2026-04-12T11:13:48.92Z</time></trkpt><trkpt lat="46.52074375710104" lon="12.114460497641657"><ele>1487.0</ele><time>2026-04-12T11:13:49.92Z</time></trkpt><trkpt lat="46.52066550246997" lon="12.114394733066177"><ele>1487.0</ele><time>2026-04-12T11:13:50.92Z</time></trkpt><trkpt lat="46.52060761764948" lon="12.11433612499871"><ele>1487.0</ele><time>2026-04-12T11:13:51.92Z</time></trkpt><trkpt lat="46.52050138311719" lon="12.114281590616443"><ele>1487.0</ele><time>2026-04-12T11:13:53.92Z</time></trkpt><trkpt lat="46.52043191684577" lon="12.11431201001089"><ele>1487.0</ele><time>2026-04-12T11:13:54.92Z</time></trkpt><trkpt lat="46.520378556796224" lon="12.114405428116342"><ele>1487.0</ele><time>2026-04-12T11:13:55.92Z</time></trkpt><trkpt lat="46.52037200483915" lon="12.114520700128399"><ele>1487.0</ele><time>2026-04-12T11:13:56.92Z</time></trkpt><trkpt lat="46.52042367526487" lon="12.114631109706423"><ele>1487.0</ele><time>2026-04-12T11:13:57.92Z</time></trkpt><trkpt lat="46.520521774503884" lon="12.114705352387595"><ele>1487.0</ele><time>2026-04-12T11:13:58.92Z</time></trkpt><trkpt lat="46.52065806477484" lon="12.114762778288586"><ele>1487.0</ele><time>2026-04-12T11:13:59.92Z</time></trkpt><trkpt lat="46.52076880030056" lon="12.114829827050936"><ele>1487.0</ele><time>2026-04-12T11:14:00.92Z</time></trkpt><trkpt lat="46.52088477561101" lon="12.114824395355399"><ele>1487.0</ele><time>2026-04-12T11:14:02.92Z</time></trkpt><trkpt lat="46.5209802763352" lon="12.114876607169936"><ele>1487.0</ele><time>2026-04-12T11:14:03.92Z</time></trkpt><trkpt lat="46.521084573514315" lon="12.114917081989452"><ele>1487.0</ele><time>2026-04-12T11:14:04.92Z</time></trkpt><trkpt lat="46.52117194835944" lon="12.114970240577303"><ele>1487.0</ele><time>2026-04-12T11:14:05.92Z</time></trkpt><trkpt lat="46.521238906320406" lon="12.115078378642119"><ele>1487.0</ele><time>2026-04-12T11:14:06.92Z</time></trkpt><trkpt lat="46.52124105396089" lon="12.11522563535999"><ele>1482.0</ele><time>2026-04-12T11:14:07.92Z</time></trkpt><trkpt lat="46.521224725815344" lon="12.115394143921607"><ele>1477.0</ele><time>2026-04-12T11:14:08.92Z</time></trkpt><trkpt lat="46.52121234400994" lon="12.1156242029222"><ele>1472.0</ele><time>2026-04-12T11:14:09.92Z</time></trkpt><trkpt lat="46.521246131446354" lon="12.115841483056684"><ele>1467.0</ele><time>2026-04-12T11:14:10.92Z</time></trkpt><trkpt lat="46.521276357500064" lon="12.116050708041733"><ele>1467.0</ele><time>2026-04-12T11:14:11.92Z</time></trkpt><trkpt lat="46.52133035219284" lon="12.116259905082092"><ele>1467.0</ele><time>2026-04-12T11:14:12.92Z</time></trkpt><trkpt lat="46.52137936974102" lon="12.116492212171716"><ele>1467.0</ele><time>2026-04-12T11:14:13.92Z</time></trkpt><trkpt lat="46.52143054239363" lon="12.116709691470493"><ele>1463.25</ele><time>2026-04-12T11:14:14.92Z</time></trkpt><trkpt lat="46.52146481957356" lon="12.116930963254564"><ele>1459.5</ele><time>2026-04-12T11:14:15.92Z</time></trkpt><trkpt lat="46.52150254676954" lon="12.11712991954173"><ele>1455.75</ele><time>2026-04-12T11:14:16.92Z</time></trkpt><trkpt lat="46.521561654001495" lon="12.117321284444897"><ele>1452.0</ele><time>2026-04-12T11:14:17.92Z</time></trkpt><trkpt lat="46.52162153790737" lon="12.117509572166997"><ele>1450.25</ele><time>2026-04-12T11:14:18.92Z</time></trkpt><trkpt lat="46.52170709897804" lon="12.117679719738177"><ele>1448.5</ele><time>2026-04-12T11:14:19.92Z</time></trkpt><trkpt lat="46.521793090519125" lon="12.117850978018678"><ele>1446.75</ele><time>2026-04-12T11:14:20.92Z</time></trkpt><trkpt lat="46.521895436209675" lon="12.117991773111434"><ele>1445.0</ele><time>2026-04-12T11:14:21.92Z</time></trkpt><trkpt lat="46.522008040038706" lon="12.118121672725508"><ele>1449.0</ele><time>2026-04-12T11:14:22.92Z</time></trkpt><trkpt lat="46.52211464692825" lon="12.118244401117545"><ele>1453.0</ele><time>2026-04-12T11:14:23.92Z</time></trkpt><trkpt lat="46.522215681523484" lon="12.118354724105464"><ele>1457.0</ele><time>2026-04-12T11:14:24.92Z</time></trkpt><trkpt lat="46.522296031461266" lon="12.118458962275536"><ele>1461.0</ele><time>2026-04-12T11:14:25.92Z</time></trkpt><trkpt lat="46.52232558462416" lon="12.118605876467129"><ele>1461.0</ele><time>2026-04-12T11:14:26.92Z</time></trkpt><trkpt lat="46.52232788945315" lon="12.118788092761667"><ele>1461.0</ele><time>2026-04-12T11:14:27.92Z</time></trkpt><trkpt lat="46.52233909464444" lon="12.118986200952914"><ele>1461.0</ele><time>2026-04-12T11:14:28.92Z</time></trkpt><trkpt lat="46.52234864314607" lon="12.119169902762566"><ele>1461.0</ele><time>2026-04-12T11:14:29.92Z</time></trkpt><trkpt lat="46.52235771319796" lon="12.119347733279682"><ele>1459.4</ele><time>2026-04-12T11:14:30.92Z</time></trkpt><trkpt lat="46.522367076503855" lon="12.119522921927954"><ele>1457.8</ele><time>2026-04-12T11:14:31.92Z</time></trkpt><trkpt lat="46.522376139074915" lon="12.119681423550048"><ele>1456.2</ele><time>2026-04-12T11:14:32.92Z</time></trkpt><trkpt lat="46.52238381621071" lon="12.119817406134617"><ele>1454.6000000000001</ele><time>2026-04-12T11:14:33.92Z</time></trkpt><trkpt lat="46.52239059127839" lon="12.11994480691826"><ele>1453.0</ele><time>2026-04-12T11:14:34.92Z</time></trkpt><trkpt lat="46.52241706041474" lon="12.120106552711963"><ele>1448.8000000000002</ele><time>2026-04-12T11:14:36.92Z</time></trkpt><trkpt lat="46.522487119710945" lon="12.12021039494788"><ele>1444.6</ele><time>2026-04-12T11:14:37.921Z</time></trkpt><trkpt lat="46.52259803792118" lon="12.120248214377165"><ele>1440.4</ele><time>2026-04-12T11:14:38.921Z</time></trkpt><trkpt lat="46.52267998022336" lon="12.120282122645792"><ele>1436.1999999999998</ele><time>2026-04-12T11:14:39.921Z</time></trkpt><trkpt lat="46.52276547630973" lon="12.120305705443654"><ele>1432.0</ele><time>2026-04-12T11:14:40.921Z</time></trkpt><trkpt lat="46.522853391793994" lon="12.120330634206578"><ele>1436.5</ele><time>2026-04-12T11:14:41.921Z</time></trkpt><trkpt lat="46.52293136504042" lon="12.120354833604944"><ele>1441.0</ele><time>2026-04-12T11:14:42.921Z</time></trkpt><trkpt lat="46.52300877874282" lon="12.120378176379186"><ele>1445.5</ele><time>2026-04-12T11:14:43.921Z</time></trkpt><trkpt lat="46.52308414654502" lon="12.120394898203196"><ele>1450.0</ele><time>2026-04-12T11:14:44.921Z</time></trkpt><trkpt lat="46.52317002619988" lon="12.120402593730123"><ele>1454.5</ele><time>2026-04-12T11:14:45.921Z</time></trkpt><trkpt lat="46.52325537354551" lon="12.120385437782225"><ele>1459.0</ele><time>2026-04-12T11:14:46.921Z</time></trkpt><trkpt lat="46.52334531557098" lon="12.120344782051996"><ele>1459.0</ele><time>2026-04-12T11:14:47.921Z</time></trkpt><trkpt lat="46.523434371246196" lon="12.120256770100559"><ele>1459.0</ele><time>2026-04-12T11:14:48.921Z</time></trkpt><trkpt lat="46.52352603946901" lon="12.120201049731973"><ele>1459.0</ele><time>2026-04-12T11:14:49.921Z</time></trkpt><trkpt lat="46.52361103013975" lon="12.120130531333814"><ele>1459.0</ele><time>2026-04-12T11:14:50.921Z</time></trkpt><trkpt lat="46.523697288674065" lon="12.120034210924786"><ele>1459.0</ele><time>2026-04-12T11:14:51.921Z</time></trkpt><trkpt lat="46.52380996579848" lon="12.11997555348441"><ele>1442.5</ele><time>2026-04-12T11:14:52.921Z</time></trkpt><trkpt lat="46.5239131951235" lon="12.119892342952673"><ele>1426.0</ele><time>2026-04-12T11:14:53.921Z</time></trkpt><trkpt lat="46.52403784956871" lon="12.119890716838887"><ele>1409.5</ele><time>2026-04-12T11:14:54.921Z</time></trkpt><trkpt lat="46.52415912404533" lon="12.11990422204437"><ele>1393.0</ele><time>2026-04-12T11:14:55.921Z</time></trkpt><trkpt lat="46.524300133258784" lon="12.119908232070483"><ele>1393.0</ele><time>2026-04-12T11:14:56.921Z</time></trkpt><trkpt lat="46.524440393185074" lon="12.11994042732587"><ele>1393.0</ele><time>2026-04-12T11:14:57.921Z</time></trkpt><trkpt lat="46.52459436883133" lon="12.119961123847222"><ele>1393.0</ele><time>2026-04-12T11:14:58.921Z</time></trkpt><trkpt lat="46.52474798991585" lon="12.12000239636609"><ele>1395.3333333333333</ele><time>2026-04-12T11:14:59.921Z</time></trkpt><trkpt lat="46.524929555988145" lon="12.12003468212677"><ele>1397.6666666666667</ele><time>2026-04-12T11:15:00.921Z</time></trkpt><trkpt lat="46.525082865213896" lon="12.120061031140455"><ele>1400.0</ele><time>2026-04-12T11:15:01.921Z</time></trkpt><trkpt lat="46.52522709476666" lon="12.120088593953687"><ele>1400.0</ele><time>2026-04-12T11:15:02.921Z</time></trkpt><trkpt lat="46.52537867949316" lon="12.120126630105592"><ele>1400.0</ele><time>2026-04-12T11:15:03.921Z</time></trkpt><trkpt lat="46.52552759851394" lon="12.120180026197488"><ele>1400.0</ele><time>2026-04-12T11:15:04.921Z</time></trkpt><trkpt lat="46.52565305989659" lon="12.120239553672523"><ele>1400.0</ele><time>2026-04-12T11:15:05.921Z</time></trkpt><trkpt lat="46.5257837633056" lon="12.120334125907505"><ele>1400.8</ele><time>2026-04-12T11:15:06.921Z</time></trkpt><trkpt lat="46.52588892472501" lon="12.120450821633504"><ele>1401.6</ele><time>2026-04-12T11:15:07.921Z</time></trkpt><trkpt lat="46.52595671233376" lon="12.12054423954183"><ele>1402.4</ele><time>2026-04-12T11:15:08.921Z</time></trkpt><trkpt lat="46.52600829888489" lon="12.120610899431407"><ele>1403.2</ele><time>2026-04-12T11:15:09.921Z</time></trkpt><trkpt lat="46.526100744113556" lon="12.120638137200485"><ele>1404.0</ele><time>2026-04-12T11:15:10.921Z</time></trkpt><trkpt lat="46.526270756055375" lon="12.120665997455328"><ele>1405.75</ele><time>2026-04-12T11:15:11.921Z</time></trkpt><trkpt lat="46.526401052137345" lon="12.120620574564645"><ele>1407.5</ele><time>2026-04-12T11:15:12.921Z</time></trkpt><trkpt lat="46.52652198091132" lon="12.120608972443058"><ele>1409.25</ele><time>2026-04-12T11:15:13.921Z</time></trkpt><trkpt lat="46.526644180692536" lon="12.12062140944481"><ele>1411.0</ele><time>2026-04-12T11:15:14.921Z</time></trkpt><trkpt lat="46.52681277704413" lon="12.12054862571456"><ele>1411.0</ele><time>2026-04-12T11:15:15.921Z</time></trkpt><trkpt lat="46.52694176751875" lon="12.12058051364191"><ele>1411.0</ele><time>2026-04-12T11:15:16.921Z</time></trkpt><trkpt lat="46.52708435434469" lon="12.120655111125924"><ele>1411.0</ele><time>2026-04-12T11:15:17.921Z</time></trkpt><trkpt lat="46.527242611770745" lon="12.120758701209038"><ele>1401.6666666666665</ele><time>2026-04-12T11:15:18.921Z</time></trkpt><trkpt lat="46.52737445133527" lon="12.120884729521103"><ele>1392.3333333333333</ele><time>2026-04-12T11:15:19.921Z</time></trkpt><trkpt lat="46.52749320856881" lon="12.12101656854584"><ele>1383.0</ele><time>2026-04-12T11:15:20.921Z</time></trkpt><trkpt lat="46.52761409868538" lon="12.121133918325302"><ele>1383.0</ele><time>2026-04-12T11:15:21.921Z</time></trkpt><trkpt lat="46.52773578445127" lon="12.121235473649657"><ele>1383.0</ele><time>2026-04-12T11:15:22.921Z</time></trkpt><trkpt lat="46.5278625897596" lon="12.121321547758638"><ele>1383.0</ele><time>2026-04-12T11:15:23.921Z</time></trkpt><trkpt lat="46.5279888840186" lon="12.121396058726573"><ele>1383.0</ele><time>2026-04-12T11:15:24.921Z</time></trkpt><trkpt lat="46.528110432836954" lon="12.121459021558953"><ele>1382.25</ele><time>2026-04-12T11:15:25.921Z</time></trkpt><trkpt lat="46.52823982262517" lon="12.121492354017443"><ele>1381.5</ele><time>2026-04-12T11:15:26.921Z</time></trkpt><trkpt lat="46.52838006023561" lon="12.121482144142522"><ele>1380.75</ele><time>2026-04-12T11:15:27.921Z</time></trkpt><trkpt lat="46.5285201343747" lon="12.121425012494724"><ele>1380.0</ele><time>2026-04-12T11:15:28.921Z</time></trkpt><trkpt lat="46.52865992528149" lon="12.121355152346899"><ele>1374.6666666666667</ele><time>2026-04-12T11:15:29.921Z</time></trkpt><trkpt lat="46.528797517108366" lon="12.121308124151826"><ele>1369.3333333333335</ele><time>2026-04-12T11:15:30.921Z</time></trkpt><trkpt lat="46.52894395854056" lon="12.121257993750017"><ele>1364.0</ele><time>2026-04-12T11:15:31.921Z</time></trkpt><trkpt lat="46.529106732127175" lon="12.121207018407146"><ele>1364.0</ele><time>2026-04-12T11:15:32.921Z</time></trkpt><trkpt lat="46.52923431798116" lon="12.121157882293287"><ele>1364.0</ele><time>2026-04-12T11:15:33.921Z</time></trkpt><trkpt lat="46.529387157391945" lon="12.12112464192107"><ele>1364.0</ele><time>2026-04-12T11:15:34.921Z</time></trkpt><trkpt lat="46.52954572349499" lon="12.121099522772417"><ele>1364.0</ele><time>2026-04-12T11:15:35.921Z</time></trkpt><trkpt lat="46.529697009991644" lon="12.121120755722927"><ele>1361.3333333333335</ele><time>2026-04-12T11:15:36.921Z</time></trkpt><trkpt lat="46.52985426056004" lon="12.12111323430404"><ele>1358.6666666666667</ele><time>2026-04-12T11:15:37.921Z</time></trkpt><trkpt lat="46.53000727492255" lon="12.12113676736977"><ele>1356.0</ele><time>2026-04-12T11:15:38.921Z</time></trkpt><trkpt lat="46.5301578085485" lon="12.121147888411292"><ele>1356.0</ele><time>2026-04-12T11:15:39.921Z</time></trkpt><trkpt lat="46.53031098431416" lon="12.121150194748159"><ele>1356.0</ele><time>2026-04-12T11:15:40.921Z</time></trkpt><trkpt lat="46.53046531316118" lon="12.121185749725024"><ele>1356.0</ele><time>2026-04-12T11:15:41.921Z</time></trkpt><trkpt lat="46.53061817857625" lon="12.121197461102929"><ele>1354.25</ele><time>2026-04-12T11:15:42.921Z</time></trkpt><trkpt lat="46.53077171492704" lon="12.121186230950556"><ele>1352.5</ele><time>2026-04-12T11:15:43.921Z</time></trkpt><trkpt lat="46.530908800944815" lon="12.121197386808534"><ele>1350.75</ele><time>2026-04-12T11:15:44.921Z</time></trkpt><trkpt lat="46.53104519519825" lon="12.121209597017137"><ele>1349.0</ele><time>2026-04-12T11:15:45.921Z</time></trkpt><trkpt lat="46.531175961811385" lon="12.12123243033838"><ele>1347.75</ele><time>2026-04-12T11:15:46.921Z</time></trkpt><trkpt lat="46.531307876448146" lon="12.121250241141356"><ele>1346.5</ele><time>2026-04-12T11:15:47.921Z</time></trkpt><trkpt lat="46.531442010350176" lon="12.121260125431373"><ele>1345.25</ele><time>2026-04-12T11:15:48.921Z</time></trkpt><trkpt lat="46.53157346068331" lon="12.121264256753502"><ele>1344.0</ele><time>2026-04-12T11:15:49.921Z</time></trkpt><trkpt lat="46.53170150536763" lon="12.121246534361854"><ele>1344.0</ele><time>2026-04-12T11:15:50.921Z</time></trkpt><trkpt lat="46.53181837763753" lon="12.121195306797727"><ele>1344.0</ele><time>2026-04-12T11:15:51.921Z</time></trkpt><trkpt lat="46.53192112174812" lon="12.121131363310973"><ele>1344.0</ele><time>2026-04-12T11:15:52.921Z</time></trkpt><trkpt lat="46.53202209849413" lon="12.121063442542415"><ele>1344.0</ele><time>2026-04-12T11:15:53.921Z</time></trkpt><trkpt lat="46.532125463611166" lon="12.121013458277396"><ele>1342.4</ele><time>2026-04-12T11:15:54.921Z</time></trkpt><trkpt lat="46.5322274273757" lon="12.120974849184194"><ele>1340.8000000000002</ele><time>2026-04-12T11:15:55.921Z</time></trkpt><trkpt lat="46.532320046402226" lon="12.120975096577167"><ele>1339.1999999999998</ele><time>2026-04-12T11:15:56.921Z</time></trkpt><trkpt lat="46.53240911427779" lon="12.120985105423276"><ele>1337.6</ele><time>2026-04-12T11:15:57.921Z</time></trkpt><trkpt lat="46.53249506348055" lon="12.120993308569421"><ele>1336.0</ele><time>2026-04-12T11:15:58.921Z</time></trkpt><trkpt lat="46.53258428018678" lon="12.121065092050634"><ele>1336.0</ele><time>2026-04-12T11:15:59.921Z</time></trkpt><trkpt lat="46.53266463905951" lon="12.121135150945065"><ele>1336.0</ele><time>2026-04-12T11:16:00.921Z</time></trkpt><trkpt lat="46.53274346001859" lon="12.12124092620605"><ele>1336.0</ele><time>2026-04-12T11:16:01.921Z</time></trkpt><trkpt lat="46.53279671082442" lon="12.121382525034374"><ele>1336.0</ele><time>2026-04-12T11:16:02.921Z</time></trkpt><trkpt lat="46.53285543477939" lon="12.121519752776928"><ele>1336.0</ele><time>2026-04-12T11:16:03.921Z</time></trkpt><trkpt lat="46.53294419433526" lon="12.121634910590183"><ele>1333.6</ele><time>2026-04-12T11:16:04.921Z</time></trkpt><trkpt lat="46.533032736552855" lon="12.121736412204204"><ele>1331.1999999999998</ele><time>2026-04-12T11:16:05.921Z</time></trkpt><trkpt lat="46.53312626031337" lon="12.121822070916076"><ele>1328.8000000000002</ele><time>2026-04-12T11:16:06.921Z</time></trkpt><trkpt lat="46.533227544025344" lon="12.12188214215818"><ele>1326.4</ele><time>2026-04-12T11:16:07.921Z</time></trkpt><trkpt lat="46.53333123003731" lon="12.121926947143669"><ele>1324.0</ele><time>2026-04-12T11:16:08.921Z</time></trkpt><trkpt lat="46.53342615696547" lon="12.121966072003266"><ele>1324.0</ele><time>2026-04-12T11:16:09.921Z</time></trkpt><trkpt lat="46.53351438719829" lon="12.122013046926805"><ele>1324.0</ele><time>2026-04-12T11:16:10.921Z</time></trkpt><trkpt lat="46.53358592825278" lon="12.12208689820764"><ele>1324.0</ele><time>2026-04-12T11:16:11.921Z</time></trkpt><trkpt lat="46.533617294769634" lon="12.122229641650804"><ele>1324.0</ele><time>2026-04-12T11:16:12.921Z</time></trkpt><trkpt lat="46.53367622589906" lon="12.122365236149118"><ele>1324.0</ele><time>2026-04-12T11:16:13.921Z</time></trkpt><trkpt lat="46.53370799143782" lon="12.122506096995544"><ele>1323.4</ele><time>2026-04-12T11:16:14.921Z</time></trkpt><trkpt lat="46.533764471169455" lon="12.122635153124989"><ele>1322.8000000000002</ele><time>2026-04-12T11:16:15.921Z</time></trkpt><trkpt lat="46.53384339000126" lon="12.12276047181921"><ele>1322.1999999999998</ele><time>2026-04-12T11:16:16.921Z</time></trkpt><trkpt lat="46.53393108710123" lon="12.122860167688378"><ele>1321.6</ele><time>2026-04-12T11:16:17.921Z</time></trkpt><trkpt lat="46.5340277987309" lon="12.122951903954533"><ele>1321.0</ele><time>2026-04-12T11:16:18.921Z</time></trkpt><trkpt lat="46.534114522711945" lon="12.123045090996154"><ele>1321.0</ele><time>2026-04-12T11:16:19.921Z</time></trkpt><trkpt lat="46.534215509013016" lon="12.123106073760043"><ele>1321.0</ele><time>2026-04-12T11:16:20.921Z</time></trkpt><trkpt lat="46.53432179690476" lon="12.123179301364592"><ele>1321.0</ele><time>2026-04-12T11:16:21.921Z</time></trkpt><trkpt lat="46.5344421698521" lon="12.123261129101293"><ele>1321.0</ele><time>2026-04-12T11:16:22.921Z</time></trkpt><trkpt lat="46.53456668678738" lon="12.123292163762605"><ele>1319.75</ele><time>2026-04-12T11:16:23.921Z</time></trkpt><trkpt lat="46.53468091392787" lon="12.123343976695882"><ele>1318.5</ele><time>2026-04-12T11:16:24.921Z</time></trkpt><trkpt lat="46.5348021701479" lon="12.123396573388655"><ele>1317.25</ele><time>2026-04-12T11:16:25.921Z</time></trkpt><trkpt lat="46.53492624508569" lon="12.123447152223235"><ele>1316.0</ele><time>2026-04-12T11:16:26.921Z</time></trkpt><trkpt lat="46.53504940096982" lon="12.123503130925927"><ele>1316.0</ele><time>2026-04-12T11:16:27.921Z</time></trkpt><trkpt lat="46.535165060290716" lon="12.12357248402746"><ele>1316.0</ele><time>2026-04-12T11:16:28.921Z</time></trkpt><trkpt lat="46.535274296048755" lon="12.123654116957919"><ele>1316.0</ele><time>2026-04-12T11:16:29.921Z</time></trkpt><trkpt lat="46.535369555995416" lon="12.12379485139951"><ele>1316.0</ele><time>2026-04-12T11:16:30.921Z</time></trkpt><trkpt lat="46.53547926119267" lon="12.12387919912238"><ele>1315.25</ele><time>2026-04-12T11:16:31.921Z</time></trkpt><trkpt lat="46.53559925184338" lon="12.123940223857362"><ele>1314.5</ele><time>2026-04-12T11:16:32.921Z</time></trkpt><trkpt lat="46.53571042931846" lon="12.124000752757455"><ele>1313.75</ele><time>2026-04-12T11:16:33.921Z</time></trkpt><trkpt lat="46.53581503865678" lon="12.124066185741041"><ele>1313.0</ele><time>2026-04-12T11:16:34.921Z</time></trkpt><trkpt lat="46.53591652302823" lon="12.124121004100589"><ele>1311.4</ele><time>2026-04-12T11:16:35.921Z</time></trkpt><trkpt lat="46.53601432826206" lon="12.124163980663786"><ele>1309.8000000000002</ele><time>2026-04-12T11:16:36.921Z</time></trkpt><trkpt lat="46.53611213738407" lon="12.124190525444522"><ele>1308.2</ele><time>2026-04-12T11:16:37.921Z</time></trkpt><trkpt lat="46.53621976143195" lon="12.124201686169867"><ele>1306.6</ele><time>2026-04-12T11:16:38.921Z</time></trkpt><trkpt lat="46.53632849122107" lon="12.124196099204585"><ele>1305.0</ele><time>2026-04-12T11:16:39.921Z</time></trkpt><trkpt lat="46.53643123277834" lon="12.124214320018417"><ele>1305.0</ele><time>2026-04-12T11:16:40.921Z</time></trkpt><trkpt lat="46.53653041016456" lon="12.124255014303673"><ele>1305.0</ele><time>2026-04-12T11:16:41.921Z</time></trkpt><trkpt lat="46.53662178533009" lon="12.124325007244927"><ele>1305.0</ele><time>2026-04-12T11:16:42.921Z</time></trkpt><trkpt lat="46.536725256661995" lon="12.12441555451061"><ele>1305.0</ele><time>2026-04-12T11:16:43.922Z</time></trkpt><trkpt lat="46.53682661729441" lon="12.124526615410002"><ele>1305.0</ele><time>2026-04-12T11:16:44.922Z</time></trkpt><trkpt lat="46.536933980103846" lon="12.124651849373556"><ele>1305.0</ele><time>2026-04-12T11:16:45.922Z</time></trkpt><trkpt lat="46.53703707171582" lon="12.124756842221286"><ele>1305.0</ele><time>2026-04-12T11:16:46.922Z</time></trkpt><trkpt lat="46.53713609725331" lon="12.124861593887003"><ele>1305.0</ele><time>2026-04-12T11:16:47.922Z</time></trkpt><trkpt lat="46.5372283425901" lon="12.12495033493033"><ele>1302.75</ele><time>2026-04-12T11:16:48.922Z</time></trkpt><trkpt lat="46.537334716850836" lon="12.125012054234102"><ele>1300.5</ele><time>2026-04-12T11:16:49.922Z</time></trkpt><trkpt lat="46.53744508034709" lon="12.125029503302294"><ele>1298.25</ele><time>2026-04-12T11:16:50.922Z</time></trkpt><trkpt lat="46.5375532827857" lon="12.125011571955001"><ele>1296.0</ele><time>2026-04-12T11:16:51.922Z</time></trkpt><trkpt lat="46.53766252065739" lon="12.124936115714895"><ele>1294.75</ele><time>2026-04-12T11:16:52.922Z</time></trkpt><trkpt lat="46.53777144842689" lon="12.124834263423148"><ele>1293.5</ele><time>2026-04-12T11:16:53.922Z</time></trkpt><trkpt lat="46.53789329644277" lon="12.124713605397076"><ele>1292.25</ele><time>2026-04-12T11:16:54.922Z</time></trkpt><trkpt lat="46.53804194561851" lon="12.124612086217674"><ele>1291.0</ele><time>2026-04-12T11:16:55.922Z</time></trkpt><trkpt lat="46.53817827801742" lon="12.124500810494917"><ele>1291.0</ele><time>2026-04-12T11:16:56.922Z</time></trkpt><trkpt lat="46.53832242983049" lon="12.124370609420856"><ele>1291.0</ele><time>2026-04-12T11:16:57.922Z</time></trkpt><trkpt lat="46.53841370071764" lon="12.124297668244347"><ele>1291.0</ele><time>2026-04-12T11:16:59.922Z</time></trkpt><trkpt lat="46.53851437800256" lon="12.124213704769273"><ele>1291.0</ele><time>2026-04-12T11:17:00.922Z</time></trkpt><trkpt lat="46.53858694514032" lon="12.124043857364088"><ele>1292.75</ele><time>2026-04-12T11:17:01.922Z</time></trkpt><trkpt lat="46.53868247371208" lon="12.123953834581737"><ele>1294.5</ele><time>2026-04-12T11:17:02.922Z</time></trkpt><trkpt lat="46.53879818181263" lon="12.123873739238045"><ele>1296.25</ele><time>2026-04-12T11:17:03.922Z</time></trkpt><trkpt lat="46.53892024657732" lon="12.123823085745384"><ele>1298.0</ele><time>2026-04-12T11:17:04.922Z</time></trkpt><trkpt lat="46.539049606956404" lon="12.123858985624414"><ele>1298.0</ele><time>2026-04-12T11:17:05.922Z</time></trkpt><trkpt lat="46.53919161881412" lon="12.123900684543516"><ele>1298.0</ele><time>2026-04-12T11:17:06.922Z</time></trkpt><trkpt lat="46.5393466323362" lon="12.123985879719235"><ele>1298.0</ele><time>2026-04-12T11:17:07.922Z</time></trkpt><trkpt lat="46.539507326266246" lon="12.124100750353078"><ele>1293.25</ele><time>2026-04-12T11:17:08.922Z</time></trkpt><trkpt lat="46.53964971850386" lon="12.124200595614772"><ele>1288.5</ele><time>2026-04-12T11:17:09.922Z</time></trkpt><trkpt lat="46.53978550117315" lon="12.124293452185753"><ele>1283.75</ele><time>2026-04-12T11:17:10.922Z</time></trkpt><trkpt lat="46.53991665201138" lon="12.124352505328432"><ele>1279.0</ele><time>2026-04-12T11:17:11.922Z</time></trkpt><trkpt lat="46.5400367352411" lon="12.124439936370564"><ele>1279.0</ele><time>2026-04-12T11:17:12.922Z</time></trkpt><trkpt lat="46.54016741909152" lon="12.124492443942033"><ele>1279.0</ele><time>2026-04-12T11:17:13.922Z</time></trkpt><trkpt lat="46.54028268484008" lon="12.12453174200891"><ele>1279.0</ele><time>2026-04-12T11:17:14.922Z</time></trkpt><trkpt lat="46.54040101732665" lon="12.124568692521631"><ele>1279.0</ele><time>2026-04-12T11:17:15.922Z</time></trkpt><trkpt lat="46.54051690290085" lon="12.12459147697675"><ele>1277.0</ele><time>2026-04-12T11:17:16.922Z</time></trkpt><trkpt lat="46.54062715892423" lon="12.124627221443578"><ele>1275.0</ele><time>2026-04-12T11:17:17.922Z</time></trkpt><trkpt lat="46.54074155988593" lon="12.124657390790754"><ele>1273.0</ele><time>2026-04-12T11:17:18.922Z</time></trkpt><trkpt lat="46.54085212985174" lon="12.124684128816458"><ele>1271.0</ele><time>2026-04-12T11:17:19.922Z</time></trkpt><trkpt lat="46.54097826700182" lon="12.12472265612141"><ele>1271.0</ele><time>2026-04-12T11:17:20.922Z</time></trkpt><trkpt lat="46.54108713896308" lon="12.124761463800883"><ele>1271.0</ele><time>2026-04-12T11:17:21.922Z</time></trkpt><trkpt lat="46.54119858312133" lon="12.124776741735552"><ele>1271.0</ele><time>2026-04-12T11:17:22.922Z</time></trkpt><trkpt lat="46.54131934228863" lon="12.124820005439478"><ele>1271.0</ele><time>2026-04-12T11:17:23.922Z</time></trkpt><trkpt lat="46.54145368223792" lon="12.124870383681873"><ele>1271.25</ele><time>2026-04-12T11:17:24.922Z</time></trkpt><trkpt lat="46.541585907230996" lon="12.12489449547009"><ele>1271.5</ele><time>2026-04-12T11:17:25.922Z</time></trkpt><trkpt lat="46.54170571378518" lon="12.124884744010773"><ele>1271.75</ele><time>2026-04-12T11:17:26.922Z</time></trkpt><trkpt lat="46.54185121968006" lon="12.124825958015677"><ele>1272.0</ele><time>2026-04-12T11:17:27.922Z</time></trkpt><trkpt lat="46.541996437589304" lon="12.124729349722864"><ele>1273.3333333333333</ele><time>2026-04-12T11:17:28.922Z</time></trkpt><trkpt lat="46.54215549877845" lon="12.124575772413404"><ele>1274.6666666666665</ele><time>2026-04-12T11:17:29.922Z</time></trkpt><trkpt lat="46.5422789738863" lon="12.124408896071506"><ele>1276.0</ele><time>2026-04-12T11:17:30.922Z</time></trkpt><trkpt lat="46.54239747561934" lon="12.124294344874118"><ele>1276.0</ele><time>2026-04-12T11:17:31.922Z</time></trkpt><trkpt lat="46.54242066153294" lon="12.124605794011854"><ele>1276.0</ele><time>2026-04-12T11:17:32.922Z</time></trkpt><trkpt lat="46.54245519465168" lon="12.124159722244237"><ele>1286.0</ele><time>2026-04-12T11:17:33.922Z</time></trkpt><trkpt lat="46.54292293929586" lon="12.124643477725028"><ele>1286.0</ele><time>2026-04-12T11:17:34.922Z</time></trkpt><trkpt lat="46.542974207850484" lon="12.124828500629308"><ele>1286.0</ele><time>2026-04-12T11:17:35.922Z</time></trkpt><trkpt lat="46.543003541113464" lon="12.125016533999831"><ele>1286.0</ele><time>2026-04-12T11:17:36.922Z</time></trkpt><trkpt lat="46.54266075273896" lon="12.12540358977512"><ele>1279.75</ele><time>2026-04-12T11:17:37.922Z</time></trkpt><trkpt lat="46.542696679228406" lon="12.125570588340235"><ele>1273.5</ele><time>2026-04-12T11:17:38.922Z</time></trkpt><trkpt lat="46.54272672277672" lon="12.12572625539749"><ele>1267.25</ele><time>2026-04-12T11:17:39.922Z</time></trkpt><trkpt lat="46.542770457520376" lon="12.125881871935075"><ele>1261.0</ele><time>2026-04-12T11:17:40.922Z</time></trkpt><trkpt lat="46.542822096709955" lon="12.126024632436337"><ele>1261.25</ele><time>2026-04-12T11:17:41.922Z</time></trkpt><trkpt lat="46.54288924870173" lon="12.126150186477664"><ele>1261.5</ele><time>2026-04-12T11:17:42.922Z</time></trkpt><trkpt lat="46.542972448701455" lon="12.126257620219839"><ele>1261.75</ele><time>2026-04-12T11:17:43.922Z</time></trkpt><trkpt lat="46.54306223337988" lon="12.126366959319821"><ele>1262.0</ele><time>2026-04-12T11:17:44.922Z</time></trkpt><trkpt lat="46.543153746172216" lon="12.126481418294773"><ele>1259.0</ele><time>2026-04-12T11:17:45.922Z</time></trkpt><trkpt lat="46.543234133921025" lon="12.126596988454267"><ele>1256.0</ele><time>2026-04-12T11:17:46.922Z</time></trkpt><trkpt lat="46.543307172409676" lon="12.12671759663061"><ele>1253.0</ele><time>2026-04-12T11:17:47.922Z</time></trkpt><trkpt lat="46.54337618134681" lon="12.12683519179978"><ele>1250.0</ele><time>2026-04-12T11:17:48.922Z</time></trkpt><trkpt lat="46.54340923780285" lon="12.1269910189239"><ele>1247.0</ele><time>2026-04-12T11:17:49.922Z</time></trkpt><trkpt lat="46.54343758604109" lon="12.127143073986192"><ele>1247.0</ele><time>2026-04-12T11:17:50.922Z</time></trkpt><trkpt lat="46.543467039489855" lon="12.127313000823806"><ele>1247.0</ele><time>2026-04-12T11:17:51.922Z</time></trkpt><trkpt lat="46.543513614958336" lon="12.127466604670945"><ele>1247.0</ele><time>2026-04-12T11:17:52.922Z</time></trkpt><trkpt lat="46.54355385803404" lon="12.127612652743455"><ele>1247.0</ele><time>2026-04-12T11:17:53.922Z</time></trkpt><trkpt lat="46.54361188157467" lon="12.127733761312756"><ele>1247.0</ele><time>2026-04-12T11:17:54.922Z</time></trkpt><trkpt lat="46.54371138570045" lon="12.127796914405359"><ele>1245.75</ele><time>2026-04-12T11:17:55.922Z</time></trkpt><trkpt lat="46.5438211667814" lon="12.127781376994003"><ele>1244.5</ele><time>2026-04-12T11:17:56.922Z</time></trkpt><trkpt lat="46.54393795518657" lon="12.127754547936274"><ele>1243.25</ele><time>2026-04-12T11:17:57.922Z</time></trkpt><trkpt lat="46.544045899491095" lon="12.12767077438931"><ele>1242.0</ele><time>2026-04-12T11:17:58.922Z</time></trkpt><trkpt lat="46.544155149089654" lon="12.127605443572971"><ele>1242.0</ele><time>2026-04-12T11:17:59.922Z</time></trkpt><trkpt lat="46.54424284709716" lon="12.127544552011296"><ele>1242.0</ele><time>2026-04-12T11:18:00.922Z</time></trkpt><trkpt lat="46.54432490345782" lon="12.127496884858244"><ele>1242.0</ele><time>2026-04-12T11:18:01.922Z</time></trkpt><trkpt lat="46.544443015002464" lon="12.127482350014215"><ele>1242.0</ele><time>2026-04-12T11:18:03.922Z</time></trkpt><trkpt lat="46.54449479556126" lon="12.127555805074426"><ele>1242.0</ele><time>2026-04-12T11:18:04.922Z</time></trkpt><trkpt lat="46.5445023921467" lon="12.127671483716304"><ele>1242.0</ele><time>2026-04-12T11:18:05.922Z</time></trkpt><trkpt lat="46.54446307369166" lon="12.127765486532965"><ele>1242.0</ele><time>2026-04-12T11:18:06.922Z</time></trkpt><trkpt lat="46.54437126048563" lon="12.127796591678003"><ele>1242.0</ele><time>2026-04-12T11:18:07.922Z</time></trkpt><trkpt lat="46.54428638475165" lon="12.12778563447793"><ele>1242.0</ele><time>2026-04-12T11:18:08.922Z</time></trkpt><trkpt lat="46.54418892032915" lon="12.127773993185095"><ele>1242.0</ele><time>2026-04-12T11:18:09.922Z</time></trkpt><trkpt lat="46.54408945651499" lon="12.127821898302178"><ele>1242.0</ele><time>2026-04-12T11:18:10.922Z</time></trkpt><trkpt lat="46.54400558165955" lon="12.127890295747468"><ele>1242.0</ele><time>2026-04-12T11:18:11.922Z</time></trkpt><trkpt lat="46.543927311783015" lon="12.127982349844196"><ele>1242.0</ele><time>2026-04-12T11:18:12.922Z</time></trkpt><trkpt lat="46.54385243898355" lon="12.128079001064046"><ele>1242.0</ele><time>2026-04-12T11:18:13.922Z</time></trkpt><trkpt lat="46.54378032437229" lon="12.128190427546077"><ele>1242.0</ele><time>2026-04-12T11:18:14.922Z</time></trkpt><trkpt lat="46.543702845409115" lon="12.128311291848549"><ele>1239.0</ele><time>2026-04-12T11:18:15.922Z</time></trkpt><trkpt lat="46.54361089047891" lon="12.128397730963346"><ele>1236.0</ele><time>2026-04-12T11:18:16.922Z</time></trkpt><trkpt lat="46.543499105728145" lon="12.12840723987044"><ele>1233.0</ele><time>2026-04-12T11:18:17.922Z</time></trkpt><trkpt lat="46.54339291621721" lon="12.12841328634078"><ele>1230.0</ele><time>2026-04-12T11:18:18.922Z</time></trkpt><trkpt lat="46.54328090992407" lon="12.128437479212144"><ele>1227.0</ele><time>2026-04-12T11:18:19.922Z</time></trkpt><trkpt lat="46.54317228434125" lon="12.128444787335376"><ele>1227.0</ele><time>2026-04-12T11:18:20.922Z</time></trkpt><trkpt lat="46.543061096824154" lon="12.128472528671614"><ele>1227.0</ele><time>2026-04-12T11:18:21.922Z</time></trkpt><trkpt lat="46.54295465780476" lon="12.128535837018527"><ele>1227.0</ele><time>2026-04-12T11:18:22.922Z</time></trkpt><trkpt lat="46.54285394547751" lon="12.12862271011857"><ele>1227.0</ele><time>2026-04-12T11:18:23.922Z</time></trkpt><trkpt lat="46.54275062522162" lon="12.128707274260691"><ele>1225.75</ele><time>2026-04-12T11:18:24.922Z</time></trkpt><trkpt lat="46.54264926240861" lon="12.128774415191188"><ele>1224.5</ele><time>2026-04-12T11:18:25.922Z</time></trkpt><trkpt lat="46.54254812408577" lon="12.128854650099013"><ele>1223.25</ele><time>2026-04-12T11:18:26.922Z</time></trkpt><trkpt lat="46.542444066663734" lon="12.128927213276944"><ele>1222.0</ele><time>2026-04-12T11:18:27.922Z</time></trkpt><trkpt lat="46.54233618988818" lon="12.128980273146857"><ele>1222.0</ele><time>2026-04-12T11:18:28.922Z</time></trkpt><trkpt lat="46.54222372252705" lon="12.129018498556057"><ele>1222.0</ele><time>2026-04-12T11:18:29.922Z</time></trkpt><trkpt lat="46.54210288851791" lon="12.12903898705581"><ele>1222.0</ele><time>2026-04-12T11:18:30.922Z</time></trkpt><trkpt lat="46.54198335602663" lon="12.129059475267422"><ele>1222.0</ele><time>2026-04-12T11:18:31.922Z</time></trkpt><trkpt lat="46.54185931659106" lon="12.129075712097407"><ele>1219.75</ele><time>2026-04-12T11:18:32.922Z</time></trkpt><trkpt lat="46.54172815741648" lon="12.129103301128973"><ele>1217.5</ele><time>2026-04-12T11:18:33.922Z</time></trkpt><trkpt lat="46.54160299718821" lon="12.129135338902213"><ele>1215.25</ele><time>2026-04-12T11:18:34.922Z</time></trkpt><trkpt lat="46.541484407894394" lon="12.1291571173693"><ele>1213.0</ele><time>2026-04-12T11:18:35.922Z</time></trkpt><trkpt lat="46.54136488441912" lon="12.129174622341312"><ele>1213.0</ele><time>2026-04-12T11:18:36.922Z</time></trkpt><trkpt lat="46.54124797174015" lon="12.129198724993959"><ele>1213.0</ele><time>2026-04-12T11:18:37.922Z</time></trkpt><trkpt lat="46.54113139212803" lon="12.129243817238374"><ele>1213.0</ele><time>2026-04-12T11:18:38.922Z</time></trkpt><trkpt lat="46.54102016095143" lon="12.129300867133002"><ele>1213.0</ele><time>2026-04-12T11:18:39.922Z</time></trkpt><trkpt lat="46.54091359429987" lon="12.129366589250766"><ele>1213.75</ele><time>2026-04-12T11:18:40.922Z</time></trkpt><trkpt lat="46.54079957315167" lon="12.12941848900595"><ele>1214.5</ele><time>2026-04-12T11:18:41.922Z</time></trkpt><trkpt lat="46.54068790997489" lon="12.129471708815796"><ele>1215.25</ele><time>2026-04-12T11:18:42.922Z</time></trkpt><trkpt lat="46.54057175717259" lon="12.129521488941434"><ele>1216.0</ele><time>2026-04-12T11:18:43.922Z</time></trkpt><trkpt lat="46.540462480484585" lon="12.129579408303865"><ele>1215.75</ele><time>2026-04-12T11:18:44.922Z</time></trkpt><trkpt lat="46.54035536539487" lon="12.129643191959694"><ele>1215.5</ele><time>2026-04-12T11:18:45.922Z</time></trkpt><trkpt lat="46.54025405116128" lon="12.129725532040121"><ele>1215.25</ele><time>2026-04-12T11:18:46.922Z</time></trkpt><trkpt lat="46.54016052497022" lon="12.129811339452655"><ele>1215.0</ele><time>2026-04-12T11:18:47.922Z</time></trkpt><trkpt lat="46.54006642780734" lon="12.129903937760874"><ele>1213.0</ele><time>2026-04-12T11:18:48.922Z</time></trkpt><trkpt lat="46.539977320611456" lon="12.13001609566247"><ele>1211.0</ele><time>2026-04-12T11:18:49.923Z</time></trkpt><trkpt lat="46.539878533295585" lon="12.130141218908436"><ele>1209.0</ele><time>2026-04-12T11:18:50.923Z</time></trkpt><trkpt lat="46.539771524838606" lon="12.130263036586937"><ele>1207.0</ele><time>2026-04-12T11:18:51.923Z</time></trkpt><trkpt lat="46.539674067618975" lon="12.130370264418527"><ele>1207.0</ele><time>2026-04-12T11:18:52.923Z</time></trkpt><trkpt lat="46.53958106785439" lon="12.130475073288471"><ele>1207.0</ele><time>2026-04-12T11:18:53.923Z</time></trkpt><trkpt lat="46.53949787040335" lon="12.130590815711068"><ele>1207.0</ele><time>2026-04-12T11:18:54.923Z</time></trkpt><trkpt lat="46.53942889551331" lon="12.130716435067674"><ele>1207.0</ele><time>2026-04-12T11:18:55.923Z</time></trkpt><trkpt lat="46.539376889992546" lon="12.130838482233417"><ele>1207.0</ele><time>2026-04-12T11:18:56.923Z</time></trkpt><trkpt lat="46.53933766209221" lon="12.130960163796134"><ele>1207.4</ele><time>2026-04-12T11:18:57.923Z</time></trkpt><trkpt lat="46.53930964151514" lon="12.13108674465434"><ele>1207.8000000000002</ele><time>2026-04-12T11:18:58.923Z</time></trkpt><trkpt lat="46.539296116641495" lon="12.131214427995555"><ele>1208.2</ele><time>2026-04-12T11:18:59.923Z</time></trkpt><trkpt lat="46.539274168998475" lon="12.131342782247017"><ele>1208.6000000000001</ele><time>2026-04-12T11:19:00.923Z</time></trkpt><trkpt lat="46.53923395678751" lon="12.13147334812251"><ele>1209.0</ele><time>2026-04-12T11:19:01.923Z</time></trkpt><trkpt lat="46.53917147995481" lon="12.131611683933627"><ele>1206.75</ele><time>2026-04-12T11:19:02.923Z</time></trkpt><trkpt lat="46.539085718776875" lon="12.131752365212463"><ele>1204.5</ele><time>2026-04-12T11:19:03.923Z</time></trkpt><trkpt lat="46.53900928740122" lon="12.131913831039196"><ele>1202.25</ele><time>2026-04-12T11:19:04.923Z</time></trkpt><trkpt lat="46.538918941595796" lon="12.132079203719545"><ele>1200.0</ele><time>2026-04-12T11:19:05.923Z</time></trkpt><trkpt lat="46.53882335025673" lon="12.132232036441135"><ele>1200.0</ele><time>2026-04-12T11:19:06.923Z</time></trkpt><trkpt lat="46.53872054168739" lon="12.13239824251035"><ele>1200.0</ele><time>2026-04-12T11:19:07.923Z</time></trkpt><trkpt lat="46.538608443881685" lon="12.13254291366414"><ele>1200.0</ele><time>2026-04-12T11:19:08.923Z</time></trkpt><trkpt lat="46.53849210189158" lon="12.13266193932093"><ele>1200.0</ele><time>2026-04-12T11:19:09.923Z</time></trkpt><trkpt lat="46.53836498532562" lon="12.13274446180557"><ele>1200.0</ele><time>2026-04-12T11:19:10.923Z</time></trkpt><trkpt lat="46.53825414582026" lon="12.132855898145024"><ele>1200.0</ele><time>2026-04-12T11:19:11.923Z</time></trkpt><trkpt lat="46.53810543263662" lon="12.132931548495078"><ele>1200.0</ele><time>2026-04-12T11:19:12.923Z</time></trkpt><trkpt lat="46.53789898505588" lon="12.13306034728558"><ele>1201.6666666666667</ele><time>2026-04-12T11:19:13.923Z</time></trkpt><trkpt lat="46.53769689134378" lon="12.133268763028479"><ele>1203.3333333333335</ele><time>2026-04-12T11:19:14.923Z</time></trkpt><trkpt lat="46.53775674089194" lon="12.133201087701723"><ele>1205.0</ele><time>2026-04-12T11:19:15.923Z</time></trkpt><trkpt lat="46.53765756689383" lon="12.133316614033877"><ele>1203.0</ele><time>2026-04-12T11:19:16.923Z</time></trkpt><trkpt lat="46.5375830681531" lon="12.133448019502493"><ele>1201.0</ele><time>2026-04-12T11:19:17.923Z</time></trkpt><trkpt lat="46.537519951812264" lon="12.13353927740095"><ele>1199.0</ele><time>2026-04-12T11:19:18.923Z</time></trkpt><trkpt lat="46.53746297083378" lon="12.133605295333481"><ele>1197.0</ele><time>2026-04-12T11:19:19.923Z</time></trkpt><trkpt lat="46.53739036434826" lon="12.13369420321768"><ele>1195.0</ele><time>2026-04-12T11:19:21.923Z</time></trkpt><trkpt lat="46.5373300321082" lon="12.13374667748405"><ele>1193.0</ele><time>2026-04-12T11:19:26.923Z</time></trkpt><trkpt lat="46.53726754204687" lon="12.133841723723743"><ele>1193.0</ele><time>2026-04-12T11:20:07.923Z</time></trkpt><trkpt lat="46.53726542781819" lon="12.133984505267296"><ele>1193.0</ele><time>2026-04-12T11:20:08.923Z</time></trkpt><trkpt lat="46.537291580097104" lon="12.134087496571695"><ele>1193.0</ele><time>2026-04-12T11:20:09.923Z</time></trkpt><trkpt lat="46.5373076347032" lon="12.134200947566303"><ele>1193.0</ele><time>2026-04-12T11:20:10.923Z</time></trkpt><trkpt lat="46.53732773281314" lon="12.134328206051077"><ele>1193.0</ele><time>2026-04-12T11:20:11.923Z</time></trkpt><trkpt lat="46.53736197880178" lon="12.13447821142822"><ele>1193.0</ele><time>2026-04-12T11:20:12.923Z</time></trkpt><trkpt lat="46.53738432190473" lon="12.134606864786901"><ele>1193.0</ele><time>2026-04-12T11:20:13.923Z</time></trkpt><trkpt lat="46.53740203094384" lon="12.134719080567672"><ele>1193.0</ele><time>2026-04-12T11:20:14.923Z</time></trkpt><trkpt lat="46.5374164296621" lon="12.134823053548422"><ele>1193.0</ele><time>2026-04-12T11:20:15.923Z</time></trkpt><trkpt lat="46.53742677925386" lon="12.134916341310802"><ele>1193.0</ele><time>2026-04-12T11:20:16.923Z</time></trkpt><trkpt lat="46.53742709776442" lon="12.135016521917334"><ele>1193.0</ele><time>2026-04-12T11:20:17.923Z</time></trkpt><trkpt lat="46.53743914563467" lon="12.135132008109462"><ele>1195.4</ele><time>2026-04-12T11:20:18.923Z</time></trkpt><trkpt lat="46.53737711925449" lon="12.13527714139682"><ele>1197.8</ele><time>2026-04-12T11:20:19.923Z</time></trkpt><trkpt lat="46.537331764133775" lon="12.1354127349013"><ele>1200.2</ele><time>2026-04-12T11:20:20.923Z</time></trkpt><trkpt lat="46.53726814151148" lon="12.135525814270643"><ele>1202.6</ele><time>2026-04-12T11:20:21.923Z</time></trkpt><trkpt lat="46.537183016695835" lon="12.13561930495543"><ele>1205.0</ele><time>2026-04-12T11:20:22.923Z</time></trkpt><trkpt lat="46.53709858595056" lon="12.135701440824215"><ele>1203.8</ele><time>2026-04-12T11:20:23.923Z</time></trkpt><trkpt lat="46.53700239188032" lon="12.13576786625784"><ele>1202.6</ele><time>2026-04-12T11:20:24.923Z</time></trkpt><trkpt lat="46.53690495549138" lon="12.135814557934863"><ele>1201.4</ele><time>2026-04-12T11:20:25.923Z</time></trkpt><trkpt lat="46.53681329824514" lon="12.135822170448002"><ele>1200.2</ele><time>2026-04-12T11:20:26.923Z</time></trkpt><trkpt lat="46.53672142985647" lon="12.135832683134952"><ele>1199.0</ele><time>2026-04-12T11:20:27.923Z</time></trkpt><trkpt lat="46.53663451541186" lon="12.135879949683671"><ele>1199.0</ele><time>2026-04-12T11:20:28.923Z</time></trkpt><trkpt lat="46.536525392583634" lon="12.135914602520637"><ele>1199.0</ele><time>2026-04-12T11:20:29.923Z</time></trkpt><trkpt lat="46.53641534949984" lon="12.13594954715276"><ele>1199.0</ele><time>2026-04-12T11:20:30.923Z</time></trkpt><trkpt lat="46.53630627391533" lon="12.135995355621958"><ele>1199.0</ele><time>2026-04-12T11:20:31.923Z</time></trkpt><trkpt lat="46.53619368695469" lon="12.135995927097927"><ele>1198.0</ele><time>2026-04-12T11:20:32.923Z</time></trkpt><trkpt lat="46.53608719422436" lon="12.135977815882079"><ele>1197.0</ele><time>2026-04-12T11:20:33.923Z</time></trkpt><trkpt lat="46.53598595313315" lon="12.1359727062639"><ele>1196.0</ele><time>2026-04-12T11:20:34.923Z</time></trkpt><trkpt lat="46.53587704064876" lon="12.135958959604192"><ele>1195.0</ele><time>2026-04-12T11:20:35.923Z</time></trkpt><trkpt lat="46.53574994321795" lon="12.135922981702137"><ele>1194.0</ele><time>2026-04-12T11:20:36.923Z</time></trkpt><trkpt lat="46.53562599504607" lon="12.135877368658964"><ele>1194.0</ele><time>2026-04-12T11:20:37.923Z</time></trkpt><trkpt lat="46.53550194877166" lon="12.13582930998633"><ele>1194.0</ele><time>2026-04-12T11:20:38.923Z</time></trkpt><trkpt lat="46.535354798619814" lon="12.135783849043973"><ele>1194.0</ele><time>2026-04-12T11:20:39.923Z</time></trkpt><trkpt lat="46.53518234475372" lon="12.135738998945422"><ele>1188.25</ele><time>2026-04-12T11:20:40.923Z</time></trkpt><trkpt lat="46.535049062290526" lon="12.135660678769838"><ele>1182.5</ele><time>2026-04-12T11:20:42.923Z</time></trkpt><trkpt lat="46.53492466414644" lon="12.135619874423863"><ele>1176.75</ele><time>2026-04-12T11:20:43.923Z</time></trkpt><trkpt lat="46.53480187012092" lon="12.135595778987593"><ele>1171.0</ele><time>2026-04-12T11:20:44.923Z</time></trkpt><trkpt lat="46.53468043506702" lon="12.135563475584437"><ele>1171.0</ele><time>2026-04-12T11:20:45.923Z</time></trkpt><trkpt lat="46.534560070416404" lon="12.135582138687797"><ele>1171.0</ele><time>2026-04-12T11:20:46.923Z</time></trkpt><trkpt lat="46.53445165438595" lon="12.135677336942102"><ele>1171.0</ele><time>2026-04-12T11:20:47.923Z</time></trkpt><trkpt lat="46.53434965015871" lon="12.135799464166846"><ele>1171.0</ele><time>2026-04-12T11:20:48.923Z</time></trkpt><trkpt lat="46.53423856781302" lon="12.135926193745696"><ele>1171.5</ele><time>2026-04-12T11:20:49.923Z</time></trkpt><trkpt lat="46.534150655820824" lon="12.136046804978266"><ele>1172.0</ele><time>2026-04-12T11:20:50.923Z</time></trkpt><trkpt lat="46.53405803671888" lon="12.136155397665553"><ele>1172.5</ele><time>2026-04-12T11:20:51.923Z</time></trkpt><trkpt lat="46.53397512951076" lon="12.13626818384158"><ele>1173.0</ele><time>2026-04-12T11:20:52.923Z</time></trkpt><trkpt lat="46.53390078298932" lon="12.136395661821583"><ele>1173.0</ele><time>2026-04-12T11:20:53.923Z</time></trkpt><trkpt lat="46.5338769333143" lon="12.13653735589126"><ele>1173.0</ele><time>2026-04-12T11:20:54.923Z</time></trkpt><trkpt lat="46.53386183287867" lon="12.136683695853831"><ele>1173.0</ele><time>2026-04-12T11:20:55.924Z</time></trkpt><trkpt lat="46.53389842475008" lon="12.136821663392718"><ele>1173.0</ele><time>2026-04-12T11:20:56.924Z</time></trkpt><trkpt lat="46.533981412296576" lon="12.136939833552166"><ele>1173.0</ele><time>2026-04-12T11:20:57.924Z</time></trkpt><trkpt lat="46.53408756330384" lon="12.137032122522974"><ele>1173.8</ele><time>2026-04-12T11:20:58.924Z</time></trkpt><trkpt lat="46.53420889236877" lon="12.137072330463011"><ele>1174.6</ele><time>2026-04-12T11:20:59.924Z</time></trkpt><trkpt lat="46.534317636050424" lon="12.13706870856141"><ele>1175.4</ele><time>2026-04-12T11:21:00.924Z</time></trkpt><trkpt lat="46.53441228152793" lon="12.137110260472378"><ele>1176.2</ele><time>2026-04-12T11:21:01.924Z</time></trkpt><trkpt lat="46.534502110114595" lon="12.137179771004838"><ele>1177.0</ele><time>2026-04-12T11:21:02.924Z</time></trkpt><trkpt lat="46.53460059935992" lon="12.137292092556203"><ele>1179.3333333333333</ele><time>2026-04-12T11:21:03.924Z</time></trkpt><trkpt lat="46.53474126369807" lon="12.137436506260672"><ele>1181.6666666666667</ele><time>2026-04-12T11:21:04.924Z</time></trkpt><trkpt lat="46.53487086528668" lon="12.137577047762033"><ele>1184.0</ele><time>2026-04-12T11:21:05.924Z</time></trkpt><trkpt lat="46.53495836277337" lon="12.137793136982427"><ele>1184.0</ele><time>2026-04-12T11:21:06.924Z</time></trkpt><trkpt lat="46.53504881591066" lon="12.138007030033977"><ele>1184.0</ele><time>2026-04-12T11:21:07.924Z</time></trkpt><trkpt lat="46.53512684353747" lon="12.138181416425951"><ele>1184.0</ele><time>2026-04-12T11:21:08.924Z</time></trkpt><trkpt lat="46.53516509343242" lon="12.138376234663824"><ele>1184.4</ele><time>2026-04-12T11:21:09.924Z</time></trkpt><trkpt lat="46.535199656373344" lon="12.13855397720569"><ele>1184.8000000000002</ele><time>2026-04-12T11:21:10.924Z</time></trkpt><trkpt lat="46.53523828465963" lon="12.13870694624723"><ele>1185.1999999999998</ele><time>2026-04-12T11:21:11.924Z</time></trkpt><trkpt lat="46.53525431761923" lon="12.138840589366064"><ele>1185.6</ele><time>2026-04-12T11:21:12.924Z</time></trkpt><trkpt lat="46.53526939832318" lon="12.138958932285858"><ele>1186.0</ele><time>2026-04-12T11:21:13.924Z</time></trkpt><trkpt lat="46.535282712621715" lon="12.13906433285719"><ele>1186.8333333333333</ele><time>2026-04-12T11:21:14.924Z</time></trkpt><trkpt lat="46.53527306966791" lon="12.139168403333366"><ele>1187.6666666666665</ele><time>2026-04-12T11:21:15.924Z</time></trkpt><trkpt lat="46.5352513746536" lon="12.139261681607401"><ele>1188.5</ele><time>2026-04-12T11:21:16.924Z</time></trkpt><trkpt lat="46.535210780357346" lon="12.139384707333127"><ele>1189.3333333333333</ele><time>2026-04-12T11:21:17.924Z</time></trkpt><trkpt lat="46.535191082105584" lon="12.13949701113336"><ele>1190.1666666666667</ele><time>2026-04-12T11:21:18.924Z</time></trkpt><trkpt lat="46.535164593826984" lon="12.139612856182074"><ele>1191.0</ele><time>2026-04-12T11:21:19.924Z</time></trkpt><trkpt lat="46.53496453912933" lon="12.139622306836385"><ele>1191.0</ele><time>2026-04-12T11:21:20.924Z</time></trkpt><trkpt lat="46.53486451094084" lon="12.13965796567508"><ele>1191.0</ele><time>2026-04-12T11:21:21.924Z</time></trkpt><trkpt lat="46.53476112873507" lon="12.139699164644483"><ele>1191.0</ele><time>2026-04-12T11:21:22.924Z</time></trkpt><trkpt lat="46.53464959245783" lon="12.139742739136036"><ele>1191.0</ele><time>2026-04-12T11:21:23.924Z</time></trkpt><trkpt lat="46.53452892695559" lon="12.139781719107697"><ele>1191.0</ele><time>2026-04-12T11:21:24.924Z</time></trkpt><trkpt lat="46.53439904485493" lon="12.139820705021936"><ele>1190.75</ele><time>2026-04-12T11:21:25.924Z</time></trkpt><trkpt lat="46.53427162987387" lon="12.139846517651929"><ele>1190.5</ele><time>2026-04-12T11:21:26.924Z</time></trkpt><trkpt lat="46.534137391318986" lon="12.13986685442348"><ele>1190.25</ele><time>2026-04-12T11:21:27.924Z</time></trkpt><trkpt lat="46.53400979686455" lon="12.1398879937284"><ele>1190.0</ele><time>2026-04-12T11:21:28.924Z</time></trkpt><trkpt lat="46.533885860425066" lon="12.139907508263143"><ele>1190.0</ele><time>2026-04-12T11:21:29.924Z</time></trkpt><trkpt lat="46.533783538063894" lon="12.139926344558496"><ele>1190.0</ele><time>2026-04-12T11:21:30.924Z</time></trkpt><trkpt lat="46.53368735897977" lon="12.13995115058458"><ele>1190.0</ele><time>2026-04-12T11:21:31.924Z</time></trkpt><trkpt lat="46.53360460033215" lon="12.139961098053051"><ele>1190.0</ele><time>2026-04-12T11:21:32.924Z</time></trkpt><trkpt lat="46.533530382093836" lon="12.139968133705933"><ele>1190.0</ele><time>2026-04-12T11:21:33.924Z</time></trkpt><trkpt lat="46.533457219053645" lon="12.139979659589233"><ele>1190.0</ele><time>2026-04-12T11:21:34.924Z</time></trkpt><trkpt lat="46.533371581734926" lon="12.139989493652527"><ele>1190.5</ele><time>2026-04-12T11:21:35.924Z</time></trkpt><trkpt lat="46.533271583500756" lon="12.140001368553063"><ele>1191.0</ele><time>2026-04-12T11:21:36.924Z</time></trkpt><trkpt lat="46.53315993107131" lon="12.140007795942493"><ele>1191.5</ele><time>2026-04-12T11:21:37.924Z</time></trkpt><trkpt lat="46.53302768129905" lon="12.14002729700274"><ele>1192.0</ele><time>2026-04-12T11:21:38.924Z</time></trkpt><trkpt lat="46.53286752103795" lon="12.140065111178485"><ele>1192.0</ele><time>2026-04-12T11:21:39.924Z</time></trkpt><trkpt lat="46.532705163331755" lon="12.140100245553809"><ele>1192.0</ele><time>2026-04-12T11:21:40.924Z</time></trkpt><trkpt lat="46.53258220422395" lon="12.14012368668564"><ele>1192.0</ele><time>2026-04-12T11:21:41.924Z</time></trkpt><trkpt lat="46.53248594528575" lon="12.140136139585744"><ele>1192.0</ele><time>2026-04-12T11:21:42.924Z</time></trkpt><trkpt lat="46.532397729002575" lon="12.140142210615835"><ele>1192.0</ele><time>2026-04-12T11:21:43.924Z</time></trkpt><trkpt lat="46.53231395339009" lon="12.14015146925283"><ele>1192.0</ele><time>2026-04-12T11:21:44.924Z</time></trkpt><trkpt lat="46.5322388377667" lon="12.140165185280438"><ele>1192.0</ele><time>2026-04-12T11:21:45.924Z</time></trkpt><trkpt lat="46.53216677851874" lon="12.140174464871297"><ele>1192.0</ele><time>2026-04-12T11:21:46.924Z</time></trkpt><trkpt lat="46.532099806366475" lon="12.140186614691403"><ele>1192.0</ele><time>2026-04-12T11:21:47.924Z</time></trkpt><trkpt lat="46.53203413159534" lon="12.140207306360397"><ele>1192.0</ele><time>2026-04-12T11:21:48.924Z</time></trkpt><trkpt lat="46.531904926751174" lon="12.140231674507815"><ele>1191.2</ele><time>2026-04-12T11:21:50.924Z</time></trkpt><trkpt lat="46.53182582708577" lon="12.140249058798688"><ele>1190.4</ele><time>2026-04-12T11:21:51.924Z</time></trkpt><trkpt lat="46.531738464121894" lon="12.140270220434736"><ele>1189.6</ele><time>2026-04-12T11:21:52.924Z</time></trkpt><trkpt lat="46.531644562263764" lon="12.140296656276488"><ele>1188.8</ele><time>2026-04-12T11:21:53.924Z</time></trkpt><trkpt lat="46.53153870484859" lon="12.140324178460835"><ele>1188.0</ele><time>2026-04-12T11:21:54.924Z</time></trkpt><trkpt lat="46.531408602048145" lon="12.140345855479087"><ele>1188.0</ele><time>2026-04-12T11:21:55.924Z</time></trkpt><trkpt lat="46.53127175606367" lon="12.140368148062336"><ele>1188.0</ele><time>2026-04-12T11:21:56.924Z</time></trkpt><trkpt lat="46.53114904903085" lon="12.14040202438181"><ele>1188.0</ele><time>2026-04-12T11:21:57.924Z</time></trkpt><trkpt lat="46.53103827163336" lon="12.140422040062633"><ele>1188.0</ele><time>2026-04-12T11:21:58.924Z</time></trkpt><trkpt lat="46.53092456620443" lon="12.140442359855548"><ele>1187.2</ele><time>2026-04-12T11:21:59.924Z</time></trkpt><trkpt lat="46.530813624794014" lon="12.14046527309243"><ele>1186.4</ele><time>2026-04-12T11:22:00.924Z</time></trkpt><trkpt lat="46.53071152215965" lon="12.140487770300009"><ele>1185.6000000000001</ele><time>2026-04-12T11:22:01.924Z</time></trkpt><trkpt lat="46.53060570248342" lon="12.14051483586604"><ele>1184.8</ele><time>2026-04-12T11:22:02.924Z</time></trkpt><trkpt lat="46.53048734374953" lon="12.140542754298037"><ele>1184.0</ele><time>2026-04-12T11:22:03.924Z</time></trkpt><trkpt lat="46.530361103514394" lon="12.14056818577499"><ele>1183.0</ele><time>2026-04-12T11:22:04.924Z</time></trkpt><trkpt lat="46.53022066474236" lon="12.140588381913176"><ele>1182.0</ele><time>2026-04-12T11:22:05.924Z</time></trkpt><trkpt lat="46.53006417610546" lon="12.140623056498324"><ele>1181.0</ele><time>2026-04-12T11:22:06.924Z</time></trkpt><trkpt lat="46.52989680825833" lon="12.14065649854545"><ele>1181.0</ele><time>2026-04-12T11:22:07.924Z</time></trkpt><trkpt lat="46.529718214708836" lon="12.140693210751358"><ele>1181.0</ele><time>2026-04-12T11:22:08.924Z</time></trkpt><trkpt lat="46.529520670105406" lon="12.140732298491011"><ele>1181.0</ele><time>2026-04-12T11:22:09.924Z</time></trkpt><trkpt lat="46.52930515409208" lon="12.140786280432163"><ele>1185.0</ele><time>2026-04-12T11:22:10.924Z</time></trkpt><trkpt lat="46.52907077753444" lon="12.14084377746349"><ele>1189.0</ele><time>2026-04-12T11:22:11.924Z</time></trkpt><trkpt lat="46.52882333418746" lon="12.14091769937875"><ele>1185.0</ele><time>2026-04-12T11:22:12.924Z</time></trkpt><trkpt lat="46.528594057880824" lon="12.141007608404713"><ele>1181.0</ele><time>2026-04-12T11:22:13.924Z</time></trkpt><trkpt lat="46.52838732826374" lon="12.141086999319642"><ele>1181.0</ele><time>2026-04-12T11:22:14.924Z</time></trkpt><trkpt lat="46.52819484573128" lon="12.141173622533632"><ele>1181.0</ele><time>2026-04-12T11:22:15.924Z</time></trkpt><trkpt lat="46.528026874526496" lon="12.14124329230089"><ele>1181.0</ele><time>2026-04-12T11:22:16.924Z</time></trkpt><trkpt lat="46.52787462408425" lon="12.141304653947882"><ele>1180.6666666666667</ele><time>2026-04-12T11:22:17.924Z</time></trkpt><trkpt lat="46.527722915914424" lon="12.141328000423975"><ele>1180.3333333333333</ele><time>2026-04-12T11:22:18.924Z</time></trkpt><trkpt lat="46.52758475882381" lon="12.141297262713682"><ele>1180.0</ele><time>2026-04-12T11:22:19.924Z</time></trkpt><trkpt lat="46.52743208364398" lon="12.141175641403354"><ele>1180.0</ele><time>2026-04-12T11:22:20.924Z</time></trkpt><trkpt lat="46.527286763386414" lon="12.140995437601324"><ele>1180.0</ele><time>2026-04-12T11:22:21.924Z</time></trkpt><trkpt lat="46.527163636869" lon="12.14079550310817"><ele>1180.0</ele><time>2026-04-12T11:22:22.924Z</time></trkpt><trkpt lat="46.527020811253834" lon="12.140559078387735"><ele>1181.0</ele><time>2026-04-12T11:22:23.924Z</time></trkpt><trkpt lat="46.526869997086585" lon="12.140357221330161"><ele>1182.0</ele><time>2026-04-12T11:22:24.924Z</time></trkpt><trkpt lat="46.52672507586637" lon="12.140165986937268"><ele>1183.0</ele><time>2026-04-12T11:22:25.924Z</time></trkpt><trkpt lat="46.526604741337245" lon="12.140016604767316"><ele>1183.0</ele><time>2026-04-12T11:22:26.924Z</time></trkpt><trkpt lat="46.52647665720463" lon="12.139886970333919"><ele>1183.0</ele><time>2026-04-12T11:22:27.924Z</time></trkpt><trkpt lat="46.526339445143364" lon="12.139781841790166"><ele>1183.0</ele><time>2026-04-12T11:22:28.924Z</time></trkpt><trkpt lat="46.52619627675896" lon="12.139714635442825"><ele>1183.0</ele><time>2026-04-12T11:22:29.924Z</time></trkpt><trkpt lat="46.52605646226063" lon="12.139680442741483"><ele>1183.0</ele><time>2026-04-12T11:22:30.924Z</time></trkpt><trkpt lat="46.525906207625965" lon="12.13970528737057"><ele>1183.0</ele><time>2026-04-12T11:22:31.924Z</time></trkpt><trkpt lat="46.52574850120779" lon="12.139773621338605"><ele>1182.3333333333333</ele><time>2026-04-12T11:22:32.924Z</time></trkpt><trkpt lat="46.5255885547425" lon="12.139899832401385"><ele>1181.6666666666667</ele><time>2026-04-12T11:22:33.924Z</time></trkpt><trkpt lat="46.525416585132795" lon="12.140043947891739"><ele>1181.0</ele><time>2026-04-12T11:22:34.924Z</time></trkpt><trkpt lat="46.525226513818886" lon="12.140174460597786"><ele>1181.0</ele><time>2026-04-12T11:22:35.924Z</time></trkpt><trkpt lat="46.525015758112616" lon="12.140304832629752"><ele>1181.0</ele><time>2026-04-12T11:22:36.924Z</time></trkpt><trkpt lat="46.52479066222385" lon="12.140447653111782"><ele>1181.0</ele><time>2026-04-12T11:22:37.924Z</time></trkpt><trkpt lat="46.52456750859807" lon="12.140597250326605"><ele>1181.0</ele><time>2026-04-12T11:22:38.924Z</time></trkpt><trkpt lat="46.52436580712241" lon="12.140725938587675"><ele>1181.0</ele><time>2026-04-12T11:22:39.924Z</time></trkpt><trkpt lat="46.52417211302628" lon="12.140841332708264"><ele>1181.0</ele><time>2026-04-12T11:22:40.924Z</time></trkpt><trkpt lat="46.52398901615522" lon="12.140959538447174"><ele>1181.0</ele><time>2026-04-12T11:22:41.924Z</time></trkpt><trkpt lat="46.52380876395714" lon="12.141080980663888"><ele>1178.6666666666667</ele><time>2026-04-12T11:22:42.924Z</time></trkpt><trkpt lat="46.523634849760114" lon="12.141189070116935"><ele>1176.3333333333333</ele><time>2026-04-12T11:22:43.924Z</time></trkpt><trkpt lat="46.52347481743319" lon="12.141294338859346"><ele>1174.0</ele><time>2026-04-12T11:22:44.924Z</time></trkpt><trkpt lat="46.52332951542452" lon="12.141383453640879"><ele>1174.0</ele><time>2026-04-12T11:22:45.924Z</time></trkpt><trkpt lat="46.52319331376091" lon="12.141456765669787"><ele>1174.0</ele><time>2026-04-12T11:22:46.924Z</time></trkpt><trkpt lat="46.52306161210361" lon="12.141538709592316"><ele>1174.0</ele><time>2026-04-12T11:22:47.924Z</time></trkpt><trkpt lat="46.522930688521754" lon="12.14162373221091"><ele>1174.0</ele><time>2026-04-12T11:22:48.924Z</time></trkpt><trkpt lat="46.52279544619067" lon="12.141709111005083"><ele>1175.3333333333333</ele><time>2026-04-12T11:22:49.924Z</time></trkpt><trkpt lat="46.5226548468991" lon="12.141796384233288"><ele>1176.6666666666667</ele><time>2026-04-12T11:22:50.924Z</time></trkpt><trkpt lat="46.522505915684" lon="12.141877004461248"><ele>1178.0</ele><time>2026-04-12T11:22:51.924Z</time></trkpt><trkpt lat="46.52234529425094" lon="12.141937675778479"><ele>1178.0</ele><time>2026-04-12T11:22:52.924Z</time></trkpt><trkpt lat="46.522179891336656" lon="12.141971388302034"><ele>1178.0</ele><time>2026-04-12T11:22:53.924Z</time></trkpt><trkpt lat="46.522002871359" lon="12.141976846495092"><ele>1178.0</ele><time>2026-04-12T11:22:54.924Z</time></trkpt><trkpt lat="46.52182033454006" lon="12.141958782605512"><ele>1178.0</ele><time>2026-04-12T11:22:55.924Z</time></trkpt><trkpt lat="46.521650470956814" lon="12.141928784039063"><ele>1178.0</ele><time>2026-04-12T11:22:56.924Z</time></trkpt><trkpt lat="46.52148799556341" lon="12.141912939275379"><ele>1178.0</ele><time>2026-04-12T11:22:57.924Z</time></trkpt><trkpt lat="46.52131807463916" lon="12.141923064477664"><ele>1177.0</ele><time>2026-04-12T11:22:58.924Z</time></trkpt><trkpt lat="46.52114293886907" lon="12.14194554057116"><ele>1176.0</ele><time>2026-04-12T11:22:59.924Z</time></trkpt><trkpt lat="46.52096636317755" lon="12.141977100091953"><ele>1175.0</ele><time>2026-04-12T11:23:00.924Z</time></trkpt><trkpt lat="46.520779397636375" lon="12.142029800116054"><ele>1175.0</ele><time>2026-04-12T11:23:01.925Z</time></trkpt><trkpt lat="46.52058698067112" lon="12.1420820117938"><ele>1175.0</ele><time>2026-04-12T11:23:02.925Z</time></trkpt><trkpt lat="46.5204030550978" lon="12.142121705500452"><ele>1175.0</ele><time>2026-04-12T11:23:03.925Z</time></trkpt><trkpt lat="46.52023362831188" lon="12.142153555275902"><ele>1175.3333333333335</ele><time>2026-04-12T11:23:04.925Z</time></trkpt><trkpt lat="46.52007000488096" lon="12.14219415892601"><ele>1175.6666666666667</ele><time>2026-04-12T11:23:05.925Z</time></trkpt><trkpt lat="46.519902139491364" lon="12.142234797483091"><ele>1176.0</ele><time>2026-04-12T11:23:06.925Z</time></trkpt><trkpt lat="46.519741177517446" lon="12.142266142947012"><ele>1176.0</ele><time>2026-04-12T11:23:07.925Z</time></trkpt><trkpt lat="46.519586858308664" lon="12.142298350683328"><ele>1176.0</ele><time>2026-04-12T11:23:08.925Z</time></trkpt><trkpt lat="46.519429142277176" lon="12.142323478788278"><ele>1176.0</ele><time>2026-04-12T11:23:09.925Z</time></trkpt><trkpt lat="46.519276711775184" lon="12.142342786372254"><ele>1175.6666666666667</ele><time>2026-04-12T11:23:10.925Z</time></trkpt><trkpt lat="46.51911276354578" lon="12.142359552030916"><ele>1175.3333333333335</ele><time>2026-04-12T11:23:11.925Z</time></trkpt><trkpt lat="46.5189585435008" lon="12.14236790477151"><ele>1175.0</ele><time>2026-04-12T11:23:12.925Z</time></trkpt><trkpt lat="46.51878446916467" lon="12.142381228533095"><ele>1174.3333333333335</ele><time>2026-04-12T11:23:13.925Z</time></trkpt><trkpt lat="46.51858104524657" lon="12.1424028498597"><ele>1173.6666666666667</ele><time>2026-04-12T11:23:14.925Z</time></trkpt><trkpt lat="46.51837310360378" lon="12.142413181807594"><ele>1173.0</ele><time>2026-04-12T11:23:15.925Z</time></trkpt><trkpt lat="46.51829435545473" lon="12.142399921935558"><ele>1173.0</ele><time>2026-04-12T11:23:16.925Z</time></trkpt><trkpt lat="46.51812352375372" lon="12.142403765923095"><ele>1173.0</ele><time>2026-04-12T11:23:17.925Z</time></trkpt><trkpt lat="46.51795212102363" lon="12.142411058249312"><ele>1173.0</ele><time>2026-04-12T11:23:18.925Z</time></trkpt><trkpt lat="46.51779172678949" lon="12.14241795389213"><ele>1171.75</ele><time>2026-04-12T11:23:19.925Z</time></trkpt><trkpt lat="46.5176398206999" lon="12.14241617515919"><ele>1170.5</ele><time>2026-04-12T11:23:20.925Z</time></trkpt><trkpt lat="46.51749219374518" lon="12.142419752432863"><ele>1169.25</ele><time>2026-04-12T11:23:21.925Z</time></trkpt><trkpt lat="46.51735235554106" lon="12.14244849756422"><ele>1168.0</ele><time>2026-04-12T11:23:22.925Z</time></trkpt><trkpt lat="46.517216051567765" lon="12.14247954703475"><ele>1168.0</ele><time>2026-04-12T11:23:23.925Z</time></trkpt><trkpt lat="46.5170837453566" lon="12.142551747402765"><ele>1168.0</ele><time>2026-04-12T11:23:24.925Z</time></trkpt><trkpt lat="46.51694698674377" lon="12.142647623345391"><ele>1168.0</ele><time>2026-04-12T11:23:25.925Z</time></trkpt><trkpt lat="46.516818019142626" lon="12.142784350695665"><ele>1168.0</ele><time>2026-04-12T11:23:26.925Z</time></trkpt><trkpt lat="46.51669832420882" lon="12.142949261700966"><ele>1168.0</ele><time>2026-04-12T11:23:27.925Z</time></trkpt><trkpt lat="46.51658863814078" lon="12.143103691610659"><ele>1168.0</ele><time>2026-04-12T11:23:28.925Z</time></trkpt><trkpt lat="46.51648444016921" lon="12.143257393064722"><ele>1168.0</ele><time>2026-04-12T11:23:29.925Z</time></trkpt><trkpt lat="46.51637686854852" lon="12.14339245108573"><ele>1168.0</ele><time>2026-04-12T11:23:30.925Z</time></trkpt><trkpt lat="46.516271950138325" lon="12.143520433223122"><ele>1168.0</ele><time>2026-04-12T11:23:31.925Z</time></trkpt><trkpt lat="46.516167358286715" lon="12.143642736832687"><ele>1168.0</ele><time>2026-04-12T11:23:32.925Z</time></trkpt><trkpt lat="46.51606123653962" lon="12.143753654613935"><ele>1167.5</ele><time>2026-04-12T11:23:33.925Z</time></trkpt><trkpt lat="46.51595201980046" lon="12.143855867638903"><ele>1167.0</ele><time>2026-04-12T11:23:34.925Z</time></trkpt><trkpt lat="46.5158479417583" lon="12.143936218399547"><ele>1166.5</ele><time>2026-04-12T11:23:35.925Z</time></trkpt><trkpt lat="46.51572550092371" lon="12.144017498499426"><ele>1166.0</ele><time>2026-04-12T11:23:36.925Z</time></trkpt><trkpt lat="46.51559435069202" lon="12.144095153487983"><ele>1166.0</ele><time>2026-04-12T11:23:37.925Z</time></trkpt><trkpt lat="46.515458913979444" lon="12.144165515686296"><ele>1166.0</ele><time>2026-04-12T11:23:38.925Z</time></trkpt><trkpt lat="46.51533625604493" lon="12.144223619100453"><ele>1166.0</ele><time>2026-04-12T11:23:39.925Z</time></trkpt><trkpt lat="46.51521832304428" lon="12.144304373480047"><ele>1166.0</ele><time>2026-04-12T11:23:40.925Z</time></trkpt><trkpt lat="46.51511110138702" lon="12.144403225022275"><ele>1164.0</ele><time>2026-04-12T11:23:41.925Z</time></trkpt><trkpt lat="46.51500939109013" lon="12.144513140183431"><ele>1162.0</ele><time>2026-04-12T11:23:42.925Z</time></trkpt><trkpt lat="46.5149079090399" lon="12.144615884730673"><ele>1160.0</ele><time>2026-04-12T11:23:43.925Z</time></trkpt><trkpt lat="46.51480757626535" lon="12.144710397108037"><ele>1158.0</ele><time>2026-04-12T11:23:44.925Z</time></trkpt><trkpt lat="46.51471374890617" lon="12.144814740089174"><ele>1158.4</ele><time>2026-04-12T11:23:45.925Z</time></trkpt><trkpt lat="46.51462892209557" lon="12.144914818717346"><ele>1158.8</ele><time>2026-04-12T11:23:46.925Z</time></trkpt><trkpt lat="46.51455609054048" lon="12.144999564541607"><ele>1159.2</ele><time>2026-04-12T11:23:47.925Z</time></trkpt><trkpt lat="46.51449401042464" lon="12.145098852730014"><ele>1159.6</ele><time>2026-04-12T11:23:48.925Z</time></trkpt><trkpt lat="46.514439452756164" lon="12.145214910037797"><ele>1160.0</ele><time>2026-04-12T11:23:49.925Z</time></trkpt><trkpt lat="46.51439242807557" lon="12.145354558713874"><ele>1157.5</ele><time>2026-04-12T11:23:50.925Z</time></trkpt><trkpt lat="46.51435761785666" lon="12.145504809943796"><ele>1155.0</ele><time>2026-04-12T11:23:51.925Z</time></trkpt><trkpt lat="46.51433339130268" lon="12.145678349057873"><ele>1152.5</ele><time>2026-04-12T11:23:52.925Z</time></trkpt><trkpt lat="46.51431702030863" lon="12.145857908619261"><ele>1150.0</ele><time>2026-04-12T11:23:53.925Z</time></trkpt><trkpt lat="46.51431242447959" lon="12.146046871768402"><ele>1149.5</ele><time>2026-04-12T11:23:54.925Z</time></trkpt><trkpt lat="46.51431243829858" lon="12.146242484053245"><ele>1149.0</ele><time>2026-04-12T11:23:55.925Z</time></trkpt><trkpt lat="46.51432126840145" lon="12.146440190706144"><ele>1148.5</ele><time>2026-04-12T11:23:56.925Z</time></trkpt><trkpt lat="46.51432012538979" lon="12.14663192120652"><ele>1148.0</ele><time>2026-04-12T11:23:57.925Z</time></trkpt><trkpt lat="46.51431431011043" lon="12.146819149728685"><ele>1147.25</ele><time>2026-04-12T11:23:58.925Z</time></trkpt><trkpt lat="46.514300804945215" lon="12.147013207173792"><ele>1146.5</ele><time>2026-04-12T11:23:59.925Z</time></trkpt><trkpt lat="46.51427662036915" lon="12.147215901040735"><ele>1145.75</ele><time>2026-04-12T11:24:00.925Z</time></trkpt><trkpt lat="46.51425102766812" lon="12.147409969731015"><ele>1145.0</ele><time>2026-04-12T11:24:01.925Z</time></trkpt><trkpt lat="46.514212926878415" lon="12.147628924988295"><ele>1144.5</ele><time>2026-04-12T11:24:02.925Z</time></trkpt><trkpt lat="46.51416992130458" lon="12.147854205281323"><ele>1144.0</ele><time>2026-04-12T11:24:03.925Z</time></trkpt><trkpt lat="46.514121405121024" lon="12.148055900095654"><ele>1143.5</ele><time>2026-04-12T11:24:04.925Z</time></trkpt><trkpt lat="46.51406572255556" lon="12.148233297407428"><ele>1143.0</ele><time>2026-04-12T11:24:05.925Z</time></trkpt><trkpt lat="46.513997039650306" lon="12.148421193053277"><ele>1144.6666666666667</ele><time>2026-04-12T11:24:06.925Z</time></trkpt><trkpt lat="46.513901450027305" lon="12.148615181630113"><ele>1146.3333333333335</ele><time>2026-04-12T11:24:07.925Z</time></trkpt><trkpt lat="46.51381401454159" lon="12.148834026601538"><ele>1148.0</ele><time>2026-04-12T11:24:08.925Z</time></trkpt><trkpt lat="46.51370592768839" lon="12.149055271951166"><ele>1143.6666666666667</ele><time>2026-04-12T11:24:09.925Z</time></trkpt><trkpt lat="46.51362119007782" lon="12.149264134298258"><ele>1139.3333333333333</ele><time>2026-04-12T11:24:10.925Z</time></trkpt><trkpt lat="46.51353977253317" lon="12.14946533320637"><ele>1135.0</ele><time>2026-04-12T11:24:11.925Z</time></trkpt><trkpt lat="46.51345694210423" lon="12.149656534445034"><ele>1135.0</ele><time>2026-04-12T11:24:12.925Z</time></trkpt><trkpt lat="46.51336910379369" lon="12.149860968913641"><ele>1135.0</ele><time>2026-04-12T11:24:13.925Z</time></trkpt><trkpt lat="46.513281215683456" lon="12.15006557314742"><ele>1135.0</ele><time>2026-04-12T11:24:14.925Z</time></trkpt><trkpt lat="46.51319342921261" lon="12.15026454642447"><ele>1138.0</ele><time>2026-04-12T11:24:15.925Z</time></trkpt><trkpt lat="46.513105335940125" lon="12.150474603847039"><ele>1141.0</ele><time>2026-04-12T11:24:16.925Z</time></trkpt><trkpt lat="46.51301582515966" lon="12.150692036202466"><ele>1144.0</ele><time>2026-04-12T11:24:17.925Z</time></trkpt><trkpt lat="46.51292084616504" lon="12.15090034072606"><ele>1137.6666666666665</ele><time>2026-04-12T11:24:18.925Z</time></trkpt><trkpt lat="46.51282370604309" lon="12.151103162030921"><ele>1131.3333333333333</ele><time>2026-04-12T11:24:19.925Z</time></trkpt><trkpt lat="46.51272229739441" lon="12.151307781107553"><ele>1125.0</ele><time>2026-04-12T11:24:20.925Z</time></trkpt><trkpt lat="46.51262165585468" lon="12.15150462493979"><ele>1129.6666666666667</ele><time>2026-04-12T11:24:21.925Z</time></trkpt><trkpt lat="46.512528905336886" lon="12.151710155601847"><ele>1134.3333333333335</ele><time>2026-04-12T11:24:22.925Z</time></trkpt><trkpt lat="46.5124395270417" lon="12.151925628855466"><ele>1139.0</ele><time>2026-04-12T11:24:23.925Z</time></trkpt><trkpt lat="46.51235904278157" lon="12.1521575148451"><ele>1142.3333333333335</ele><time>2026-04-12T11:24:24.925Z</time></trkpt><trkpt lat="46.512280426902166" lon="12.152394917036512"><ele>1145.6666666666667</ele><time>2026-04-12T11:24:25.925Z</time></trkpt><trkpt lat="46.51219723082886" lon="12.152648460793841"><ele>1149.0</ele><time>2026-04-12T11:24:26.925Z</time></trkpt><trkpt lat="46.512098477163164" lon="12.152876030749047"><ele>1145.0</ele><time>2026-04-12T11:24:27.925Z</time></trkpt><trkpt lat="46.5119955486306" lon="12.153079887465664"><ele>1141.0</ele><time>2026-04-12T11:24:28.925Z</time></trkpt><trkpt lat="46.51187323267681" lon="12.153286820486441"><ele>1137.0</ele><time>2026-04-12T11:24:29.925Z</time></trkpt><trkpt lat="46.51171721634267" lon="12.153490707857829"><ele>1137.0</ele><time>2026-04-12T11:24:30.925Z</time></trkpt><trkpt lat="46.511539882586966" lon="12.153689399541534"><ele>1137.0</ele><time>2026-04-12T11:24:31.925Z</time></trkpt><trkpt lat="46.51134905096306" lon="12.153885169659336"><ele>1135.0</ele><time>2026-04-12T11:24:32.925Z</time></trkpt><trkpt lat="46.511180695186205" lon="12.154074185645765"><ele>1133.0</ele><time>2026-04-12T11:24:33.925Z</time></trkpt><trkpt lat="46.5110320897671" lon="12.154268582938244"><ele>1131.0</ele><time>2026-04-12T11:24:34.925Z</time></trkpt><trkpt lat="46.51088618571322" lon="12.154472270121886"><ele>1131.0</ele><time>2026-04-12T11:24:35.925Z</time></trkpt><trkpt lat="46.510743090446724" lon="12.154672899485993"><ele>1131.0</ele><time>2026-04-12T11:24:36.925Z</time></trkpt><trkpt lat="46.51059057425154" lon="12.154871987108125"><ele>1131.0</ele><time>2026-04-12T11:24:37.925Z</time></trkpt><trkpt lat="46.510452204999986" lon="12.155078251107536"><ele>1126.6666666666667</ele><time>2026-04-12T11:24:38.925Z</time></trkpt><trkpt lat="46.51033208310458" lon="12.155288030508661"><ele>1122.3333333333335</ele><time>2026-04-12T11:24:39.925Z</time></trkpt><trkpt lat="46.51022380306814" lon="12.155496343090139"><ele>1118.0</ele><time>2026-04-12T11:24:40.925Z</time></trkpt><trkpt lat="46.51012259064079" lon="12.155699169972472"><ele>1125.0</ele><time>2026-04-12T11:24:41.925Z</time></trkpt><trkpt lat="46.51000726547981" lon="12.155894090856963"><ele>1132.0</ele><time>2026-04-12T11:24:42.925Z</time></trkpt><trkpt lat="46.50986021069272" lon="12.156051922411148"><ele>1139.0</ele><time>2026-04-12T11:24:43.925Z</time></trkpt><trkpt lat="46.50969930546584" lon="12.156195681753266"><ele>1136.6666666666667</ele><time>2026-04-12T11:24:44.925Z</time></trkpt><trkpt lat="46.509528401545055" lon="12.15629582916674"><ele>1134.3333333333333</ele><time>2026-04-12T11:24:45.925Z</time></trkpt><trkpt lat="46.50934334676074" lon="12.15635736119098"><ele>1132.0</ele><time>2026-04-12T11:24:46.925Z</time></trkpt><trkpt lat="46.50916485051708" lon="12.156388484345614"><ele>1132.0</ele><time>2026-04-12T11:24:47.925Z</time></trkpt><trkpt lat="46.508999797997454" lon="12.156407044043648"><ele>1132.0</ele><time>2026-04-12T11:24:48.925Z</time></trkpt><trkpt lat="46.50885803024572" lon="12.156406102760366"><ele>1132.0</ele><time>2026-04-12T11:24:49.925Z</time></trkpt><trkpt lat="46.50873296116615" lon="12.156425443522025"><ele>1132.0</ele><time>2026-04-12T11:24:50.925Z</time></trkpt><trkpt lat="46.508615106431456" lon="12.156443363096482"><ele>1132.0</ele><time>2026-04-12T11:24:51.925Z</time></trkpt><trkpt lat="46.50851607890036" lon="12.15646430646377"><ele>1132.0</ele><time>2026-04-12T11:24:52.925Z</time></trkpt><trkpt lat="46.50841357979969" lon="12.156485036619685"><ele>1132.0</ele><time>2026-04-12T11:24:53.925Z</time></trkpt><trkpt lat="46.50831129252931" lon="12.156524530657805"><ele>1132.0</ele><time>2026-04-12T11:24:54.925Z</time></trkpt><trkpt lat="46.5082083537465" lon="12.15659808822915"><ele>1132.0</ele><time>2026-04-12T11:24:55.925Z</time></trkpt><trkpt lat="46.50810595123328" lon="12.15669881854349"><ele>1132.25</ele><time>2026-04-12T11:24:56.925Z</time></trkpt><trkpt lat="46.50800740034358" lon="12.156810430400299"><ele>1132.5</ele><time>2026-04-12T11:24:57.925Z</time></trkpt><trkpt lat="46.50791092555137" lon="12.15693811635148"><ele>1132.75</ele><time>2026-04-12T11:24:58.925Z</time></trkpt><trkpt lat="46.50781113245234" lon="12.157067621020033"><ele>1133.0</ele><time>2026-04-12T11:24:59.925Z</time></trkpt><trkpt lat="46.50770278635971" lon="12.157192825418896"><ele>1131.25</ele><time>2026-04-12T11:25:00.925Z</time></trkpt><trkpt lat="46.50758729852791" lon="12.15731603176343"><ele>1129.5</ele><time>2026-04-12T11:25:01.925Z</time></trkpt><trkpt lat="46.50747101444971" lon="12.157445473773842"><ele>1127.75</ele><time>2026-04-12T11:25:02.925Z</time></trkpt><trkpt lat="46.507353774652685" lon="12.157572934081408"><ele>1126.0</ele><time>2026-04-12T11:25:03.925Z</time></trkpt><trkpt lat="46.5072525978928" lon="12.157731558833936"><ele>1126.0</ele><time>2026-04-12T11:25:04.925Z</time></trkpt><trkpt lat="46.507145357874116" lon="12.157858529037323"><ele>1126.0</ele><time>2026-04-12T11:25:05.925Z</time></trkpt><trkpt lat="46.50704504930351" lon="12.15797597441458"><ele>1126.0</ele><time>2026-04-12T11:25:06.925Z</time></trkpt><trkpt lat="46.50694510830713" lon="12.158084502227096"><ele>1126.0</ele><time>2026-04-12T11:25:07.926Z</time></trkpt><trkpt lat="46.50685329288428" lon="12.15818072786458"><ele>1125.1666666666665</ele><time>2026-04-12T11:25:08.926Z</time></trkpt><trkpt lat="46.506777321526656" lon="12.158263567999814"><ele>1124.3333333333333</ele><time>2026-04-12T11:25:09.926Z</time></trkpt><trkpt lat="46.50671484234603" lon="12.158340289924444"><ele>1123.5</ele><time>2026-04-12T11:25:10.926Z</time></trkpt><trkpt lat="46.50665269897522" lon="12.158408594092375"><ele>1122.6666666666667</ele><time>2026-04-12T11:25:11.926Z</time></trkpt><trkpt lat="46.506597784611635" lon="12.158473400820158"><ele>1121.8333333333335</ele><time>2026-04-12T11:25:12.926Z</time></trkpt><trkpt lat="46.50653507593618" lon="12.15854949384408"><ele>1121.0</ele><time>2026-04-12T11:25:14.926Z</time></trkpt><trkpt lat="46.506476243487214" lon="12.158595585943146"><ele>1121.0</ele><time>2026-04-12T11:25:17.926Z</time></trkpt><trkpt lat="46.50637716768283" lon="12.158540095400722"><ele>1121.0</ele><time>2026-04-12T11:25:21.926Z</time></trkpt><trkpt lat="46.50644555307942" lon="12.158532058951247"><ele>1121.0</ele><time>2026-04-12T11:27:40.927Z</time></trkpt><trkpt lat="46.50639567728134" lon="12.15845654495054"><ele>1121.0</ele><time>2026-04-12T11:27:49.927Z</time></trkpt><trkpt lat="46.506375518883544" lon="12.158577411853953"><ele>1121.0</ele><time>2026-04-12T11:30:15.928Z</time></trkpt><trkpt lat="46.50633555194512" lon="12.15847801065746"><ele>1121.0</ele><time>2026-04-12T11:31:36.929Z</time></trkpt><trkpt lat="46.50633662469019" lon="12.158368312794774"><ele>1121.0</ele><time>2026-04-12T11:31:43.945Z</time></trkpt><trkpt lat="46.50633434704091" lon="12.158272766931852"><ele>1121.0</ele><time>2026-04-12T11:32:02.148Z</time></trkpt><trkpt lat="46.50649425094497" lon="12.158442963368822"><ele>1121.0</ele><time>2026-04-12T11:33:03.299Z</time></trkpt><trkpt lat="46.50642534874309" lon="12.158397201211502"><ele>1121.0</ele><time>2026-04-12T11:33:28.929Z</time></trkpt><trkpt lat="46.50635205249452" lon="12.158445450571765"><ele>1121.0</ele><time>2026-04-12T11:33:30.929Z</time></trkpt><trkpt lat="46.50624926122082" lon="12.158283749295903"><ele>1121.0</ele><time>2026-04-12T11:35:21.929Z</time></trkpt><trkpt lat="46.50626694569228" lon="12.15816270867099"><ele>1121.0</ele><time>2026-04-12T11:35:22.929Z</time></trkpt><trkpt lat="46.50630230182779" lon="12.15826223011999"><ele>1121.0</ele><time>2026-04-12T11:35:26.929Z</time></trkpt><trkpt lat="46.506415909708934" lon="12.158294634336318"><ele>1121.0</ele><time>2026-04-12T11:35:29.929Z</time></trkpt><trkpt lat="46.50638396567462" lon="12.158424866717432"><ele>1121.0</ele><time>2026-04-12T11:38:16.931Z</time></trkpt><trkpt lat="46.50628506183064" lon="12.158445067432785"><ele>1121.0</ele><time>2026-04-12T11:38:34.931Z</time></trkpt><trkpt lat="46.506381987656475" lon="12.158407131125607"><ele>1121.0</ele><time>2026-04-12T11:38:49.931Z</time></trkpt><trkpt lat="46.50648586321588" lon="12.158371339723642"><ele>1121.0</ele><time>2026-04-12T11:40:49.93Z</time></trkpt><trkpt lat="46.50639730405151" lon="12.15841572588383"><ele>1121.0</ele><time>2026-04-12T11:40:56.93Z</time></trkpt><trkpt lat="46.506478040811" lon="12.158368476137452"><ele>1121.0</ele><time>2026-04-12T11:46:52.93Z</time></trkpt><trkpt lat="46.50641824672903" lon="12.158338313377584"><ele>1121.0</ele><time>2026-04-12T11:47:12.93Z</time></trkpt><trkpt lat="46.50640095598513" lon="12.158430251588298"><ele>1121.0</ele><time>2026-04-12T11:48:27.93Z</time></trkpt><trkpt lat="46.50632053371667" lon="12.158396870128973"><ele>1121.0</ele><time>2026-04-12T11:48:36.929Z</time></trkpt><trkpt lat="46.506242143918" lon="12.158399865699069"><ele>1121.0</ele><time>2026-04-12T11:48:40.929Z</time></trkpt><trkpt lat="46.50637283546612" lon="12.158405247307805"><ele>1121.0</ele><time>2026-04-12T11:48:59.929Z</time></trkpt><trkpt lat="46.50640487" lon="12.15850925"><ele>1121.0</ele><time>2026-04-12T11:53:32.436Z</time></trkpt><trkpt lat="46.50638361747124" lon="12.158397085210924"><ele>1121.0</ele><time>2026-04-12T11:53:53.93Z</time></trkpt><trkpt lat="46.50642148531073" lon="12.158481980507656"><ele>1121.0</ele><time>2026-04-12T11:58:53.501Z</time></trkpt><trkpt lat="46.506501229309784" lon="12.158551729609883"><ele>1121.0</ele><time>2026-04-12T12:09:09.935Z</time></trkpt><trkpt lat="46.506604044064055" lon="12.158595395676738"><ele>1121.0</ele><time>2026-04-12T12:09:28.935Z</time></trkpt><trkpt lat="46.50653127327901" lon="12.15854597252376"><ele>1121.0</ele><time>2026-04-12T12:11:08.936Z</time></trkpt><trkpt lat="46.506472209042286" lon="12.15850766842237"><ele>1121.0</ele><time>2026-04-12T12:11:15.936Z</time></trkpt><trkpt lat="46.5064099849724" lon="12.158464900874105"><ele>1121.0</ele><time>2026-04-12T12:11:19.936Z</time></trkpt><trkpt lat="46.50637557841551" lon="12.158353816338893"><ele>1121.0</ele><time>2026-04-12T12:18:28.938Z</time></trkpt><trkpt lat="46.50635501460112" lon="12.15825934634725"><ele>1121.0</ele><time>2026-04-12T12:18:29.938Z</time></trkpt><trkpt lat="46.506366100728634" lon="12.158362153699176"><ele>1121.0</ele><time>2026-04-12T12:19:06.938Z</time></trkpt><trkpt lat="46.50641025815069" lon="12.158431207600934"><ele>1121.0</ele><time>2026-04-12T12:20:49.938Z</time></trkpt><trkpt lat="46.506505273325836" lon="12.158333435665963"><ele>1121.0</ele><time>2026-04-12T12:21:30.938Z</time></trkpt><trkpt lat="46.506405998575765" lon="12.158507268415965"><ele>1121.0</ele><time>2026-04-12T12:22:52.799Z</time></trkpt><trkpt lat="46.50641624348559" lon="12.158412021984127"><ele>1121.0</ele><time>2026-04-12T12:28:10.937Z</time></trkpt><trkpt lat="46.5063446576923" lon="12.158428687311748"><ele>1121.0</ele><time>2026-04-12T12:28:17.938Z</time></trkpt><trkpt lat="46.50639976485389" lon="12.158070316705295"><ele>1121.0</ele><time>2026-04-12T12:30:49.938Z</time></trkpt><trkpt lat="46.50639076902543" lon="12.158409488734698"><ele>1121.0</ele><time>2026-04-12T12:30:52.938Z</time></trkpt><trkpt lat="46.50630399880557" lon="12.15850344737534"><ele>1121.0</ele><time>2026-04-12T12:31:11.938Z</time></trkpt><trkpt lat="46.50637448113285" lon="12.158519644082645"><ele>1121.0</ele><time>2026-04-12T12:36:01.939Z</time></trkpt><trkpt lat="46.50631942030387" lon="12.158661047018244"><ele>1121.0</ele><time>2026-04-12T12:36:10.939Z</time></trkpt><trkpt lat="46.506292252141684" lon="12.158543127962979"><ele>1121.0</ele><time>2026-04-12T12:36:13.939Z</time></trkpt><trkpt lat="46.506317709263506" lon="12.158643794130075"><ele>1121.0</ele><time>2026-04-12T12:36:16.939Z</time></trkpt><trkpt lat="46.506347346291356" lon="12.158552663351863"><ele>1121.0</ele><time>2026-04-12T12:36:40.939Z</time></trkpt><trkpt lat="46.506329527757316" lon="12.158644428149643"><ele>1121.0</ele><time>2026-04-12T12:37:15.939Z</time></trkpt><trkpt lat="46.506260813567344" lon="12.158632578559969"><ele>1121.0</ele><time>2026-04-12T12:37:47.939Z</time></trkpt><trkpt lat="46.50632615393755" lon="12.158597808801543"><ele>1121.0</ele><time>2026-04-12T12:37:48.939Z</time></trkpt><trkpt lat="46.50633682900058" lon="12.15847679215571"><ele>1121.0</ele><time>2026-04-12T12:39:40.939Z</time></trkpt><trkpt lat="46.50638954709761" lon="12.158585283863724"><ele>1121.0</ele><time>2026-04-12T12:40:52.939Z</time></trkpt><trkpt lat="46.50645463347208" lon="12.15848733936568"><ele>1121.0</ele><time>2026-04-12T12:42:16.939Z</time></trkpt><trkpt lat="46.50643527679313" lon="12.158576971921287"><ele>1121.0</ele><time>2026-04-12T12:47:01.94Z</time></trkpt><trkpt lat="46.50640559484035" lon="12.158704748106308"><ele>1121.0</ele><time>2026-04-12T12:47:04.94Z</time></trkpt><trkpt lat="46.50632589565034" lon="12.158814827191929"><ele>1121.0</ele><time>2026-04-12T12:47:05.94Z</time></trkpt><trkpt lat="46.50625606550211" lon="12.158866115815052"><ele>1121.0</ele><time>2026-04-12T12:47:06.94Z</time></trkpt><trkpt lat="46.50619255627198" lon="12.158893131144225"><ele>1121.0</ele><time>2026-04-12T12:47:07.94Z</time></trkpt><trkpt lat="46.50612153700397" lon="12.158914423314977"><ele>1120.5</ele><time>2026-04-12T12:47:08.94Z</time></trkpt><trkpt lat="46.506047232894026" lon="12.159005350473175"><ele>1120.0</ele><time>2026-04-12T12:47:10.94Z</time></trkpt><trkpt lat="46.5058950120452" lon="12.159290591547714"><ele>1119.5</ele><time>2026-04-12T12:47:11.94Z</time></trkpt><trkpt lat="46.505828818843106" lon="12.159368416864003"><ele>1119.0</ele><time>2026-04-12T12:47:12.94Z</time></trkpt><trkpt lat="46.50576055424438" lon="12.159459220409605"><ele>1119.0</ele><time>2026-04-12T12:47:13.94Z</time></trkpt><trkpt lat="46.50567526306417" lon="12.15955055920647"><ele>1119.0</ele><time>2026-04-12T12:47:14.94Z</time></trkpt><trkpt lat="46.50558197694792" lon="12.159644202375127"><ele>1119.0</ele><time>2026-04-12T12:47:15.94Z</time></trkpt><trkpt lat="46.50549481399264" lon="12.159766599420422"><ele>1119.0</ele><time>2026-04-12T12:47:16.94Z</time></trkpt><trkpt lat="46.505392999771296" lon="12.159904457169613"><ele>1119.5</ele><time>2026-04-12T12:47:17.94Z</time></trkpt><trkpt lat="46.50530329005213" lon="12.160039834694231"><ele>1120.0</ele><time>2026-04-12T12:47:18.94Z</time></trkpt><trkpt lat="46.5052276626487" lon="12.160162510444245"><ele>1120.5</ele><time>2026-04-12T12:47:19.94Z</time></trkpt><trkpt lat="46.50515871792431" lon="12.160312147481115"><ele>1121.0</ele><time>2026-04-12T12:47:20.94Z</time></trkpt><trkpt lat="46.50511383366023" lon="12.160496809756543"><ele>1121.0</ele><time>2026-04-12T12:47:21.94Z</time></trkpt><trkpt lat="46.505060364309806" lon="12.16068370670252"><ele>1121.0</ele><time>2026-04-12T12:47:22.94Z</time></trkpt><trkpt lat="46.50501078472761" lon="12.160890078131962"><ele>1121.0</ele><time>2026-04-12T12:47:23.94Z</time></trkpt><trkpt lat="46.50496278169158" lon="12.161104847600122"><ele>1121.0</ele><time>2026-04-12T12:47:24.94Z</time></trkpt><trkpt lat="46.50492139979634" lon="12.161307934501181"><ele>1122.25</ele><time>2026-04-12T12:47:25.94Z</time></trkpt><trkpt lat="46.504871980402" lon="12.161494400245479"><ele>1123.5</ele><time>2026-04-12T12:47:26.94Z</time></trkpt><trkpt lat="46.50481206352582" lon="12.161679264101117"><ele>1124.75</ele><time>2026-04-12T12:47:27.94Z</time></trkpt><trkpt lat="46.50473397082188" lon="12.161854739560507"><ele>1126.0</ele><time>2026-04-12T12:47:28.94Z</time></trkpt><trkpt lat="46.50464416174186" lon="12.162027039656254"><ele>1124.6666666666665</ele><time>2026-04-12T12:47:29.94Z</time></trkpt><trkpt lat="46.50453999708207" lon="12.162180447675512"><ele>1123.3333333333333</ele><time>2026-04-12T12:47:30.94Z</time></trkpt><trkpt lat="46.504415304558016" lon="12.162337508088664"><ele>1122.0</ele><time>2026-04-12T12:47:31.94Z</time></trkpt><trkpt lat="46.50427856121564" lon="12.162449847756552"><ele>1122.0</ele><time>2026-04-12T12:47:32.94Z</time></trkpt><trkpt lat="46.504130895096736" lon="12.162599372120365"><ele>1122.0</ele><time>2026-04-12T12:47:33.94Z</time></trkpt><trkpt lat="46.50395814417583" lon="12.162761737732014"><ele>1122.0</ele><time>2026-04-12T12:47:34.94Z</time></trkpt><trkpt lat="46.50380821677999" lon="12.162909207082684"><ele>1121.3333333333333</ele><time>2026-04-12T12:47:35.94Z</time></trkpt><trkpt lat="46.503674138744785" lon="12.163038381064815"><ele>1120.6666666666665</ele><time>2026-04-12T12:47:36.94Z</time></trkpt><trkpt lat="46.50354947677532" lon="12.163163919026696"><ele>1120.0</ele><time>2026-04-12T12:47:37.94Z</time></trkpt><trkpt lat="46.50342605485682" lon="12.163280940527073"><ele>1120.0</ele><time>2026-04-12T12:47:38.94Z</time></trkpt><trkpt lat="46.50331156264722" lon="12.16340205909859"><ele>1120.0</ele><time>2026-04-12T12:47:39.94Z</time></trkpt><trkpt lat="46.503185248381385" lon="12.16351591895632"><ele>1120.0</ele><time>2026-04-12T12:47:40.94Z</time></trkpt><trkpt lat="46.50305943589073" lon="12.163637541944322"><ele>1120.0</ele><time>2026-04-12T12:47:41.94Z</time></trkpt><trkpt lat="46.50293202880308" lon="12.16376485633653"><ele>1118.75</ele><time>2026-04-12T12:47:42.94Z</time></trkpt><trkpt lat="46.502798427101524" lon="12.16389324486975"><ele>1117.5</ele><time>2026-04-12T12:47:43.94Z</time></trkpt><trkpt lat="46.50267072212293" lon="12.164012477483483"><ele>1116.25</ele><time>2026-04-12T12:47:44.94Z</time></trkpt><trkpt lat="46.502565869004" lon="12.16407885877483"><ele>1115.0</ele><time>2026-04-12T12:47:45.94Z</time></trkpt><trkpt lat="46.50246496871477" lon="12.164154472134753"><ele>1115.0</ele><time>2026-04-12T12:47:46.94Z</time></trkpt><trkpt lat="46.50230310977158" lon="12.164352289972191"><ele>1115.0</ele><time>2026-04-12T12:47:47.94Z</time></trkpt><trkpt lat="46.5021206060403" lon="12.164543880281807"><ele>1115.0</ele><time>2026-04-12T12:47:48.94Z</time></trkpt><trkpt lat="46.50196458228448" lon="12.16469567333272"><ele>1118.3333333333335</ele><time>2026-04-12T12:47:49.94Z</time></trkpt><trkpt lat="46.50181557447987" lon="12.164842206215203"><ele>1121.6666666666667</ele><time>2026-04-12T12:47:50.94Z</time></trkpt><trkpt lat="46.501665031773456" lon="12.16498879330169"><ele>1125.0</ele><time>2026-04-12T12:47:51.94Z</time></trkpt><trkpt lat="46.50151520653883" lon="12.165144152985896"><ele>1125.0</ele><time>2026-04-12T12:47:52.94Z</time></trkpt><trkpt lat="46.50136073946335" lon="12.165300302244336"><ele>1125.0</ele><time>2026-04-12T12:47:53.94Z</time></trkpt><trkpt lat="46.50120252213808" lon="12.165448057514851"><ele>1125.0</ele><time>2026-04-12T12:47:54.94Z</time></trkpt><trkpt lat="46.50104129997302" lon="12.165598285382888"><ele>1124.0</ele><time>2026-04-12T12:47:55.94Z</time></trkpt><trkpt lat="46.50088050025417" lon="12.165755301971037"><ele>1123.0</ele><time>2026-04-12T12:47:56.94Z</time></trkpt><trkpt lat="46.500718933903535" lon="12.165917357446082"><ele>1122.0</ele><time>2026-04-12T12:47:57.94Z</time></trkpt><trkpt lat="46.50055944108253" lon="12.166079788817285"><ele>1121.0</ele><time>2026-04-12T12:47:58.94Z</time></trkpt><trkpt lat="46.50039997062366" lon="12.166243894374814"><ele>1120.0</ele><time>2026-04-12T12:47:59.94Z</time></trkpt><trkpt lat="46.50024517125827" lon="12.166425449091772"><ele>1119.0</ele><time>2026-04-12T12:48:00.94Z</time></trkpt><trkpt lat="46.50009664456338" lon="12.166638640306791"><ele>1119.0</ele><time>2026-04-12T12:48:01.94Z</time></trkpt><trkpt lat="46.499959451845115" lon="12.166885406788447"><ele>1119.0</ele><time>2026-04-12T12:48:02.94Z</time></trkpt><trkpt lat="46.499829143503" lon="12.167167219825618"><ele>1122.0</ele><time>2026-04-12T12:48:03.94Z</time></trkpt><trkpt lat="46.4997054352039" lon="12.167473734067178"><ele>1125.0</ele><time>2026-04-12T12:48:04.94Z</time></trkpt><trkpt lat="46.49959148569155" lon="12.167786510242204"><ele>1122.0</ele><time>2026-04-12T12:48:05.94Z</time></trkpt><trkpt lat="46.4994743721221" lon="12.168072946083345"><ele>1119.0</ele><time>2026-04-12T12:48:06.94Z</time></trkpt><trkpt lat="46.49935989525958" lon="12.16831858411486"><ele>1116.0</ele><time>2026-04-12T12:48:07.94Z</time></trkpt><trkpt lat="46.4992597900325" lon="12.168556908295523"><ele>1116.0</ele><time>2026-04-12T12:48:08.94Z</time></trkpt><trkpt lat="46.49913663857476" lon="12.16878246785382"><ele>1116.0</ele><time>2026-04-12T12:48:09.94Z</time></trkpt><trkpt lat="46.498992167397155" lon="12.168987758302167"><ele>1116.0</ele><time>2026-04-12T12:48:10.94Z</time></trkpt><trkpt lat="46.498841520889556" lon="12.169150332460982"><ele>1115.6666666666667</ele><time>2026-04-12T12:48:11.94Z</time></trkpt><trkpt lat="46.49868664226239" lon="12.169273000687644"><ele>1115.3333333333335</ele><time>2026-04-12T12:48:12.94Z</time></trkpt><trkpt lat="46.49853715969591" lon="12.16937532686262"><ele>1115.0</ele><time>2026-04-12T12:48:13.94Z</time></trkpt><trkpt lat="46.49839862462992" lon="12.169490183276523"><ele>1115.0</ele><time>2026-04-12T12:48:14.94Z</time></trkpt><trkpt lat="46.49826023222654" lon="12.169622173887573"><ele>1115.0</ele><time>2026-04-12T12:48:15.94Z</time></trkpt><trkpt lat="46.49811078354999" lon="12.16974260911847"><ele>1115.0</ele><time>2026-04-12T12:48:16.94Z</time></trkpt><trkpt lat="46.49800661965105" lon="12.169985824113349"><ele>1115.3333333333335</ele><time>2026-04-12T12:48:17.94Z</time></trkpt><trkpt lat="46.49790518018242" lon="12.170206073316075"><ele>1115.6666666666667</ele><time>2026-04-12T12:48:18.94Z</time></trkpt><trkpt lat="46.49781845132227" lon="12.170445039034595"><ele>1116.0</ele><time>2026-04-12T12:48:19.94Z</time></trkpt><trkpt lat="46.49775695102914" lon="12.170702810719611"><ele>1116.0</ele><time>2026-04-12T12:48:20.94Z</time></trkpt><trkpt lat="46.49772511735828" lon="12.1709904703397"><ele>1116.0</ele><time>2026-04-12T12:48:21.94Z</time></trkpt><trkpt lat="46.49771852120604" lon="12.1713072244149"><ele>1116.0</ele><time>2026-04-12T12:48:22.94Z</time></trkpt><trkpt lat="46.49773129316744" lon="12.171640827841916"><ele>1117.0</ele><time>2026-04-12T12:48:23.94Z</time></trkpt><trkpt lat="46.49773270566974" lon="12.171987821893973"><ele>1118.0</ele><time>2026-04-12T12:48:24.94Z</time></trkpt><trkpt lat="46.49772168189416" lon="12.172325189686054"><ele>1118.6666666666667</ele><time>2026-04-12T12:48:25.94Z</time></trkpt><trkpt lat="46.49768369681328" lon="12.1726329323741"><ele>1119.3333333333333</ele><time>2026-04-12T12:48:26.94Z</time></trkpt><trkpt lat="46.497634800003915" lon="12.17292406154665"><ele>1120.0</ele><time>2026-04-12T12:48:27.94Z</time></trkpt><trkpt lat="46.49758347935957" lon="12.173192426949191"><ele>1120.0</ele><time>2026-04-12T12:48:28.94Z</time></trkpt><trkpt lat="46.4975388246278" lon="12.173460397801877"><ele>1120.0</ele><time>2026-04-12T12:48:29.94Z</time></trkpt><trkpt lat="46.49751337989635" lon="12.173728259347628"><ele>1120.0</ele><time>2026-04-12T12:48:30.94Z</time></trkpt><trkpt lat="46.49750842313182" lon="12.173995170608729"><ele>1121.3333333333333</ele><time>2026-04-12T12:48:31.94Z</time></trkpt><trkpt lat="46.49751273409436" lon="12.17427026460721"><ele>1122.6666666666667</ele><time>2026-04-12T12:48:32.94Z</time></trkpt><trkpt lat="46.49751427495446" lon="12.174534406445337"><ele>1124.0</ele><time>2026-04-12T12:48:33.94Z</time></trkpt><trkpt lat="46.49750577116902" lon="12.174785967850474"><ele>1124.3333333333335</ele><time>2026-04-12T12:48:34.94Z</time></trkpt><trkpt lat="46.49747725041791" lon="12.175020747308167"><ele>1124.6666666666667</ele><time>2026-04-12T12:48:35.94Z</time></trkpt><trkpt lat="46.497432415479636" lon="12.175246170538207"><ele>1125.0</ele><time>2026-04-12T12:48:36.94Z</time></trkpt><trkpt lat="46.497389841191804" lon="12.175484978569651"><ele>1125.0</ele><time>2026-04-12T12:48:37.94Z</time></trkpt><trkpt lat="46.497328177824976" lon="12.175725854673669"><ele>1125.0</ele><time>2026-04-12T12:48:38.94Z</time></trkpt><trkpt lat="46.497242720937955" lon="12.175961321268865"><ele>1125.0</ele><time>2026-04-12T12:48:39.94Z</time></trkpt><trkpt lat="46.49716569169718" lon="12.176192854016197"><ele>1121.3333333333333</ele><time>2026-04-12T12:48:40.94Z</time></trkpt><trkpt lat="46.497064836221476" lon="12.176410217705842"><ele>1117.6666666666665</ele><time>2026-04-12T12:48:41.94Z</time></trkpt><trkpt lat="46.49697326440507" lon="12.17664300725234"><ele>1114.0</ele><time>2026-04-12T12:48:42.94Z</time></trkpt><trkpt lat="46.49687928607955" lon="12.176890489243853"><ele>1114.0</ele><time>2026-04-12T12:48:43.94Z</time></trkpt><trkpt lat="46.49677182353793" lon="12.177111194482722"><ele>1114.0</ele><time>2026-04-12T12:48:44.94Z</time></trkpt><trkpt lat="46.496641306187804" lon="12.177320255442266"><ele>1114.0</ele><time>2026-04-12T12:48:45.94Z</time></trkpt><trkpt lat="46.49650240228871" lon="12.177527796173056"><ele>1112.6666666666665</ele><time>2026-04-12T12:48:46.94Z</time></trkpt><trkpt lat="46.49636742183734" lon="12.17773528833475"><ele>1111.3333333333333</ele><time>2026-04-12T12:48:47.94Z</time></trkpt><trkpt lat="46.4962233839193" lon="12.177936283784495"><ele>1110.0</ele><time>2026-04-12T12:48:48.94Z</time></trkpt><trkpt lat="46.496085082196956" lon="12.1781274812197"><ele>1111.6666666666667</ele><time>2026-04-12T12:48:49.94Z</time></trkpt><trkpt lat="46.49595429162973" lon="12.178312038775491"><ele>1113.3333333333335</ele><time>2026-04-12T12:48:50.94Z</time></trkpt><trkpt lat="46.49582788251319" lon="12.178477325652384"><ele>1115.0</ele><time>2026-04-12T12:48:51.94Z</time></trkpt><trkpt lat="46.49570113814332" lon="12.178625672836946"><ele>1115.0</ele><time>2026-04-12T12:48:52.94Z</time></trkpt><trkpt lat="46.49557382574156" lon="12.17876018698717"><ele>1115.0</ele><time>2026-04-12T12:48:53.94Z</time></trkpt><trkpt lat="46.495436733851236" lon="12.178886215048136"><ele>1115.0</ele><time>2026-04-12T12:48:54.94Z</time></trkpt><trkpt lat="46.49528995097078" lon="12.179016866726192"><ele>1117.6666666666667</ele><time>2026-04-12T12:48:55.94Z</time></trkpt><trkpt lat="46.49512267853343" lon="12.179141821763542"><ele>1120.3333333333333</ele><time>2026-04-12T12:48:56.94Z</time></trkpt><trkpt lat="46.49494636013353" lon="12.179258488516249"><ele>1123.0</ele><time>2026-04-12T12:48:57.94Z</time></trkpt><trkpt lat="46.49474983540416" lon="12.179361142213164"><ele>1122.3333333333333</ele><time>2026-04-12T12:48:58.94Z</time></trkpt><trkpt lat="46.49454739190522" lon="12.17945726762449"><ele>1121.6666666666667</ele><time>2026-04-12T12:48:59.94Z</time></trkpt><trkpt lat="46.49433422121636" lon="12.17955624001485"><ele>1121.0</ele><time>2026-04-12T12:49:00.94Z</time></trkpt><trkpt lat="46.49412338975226" lon="12.17965031408272"><ele>1121.0</ele><time>2026-04-12T12:49:01.94Z</time></trkpt><trkpt lat="46.49393049258165" lon="12.179757265709659"><ele>1121.0</ele><time>2026-04-12T12:49:02.94Z</time></trkpt><trkpt lat="46.49372414603169" lon="12.179866185870038"><ele>1121.0</ele><time>2026-04-12T12:49:03.94Z</time></trkpt><trkpt lat="46.49351201854297" lon="12.179967065170077"><ele>1122.3333333333335</ele><time>2026-04-12T12:49:04.94Z</time></trkpt><trkpt lat="46.49332177676408" lon="12.180080206636617"><ele>1123.6666666666667</ele><time>2026-04-12T12:49:05.94Z</time></trkpt><trkpt lat="46.49312866076865" lon="12.180206600569422"><ele>1125.0</ele><time>2026-04-12T12:49:06.94Z</time></trkpt><trkpt lat="46.49295087060748" lon="12.18033889817767"><ele>1124.6666666666667</ele><time>2026-04-12T12:49:07.94Z</time></trkpt><trkpt lat="46.49278666939839" lon="12.180486480411451"><ele>1124.3333333333335</ele><time>2026-04-12T12:49:08.94Z</time></trkpt><trkpt lat="46.49263463863179" lon="12.180659769954497"><ele>1124.0</ele><time>2026-04-12T12:49:09.94Z</time></trkpt><trkpt lat="46.49249343526465" lon="12.180857507276077"><ele>1124.0</ele><time>2026-04-12T12:49:10.94Z</time></trkpt><trkpt lat="46.49236186066872" lon="12.181055987569547"><ele>1124.0</ele><time>2026-04-12T12:49:11.94Z</time></trkpt><trkpt lat="46.49223469189703" lon="12.18123746327554"><ele>1124.0</ele><time>2026-04-12T12:49:12.94Z</time></trkpt><trkpt lat="46.49211859170515" lon="12.181407673249595"><ele>1122.5</ele><time>2026-04-12T12:49:13.941Z</time></trkpt><trkpt lat="46.49199770657613" lon="12.18155989913635"><ele>1121.0</ele><time>2026-04-12T12:49:14.941Z</time></trkpt><trkpt lat="46.491892467704325" lon="12.181705789638077"><ele>1119.5</ele><time>2026-04-12T12:49:15.941Z</time></trkpt><trkpt lat="46.49180778452344" lon="12.181822809444078"><ele>1118.0</ele><time>2026-04-12T12:49:16.941Z</time></trkpt><trkpt lat="46.491691505281196" lon="12.182011293142093"><ele>1118.0</ele><time>2026-04-12T12:49:17.941Z</time></trkpt><trkpt lat="46.49156555728557" lon="12.182176069049941"><ele>1118.0</ele><time>2026-04-12T12:49:18.941Z</time></trkpt><trkpt lat="46.49141087460796" lon="12.182392704947754"><ele>1118.0</ele><time>2026-04-12T12:49:19.941Z</time></trkpt><trkpt lat="46.49124742287342" lon="12.182646917594587"><ele>1116.6666666666667</ele><time>2026-04-12T12:49:20.941Z</time></trkpt><trkpt lat="46.49108851334606" lon="12.182861285158417"><ele>1115.3333333333333</ele><time>2026-04-12T12:49:21.941Z</time></trkpt><trkpt lat="46.49104271655117" lon="12.18295170227349"><ele>1114.0</ele><time>2026-04-12T12:49:22.941Z</time></trkpt><trkpt lat="46.490917400802566" lon="12.18311996529612"><ele>1116.3333333333333</ele><time>2026-04-12T12:49:23.941Z</time></trkpt><trkpt lat="46.49080189657686" lon="12.183296907937143"><ele>1118.6666666666667</ele><time>2026-04-12T12:49:24.941Z</time></trkpt><trkpt lat="46.49067952962928" lon="12.183465098793603"><ele>1121.0</ele><time>2026-04-12T12:49:25.941Z</time></trkpt><trkpt lat="46.49056447723776" lon="12.18363195611379"><ele>1121.0</ele><time>2026-04-12T12:49:26.941Z</time></trkpt><trkpt lat="46.49045159425501" lon="12.183795970616638"><ele>1121.0</ele><time>2026-04-12T12:49:27.941Z</time></trkpt><trkpt lat="46.49032896375639" lon="12.183975312741522"><ele>1121.0</ele><time>2026-04-12T12:49:28.941Z</time></trkpt><trkpt lat="46.490189884542886" lon="12.184142231753091"><ele>1118.3333333333335</ele><time>2026-04-12T12:49:29.941Z</time></trkpt><trkpt lat="46.49005145752506" lon="12.184303844260684"><ele>1115.6666666666667</ele><time>2026-04-12T12:49:30.941Z</time></trkpt><trkpt lat="46.489902562203206" lon="12.18445936090681"><ele>1113.0</ele><time>2026-04-12T12:49:31.941Z</time></trkpt><trkpt lat="46.489748456470984" lon="12.184620609331704"><ele>1110.6666666666667</ele><time>2026-04-12T12:49:32.941Z</time></trkpt><trkpt lat="46.489586215845556" lon="12.184777150740183"><ele>1108.3333333333335</ele><time>2026-04-12T12:49:33.941Z</time></trkpt><trkpt lat="46.48942385276992" lon="12.184946062350198"><ele>1106.0</ele><time>2026-04-12T12:49:34.941Z</time></trkpt><trkpt lat="46.489245418745824" lon="12.185123592597929"><ele>1106.0</ele><time>2026-04-12T12:49:35.941Z</time></trkpt><trkpt lat="46.48906959415575" lon="12.185318899003086"><ele>1106.0</ele><time>2026-04-12T12:49:36.941Z</time></trkpt><trkpt lat="46.488885789637514" lon="12.185515782433782"><ele>1105.3333333333335</ele><time>2026-04-12T12:49:37.941Z</time></trkpt><trkpt lat="46.48870389003638" lon="12.18569260622849"><ele>1104.6666666666667</ele><time>2026-04-12T12:49:38.941Z</time></trkpt><trkpt lat="46.488535356241066" lon="12.185857976329647"><ele>1104.0</ele><time>2026-04-12T12:49:39.941Z</time></trkpt><trkpt lat="46.488368226949696" lon="12.186028679169686"><ele>1104.0</ele><time>2026-04-12T12:49:40.941Z</time></trkpt><trkpt lat="46.48820771211356" lon="12.186228772736397"><ele>1104.0</ele><time>2026-04-12T12:49:41.941Z</time></trkpt><trkpt lat="46.48806529007398" lon="12.186454317277404"><ele>1104.0</ele><time>2026-04-12T12:49:42.941Z</time></trkpt><trkpt lat="46.48794288963271" lon="12.186708001223789"><ele>1101.3333333333333</ele><time>2026-04-12T12:49:43.941Z</time></trkpt><trkpt lat="46.48784616723541" lon="12.186965746175742"><ele>1098.6666666666665</ele><time>2026-04-12T12:49:44.941Z</time></trkpt><trkpt lat="46.487751266880615" lon="12.187208380437262"><ele>1096.0</ele><time>2026-04-12T12:49:45.941Z</time></trkpt><trkpt lat="46.48766754919485" lon="12.18746127867962"><ele>1096.0</ele><time>2026-04-12T12:49:46.941Z</time></trkpt><trkpt lat="46.48758907378223" lon="12.18771185522453"><ele>1096.0</ele><time>2026-04-12T12:49:47.941Z</time></trkpt><trkpt lat="46.48749346602307" lon="12.187950295099998"><ele>1096.0</ele><time>2026-04-12T12:49:48.941Z</time></trkpt><trkpt lat="46.48740784817782" lon="12.188199725864028"><ele>1097.6666666666665</ele><time>2026-04-12T12:49:49.941Z</time></trkpt><trkpt lat="46.487320840395334" lon="12.188457917039521"><ele>1099.3333333333333</ele><time>2026-04-12T12:49:50.941Z</time></trkpt><trkpt lat="46.487224794404135" lon="12.188719581146456"><ele>1101.0</ele><time>2026-04-12T12:49:51.941Z</time></trkpt><trkpt lat="46.48713844156789" lon="12.18899537783692"><ele>1098.0</ele><time>2026-04-12T12:49:52.941Z</time></trkpt><trkpt lat="46.487055540635986" lon="12.189297965978549"><ele>1095.0</ele><time>2026-04-12T12:49:53.941Z</time></trkpt><trkpt lat="46.4869757190391" lon="12.18959446362076"><ele>1092.0</ele><time>2026-04-12T12:49:54.941Z</time></trkpt><trkpt lat="46.48689485590188" lon="12.189879316229343"><ele>1092.0</ele><time>2026-04-12T12:49:55.941Z</time></trkpt><trkpt lat="46.48680189224155" lon="12.190116473447251"><ele>1092.0</ele><time>2026-04-12T12:49:56.941Z</time></trkpt><trkpt lat="46.486719692078964" lon="12.190389460505777"><ele>1092.0</ele><time>2026-04-12T12:49:57.941Z</time></trkpt><trkpt lat="46.486605946944096" lon="12.190661332309025"><ele>1093.5</ele><time>2026-04-12T12:49:58.941Z</time></trkpt><trkpt lat="46.48646663827029" lon="12.190908176079043"><ele>1095.0</ele><time>2026-04-12T12:49:59.941Z</time></trkpt><trkpt lat="46.486306973254884" lon="12.191150009870917"><ele>1095.5</ele><time>2026-04-12T12:50:00.941Z</time></trkpt><trkpt lat="46.486110189090276" lon="12.191372877121285"><ele>1096.0</ele><time>2026-04-12T12:50:01.941Z</time></trkpt><trkpt lat="46.48588396473903" lon="12.191574608770038"><ele>1096.0</ele><time>2026-04-12T12:50:02.941Z</time></trkpt><trkpt lat="46.48565119713178" lon="12.19178122942421"><ele>1096.0</ele><time>2026-04-12T12:50:03.941Z</time></trkpt><trkpt lat="46.48542661754109" lon="12.192008712749226"><ele>1095.0</ele><time>2026-04-12T12:50:04.941Z</time></trkpt><trkpt lat="46.485219373720675" lon="12.1922074599213"><ele>1094.0</ele><time>2026-04-12T12:50:05.941Z</time></trkpt><trkpt lat="46.485022685103026" lon="12.192384952240399"><ele>1094.0</ele><time>2026-04-12T12:50:06.941Z</time></trkpt><trkpt lat="46.48483560938202" lon="12.192560410382628"><ele>1094.0</ele><time>2026-04-12T12:50:07.941Z</time></trkpt><trkpt lat="46.48465311498769" lon="12.192731108624013"><ele>1094.0</ele><time>2026-04-12T12:50:08.941Z</time></trkpt><trkpt lat="46.48447017892969" lon="12.192884551350712"><ele>1094.6666666666667</ele><time>2026-04-12T12:50:09.941Z</time></trkpt><trkpt lat="46.484276442875284" lon="12.193024831556057"><ele>1095.3333333333333</ele><time>2026-04-12T12:50:10.941Z</time></trkpt><trkpt lat="46.484070172280255" lon="12.193141692623518"><ele>1096.0</ele><time>2026-04-12T12:50:11.941Z</time></trkpt><trkpt lat="46.483853763187575" lon="12.193248746400263"><ele>1093.0</ele><time>2026-04-12T12:50:12.941Z</time></trkpt><trkpt lat="46.48363514942058" lon="12.193328293382885"><ele>1090.0</ele><time>2026-04-12T12:50:13.941Z</time></trkpt><trkpt lat="46.483429217884144" lon="12.193409418412514"><ele>1087.0</ele><time>2026-04-12T12:50:14.941Z</time></trkpt><trkpt lat="46.48323706321536" lon="12.193498990161586"><ele>1087.0</ele><time>2026-04-12T12:50:15.941Z</time></trkpt><trkpt lat="46.48304355182385" lon="12.193582701626383"><ele>1087.0</ele><time>2026-04-12T12:50:16.941Z</time></trkpt><trkpt lat="46.482855074390635" lon="12.193661621640183"><ele>1087.0</ele><time>2026-04-12T12:50:17.941Z</time></trkpt><trkpt lat="46.48265035644991" lon="12.193753883316903"><ele>1081.0</ele><time>2026-04-12T12:50:18.941Z</time></trkpt><trkpt lat="46.48244344743661" lon="12.193857407280637"><ele>1075.0</ele><time>2026-04-12T12:50:19.941Z</time></trkpt><trkpt lat="46.48221159088701" lon="12.193989239215917"><ele>1075.5</ele><time>2026-04-12T12:50:20.941Z</time></trkpt><trkpt lat="46.481980352947794" lon="12.194156170023001"><ele>1076.0</ele><time>2026-04-12T12:50:21.941Z</time></trkpt><trkpt lat="46.481751338432446" lon="12.194338778264669"><ele>1076.0</ele><time>2026-04-12T12:50:22.941Z</time></trkpt><trkpt lat="46.48153913472143" lon="12.194515880776844"><ele>1076.0</ele><time>2026-04-12T12:50:23.941Z</time></trkpt><trkpt lat="46.48134202344655" lon="12.194677002446435"><ele>1074.0</ele><time>2026-04-12T12:50:24.941Z</time></trkpt><trkpt lat="46.48115212619985" lon="12.19482521294324"><ele>1072.0</ele><time>2026-04-12T12:50:25.941Z</time></trkpt><trkpt lat="46.48097251647232" lon="12.194968255592945"><ele>1070.0</ele><time>2026-04-12T12:50:26.941Z</time></trkpt><trkpt lat="46.48080860655076" lon="12.195103385424746"><ele>1070.0</ele><time>2026-04-12T12:50:27.941Z</time></trkpt><trkpt lat="46.48065397459008" lon="12.195225401708065"><ele>1070.0</ele><time>2026-04-12T12:50:28.941Z</time></trkpt><trkpt lat="46.48051361165806" lon="12.195344851134662"><ele>1070.0</ele><time>2026-04-12T12:50:29.941Z</time></trkpt><trkpt lat="46.480374157056964" lon="12.195459731117564"><ele>1069.5</ele><time>2026-04-12T12:50:30.941Z</time></trkpt><trkpt lat="46.48024706140671" lon="12.195582986981895"><ele>1069.0</ele><time>2026-04-12T12:50:31.941Z</time></trkpt><trkpt lat="46.48013623314605" lon="12.195719613891882"><ele>1068.5</ele><time>2026-04-12T12:50:32.941Z</time></trkpt><trkpt lat="46.4800261070194" lon="12.195864240015378"><ele>1068.0</ele><time>2026-04-12T12:50:33.941Z</time></trkpt><trkpt lat="46.47990329412157" lon="12.195984201765885"><ele>1068.0</ele><time>2026-04-12T12:50:34.941Z</time></trkpt><trkpt lat="46.47975980206008" lon="12.196078505649577"><ele>1068.0</ele><time>2026-04-12T12:50:35.941Z</time></trkpt><trkpt lat="46.47960485744921" lon="12.196137644519924"><ele>1068.0</ele><time>2026-04-12T12:50:36.941Z</time></trkpt><trkpt lat="46.47945609453398" lon="12.19616466500855"><ele>1065.0</ele><time>2026-04-12T12:50:37.941Z</time></trkpt><trkpt lat="46.47930530161969" lon="12.19617999218844"><ele>1062.0</ele><time>2026-04-12T12:50:38.941Z</time></trkpt><trkpt lat="46.47915927462252" lon="12.196210515994323"><ele>1059.0</ele><time>2026-04-12T12:50:39.941Z</time></trkpt><trkpt lat="46.47901421423596" lon="12.196279138002913"><ele>1059.0</ele><time>2026-04-12T12:50:40.941Z</time></trkpt><trkpt lat="46.47885682890677" lon="12.196397303294287"><ele>1059.0</ele><time>2026-04-12T12:50:41.941Z</time></trkpt><trkpt lat="46.47869777244617" lon="12.196542126692846"><ele>1059.0</ele><time>2026-04-12T12:50:42.941Z</time></trkpt><trkpt lat="46.47854839726124" lon="12.196698537680987"><ele>1057.3333333333333</ele><time>2026-04-12T12:50:43.941Z</time></trkpt><trkpt lat="46.47840532404037" lon="12.196867547172378"><ele>1055.6666666666665</ele><time>2026-04-12T12:50:44.941Z</time></trkpt><trkpt lat="46.478266086787784" lon="12.197049040555294"><ele>1054.0</ele><time>2026-04-12T12:50:45.941Z</time></trkpt><trkpt lat="46.478122372622344" lon="12.197248972368381"><ele>1051.0</ele><time>2026-04-12T12:50:46.941Z</time></trkpt><trkpt lat="46.477980499303776" lon="12.197475498372864"><ele>1048.0</ele><time>2026-04-12T12:50:47.941Z</time></trkpt><trkpt lat="46.47781887479427" lon="12.197720725223057"><ele>1045.0</ele><time>2026-04-12T12:50:48.941Z</time></trkpt><trkpt lat="46.47766655574526" lon="12.197956126510334"><ele>1049.6666666666665</ele><time>2026-04-12T12:50:49.941Z</time></trkpt><trkpt lat="46.477516789668236" lon="12.198169581760354"><ele>1054.3333333333333</ele><time>2026-04-12T12:50:50.941Z</time></trkpt><trkpt lat="46.47736643896417" lon="12.198389429156471"><ele>1059.0</ele><time>2026-04-12T12:50:51.941Z</time></trkpt><trkpt lat="46.47720778146527" lon="12.198621737156662"><ele>1051.0</ele><time>2026-04-12T12:50:52.941Z</time></trkpt><trkpt lat="46.47705020603282" lon="12.198861233143695"><ele>1043.0</ele><time>2026-04-12T12:50:53.941Z</time></trkpt><trkpt lat="46.47688395440092" lon="12.199108644516778"><ele>1043.0</ele><time>2026-04-12T12:50:54.941Z</time></trkpt><trkpt lat="46.47671210969196" lon="12.199364731810299"><ele>1043.0</ele><time>2026-04-12T12:50:55.941Z</time></trkpt><trkpt lat="46.47655056689168" lon="12.199608200468079"><ele>1043.0</ele><time>2026-04-12T12:50:56.941Z</time></trkpt><trkpt lat="46.476395999504525" lon="12.199832710665362"><ele>1043.0</ele><time>2026-04-12T12:50:57.941Z</time></trkpt><trkpt lat="46.47624509367029" lon="12.200045323417312"><ele>1043.0</ele><time>2026-04-12T12:50:58.941Z</time></trkpt><trkpt lat="46.47609743492434" lon="12.200265548222617"><ele>1043.6666666666667</ele><time>2026-04-12T12:50:59.941Z</time></trkpt><trkpt lat="46.475950143112144" lon="12.2004593657052"><ele>1044.3333333333333</ele><time>2026-04-12T12:51:00.941Z</time></trkpt><trkpt lat="46.4757987288046" lon="12.200646443112676"><ele>1045.0</ele><time>2026-04-12T12:51:01.941Z</time></trkpt><trkpt lat="46.47565855893382" lon="12.20082219890421"><ele>1045.0</ele><time>2026-04-12T12:51:02.941Z</time></trkpt><trkpt lat="46.475524078361424" lon="12.200994110861384"><ele>1045.0</ele><time>2026-04-12T12:51:03.941Z</time></trkpt><trkpt lat="46.47540139494819" lon="12.20116555211911"><ele>1045.0</ele><time>2026-04-12T12:51:04.941Z</time></trkpt><trkpt lat="46.475277095668474" lon="12.20133334904661"><ele>1042.3333333333333</ele><time>2026-04-12T12:51:05.941Z</time></trkpt><trkpt lat="46.475154489178344" lon="12.2014999850614"><ele>1039.6666666666667</ele><time>2026-04-12T12:51:06.941Z</time></trkpt><trkpt lat="46.475034298259686" lon="12.201653905850279"><ele>1037.0</ele><time>2026-04-12T12:51:07.941Z</time></trkpt><trkpt lat="46.47491700550083" lon="12.201812853109281"><ele>1037.0</ele><time>2026-04-12T12:51:08.941Z</time></trkpt><trkpt lat="46.47479835106422" lon="12.201974113461942"><ele>1037.0</ele><time>2026-04-12T12:51:09.941Z</time></trkpt><trkpt lat="46.47468484149226" lon="12.202141199230736"><ele>1037.0</ele><time>2026-04-12T12:51:10.941Z</time></trkpt><trkpt lat="46.474588919480226" lon="12.202307324618182"><ele>1035.0</ele><time>2026-04-12T12:51:11.941Z</time></trkpt><trkpt lat="46.47451208691681" lon="12.202502985972671"><ele>1033.0</ele><time>2026-04-12T12:51:12.941Z</time></trkpt><trkpt lat="46.474444032873535" lon="12.202694392338959"><ele>1031.0</ele><time>2026-04-12T12:51:13.941Z</time></trkpt><trkpt lat="46.47437125743911" lon="12.202873859897753"><ele>1029.0</ele><time>2026-04-12T12:51:14.941Z</time></trkpt><trkpt lat="46.47429220938457" lon="12.203047172949523"><ele>1030.0</ele><time>2026-04-12T12:51:15.941Z</time></trkpt><trkpt lat="46.47421803433078" lon="12.203212709945898"><ele>1031.0</ele><time>2026-04-12T12:51:16.941Z</time></trkpt><trkpt lat="46.47414664094792" lon="12.203384265000494"><ele>1032.0</ele><time>2026-04-12T12:51:17.941Z</time></trkpt><trkpt lat="46.47407951676022" lon="12.203549276243626"><ele>1033.0</ele><time>2026-04-12T12:51:18.941Z</time></trkpt><trkpt lat="46.47401869667499" lon="12.203707096630113"><ele>1033.0</ele><time>2026-04-12T12:51:19.942Z</time></trkpt><trkpt lat="46.47396245122166" lon="12.203836196301243"><ele>1033.0</ele><time>2026-04-12T12:51:20.942Z</time></trkpt><trkpt lat="46.473894545613355" lon="12.203945633440963"><ele>1033.0</ele><time>2026-04-12T12:51:21.942Z</time></trkpt><trkpt lat="46.47381486966088" lon="12.204031363751419"><ele>1033.0</ele><time>2026-04-12T12:51:22.942Z</time></trkpt><trkpt lat="46.473704400775105" lon="12.204077559632593"><ele>1033.0</ele><time>2026-04-12T12:51:23.942Z</time></trkpt><trkpt lat="46.47358064744614" lon="12.204098359669302"><ele>1031.25</ele><time>2026-04-12T12:51:24.942Z</time></trkpt><trkpt lat="46.473464387777" lon="12.204154673666835"><ele>1029.5</ele><time>2026-04-12T12:51:25.942Z</time></trkpt><trkpt lat="46.47335261910243" lon="12.20425166923254"><ele>1027.75</ele><time>2026-04-12T12:51:26.942Z</time></trkpt><trkpt lat="46.473240320860235" lon="12.204359133421363"><ele>1026.0</ele><time>2026-04-12T12:51:27.942Z</time></trkpt><trkpt lat="46.47312497201246" lon="12.204483987258733"><ele>1026.0</ele><time>2026-04-12T12:51:28.942Z</time></trkpt><trkpt lat="46.47300904471058" lon="12.204550280177905"><ele>1026.0</ele><time>2026-04-12T12:51:29.942Z</time></trkpt><trkpt lat="46.47288318324839" lon="12.204571842362935"><ele>1026.0</ele><time>2026-04-12T12:51:30.942Z</time></trkpt><trkpt lat="46.472738612281425" lon="12.20456318074379"><ele>1026.0</ele><time>2026-04-12T12:51:31.942Z</time></trkpt><trkpt lat="46.47259860791413" lon="12.20454768405901"><ele>1023.5</ele><time>2026-04-12T12:51:32.942Z</time></trkpt><trkpt lat="46.472455501742466" lon="12.2045403634359"><ele>1021.0</ele><time>2026-04-12T12:51:33.942Z</time></trkpt><trkpt lat="46.47231695503022" lon="12.204536348390098"><ele>1018.5</ele><time>2026-04-12T12:51:34.942Z</time></trkpt><trkpt lat="46.47219393814094" lon="12.204560461926112"><ele>1016.0</ele><time>2026-04-12T12:51:35.942Z</time></trkpt><trkpt lat="46.47206939273282" lon="12.204624719647466"><ele>1017.75</ele><time>2026-04-12T12:51:36.942Z</time></trkpt><trkpt lat="46.471960268956785" lon="12.204724579123836"><ele>1019.5</ele><time>2026-04-12T12:51:37.942Z</time></trkpt><trkpt lat="46.4718416791416" lon="12.204847982514616"><ele>1021.25</ele><time>2026-04-12T12:51:38.942Z</time></trkpt><trkpt lat="46.47173316596197" lon="12.20496163044923"><ele>1023.0</ele><time>2026-04-12T12:51:39.942Z</time></trkpt><trkpt lat="46.47162928788823" lon="12.20506990875822"><ele>1023.0</ele><time>2026-04-12T12:51:40.942Z</time></trkpt><trkpt lat="46.47152942073104" lon="12.205157757884082"><ele>1023.0</ele><time>2026-04-12T12:51:41.942Z</time></trkpt><trkpt lat="46.471432114731975" lon="12.205246907930567"><ele>1023.0</ele><time>2026-04-12T12:51:42.942Z</time></trkpt><trkpt lat="46.471341995874155" lon="12.205332995328519"><ele>1023.0</ele><time>2026-04-12T12:51:43.942Z</time></trkpt><trkpt lat="46.47124216550756" lon="12.205407267059382"><ele>1020.0</ele><time>2026-04-12T12:51:44.942Z</time></trkpt><trkpt lat="46.47113666298887" lon="12.205472990565848"><ele>1017.0</ele><time>2026-04-12T12:51:45.942Z</time></trkpt><trkpt lat="46.47102186605703" lon="12.205527203019273"><ele>1014.0</ele><time>2026-04-12T12:51:46.942Z</time></trkpt><trkpt lat="46.47090463800162" lon="12.205582187659767"><ele>1011.0</ele><time>2026-04-12T12:51:47.942Z</time></trkpt><trkpt lat="46.4707897725464" lon="12.205639013177134"><ele>1014.75</ele><time>2026-04-12T12:51:48.942Z</time></trkpt><trkpt lat="46.470683233566824" lon="12.205686281411007"><ele>1018.5</ele><time>2026-04-12T12:51:49.942Z</time></trkpt><trkpt lat="46.470574476025526" lon="12.205729054172833"><ele>1022.25</ele><time>2026-04-12T12:51:50.942Z</time></trkpt><trkpt lat="46.47046930686715" lon="12.205753268179503"><ele>1026.0</ele><time>2026-04-12T12:51:51.942Z</time></trkpt><trkpt lat="46.470345613589764" lon="12.205742388448039"><ele>1026.0</ele><time>2026-04-12T12:51:52.942Z</time></trkpt><trkpt lat="46.47023212487688" lon="12.205701565446716"><ele>1026.0</ele><time>2026-04-12T12:51:53.942Z</time></trkpt><trkpt lat="46.47012136180826" lon="12.205609683246436"><ele>1026.0</ele><time>2026-04-12T12:51:54.942Z</time></trkpt><trkpt lat="46.47001161672891" lon="12.205502980498869"><ele>1026.0</ele><time>2026-04-12T12:51:55.942Z</time></trkpt><trkpt lat="46.46989946569792" lon="12.205390926078413"><ele>1023.5</ele><time>2026-04-12T12:51:56.942Z</time></trkpt><trkpt lat="46.46978244350016" lon="12.205283121192139"><ele>1021.0</ele><time>2026-04-12T12:51:57.942Z</time></trkpt><trkpt lat="46.469659558395854" lon="12.20518599834821"><ele>1018.5</ele><time>2026-04-12T12:51:58.942Z</time></trkpt><trkpt lat="46.469545692229175" lon="12.205110747977598"><ele>1016.0</ele><time>2026-04-12T12:51:59.942Z</time></trkpt><trkpt lat="46.469429779119885" lon="12.205061835225324"><ele>1016.0</ele><time>2026-04-12T12:52:00.942Z</time></trkpt><trkpt lat="46.46931879563128" lon="12.205021358889233"><ele>1015.9999999999999</ele><time>2026-04-12T12:52:01.942Z</time></trkpt><trkpt lat="46.46920568627371" lon="12.204988748919833"><ele>1015.9999999999999</ele><time>2026-04-12T12:52:02.942Z</time></trkpt><trkpt lat="46.46910010183094" lon="12.204952366616059"><ele>1016.0</ele><time>2026-04-12T12:52:03.942Z</time></trkpt><trkpt lat="46.46899836338553" lon="12.20492205767336"><ele>1016.0</ele><time>2026-04-12T12:52:04.942Z</time></trkpt><trkpt lat="46.468902011286495" lon="12.20489029056134"><ele>1016.0</ele><time>2026-04-12T12:52:05.942Z</time></trkpt><trkpt lat="46.4687983270374" lon="12.204877557509667"><ele>1016.0</ele><time>2026-04-12T12:52:06.942Z</time></trkpt><trkpt lat="46.46868668428501" lon="12.204893619524038"><ele>1016.0</ele><time>2026-04-12T12:52:07.942Z</time></trkpt><trkpt lat="46.468556656138716" lon="12.204926182830835"><ele>1016.0</ele><time>2026-04-12T12:52:08.942Z</time></trkpt><trkpt lat="46.4684317847574" lon="12.20495111496999"><ele>1016.0</ele><time>2026-04-12T12:52:09.942Z</time></trkpt><trkpt lat="46.46831196400743" lon="12.204945814628893"><ele>1015.9999999999999</ele><time>2026-04-12T12:52:10.942Z</time></trkpt><trkpt lat="46.468204442045874" lon="12.204916788808099"><ele>1015.9999999999999</ele><time>2026-04-12T12:52:11.942Z</time></trkpt><trkpt lat="46.468104864540194" lon="12.204878691481094"><ele>1016.0</ele><time>2026-04-12T12:52:12.942Z</time></trkpt><trkpt lat="46.46800151150875" lon="12.204818623989407"><ele>1016.0</ele><time>2026-04-12T12:52:13.942Z</time></trkpt><trkpt lat="46.467903078187355" lon="12.204739221404127"><ele>1014.8</ele><time>2026-04-12T12:52:14.942Z</time></trkpt><trkpt lat="46.46781189213808" lon="12.204651707697735"><ele>1013.5999999999999</ele><time>2026-04-12T12:52:15.942Z</time></trkpt><trkpt lat="46.467725831694686" lon="12.204565794665477"><ele>1012.4</ele><time>2026-04-12T12:52:16.942Z</time></trkpt><trkpt lat="46.46764017254982" lon="12.204483616051721"><ele>1011.2</ele><time>2026-04-12T12:52:17.942Z</time></trkpt><trkpt lat="46.46754516252511" lon="12.20442218016633"><ele>1010.0</ele><time>2026-04-12T12:52:18.942Z</time></trkpt><trkpt lat="46.46744133051253" lon="12.204370430664992"><ele>1010.0</ele><time>2026-04-12T12:52:19.942Z</time></trkpt><trkpt lat="46.46731783747618" lon="12.204321715270272"><ele>1010.0</ele><time>2026-04-12T12:52:20.942Z</time></trkpt><trkpt lat="46.467192672948265" lon="12.204269991338409"><ele>1010.0</ele><time>2026-04-12T12:52:21.942Z</time></trkpt><trkpt lat="46.467056371630925" lon="12.204218997429276"><ele>1010.0</ele><time>2026-04-12T12:52:22.942Z</time></trkpt><trkpt lat="46.466917694386204" lon="12.204160885964416"><ele>1010.0</ele><time>2026-04-12T12:52:23.942Z</time></trkpt><trkpt lat="46.466784935202526" lon="12.204112653538854"><ele>1010.0</ele><time>2026-04-12T12:52:24.942Z</time></trkpt><trkpt lat="46.46666886826158" lon="12.204083554244795"><ele>1010.0</ele><time>2026-04-12T12:52:25.942Z</time></trkpt><trkpt lat="46.46657758787452" lon="12.204073994607752"><ele>1010.0</ele><time>2026-04-12T12:52:26.942Z</time></trkpt><trkpt lat="46.466496851016096" lon="12.204076236327031"><ele>1010.0</ele><time>2026-04-12T12:52:27.942Z</time></trkpt><trkpt lat="46.46641952463584" lon="12.204075889378506"><ele>1010.0000000000001</ele><time>2026-04-12T12:52:28.942Z</time></trkpt><trkpt lat="46.466315047448276" lon="12.204096860130687"><ele>1010.0</ele><time>2026-04-12T12:52:30.942Z</time></trkpt><trkpt lat="46.46624482942889" lon="12.204166269912104"><ele>1010.0</ele><time>2026-04-12T12:52:32.942Z</time></trkpt><trkpt lat="46.46616818082904" lon="12.20420575355625"><ele>1010.0</ele><time>2026-04-12T12:52:35.942Z</time></trkpt><trkpt lat="46.4661026368023" lon="12.204247715884962"><ele>1010.0000000000001</ele><time>2026-04-12T12:52:40.942Z</time></trkpt><trkpt lat="46.46605138478836" lon="12.204315426849634"><ele>1010.0</ele><time>2026-04-12T12:52:43.942Z</time></trkpt><trkpt lat="46.46598120659098" lon="12.20427850090915"><ele>1010.0</ele><time>2026-04-12T12:52:45.942Z</time></trkpt><trkpt lat="46.46592212416613" lon="12.204230306104085"><ele>1010.0</ele><time>2026-04-12T12:53:34.942Z</time></trkpt><trkpt lat="46.46587495761367" lon="12.204128336184414"><ele>1010.0</ele><time>2026-04-12T12:53:36.942Z</time></trkpt><trkpt lat="46.46583836841291" lon="12.204043116691045"><ele>1010.0</ele><time>2026-04-12T12:53:38.942Z</time></trkpt><trkpt lat="46.465712077978395" lon="12.203955605340237"><ele>1010.0</ele><time>2026-04-12T12:53:40.942Z</time></trkpt><trkpt lat="46.46556673617925" lon="12.2039309405702"><ele>1008.0</ele><time>2026-04-12T12:53:41.942Z</time></trkpt><trkpt lat="46.465418213613574" lon="12.203930367188558"><ele>1006.0</ele><time>2026-04-12T12:53:42.942Z</time></trkpt><trkpt lat="46.46525925662602" lon="12.20391422292851"><ele>1004.0</ele><time>2026-04-12T12:53:43.942Z</time></trkpt><trkpt lat="46.46505931564665" lon="12.203894499949554"><ele>1004.0</ele><time>2026-04-12T12:53:44.942Z</time></trkpt><trkpt lat="46.46491203569844" lon="12.203871498194792"><ele>1004.0</ele><time>2026-04-12T12:53:45.942Z</time></trkpt><trkpt lat="46.464828012699336" lon="12.20384000828666"><ele>1004.0</ele><time>2026-04-12T12:53:46.942Z</time></trkpt><trkpt lat="46.464693960986665" lon="12.203835259528894"><ele>1004.0</ele><time>2026-04-12T12:53:47.942Z</time></trkpt><trkpt lat="46.46456732273514" lon="12.203847366946604"><ele>1003.6</ele><time>2026-04-12T12:53:48.942Z</time></trkpt><trkpt lat="46.46444709417175" lon="12.203874074102954"><ele>1003.2</ele><time>2026-04-12T12:53:49.942Z</time></trkpt><trkpt lat="46.464340339910564" lon="12.203907995912129"><ele>1002.8000000000001</ele><time>2026-04-12T12:53:50.942Z</time></trkpt><trkpt lat="46.464245794598746" lon="12.203972856649653"><ele>1002.4000000000001</ele><time>2026-04-12T12:53:51.942Z</time></trkpt><trkpt lat="46.464164840399896" lon="12.20407830356961"><ele>1002.0</ele><time>2026-04-12T12:53:52.942Z</time></trkpt><trkpt lat="46.46409508548721" lon="12.204212563286239"><ele>1003.0</ele><time>2026-04-12T12:53:53.942Z</time></trkpt><trkpt lat="46.464032163484276" lon="12.204364327134291"><ele>1004.0</ele><time>2026-04-12T12:53:54.942Z</time></trkpt><trkpt lat="46.463966014996515" lon="12.204508976643703"><ele>1005.0</ele><time>2026-04-12T12:53:55.942Z</time></trkpt><trkpt lat="46.46390568559777" lon="12.204636231487235"><ele>1006.0</ele><time>2026-04-12T12:53:56.942Z</time></trkpt><trkpt lat="46.46382686041151" lon="12.204778670688064"><ele>1006.75</ele><time>2026-04-12T12:53:57.942Z</time></trkpt><trkpt lat="46.46373428891468" lon="12.204903982366144"><ele>1007.5</ele><time>2026-04-12T12:53:58.942Z</time></trkpt><trkpt lat="46.46362724209368" lon="12.204965107361627"><ele>1008.25</ele><time>2026-04-12T12:53:59.942Z</time></trkpt><trkpt lat="46.46352246568473" lon="12.204977630863649"><ele>1009.0</ele><time>2026-04-12T12:54:00.942Z</time></trkpt><trkpt lat="46.46339680680095" lon="12.204957545051736"><ele>1009.0</ele><time>2026-04-12T12:54:01.942Z</time></trkpt><trkpt lat="46.46327564209602" lon="12.204890173982253"><ele>1009.0</ele><time>2026-04-12T12:54:02.942Z</time></trkpt><trkpt lat="46.4631762970969" lon="12.204814528507056"><ele>1009.0</ele><time>2026-04-12T12:54:03.942Z</time></trkpt><trkpt lat="46.46307527998265" lon="12.204740760827395"><ele>1009.0</ele><time>2026-04-12T12:54:04.942Z</time></trkpt><trkpt lat="46.46298544445214" lon="12.204682788800978"><ele>1008.6</ele><time>2026-04-12T12:54:05.942Z</time></trkpt><trkpt lat="46.46291368310575" lon="12.204634013836435"><ele>1008.2</ele><time>2026-04-12T12:54:06.942Z</time></trkpt><trkpt lat="46.46280569209054" lon="12.20457040435418"><ele>1007.8000000000001</ele><time>2026-04-12T12:54:07.942Z</time></trkpt><trkpt lat="46.462699703061986" lon="12.204533156302404"><ele>1007.4000000000001</ele><time>2026-04-12T12:54:08.942Z</time></trkpt><trkpt lat="46.462567656168055" lon="12.204515335576701"><ele>1007.0</ele><time>2026-04-12T12:54:09.942Z</time></trkpt><trkpt lat="46.46242221679711" lon="12.204522749975151"><ele>1007.0</ele><time>2026-04-12T12:54:10.942Z</time></trkpt><trkpt lat="46.462289780606454" lon="12.204543199096118"><ele>1007.0</ele><time>2026-04-12T12:54:11.942Z</time></trkpt><trkpt lat="46.462166646629" lon="12.204560730400488"><ele>1007.0</ele><time>2026-04-12T12:54:12.942Z</time></trkpt><trkpt lat="46.46205532865942" lon="12.204585533966117"><ele>1007.0</ele><time>2026-04-12T12:54:13.942Z</time></trkpt><trkpt lat="46.46193968937662" lon="12.204596561291975"><ele>1006.6</ele><time>2026-04-12T12:54:14.942Z</time></trkpt><trkpt lat="46.461823486473676" lon="12.204607367595798"><ele>1006.2</ele><time>2026-04-12T12:54:15.942Z</time></trkpt><trkpt lat="46.46171296187361" lon="12.204616249199011"><ele>1005.8</ele><time>2026-04-12T12:54:16.942Z</time></trkpt><trkpt lat="46.46161329723947" lon="12.204623575553944"><ele>1005.4</ele><time>2026-04-12T12:54:17.942Z</time></trkpt><trkpt lat="46.46150206013456" lon="12.204659110531777"><ele>1005.0</ele><time>2026-04-12T12:54:18.942Z</time></trkpt><trkpt lat="46.46138929863198" lon="12.204666840480764"><ele>1004.25</ele><time>2026-04-12T12:54:19.942Z</time></trkpt><trkpt lat="46.46127300652502" lon="12.204671377339062"><ele>1003.5</ele><time>2026-04-12T12:54:20.942Z</time></trkpt><trkpt lat="46.46115068779146" lon="12.204693205499568"><ele>1002.75</ele><time>2026-04-12T12:54:21.942Z</time></trkpt><trkpt lat="46.46103403792009" lon="12.204718480854675"><ele>1002.0</ele><time>2026-04-12T12:54:22.942Z</time></trkpt><trkpt lat="46.46092006777199" lon="12.204721175533338"><ele>1002.0</ele><time>2026-04-12T12:54:23.942Z</time></trkpt><trkpt lat="46.4607992012311" lon="12.204731968556219"><ele>1002.0</ele><time>2026-04-12T12:54:24.942Z</time></trkpt><trkpt lat="46.46066666863443" lon="12.204764985102807"><ele>1002.0</ele><time>2026-04-12T12:54:25.942Z</time></trkpt><trkpt lat="46.460535451351085" lon="12.204775828930238"><ele>1002.0</ele><time>2026-04-12T12:54:26.942Z</time></trkpt><trkpt lat="46.460408524203714" lon="12.204793509228717"><ele>1001.25</ele><time>2026-04-12T12:54:27.942Z</time></trkpt><trkpt lat="46.46029429938773" lon="12.204799183757306"><ele>1000.5</ele><time>2026-04-12T12:54:28.942Z</time></trkpt><trkpt lat="46.46018543308682" lon="12.2048077466266"><ele>999.75</ele><time>2026-04-12T12:54:29.942Z</time></trkpt><trkpt lat="46.460077470730326" lon="12.20482467665321"><ele>999.0</ele><time>2026-04-12T12:54:30.942Z</time></trkpt><trkpt lat="46.459961227087426" lon="12.204865744658775"><ele>999.0</ele><time>2026-04-12T12:54:31.942Z</time></trkpt><trkpt lat="46.45983982216129" lon="12.20492744575899"><ele>999.0</ele><time>2026-04-12T12:54:32.942Z</time></trkpt><trkpt lat="46.459730531407395" lon="12.20500241611376"><ele>999.0</ele><time>2026-04-12T12:54:33.942Z</time></trkpt><trkpt lat="46.459632525639435" lon="12.205086246176766"><ele>999.0</ele><time>2026-04-12T12:54:34.942Z</time></trkpt><trkpt lat="46.45953920746218" lon="12.205178547581575"><ele>998.0</ele><time>2026-04-12T12:54:35.942Z</time></trkpt><trkpt lat="46.45944305278006" lon="12.205278841002354"><ele>997.0</ele><time>2026-04-12T12:54:36.942Z</time></trkpt><trkpt lat="46.4593490996277" lon="12.205389073957004"><ele>996.0</ele><time>2026-04-12T12:54:37.942Z</time></trkpt><trkpt lat="46.45925944285557" lon="12.205502477365847"><ele>995.0</ele><time>2026-04-12T12:54:38.942Z</time></trkpt><trkpt lat="46.45917571967245" lon="12.205600899878132"><ele>995.0000000000001</ele><time>2026-04-12T12:54:39.942Z</time></trkpt><trkpt lat="46.45910840892801" lon="12.205650781164616"><ele>995.0</ele><time>2026-04-12T12:54:40.942Z</time></trkpt><trkpt lat="46.45903924776498" lon="12.205636530502122"><ele>995.0</ele><time>2026-04-12T12:54:41.942Z</time></trkpt><trkpt lat="46.458967015040066" lon="12.205601029291522"><ele>995.0</ele><time>2026-04-12T12:54:42.942Z</time></trkpt><trkpt lat="46.45888963942979" lon="12.20553906728979"><ele>995.0000000000001</ele><time>2026-04-12T12:54:43.942Z</time></trkpt><trkpt lat="46.45879574721069" lon="12.205423031156558"><ele>995.0</ele><time>2026-04-12T12:54:44.942Z</time></trkpt><trkpt lat="46.4584307633238" lon="12.205796959467504"><ele>994.25</ele><time>2026-04-12T12:54:45.942Z</time></trkpt><trkpt lat="46.45828747314442" lon="12.205725977050905"><ele>993.5</ele><time>2026-04-12T12:54:46.942Z</time></trkpt><trkpt lat="46.45814484828287" lon="12.20571255911941"><ele>992.75</ele><time>2026-04-12T12:54:47.942Z</time></trkpt><trkpt lat="46.4580156305145" lon="12.205674457535093"><ele>992.0</ele><time>2026-04-12T12:54:48.942Z</time></trkpt><trkpt lat="46.457878868325906" lon="12.205652226453486"><ele>991.75</ele><time>2026-04-12T12:54:49.942Z</time></trkpt><trkpt lat="46.457728530262216" lon="12.205631545416265"><ele>991.5</ele><time>2026-04-12T12:54:50.942Z</time></trkpt><trkpt lat="46.45758406370973" lon="12.205648791811184"><ele>991.25</ele><time>2026-04-12T12:54:51.942Z</time></trkpt><trkpt lat="46.45743945319404" lon="12.20568336778323"><ele>991.0</ele><time>2026-04-12T12:54:52.942Z</time></trkpt><trkpt lat="46.45728980573779" lon="12.205744047350866"><ele>991.0</ele><time>2026-04-12T12:54:53.942Z</time></trkpt><trkpt lat="46.457137741636295" lon="12.205834514401138"><ele>991.0</ele><time>2026-04-12T12:54:54.942Z</time></trkpt><trkpt lat="46.45699851441805" lon="12.205926072961507"><ele>991.0</ele><time>2026-04-12T12:54:55.942Z</time></trkpt><trkpt lat="46.45686521198204" lon="12.20600853732075"><ele>991.3333333333333</ele><time>2026-04-12T12:54:56.942Z</time></trkpt><trkpt lat="46.456724589950944" lon="12.206096762385338"><ele>991.6666666666667</ele><time>2026-04-12T12:54:57.942Z</time></trkpt><trkpt lat="46.456575936975824" lon="12.206194621012454"><ele>992.0</ele><time>2026-04-12T12:54:58.942Z</time></trkpt><trkpt lat="46.45644132975774" lon="12.206284969309186"><ele>992.0</ele><time>2026-04-12T12:54:59.942Z</time></trkpt><trkpt lat="46.45631236028769" lon="12.206373133627086"><ele>992.0</ele><time>2026-04-12T12:55:00.942Z</time></trkpt><trkpt lat="46.45618019703168" lon="12.206462736167213"><ele>992.0</ele><time>2026-04-12T12:55:01.942Z</time></trkpt><trkpt lat="46.45604799449194" lon="12.206560703245817"><ele>992.0</ele><time>2026-04-12T12:55:02.942Z</time></trkpt><trkpt lat="46.45591601761651" lon="12.20666306004924"><ele>990.75</ele><time>2026-04-12T12:55:03.942Z</time></trkpt><trkpt lat="46.455783962702895" lon="12.206762957285841"><ele>989.5</ele><time>2026-04-12T12:55:04.942Z</time></trkpt><trkpt lat="46.455654245953355" lon="12.206853451593304"><ele>988.25</ele><time>2026-04-12T12:55:05.942Z</time></trkpt><trkpt lat="46.455518222673014" lon="12.206944572180529"><ele>987.0</ele><time>2026-04-12T12:55:06.942Z</time></trkpt><trkpt lat="46.45537649569444" lon="12.207036427004764"><ele>986.25</ele><time>2026-04-12T12:55:07.942Z</time></trkpt><trkpt lat="46.45524251842617" lon="12.20714929527479"><ele>985.5</ele><time>2026-04-12T12:55:08.942Z</time></trkpt><trkpt lat="46.45511720002874" lon="12.207249711240854"><ele>984.75</ele><time>2026-04-12T12:55:09.942Z</time></trkpt><trkpt lat="46.45499842344462" lon="12.207357128697133"><ele>984.0</ele><time>2026-04-12T12:55:10.942Z</time></trkpt><trkpt lat="46.45488470211305" lon="12.207480199086534"><ele>984.0</ele><time>2026-04-12T12:55:11.942Z</time></trkpt><trkpt lat="46.45477688910964" lon="12.20759667865996"><ele>984.0</ele><time>2026-04-12T12:55:12.942Z</time></trkpt><trkpt lat="46.45466783947686" lon="12.207711158527486"><ele>984.0</ele><time>2026-04-12T12:55:13.942Z</time></trkpt><trkpt lat="46.45456469281872" lon="12.207818889269074"><ele>984.0</ele><time>2026-04-12T12:55:14.942Z</time></trkpt><trkpt lat="46.45445209750529" lon="12.207917928635391"><ele>984.25</ele><time>2026-04-12T12:55:15.942Z</time></trkpt><trkpt lat="46.45433136012436" lon="12.208030721242292"><ele>984.5</ele><time>2026-04-12T12:55:16.942Z</time></trkpt><trkpt lat="46.454224584194044" lon="12.208154908983685"><ele>984.75</ele><time>2026-04-12T12:55:17.942Z</time></trkpt><trkpt lat="46.45411100702687" lon="12.20826956636987"><ele>985.0</ele><time>2026-04-12T12:55:18.942Z</time></trkpt><trkpt lat="46.45400635843775" lon="12.208395255854379"><ele>985.0</ele><time>2026-04-12T12:55:19.942Z</time></trkpt><trkpt lat="46.45388656860547" lon="12.208520712935325"><ele>985.0</ele><time>2026-04-12T12:55:20.942Z</time></trkpt><trkpt lat="46.453774221817355" lon="12.208650077167823"><ele>985.0</ele><time>2026-04-12T12:55:21.942Z</time></trkpt><trkpt lat="46.4536723216656" lon="12.208790677525123"><ele>985.0</ele><time>2026-04-12T12:55:22.942Z</time></trkpt><trkpt lat="46.45356505529716" lon="12.208926566589454"><ele>984.5</ele><time>2026-04-12T12:55:23.942Z</time></trkpt><trkpt lat="46.453463311283116" lon="12.209052100884154"><ele>984.0</ele><time>2026-04-12T12:55:24.942Z</time></trkpt><trkpt lat="46.45336885811155" lon="12.209174255793123"><ele>983.5</ele><time>2026-04-12T12:55:25.942Z</time></trkpt><trkpt lat="46.45327445902892" lon="12.209299308642024"><ele>983.0</ele><time>2026-04-12T12:55:26.942Z</time></trkpt><trkpt lat="46.45317717562197" lon="12.209434722311846"><ele>983.0</ele><time>2026-04-12T12:55:27.942Z</time></trkpt><trkpt lat="46.453074914601736" lon="12.209560702026305"><ele>983.0</ele><time>2026-04-12T12:55:28.942Z</time></trkpt><trkpt lat="46.45297525583891" lon="12.209689052439069"><ele>983.0</ele><time>2026-04-12T12:55:29.942Z</time></trkpt><trkpt lat="46.45287617248436" lon="12.209830617994502"><ele>983.0</ele><time>2026-04-12T12:55:30.942Z</time></trkpt><trkpt lat="46.45276523191223" lon="12.209973707569576"><ele>981.0</ele><time>2026-04-12T12:55:31.943Z</time></trkpt><trkpt lat="46.45265704193565" lon="12.210112405509815"><ele>979.0</ele><time>2026-04-12T12:55:32.943Z</time></trkpt><trkpt lat="46.45254642545577" lon="12.210246549082518"><ele>977.0</ele><time>2026-04-12T12:55:33.943Z</time></trkpt><trkpt lat="46.452433490969156" lon="12.210370534658464"><ele>975.0</ele><time>2026-04-12T12:55:34.943Z</time></trkpt><trkpt lat="46.452325182423465" lon="12.210497092947996"><ele>975.0</ele><time>2026-04-12T12:55:35.943Z</time></trkpt><trkpt lat="46.45221003610118" lon="12.210623643957984"><ele>975.0</ele><time>2026-04-12T12:55:36.943Z</time></trkpt><trkpt lat="46.452085095407135" lon="12.210750697607528"><ele>975.0</ele><time>2026-04-12T12:55:37.943Z</time></trkpt><trkpt lat="46.45195511479836" lon="12.210859856202664"><ele>975.0</ele><time>2026-04-12T12:55:38.943Z</time></trkpt><trkpt lat="46.45181553413249" lon="12.210962741254027"><ele>972.0</ele><time>2026-04-12T12:55:39.943Z</time></trkpt><trkpt lat="46.45166898671872" lon="12.211048001331454"><ele>969.0</ele><time>2026-04-12T12:55:40.943Z</time></trkpt><trkpt lat="46.45151022465577" lon="12.2111089189163"><ele>966.0</ele><time>2026-04-12T12:55:41.943Z</time></trkpt><trkpt lat="46.451343999489" lon="12.21114558128607"><ele>964.3333333333333</ele><time>2026-04-12T12:55:42.943Z</time></trkpt><trkpt lat="46.45117489116358" lon="12.21117560324966"><ele>962.6666666666666</ele><time>2026-04-12T12:55:43.943Z</time></trkpt><trkpt lat="46.451011442067994" lon="12.211204511921377"><ele>961.0</ele><time>2026-04-12T12:55:44.943Z</time></trkpt><trkpt lat="46.450864973741254" lon="12.211214545280711"><ele>961.0</ele><time>2026-04-12T12:55:45.943Z</time></trkpt><trkpt lat="46.450694028857384" lon="12.211225214592293"><ele>961.0</ele><time>2026-04-12T12:55:46.943Z</time></trkpt><trkpt lat="46.450514415631254" lon="12.211195082037445"><ele>961.0</ele><time>2026-04-12T12:55:47.943Z</time></trkpt><trkpt lat="46.45036228448904" lon="12.211109632255196"><ele>963.0</ele><time>2026-04-12T12:55:48.943Z</time></trkpt><trkpt lat="46.450203772037156" lon="12.211006046763297"><ele>965.0</ele><time>2026-04-12T12:55:49.943Z</time></trkpt><trkpt lat="46.45003849530305" lon="12.210898545877432"><ele>967.0</ele><time>2026-04-12T12:55:50.943Z</time></trkpt><trkpt lat="46.44986938059047" lon="12.210787510727362"><ele>967.0</ele><time>2026-04-12T12:55:51.943Z</time></trkpt><trkpt lat="46.44969853875971" lon="12.210692206881273"><ele>967.0</ele><time>2026-04-12T12:55:52.943Z</time></trkpt><trkpt lat="46.44954089479781" lon="12.210595321186807"><ele>967.0</ele><time>2026-04-12T12:55:53.943Z</time></trkpt><trkpt lat="46.44938426410179" lon="12.210495909740175"><ele>966.3333333333333</ele><time>2026-04-12T12:55:54.943Z</time></trkpt><trkpt lat="46.449221784798546" lon="12.210411859848804"><ele>965.6666666666667</ele><time>2026-04-12T12:55:55.943Z</time></trkpt><trkpt lat="46.449054204059266" lon="12.210347175323955"><ele>965.0</ele><time>2026-04-12T12:55:56.943Z</time></trkpt><trkpt lat="46.44888170821315" lon="12.210284070618876"><ele>967.0</ele><time>2026-04-12T12:55:57.943Z</time></trkpt><trkpt lat="46.44870601733921" lon="12.210228229937886"><ele>969.0</ele><time>2026-04-12T12:55:58.943Z</time></trkpt><trkpt lat="46.44852420758539" lon="12.21018637004057"><ele>971.0</ele><time>2026-04-12T12:55:59.943Z</time></trkpt><trkpt lat="46.448363520525824" lon="12.210141363665263"><ele>971.0</ele><time>2026-04-12T12:56:00.943Z</time></trkpt><trkpt lat="46.448209264895766" lon="12.210115834162687"><ele>971.0</ele><time>2026-04-12T12:56:01.943Z</time></trkpt><trkpt lat="46.44806325296473" lon="12.210117400307217"><ele>971.0</ele><time>2026-04-12T12:56:02.943Z</time></trkpt><trkpt lat="46.44791254841556" lon="12.210162878673623"><ele>972.0</ele><time>2026-04-12T12:56:03.943Z</time></trkpt><trkpt lat="46.4477501041462" lon="12.210259501746132"><ele>973.0</ele><time>2026-04-12T12:56:04.943Z</time></trkpt><trkpt lat="46.44759692283961" lon="12.210380366590172"><ele>974.0</ele><time>2026-04-12T12:56:05.943Z</time></trkpt><trkpt lat="46.44744060248311" lon="12.210521369179375"><ele>976.3333333333334</ele><time>2026-04-12T12:56:06.943Z</time></trkpt><trkpt lat="46.447267761446675" lon="12.210659091085997"><ele>978.6666666666667</ele><time>2026-04-12T12:56:07.943Z</time></trkpt><trkpt lat="46.44708303434994" lon="12.210791653111704"><ele>981.0</ele><time>2026-04-12T12:56:08.943Z</time></trkpt><trkpt lat="46.44689250970441" lon="12.210931347395176"><ele>981.0</ele><time>2026-04-12T12:56:09.943Z</time></trkpt><trkpt lat="46.44670522811378" lon="12.211078772493988"><ele>981.0</ele><time>2026-04-12T12:56:10.943Z</time></trkpt><trkpt lat="46.44654009257744" lon="12.211207279774797"><ele>981.0</ele><time>2026-04-12T12:56:11.943Z</time></trkpt><trkpt lat="46.44636624056146" lon="12.211334715214521"><ele>979.3333333333333</ele><time>2026-04-12T12:56:12.943Z</time></trkpt><trkpt lat="46.44618725274628" lon="12.211459931953513"><ele>977.6666666666666</ele><time>2026-04-12T12:56:13.943Z</time></trkpt><trkpt lat="46.44599583534907" lon="12.211562988154705"><ele>976.0</ele><time>2026-04-12T12:56:14.943Z</time></trkpt><trkpt lat="46.4457897948792" lon="12.211650454629265"><ele>976.0</ele><time>2026-04-12T12:56:15.943Z</time></trkpt><trkpt lat="46.44556073903789" lon="12.211709796090782"><ele>976.0</ele><time>2026-04-12T12:56:16.943Z</time></trkpt><trkpt lat="46.44531508553884" lon="12.211757793928987"><ele>969.0</ele><time>2026-04-12T12:56:17.943Z</time></trkpt><trkpt lat="46.44508025792607" lon="12.211829377671615"><ele>962.0</ele><time>2026-04-12T12:56:18.943Z</time></trkpt><trkpt lat="46.44487876833584" lon="12.211922987954479"><ele>962.0</ele><time>2026-04-12T12:56:19.943Z</time></trkpt><trkpt lat="46.444679799985" lon="12.212039843910048"><ele>962.0</ele><time>2026-04-12T12:56:20.943Z</time></trkpt><trkpt lat="46.44449878062221" lon="12.21216586102315"><ele>962.0</ele><time>2026-04-12T12:56:21.943Z</time></trkpt><trkpt lat="46.44431976647531" lon="12.212280238542965"><ele>965.3333333333334</ele><time>2026-04-12T12:56:22.943Z</time></trkpt><trkpt lat="46.44414996914685" lon="12.212386742957351"><ele>968.6666666666667</ele><time>2026-04-12T12:56:23.943Z</time></trkpt><trkpt lat="46.44398288965826" lon="12.212490761342831"><ele>972.0</ele><time>2026-04-12T12:56:24.943Z</time></trkpt><trkpt lat="46.443818538002716" lon="12.212574988920228"><ele>965.3333333333333</ele><time>2026-04-12T12:56:25.943Z</time></trkpt><trkpt lat="46.44367033178737" lon="12.21267739281019"><ele>958.6666666666666</ele><time>2026-04-12T12:56:26.943Z</time></trkpt><trkpt lat="46.443528630591416" lon="12.212796274539178"><ele>952.0</ele><time>2026-04-12T12:56:27.943Z</time></trkpt><trkpt lat="46.44339075795407" lon="12.212944161437962"><ele>952.0</ele><time>2026-04-12T12:56:28.943Z</time></trkpt><trkpt lat="46.44326248484179" lon="12.213105718665817"><ele>952.0</ele><time>2026-04-12T12:56:29.943Z</time></trkpt><trkpt lat="46.44314325678503" lon="12.213283655610509"><ele>952.0</ele><time>2026-04-12T12:56:30.943Z</time></trkpt><trkpt lat="46.443029854686415" lon="12.213506872373069"><ele>951.6666666666666</ele><time>2026-04-12T12:56:31.943Z</time></trkpt><trkpt lat="46.44291397827177" lon="12.213717715775203"><ele>951.3333333333333</ele><time>2026-04-12T12:56:32.943Z</time></trkpt><trkpt lat="46.442788724930956" lon="12.213919936812104"><ele>951.0</ele><time>2026-04-12T12:56:33.943Z</time></trkpt><trkpt lat="46.442642788845376" lon="12.214138078874349"><ele>951.0</ele><time>2026-04-12T12:56:34.943Z</time></trkpt><trkpt lat="46.44247783385167" lon="12.214352860701363"><ele>951.0</ele><time>2026-04-12T12:56:35.943Z</time></trkpt><trkpt lat="46.44230187839584" lon="12.214574019778835"><ele>950.5</ele><time>2026-04-12T12:56:36.943Z</time></trkpt><trkpt lat="46.442115026981654" lon="12.214786112956025"><ele>950.0</ele><time>2026-04-12T12:56:37.943Z</time></trkpt><trkpt lat="46.44192270980329" lon="12.214978920522324"><ele>950.0</ele><time>2026-04-12T12:56:38.943Z</time></trkpt><trkpt lat="46.441724541147885" lon="12.215158500135843"><ele>950.0</ele><time>2026-04-12T12:56:39.943Z</time></trkpt><trkpt lat="46.4415162679963" lon="12.215324836849364"><ele>950.0</ele><time>2026-04-12T12:56:40.943Z</time></trkpt><trkpt lat="46.441317576019664" lon="12.215466221275197"><ele>950.0</ele><time>2026-04-12T12:56:41.943Z</time></trkpt><trkpt lat="46.441131130484564" lon="12.215593198508309"><ele>950.0</ele><time>2026-04-12T12:56:42.943Z</time></trkpt><trkpt lat="46.44094955676579" lon="12.215715756996515"><ele>952.0</ele><time>2026-04-12T12:56:43.943Z</time></trkpt><trkpt lat="46.44077560972952" lon="12.215832723346114"><ele>954.0</ele><time>2026-04-12T12:56:44.943Z</time></trkpt><trkpt lat="46.44061141015092" lon="12.215948899038313"><ele>956.0</ele><time>2026-04-12T12:56:45.943Z</time></trkpt><trkpt lat="46.44045337447729" lon="12.216067135716813"><ele>947.6666666666667</ele><time>2026-04-12T12:56:46.943Z</time></trkpt><trkpt lat="46.44030314293525" lon="12.216174999500184"><ele>939.3333333333333</ele><time>2026-04-12T12:56:47.943Z</time></trkpt><trkpt lat="46.440152261314275" lon="12.216271211850252"><ele>931.0</ele><time>2026-04-12T12:56:48.943Z</time></trkpt><trkpt lat="46.44000279652879" lon="12.21637071803994"><ele>931.0</ele><time>2026-04-12T12:56:49.943Z</time></trkpt><trkpt lat="46.43985741595686" lon="12.216476462991434"><ele>931.0</ele><time>2026-04-12T12:56:50.943Z</time></trkpt><trkpt lat="46.43971291608478" lon="12.216574206311774"><ele>931.0</ele><time>2026-04-12T12:56:51.943Z</time></trkpt><trkpt lat="46.439571989726886" lon="12.216682642369598"><ele>932.6666666666666</ele><time>2026-04-12T12:56:52.943Z</time></trkpt><trkpt lat="46.43943619246096" lon="12.216783439579189"><ele>934.3333333333333</ele><time>2026-04-12T12:56:53.943Z</time></trkpt><trkpt lat="46.43930564204705" lon="12.21689907280348"><ele>936.0</ele><time>2026-04-12T12:56:54.943Z</time></trkpt><trkpt lat="46.43917682434695" lon="12.217024486811846"><ele>936.0</ele><time>2026-04-12T12:56:55.943Z</time></trkpt><trkpt lat="46.43905451733287" lon="12.217160157184207"><ele>936.0</ele><time>2026-04-12T12:56:56.943Z</time></trkpt><trkpt lat="46.438933766344334" lon="12.217286503538531"><ele>936.0</ele><time>2026-04-12T12:56:57.943Z</time></trkpt><trkpt lat="46.43881118304754" lon="12.2174094485698"><ele>936.3333333333333</ele><time>2026-04-12T12:56:58.943Z</time></trkpt><trkpt lat="46.43869352761782" lon="12.217531325645256"><ele>936.6666666666666</ele><time>2026-04-12T12:56:59.943Z</time></trkpt><trkpt lat="46.438579152238205" lon="12.217672093507812"><ele>937.0</ele><time>2026-04-12T12:57:00.943Z</time></trkpt><trkpt lat="46.4384689354652" lon="12.217855285851785"><ele>937.0</ele><time>2026-04-12T12:57:01.943Z</time></trkpt><trkpt lat="46.43838051743163" lon="12.218076184581786"><ele>937.0</ele><time>2026-04-12T12:57:02.943Z</time></trkpt><trkpt lat="46.43829746878365" lon="12.218272613304723"><ele>937.0</ele><time>2026-04-12T12:57:03.943Z</time></trkpt><trkpt lat="46.438220116682906" lon="12.218475272426623"><ele>939.0</ele><time>2026-04-12T12:57:04.943Z</time></trkpt><trkpt lat="46.43814323675826" lon="12.21865905621768"><ele>941.0</ele><time>2026-04-12T12:57:05.943Z</time></trkpt><trkpt lat="46.438078155871814" lon="12.218828386001025"><ele>943.0</ele><time>2026-04-12T12:57:06.943Z</time></trkpt><trkpt lat="46.43802376984162" lon="12.218998129955605"><ele>945.0</ele><time>2026-04-12T12:57:07.943Z</time></trkpt><trkpt lat="46.437982238727294" lon="12.219174748938226"><ele>942.75</ele><time>2026-04-12T12:57:08.943Z</time></trkpt><trkpt lat="46.437961282156856" lon="12.21935746759409"><ele>940.5</ele><time>2026-04-12T12:57:09.943Z</time></trkpt><trkpt lat="46.43794607389667" lon="12.21953183864221"><ele>938.25</ele><time>2026-04-12T12:57:10.943Z</time></trkpt><trkpt lat="46.4379368935212" lon="12.219705157973104"><ele>936.0</ele><time>2026-04-12T12:57:11.943Z</time></trkpt><trkpt lat="46.43793225764319" lon="12.219888926905462"><ele>935.3333333333333</ele><time>2026-04-12T12:57:12.943Z</time></trkpt><trkpt lat="46.43793472412386" lon="12.22009203472629"><ele>934.6666666666666</ele><time>2026-04-12T12:57:13.943Z</time></trkpt><trkpt lat="46.437934661431015" lon="12.220315802265878"><ele>934.0</ele><time>2026-04-12T12:57:14.943Z</time></trkpt><trkpt lat="46.43793674062574" lon="12.220560574785974"><ele>934.3333333333333</ele><time>2026-04-12T12:57:15.943Z</time></trkpt><trkpt lat="46.43796115929801" lon="12.220869689509215"><ele>934.6666666666667</ele><time>2026-04-12T12:57:16.943Z</time></trkpt><trkpt lat="46.43797394821229" lon="12.221154381359852"><ele>935.0</ele><time>2026-04-12T12:57:17.943Z</time></trkpt><trkpt lat="46.43796706501887" lon="12.221371017698234"><ele>936.0</ele><time>2026-04-12T12:57:18.943Z</time></trkpt><trkpt lat="46.43794070232233" lon="12.221544212543202"><ele>937.0</ele><time>2026-04-12T12:57:19.943Z</time></trkpt><trkpt lat="46.43793937298529" lon="12.22174227555115"><ele>938.0</ele><time>2026-04-12T12:57:20.943Z</time></trkpt><trkpt lat="46.43793240368812" lon="12.221937180924346"><ele>939.0</ele><time>2026-04-12T12:57:21.943Z</time></trkpt><trkpt lat="46.43789708768176" lon="12.222113237815295"><ele>939.0</ele><time>2026-04-12T12:57:22.943Z</time></trkpt><trkpt lat="46.437843023246465" lon="12.222305359160632"><ele>939.0</ele><time>2026-04-12T12:57:23.943Z</time></trkpt><trkpt lat="46.43770369703497" lon="12.222360178992755"><ele>939.0</ele><time>2026-04-12T12:57:24.943Z</time></trkpt><trkpt lat="46.437568436602405" lon="12.222484126171533"><ele>939.0</ele><time>2026-04-12T12:57:25.943Z</time></trkpt><trkpt lat="46.437427106559205" lon="12.222631249705257"><ele>937.3333333333333</ele><time>2026-04-12T12:57:26.943Z</time></trkpt><trkpt lat="46.437290222724116" lon="12.222792945041226"><ele>935.6666666666666</ele><time>2026-04-12T12:57:27.943Z</time></trkpt><trkpt lat="46.43716404957004" lon="12.222931058167998"><ele>934.0</ele><time>2026-04-12T12:57:28.943Z</time></trkpt><trkpt lat="46.43704616923919" lon="12.22306521926356"><ele>938.6</ele><time>2026-04-12T12:57:29.943Z</time></trkpt><trkpt lat="46.436952718322935" lon="12.223168385418168"><ele>943.2</ele><time>2026-04-12T12:57:30.943Z</time></trkpt><trkpt lat="46.43686243680103" lon="12.223264452864452"><ele>947.8000000000001</ele><time>2026-04-12T12:57:31.943Z</time></trkpt><trkpt lat="46.43676248825702" lon="12.223327756746274"><ele>952.4000000000001</ele><time>2026-04-12T12:57:32.943Z</time></trkpt><trkpt lat="46.4366531029854" lon="12.223311160092287"><ele>957.0</ele><time>2026-04-12T12:57:33.943Z</time></trkpt><trkpt lat="46.436550376252924" lon="12.223283677106842"><ele>957.0</ele><time>2026-04-12T12:57:34.943Z</time></trkpt><trkpt lat="46.436460454263724" lon="12.223332144203601"><ele>957.0</ele><time>2026-04-12T12:57:35.943Z</time></trkpt><trkpt lat="46.43638475786793" lon="12.22343421092806"><ele>957.0</ele><time>2026-04-12T12:57:36.943Z</time></trkpt><trkpt lat="46.43631684243798" lon="12.223546035829797"><ele>957.0</ele><time>2026-04-12T12:57:37.944Z</time></trkpt><trkpt lat="46.43621894109543" lon="12.223601754565447"><ele>957.0</ele><time>2026-04-12T12:57:38.944Z</time></trkpt><trkpt lat="46.4361097108815" lon="12.223631878732016"><ele>954.0</ele><time>2026-04-12T12:57:39.944Z</time></trkpt><trkpt lat="46.43599127562805" lon="12.223622902558429"><ele>951.0</ele><time>2026-04-12T12:57:40.944Z</time></trkpt><trkpt lat="46.435869489798485" lon="12.223593794624957"><ele>948.0</ele><time>2026-04-12T12:57:41.944Z</time></trkpt><trkpt lat="46.43574190148371" lon="12.223560079663981"><ele>945.0</ele><time>2026-04-12T12:57:42.944Z</time></trkpt><trkpt lat="46.43561394577041" lon="12.223526322141847"><ele>945.0</ele><time>2026-04-12T12:57:43.944Z</time></trkpt><trkpt lat="46.43548298356759" lon="12.22351007935006"><ele>945.0</ele><time>2026-04-12T12:57:44.944Z</time></trkpt><trkpt lat="46.43535688980778" lon="12.223486000420598"><ele>945.0</ele><time>2026-04-12T12:57:45.944Z</time></trkpt><trkpt lat="46.43527188065602" lon="12.223448086462843"><ele>945.0</ele><time>2026-04-12T12:57:46.944Z</time></trkpt><trkpt lat="46.43510882171029" lon="12.223435517394037"><ele>945.25</ele><time>2026-04-12T12:57:47.944Z</time></trkpt><trkpt lat="46.43497489154737" lon="12.223426669141494"><ele>945.5</ele><time>2026-04-12T12:57:48.944Z</time></trkpt><trkpt lat="46.43489497970903" lon="12.223443046874767"><ele>945.75</ele><time>2026-04-12T12:57:49.944Z</time></trkpt><trkpt lat="46.434769818221035" lon="12.223487217991075"><ele>946.0</ele><time>2026-04-12T12:57:50.944Z</time></trkpt><trkpt lat="46.434635007515105" lon="12.223566558355989"><ele>943.0</ele><time>2026-04-12T12:57:51.944Z</time></trkpt><trkpt lat="46.4345025230759" lon="12.223669379283761"><ele>940.0</ele><time>2026-04-12T12:57:52.944Z</time></trkpt><trkpt lat="46.43433925368857" lon="12.223767324986417"><ele>937.0</ele><time>2026-04-12T12:57:53.944Z</time></trkpt><trkpt lat="46.434193652531285" lon="12.22386091381326"><ele>937.0</ele><time>2026-04-12T12:57:54.944Z</time></trkpt><trkpt lat="46.43404887683634" lon="12.223956793574388"><ele>937.0</ele><time>2026-04-12T12:57:55.944Z</time></trkpt><trkpt lat="46.43390879635806" lon="12.224036713688093"><ele>937.0</ele><time>2026-04-12T12:57:56.944Z</time></trkpt><trkpt lat="46.433773779542456" lon="12.22411882537038"><ele>939.0</ele><time>2026-04-12T12:57:57.944Z</time></trkpt><trkpt lat="46.4336367473982" lon="12.224205288995307"><ele>941.0</ele><time>2026-04-12T12:57:58.944Z</time></trkpt><trkpt lat="46.433496106079275" lon="12.22428831944775"><ele>943.0</ele><time>2026-04-12T12:57:59.944Z</time></trkpt><trkpt lat="46.433364320398674" lon="12.224380348412078"><ele>945.0</ele><time>2026-04-12T12:58:00.944Z</time></trkpt><trkpt lat="46.43322843056028" lon="12.22447301066906"><ele>945.0</ele><time>2026-04-12T12:58:01.944Z</time></trkpt><trkpt lat="46.433092119433475" lon="12.224557190272124"><ele>945.0</ele><time>2026-04-12T12:58:02.944Z</time></trkpt><trkpt lat="46.43294706865736" lon="12.224646209602188"><ele>945.0</ele><time>2026-04-12T12:58:03.944Z</time></trkpt><trkpt lat="46.43280332708942" lon="12.2247350186846"><ele>944.6666666666667</ele><time>2026-04-12T12:58:04.944Z</time></trkpt><trkpt lat="46.43264994438" lon="12.224826004508172"><ele>944.3333333333334</ele><time>2026-04-12T12:58:05.944Z</time></trkpt><trkpt lat="46.432495492138344" lon="12.22492625036184"><ele>944.0</ele><time>2026-04-12T12:58:06.944Z</time></trkpt><trkpt lat="46.432334493884966" lon="12.225025788884357"><ele>944.0</ele><time>2026-04-12T12:58:07.944Z</time></trkpt><trkpt lat="46.43217215385289" lon="12.225130073808463"><ele>944.0</ele><time>2026-04-12T12:58:08.944Z</time></trkpt><trkpt lat="46.43201869105528" lon="12.225227311390517"><ele>944.0</ele><time>2026-04-12T12:58:09.944Z</time></trkpt><trkpt lat="46.43187718476242" lon="12.225332216154182"><ele>942.6666666666667</ele><time>2026-04-12T12:58:10.944Z</time></trkpt><trkpt lat="46.43174213927568" lon="12.22547004286552"><ele>941.3333333333333</ele><time>2026-04-12T12:58:11.944Z</time></trkpt><trkpt lat="46.431627592081185" lon="12.225633019584192"><ele>940.0</ele><time>2026-04-12T12:58:12.944Z</time></trkpt><trkpt lat="46.4314992707309" lon="12.225781550493696"><ele>942.3333333333333</ele><time>2026-04-12T12:58:13.944Z</time></trkpt><trkpt lat="46.43135590010153" lon="12.225885240640137"><ele>944.6666666666667</ele><time>2026-04-12T12:58:14.944Z</time></trkpt><trkpt lat="46.43120352883162" lon="12.225978406505986"><ele>947.0</ele><time>2026-04-12T12:58:15.944Z</time></trkpt><trkpt lat="46.43104809918407" lon="12.22604607017936"><ele>947.0</ele><time>2026-04-12T12:58:16.944Z</time></trkpt><trkpt lat="46.43089407040324" lon="12.22608657912159"><ele>947.0</ele><time>2026-04-12T12:58:17.944Z</time></trkpt><trkpt lat="46.43074056824071" lon="12.226104402268072"><ele>947.0</ele><time>2026-04-12T12:58:18.944Z</time></trkpt><trkpt lat="46.43058817605375" lon="12.226133025497598"><ele>944.0</ele><time>2026-04-12T12:58:19.944Z</time></trkpt><trkpt lat="46.430443944960416" lon="12.226166987907389"><ele>941.0</ele><time>2026-04-12T12:58:20.944Z</time></trkpt><trkpt lat="46.43029340312474" lon="12.226209987630865"><ele>938.0</ele><time>2026-04-12T12:58:21.944Z</time></trkpt><trkpt lat="46.43015343411352" lon="12.226300445527102"><ele>938.0</ele><time>2026-04-12T12:58:22.944Z</time></trkpt><trkpt lat="46.430019937242115" lon="12.22643989348997"><ele>938.0</ele><time>2026-04-12T12:58:23.944Z</time></trkpt><trkpt lat="46.429890840745756" lon="12.22660542751807"><ele>938.0</ele><time>2026-04-12T12:58:24.944Z</time></trkpt><trkpt lat="46.42974907405943" lon="12.226802544741313"><ele>937.3333333333334</ele><time>2026-04-12T12:58:25.944Z</time></trkpt><trkpt lat="46.429595914108425" lon="12.22700547296782"><ele>936.6666666666667</ele><time>2026-04-12T12:58:26.944Z</time></trkpt><trkpt lat="46.42944268710643" lon="12.227190021909816"><ele>936.0</ele><time>2026-04-12T12:58:27.944Z</time></trkpt><trkpt lat="46.429297694198134" lon="12.2273676415086"><ele>937.6666666666667</ele><time>2026-04-12T12:58:28.944Z</time></trkpt><trkpt lat="46.42916544803319" lon="12.227540475171438"><ele>939.3333333333334</ele><time>2026-04-12T12:58:29.944Z</time></trkpt><trkpt lat="46.42903578298852" lon="12.22771453245199"><ele>941.0</ele><time>2026-04-12T12:58:30.944Z</time></trkpt><trkpt lat="46.428898452313625" lon="12.227894470353899"><ele>939.6666666666667</ele><time>2026-04-12T12:58:31.944Z</time></trkpt><trkpt lat="46.4287564238045" lon="12.228071699362891"><ele>938.3333333333333</ele><time>2026-04-12T12:58:32.944Z</time></trkpt><trkpt lat="46.428613198281305" lon="12.228256768429974"><ele>937.0</ele><time>2026-04-12T12:58:33.944Z</time></trkpt><trkpt lat="46.42846146054989" lon="12.22845660837283"><ele>937.0</ele><time>2026-04-12T12:58:34.944Z</time></trkpt><trkpt lat="46.428302834417956" lon="12.228660345010468"><ele>937.0</ele><time>2026-04-12T12:58:35.944Z</time></trkpt><trkpt lat="46.428143519936626" lon="12.228872540844598"><ele>937.0</ele><time>2026-04-12T12:58:36.944Z</time></trkpt><trkpt lat="46.427986139006464" lon="12.22908287458645"><ele>936.0</ele><time>2026-04-12T12:58:37.944Z</time></trkpt><trkpt lat="46.42782902418028" lon="12.229287090284405"><ele>935.0</ele><time>2026-04-12T12:58:38.944Z</time></trkpt><trkpt lat="46.42767362551148" lon="12.229488366899206"><ele>934.0</ele><time>2026-04-12T12:58:39.944Z</time></trkpt><trkpt lat="46.42752412378014" lon="12.229682886571299"><ele>936.0</ele><time>2026-04-12T12:58:40.944Z</time></trkpt><trkpt lat="46.427385154369965" lon="12.229873558251935"><ele>938.0</ele><time>2026-04-12T12:58:41.944Z</time></trkpt><trkpt lat="46.42724949016713" lon="12.230058054817087"><ele>940.0</ele><time>2026-04-12T12:58:42.944Z</time></trkpt><trkpt lat="46.427121580516385" lon="12.230234015355661"><ele>937.0</ele><time>2026-04-12T12:58:43.944Z</time></trkpt><trkpt lat="46.4269938395179" lon="12.23041088010914"><ele>934.0</ele><time>2026-04-12T12:58:44.944Z</time></trkpt><trkpt lat="46.4268596370346" lon="12.230595887259183"><ele>931.0</ele><time>2026-04-12T12:58:45.944Z</time></trkpt><trkpt lat="46.42672572043421" lon="12.230796015988613"><ele>931.0</ele><time>2026-04-12T12:58:46.944Z</time></trkpt><trkpt lat="46.42658456082368" lon="12.23101946226626"><ele>931.0</ele><time>2026-04-12T12:58:47.944Z</time></trkpt><trkpt lat="46.426435453706134" lon="12.231281853466863"><ele>931.0</ele><time>2026-04-12T12:58:48.944Z</time></trkpt><trkpt lat="46.426293234562394" lon="12.23154049813252"><ele>929.3333333333333</ele><time>2026-04-12T12:58:49.944Z</time></trkpt><trkpt lat="46.42615934570386" lon="12.231793208026994"><ele>927.6666666666667</ele><time>2026-04-12T12:58:50.944Z</time></trkpt><trkpt lat="46.426027959607325" lon="12.232046661720934"><ele>926.0</ele><time>2026-04-12T12:58:51.944Z</time></trkpt><trkpt lat="46.4258937319045" lon="12.23230300958163"><ele>928.0</ele><time>2026-04-12T12:58:52.944Z</time></trkpt><trkpt lat="46.42576599815979" lon="12.23254558276949"><ele>930.0</ele><time>2026-04-12T12:58:53.944Z</time></trkpt><trkpt lat="46.42564220796159" lon="12.232775317584348"><ele>932.0</ele><time>2026-04-12T12:58:54.944Z</time></trkpt><trkpt lat="46.42552178473546" lon="12.233007178315477"><ele>928.3333333333334</ele><time>2026-04-12T12:58:55.944Z</time></trkpt><trkpt lat="46.42540873093799" lon="12.233246911936485"><ele>924.6666666666667</ele><time>2026-04-12T12:58:56.944Z</time></trkpt><trkpt lat="46.425294967309206" lon="12.233495841351614"><ele>921.0</ele><time>2026-04-12T12:58:57.944Z</time></trkpt><trkpt lat="46.42518554550278" lon="12.233757471358407"><ele>925.3333333333333</ele><time>2026-04-12T12:58:58.944Z</time></trkpt><trkpt lat="46.42507488029483" lon="12.23403254247813"><ele>929.6666666666666</ele><time>2026-04-12T12:58:59.944Z</time></trkpt><trkpt lat="46.424969613475895" lon="12.234296461666425"><ele>934.0</ele><time>2026-04-12T12:59:00.944Z</time></trkpt><trkpt lat="46.424874017879894" lon="12.234544470682996"><ele>934.0</ele><time>2026-04-12T12:59:01.944Z</time></trkpt><trkpt lat="46.424774458504615" lon="12.234786613162038"><ele>934.0</ele><time>2026-04-12T12:59:02.944Z</time></trkpt><trkpt lat="46.42467146665845" lon="12.235021135402988"><ele>934.0</ele><time>2026-04-12T12:59:03.944Z</time></trkpt><trkpt lat="46.42457332270675" lon="12.235255537879068"><ele>934.0</ele><time>2026-04-12T12:59:04.944Z</time></trkpt><trkpt lat="46.42448020743408" lon="12.235476392003841"><ele>934.0</ele><time>2026-04-12T12:59:05.944Z</time></trkpt><trkpt lat="46.42437922675537" lon="12.235659923665715"><ele>934.0</ele><time>2026-04-12T12:59:06.944Z</time></trkpt><trkpt lat="46.42426080099371" lon="12.235816570975578"><ele>934.0</ele><time>2026-04-12T12:59:07.944Z</time></trkpt><trkpt lat="46.424125739770936" lon="12.23593827708013"><ele>934.0</ele><time>2026-04-12T12:59:08.944Z</time></trkpt><trkpt lat="46.42396968523539" lon="12.236015327882656"><ele>934.0</ele><time>2026-04-12T12:59:09.944Z</time></trkpt><trkpt lat="46.42380438404876" lon="12.236064797585263"><ele>934.6666666666666</ele><time>2026-04-12T12:59:10.944Z</time></trkpt><trkpt lat="46.42363548505277" lon="12.236105479996978"><ele>935.3333333333333</ele><time>2026-04-12T12:59:11.944Z</time></trkpt><trkpt lat="46.423466075912195" lon="12.236143000712175"><ele>936.0</ele><time>2026-04-12T12:59:12.944Z</time></trkpt><trkpt lat="46.42330454301879" lon="12.236190484513081"><ele>936.0</ele><time>2026-04-12T12:59:13.944Z</time></trkpt><trkpt lat="46.42315624280405" lon="12.236245895250772"><ele>936.0</ele><time>2026-04-12T12:59:14.944Z</time></trkpt><trkpt lat="46.42302101502438" lon="12.236322576529732"><ele>936.0</ele><time>2026-04-12T12:59:15.944Z</time></trkpt><trkpt lat="46.42289681643276" lon="12.236430956868894"><ele>936.0</ele><time>2026-04-12T12:59:16.944Z</time></trkpt><trkpt lat="46.42278608048453" lon="12.236574327265158"><ele>932.0</ele><time>2026-04-12T12:59:17.944Z</time></trkpt><trkpt lat="46.42268803180725" lon="12.23674924752166"><ele>928.0</ele><time>2026-04-12T12:59:18.944Z</time></trkpt><trkpt lat="46.422613186233455" lon="12.236945447174735"><ele>924.0</ele><time>2026-04-12T12:59:19.944Z</time></trkpt><trkpt lat="46.42256133934753" lon="12.237137717651724"><ele>925.25</ele><time>2026-04-12T12:59:20.944Z</time></trkpt><trkpt lat="46.422520739577905" lon="12.237336789569316"><ele>926.5</ele><time>2026-04-12T12:59:21.944Z</time></trkpt><trkpt lat="46.42248998232493" lon="12.23754346895758"><ele>927.75</ele><time>2026-04-12T12:59:22.944Z</time></trkpt><trkpt lat="46.42244375230389" lon="12.237728335377364"><ele>929.0</ele><time>2026-04-12T12:59:23.944Z</time></trkpt><trkpt lat="46.422387637456396" lon="12.237909627440708"><ele>929.0</ele><time>2026-04-12T12:59:24.944Z</time></trkpt><trkpt lat="46.42234092908056" lon="12.238098753516507"><ele>929.0</ele><time>2026-04-12T12:59:25.944Z</time></trkpt><trkpt lat="46.42228914548906" lon="12.238300156144577"><ele>929.0</ele><time>2026-04-12T12:59:26.944Z</time></trkpt><trkpt lat="46.42223254458947" lon="12.238479359816415"><ele>929.0</ele><time>2026-04-12T12:59:27.944Z</time></trkpt><trkpt lat="46.422170374002896" lon="12.238678127708036"><ele>925.6666666666667</ele><time>2026-04-12T12:59:28.944Z</time></trkpt><trkpt lat="46.42209453966221" lon="12.23886658966772"><ele>922.3333333333333</ele><time>2026-04-12T12:59:29.944Z</time></trkpt><trkpt lat="46.4220054262076" lon="12.239037714211097"><ele>919.0</ele><time>2026-04-12T12:59:30.944Z</time></trkpt><trkpt lat="46.421901789123176" lon="12.239200421136788"><ele>918.75</ele><time>2026-04-12T12:59:31.944Z</time></trkpt><trkpt lat="46.42179142159099" lon="12.239335025815773"><ele>918.5</ele><time>2026-04-12T12:59:32.944Z</time></trkpt><trkpt lat="46.42169530527373" lon="12.239466444579424"><ele>918.25</ele><time>2026-04-12T12:59:33.944Z</time></trkpt><trkpt lat="46.42160998160552" lon="12.239612958402807"><ele>918.0</ele><time>2026-04-12T12:59:34.944Z</time></trkpt><trkpt lat="46.42153739622728" lon="12.239779241535231"><ele>917.5</ele><time>2026-04-12T12:59:35.944Z</time></trkpt><trkpt lat="46.42149500956386" lon="12.239956277720253"><ele>917.0</ele><time>2026-04-12T12:59:36.944Z</time></trkpt><trkpt lat="46.42147032641594" lon="12.240141564157202"><ele>916.5</ele><time>2026-04-12T12:59:37.944Z</time></trkpt><trkpt lat="46.42146190302397" lon="12.240336339264266"><ele>916.0</ele><time>2026-04-12T12:59:38.944Z</time></trkpt><trkpt lat="46.4214727469207" lon="12.240529588509371"><ele>916.25</ele><time>2026-04-12T12:59:39.944Z</time></trkpt><trkpt lat="46.42148023679098" lon="12.240718002663689"><ele>916.5</ele><time>2026-04-12T12:59:40.944Z</time></trkpt><trkpt lat="46.42149232297204" lon="12.240913281913674"><ele>916.75</ele><time>2026-04-12T12:59:41.944Z</time></trkpt><trkpt lat="46.42150273632976" lon="12.241106446607207"><ele>917.0</ele><time>2026-04-12T12:59:42.944Z</time></trkpt><trkpt lat="46.4215110654151" lon="12.24130716756759"><ele>916.5</ele><time>2026-04-12T12:59:43.945Z</time></trkpt><trkpt lat="46.42152533285737" lon="12.241511396739115"><ele>916.0</ele><time>2026-04-12T12:59:44.945Z</time></trkpt><trkpt lat="46.421533261703665" lon="12.241696991921307"><ele>915.5</ele><time>2026-04-12T12:59:45.945Z</time></trkpt><trkpt lat="46.42152938250292" lon="12.241871341294233"><ele>915.0</ele><time>2026-04-12T12:59:46.945Z</time></trkpt><trkpt lat="46.42154014441663" lon="12.24203414729287"><ele>915.0</ele><time>2026-04-12T12:59:47.945Z</time></trkpt><trkpt lat="46.421566753582134" lon="12.24218736864312"><ele>915.0</ele><time>2026-04-12T12:59:48.945Z</time></trkpt><trkpt lat="46.42160675222874" lon="12.242328925141353"><ele>915.0</ele><time>2026-04-12T12:59:49.945Z</time></trkpt><trkpt lat="46.42164915635641" lon="12.242471046954714"><ele>915.0</ele><time>2026-04-12T12:59:50.945Z</time></trkpt><trkpt lat="46.421690121941914" lon="12.242613157709052"><ele>915.0</ele><time>2026-04-12T12:59:51.945Z</time></trkpt><trkpt lat="46.4217270792103" lon="12.242768808378871"><ele>914.5</ele><time>2026-04-12T12:59:52.945Z</time></trkpt><trkpt lat="46.42174564372429" lon="12.242935327034822"><ele>914.0</ele><time>2026-04-12T12:59:53.945Z</time></trkpt><trkpt lat="46.4217442138156" lon="12.243110197120021"><ele>913.5</ele><time>2026-04-12T12:59:54.945Z</time></trkpt><trkpt lat="46.42174903077206" lon="12.243284442186358"><ele>913.0</ele><time>2026-04-12T12:59:55.945Z</time></trkpt><trkpt lat="46.42175211220025" lon="12.243447105545883"><ele>912.75</ele><time>2026-04-12T12:59:56.945Z</time></trkpt><trkpt lat="46.42173862208466" lon="12.243621439851278"><ele>912.5</ele><time>2026-04-12T12:59:57.945Z</time></trkpt><trkpt lat="46.4216754269498" lon="12.243747512606678"><ele>912.25</ele><time>2026-04-12T12:59:58.945Z</time></trkpt><trkpt lat="46.421602899040714" lon="12.243875276029206"><ele>912.0</ele><time>2026-04-12T12:59:59.945Z</time></trkpt><trkpt lat="46.42151266354684" lon="12.243982198104892"><ele>913.5</ele><time>2026-04-12T13:00:00.945Z</time></trkpt><trkpt lat="46.421411748749414" lon="12.244112314094531"><ele>915.0</ele><time>2026-04-12T13:00:01.945Z</time></trkpt><trkpt lat="46.42133959723346" lon="12.244260219935821"><ele>916.5</ele><time>2026-04-12T13:00:02.945Z</time></trkpt><trkpt lat="46.42122930114534" lon="12.244392778538087"><ele>918.0</ele><time>2026-04-12T13:00:03.945Z</time></trkpt><trkpt lat="46.4211230801066" lon="12.244517569442362"><ele>915.5</ele><time>2026-04-12T13:00:04.945Z</time></trkpt><trkpt lat="46.42102349382427" lon="12.244646316988739"><ele>913.0</ele><time>2026-04-12T13:00:05.945Z</time></trkpt><trkpt lat="46.42092368328832" lon="12.24476944519776"><ele>910.5</ele><time>2026-04-12T13:00:06.945Z</time></trkpt><trkpt lat="46.420829291140336" lon="12.244874441976302"><ele>908.0</ele><time>2026-04-12T13:00:07.945Z</time></trkpt><trkpt lat="46.42072837565552" lon="12.24499114400468"><ele>908.0</ele><time>2026-04-12T13:00:08.945Z</time></trkpt><trkpt lat="46.42062829569167" lon="12.245114080259096"><ele>908.0</ele><time>2026-04-12T13:00:09.945Z</time></trkpt><trkpt lat="46.42052574566184" lon="12.245245704985736"><ele>908.0</ele><time>2026-04-12T13:00:10.945Z</time></trkpt><trkpt lat="46.420416162980594" lon="12.245387473750323"><ele>908.0</ele><time>2026-04-12T13:00:11.945Z</time></trkpt><trkpt lat="46.42032233224132" lon="12.245518425552097"><ele>906.75</ele><time>2026-04-12T13:00:12.945Z</time></trkpt><trkpt lat="46.420226668118644" lon="12.245643578143167"><ele>905.5</ele><time>2026-04-12T13:00:13.945Z</time></trkpt><trkpt lat="46.420136370073955" lon="12.245766793997912"><ele>904.25</ele><time>2026-04-12T13:00:14.945Z</time></trkpt><trkpt lat="46.42005090345538" lon="12.245900149319898"><ele>903.0</ele><time>2026-04-12T13:00:15.945Z</time></trkpt><trkpt lat="46.41997462718925" lon="12.246058762558922"><ele>903.0</ele><time>2026-04-12T13:00:16.945Z</time></trkpt><trkpt lat="46.41990316246559" lon="12.2462210066006"><ele>903.0</ele><time>2026-04-12T13:00:17.945Z</time></trkpt><trkpt lat="46.4198320409363" lon="12.246372079272986"><ele>903.0</ele><time>2026-04-12T13:00:18.945Z</time></trkpt><trkpt lat="46.41976204438209" lon="12.246525424700206"><ele>903.0</ele><time>2026-04-12T13:00:19.945Z</time></trkpt><trkpt lat="46.419695448678254" lon="12.246675118328813"><ele>900.25</ele><time>2026-04-12T13:00:20.945Z</time></trkpt><trkpt lat="46.419622342839425" lon="12.246836784975645"><ele>897.5</ele><time>2026-04-12T13:00:21.945Z</time></trkpt><trkpt lat="46.419554659210256" lon="12.246981750696374"><ele>894.75</ele><time>2026-04-12T13:00:22.945Z</time></trkpt><trkpt lat="46.41948608938032" lon="12.24712290648288"><ele>892.0</ele><time>2026-04-12T13:00:23.945Z</time></trkpt><trkpt lat="46.41942530601229" lon="12.24727366028456"><ele>892.75</ele><time>2026-04-12T13:00:24.945Z</time></trkpt><trkpt lat="46.4193957566735" lon="12.247442242865306"><ele>893.5</ele><time>2026-04-12T13:00:25.945Z</time></trkpt><trkpt lat="46.41936452754517" lon="12.247600815539586"><ele>894.25</ele><time>2026-04-12T13:00:26.945Z</time></trkpt><trkpt lat="46.41933210553427" lon="12.247755707229382"><ele>895.0</ele><time>2026-04-12T13:00:27.945Z</time></trkpt><trkpt lat="46.41929846016382" lon="12.247906695901188"><ele>895.0</ele><time>2026-04-12T13:00:28.945Z</time></trkpt><trkpt lat="46.41926880575104" lon="12.248046593640131"><ele>895.0</ele><time>2026-04-12T13:00:29.945Z</time></trkpt><trkpt lat="46.419233244450794" lon="12.248185030182663"><ele>895.0</ele><time>2026-04-12T13:00:30.945Z</time></trkpt><trkpt lat="46.41918485473672" lon="12.248328415126748"><ele>895.0</ele><time>2026-04-12T13:00:31.945Z</time></trkpt><trkpt lat="46.41911416818652" lon="12.248444544842402"><ele>895.0</ele><time>2026-04-12T13:00:32.945Z</time></trkpt><trkpt lat="46.41900123275518" lon="12.248538549893837"><ele>895.75</ele><time>2026-04-12T13:00:33.945Z</time></trkpt><trkpt lat="46.41889491710297" lon="12.248634072024297"><ele>896.5</ele><time>2026-04-12T13:00:34.945Z</time></trkpt><trkpt lat="46.41878386442462" lon="12.248688365631722"><ele>897.25</ele><time>2026-04-12T13:00:35.945Z</time></trkpt><trkpt lat="46.41869593003223" lon="12.24875484875469"><ele>898.0</ele><time>2026-04-12T13:00:36.945Z</time></trkpt><trkpt lat="46.41858788476871" lon="12.248817354223196"><ele>896.25</ele><time>2026-04-12T13:00:37.945Z</time></trkpt><trkpt lat="46.418495662250294" lon="12.248934646369433"><ele>894.5</ele><time>2026-04-12T13:00:38.945Z</time></trkpt><trkpt lat="46.418423782910565" lon="12.249081360459956"><ele>892.75</ele><time>2026-04-12T13:00:39.945Z</time></trkpt><trkpt lat="46.41838207360108" lon="12.249281344668411"><ele>891.0</ele><time>2026-04-12T13:00:40.945Z</time></trkpt><trkpt lat="46.41834428876921" lon="12.249485009071218"><ele>891.0</ele><time>2026-04-12T13:00:41.945Z</time></trkpt><trkpt lat="46.418307304512986" lon="12.249683169184244"><ele>891.0</ele><time>2026-04-12T13:00:42.945Z</time></trkpt><trkpt lat="46.41826773646385" lon="12.249877843130466"><ele>891.0</ele><time>2026-04-12T13:00:43.945Z</time></trkpt><trkpt lat="46.41821936958261" lon="12.25004866925878"><ele>891.0</ele><time>2026-04-12T13:00:44.945Z</time></trkpt><trkpt lat="46.41815829695874" lon="12.25021265155988"><ele>891.5</ele><time>2026-04-12T13:00:45.945Z</time></trkpt><trkpt lat="46.41807868496037" lon="12.250357285019374"><ele>892.0</ele><time>2026-04-12T13:00:46.945Z</time></trkpt><trkpt lat="46.417979498194214" lon="12.250483337230406"><ele>892.5</ele><time>2026-04-12T13:00:47.945Z</time></trkpt><trkpt lat="46.417865552656544" lon="12.250586880200903"><ele>893.0</ele><time>2026-04-12T13:00:48.945Z</time></trkpt><trkpt lat="46.417733716994114" lon="12.250675455600673"><ele>892.0</ele><time>2026-04-12T13:00:49.945Z</time></trkpt><trkpt lat="46.41761167822324" lon="12.250766229743943"><ele>891.0</ele><time>2026-04-12T13:00:50.945Z</time></trkpt><trkpt lat="46.41748953858262" lon="12.250845742138592"><ele>890.0</ele><time>2026-04-12T13:00:51.945Z</time></trkpt><trkpt lat="46.41737344620194" lon="12.250922200567086"><ele>889.0</ele><time>2026-04-12T13:00:52.945Z</time></trkpt><trkpt lat="46.41726603720784" lon="12.250991762156254"><ele>889.0</ele><time>2026-04-12T13:00:53.945Z</time></trkpt><trkpt lat="46.41715782894763" lon="12.251043082146785"><ele>889.0000000000001</ele><time>2026-04-12T13:00:54.945Z</time></trkpt><trkpt lat="46.41706138109687" lon="12.25107179402766"><ele>889.0000000000001</ele><time>2026-04-12T13:00:55.945Z</time></trkpt><trkpt lat="46.41697107236289" lon="12.251091168461196"><ele>889.0</ele><time>2026-04-12T13:00:56.945Z</time></trkpt><trkpt lat="46.41688358665898" lon="12.25111385508879"><ele>889.0</ele><time>2026-04-12T13:00:57.945Z</time></trkpt><trkpt lat="46.41680003673863" lon="12.251169347311379"><ele>889.4000000000001</ele><time>2026-04-12T13:00:58.945Z</time></trkpt><trkpt lat="46.416733541145724" lon="12.251276947972011"><ele>889.8000000000001</ele><time>2026-04-12T13:00:59.945Z</time></trkpt><trkpt lat="46.416685977294854" lon="12.251410324398218"><ele>890.1999999999999</ele><time>2026-04-12T13:01:00.945Z</time></trkpt><trkpt lat="46.4166338584187" lon="12.2515408937529"><ele>890.5999999999999</ele><time>2026-04-12T13:01:01.945Z</time></trkpt><trkpt lat="46.41657272527866" lon="12.251680489459634"><ele>891.0</ele><time>2026-04-12T13:01:02.945Z</time></trkpt><trkpt lat="46.41649975867687" lon="12.251836652183476"><ele>891.0</ele><time>2026-04-12T13:01:03.945Z</time></trkpt><trkpt lat="46.41642508073198" lon="12.251967604914542"><ele>891.0</ele><time>2026-04-12T13:01:04.945Z</time></trkpt><trkpt lat="46.416332655672186" lon="12.252086682652832"><ele>891.0</ele><time>2026-04-12T13:01:05.945Z</time></trkpt><trkpt lat="46.41622418631205" lon="12.252169560817547"><ele>891.0</ele><time>2026-04-12T13:01:06.945Z</time></trkpt><trkpt lat="46.41611857058384" lon="12.252206782781403"><ele>888.0</ele><time>2026-04-12T13:01:07.945Z</time></trkpt><trkpt lat="46.41600175188339" lon="12.25221235547334"><ele>884.9999999999999</ele><time>2026-04-12T13:01:08.945Z</time></trkpt><trkpt lat="46.41589461854985" lon="12.25222075680925"><ele>881.9999999999999</ele><time>2026-04-12T13:01:09.945Z</time></trkpt><trkpt lat="46.4158004019558" lon="12.252232437436946"><ele>879.0</ele><time>2026-04-12T13:01:10.945Z</time></trkpt><trkpt lat="46.415708212201345" lon="12.252238124653823"><ele>876.0</ele><time>2026-04-12T13:01:11.945Z</time></trkpt><trkpt lat="46.41560910656488" lon="12.25226715814548"><ele>874.8</ele><time>2026-04-12T13:01:12.945Z</time></trkpt><trkpt lat="46.41550729685801" lon="12.252315654965864"><ele>873.5999999999999</ele><time>2026-04-12T13:01:13.945Z</time></trkpt><trkpt lat="46.41540814708685" lon="12.252382061157043"><ele>872.4</ele><time>2026-04-12T13:01:14.945Z</time></trkpt><trkpt lat="46.415321337287494" lon="12.252477482933102"><ele>871.2</ele><time>2026-04-12T13:01:15.945Z</time></trkpt><trkpt lat="46.4152464311873" lon="12.252613280619004"><ele>870.0</ele><time>2026-04-12T13:01:16.945Z</time></trkpt><trkpt lat="46.41518528073542" lon="12.252758671040203"><ele>870.0</ele><time>2026-04-12T13:01:17.945Z</time></trkpt><trkpt lat="46.415129923483065" lon="12.252908783868449"><ele>870.0</ele><time>2026-04-12T13:01:18.945Z</time></trkpt><trkpt lat="46.415085661467934" lon="12.253068047209995"><ele>870.0</ele><time>2026-04-12T13:01:19.945Z</time></trkpt><trkpt lat="46.41505573284915" lon="12.253222152415015"><ele>870.0</ele><time>2026-04-12T13:01:20.945Z</time></trkpt><trkpt lat="46.41502908036316" lon="12.253372714391675"><ele>872.4</ele><time>2026-04-12T13:01:21.945Z</time></trkpt><trkpt lat="46.41499624116265" lon="12.253514061794034"><ele>874.8</ele><time>2026-04-12T13:01:22.945Z</time></trkpt><trkpt lat="46.41495861628747" lon="12.253651755481176"><ele>877.2</ele><time>2026-04-12T13:01:23.945Z</time></trkpt><trkpt lat="46.414917798969995" lon="12.253793685237055"><ele>879.6</ele><time>2026-04-12T13:01:24.945Z</time></trkpt><trkpt lat="46.41488686528743" lon="12.253931737871158"><ele>882.0</ele><time>2026-04-12T13:01:25.945Z</time></trkpt><trkpt lat="46.41487005884005" lon="12.254080079777843"><ele>883.0</ele><time>2026-04-12T13:01:26.945Z</time></trkpt><trkpt lat="46.41487952791952" lon="12.254265310728716"><ele>884.0</ele><time>2026-04-12T13:01:27.945Z</time></trkpt><trkpt lat="46.41490752642208" lon="12.254484631522693"><ele>885.0</ele><time>2026-04-12T13:01:28.945Z</time></trkpt><trkpt lat="46.41494296637002" lon="12.254701364300075"><ele>886.0</ele><time>2026-04-12T13:01:29.945Z</time></trkpt><trkpt lat="46.414972690894096" lon="12.254923043766823"><ele>886.0</ele><time>2026-04-12T13:01:30.945Z</time></trkpt><trkpt lat="46.41500736036568" lon="12.255151002365391"><ele>886.0</ele><time>2026-04-12T13:01:31.945Z</time></trkpt><trkpt lat="46.41504085068781" lon="12.255356294246791"><ele>886.0</ele><time>2026-04-12T13:01:32.945Z</time></trkpt><trkpt lat="46.41507145607419" lon="12.255543353943828"><ele>886.0</ele><time>2026-04-12T13:01:33.945Z</time></trkpt><trkpt lat="46.415095985733934" lon="12.255725032451345"><ele>884.75</ele><time>2026-04-12T13:01:34.945Z</time></trkpt><trkpt lat="46.41511644474638" lon="12.255897235240386"><ele>883.5</ele><time>2026-04-12T13:01:35.945Z</time></trkpt><trkpt lat="46.41514212006332" lon="12.256064568031988"><ele>882.25</ele><time>2026-04-12T13:01:36.945Z</time></trkpt><trkpt lat="46.41517392044938" lon="12.256213867584643"><ele>881.0</ele><time>2026-04-12T13:01:37.945Z</time></trkpt><trkpt lat="46.41522214295696" lon="12.256378594233825"><ele>878.5</ele><time>2026-04-12T13:01:38.945Z</time></trkpt><trkpt lat="46.415305801185774" lon="12.256539055307387"><ele>876.0</ele><time>2026-04-12T13:01:39.945Z</time></trkpt><trkpt lat="46.41539777175324" lon="12.256700062792513"><ele>873.5</ele><time>2026-04-12T13:01:40.945Z</time></trkpt><trkpt lat="46.4154965817787" lon="12.256839158179947"><ele>871.0</ele><time>2026-04-12T13:01:41.945Z</time></trkpt><trkpt lat="46.41558503777599" lon="12.256980389002717"><ele>877.3333333333333</ele><time>2026-04-12T13:01:42.945Z</time></trkpt><trkpt lat="46.41567126271675" lon="12.257152397752796"><ele>883.6666666666667</ele><time>2026-04-12T13:01:43.945Z</time></trkpt><trkpt lat="46.415752059114006" lon="12.257355099403044"><ele>890.0</ele><time>2026-04-12T13:01:44.945Z</time></trkpt><trkpt lat="46.41580677693999" lon="12.257548599375946"><ele>890.0</ele><time>2026-04-12T13:01:45.945Z</time></trkpt><trkpt lat="46.415853383549255" lon="12.257732031027963"><ele>890.0</ele><time>2026-04-12T13:01:46.945Z</time></trkpt><trkpt lat="46.415895151679884" lon="12.257882600646882"><ele>890.0</ele><time>2026-04-12T13:01:47.945Z</time></trkpt><trkpt lat="46.41593525284167" lon="12.258024343149987"><ele>890.0</ele><time>2026-04-12T13:01:48.945Z</time></trkpt><trkpt lat="46.415972173698854" lon="12.258169271169027"><ele>889.0</ele><time>2026-04-12T13:01:49.946Z</time></trkpt><trkpt lat="46.41598516836541" lon="12.258319084486127"><ele>888.0</ele><time>2026-04-12T13:01:50.946Z</time></trkpt><trkpt lat="46.415975970424775" lon="12.258472582587165"><ele>887.0</ele><time>2026-04-12T13:01:51.946Z</time></trkpt><trkpt lat="46.41594816680982" lon="12.258624723253625"><ele>886.0</ele><time>2026-04-12T13:01:52.946Z</time></trkpt><trkpt lat="46.41590899567319" lon="12.258767185263707"><ele>885.0</ele><time>2026-04-12T13:01:53.946Z</time></trkpt><trkpt lat="46.41584225544455" lon="12.258924620684855"><ele>883.75</ele><time>2026-04-12T13:01:54.946Z</time></trkpt><trkpt lat="46.415759267164944" lon="12.259040304473949"><ele>882.5</ele><time>2026-04-12T13:01:55.946Z</time></trkpt><trkpt lat="46.4156437292163" lon="12.259144059092572"><ele>881.25</ele><time>2026-04-12T13:01:56.946Z</time></trkpt><trkpt lat="46.41552708110164" lon="12.259221575732923"><ele>880.0</ele><time>2026-04-12T13:01:57.946Z</time></trkpt><trkpt lat="46.41542160124434" lon="12.259295495399892"><ele>880.0</ele><time>2026-04-12T13:01:58.946Z</time></trkpt><trkpt lat="46.41531132473083" lon="12.259360711157449"><ele>880.0</ele><time>2026-04-12T13:01:59.946Z</time></trkpt><trkpt lat="46.415209806162814" lon="12.259442681933793"><ele>880.0</ele><time>2026-04-12T13:02:00.946Z</time></trkpt><trkpt lat="46.415119282275946" lon="12.25951552367279"><ele>880.0</ele><time>2026-04-12T13:02:01.946Z</time></trkpt><trkpt lat="46.41504052307773" lon="12.259585085847542"><ele>880.0</ele><time>2026-04-12T13:02:02.946Z</time></trkpt><trkpt lat="46.41495743360333" lon="12.259643578397911"><ele>880.0</ele><time>2026-04-12T13:02:03.946Z</time></trkpt><trkpt lat="46.414890576327046" lon="12.259737829610344"><ele>880.0</ele><time>2026-04-12T13:02:04.946Z</time></trkpt><trkpt lat="46.414846628244796" lon="12.259878713194293"><ele>880.0</ele><time>2026-04-12T13:02:05.946Z</time></trkpt><trkpt lat="46.41482242771146" lon="12.26005174687322"><ele>880.0</ele><time>2026-04-12T13:02:06.946Z</time></trkpt><trkpt lat="46.41478861575839" lon="12.260225035596461"><ele>880.0</ele><time>2026-04-12T13:02:07.946Z</time></trkpt><trkpt lat="46.414743565635945" lon="12.260416521603084"><ele>881.3333333333333</ele><time>2026-04-12T13:02:08.946Z</time></trkpt><trkpt lat="46.41469807611281" lon="12.260624594930135"><ele>882.6666666666667</ele><time>2026-04-12T13:02:09.946Z</time></trkpt><trkpt lat="46.414640761601994" lon="12.260852860351847"><ele>884.0</ele><time>2026-04-12T13:02:10.946Z</time></trkpt><trkpt lat="46.41458558393995" lon="12.261109645303712"><ele>884.0</ele><time>2026-04-12T13:02:11.946Z</time></trkpt><trkpt lat="46.41452587090829" lon="12.261385432568662"><ele>884.0</ele><time>2026-04-12T13:02:12.946Z</time></trkpt><trkpt lat="46.41446493267057" lon="12.261628825763424"><ele>884.0</ele><time>2026-04-12T13:02:13.946Z</time></trkpt><trkpt lat="46.4144060635256" lon="12.26184337500472"><ele>885.5</ele><time>2026-04-12T13:02:14.946Z</time></trkpt><trkpt lat="46.41435367370861" lon="12.262046517062299"><ele>887.0</ele><time>2026-04-12T13:02:15.946Z</time></trkpt><trkpt lat="46.414309563023686" lon="12.262224304792031"><ele>888.5</ele><time>2026-04-12T13:02:16.946Z</time></trkpt><trkpt lat="46.41425914713681" lon="12.262402602422329"><ele>890.0</ele><time>2026-04-12T13:02:17.946Z</time></trkpt><trkpt lat="46.4142278220475" lon="12.262583085500003"><ele>890.0</ele><time>2026-04-12T13:02:18.946Z</time></trkpt><trkpt lat="46.41420271218194" lon="12.262783595334424"><ele>890.0</ele><time>2026-04-12T13:02:19.946Z</time></trkpt><trkpt lat="46.41419406884035" lon="12.263003064534304"><ele>890.0</ele><time>2026-04-12T13:02:20.946Z</time></trkpt><trkpt lat="46.414190686649555" lon="12.26322317901503"><ele>890.0</ele><time>2026-04-12T13:02:21.946Z</time></trkpt><trkpt lat="46.414187799535554" lon="12.263423679324742"><ele>890.0</ele><time>2026-04-12T13:02:22.946Z</time></trkpt><trkpt lat="46.414184762886855" lon="12.263609832082851"><ele>890.0</ele><time>2026-04-12T13:02:23.946Z</time></trkpt><trkpt lat="46.41417726883966" lon="12.263779695186141"><ele>890.0</ele><time>2026-04-12T13:02:24.946Z</time></trkpt><trkpt lat="46.41414153283768" lon="12.263951417913123"><ele>890.0</ele><time>2026-04-12T13:02:25.946Z</time></trkpt><trkpt lat="46.41407364527019" lon="12.264114821399746"><ele>892.0</ele><time>2026-04-12T13:02:26.946Z</time></trkpt><trkpt lat="46.41396533764287" lon="12.264292649197227"><ele>894.0</ele><time>2026-04-12T13:02:27.946Z</time></trkpt><trkpt lat="46.41382929060783" lon="12.264469272580465"><ele>896.0</ele><time>2026-04-12T13:02:28.946Z</time></trkpt><trkpt lat="46.41369139697656" lon="12.264699769228024"><ele>889.5</ele><time>2026-04-12T13:02:29.946Z</time></trkpt><trkpt lat="46.41353295634765" lon="12.264940256804158"><ele>883.0</ele><time>2026-04-12T13:02:30.946Z</time></trkpt><trkpt lat="46.41336476290816" lon="12.265162937008135"><ele>883.0</ele><time>2026-04-12T13:02:31.946Z</time></trkpt><trkpt lat="46.41322311142859" lon="12.265357173699005"><ele>883.0</ele><time>2026-04-12T13:02:32.946Z</time></trkpt><trkpt lat="46.41310367489331" lon="12.26555160457351"><ele>883.0</ele><time>2026-04-12T13:02:33.946Z</time></trkpt><trkpt lat="46.41300591083643" lon="12.26575946300564"><ele>879.0</ele><time>2026-04-12T13:02:34.946Z</time></trkpt><trkpt lat="46.41295416726581" lon="12.265982382893183"><ele>875.0</ele><time>2026-04-12T13:02:35.946Z</time></trkpt><trkpt lat="46.412918483530355" lon="12.266201872737653"><ele>871.0</ele><time>2026-04-12T13:02:36.946Z</time></trkpt><trkpt lat="46.41290071513503" lon="12.266451624542615"><ele>871.0</ele><time>2026-04-12T13:02:37.946Z</time></trkpt><trkpt lat="46.41289785495537" lon="12.266739818120667"><ele>871.0</ele><time>2026-04-12T13:02:38.946Z</time></trkpt><trkpt lat="46.41289656628683" lon="12.26704208317976"><ele>871.0</ele><time>2026-04-12T13:02:39.946Z</time></trkpt><trkpt lat="46.41288239367713" lon="12.26734717425818"><ele>875.5</ele><time>2026-04-12T13:02:40.946Z</time></trkpt><trkpt lat="46.41283860168584" lon="12.267671452994774"><ele>880.0</ele><time>2026-04-12T13:02:41.946Z</time></trkpt><trkpt lat="46.412770348392954" lon="12.268020089319265"><ele>884.0</ele><time>2026-04-12T13:02:42.946Z</time></trkpt><trkpt lat="46.412689038673264" lon="12.26838461475482"><ele>888.0</ele><time>2026-04-12T13:02:43.946Z</time></trkpt><trkpt lat="46.41260954634827" lon="12.26878604915107"><ele>890.0</ele><time>2026-04-12T13:02:44.946Z</time></trkpt><trkpt lat="46.41255036483483" lon="12.26912128754856"><ele>892.0</ele><time>2026-04-12T13:02:45.946Z</time></trkpt><trkpt lat="46.412483656556105" lon="12.269459414351541"><ele>892.0</ele><time>2026-04-12T13:02:46.946Z</time></trkpt><trkpt lat="46.41242769610282" lon="12.269764144294989"><ele>892.0</ele><time>2026-04-12T13:02:47.946Z</time></trkpt><trkpt lat="46.412321521488614" lon="12.270077556463018"><ele>894.3333333333333</ele><time>2026-04-12T13:02:48.946Z</time></trkpt><trkpt lat="46.412257625117" lon="12.270386682096499"><ele>896.6666666666667</ele><time>2026-04-12T13:02:49.946Z</time></trkpt><trkpt lat="46.412198437892" lon="12.270670452884444"><ele>899.0</ele><time>2026-04-12T13:02:50.946Z</time></trkpt><trkpt lat="46.41213170339062" lon="12.270989660846313"><ele>885.5</ele><time>2026-04-12T13:02:51.946Z</time></trkpt><trkpt lat="46.412060593839406" lon="12.271329742251293"><ele>872.0</ele><time>2026-04-12T13:02:52.946Z</time></trkpt><trkpt lat="46.411988654020554" lon="12.271674216815276"><ele>872.0</ele><time>2026-04-12T13:02:53.946Z</time></trkpt><trkpt lat="46.41192454803459" lon="12.271976887469057"><ele>872.0</ele><time>2026-04-12T13:02:54.946Z</time></trkpt><trkpt lat="46.41187540337506" lon="12.272272742047162"><ele>872.0</ele><time>2026-04-12T13:02:55.946Z</time></trkpt><trkpt lat="46.41178786089632" lon="12.272531832887141"><ele>875.0</ele><time>2026-04-12T13:02:56.946Z</time></trkpt><trkpt lat="46.4116796414503" lon="12.27276458841688"><ele>878.0</ele><time>2026-04-12T13:02:57.946Z</time></trkpt><trkpt lat="46.411574825511885" lon="12.27298923606606"><ele>881.0</ele><time>2026-04-12T13:02:58.946Z</time></trkpt><trkpt lat="46.411483510604874" lon="12.27319349942178"><ele>883.0</ele><time>2026-04-12T13:02:59.946Z</time></trkpt><trkpt lat="46.41139848006335" lon="12.273371497534319"><ele>885.0</ele><time>2026-04-12T13:03:00.946Z</time></trkpt><trkpt lat="46.411335211376866" lon="12.273518755028736"><ele>887.0</ele><time>2026-04-12T13:03:01.946Z</time></trkpt><trkpt lat="46.41127772687315" lon="12.27365230625673"><ele>889.0</ele><time>2026-04-12T13:03:02.946Z</time></trkpt><trkpt lat="46.41121774506616" lon="12.273791582950969"><ele>883.3333333333333</ele><time>2026-04-12T13:03:03.946Z</time></trkpt><trkpt lat="46.411147880019776" lon="12.274030266888207"><ele>877.6666666666667</ele><time>2026-04-12T13:03:04.946Z</time></trkpt><trkpt lat="46.41112665898645" lon="12.274274826654509"><ele>872.0</ele><time>2026-04-12T13:03:05.946Z</time></trkpt><trkpt lat="46.41114836831327" lon="12.274499574356797"><ele>872.0</ele><time>2026-04-12T13:03:06.946Z</time></trkpt><trkpt lat="46.411197273732206" lon="12.274706916893534"><ele>872.0</ele><time>2026-04-12T13:03:07.946Z</time></trkpt><trkpt lat="46.41127573230739" lon="12.274885850007085"><ele>872.0</ele><time>2026-04-12T13:03:08.946Z</time></trkpt><trkpt lat="46.41138428087733" lon="12.275040262451824"><ele>872.0</ele><time>2026-04-12T13:03:09.946Z</time></trkpt><trkpt lat="46.41153150518228" lon="12.275146887790141"><ele>876.0</ele><time>2026-04-12T13:03:10.946Z</time></trkpt><trkpt lat="46.411688573736804" lon="12.275242726389003"><ele>880.0</ele><time>2026-04-12T13:03:11.946Z</time></trkpt><trkpt lat="46.41186146790995" lon="12.275330105434945"><ele>884.0</ele><time>2026-04-12T13:03:12.946Z</time></trkpt><trkpt lat="46.41201962100812" lon="12.275395578355996"><ele>884.0</ele><time>2026-04-12T13:03:13.946Z</time></trkpt><trkpt lat="46.4121445131041" lon="12.275486564826236"><ele>884.0</ele><time>2026-04-12T13:03:14.946Z</time></trkpt><trkpt lat="46.41226937249015" lon="12.275551762936928"><ele>884.0</ele><time>2026-04-12T13:03:15.946Z</time></trkpt><trkpt lat="46.412389360477135" lon="12.27560388626009"><ele>884.0</ele><time>2026-04-12T13:03:16.946Z</time></trkpt><trkpt lat="46.41248695746866" lon="12.275791836755726"><ele>883.5</ele><time>2026-04-12T13:03:17.946Z</time></trkpt><trkpt lat="46.41259308530798" lon="12.275883447631713"><ele>883.0</ele><time>2026-04-12T13:03:18.946Z</time></trkpt><trkpt lat="46.412698767909596" lon="12.276022694986889"><ele>882.5</ele><time>2026-04-12T13:03:19.946Z</time></trkpt><trkpt lat="46.4128013331424" lon="12.276167034452833"><ele>882.0</ele><time>2026-04-12T13:03:20.946Z</time></trkpt><trkpt lat="46.412882116073625" lon="12.276282948994446"><ele>882.0</ele><time>2026-04-12T13:03:21.946Z</time></trkpt><trkpt lat="46.4129325280777" lon="12.276393668966096"><ele>882.0</ele><time>2026-04-12T13:03:22.946Z</time></trkpt><trkpt lat="46.412794160757244" lon="12.276710980420582"><ele>882.0</ele><time>2026-04-12T13:03:23.946Z</time></trkpt><trkpt lat="46.41278723062036" lon="12.276917980033504"><ele>890.0</ele><time>2026-04-12T13:03:24.946Z</time></trkpt><trkpt lat="46.41344649361786" lon="12.277174291465817"><ele>888.5</ele><time>2026-04-12T13:03:25.946Z</time></trkpt><trkpt lat="46.413394534706526" lon="12.277351459685013"><ele>887.0</ele><time>2026-04-12T13:03:26.946Z</time></trkpt><trkpt lat="46.41337090980285" lon="12.277495293573507"><ele>885.5</ele><time>2026-04-12T13:03:27.946Z</time></trkpt><trkpt lat="46.4133109313457" lon="12.277613558902509"><ele>884.0</ele><time>2026-04-12T13:03:28.946Z</time></trkpt><trkpt lat="46.413230341089196" lon="12.277749696068872"><ele>884.0</ele><time>2026-04-12T13:03:29.946Z</time></trkpt><trkpt lat="46.413120940005555" lon="12.27785515590071"><ele>884.0</ele><time>2026-04-12T13:03:30.946Z</time></trkpt><trkpt lat="46.41299087016897" lon="12.277874310348622"><ele>884.0</ele><time>2026-04-12T13:03:31.946Z</time></trkpt><trkpt lat="46.41282640390399" lon="12.277876448730357"><ele>884.0</ele><time>2026-04-12T13:03:32.946Z</time></trkpt><trkpt lat="46.41264027152489" lon="12.277875150547967"><ele>882.6666666666667</ele><time>2026-04-12T13:03:33.946Z</time></trkpt><trkpt lat="46.41243807293455" lon="12.277872731322944"><ele>881.3333333333333</ele><time>2026-04-12T13:03:34.946Z</time></trkpt><trkpt lat="46.412225615655906" lon="12.277870592492665"><ele>880.0</ele><time>2026-04-12T13:03:35.946Z</time></trkpt><trkpt lat="46.412035718060565" lon="12.277869213382381"><ele>880.0</ele><time>2026-04-12T13:03:36.946Z</time></trkpt><trkpt lat="46.41186725694189" lon="12.277854126497058"><ele>880.0</ele><time>2026-04-12T13:03:37.946Z</time></trkpt><trkpt lat="46.41171139503113" lon="12.277809559215061"><ele>880.0</ele><time>2026-04-12T13:03:38.946Z</time></trkpt><trkpt lat="46.4115673281768" lon="12.277722466431326"><ele>880.0</ele><time>2026-04-12T13:03:39.946Z</time></trkpt><trkpt lat="46.41142194883521" lon="12.277590786703074"><ele>880.0</ele><time>2026-04-12T13:03:40.946Z</time></trkpt><trkpt lat="46.41126619130096" lon="12.277449379016153"><ele>880.0</ele><time>2026-04-12T13:03:41.946Z</time></trkpt><trkpt lat="46.41108941759593" lon="12.277366494664138"><ele>881.0</ele><time>2026-04-12T13:03:42.946Z</time></trkpt><trkpt lat="46.41092143623374" lon="12.277286562738585"><ele>882.0</ele><time>2026-04-12T13:03:43.946Z</time></trkpt><trkpt lat="46.41076061861751" lon="12.27723953327473"><ele>883.0</ele><time>2026-04-12T13:03:44.946Z</time></trkpt><trkpt lat="46.41061571284007" lon="12.277194483989447"><ele>880.0</ele><time>2026-04-12T13:03:45.946Z</time></trkpt><trkpt lat="46.41047310598546" lon="12.27717084199188"><ele>877.0</ele><time>2026-04-12T13:03:46.946Z</time></trkpt><trkpt lat="46.410328859795676" lon="12.277194391392165"><ele>874.0</ele><time>2026-04-12T13:03:47.946Z</time></trkpt><trkpt lat="46.410227782919435" lon="12.277296797949413"><ele>871.0</ele><time>2026-04-12T13:03:48.946Z</time></trkpt><trkpt lat="46.41013330921973" lon="12.277429805196109"><ele>871.0</ele><time>2026-04-12T13:03:49.946Z</time></trkpt><trkpt lat="46.410044025034146" lon="12.277586046633404"><ele>871.0</ele><time>2026-04-12T13:03:50.946Z</time></trkpt><trkpt lat="46.40999354276907" lon="12.277696494126495"><ele>871.0</ele><time>2026-04-12T13:03:51.946Z</time></trkpt><trkpt lat="46.409926528489656" lon="12.277816874487023"><ele>871.0</ele><time>2026-04-12T13:03:52.946Z</time></trkpt><trkpt lat="46.40984220337858" lon="12.278067553122332"><ele>873.75</ele><time>2026-04-12T13:03:53.946Z</time></trkpt><trkpt lat="46.40980579286858" lon="12.278283475808042"><ele>876.5</ele><time>2026-04-12T13:03:54.946Z</time></trkpt><trkpt lat="46.409804637763955" lon="12.278494420859131"><ele>879.25</ele><time>2026-04-12T13:03:55.946Z</time></trkpt><trkpt lat="46.40981050901563" lon="12.278694059148272"><ele>882.0</ele><time>2026-04-12T13:03:56.946Z</time></trkpt><trkpt lat="46.409819321584266" lon="12.278899262381431"><ele>885.0</ele><time>2026-04-12T13:03:57.946Z</time></trkpt><trkpt lat="46.40984218778454" lon="12.279107412284958"><ele>888.0</ele><time>2026-04-12T13:03:58.946Z</time></trkpt><trkpt lat="46.40984113299315" lon="12.279309909862436"><ele>891.0</ele><time>2026-04-12T13:03:59.946Z</time></trkpt><trkpt lat="46.409851827078036" lon="12.279474342505042"><ele>894.0</ele><time>2026-04-12T13:04:00.946Z</time></trkpt><trkpt lat="46.40985372846027" lon="12.279627931287614"><ele>894.0</ele><time>2026-04-12T13:04:01.947Z</time></trkpt><trkpt lat="46.40985262647558" lon="12.27976371337293"><ele>894.0000000000001</ele><time>2026-04-12T13:04:02.947Z</time></trkpt><trkpt lat="46.40978290359314" lon="12.279862003825059"><ele>894.0000000000001</ele><time>2026-04-12T13:04:03.947Z</time></trkpt><trkpt lat="46.40967193913661" lon="12.279898932459535"><ele>894.0</ele><time>2026-04-12T13:04:04.947Z</time></trkpt><trkpt lat="46.409551810877005" lon="12.279857836446512"><ele>894.0</ele><time>2026-04-12T13:04:05.947Z</time></trkpt><trkpt lat="46.409421931572496" lon="12.27981754245568"><ele>890.0</ele><time>2026-04-12T13:04:06.947Z</time></trkpt><trkpt lat="46.40929841365188" lon="12.27983905585292"><ele>886.0</ele><time>2026-04-12T13:04:07.947Z</time></trkpt><trkpt lat="46.40916872616964" lon="12.279924803010871"><ele>882.0</ele><time>2026-04-12T13:04:08.947Z</time></trkpt><trkpt lat="46.409043546133994" lon="12.280065037140098"><ele>878.0</ele><time>2026-04-12T13:04:09.947Z</time></trkpt><trkpt lat="46.40891570572824" lon="12.280260191375602"><ele>875.0</ele><time>2026-04-12T13:04:10.947Z</time></trkpt><trkpt lat="46.40879152748208" lon="12.28046480922484"><ele>872.0</ele><time>2026-04-12T13:04:11.947Z</time></trkpt><trkpt lat="46.40867274420642" lon="12.28062155027266"><ele>869.0</ele><time>2026-04-12T13:04:12.947Z</time></trkpt><trkpt lat="46.408563459556454" lon="12.280759432278609"><ele>869.0</ele><time>2026-04-12T13:04:13.947Z</time></trkpt><trkpt lat="46.4084810010076" lon="12.280915680868583"><ele>869.0</ele><time>2026-04-12T13:04:14.947Z</time></trkpt><trkpt lat="46.408424529799525" lon="12.28107450313381"><ele>869.0</ele><time>2026-04-12T13:04:15.947Z</time></trkpt><trkpt lat="46.4083825499591" lon="12.281234311085086"><ele>869.0</ele><time>2026-04-12T13:04:16.947Z</time></trkpt><trkpt lat="46.40833559089158" lon="12.281393149816745"><ele>875.25</ele><time>2026-04-12T13:04:17.947Z</time></trkpt><trkpt lat="46.40826040273808" lon="12.281531274467405"><ele>881.5</ele><time>2026-04-12T13:04:18.947Z</time></trkpt><trkpt lat="46.40816588894756" lon="12.28165144205477"><ele>887.75</ele><time>2026-04-12T13:04:19.947Z</time></trkpt><trkpt lat="46.40808020466941" lon="12.281794230020898"><ele>894.0</ele><time>2026-04-12T13:04:20.947Z</time></trkpt><trkpt lat="46.40796645664373" lon="12.281902759688316"><ele>880.5</ele><time>2026-04-12T13:04:21.947Z</time></trkpt><trkpt lat="46.407843503930366" lon="12.281999901041178"><ele>867.0</ele><time>2026-04-12T13:04:22.947Z</time></trkpt><trkpt lat="46.40771204327962" lon="12.282070288608471"><ele>853.5</ele><time>2026-04-12T13:04:23.947Z</time></trkpt><trkpt lat="46.407575681638995" lon="12.282139790018718"><ele>840.0</ele><time>2026-04-12T13:04:24.947Z</time></trkpt><trkpt lat="46.40746579831341" lon="12.282223006583221"><ele>835.75</ele><time>2026-04-12T13:04:25.947Z</time></trkpt><trkpt lat="46.40735834875636" lon="12.282325284437729"><ele>831.5</ele><time>2026-04-12T13:04:26.947Z</time></trkpt><trkpt lat="46.407257731209825" lon="12.282436599584644"><ele>827.25</ele><time>2026-04-12T13:04:27.947Z</time></trkpt><trkpt lat="46.40717314601564" lon="12.282562957698296"><ele>823.0</ele><time>2026-04-12T13:04:28.947Z</time></trkpt><trkpt lat="46.40709711359897" lon="12.282714204104943"><ele>823.0</ele><time>2026-04-12T13:04:29.947Z</time></trkpt><trkpt lat="46.407053197052555" lon="12.28290054798953"><ele>823.0</ele><time>2026-04-12T13:04:30.947Z</time></trkpt><trkpt lat="46.40703594455521" lon="12.283116765179015"><ele>823.0</ele><time>2026-04-12T13:04:31.947Z</time></trkpt><trkpt lat="46.40701592220899" lon="12.283365053463767"><ele>830.6666666666666</ele><time>2026-04-12T13:04:32.947Z</time></trkpt><trkpt lat="46.40695530082282" lon="12.28360729731026"><ele>838.3333333333333</ele><time>2026-04-12T13:04:33.947Z</time></trkpt><trkpt lat="46.40686524750265" lon="12.283825729310443"><ele>846.0</ele><time>2026-04-12T13:04:34.947Z</time></trkpt><trkpt lat="46.4067734522727" lon="12.284006078641568"><ele>849.75</ele><time>2026-04-12T13:04:35.947Z</time></trkpt><trkpt lat="46.40669786335621" lon="12.284185185425223"><ele>853.5</ele><time>2026-04-12T13:04:36.947Z</time></trkpt><trkpt lat="46.406653385363384" lon="12.284379647294585"><ele>857.25</ele><time>2026-04-12T13:04:37.947Z</time></trkpt><trkpt lat="46.40663908544131" lon="12.28460571543567"><ele>861.0</ele><time>2026-04-12T13:04:38.947Z</time></trkpt><trkpt lat="46.406638123473876" lon="12.284842810888827"><ele>861.0</ele><time>2026-04-12T13:04:39.947Z</time></trkpt><trkpt lat="46.40665779156821" lon="12.285116989649213"><ele>861.0</ele><time>2026-04-12T13:04:40.947Z</time></trkpt><trkpt lat="46.40667919591152" lon="12.285368651929835"><ele>861.0</ele><time>2026-04-12T13:04:41.947Z</time></trkpt><trkpt lat="46.406700880153466" lon="12.285602066808428"><ele>861.0</ele><time>2026-04-12T13:04:42.947Z</time></trkpt><trkpt lat="46.40671444189944" lon="12.285819682721474"><ele>861.0</ele><time>2026-04-12T13:04:43.947Z</time></trkpt><trkpt lat="46.40672262846855" lon="12.28602971380613"><ele>861.0</ele><time>2026-04-12T13:04:44.947Z</time></trkpt><trkpt lat="46.406733633889694" lon="12.286235503934146"><ele>861.0</ele><time>2026-04-12T13:04:45.947Z</time></trkpt><trkpt lat="46.4067418297559" lon="12.28643442319086"><ele>861.5</ele><time>2026-04-12T13:04:46.947Z</time></trkpt><trkpt lat="46.40675574456191" lon="12.28662356094086"><ele>862.0</ele><time>2026-04-12T13:04:47.947Z</time></trkpt><trkpt lat="46.406770508794494" lon="12.286813221864794"><ele>862.5</ele><time>2026-04-12T13:04:48.947Z</time></trkpt><trkpt lat="46.40678659951697" lon="12.286998694567941"><ele>863.0</ele><time>2026-04-12T13:04:49.947Z</time></trkpt><trkpt lat="46.40678224376567" lon="12.287200550724219"><ele>862.75</ele><time>2026-04-12T13:04:50.947Z</time></trkpt><trkpt lat="46.406792961261495" lon="12.287398501155485"><ele>862.5</ele><time>2026-04-12T13:04:51.947Z</time></trkpt><trkpt lat="46.40680976163846" lon="12.287591028209935"><ele>862.25</ele><time>2026-04-12T13:04:52.947Z</time></trkpt><trkpt lat="46.40684921506558" lon="12.287769925219722"><ele>862.0</ele><time>2026-04-12T13:04:53.947Z</time></trkpt><trkpt lat="46.40688773213539" lon="12.287956529276464"><ele>858.6666666666666</ele><time>2026-04-12T13:04:54.947Z</time></trkpt><trkpt lat="46.40691695805003" lon="12.28815912587616"><ele>855.3333333333333</ele><time>2026-04-12T13:04:55.947Z</time></trkpt><trkpt lat="46.406959335194365" lon="12.288367192259352"><ele>852.0</ele><time>2026-04-12T13:04:56.947Z</time></trkpt><trkpt lat="46.40700707760046" lon="12.28860503776187"><ele>852.0</ele><time>2026-04-12T13:04:57.947Z</time></trkpt><trkpt lat="46.40703412615255" lon="12.28874245044987"><ele>852.0</ele><time>2026-04-12T13:04:58.947Z</time></trkpt><trkpt lat="46.40708207801619" lon="12.288913190406554"><ele>852.0</ele><time>2026-04-12T13:04:59.947Z</time></trkpt><trkpt lat="46.40710744137607" lon="12.289115322747659"><ele>852.0</ele><time>2026-04-12T13:05:00.947Z</time></trkpt><trkpt lat="46.4071599530411" lon="12.289298066107909"><ele>858.0</ele><time>2026-04-12T13:05:01.947Z</time></trkpt><trkpt lat="46.40719871500082" lon="12.289486570292157"><ele>864.0</ele><time>2026-04-12T13:05:02.947Z</time></trkpt><trkpt lat="46.40722946091767" lon="12.289652943138437"><ele>870.0</ele><time>2026-04-12T13:05:03.947Z</time></trkpt><trkpt lat="46.40726190957711" lon="12.289801253057467"><ele>876.0</ele><time>2026-04-12T13:05:04.947Z</time></trkpt><trkpt lat="46.407299209107904" lon="12.28991934648931"><ele>876.0</ele><time>2026-04-12T13:05:05.947Z</time></trkpt><trkpt lat="46.40731548356421" lon="12.290023247683695"><ele>876.0</ele><time>2026-04-12T13:05:06.947Z</time></trkpt><trkpt lat="46.40734986499341" lon="12.29010991552396"><ele>876.0</ele><time>2026-04-12T13:05:08.947Z</time></trkpt><trkpt lat="46.407240153385345" lon="12.290142876695066"><ele>876.0</ele><time>2026-04-12T13:05:10.947Z</time></trkpt><trkpt lat="46.407181154439314" lon="12.290048626329494"><ele>876.0</ele><time>2026-04-12T13:05:11.947Z</time></trkpt><trkpt lat="46.4072009301513" lon="12.289933147775148"><ele>876.0</ele><time>2026-04-12T13:05:12.947Z</time></trkpt><trkpt lat="46.40720624582667" lon="12.289732256877464"><ele>877.5</ele><time>2026-04-12T13:05:14.947Z</time></trkpt><trkpt lat="46.407179554275345" lon="12.289612567519914"><ele>879.0</ele><time>2026-04-12T13:05:15.947Z</time></trkpt><trkpt lat="46.407154971941544" lon="12.289499595137173"><ele>880.5</ele><time>2026-04-12T13:05:16.947Z</time></trkpt><trkpt lat="46.407129245071815" lon="12.289388872581203"><ele>882.0</ele><time>2026-04-12T13:05:17.947Z</time></trkpt><trkpt lat="46.40710276104404" lon="12.28928068984787"><ele>883.5</ele><time>2026-04-12T13:05:18.947Z</time></trkpt><trkpt lat="46.407074788147995" lon="12.28917200021904"><ele>885.0</ele><time>2026-04-12T13:05:19.947Z</time></trkpt><trkpt lat="46.40705044325811" lon="12.289078315384087"><ele>879.5</ele><time>2026-04-12T13:05:20.947Z</time></trkpt><trkpt lat="46.40701848388645" lon="12.288957450733305"><ele>874.0</ele><time>2026-04-12T13:05:22.947Z</time></trkpt><trkpt lat="46.4069745847222" lon="12.288797936065555"><ele>868.5</ele><time>2026-04-12T13:05:29.947Z</time></trkpt><trkpt lat="46.40694369318528" lon="12.288691892778587"><ele>863.0</ele><time>2026-04-12T13:05:30.947Z</time></trkpt><trkpt lat="46.40691145529828" lon="12.2885889722832"><ele>857.5</ele><time>2026-04-12T13:05:31.947Z</time></trkpt><trkpt lat="46.40687486546848" lon="12.288493005095297"><ele>852.0</ele><time>2026-04-12T13:05:32.947Z</time></trkpt><trkpt lat="46.40683001698142" lon="12.288404489144176"><ele>852.0</ele><time>2026-04-12T13:05:33.947Z</time></trkpt><trkpt lat="46.406767986966514" lon="12.28834171295422"><ele>852.0</ele><time>2026-04-12T13:05:34.947Z</time></trkpt><trkpt lat="46.40672406752154" lon="12.288254227659213"><ele>852.0</ele><time>2026-04-12T13:05:35.947Z</time></trkpt><trkpt lat="46.406698380779325" lon="12.2881571961345"><ele>852.0</ele><time>2026-04-12T13:05:36.947Z</time></trkpt><trkpt lat="46.40666284438513" lon="12.288028305897816"><ele>852.0</ele><time>2026-04-12T13:05:37.947Z</time></trkpt><trkpt lat="46.4066481898477" lon="12.287887870883747"><ele>852.0</ele><time>2026-04-12T13:05:38.947Z</time></trkpt><trkpt lat="46.40660929288536" lon="12.287768314336743"><ele>854.5</ele><time>2026-04-12T13:05:39.947Z</time></trkpt><trkpt lat="46.406586119002576" lon="12.287622428564168"><ele>857.0</ele><time>2026-04-12T13:05:40.947Z</time></trkpt><trkpt lat="46.40655283163067" lon="12.287455756235474"><ele>859.5</ele><time>2026-04-12T13:05:41.947Z</time></trkpt><trkpt lat="46.40651318555392" lon="12.287284400434796"><ele>862.0</ele><time>2026-04-12T13:05:42.947Z</time></trkpt><trkpt lat="46.406470283748355" lon="12.28710411272926"><ele>862.25</ele><time>2026-04-12T13:05:43.947Z</time></trkpt><trkpt lat="46.40644599865712" lon="12.286910071280634"><ele>862.5</ele><time>2026-04-12T13:05:44.947Z</time></trkpt><trkpt lat="46.40642880748785" lon="12.286712073437828"><ele>862.75</ele><time>2026-04-12T13:05:45.947Z</time></trkpt><trkpt lat="46.40641266489322" lon="12.286533592700767"><ele>863.0</ele><time>2026-04-12T13:05:46.947Z</time></trkpt><trkpt lat="46.40639575268883" lon="12.28634612416949"><ele>862.5</ele><time>2026-04-12T13:05:47.947Z</time></trkpt><trkpt lat="46.40637907071533" lon="12.286159368440734"><ele>862.0</ele><time>2026-04-12T13:05:48.947Z</time></trkpt><trkpt lat="46.40636431013691" lon="12.286001416899474"><ele>861.5</ele><time>2026-04-12T13:05:49.947Z</time></trkpt><trkpt lat="46.406313347886986" lon="12.285824282996932"><ele>861.0</ele><time>2026-04-12T13:05:50.947Z</time></trkpt><trkpt lat="46.40623969746858" lon="12.285655444179465"><ele>851.4</ele><time>2026-04-12T13:05:51.947Z</time></trkpt><trkpt lat="46.406176777920585" lon="12.285513893456002"><ele>841.8</ele><time>2026-04-12T13:05:52.947Z</time></trkpt><trkpt lat="46.4061217212166" lon="12.285375095820164"><ele>832.1999999999999</ele><time>2026-04-12T13:05:53.947Z</time></trkpt><trkpt lat="46.40608732324066" lon="12.285263405646013"><ele>822.5999999999999</ele><time>2026-04-12T13:05:54.947Z</time></trkpt><trkpt lat="46.406054952526205" lon="12.285125039849035"><ele>813.0</ele><time>2026-04-12T13:05:55.947Z</time></trkpt><trkpt lat="46.40604292018558" lon="12.284973391970842"><ele>813.0</ele><time>2026-04-12T13:05:56.947Z</time></trkpt><trkpt lat="46.40605494338067" lon="12.284788476895795"><ele>813.0</ele><time>2026-04-12T13:05:57.947Z</time></trkpt><trkpt lat="46.406057608393525" lon="12.284619874233456"><ele>813.0</ele><time>2026-04-12T13:05:58.947Z</time></trkpt><trkpt lat="46.40606967260034" lon="12.284421433152458"><ele>813.0</ele><time>2026-04-12T13:05:59.947Z</time></trkpt><trkpt lat="46.40609513992104" lon="12.284214061377556"><ele>809.5</ele><time>2026-04-12T13:06:00.947Z</time></trkpt><trkpt lat="46.406126679648054" lon="12.284033585882735"><ele>806.0</ele><time>2026-04-12T13:06:01.947Z</time></trkpt><trkpt lat="46.40616302486914" lon="12.283830167930285"><ele>802.5</ele><time>2026-04-12T13:06:02.947Z</time></trkpt><trkpt lat="46.406192151851435" lon="12.283651031677241"><ele>799.0</ele><time>2026-04-12T13:06:03.947Z</time></trkpt><trkpt lat="46.40622539438031" lon="12.28344919468468"><ele>796.8000000000001</ele><time>2026-04-12T13:06:04.947Z</time></trkpt><trkpt lat="46.4062544813805" lon="12.283332288204978"><ele>794.6</ele><time>2026-04-12T13:06:05.947Z</time></trkpt><trkpt lat="46.406304068242456" lon="12.283214507625866"><ele>792.4</ele><time>2026-04-12T13:06:06.947Z</time></trkpt><trkpt lat="46.40638120589215" lon="12.28306366724859"><ele>790.2</ele><time>2026-04-12T13:06:07.947Z</time></trkpt><trkpt lat="46.40642649529021" lon="12.282889669644293"><ele>788.0</ele><time>2026-04-12T13:06:08.947Z</time></trkpt><trkpt lat="46.40645501980779" lon="12.282706568665938"><ele>786.5999999999999</ele><time>2026-04-12T13:06:09.947Z</time></trkpt><trkpt lat="46.40647716967649" lon="12.282529066625486"><ele>785.1999999999999</ele><time>2026-04-12T13:06:10.947Z</time></trkpt><trkpt lat="46.40649636968541" lon="12.282377803514503"><ele>783.8</ele><time>2026-04-12T13:06:11.947Z</time></trkpt><trkpt lat="46.40651717553622" lon="12.2822362514637"><ele>782.4</ele><time>2026-04-12T13:06:12.947Z</time></trkpt><trkpt lat="46.40654149411174" lon="12.28212872483377"><ele>781.0</ele><time>2026-04-12T13:06:13.947Z</time></trkpt><trkpt lat="46.4065664106825" lon="12.282010543187116"><ele>781.0</ele><time>2026-04-12T13:06:14.947Z</time></trkpt><trkpt lat="46.40664612557314" lon="12.28195122846675"><ele>781.0</ele><time>2026-04-12T13:06:15.947Z</time></trkpt><trkpt lat="46.4067321836666" lon="12.281897906990443"><ele>781.0</ele><time>2026-04-12T13:06:16.947Z</time></trkpt><trkpt lat="46.40683919410515" lon="12.281836347114803"><ele>781.0</ele><time>2026-04-12T13:06:17.947Z</time></trkpt><trkpt lat="46.40694852528434" lon="12.281796444819273"><ele>781.0</ele><time>2026-04-12T13:06:18.947Z</time></trkpt><trkpt lat="46.40706040886591" lon="12.281743906302708"><ele>781.0</ele><time>2026-04-12T13:06:19.947Z</time></trkpt><trkpt lat="46.40713679021803" lon="12.281647730929333"><ele>781.0</ele><time>2026-04-12T13:06:20.947Z</time></trkpt><trkpt lat="46.40720347190971" lon="12.281525484304614"><ele>781.0</ele><time>2026-04-12T13:06:21.947Z</time></trkpt><trkpt lat="46.40724185024764" lon="12.281380012816246"><ele>781.0</ele><time>2026-04-12T13:06:22.947Z</time></trkpt><trkpt lat="46.407291497444774" lon="12.281254736375956"><ele>781.0</ele><time>2026-04-12T13:06:23.947Z</time></trkpt><trkpt lat="46.40734429718686" lon="12.281102083178393"><ele>785.5999999999999</ele><time>2026-04-12T13:06:24.947Z</time></trkpt><trkpt lat="46.40739576426317" lon="12.280980837872365"><ele>790.2</ele><time>2026-04-12T13:06:25.947Z</time></trkpt><trkpt lat="46.40740396344564" lon="12.28082989860215"><ele>794.8</ele><time>2026-04-12T13:06:26.947Z</time></trkpt><trkpt lat="46.407397910394046" lon="12.28067381074446"><ele>799.4000000000001</ele><time>2026-04-12T13:06:27.947Z</time></trkpt><trkpt lat="46.40734225518614" lon="12.280511192042487"><ele>804.0</ele><time>2026-04-12T13:06:28.947Z</time></trkpt><trkpt lat="46.407354335113226" lon="12.280420167006458"><ele>804.0</ele><time>2026-04-12T13:06:29.947Z</time></trkpt><trkpt lat="46.4073629700509" lon="12.280293004630325"><ele>804.0</ele><time>2026-04-12T13:06:30.947Z</time></trkpt><trkpt lat="46.40739308957139" lon="12.28008631242616"><ele>804.0</ele><time>2026-04-12T13:06:31.947Z</time></trkpt><trkpt lat="46.407430647860565" lon="12.279872100697864"><ele>804.0</ele><time>2026-04-12T13:06:32.947Z</time></trkpt><trkpt lat="46.4074614105986" lon="12.27967157775221"><ele>800.8000000000001</ele><time>2026-04-12T13:06:33.947Z</time></trkpt><trkpt lat="46.407488074687784" lon="12.279483111668855"><ele>797.6</ele><time>2026-04-12T13:06:34.947Z</time></trkpt><trkpt lat="46.40750818602338" lon="12.279325660213292"><ele>794.4</ele><time>2026-04-12T13:06:35.947Z</time></trkpt><trkpt lat="46.40751990611078" lon="12.279188990187102"><ele>791.2</ele><time>2026-04-12T13:06:36.947Z</time></trkpt><trkpt lat="46.407542248343326" lon="12.27906389843331"><ele>788.0</ele><time>2026-04-12T13:06:37.947Z</time></trkpt><trkpt lat="46.4075015248094" lon="12.278934088817323"><ele>787.4</ele><time>2026-04-12T13:06:38.947Z</time></trkpt><trkpt lat="46.407397673118595" lon="12.27881883827744"><ele>786.8</ele><time>2026-04-12T13:06:39.947Z</time></trkpt><trkpt lat="46.407306397386755" lon="12.278690598879814"><ele>786.2</ele><time>2026-04-12T13:06:40.947Z</time></trkpt><trkpt lat="46.407235505904595" lon="12.278601129028026"><ele>785.6</ele><time>2026-04-12T13:06:41.947Z</time></trkpt><trkpt lat="46.40716918875131" lon="12.278555206406681"><ele>785.0</ele><time>2026-04-12T13:06:42.947Z</time></trkpt><trkpt lat="46.40710225900348" lon="12.278547328928408"><ele>789.5</ele><time>2026-04-12T13:06:43.947Z</time></trkpt><trkpt lat="46.40703619688653" lon="12.278607714969171"><ele>794.0</ele><time>2026-04-12T13:06:44.947Z</time></trkpt><trkpt lat="46.40697720308267" lon="12.27871963159416"><ele>798.5</ele><time>2026-04-12T13:06:45.947Z</time></trkpt><trkpt lat="46.40692790525456" lon="12.278895126874739"><ele>803.0</ele><time>2026-04-12T13:06:46.947Z</time></trkpt><trkpt lat="46.40687556059169" lon="12.2790899484245"><ele>803.0</ele><time>2026-04-12T13:06:47.947Z</time></trkpt><trkpt lat="46.406755418691944" lon="12.279235009917935"><ele>803.0</ele><time>2026-04-12T13:06:48.947Z</time></trkpt><trkpt lat="46.406623869020684" lon="12.279413977181283"><ele>803.0</ele><time>2026-04-12T13:06:49.947Z</time></trkpt><trkpt lat="46.40651507597333" lon="12.279583134576855"><ele>803.0</ele><time>2026-04-12T13:06:50.947Z</time></trkpt><trkpt lat="46.40642494701099" lon="12.279695452667003"><ele>803.0</ele><time>2026-04-12T13:06:51.947Z</time></trkpt><trkpt lat="46.40637067091565" lon="12.279794186926392"><ele>803.0</ele><time>2026-04-12T13:06:52.947Z</time></trkpt><trkpt lat="46.40626636814402" lon="12.279926043629144"><ele>803.0</ele><time>2026-04-12T13:06:54.947Z</time></trkpt><trkpt lat="46.40620031291927" lon="12.279930808873182"><ele>803.0</ele><time>2026-04-12T13:06:55.947Z</time></trkpt><trkpt lat="46.406111819064186" lon="12.279867826653541"><ele>806.2</ele><time>2026-04-12T13:06:56.947Z</time></trkpt><trkpt lat="46.4060763518952" lon="12.279716287867075"><ele>809.4</ele><time>2026-04-12T13:06:57.947Z</time></trkpt><trkpt lat="46.406026363667756" lon="12.279559278071691"><ele>812.6</ele><time>2026-04-12T13:06:58.947Z</time></trkpt><trkpt lat="46.40597488697627" lon="12.279414419217906"><ele>815.8000000000001</ele><time>2026-04-12T13:06:59.947Z</time></trkpt><trkpt lat="46.4059183061996" lon="12.279334216526035"><ele>819.0</ele><time>2026-04-12T13:07:00.947Z</time></trkpt><trkpt lat="46.40574190485657" lon="12.279231660873462"><ele>819.0</ele><time>2026-04-12T13:07:02.947Z</time></trkpt><trkpt lat="46.40565408664676" lon="12.279255957154747"><ele>819.0</ele><time>2026-04-12T13:07:03.947Z</time></trkpt><trkpt lat="46.40557719192224" lon="12.279404764809717"><ele>819.0</ele><time>2026-04-12T13:07:04.947Z</time></trkpt><trkpt lat="46.405492495226525" lon="12.279575819926668"><ele>819.0</ele><time>2026-04-12T13:07:05.947Z</time></trkpt><trkpt lat="46.40539041404421" lon="12.279735374147931"><ele>820.75</ele><time>2026-04-12T13:07:06.947Z</time></trkpt><trkpt lat="46.40526926499061" lon="12.279904537696895"><ele>822.5</ele><time>2026-04-12T13:07:07.947Z</time></trkpt><trkpt lat="46.40517901378408" lon="12.280063190617309"><ele>824.25</ele><time>2026-04-12T13:07:08.947Z</time></trkpt><trkpt lat="46.405087493574115" lon="12.280168193742817"><ele>826.0</ele><time>2026-04-12T13:07:09.947Z</time></trkpt><trkpt lat="46.405020733679045" lon="12.280277138187657"><ele>826.0</ele><time>2026-04-12T13:07:10.947Z</time></trkpt><trkpt lat="46.404921465102994" lon="12.280368180985764"><ele>826.0</ele><time>2026-04-12T13:07:11.947Z</time></trkpt><trkpt lat="46.404794372044314" lon="12.280462585363392"><ele>826.0</ele><time>2026-04-12T13:07:12.947Z</time></trkpt><trkpt lat="46.404628980346665" lon="12.280571878998089"><ele>826.0</ele><time>2026-04-12T13:07:13.947Z</time></trkpt><trkpt lat="46.40449521912447" lon="12.280673119852754"><ele>832.0</ele><time>2026-04-12T13:07:14.947Z</time></trkpt><trkpt lat="46.40438400802705" lon="12.280773714350499"><ele>838.0</ele><time>2026-04-12T13:07:15.947Z</time></trkpt><trkpt lat="46.40429033490498" lon="12.28088247036177"><ele>844.0</ele><time>2026-04-12T13:07:16.947Z</time></trkpt><trkpt lat="46.404215076865626" lon="12.281016941579823"><ele>850.0</ele><time>2026-04-12T13:07:17.947Z</time></trkpt><trkpt lat="46.40412452203979" lon="12.281185595887138"><ele>850.0</ele><time>2026-04-12T13:07:18.947Z</time></trkpt><trkpt lat="46.40404112084191" lon="12.281388087888697"><ele>850.0</ele><time>2026-04-12T13:07:19.947Z</time></trkpt><trkpt lat="46.403957176015886" lon="12.281591804742709"><ele>850.0</ele><time>2026-04-12T13:07:20.947Z</time></trkpt><trkpt lat="46.40387949385052" lon="12.28177848726728"><ele>846.4</ele><time>2026-04-12T13:07:21.947Z</time></trkpt><trkpt lat="46.403831136821516" lon="12.281942664091178"><ele>842.8</ele><time>2026-04-12T13:07:22.947Z</time></trkpt><trkpt lat="46.40377725338052" lon="12.282049859879113"><ele>839.2</ele><time>2026-04-12T13:07:23.947Z</time></trkpt><trkpt lat="46.4037491783781" lon="12.28213659186744"><ele>835.6</ele><time>2026-04-12T13:07:24.947Z</time></trkpt><trkpt lat="46.403765436819256" lon="12.282261761855404"><ele>832.0</ele><time>2026-04-12T13:07:25.947Z</time></trkpt><trkpt lat="46.4038406804232" lon="12.282390114548965"><ele>831.5</ele><time>2026-04-12T13:07:26.947Z</time></trkpt><trkpt lat="46.40397414236202" lon="12.282448449028383"><ele>831.0</ele><time>2026-04-12T13:07:27.947Z</time></trkpt><trkpt lat="46.404046263192775" lon="12.282544174518973"><ele>830.5</ele><time>2026-04-12T13:07:28.947Z</time></trkpt><trkpt lat="46.40406759372136" lon="12.2827373861354"><ele>830.0</ele><time>2026-04-12T13:07:29.947Z</time></trkpt><trkpt lat="46.40408138735361" lon="12.28288054885614"><ele>830.0</ele><time>2026-04-12T13:07:30.947Z</time></trkpt><trkpt lat="46.404099170462175" lon="12.283074665364575"><ele>830.0</ele><time>2026-04-12T13:07:31.947Z</time></trkpt><trkpt lat="46.404111807858826" lon="12.283216819909272"><ele>830.0</ele><time>2026-04-12T13:07:32.947Z</time></trkpt><trkpt lat="46.404054209088166" lon="12.283418293457567"><ele>830.0</ele><time>2026-04-12T13:07:33.947Z</time></trkpt><trkpt lat="46.40399359749009" lon="12.283620148432785"><ele>831.0</ele><time>2026-04-12T13:07:34.947Z</time></trkpt><trkpt lat="46.4039307887939" lon="12.283838887597259"><ele>832.0</ele><time>2026-04-12T13:07:35.947Z</time></trkpt><trkpt lat="46.40386815482896" lon="12.28408660074875"><ele>833.0</ele><time>2026-04-12T13:07:36.947Z</time></trkpt><trkpt lat="46.40379615401937" lon="12.284336356996366"><ele>847.75</ele><time>2026-04-12T13:07:37.947Z</time></trkpt><trkpt lat="46.40373455490635" lon="12.28455895357719"><ele>862.5</ele><time>2026-04-12T13:07:38.947Z</time></trkpt><trkpt lat="46.40366637235952" lon="12.284755201357513"><ele>877.25</ele><time>2026-04-12T13:07:39.947Z</time></trkpt><trkpt lat="46.403618087718826" lon="12.284932260308613"><ele>892.0</ele><time>2026-04-12T13:07:40.947Z</time></trkpt><trkpt lat="46.40359656068195" lon="12.285111145424363"><ele>894.3333333333333</ele><time>2026-04-12T13:07:41.947Z</time></trkpt><trkpt lat="46.40361124451713" lon="12.285317012590031"><ele>896.6666666666667</ele><time>2026-04-12T13:07:42.947Z</time></trkpt><trkpt lat="46.403646294377346" lon="12.28553013994275"><ele>899.0</ele><time>2026-04-12T13:07:43.947Z</time></trkpt><trkpt lat="46.40370181539099" lon="12.285763944274505"><ele>899.75</ele><time>2026-04-12T13:07:44.947Z</time></trkpt><trkpt lat="46.403720871585676" lon="12.28598026925892"><ele>900.5</ele><time>2026-04-12T13:07:45.947Z</time></trkpt><trkpt lat="46.403737841323945" lon="12.286169965961868"><ele>901.25</ele><time>2026-04-12T13:07:46.947Z</time></trkpt><trkpt lat="46.40375020577062" lon="12.286372513547457"><ele>902.0</ele><time>2026-04-12T13:07:47.947Z</time></trkpt><trkpt lat="46.403711172463524" lon="12.286586674445925"><ele>902.5</ele><time>2026-04-12T13:07:48.947Z</time></trkpt><trkpt lat="46.40369869633418" lon="12.286820832616923"><ele>903.0</ele><time>2026-04-12T13:07:49.947Z</time></trkpt><trkpt lat="46.40367120662769" lon="12.287033268138364"><ele>903.5</ele><time>2026-04-12T13:07:50.947Z</time></trkpt><trkpt lat="46.40366048373402" lon="12.28721432113848"><ele>904.0</ele><time>2026-04-12T13:07:51.947Z</time></trkpt><trkpt lat="46.403645488638254" lon="12.287367344530617"><ele>902.5</ele><time>2026-04-12T13:07:52.947Z</time></trkpt><trkpt lat="46.40360801726265" lon="12.287537232610145"><ele>901.0</ele><time>2026-04-12T13:07:53.947Z</time></trkpt><trkpt lat="46.40353855592602" lon="12.287701798507097"><ele>899.5</ele><time>2026-04-12T13:07:54.947Z</time></trkpt><trkpt lat="46.40346415731725" lon="12.287896404856113"><ele>898.0</ele><time>2026-04-12T13:07:55.947Z</time></trkpt><trkpt lat="46.403389706344896" lon="12.288084642375468"><ele>895.6666666666666</ele><time>2026-04-12T13:07:56.947Z</time></trkpt><trkpt lat="46.40330538536931" lon="12.28829387868499"><ele>893.3333333333333</ele><time>2026-04-12T13:07:57.947Z</time></trkpt><trkpt lat="46.40322825556318" lon="12.28848917069834"><ele>891.0</ele><time>2026-04-12T13:07:58.947Z</time></trkpt><trkpt lat="46.40317666024303" lon="12.28867558952319"><ele>891.0</ele><time>2026-04-12T13:07:59.947Z</time></trkpt><trkpt lat="46.40312624333516" lon="12.288830170451114"><ele>891.0</ele><time>2026-04-12T13:08:00.947Z</time></trkpt><trkpt lat="46.40307973335221" lon="12.289005006164242"><ele>891.0</ele><time>2026-04-12T13:08:01.947Z</time></trkpt><trkpt lat="46.40307754159477" lon="12.289219326752017"><ele>891.0</ele><time>2026-04-12T13:08:02.947Z</time></trkpt><trkpt lat="46.40307925953381" lon="12.289445431598242"><ele>889.5999999999999</ele><time>2026-04-12T13:08:03.947Z</time></trkpt><trkpt lat="46.403075907687445" lon="12.2896443170727"><ele>888.1999999999999</ele><time>2026-04-12T13:08:04.947Z</time></trkpt><trkpt lat="46.403063604920206" lon="12.289802316630473"><ele>886.8000000000001</ele><time>2026-04-12T13:08:05.947Z</time></trkpt><trkpt lat="46.4030367862694" lon="12.289943895361922"><ele>885.4000000000001</ele><time>2026-04-12T13:08:06.947Z</time></trkpt><trkpt lat="46.4029861326704" lon="12.290031837591908"><ele>884.0</ele><time>2026-04-12T13:08:07.948Z</time></trkpt><trkpt lat="46.40293212172225" lon="12.290110398244229"><ele>888.0</ele><time>2026-04-12T13:08:08.948Z</time></trkpt><trkpt lat="46.40283705988354" lon="12.290098394477692"><ele>892.0000000000001</ele><time>2026-04-12T13:08:09.948Z</time></trkpt><trkpt lat="46.40272862821092" lon="12.29014328574434"><ele>896.0000000000001</ele><time>2026-04-12T13:08:10.948Z</time></trkpt><trkpt lat="46.40262382855727" lon="12.290180280050398"><ele>900.0</ele><time>2026-04-12T13:08:11.948Z</time></trkpt><trkpt lat="46.402520506938075" lon="12.29020808526802"><ele>904.0</ele><time>2026-04-12T13:08:12.948Z</time></trkpt><trkpt lat="46.402392362482395" lon="12.29013241637765"><ele>904.0</ele><time>2026-04-12T13:08:13.948Z</time></trkpt><trkpt lat="46.402268287050696" lon="12.29007444193853"><ele>904.0</ele><time>2026-04-12T13:08:14.948Z</time></trkpt><trkpt lat="46.40215473149909" lon="12.290036536977613"><ele>904.0</ele><time>2026-04-12T13:08:15.948Z</time></trkpt><trkpt lat="46.40203976462895" lon="12.289953336887265"><ele>904.0</ele><time>2026-04-12T13:08:16.948Z</time></trkpt><trkpt lat="46.40187450717172" lon="12.289874241109548"><ele>903.5</ele><time>2026-04-12T13:08:17.948Z</time></trkpt><trkpt lat="46.401720202407525" lon="12.289813752687257"><ele>903.0</ele><time>2026-04-12T13:08:18.948Z</time></trkpt><trkpt lat="46.40159096847856" lon="12.289757068630845"><ele>902.5</ele><time>2026-04-12T13:08:19.948Z</time></trkpt><trkpt lat="46.40147745237539" lon="12.289682813792863"><ele>902.0</ele><time>2026-04-12T13:08:20.948Z</time></trkpt><trkpt lat="46.40136589386066" lon="12.289619972942353"><ele>905.5</ele><time>2026-04-12T13:08:21.948Z</time></trkpt><trkpt lat="46.401243347564424" lon="12.289566611034854"><ele>909.0</ele><time>2026-04-12T13:08:22.948Z</time></trkpt><trkpt lat="46.401132005426284" lon="12.28944107971896"><ele>912.5</ele><time>2026-04-12T13:08:23.948Z</time></trkpt><trkpt lat="46.401011783049526" lon="12.289328865138904"><ele>916.0</ele><time>2026-04-12T13:08:24.948Z</time></trkpt><trkpt lat="46.400875563617" lon="12.289250802010674"><ele>916.0</ele><time>2026-04-12T13:08:25.948Z</time></trkpt><trkpt lat="46.40077641188192" lon="12.289130394534242"><ele>916.0</ele><time>2026-04-12T13:08:26.948Z</time></trkpt><trkpt lat="46.40067668591028" lon="12.288995984112884"><ele>916.0</ele><time>2026-04-12T13:08:27.948Z</time></trkpt><trkpt lat="46.400565709959835" lon="12.288832745299775"><ele>916.0</ele><time>2026-04-12T13:08:28.948Z</time></trkpt><trkpt lat="46.40044082218877" lon="12.288661774870555"><ele>919.3333333333333</ele><time>2026-04-12T13:08:29.948Z</time></trkpt><trkpt lat="46.40030847476599" lon="12.288491244255873"><ele>922.6666666666667</ele><time>2026-04-12T13:08:30.948Z</time></trkpt><trkpt lat="46.400182020029746" lon="12.288316755205848"><ele>926.0</ele><time>2026-04-12T13:08:31.948Z</time></trkpt><trkpt lat="46.40008045994767" lon="12.288198641959623"><ele>935.25</ele><time>2026-04-12T13:08:32.948Z</time></trkpt><trkpt lat="46.400000949518706" lon="12.288073554030717"><ele>944.5</ele><time>2026-04-12T13:08:33.948Z</time></trkpt><trkpt lat="46.399888002017796" lon="12.28799239670459"><ele>953.75</ele><time>2026-04-12T13:08:34.948Z</time></trkpt><trkpt lat="46.39976357710026" lon="12.287904355801405"><ele>963.0</ele><time>2026-04-12T13:08:35.948Z</time></trkpt><trkpt lat="46.399628266721756" lon="12.287813189215345"><ele>963.0</ele><time>2026-04-12T13:08:36.948Z</time></trkpt><trkpt lat="46.399492010320714" lon="12.287735993423254"><ele>963.0</ele><time>2026-04-12T13:08:37.948Z</time></trkpt><trkpt lat="46.39934958884435" lon="12.287693058935385"><ele>963.0</ele><time>2026-04-12T13:08:38.948Z</time></trkpt><trkpt lat="46.39920020905941" lon="12.287672372833846"><ele>963.0</ele><time>2026-04-12T13:08:39.948Z</time></trkpt><trkpt lat="46.399051192483725" lon="12.287662589265416"><ele>963.0</ele><time>2026-04-12T13:08:40.948Z</time></trkpt><trkpt lat="46.39894890814849" lon="12.287662856123372"><ele>963.0</ele><time>2026-04-12T13:08:41.948Z</time></trkpt><trkpt lat="46.398818831099916" lon="12.287685383590182"><ele>963.0</ele><time>2026-04-12T13:08:42.948Z</time></trkpt><trkpt lat="46.398720563294205" lon="12.287738140805622"><ele>963.0</ele><time>2026-04-12T13:08:43.948Z</time></trkpt><trkpt lat="46.39865664226903" lon="12.28779895816231"><ele>963.0</ele><time>2026-04-12T13:08:44.948Z</time></trkpt><trkpt lat="46.398615508856416" lon="12.287911430266858"><ele>962.5</ele><time>2026-04-12T13:08:45.948Z</time></trkpt><trkpt lat="46.3986562551194" lon="12.288091044301549"><ele>962.0</ele><time>2026-04-12T13:08:46.948Z</time></trkpt><trkpt lat="46.39869534325514" lon="12.288250057488339"><ele>961.5</ele><time>2026-04-12T13:08:47.948Z</time></trkpt><trkpt lat="46.398763139788755" lon="12.288416619816273"><ele>961.0</ele><time>2026-04-12T13:08:48.948Z</time></trkpt><trkpt lat="46.39886549681145" lon="12.28858797677726"><ele>955.5</ele><time>2026-04-12T13:08:49.948Z</time></trkpt><trkpt lat="46.398975558896" lon="12.288728293675426"><ele>950.0</ele><time>2026-04-12T13:08:50.948Z</time></trkpt><trkpt lat="46.39908425639589" lon="12.28882576389603"><ele>944.5</ele><time>2026-04-12T13:08:51.948Z</time></trkpt><trkpt lat="46.39916497778023" lon="12.288913900746012"><ele>939.0</ele><time>2026-04-12T13:08:52.948Z</time></trkpt><trkpt lat="46.39923197137921" lon="12.289036950243654"><ele>939.0</ele><time>2026-04-12T13:08:53.948Z</time></trkpt><trkpt lat="46.3992359226889" lon="12.289205521072697"><ele>939.0</ele><time>2026-04-12T13:08:54.948Z</time></trkpt><trkpt lat="46.39925087935052" lon="12.289385627488054"><ele>939.0</ele><time>2026-04-12T13:08:55.948Z</time></trkpt><trkpt lat="46.39927681965241" lon="12.289571354200692"><ele>939.0</ele><time>2026-04-12T13:08:56.948Z</time></trkpt><trkpt lat="46.399271523612036" lon="12.289717196574044"><ele>942.0</ele><time>2026-04-12T13:08:57.948Z</time></trkpt><trkpt lat="46.39926674744445" lon="12.289851894611136"><ele>945.0</ele><time>2026-04-12T13:08:58.948Z</time></trkpt><trkpt lat="46.399238475776535" lon="12.28999283510011"><ele>948.0</ele><time>2026-04-12T13:08:59.948Z</time></trkpt><trkpt lat="46.39919045382799" lon="12.290158224234316"><ele>951.0</ele><time>2026-04-12T13:09:00.948Z</time></trkpt><trkpt lat="46.39914844608768" lon="12.29034642442193"><ele>951.0</ele><time>2026-04-12T13:09:01.948Z</time></trkpt><trkpt lat="46.399127339563776" lon="12.290556884702298"><ele>951.0</ele><time>2026-04-12T13:09:02.948Z</time></trkpt><trkpt lat="46.39911326872229" lon="12.290717811550026"><ele>951.0</ele><time>2026-04-12T13:09:03.948Z</time></trkpt><trkpt lat="46.399081995201946" lon="12.290871378011945"><ele>951.0</ele><time>2026-04-12T13:09:04.948Z</time></trkpt><trkpt lat="46.39901289695435" lon="12.291027903066263"><ele>948.6666666666667</ele><time>2026-04-12T13:09:05.948Z</time></trkpt><trkpt lat="46.398931936074675" lon="12.291159357773624"><ele>946.3333333333334</ele><time>2026-04-12T13:09:06.948Z</time></trkpt><trkpt lat="46.39882439458593" lon="12.291336044178285"><ele>944.0</ele><time>2026-04-12T13:09:07.948Z</time></trkpt><trkpt lat="46.398721787232134" lon="12.291543385963049"><ele>948.25</ele><time>2026-04-12T13:09:08.948Z</time></trkpt><trkpt lat="46.39866589012032" lon="12.2917052136259"><ele>952.5</ele><time>2026-04-12T13:09:09.948Z</time></trkpt><trkpt lat="46.39862775049218" lon="12.291860501468756"><ele>956.75</ele><time>2026-04-12T13:09:10.948Z</time></trkpt><trkpt lat="46.398604617594266" lon="12.291993321103872"><ele>961.0</ele><time>2026-04-12T13:09:11.948Z</time></trkpt><trkpt lat="46.39859065352658" lon="12.292170863075295"><ele>951.5</ele><time>2026-04-12T13:09:12.948Z</time></trkpt><trkpt lat="46.39886024319777" lon="12.292354519762657"><ele>942.0</ele><time>2026-04-12T13:09:13.948Z</time></trkpt><trkpt lat="46.39885746898105" lon="12.292705396451579"><ele>952.0</ele><time>2026-04-12T13:09:14.948Z</time></trkpt><trkpt lat="46.39858403597207" lon="12.2930531975804"><ele>962.0</ele><time>2026-04-12T13:09:15.948Z</time></trkpt><trkpt lat="46.39859443606151" lon="12.29333228694192"><ele>962.0</ele><time>2026-04-12T13:09:16.948Z</time></trkpt><trkpt lat="46.398597153211156" lon="12.293576799509726"><ele>962.0</ele><time>2026-04-12T13:09:17.948Z</time></trkpt><trkpt lat="46.39858477669631" lon="12.29379474949195"><ele>962.0</ele><time>2026-04-12T13:09:18.948Z</time></trkpt><trkpt lat="46.39854961735971" lon="12.29400007226497"><ele>961.25</ele><time>2026-04-12T13:09:19.948Z</time></trkpt><trkpt lat="46.39851277692356" lon="12.294210822792104"><ele>960.5</ele><time>2026-04-12T13:09:20.948Z</time></trkpt><trkpt lat="46.3984718483414" lon="12.294422439879138"><ele>959.75</ele><time>2026-04-12T13:09:21.948Z</time></trkpt><trkpt lat="46.39844170926159" lon="12.29462241115563"><ele>959.0</ele><time>2026-04-12T13:09:22.948Z</time></trkpt><trkpt lat="46.39842658592447" lon="12.294840417359218"><ele>959.0</ele><time>2026-04-12T13:09:23.948Z</time></trkpt><trkpt lat="46.39843664840532" lon="12.295076831668723"><ele>959.0</ele><time>2026-04-12T13:09:24.948Z</time></trkpt><trkpt lat="46.39844890703479" lon="12.295307134629637"><ele>959.0</ele><time>2026-04-12T13:09:25.948Z</time></trkpt><trkpt lat="46.398459035112566" lon="12.295502155521664"><ele>959.0</ele><time>2026-04-12T13:09:26.948Z</time></trkpt><trkpt lat="46.398470913039134" lon="12.295669066761075"><ele>959.0000000000001</ele><time>2026-04-12T13:09:27.948Z</time></trkpt><trkpt lat="46.39846480895055" lon="12.295816225766012"><ele>959.0000000000001</ele><time>2026-04-12T13:09:28.948Z</time></trkpt><trkpt lat="46.39840637077939" lon="12.295934241100623"><ele>959.0</ele><time>2026-04-12T13:09:29.948Z</time></trkpt><trkpt lat="46.39832125711679" lon="12.295997984660533"><ele>959.0</ele><time>2026-04-12T13:09:30.948Z</time></trkpt><trkpt lat="46.39823444380184" lon="12.296091771779441"><ele>959.0</ele><time>2026-04-12T13:09:31.948Z</time></trkpt><trkpt lat="46.398128070626115" lon="12.296207932079499"><ele>959.0</ele><time>2026-04-12T13:09:32.948Z</time></trkpt><trkpt lat="46.39802323726131" lon="12.296341263155073"><ele>959.0</ele><time>2026-04-12T13:09:33.948Z</time></trkpt><trkpt lat="46.3979321089836" lon="12.296449345666009"><ele>959.0</ele><time>2026-04-12T13:09:34.948Z</time></trkpt><trkpt lat="46.397847567317534" lon="12.29653349694941"><ele>960.0</ele><time>2026-04-12T13:09:35.948Z</time></trkpt><trkpt lat="46.39776223561978" lon="12.29656837388175"><ele>961.0000000000001</ele><time>2026-04-12T13:09:36.948Z</time></trkpt><trkpt lat="46.397687806833694" lon="12.296545279123299"><ele>962.0000000000001</ele><time>2026-04-12T13:09:37.948Z</time></trkpt><trkpt lat="46.39760356958872" lon="12.296470360104323"><ele>963.0</ele><time>2026-04-12T13:09:38.948Z</time></trkpt><trkpt lat="46.39748909385185" lon="12.29638136860453"><ele>964.0</ele><time>2026-04-12T13:09:39.948Z</time></trkpt><trkpt lat="46.397381594737816" lon="12.296279225798774"><ele>966.2</ele><time>2026-04-12T13:09:40.948Z</time></trkpt><trkpt lat="46.39729831729694" lon="12.296160985240645"><ele>968.4000000000001</ele><time>2026-04-12T13:09:41.948Z</time></trkpt><trkpt lat="46.3972315724848" lon="12.296036430291455"><ele>970.6</ele><time>2026-04-12T13:09:42.948Z</time></trkpt><trkpt lat="46.39716179819106" lon="12.29593072229889"><ele>972.8</ele><time>2026-04-12T13:09:43.948Z</time></trkpt><trkpt lat="46.39709425264631" lon="12.295852173757604"><ele>975.0</ele><time>2026-04-12T13:09:44.948Z</time></trkpt><trkpt lat="46.39700322419533" lon="12.295827125339098"><ele>977.4</ele><time>2026-04-12T13:09:45.948Z</time></trkpt><trkpt lat="46.39690466872774" lon="12.295851118665915"><ele>979.8</ele><time>2026-04-12T13:09:46.948Z</time></trkpt><trkpt lat="46.39680908756269" lon="12.29589422549463"><ele>982.2</ele><time>2026-04-12T13:09:47.948Z</time></trkpt><trkpt lat="46.396744564310104" lon="12.29605188394051"><ele>984.6</ele><time>2026-04-12T13:09:48.948Z</time></trkpt><trkpt lat="46.39667248921189" lon="12.29617673112279"><ele>987.0</ele><time>2026-04-12T13:09:49.948Z</time></trkpt><trkpt lat="46.39655319288045" lon="12.296291288056587"><ele>987.0</ele><time>2026-04-12T13:09:50.948Z</time></trkpt><trkpt lat="46.39647163078762" lon="12.296340899453542"><ele>987.0</ele><time>2026-04-12T13:09:51.948Z</time></trkpt><trkpt lat="46.39635354034976" lon="12.296399279765913"><ele>987.0</ele><time>2026-04-12T13:09:52.948Z</time></trkpt><trkpt lat="46.39619981166835" lon="12.296487794889414"><ele>987.0</ele><time>2026-04-12T13:09:53.948Z</time></trkpt><trkpt lat="46.39608973165496" lon="12.296566871707546"><ele>987.2</ele><time>2026-04-12T13:09:54.948Z</time></trkpt><trkpt lat="46.39599802404337" lon="12.2966406896991"><ele>987.4000000000001</ele><time>2026-04-12T13:09:55.948Z</time></trkpt><trkpt lat="46.395913148112506" lon="12.29672198354259"><ele>987.5999999999999</ele><time>2026-04-12T13:09:56.948Z</time></trkpt><trkpt lat="46.39581732593924" lon="12.29679752814831"><ele>987.8</ele><time>2026-04-12T13:09:57.948Z</time></trkpt><trkpt lat="46.39573726245501" lon="12.296833307167244"><ele>988.0</ele><time>2026-04-12T13:09:58.948Z</time></trkpt><trkpt lat="46.39565598339934" lon="12.29683965922349"><ele>988.0</ele><time>2026-04-12T13:09:59.948Z</time></trkpt><trkpt lat="46.39556874602591" lon="12.296772097372672"><ele>988.0</ele><time>2026-04-12T13:10:00.948Z</time></trkpt><trkpt lat="46.39547112194499" lon="12.296710121056215"><ele>988.0</ele><time>2026-04-12T13:10:01.948Z</time></trkpt><trkpt lat="46.39539681058901" lon="12.2966288268186"><ele>988.0</ele><time>2026-04-12T13:10:02.948Z</time></trkpt><trkpt lat="46.395335313064614" lon="12.296572216152816"><ele>988.0</ele><time>2026-04-12T13:10:03.948Z</time></trkpt><trkpt lat="46.395317923054684" lon="12.296452937410276"><ele>987.4</ele><time>2026-04-12T13:10:04.948Z</time></trkpt><trkpt lat="46.39533355759934" lon="12.296334988938717"><ele>986.8</ele><time>2026-04-12T13:10:05.948Z</time></trkpt><trkpt lat="46.39533002571602" lon="12.296183319622006"><ele>986.2</ele><time>2026-04-12T13:10:06.948Z</time></trkpt><trkpt lat="46.39530025262172" lon="12.296024497568164"><ele>985.6</ele><time>2026-04-12T13:10:07.948Z</time></trkpt><trkpt lat="46.39524615837978" lon="12.29583004134657"><ele>985.0</ele><time>2026-04-12T13:10:08.948Z</time></trkpt><trkpt lat="46.395171536784076" lon="12.295628690454128"><ele>989.3333333333333</ele><time>2026-04-12T13:10:09.948Z</time></trkpt><trkpt lat="46.39509688972608" lon="12.295439456591321"><ele>993.6666666666667</ele><time>2026-04-12T13:10:10.948Z</time></trkpt><trkpt lat="46.39502968164443" lon="12.295233550704985"><ele>998.0</ele><time>2026-04-12T13:10:11.948Z</time></trkpt><trkpt lat="46.39500988040284" lon="12.294997648576508"><ele>998.0</ele><time>2026-04-12T13:10:12.948Z</time></trkpt><trkpt lat="46.39497420713195" lon="12.29483407959819"><ele>998.0</ele><time>2026-04-12T13:10:13.949Z</time></trkpt><trkpt lat="46.39492673141561" lon="12.294693272658787"><ele>998.0</ele><time>2026-04-12T13:10:14.949Z</time></trkpt><trkpt lat="46.39489464108606" lon="12.29456405094928"><ele>998.0</ele><time>2026-04-12T13:10:15.949Z</time></trkpt><trkpt lat="46.39483077426333" lon="12.294451009901408"><ele>998.0</ele><time>2026-04-12T13:10:16.949Z</time></trkpt><trkpt lat="46.39475454156051" lon="12.294330828407498"><ele>996.5999999999999</ele><time>2026-04-12T13:10:17.949Z</time></trkpt><trkpt lat="46.39466481687058" lon="12.294249989787764"><ele>995.1999999999999</ele><time>2026-04-12T13:10:18.949Z</time></trkpt><trkpt lat="46.394588834888886" lon="12.29418893328083"><ele>993.8</ele><time>2026-04-12T13:10:19.949Z</time></trkpt><trkpt lat="46.39449485462256" lon="12.294167380852114"><ele>992.4</ele><time>2026-04-12T13:10:20.949Z</time></trkpt><trkpt lat="46.394382599827" lon="12.294168151282827"><ele>991.0</ele><time>2026-04-12T13:10:21.949Z</time></trkpt><trkpt lat="46.39430265516609" lon="12.294094360064792"><ele>991.0</ele><time>2026-04-12T13:10:22.949Z</time></trkpt><trkpt lat="46.39421859913594" lon="12.294002109217484"><ele>991.0</ele><time>2026-04-12T13:10:23.949Z</time></trkpt><trkpt lat="46.394168828907695" lon="12.29387633717499"><ele>991.0</ele><time>2026-04-12T13:10:24.949Z</time></trkpt><trkpt lat="46.394124034330936" lon="12.293710591988312"><ele>991.0</ele><time>2026-04-12T13:10:25.949Z</time></trkpt><trkpt lat="46.39406496572857" lon="12.293538618051464"><ele>994.5</ele><time>2026-04-12T13:10:26.949Z</time></trkpt><trkpt lat="46.393988613085455" lon="12.29336710119546"><ele>998.0</ele><time>2026-04-12T13:10:27.949Z</time></trkpt><trkpt lat="46.39391935901132" lon="12.29318418076663"><ele>1001.5</ele><time>2026-04-12T13:10:28.949Z</time></trkpt><trkpt lat="46.393841082134905" lon="12.292990783423669"><ele>1005.0</ele><time>2026-04-12T13:10:29.949Z</time></trkpt><trkpt lat="46.39375894801984" lon="12.29278444478519"><ele>1005.0</ele><time>2026-04-12T13:10:30.949Z</time></trkpt><trkpt lat="46.393691498840276" lon="12.292620715576277"><ele>1005.0</ele><time>2026-04-12T13:10:31.949Z</time></trkpt><trkpt lat="46.39362745593998" lon="12.29247606322184"><ele>1005.0</ele><time>2026-04-12T13:10:32.949Z</time></trkpt><trkpt lat="46.39354182049005" lon="12.292338190326452"><ele>1005.0</ele><time>2026-04-12T13:10:33.949Z</time></trkpt><trkpt lat="46.393435029870794" lon="12.292201929117875"><ele>1009.6666666666667</ele><time>2026-04-12T13:10:34.949Z</time></trkpt><trkpt lat="46.393292860466254" lon="12.292061277795488"><ele>1014.3333333333334</ele><time>2026-04-12T13:10:35.949Z</time></trkpt><trkpt lat="46.39314288989436" lon="12.291894096407864"><ele>1019.0</ele><time>2026-04-12T13:10:36.949Z</time></trkpt><trkpt lat="46.3930011359323" lon="12.29174851625448"><ele>1019.0</ele><time>2026-04-12T13:10:37.949Z</time></trkpt><trkpt lat="46.392879130552394" lon="12.291643401793028"><ele>1019.0</ele><time>2026-04-12T13:10:38.949Z</time></trkpt><trkpt lat="46.39277787607415" lon="12.29158208093195"><ele>1019.0</ele><time>2026-04-12T13:10:39.949Z</time></trkpt><trkpt lat="46.392675666472805" lon="12.291534636419575"><ele>1019.0</ele><time>2026-04-12T13:10:40.949Z</time></trkpt><trkpt lat="46.39257305041666" lon="12.29152290365575"><ele>1019.0</ele><time>2026-04-12T13:10:41.949Z</time></trkpt><trkpt lat="46.392461719341775" lon="12.29150656419114"><ele>1019.0000000000001</ele><time>2026-04-12T13:10:42.949Z</time></trkpt><trkpt lat="46.39234761764696" lon="12.291489718508691"><ele>1019.0000000000001</ele><time>2026-04-12T13:10:43.949Z</time></trkpt><trkpt lat="46.39223946066222" lon="12.291469239044192"><ele>1019.0</ele><time>2026-04-12T13:10:44.949Z</time></trkpt><trkpt lat="46.39213506118778" lon="12.29141011943613"><ele>1019.0</ele><time>2026-04-12T13:10:45.949Z</time></trkpt><trkpt lat="46.39201980002324" lon="12.291365522181735"><ele>1019.8000000000001</ele><time>2026-04-12T13:10:46.949Z</time></trkpt><trkpt lat="46.39189644518354" lon="12.291265476229043"><ele>1020.6000000000001</ele><time>2026-04-12T13:10:47.949Z</time></trkpt><trkpt lat="46.391802693009026" lon="12.29121766387373"><ele>1021.4</ele><time>2026-04-12T13:10:48.949Z</time></trkpt><trkpt lat="46.39171640131664" lon="12.291172246909362"><ele>1022.2</ele><time>2026-04-12T13:10:49.949Z</time></trkpt><trkpt lat="46.391654516584666" lon="12.291116881791476"><ele>1023.0</ele><time>2026-04-12T13:10:50.949Z</time></trkpt><trkpt lat="46.391609129903834" lon="12.291039650370283"><ele>1023.0</ele><time>2026-04-12T13:10:51.949Z</time></trkpt><trkpt lat="46.391638878829724" lon="12.290864488156352"><ele>1023.0</ele><time>2026-04-12T13:10:53.949Z</time></trkpt><trkpt lat="46.39165615393603" lon="12.290749895928421"><ele>1023.0</ele><time>2026-04-12T13:10:54.949Z</time></trkpt><trkpt lat="46.39172083786594" lon="12.290630807690013"><ele>1023.0</ele><time>2026-04-12T13:10:55.949Z</time></trkpt><trkpt lat="46.39175202038064" lon="12.29046468887543"><ele>1023.0</ele><time>2026-04-12T13:10:56.949Z</time></trkpt><trkpt lat="46.39177044015848" lon="12.29024275640614"><ele>1024.0</ele><time>2026-04-12T13:10:57.949Z</time></trkpt><trkpt lat="46.391735115948116" lon="12.2900030633097"><ele>1025.0</ele><time>2026-04-12T13:10:58.949Z</time></trkpt><trkpt lat="46.39171507780019" lon="12.289742316382238"><ele>1026.0</ele><time>2026-04-12T13:10:59.949Z</time></trkpt><trkpt lat="46.391671905632016" lon="12.289459359049804"><ele>1029.0</ele><time>2026-04-12T13:11:00.949Z</time></trkpt><trkpt lat="46.39164052806028" lon="12.289219147188469"><ele>1032.0</ele><time>2026-04-12T13:11:01.949Z</time></trkpt><trkpt lat="46.391602774057674" lon="12.289012880895516"><ele>1035.0</ele><time>2026-04-12T13:11:02.949Z</time></trkpt><trkpt lat="46.391546313091894" lon="12.288837326100337"><ele>1038.0</ele><time>2026-04-12T13:11:03.949Z</time></trkpt><trkpt lat="46.39143316252739" lon="12.288705635704941"><ele>1035.75</ele><time>2026-04-12T13:11:04.949Z</time></trkpt><trkpt lat="46.39133467211783" lon="12.28854627359673"><ele>1033.5</ele><time>2026-04-12T13:11:05.949Z</time></trkpt><trkpt lat="46.39123047381728" lon="12.288430043461851"><ele>1031.25</ele><time>2026-04-12T13:11:06.949Z</time></trkpt><trkpt lat="46.3911174495027" lon="12.288347199707887"><ele>1029.0</ele><time>2026-04-12T13:11:07.949Z</time></trkpt><trkpt lat="46.3910044617561" lon="12.28825355105552"><ele>1029.0</ele><time>2026-04-12T13:11:08.949Z</time></trkpt><trkpt lat="46.390867023690824" lon="12.288298973117815"><ele>1029.0</ele><time>2026-04-12T13:11:09.949Z</time></trkpt><trkpt lat="46.39076209792266" lon="12.288273468344446"><ele>1029.0</ele><time>2026-04-12T13:11:10.949Z</time></trkpt><trkpt lat="46.3906799795668" lon="12.288206530189958"><ele>1029.0</ele><time>2026-04-12T13:11:11.949Z</time></trkpt><trkpt lat="46.3906131550566" lon="12.288117706696523"><ele>1029.0</ele><time>2026-04-12T13:11:12.949Z</time></trkpt><trkpt lat="46.3905570972268" lon="12.2880089975488"><ele>1027.25</ele><time>2026-04-12T13:11:13.949Z</time></trkpt><trkpt lat="46.390509636669606" lon="12.287868963934423"><ele>1025.5</ele><time>2026-04-12T13:11:14.949Z</time></trkpt><trkpt lat="46.39048655942939" lon="12.28769222910023"><ele>1023.75</ele><time>2026-04-12T13:11:15.949Z</time></trkpt><trkpt lat="46.390410506903606" lon="12.287526934186358"><ele>1022.0</ele><time>2026-04-12T13:11:16.949Z</time></trkpt><trkpt lat="46.390298849335025" lon="12.287370192396859"><ele>1034.0</ele><time>2026-04-12T13:11:17.949Z</time></trkpt><trkpt lat="46.39014977116317" lon="12.287217728290221"><ele>1046.0</ele><time>2026-04-12T13:11:18.949Z</time></trkpt><trkpt lat="46.389999157489974" lon="12.287066192800987"><ele>1058.0</ele><time>2026-04-12T13:11:19.949Z</time></trkpt><trkpt lat="46.38987713676644" lon="12.286932129350234"><ele>1058.0</ele><time>2026-04-12T13:11:20.949Z</time></trkpt><trkpt lat="46.38975241533841" lon="12.28681742715429"><ele>1058.0</ele><time>2026-04-12T13:11:21.949Z</time></trkpt><trkpt lat="46.389601330113386" lon="12.286717887265741"><ele>1058.0</ele><time>2026-04-12T13:11:22.949Z</time></trkpt><trkpt lat="46.38941579386108" lon="12.286628257493712"><ele>1058.6666666666667</ele><time>2026-04-12T13:11:23.949Z</time></trkpt><trkpt lat="46.38924799782938" lon="12.28652822322854"><ele>1059.3333333333333</ele><time>2026-04-12T13:11:24.949Z</time></trkpt><trkpt lat="46.38910012066529" lon="12.286460229848966"><ele>1060.0</ele><time>2026-04-12T13:11:25.949Z</time></trkpt><trkpt lat="46.388955809167676" lon="12.286416801794497"><ele>1055.5</ele><time>2026-04-12T13:11:26.949Z</time></trkpt><trkpt lat="46.38883661214905" lon="12.28636648326785"><ele>1051.0</ele><time>2026-04-12T13:11:27.949Z</time></trkpt><trkpt lat="46.38872000446242" lon="12.286329879817595"><ele>1046.5</ele><time>2026-04-12T13:11:28.949Z</time></trkpt><trkpt lat="46.38862594070651" lon="12.286277010294945"><ele>1042.0</ele><time>2026-04-12T13:11:29.949Z</time></trkpt><trkpt lat="46.38853005251362" lon="12.286210156640383"><ele>1042.0</ele><time>2026-04-12T13:11:30.949Z</time></trkpt><trkpt lat="46.38842737960394" lon="12.286126254087305"><ele>1042.0</ele><time>2026-04-12T13:11:31.949Z</time></trkpt><trkpt lat="46.388303777922964" lon="12.286042646504988"><ele>1042.0</ele><time>2026-04-12T13:11:32.949Z</time></trkpt><trkpt lat="46.38817418775095" lon="12.285922558592459"><ele>1042.0</ele><time>2026-04-12T13:11:33.949Z</time></trkpt><trkpt lat="46.388039762169235" lon="12.285841438681123"><ele>1039.75</ele><time>2026-04-12T13:11:34.949Z</time></trkpt><trkpt lat="46.387911039455325" lon="12.285790667515199"><ele>1037.5</ele><time>2026-04-12T13:11:35.949Z</time></trkpt><trkpt lat="46.38777107673885" lon="12.285754812151325"><ele>1035.25</ele><time>2026-04-12T13:11:36.949Z</time></trkpt><trkpt lat="46.38762939115362" lon="12.285728273334867"><ele>1033.0</ele><time>2026-04-12T13:11:37.949Z</time></trkpt><trkpt lat="46.387507012565656" lon="12.285680898282786"><ele>1033.0</ele><time>2026-04-12T13:11:38.949Z</time></trkpt><trkpt lat="46.38737866622359" lon="12.285675418448196"><ele>1033.0</ele><time>2026-04-12T13:11:39.949Z</time></trkpt><trkpt lat="46.38725241828397" lon="12.285649807817943"><ele>1033.0</ele><time>2026-04-12T13:11:40.949Z</time></trkpt><trkpt lat="46.38713200665791" lon="12.285613614533432"><ele>1033.0</ele><time>2026-04-12T13:11:41.949Z</time></trkpt><trkpt lat="46.38701880663522" lon="12.285567740197198"><ele>1034.5</ele><time>2026-04-12T13:11:42.949Z</time></trkpt><trkpt lat="46.38692932044344" lon="12.285491338710823"><ele>1036.0</ele><time>2026-04-12T13:11:43.949Z</time></trkpt><trkpt lat="46.386846986348935" lon="12.285378372850246"><ele>1037.5</ele><time>2026-04-12T13:11:44.949Z</time></trkpt><trkpt lat="46.38676001176627" lon="12.285234681085777"><ele>1039.0</ele><time>2026-04-12T13:11:45.949Z</time></trkpt><trkpt lat="46.38663427414151" lon="12.28508687402706"><ele>1039.0</ele><time>2026-04-12T13:11:46.949Z</time></trkpt><trkpt lat="46.38650076075571" lon="12.284932096305662"><ele>1039.0</ele><time>2026-04-12T13:11:47.949Z</time></trkpt><trkpt lat="46.386358425732716" lon="12.284791202007085"><ele>1039.0</ele><time>2026-04-12T13:11:48.949Z</time></trkpt><trkpt lat="46.38620527896543" lon="12.28467049887016"><ele>1046.3333333333333</ele><time>2026-04-12T13:11:49.949Z</time></trkpt><trkpt lat="46.386040026784144" lon="12.284568242040182"><ele>1053.6666666666667</ele><time>2026-04-12T13:11:50.949Z</time></trkpt><trkpt lat="46.385870588627746" lon="12.284485624157233"><ele>1061.0</ele><time>2026-04-12T13:11:51.949Z</time></trkpt><trkpt lat="46.385708853324836" lon="12.28442176046555"><ele>1061.0</ele><time>2026-04-12T13:11:52.949Z</time></trkpt><trkpt lat="46.38554752252616" lon="12.284376596502556"><ele>1061.0</ele><time>2026-04-12T13:11:53.949Z</time></trkpt><trkpt lat="46.38537146989244" lon="12.28435316995715"><ele>1061.0</ele><time>2026-04-12T13:11:54.949Z</time></trkpt><trkpt lat="46.38517604508195" lon="12.284358666358242"><ele>1063.6666666666667</ele><time>2026-04-12T13:11:55.949Z</time></trkpt><trkpt lat="46.38500549362684" lon="12.284371544922676"><ele>1066.3333333333333</ele><time>2026-04-12T13:11:56.949Z</time></trkpt><trkpt lat="46.38485486082754" lon="12.284346522431061"><ele>1069.0</ele><time>2026-04-12T13:11:57.949Z</time></trkpt><trkpt lat="46.38472657033038" lon="12.284331650859462"><ele>1071.5</ele><time>2026-04-12T13:11:58.949Z</time></trkpt><trkpt lat="46.384604537959504" lon="12.284321124793497"><ele>1074.0</ele><time>2026-04-12T13:11:59.949Z</time></trkpt><trkpt lat="46.384498484120655" lon="12.284305835748484"><ele>1076.5</ele><time>2026-04-12T13:12:00.949Z</time></trkpt><trkpt lat="46.38442619131798" lon="12.284303635922898"><ele>1079.0</ele><time>2026-04-12T13:12:01.949Z</time></trkpt><trkpt lat="46.38435090790261" lon="12.284318743082697"><ele>1081.5</ele><time>2026-04-12T13:12:02.949Z</time></trkpt><trkpt lat="46.3842906464198" lon="12.284347005724353"><ele>1084.0</ele><time>2026-04-12T13:12:03.949Z</time></trkpt><trkpt lat="46.384228532320094" lon="12.284389061008783"><ele>1084.0</ele><time>2026-04-12T13:12:04.949Z</time></trkpt><trkpt lat="46.383874279937544" lon="12.284710178248146"><ele>1084.0</ele><time>2026-04-12T13:12:05.949Z</time></trkpt><trkpt lat="46.38373580662139" lon="12.284849380830059"><ele>1085.6666666666665</ele><time>2026-04-12T13:12:06.949Z</time></trkpt><trkpt lat="46.383601120057584" lon="12.284960277477227"><ele>1087.3333333333333</ele><time>2026-04-12T13:12:07.949Z</time></trkpt><trkpt lat="46.38344174414879" lon="12.285069841220011"><ele>1089.0</ele><time>2026-04-12T13:12:08.949Z</time></trkpt><trkpt lat="46.38326765136347" lon="12.285169475930177"><ele>1089.0</ele><time>2026-04-12T13:12:09.949Z</time></trkpt><trkpt lat="46.38310317292084" lon="12.285253921058862"><ele>1089.0</ele><time>2026-04-12T13:12:10.949Z</time></trkpt><trkpt lat="46.38297548176679" lon="12.28532381984258"><ele>1089.0</ele><time>2026-04-12T13:12:11.949Z</time></trkpt><trkpt lat="46.38285725949499" lon="12.28537588082147"><ele>1089.0</ele><time>2026-04-12T13:12:12.949Z</time></trkpt><trkpt lat="46.382746767984685" lon="12.285356725509551"><ele>1090.0</ele><time>2026-04-12T13:12:13.949Z</time></trkpt><trkpt lat="46.382656185698686" lon="12.285325048481182"><ele>1091.0</ele><time>2026-04-12T13:12:14.949Z</time></trkpt><trkpt lat="46.38258629906855" lon="12.285258904593581"><ele>1092.0</ele><time>2026-04-12T13:12:15.949Z</time></trkpt><trkpt lat="46.38252906267273" lon="12.285169566297979"><ele>1093.0</ele><time>2026-04-12T13:12:16.949Z</time></trkpt><trkpt lat="46.38250670152806" lon="12.285048104152287"><ele>1094.0</ele><time>2026-04-12T13:12:17.949Z</time></trkpt><trkpt lat="46.38253955723746" lon="12.284928099679268"><ele>1095.0</ele><time>2026-04-12T13:12:18.949Z</time></trkpt><trkpt lat="46.38258958633849" lon="12.284836526561193"><ele>1095.0</ele><time>2026-04-12T13:12:19.95Z</time></trkpt><trkpt lat="46.382679792447334" lon="12.28477654416744"><ele>1095.0</ele><time>2026-04-12T13:12:20.95Z</time></trkpt><trkpt lat="46.38280523117212" lon="12.284656915948453"><ele>1095.0</ele><time>2026-04-12T13:12:21.95Z</time></trkpt><trkpt lat="46.382902107505394" lon="12.28449947737867"><ele>1095.0</ele><time>2026-04-12T13:12:22.95Z</time></trkpt><trkpt lat="46.38297949735317" lon="12.284334066075056"><ele>1096.6666666666667</ele><time>2026-04-12T13:12:23.95Z</time></trkpt><trkpt lat="46.383023436636144" lon="12.28417663691209"><ele>1098.3333333333333</ele><time>2026-04-12T13:12:24.95Z</time></trkpt><trkpt lat="46.38304818442252" lon="12.284064797996416"><ele>1100.0</ele><time>2026-04-12T13:12:25.95Z</time></trkpt><trkpt lat="46.38302397184838" lon="12.283963036084195"><ele>1101.6666666666665</ele><time>2026-04-12T13:12:26.95Z</time></trkpt><trkpt lat="46.38296024642582" lon="12.28389415994223"><ele>1103.3333333333333</ele><time>2026-04-12T13:12:27.95Z</time></trkpt><trkpt lat="46.38287312121652" lon="12.283890379348705"><ele>1105.0</ele><time>2026-04-12T13:12:28.95Z</time></trkpt><trkpt lat="46.38275903540375" lon="12.283983147744161"><ele>1107.0</ele><time>2026-04-12T13:12:29.95Z</time></trkpt><trkpt lat="46.38267811937991" lon="12.284092225763125"><ele>1109.0</ele><time>2026-04-12T13:12:30.95Z</time></trkpt><trkpt lat="46.38256034548649" lon="12.284146736136694"><ele>1111.0</ele><time>2026-04-12T13:12:31.95Z</time></trkpt><trkpt lat="46.382431546986815" lon="12.284148479733368"><ele>1113.0</ele><time>2026-04-12T13:12:32.95Z</time></trkpt><trkpt lat="46.382280083096916" lon="12.28414280057969"><ele>1111.3333333333333</ele><time>2026-04-12T13:12:33.95Z</time></trkpt><trkpt lat="46.38210294252787" lon="12.284081626959434"><ele>1109.6666666666665</ele><time>2026-04-12T13:12:34.95Z</time></trkpt><trkpt lat="46.38193841731609" lon="12.283998808351832"><ele>1108.0</ele><time>2026-04-12T13:12:35.95Z</time></trkpt><trkpt lat="46.381806884469384" lon="12.283882481415356"><ele>1112.2</ele><time>2026-04-12T13:12:36.95Z</time></trkpt><trkpt lat="46.38170108235258" lon="12.283814721713888"><ele>1116.4</ele><time>2026-04-12T13:12:37.95Z</time></trkpt><trkpt lat="46.38160584604791" lon="12.283769014504838"><ele>1120.6000000000001</ele><time>2026-04-12T13:12:38.95Z</time></trkpt><trkpt lat="46.38153128534512" lon="12.28372008955998"><ele>1124.8</ele><time>2026-04-12T13:12:39.95Z</time></trkpt><trkpt lat="46.38143806760505" lon="12.283604102407109"><ele>1129.0</ele><time>2026-04-12T13:12:41.95Z</time></trkpt><trkpt lat="46.38147500644227" lon="12.283496428265646"><ele>1129.0</ele><time>2026-04-12T13:12:42.95Z</time></trkpt><trkpt lat="46.3815821645384" lon="12.283487473889934"><ele>1129.0</ele><time>2026-04-12T13:12:43.95Z</time></trkpt><trkpt lat="46.38167219929378" lon="12.283512847172036"><ele>1129.0</ele><time>2026-04-12T13:12:44.95Z</time></trkpt><trkpt lat="46.38177468079009" lon="12.283490681152399"><ele>1129.0</ele><time>2026-04-12T13:12:45.95Z</time></trkpt><trkpt lat="46.381852560867095" lon="12.283464486120943"><ele>1129.0</ele><time>2026-04-12T13:12:46.95Z</time></trkpt><trkpt lat="46.38192771199374" lon="12.283362189710044"><ele>1129.0</ele><time>2026-04-12T13:12:47.95Z</time></trkpt><trkpt lat="46.38199704166129" lon="12.283215939277312"><ele>1129.0</ele><time>2026-04-12T13:12:48.95Z</time></trkpt><trkpt lat="46.38208428329449" lon="12.283054424128967"><ele>1129.0</ele><time>2026-04-12T13:12:49.95Z</time></trkpt><trkpt lat="46.382189662371836" lon="12.282940166386064"><ele>1129.0</ele><time>2026-04-12T13:12:50.95Z</time></trkpt><trkpt lat="46.3822647187661" lon="12.282858248543226"><ele>1131.0</ele><time>2026-04-12T13:12:51.95Z</time></trkpt><trkpt lat="46.38230293696846" lon="12.282768773683566"><ele>1133.0</ele><time>2026-04-12T13:12:52.95Z</time></trkpt><trkpt lat="46.3822911927531" lon="12.282675797607663"><ele>1135.0</ele><time>2026-04-12T13:12:53.95Z</time></trkpt><trkpt lat="46.38223594917557" lon="12.28259113895434"><ele>1137.0</ele><time>2026-04-12T13:12:54.95Z</time></trkpt><trkpt lat="46.38212539554356" lon="12.282564682362853"><ele>1139.0</ele><time>2026-04-12T13:12:55.95Z</time></trkpt><trkpt lat="46.38201200346714" lon="12.282599510872807"><ele>1141.0</ele><time>2026-04-12T13:12:56.95Z</time></trkpt><trkpt lat="46.38188382092468" lon="12.282640943631074"><ele>1141.0</ele><time>2026-04-12T13:12:57.95Z</time></trkpt><trkpt lat="46.38175726170726" lon="12.28265595524137"><ele>1141.0</ele><time>2026-04-12T13:12:58.95Z</time></trkpt><trkpt lat="46.38165635470119" lon="12.282625867543544"><ele>1141.0</ele><time>2026-04-12T13:12:59.95Z</time></trkpt><trkpt lat="46.38156094029362" lon="12.282550202922913"><ele>1141.0</ele><time>2026-04-12T13:13:00.95Z</time></trkpt><trkpt lat="46.38148768259388" lon="12.28240602311896"><ele>1141.0</ele><time>2026-04-12T13:13:01.95Z</time></trkpt><trkpt lat="46.38137673493926" lon="12.282274926703616"><ele>1141.0</ele><time>2026-04-12T13:13:02.95Z</time></trkpt><trkpt lat="46.381295781074115" lon="12.282169093881794"><ele>1141.0</ele><time>2026-04-12T13:13:03.95Z</time></trkpt><trkpt lat="46.38122163781575" lon="12.282122301328576"><ele>1141.0</ele><time>2026-04-12T13:13:04.95Z</time></trkpt><trkpt lat="46.38113686652719" lon="12.28212396181919"><ele>1141.0</ele><time>2026-04-12T13:13:05.95Z</time></trkpt><trkpt lat="46.38106053560074" lon="12.282240825453025"><ele>1144.0</ele><time>2026-04-12T13:13:06.95Z</time></trkpt><trkpt lat="46.380960466160786" lon="12.282340712959005"><ele>1147.0</ele><time>2026-04-12T13:13:07.95Z</time></trkpt><trkpt lat="46.380835249479524" lon="12.282440073822642"><ele>1150.0</ele><time>2026-04-12T13:13:08.95Z</time></trkpt><trkpt lat="46.38068303949606" lon="12.28250564315075"><ele>1153.0</ele><time>2026-04-12T13:13:09.95Z</time></trkpt><trkpt lat="46.380542049599086" lon="12.282554966374649"><ele>1155.75</ele><time>2026-04-12T13:13:10.95Z</time></trkpt><trkpt lat="46.380431897108515" lon="12.28259166364653"><ele>1158.5</ele><time>2026-04-12T13:13:11.95Z</time></trkpt><trkpt lat="46.38030540445843" lon="12.282619087323674"><ele>1161.25</ele><time>2026-04-12T13:13:12.95Z</time></trkpt><trkpt lat="46.380213751399054" lon="12.282608397370383"><ele>1164.0</ele><time>2026-04-12T13:13:13.95Z</time></trkpt><trkpt lat="46.3800963756755" lon="12.282586115904786"><ele>1164.0</ele><time>2026-04-12T13:13:14.95Z</time></trkpt><trkpt lat="46.379975008146424" lon="12.28256691660877"><ele>1164.0</ele><time>2026-04-12T13:13:15.95Z</time></trkpt><trkpt lat="46.379837764333445" lon="12.282569286718008"><ele>1164.0</ele><time>2026-04-12T13:13:16.95Z</time></trkpt><trkpt lat="46.37965579392521" lon="12.28261569093959"><ele>1164.0</ele><time>2026-04-12T13:13:17.95Z</time></trkpt><trkpt lat="46.37948320204811" lon="12.282661542323817"><ele>1166.5</ele><time>2026-04-12T13:13:18.95Z</time></trkpt><trkpt lat="46.37931148673617" lon="12.282665101775802"><ele>1169.0</ele><time>2026-04-12T13:13:19.95Z</time></trkpt><trkpt lat="46.37917391917009" lon="12.28266581544862"><ele>1171.5</ele><time>2026-04-12T13:13:20.95Z</time></trkpt><trkpt lat="46.379051719663615" lon="12.282703325005027"><ele>1174.0</ele><time>2026-04-12T13:13:21.95Z</time></trkpt><trkpt lat="46.37893474737985" lon="12.282790266590208"><ele>1174.8</ele><time>2026-04-12T13:13:22.95Z</time></trkpt><trkpt lat="46.378835143082455" lon="12.282891117943937"><ele>1175.6000000000001</ele><time>2026-04-12T13:13:23.95Z</time></trkpt><trkpt lat="46.3787469726444" lon="12.282939832880308"><ele>1176.4</ele><time>2026-04-12T13:13:24.95Z</time></trkpt><trkpt lat="46.378676520985664" lon="12.282962049465857"><ele>1177.2</ele><time>2026-04-12T13:13:25.95Z</time></trkpt><trkpt lat="46.378598055081994" lon="12.282968413319276"><ele>1178.0</ele><time>2026-04-12T13:13:26.95Z</time></trkpt><trkpt lat="46.37855727023656" lon="12.282846870767939"><ele>1178.0</ele><time>2026-04-12T13:13:27.95Z</time></trkpt><trkpt lat="46.378469408411846" lon="12.2827335277602"><ele>1178.0</ele><time>2026-04-12T13:13:28.95Z</time></trkpt><trkpt lat="46.37836035677458" lon="12.282595048330254"><ele>1178.0</ele><time>2026-04-12T13:13:29.95Z</time></trkpt><trkpt lat="46.37824074660239" lon="12.282466115918663"><ele>1178.0</ele><time>2026-04-12T13:13:30.95Z</time></trkpt><trkpt lat="46.378090995340784" lon="12.282344012507876"><ele>1181.3333333333335</ele><time>2026-04-12T13:13:31.95Z</time></trkpt><trkpt lat="46.37791668736706" lon="12.282232500956543"><ele>1184.6666666666667</ele><time>2026-04-12T13:13:32.95Z</time></trkpt><trkpt lat="46.37772266580774" lon="12.282137971698793"><ele>1188.0</ele><time>2026-04-12T13:13:33.95Z</time></trkpt><trkpt lat="46.3775117318666" lon="12.282032181276733"><ele>1188.0</ele><time>2026-04-12T13:13:34.95Z</time></trkpt><trkpt lat="46.3772924128522" lon="12.281903350613494"><ele>1188.0</ele><time>2026-04-12T13:13:35.95Z</time></trkpt><trkpt lat="46.37706177967583" lon="12.281772495138355"><ele>1189.6666666666667</ele><time>2026-04-12T13:13:36.95Z</time></trkpt><trkpt lat="46.37686552747319" lon="12.281668622359437"><ele>1191.3333333333335</ele><time>2026-04-12T13:13:37.95Z</time></trkpt><trkpt lat="46.37670941999682" lon="12.281565627267042"><ele>1193.0</ele><time>2026-04-12T13:13:38.95Z</time></trkpt><trkpt lat="46.37659070404141" lon="12.281454164039591"><ele>1194.0</ele><time>2026-04-12T13:13:39.95Z</time></trkpt><trkpt lat="46.37651441335088" lon="12.281306089285161"><ele>1195.0</ele><time>2026-04-12T13:13:40.95Z</time></trkpt><trkpt lat="46.37644955779542" lon="12.281161844177458"><ele>1196.0</ele><time>2026-04-12T13:13:41.95Z</time></trkpt><trkpt lat="46.376402035740554" lon="12.281030624883423"><ele>1197.0</ele><time>2026-04-12T13:13:42.95Z</time></trkpt><trkpt lat="46.37634617258162" lon="12.280932001382391"><ele>1198.0</ele><time>2026-04-12T13:13:43.95Z</time></trkpt><trkpt lat="46.37628391459266" lon="12.280865037051813"><ele>1198.0</ele><time>2026-04-12T13:13:44.95Z</time></trkpt><trkpt lat="46.37618698884689" lon="12.28079371995258"><ele>1198.0</ele><time>2026-04-12T13:13:46.95Z</time></trkpt><trkpt lat="46.37607842603489" lon="12.280748898725959"><ele>1198.0</ele><time>2026-04-12T13:13:48.95Z</time></trkpt><trkpt lat="46.37596050361769" lon="12.280726706080667"><ele>1198.0</ele><time>2026-04-12T13:13:50.95Z</time></trkpt><trkpt lat="46.375897516096856" lon="12.28070737579632"><ele>1198.0</ele><time>2026-04-12T13:13:51.95Z</time></trkpt><trkpt lat="46.37584432769949" lon="12.280654544802715"><ele>1202.0</ele><time>2026-04-12T13:13:52.95Z</time></trkpt><trkpt lat="46.37584402203538" lon="12.280562520340098"><ele>1206.0</ele><time>2026-04-12T13:13:53.95Z</time></trkpt><trkpt lat="46.37589186835411" lon="12.280476370661816"><ele>1210.0</ele><time>2026-04-12T13:13:54.95Z</time></trkpt><trkpt lat="46.375962767595304" lon="12.280425324640516"><ele>1214.0</ele><time>2026-04-12T13:13:55.95Z</time></trkpt><trkpt lat="46.37609505455791" lon="12.280450971763802"><ele>1218.0</ele><time>2026-04-12T13:13:56.95Z</time></trkpt><trkpt lat="46.376223593423965" lon="12.280368104535928"><ele>1219.0</ele><time>2026-04-12T13:13:57.95Z</time></trkpt><trkpt lat="46.376379236641725" lon="12.280301514766707"><ele>1220.0</ele><time>2026-04-12T13:13:58.95Z</time></trkpt><trkpt lat="46.376567669861124" lon="12.280213882107578"><ele>1221.0</ele><time>2026-04-12T13:13:59.95Z</time></trkpt><trkpt lat="46.3767627292054" lon="12.28013262708769"><ele>1221.0</ele><time>2026-04-12T13:14:00.95Z</time></trkpt><trkpt lat="46.37692291774667" lon="12.280081688899196"><ele>1221.0</ele><time>2026-04-12T13:14:01.95Z</time></trkpt><trkpt lat="46.37705849982371" lon="12.28004609463316"><ele>1221.0</ele><time>2026-04-12T13:14:02.95Z</time></trkpt><trkpt lat="46.37717361423178" lon="12.279974159825153"><ele>1221.0</ele><time>2026-04-12T13:14:03.95Z</time></trkpt><trkpt lat="46.37728721291865" lon="12.27985470695887"><ele>1223.0</ele><time>2026-04-12T13:14:04.95Z</time></trkpt><trkpt lat="46.377388599029615" lon="12.279713130758584"><ele>1225.0</ele><time>2026-04-12T13:14:05.95Z</time></trkpt><trkpt lat="46.377473179927364" lon="12.279613171271924"><ele>1227.0</ele><time>2026-04-12T13:14:06.95Z</time></trkpt><trkpt lat="46.37752261111465" lon="12.279493555745931"><ele>1229.0</ele><time>2026-04-12T13:14:07.95Z</time></trkpt><trkpt lat="46.37754185413185" lon="12.279357607821519"><ele>1231.0</ele><time>2026-04-12T13:14:08.95Z</time></trkpt><trkpt lat="46.37752747198476" lon="12.279213834561503"><ele>1231.0</ele><time>2026-04-12T13:14:09.95Z</time></trkpt><trkpt lat="46.37749692194642" lon="12.279043628509529"><ele>1231.0</ele><time>2026-04-12T13:14:10.95Z</time></trkpt><trkpt lat="46.37747176220796" lon="12.278866642832144"><ele>1231.0</ele><time>2026-04-12T13:14:11.95Z</time></trkpt><trkpt lat="46.377489247721" lon="12.278703264267863"><ele>1231.0</ele><time>2026-04-12T13:14:12.95Z</time></trkpt><trkpt lat="46.37754743685479" lon="12.278577011096111"><ele>1234.25</ele><time>2026-04-12T13:14:13.95Z</time></trkpt><trkpt lat="46.37764429790638" lon="12.27845032253478"><ele>1237.5</ele><time>2026-04-12T13:14:14.95Z</time></trkpt><trkpt lat="46.3777567181506" lon="12.278308181766414"><ele>1240.75</ele><time>2026-04-12T13:14:15.95Z</time></trkpt><trkpt lat="46.37787875375815" lon="12.27814697015582"><ele>1244.0</ele><time>2026-04-12T13:14:16.95Z</time></trkpt><trkpt lat="46.3780186559389" lon="12.278005357097973"><ele>1246.0</ele><time>2026-04-12T13:14:17.95Z</time></trkpt><trkpt lat="46.37813538667087" lon="12.277872578147932"><ele>1248.0</ele><time>2026-04-12T13:14:18.95Z</time></trkpt><trkpt lat="46.37821659009232" lon="12.277742078602357"><ele>1250.0</ele><time>2026-04-12T13:14:19.95Z</time></trkpt><trkpt lat="46.378282944858945" lon="12.277599087612936"><ele>1252.0</ele><time>2026-04-12T13:14:20.95Z</time></trkpt><trkpt lat="46.37836530512183" lon="12.277505716804377"><ele>1252.0</ele><time>2026-04-12T13:14:21.95Z</time></trkpt><trkpt lat="46.37846974474647" lon="12.277480107827104"><ele>1252.0</ele><time>2026-04-12T13:14:22.95Z</time></trkpt><trkpt lat="46.37857297343591" lon="12.27756765911456"><ele>1252.0</ele><time>2026-04-12T13:14:23.95Z</time></trkpt><trkpt lat="46.378691439830334" lon="12.277602336714258"><ele>1252.0</ele><time>2026-04-12T13:14:24.95Z</time></trkpt><trkpt lat="46.37878183356216" lon="12.277643796292363"><ele>1252.0</ele><time>2026-04-12T13:14:25.951Z</time></trkpt><trkpt lat="46.37887709185308" lon="12.277615755961897"><ele>1251.2</ele><time>2026-04-12T13:14:26.951Z</time></trkpt><trkpt lat="46.37896628864331" lon="12.277530002639784"><ele>1250.4</ele><time>2026-04-12T13:14:27.951Z</time></trkpt><trkpt lat="46.379051274355646" lon="12.277383859873456"><ele>1249.6</ele><time>2026-04-12T13:14:28.951Z</time></trkpt><trkpt lat="46.37909445093604" lon="12.277221815664289"><ele>1248.8</ele><time>2026-04-12T13:14:29.951Z</time></trkpt><trkpt lat="46.3790606297046" lon="12.27713942012947"><ele>1248.0</ele><time>2026-04-12T13:14:30.951Z</time></trkpt><trkpt lat="46.3790329425969" lon="12.276979049120783"><ele>1250.2</ele><time>2026-04-12T13:14:31.951Z</time></trkpt><trkpt lat="46.37899879945341" lon="12.276825614356015"><ele>1252.4</ele><time>2026-04-12T13:14:32.951Z</time></trkpt><trkpt lat="46.378992352139" lon="12.276699444673993"><ele>1254.6000000000001</ele><time>2026-04-12T13:14:33.951Z</time></trkpt><trkpt lat="46.37900040792794" lon="12.276580857155572"><ele>1256.8</ele><time>2026-04-12T13:14:34.951Z</time></trkpt><trkpt lat="46.379061519124" lon="12.27649747611856"><ele>1259.0</ele><time>2026-04-12T13:14:35.951Z</time></trkpt><trkpt lat="46.37916133495889" lon="12.276439233038476"><ele>1262.75</ele><time>2026-04-12T13:14:36.951Z</time></trkpt><trkpt lat="46.379270117021534" lon="12.276387162575833"><ele>1266.5</ele><time>2026-04-12T13:14:37.951Z</time></trkpt><trkpt lat="46.37938928286174" lon="12.276319758790212"><ele>1270.25</ele><time>2026-04-12T13:14:38.951Z</time></trkpt><trkpt lat="46.37950978513419" lon="12.276192272925018"><ele>1274.0</ele><time>2026-04-12T13:14:39.951Z</time></trkpt><trkpt lat="46.37960102228956" lon="12.276091554789568"><ele>1274.0</ele><time>2026-04-12T13:14:40.951Z</time></trkpt><trkpt lat="46.37968317210909" lon="12.276049993672967"><ele>1274.0</ele><time>2026-04-12T13:14:41.951Z</time></trkpt><trkpt lat="46.379775607586794" lon="12.276081127473114"><ele>1274.0</ele><time>2026-04-12T13:14:42.951Z</time></trkpt><trkpt lat="46.37988794555692" lon="12.2761424489768"><ele>1274.0</ele><time>2026-04-12T13:14:43.951Z</time></trkpt><trkpt lat="46.37996262282007" lon="12.276175356028466"><ele>1274.0</ele><time>2026-04-12T13:14:44.951Z</time></trkpt><trkpt lat="46.380064800424044" lon="12.276050705105346"><ele>1274.0</ele><time>2026-04-12T13:14:46.951Z</time></trkpt><trkpt lat="46.380064159288786" lon="12.275930161811722"><ele>1274.0</ele><time>2026-04-12T13:14:47.951Z</time></trkpt><trkpt lat="46.38000244156357" lon="12.275837173113855"><ele>1274.0</ele><time>2026-04-12T13:14:48.951Z</time></trkpt><trkpt lat="46.379904556422076" lon="12.275794489893723"><ele>1274.0</ele><time>2026-04-12T13:14:49.951Z</time></trkpt><trkpt lat="46.379790423768476" lon="12.275771555924893"><ele>1274.0</ele><time>2026-04-12T13:14:50.951Z</time></trkpt><trkpt lat="46.37966119326873" lon="12.275690882593064"><ele>1274.0</ele><time>2026-04-12T13:14:51.951Z</time></trkpt><trkpt lat="46.37955968087831" lon="12.275612442681147"><ele>1274.0</ele><time>2026-04-12T13:14:52.951Z</time></trkpt><trkpt lat="46.37947699842334" lon="12.275526711647423"><ele>1274.0</ele><time>2026-04-12T13:14:53.951Z</time></trkpt><trkpt lat="46.379426368236835" lon="12.275408011963496"><ele>1274.0</ele><time>2026-04-12T13:14:54.951Z</time></trkpt><trkpt lat="46.3793661969508" lon="12.27522481432959"><ele>1277.0</ele><time>2026-04-12T13:14:55.951Z</time></trkpt><trkpt lat="46.37928979891339" lon="12.275064628003786"><ele>1280.0</ele><time>2026-04-12T13:14:56.951Z</time></trkpt><trkpt lat="46.379212011639716" lon="12.274942374338709"><ele>1283.0</ele><time>2026-04-12T13:14:57.951Z</time></trkpt><trkpt lat="46.379106415164365" lon="12.274830648788587"><ele>1286.0</ele><time>2026-04-12T13:14:58.951Z</time></trkpt><trkpt lat="46.37897241190315" lon="12.274723758212275"><ele>1290.3333333333335</ele><time>2026-04-12T13:14:59.951Z</time></trkpt><trkpt lat="46.37881397238486" lon="12.274620146194005"><ele>1294.6666666666667</ele><time>2026-04-12T13:15:00.951Z</time></trkpt><trkpt lat="46.378639711929665" lon="12.274542029433357"><ele>1299.0</ele><time>2026-04-12T13:15:01.951Z</time></trkpt><trkpt lat="46.37849671445474" lon="12.274501790154133"><ele>1299.0</ele><time>2026-04-12T13:15:02.951Z</time></trkpt><trkpt lat="46.37838197774748" lon="12.274445525178301"><ele>1299.0</ele><time>2026-04-12T13:15:03.951Z</time></trkpt><trkpt lat="46.37828032391355" lon="12.274409712173695"><ele>1299.0</ele><time>2026-04-12T13:15:04.951Z</time></trkpt><trkpt lat="46.378202255135164" lon="12.274365209137192"><ele>1299.0</ele><time>2026-04-12T13:15:05.951Z</time></trkpt><trkpt lat="46.37818886700644" lon="12.274199891516504"><ele>1299.0</ele><time>2026-04-12T13:15:07.951Z</time></trkpt><trkpt lat="46.37825986903283" lon="12.274123850715625"><ele>1299.0</ele><time>2026-04-12T13:15:08.951Z</time></trkpt><trkpt lat="46.3783355916726" lon="12.27408214207124"><ele>1299.0</ele><time>2026-04-12T13:15:09.951Z</time></trkpt><trkpt lat="46.378421066783716" lon="12.274030115587951"><ele>1299.0</ele><time>2026-04-12T13:15:10.951Z</time></trkpt><trkpt lat="46.37851817980717" lon="12.273964733970558"><ele>1299.0</ele><time>2026-04-12T13:15:11.951Z</time></trkpt><trkpt lat="46.37862459718034" lon="12.273877738835619"><ele>1299.0</ele><time>2026-04-12T13:15:12.951Z</time></trkpt><trkpt lat="46.37874476408303" lon="12.273795829268979"><ele>1303.8000000000002</ele><time>2026-04-12T13:15:13.951Z</time></trkpt><trkpt lat="46.37885341499485" lon="12.273733059128919"><ele>1308.6000000000001</ele><time>2026-04-12T13:15:14.951Z</time></trkpt><trkpt lat="46.37895535211201" lon="12.27370933639671"><ele>1313.4</ele><time>2026-04-12T13:15:15.951Z</time></trkpt><trkpt lat="46.37903889549734" lon="12.273734897462079"><ele>1318.2</ele><time>2026-04-12T13:15:16.951Z</time></trkpt><trkpt lat="46.379110121269605" lon="12.273808838550591"><ele>1323.0</ele><time>2026-04-12T13:15:17.951Z</time></trkpt><trkpt lat="46.37923618958271" lon="12.273819397829527"><ele>1323.0</ele><time>2026-04-12T13:15:18.951Z</time></trkpt><trkpt lat="46.37934755439447" lon="12.273778687106647"><ele>1323.0</ele><time>2026-04-12T13:15:19.951Z</time></trkpt><trkpt lat="46.37946038297273" lon="12.273716810184544"><ele>1323.0</ele><time>2026-04-12T13:15:20.951Z</time></trkpt><trkpt lat="46.37955930400617" lon="12.273630502860836"><ele>1323.0</ele><time>2026-04-12T13:15:21.951Z</time></trkpt><trkpt lat="46.379653379607824" lon="12.2735098655897"><ele>1323.25</ele><time>2026-04-12T13:15:22.951Z</time></trkpt><trkpt lat="46.37974759166504" lon="12.273370519172285"><ele>1323.5</ele><time>2026-04-12T13:15:23.951Z</time></trkpt><trkpt lat="46.3798420595323" lon="12.273195354923924"><ele>1323.75</ele><time>2026-04-12T13:15:24.951Z</time></trkpt><trkpt lat="46.379935580188466" lon="12.273011762320454"><ele>1324.0</ele><time>2026-04-12T13:15:25.951Z</time></trkpt><trkpt lat="46.38002679411422" lon="12.272874599835083"><ele>1326.1666666666665</ele><time>2026-04-12T13:15:26.951Z</time></trkpt><trkpt lat="46.38011437883796" lon="12.272790454381235"><ele>1328.3333333333333</ele><time>2026-04-12T13:15:27.951Z</time></trkpt><trkpt lat="46.3802004341795" lon="12.272730974836428"><ele>1330.5</ele><time>2026-04-12T13:15:28.951Z</time></trkpt><trkpt lat="46.380260411795796" lon="12.272664466282809"><ele>1332.6666666666667</ele><time>2026-04-12T13:15:29.951Z</time></trkpt><trkpt lat="46.380270250699716" lon="12.27255740392853"><ele>1334.8333333333335</ele><time>2026-04-12T13:15:30.951Z</time></trkpt><trkpt lat="46.38022618951472" lon="12.272439879099013"><ele>1337.0</ele><time>2026-04-12T13:15:31.951Z</time></trkpt><trkpt lat="46.38016513552191" lon="12.272363426444757"><ele>1337.0</ele><time>2026-04-12T13:15:32.951Z</time></trkpt><trkpt lat="46.380082222976604" lon="12.27231493600872"><ele>1337.0</ele><time>2026-04-12T13:15:33.951Z</time></trkpt><trkpt lat="46.37995332881095" lon="12.272262126416809"><ele>1337.0</ele><time>2026-04-12T13:15:34.951Z</time></trkpt><trkpt lat="46.379843402678404" lon="12.27219769540597"><ele>1337.0</ele><time>2026-04-12T13:15:35.951Z</time></trkpt><trkpt lat="46.37972133261181" lon="12.272189937523077"><ele>1337.1999999999998</ele><time>2026-04-12T13:15:36.951Z</time></trkpt><trkpt lat="46.37958652411728" lon="12.272233543413643"><ele>1337.4</ele><time>2026-04-12T13:15:37.951Z</time></trkpt><trkpt lat="46.37948381897256" lon="12.272297990031175"><ele>1337.6</ele><time>2026-04-12T13:15:38.951Z</time></trkpt><trkpt lat="46.37938754332881" lon="12.272294581143255"><ele>1337.8000000000002</ele><time>2026-04-12T13:15:39.951Z</time></trkpt><trkpt lat="46.37931263753709" lon="12.27221959893549"><ele>1338.0</ele><time>2026-04-12T13:15:40.951Z</time></trkpt><trkpt lat="46.37926405949206" lon="12.272055260676613"><ele>1342.5</ele><time>2026-04-12T13:15:41.951Z</time></trkpt><trkpt lat="46.37918517389125" lon="12.271923344807501"><ele>1347.0</ele><time>2026-04-12T13:15:42.951Z</time></trkpt><trkpt lat="46.37907642998647" lon="12.27186945712851"><ele>1351.5</ele><time>2026-04-12T13:15:43.951Z</time></trkpt><trkpt lat="46.37897230908598" lon="12.271864317605022"><ele>1356.0</ele><time>2026-04-12T13:15:44.951Z</time></trkpt><trkpt lat="46.3788537744614" lon="12.271900346219567"><ele>1356.0</ele><time>2026-04-12T13:15:45.951Z</time></trkpt><trkpt lat="46.37873257659999" lon="12.27194317918755"><ele>1356.0</ele><time>2026-04-12T13:15:46.951Z</time></trkpt><trkpt lat="46.37860415315018" lon="12.271948853064428"><ele>1356.0</ele><time>2026-04-12T13:15:47.951Z</time></trkpt><trkpt lat="46.37846301372061" lon="12.27192503680105"><ele>1356.0</ele><time>2026-04-12T13:15:48.951Z</time></trkpt><trkpt lat="46.378361703571116" lon="12.27187485240569"><ele>1356.0</ele><time>2026-04-12T13:15:49.951Z</time></trkpt><trkpt lat="46.37828859328984" lon="12.271754828008381"><ele>1356.0</ele><time>2026-04-12T13:15:50.951Z</time></trkpt><trkpt lat="46.37817445582734" lon="12.271630840489202"><ele>1356.0</ele><time>2026-04-12T13:15:51.951Z</time></trkpt><trkpt lat="46.37803821637534" lon="12.271540178914497"><ele>1356.0</ele><time>2026-04-12T13:15:52.951Z</time></trkpt><trkpt lat="46.37787664548347" lon="12.271463729476219"><ele>1365.0</ele><time>2026-04-12T13:15:53.951Z</time></trkpt><trkpt lat="46.377704160392" lon="12.271386155564135"><ele>1374.0</ele><time>2026-04-12T13:15:54.951Z</time></trkpt><trkpt lat="46.377551255011944" lon="12.271347752640882"><ele>1383.0</ele><time>2026-04-12T13:15:55.951Z</time></trkpt><trkpt lat="46.3774261214725" lon="12.271350525470783"><ele>1383.0</ele><time>2026-04-12T13:15:56.951Z</time></trkpt><trkpt lat="46.377295837813215" lon="12.27139712531254"><ele>1383.0</ele><time>2026-04-12T13:15:57.951Z</time></trkpt><trkpt lat="46.37717623997194" lon="12.2714678809371"><ele>1383.0</ele><time>2026-04-12T13:15:58.951Z</time></trkpt><trkpt lat="46.377063021389034" lon="12.271543770787986"><ele>1383.0</ele><time>2026-04-12T13:15:59.951Z</time></trkpt><trkpt lat="46.37695395781915" lon="12.271582063640208"><ele>1381.8000000000002</ele><time>2026-04-12T13:16:00.951Z</time></trkpt><trkpt lat="46.37686399967039" lon="12.271612579140804"><ele>1380.6</ele><time>2026-04-12T13:16:01.951Z</time></trkpt><trkpt lat="46.37679607622313" lon="12.271580523762722"><ele>1379.4</ele><time>2026-04-12T13:16:02.951Z</time></trkpt><trkpt lat="46.37673031440179" lon="12.27146121884817"><ele>1378.1999999999998</ele><time>2026-04-12T13:16:03.951Z</time></trkpt><trkpt lat="46.37670175833333" lon="12.271318650012613"><ele>1377.0</ele><time>2026-04-12T13:16:04.951Z</time></trkpt><trkpt lat="46.376694966737055" lon="12.271156749848213"><ele>1377.0</ele><time>2026-04-12T13:16:05.951Z</time></trkpt><trkpt lat="46.37670769040527" lon="12.270985042840033"><ele>1377.0</ele><time>2026-04-12T13:16:06.951Z</time></trkpt><trkpt lat="46.37670631601565" lon="12.270795750035333"><ele>1377.0</ele><time>2026-04-12T13:16:07.951Z</time></trkpt><trkpt lat="46.37666554827725" lon="12.270625323289837"><ele>1377.0</ele><time>2026-04-12T13:16:08.951Z</time></trkpt><trkpt lat="46.37658496486871" lon="12.27046047467506"><ele>1378.0</ele><time>2026-04-12T13:16:09.951Z</time></trkpt><trkpt lat="46.37647390270036" lon="12.270323921571984"><ele>1379.0</ele><time>2026-04-12T13:16:10.951Z</time></trkpt><trkpt lat="46.37634924906534" lon="12.270230025681053"><ele>1380.0</ele><time>2026-04-12T13:16:11.951Z</time></trkpt><trkpt lat="46.37624313891426" lon="12.270126225488706"><ele>1381.0</ele><time>2026-04-12T13:16:12.951Z</time></trkpt><trkpt lat="46.37618536882183" lon="12.269955766555329"><ele>1381.0</ele><time>2026-04-12T13:16:13.951Z</time></trkpt><trkpt lat="46.37612536036662" lon="12.269810239481245"><ele>1381.0</ele><time>2026-04-12T13:16:14.951Z</time></trkpt><trkpt lat="46.37606611666879" lon="12.269683715062191"><ele>1381.0</ele><time>2026-04-12T13:16:15.951Z</time></trkpt><trkpt lat="46.376020015950814" lon="12.269594628580464"><ele>1381.0</ele><time>2026-04-12T13:16:16.951Z</time></trkpt><trkpt lat="46.375986477930354" lon="12.269501630397558"><ele>1381.0</ele><time>2026-04-12T13:16:17.951Z</time></trkpt><trkpt lat="46.37605709740483" lon="12.269348397972617"><ele>1383.1666666666665</ele><time>2026-04-12T13:16:19.951Z</time></trkpt><trkpt lat="46.37612932013109" lon="12.269335599388537"><ele>1385.3333333333333</ele><time>2026-04-12T13:16:20.951Z</time></trkpt><trkpt lat="46.376209628155195" lon="12.269399057555198"><ele>1387.5</ele><time>2026-04-12T13:16:21.951Z</time></trkpt><trkpt lat="46.376262592663366" lon="12.269502670452523"><ele>1389.6666666666667</ele><time>2026-04-12T13:16:22.951Z</time></trkpt><trkpt lat="46.37634849385248" lon="12.269598096698815"><ele>1391.8333333333335</ele><time>2026-04-12T13:16:23.951Z</time></trkpt><trkpt lat="46.37643235989703" lon="12.269633977376044"><ele>1394.0</ele><time>2026-04-12T13:16:24.951Z</time></trkpt><trkpt lat="46.37653181945219" lon="12.269610145246691"><ele>1396.5</ele><time>2026-04-12T13:16:25.951Z</time></trkpt><trkpt lat="46.37663838921883" lon="12.269545529404692"><ele>1399.0</ele><time>2026-04-12T13:16:26.951Z</time></trkpt><trkpt lat="46.37676401878252" lon="12.269448026207042"><ele>1401.5</ele><time>2026-04-12T13:16:27.951Z</time></trkpt><trkpt lat="46.37690429131421" lon="12.269355312800448"><ele>1404.0</ele><time>2026-04-12T13:16:28.951Z</time></trkpt><trkpt lat="46.37705394042832" lon="12.269263291191"><ele>1404.0</ele><time>2026-04-12T13:16:29.951Z</time></trkpt><trkpt lat="46.37717523817893" lon="12.269186716229976"><ele>1404.0</ele><time>2026-04-12T13:16:30.951Z</time></trkpt><trkpt lat="46.377282266225855" lon="12.269141899546373"><ele>1404.0</ele><time>2026-04-12T13:16:31.952Z</time></trkpt><trkpt lat="46.37735726618656" lon="12.269071555650354"><ele>1404.0</ele><time>2026-04-12T13:16:32.952Z</time></trkpt><trkpt lat="46.37743464343887" lon="12.268968769091092"><ele>1404.0</ele><time>2026-04-12T13:16:33.952Z</time></trkpt><trkpt lat="46.37749080715931" lon="12.268861696115525"><ele>1408.0</ele><time>2026-04-12T13:16:34.952Z</time></trkpt><trkpt lat="46.37753946683223" lon="12.268740434418481"><ele>1412.0</ele><time>2026-04-12T13:16:35.952Z</time></trkpt><trkpt lat="46.37760259378671" lon="12.268622100397582"><ele>1416.0</ele><time>2026-04-12T13:16:36.952Z</time></trkpt><trkpt lat="46.37768525086932" lon="12.268520529894339"><ele>1420.0</ele><time>2026-04-12T13:16:37.952Z</time></trkpt><trkpt lat="46.37778270861313" lon="12.268447245230314"><ele>1424.0</ele><time>2026-04-12T13:16:38.952Z</time></trkpt><trkpt lat="46.37789391901279" lon="12.268414433203082"><ele>1424.0</ele><time>2026-04-12T13:16:39.952Z</time></trkpt><trkpt lat="46.378005843432454" lon="12.268400496922212"><ele>1424.0</ele><time>2026-04-12T13:16:40.952Z</time></trkpt><trkpt lat="46.378129954904274" lon="12.268424464301887"><ele>1424.0</ele><time>2026-04-12T13:16:41.952Z</time></trkpt><trkpt lat="46.37826465095495" lon="12.268476180784718"><ele>1424.0</ele><time>2026-04-12T13:16:42.952Z</time></trkpt><trkpt lat="46.37840176840119" lon="12.2685517988488"><ele>1425.25</ele><time>2026-04-12T13:16:43.952Z</time></trkpt><trkpt lat="46.37852118218002" lon="12.268657949442865"><ele>1426.5</ele><time>2026-04-12T13:16:44.952Z</time></trkpt><trkpt lat="46.37862553747187" lon="12.268744544822491"><ele>1427.75</ele><time>2026-04-12T13:16:45.952Z</time></trkpt><trkpt lat="46.37872749653848" lon="12.268791101533017"><ele>1429.0</ele><time>2026-04-12T13:16:46.952Z</time></trkpt><trkpt lat="46.378847020750264" lon="12.268789603451243"><ele>1432.25</ele><time>2026-04-12T13:16:47.952Z</time></trkpt><trkpt lat="46.3789775485997" lon="12.268776959497915"><ele>1435.5</ele><time>2026-04-12T13:16:48.952Z</time></trkpt><trkpt lat="46.37912336335811" lon="12.268771253367907"><ele>1438.75</ele><time>2026-04-12T13:16:49.952Z</time></trkpt><trkpt lat="46.3792628901945" lon="12.268785067031295"><ele>1442.0</ele><time>2026-04-12T13:16:50.952Z</time></trkpt><trkpt lat="46.3793888425285" lon="12.26882548603995"><ele>1442.0</ele><time>2026-04-12T13:16:51.952Z</time></trkpt><trkpt lat="46.3795073097647" lon="12.268901251826993"><ele>1442.0</ele><time>2026-04-12T13:16:52.952Z</time></trkpt><trkpt lat="46.37962571316655" lon="12.268934085789663"><ele>1442.0</ele><time>2026-04-12T13:16:53.952Z</time></trkpt><trkpt lat="46.37975195861153" lon="12.268926499651059"><ele>1442.0</ele><time>2026-04-12T13:16:54.952Z</time></trkpt><trkpt lat="46.379889442235054" lon="12.26889106290765"><ele>1443.25</ele><time>2026-04-12T13:16:55.952Z</time></trkpt><trkpt lat="46.38003406307304" lon="12.26883613110019"><ele>1444.5</ele><time>2026-04-12T13:16:56.952Z</time></trkpt><trkpt lat="46.38015015078102" lon="12.268777046294588"><ele>1445.75</ele><time>2026-04-12T13:16:57.952Z</time></trkpt><trkpt lat="46.38024946430963" lon="12.26875353365815"><ele>1447.0</ele><time>2026-04-12T13:16:58.952Z</time></trkpt><trkpt lat="46.380349806405555" lon="12.268800441506093"><ele>1447.0</ele><time>2026-04-12T13:16:59.952Z</time></trkpt><trkpt lat="46.38043619561772" lon="12.268810337004544"><ele>1447.0</ele><time>2026-04-12T13:17:00.952Z</time></trkpt><trkpt lat="46.38054407233484" lon="12.268705628183083"><ele>1447.0</ele><time>2026-04-12T13:17:02.952Z</time></trkpt><trkpt lat="46.38056339158314" lon="12.26858242155026"><ele>1447.0</ele><time>2026-04-12T13:17:03.952Z</time></trkpt><trkpt lat="46.3804998198014" lon="12.268449332714427"><ele>1447.0</ele><time>2026-04-12T13:17:04.952Z</time></trkpt><trkpt lat="46.380385253795474" lon="12.268384370082167"><ele>1447.0</ele><time>2026-04-12T13:17:05.952Z</time></trkpt><trkpt lat="46.38025431859425" lon="12.268320310999885"><ele>1447.0</ele><time>2026-04-12T13:17:06.952Z</time></trkpt><trkpt lat="46.380103426088326" lon="12.268244072723773"><ele>1447.0</ele><time>2026-04-12T13:17:07.952Z</time></trkpt><trkpt lat="46.37997926844653" lon="12.268237800854056"><ele>1447.0</ele><time>2026-04-12T13:17:08.952Z</time></trkpt><trkpt lat="46.379872804010446" lon="12.268225432668691"><ele>1447.0</ele><time>2026-04-12T13:17:09.952Z</time></trkpt><trkpt lat="46.37980488017981" lon="12.268208876844023"><ele>1447.0</ele><time>2026-04-12T13:17:10.952Z</time></trkpt><trkpt lat="46.37973829699212" lon="12.26817045050292"><ele>1447.0</ele><time>2026-04-12T13:17:11.952Z</time></trkpt><trkpt lat="46.37969391376842" lon="12.268065433060231"><ele>1447.0</ele><time>2026-04-12T13:17:12.952Z</time></trkpt><trkpt lat="46.37962392059772" lon="12.267923156102123"><ele>1447.0</ele><time>2026-04-12T13:17:13.952Z</time></trkpt><trkpt lat="46.37953840964069" lon="12.26774938767775"><ele>1450.6666666666665</ele><time>2026-04-12T13:17:14.952Z</time></trkpt><trkpt lat="46.37944184192907" lon="12.267545150875124"><ele>1454.3333333333333</ele><time>2026-04-12T13:17:15.952Z</time></trkpt><trkpt lat="46.379333159271106" lon="12.267315561659501"><ele>1458.0</ele><time>2026-04-12T13:17:16.952Z</time></trkpt><trkpt lat="46.379222789895465" lon="12.267083953682477"><ele>1459.75</ele><time>2026-04-12T13:17:17.952Z</time></trkpt><trkpt lat="46.37912914182399" lon="12.266892133803042"><ele>1461.5</ele><time>2026-04-12T13:17:18.952Z</time></trkpt><trkpt lat="46.37904539449174" lon="12.266746403904259"><ele>1463.25</ele><time>2026-04-12T13:17:19.952Z</time></trkpt><trkpt lat="46.37896339099483" lon="12.26663774847082"><ele>1465.0</ele><time>2026-04-12T13:17:20.952Z</time></trkpt><trkpt lat="46.37887772442711" lon="12.266532437091477"><ele>1464.8</ele><time>2026-04-12T13:17:21.952Z</time></trkpt><trkpt lat="46.378800557041906" lon="12.266425306658986"><ele>1464.6</ele><time>2026-04-12T13:17:22.952Z</time></trkpt><trkpt lat="46.37875160475006" lon="12.266300622804497"><ele>1464.4</ele><time>2026-04-12T13:17:23.952Z</time></trkpt><trkpt lat="46.378742628474775" lon="12.26615208959668"><ele>1464.2</ele><time>2026-04-12T13:17:24.952Z</time></trkpt><trkpt lat="46.378756185957116" lon="12.265985158573514"><ele>1464.0</ele><time>2026-04-12T13:17:25.952Z</time></trkpt><trkpt lat="46.37876563966977" lon="12.265783397678439"><ele>1466.6666666666667</ele><time>2026-04-12T13:17:26.952Z</time></trkpt><trkpt lat="46.37877106911966" lon="12.265555614259775"><ele>1469.3333333333335</ele><time>2026-04-12T13:17:27.952Z</time></trkpt><trkpt lat="46.378749496922765" lon="12.265340481201637"><ele>1472.0</ele><time>2026-04-12T13:17:28.952Z</time></trkpt><trkpt lat="46.37868686391047" lon="12.265125542384522"><ele>1472.0</ele><time>2026-04-12T13:17:29.952Z</time></trkpt><trkpt lat="46.37857893558566" lon="12.264934513061096"><ele>1472.0</ele><time>2026-04-12T13:17:30.952Z</time></trkpt><trkpt lat="46.37849094601335" lon="12.264704653817109"><ele>1472.0</ele><time>2026-04-12T13:17:31.952Z</time></trkpt><trkpt lat="46.37838163138986" lon="12.264474941920199"><ele>1477.6666666666667</ele><time>2026-04-12T13:17:32.952Z</time></trkpt><trkpt lat="46.37827906986094" lon="12.264260055002374"><ele>1483.3333333333333</ele><time>2026-04-12T13:17:33.952Z</time></trkpt><trkpt lat="46.37819621943101" lon="12.264080705889569"><ele>1489.0</ele><time>2026-04-12T13:17:34.952Z</time></trkpt><trkpt lat="46.378123532145764" lon="12.2639240655582"><ele>1493.0</ele><time>2026-04-12T13:17:35.952Z</time></trkpt><trkpt lat="46.378032801879264" lon="12.263766573549606"><ele>1497.0</ele><time>2026-04-12T13:17:36.952Z</time></trkpt><trkpt lat="46.377917059458056" lon="12.263639665018783"><ele>1501.0</ele><time>2026-04-12T13:17:37.952Z</time></trkpt><trkpt lat="46.377793495767364" lon="12.26351549936048"><ele>1505.0</ele><time>2026-04-12T13:17:38.952Z</time></trkpt><trkpt lat="46.377647367182114" lon="12.263435474892448"><ele>1505.0</ele><time>2026-04-12T13:17:39.952Z</time></trkpt><trkpt lat="46.377482889453965" lon="12.263355925328648"><ele>1505.0</ele><time>2026-04-12T13:17:40.952Z</time></trkpt><trkpt lat="46.377288252539095" lon="12.263323318075702"><ele>1505.0</ele><time>2026-04-12T13:17:41.952Z</time></trkpt><trkpt lat="46.37713638237484" lon="12.263287342910639"><ele>1504.25</ele><time>2026-04-12T13:17:42.952Z</time></trkpt><trkpt lat="46.37700620249383" lon="12.263216978911133"><ele>1503.5</ele><time>2026-04-12T13:17:43.952Z</time></trkpt><trkpt lat="46.37688733831865" lon="12.26314072465742"><ele>1502.75</ele><time>2026-04-12T13:17:44.952Z</time></trkpt><trkpt lat="46.37679462346152" lon="12.263086895719763"><ele>1502.0</ele><time>2026-04-12T13:17:45.952Z</time></trkpt><trkpt lat="46.37667844453735" lon="12.263075712989263"><ele>1504.25</ele><time>2026-04-12T13:17:46.952Z</time></trkpt><trkpt lat="46.37654935955743" lon="12.263075816689014"><ele>1506.5</ele><time>2026-04-12T13:17:47.952Z</time></trkpt><trkpt lat="46.37642554351139" lon="12.26309399674567"><ele>1508.75</ele><time>2026-04-12T13:17:48.952Z</time></trkpt><trkpt lat="46.37629508639288" lon="12.26311624240413"><ele>1511.0</ele><time>2026-04-12T13:17:49.952Z</time></trkpt><trkpt lat="46.37615276023401" lon="12.263179108119328"><ele>1511.0</ele><time>2026-04-12T13:17:50.952Z</time></trkpt><trkpt lat="46.37600629894883" lon="12.263213376576372"><ele>1511.0</ele><time>2026-04-12T13:17:51.952Z</time></trkpt><trkpt lat="46.37585717998708" lon="12.263280469659565"><ele>1511.0</ele><time>2026-04-12T13:17:52.952Z</time></trkpt><trkpt lat="46.3757006606501" lon="12.263380256324936"><ele>1511.0</ele><time>2026-04-12T13:17:53.952Z</time></trkpt><trkpt lat="46.375552000448366" lon="12.263486830928505"><ele>1511.0</ele><time>2026-04-12T13:17:54.952Z</time></trkpt><trkpt lat="46.375406168744284" lon="12.263568035111568"><ele>1511.0</ele><time>2026-04-12T13:17:55.952Z</time></trkpt><trkpt lat="46.375276110694884" lon="12.263656258457244"><ele>1513.4</ele><time>2026-04-12T13:17:56.952Z</time></trkpt><trkpt lat="46.375160092632974" lon="12.263761522043021"><ele>1515.8</ele><time>2026-04-12T13:17:57.952Z</time></trkpt><trkpt lat="46.37504591506535" lon="12.263799688064204"><ele>1518.2</ele><time>2026-04-12T13:17:58.952Z</time></trkpt><trkpt lat="46.3749505518899" lon="12.263832272083478"><ele>1520.6000000000001</ele><time>2026-04-12T13:17:59.952Z</time></trkpt><trkpt lat="46.37486538091745" lon="12.263838012497482"><ele>1523.0</ele><time>2026-04-12T13:18:00.952Z</time></trkpt><trkpt lat="46.37477216588601" lon="12.263821857269646"><ele>1518.75</ele><time>2026-04-12T13:18:01.952Z</time></trkpt><trkpt lat="46.37465750566547" lon="12.263768075465537"><ele>1514.5</ele><time>2026-04-12T13:18:02.952Z</time></trkpt><trkpt lat="46.37454712789858" lon="12.263688312780783"><ele>1510.25</ele><time>2026-04-12T13:18:03.952Z</time></trkpt><trkpt lat="46.374474484094456" lon="12.26357168841346"><ele>1506.0</ele><time>2026-04-12T13:18:04.952Z</time></trkpt><trkpt lat="46.37444022483835" lon="12.263419577175357"><ele>1506.0</ele><time>2026-04-12T13:18:05.952Z</time></trkpt><trkpt lat="46.37440096942249" lon="12.263274688844621"><ele>1506.0</ele><time>2026-04-12T13:18:06.952Z</time></trkpt><trkpt lat="46.37438761406836" lon="12.263126793391798"><ele>1506.0</ele><time>2026-04-12T13:18:07.952Z</time></trkpt><trkpt lat="46.37438936303672" lon="12.26295323699005"><ele>1506.0</ele><time>2026-04-12T13:18:08.952Z</time></trkpt><trkpt lat="46.37439909812328" lon="12.262761138667674"><ele>1508.0</ele><time>2026-04-12T13:18:09.952Z</time></trkpt><trkpt lat="46.374406122217636" lon="12.26256724812802"><ele>1510.0</ele><time>2026-04-12T13:18:10.952Z</time></trkpt><trkpt lat="46.37443218666329" lon="12.262403104963076"><ele>1512.0</ele><time>2026-04-12T13:18:11.952Z</time></trkpt><trkpt lat="46.374480926941885" lon="12.262230409653283"><ele>1514.0</ele><time>2026-04-12T13:18:12.952Z</time></trkpt><trkpt lat="46.3745528307189" lon="12.262061855591824"><ele>1514.25</ele><time>2026-04-12T13:18:13.952Z</time></trkpt><trkpt lat="46.374624469464344" lon="12.261879218658306"><ele>1514.5</ele><time>2026-04-12T13:18:14.952Z</time></trkpt><trkpt lat="46.37467305649606" lon="12.26170497900326"><ele>1514.75</ele><time>2026-04-12T13:18:15.952Z</time></trkpt><trkpt lat="46.37470845489846" lon="12.261519950260741"><ele>1515.0</ele><time>2026-04-12T13:18:16.952Z</time></trkpt><trkpt lat="46.37471689006874" lon="12.261344129335454"><ele>1521.5</ele><time>2026-04-12T13:18:17.952Z</time></trkpt><trkpt lat="46.374719407933156" lon="12.26117301818407"><ele>1528.0</ele><time>2026-04-12T13:18:18.952Z</time></trkpt><trkpt lat="46.37472906180248" lon="12.261008062819531"><ele>1534.5</ele><time>2026-04-12T13:18:19.952Z</time></trkpt><trkpt lat="46.37474203349814" lon="12.260848760749642"><ele>1541.0</ele><time>2026-04-12T13:18:20.952Z</time></trkpt><trkpt lat="46.37476097542839" lon="12.260691885773237"><ele>1541.3333333333333</ele><time>2026-04-12T13:18:21.952Z</time></trkpt><trkpt lat="46.374769036046516" lon="12.260569782066446"><ele>1541.6666666666665</ele><time>2026-04-12T13:18:22.952Z</time></trkpt><trkpt lat="46.37477146425252" lon="12.260468992269843"><ele>1542.0</ele><time>2026-04-12T13:18:23.952Z</time></trkpt><trkpt lat="46.37476455866451" lon="12.260371761728436"><ele>1542.3333333333335</ele><time>2026-04-12T13:18:24.952Z</time></trkpt><trkpt lat="46.37472945153327" lon="12.260236310448896"><ele>1542.6666666666667</ele><time>2026-04-12T13:18:26.952Z</time></trkpt><trkpt lat="46.37468544135186" lon="12.260158472627893"><ele>1543.0</ele><time>2026-04-12T13:18:28.952Z</time></trkpt><trkpt lat="46.3746164541101" lon="12.26016260351575"><ele>1542.2</ele><time>2026-04-12T13:26:12.955Z</time></trkpt><trkpt lat="46.3745472620189" lon="12.26007772743724"><ele>1541.4</ele><time>2026-04-12T13:26:13.955Z</time></trkpt><trkpt lat="46.37447830292442" lon="12.259945349819512"><ele>1540.6000000000001</ele><time>2026-04-12T13:26:14.955Z</time></trkpt><trkpt lat="46.374418268662495" lon="12.259845966604141"><ele>1539.8000000000002</ele><time>2026-04-12T13:26:15.955Z</time></trkpt><trkpt lat="46.37436422491848" lon="12.259762762340936"><ele>1539.0</ele><time>2026-04-12T13:26:16.955Z</time></trkpt><trkpt lat="46.37430573482025" lon="12.259674206058632"><ele>1539.0</ele><time>2026-04-12T13:26:17.955Z</time></trkpt><trkpt lat="46.37423866777893" lon="12.259577549640573"><ele>1539.0</ele><time>2026-04-12T13:26:18.955Z</time></trkpt><trkpt lat="46.37419196533967" lon="12.259487095938283"><ele>1539.0</ele><time>2026-04-12T13:26:19.955Z</time></trkpt><trkpt lat="46.37416382318194" lon="12.259404410497567"><ele>1539.0</ele><time>2026-04-12T13:26:20.955Z</time></trkpt><trkpt lat="46.37414388801318" lon="12.25930982796904"><ele>1539.0</ele><time>2026-04-12T13:26:21.955Z</time></trkpt><trkpt lat="46.37415967586688" lon="12.259138329021711"><ele>1539.0</ele><time>2026-04-12T13:26:23.955Z</time></trkpt><trkpt lat="46.37420630884537" lon="12.259032726152943"><ele>1539.8000000000002</ele><time>2026-04-12T13:26:24.955Z</time></trkpt><trkpt lat="46.37427090103981" lon="12.258915395960045"><ele>1540.6000000000001</ele><time>2026-04-12T13:26:25.955Z</time></trkpt><trkpt lat="46.374340183776354" lon="12.258782579314436"><ele>1541.4</ele><time>2026-04-12T13:26:26.955Z</time></trkpt><trkpt lat="46.37437677253959" lon="12.258678730209471"><ele>1542.2</ele><time>2026-04-12T13:26:27.955Z</time></trkpt><trkpt lat="46.3743953256695" lon="12.258575617069367"><ele>1543.0</ele><time>2026-04-12T13:26:28.955Z</time></trkpt><trkpt lat="46.37439365790535" lon="12.258441407384083"><ele>1543.0</ele><time>2026-04-12T13:26:29.955Z</time></trkpt><trkpt lat="46.37439288755886" lon="12.25829597116374"><ele>1543.0</ele><time>2026-04-12T13:26:30.955Z</time></trkpt><trkpt lat="46.37438326220936" lon="12.258113207743211"><ele>1543.0</ele><time>2026-04-12T13:26:31.955Z</time></trkpt><trkpt lat="46.37439970702201" lon="12.257924827022409"><ele>1543.0</ele><time>2026-04-12T13:26:32.955Z</time></trkpt><trkpt lat="46.37440275342064" lon="12.257751900209326"><ele>1542.8000000000002</ele><time>2026-04-12T13:26:33.955Z</time></trkpt><trkpt lat="46.37440602308105" lon="12.257604912545185"><ele>1542.6</ele><time>2026-04-12T13:26:34.955Z</time></trkpt><trkpt lat="46.37440941252965" lon="12.257452540213443"><ele>1542.4</ele><time>2026-04-12T13:26:35.955Z</time></trkpt><trkpt lat="46.37441266670105" lon="12.257285592017546"><ele>1542.1999999999998</ele><time>2026-04-12T13:26:36.955Z</time></trkpt><trkpt lat="46.37441386214583" lon="12.257157338248936"><ele>1542.0</ele><time>2026-04-12T13:26:37.955Z</time></trkpt><trkpt lat="46.37441266411654" lon="12.25701119637225"><ele>1541.6666666666665</ele><time>2026-04-12T13:26:38.955Z</time></trkpt><trkpt lat="46.37441435596649" lon="12.256747681663109"><ele>1541.3333333333333</ele><time>2026-04-12T13:26:39.955Z</time></trkpt><trkpt lat="46.374422672346554" lon="12.256470041546743"><ele>1541.0</ele><time>2026-04-12T13:26:40.955Z</time></trkpt><trkpt lat="46.37442589677413" lon="12.256181162852442"><ele>1540.1999999999998</ele><time>2026-04-12T13:26:41.955Z</time></trkpt><trkpt lat="46.374367818918984" lon="12.256257762333812"><ele>1539.3999999999999</ele><time>2026-04-12T13:26:42.955Z</time></trkpt><trkpt lat="46.37434664742775" lon="12.256093622815108"><ele>1538.6</ele><time>2026-04-12T13:26:43.955Z</time></trkpt><trkpt lat="46.37431692145427" lon="12.255943615223018"><ele>1537.8</ele><time>2026-04-12T13:26:44.955Z</time></trkpt><trkpt lat="46.37427378309997" lon="12.255796847592162"><ele>1537.0</ele><time>2026-04-12T13:26:45.955Z</time></trkpt><trkpt lat="46.3742408015774" lon="12.255675783617543"><ele>1535.0</ele><time>2026-04-12T13:26:46.955Z</time></trkpt><trkpt lat="46.374215388150965" lon="12.255556664015112"><ele>1533.0</ele><time>2026-04-12T13:26:47.955Z</time></trkpt><trkpt lat="46.374239080408046" lon="12.255429859593558"><ele>1531.0</ele><time>2026-04-12T13:26:48.955Z</time></trkpt><trkpt lat="46.37427009727012" lon="12.255315830332341"><ele>1529.0</ele><time>2026-04-12T13:26:49.955Z</time></trkpt><trkpt lat="46.37431870085362" lon="12.255197859918669"><ele>1527.0</ele><time>2026-04-12T13:26:50.955Z</time></trkpt><trkpt lat="46.374372513379555" lon="12.255072995238708"><ele>1527.0</ele><time>2026-04-12T13:26:51.955Z</time></trkpt><trkpt lat="46.37442224452084" lon="12.254951504713903"><ele>1527.0</ele><time>2026-04-12T13:26:52.955Z</time></trkpt><trkpt lat="46.37446589744405" lon="12.254834064218619"><ele>1527.0</ele><time>2026-04-12T13:26:53.955Z</time></trkpt><trkpt lat="46.37450007679246" lon="12.254700737324326"><ele>1527.0</ele><time>2026-04-12T13:26:54.955Z</time></trkpt><trkpt lat="46.37452568572059" lon="12.254579182322782"><ele>1527.0</ele><time>2026-04-12T13:26:55.955Z</time></trkpt><trkpt lat="46.37453153958328" lon="12.25445021817459"><ele>1524.0</ele><time>2026-04-12T13:26:56.955Z</time></trkpt><trkpt lat="46.37452084466999" lon="12.254324598800887"><ele>1521.0</ele><time>2026-04-12T13:26:57.955Z</time></trkpt><trkpt lat="46.3745050153117" lon="12.254187068067477"><ele>1518.0</ele><time>2026-04-12T13:26:58.955Z</time></trkpt><trkpt lat="46.374498361125774" lon="12.2540282520543"><ele>1515.0</ele><time>2026-04-12T13:26:59.955Z</time></trkpt><trkpt lat="46.37447548594388" lon="12.253860348477978"><ele>1512.0</ele><time>2026-04-12T13:27:00.955Z</time></trkpt><trkpt lat="46.37447994440479" lon="12.253686403610958"><ele>1509.5</ele><time>2026-04-12T13:27:01.956Z</time></trkpt><trkpt lat="46.3744628159632" lon="12.253510870201568"><ele>1507.0</ele><time>2026-04-12T13:27:02.956Z</time></trkpt><trkpt lat="46.37447753412071" lon="12.253318784177402"><ele>1504.5</ele><time>2026-04-12T13:27:03.956Z</time></trkpt><trkpt lat="46.37447876258541" lon="12.253121097892913"><ele>1502.0</ele><time>2026-04-12T13:27:04.956Z</time></trkpt><trkpt lat="46.37446290682133" lon="12.252917682519378"><ele>1501.0</ele><time>2026-04-12T13:27:05.956Z</time></trkpt><trkpt lat="46.37446194790696" lon="12.25271331638789"><ele>1500.0</ele><time>2026-04-12T13:27:06.956Z</time></trkpt><trkpt lat="46.37444193955985" lon="12.252501371525444"><ele>1499.0</ele><time>2026-04-12T13:27:07.956Z</time></trkpt><trkpt lat="46.37437878688185" lon="12.25233195974973"><ele>1498.0</ele><time>2026-04-12T13:27:08.956Z</time></trkpt><trkpt lat="46.37435924909286" lon="12.252205672530287"><ele>1497.4</ele><time>2026-04-12T13:27:09.956Z</time></trkpt><trkpt lat="46.374325572596945" lon="12.252099361678734"><ele>1496.8000000000002</ele><time>2026-04-12T13:27:10.956Z</time></trkpt><trkpt lat="46.374324221001515" lon="12.251960132670055"><ele>1496.2</ele><time>2026-04-12T13:27:11.956Z</time></trkpt><trkpt lat="46.37432483458719" lon="12.2518601996298"><ele>1495.6</ele><time>2026-04-12T13:27:12.956Z</time></trkpt><trkpt lat="46.37432736975086" lon="12.251699453627605"><ele>1495.0</ele><time>2026-04-12T13:27:13.956Z</time></trkpt><trkpt lat="46.37435785944162" lon="12.251517614919331"><ele>1494.2</ele><time>2026-04-12T13:27:14.956Z</time></trkpt><trkpt lat="46.374343992634444" lon="12.25137017886699"><ele>1493.4</ele><time>2026-04-12T13:27:15.956Z</time></trkpt><trkpt lat="46.37428446570876" lon="12.251214625141943"><ele>1492.6</ele><time>2026-04-12T13:27:16.956Z</time></trkpt><trkpt lat="46.37424033214082" lon="12.251065623925694"><ele>1491.8</ele><time>2026-04-12T13:27:17.956Z</time></trkpt><trkpt lat="46.37419067972113" lon="12.250949983980743"><ele>1491.0</ele><time>2026-04-12T13:27:18.956Z</time></trkpt><trkpt lat="46.37415556642985" lon="12.250842073956846"><ele>1491.0</ele><time>2026-04-12T13:27:19.956Z</time></trkpt><trkpt lat="46.374130763828056" lon="12.25072701260457"><ele>1491.0</ele><time>2026-04-12T13:27:20.956Z</time></trkpt><trkpt lat="46.374130139000144" lon="12.250611076741194"><ele>1491.0</ele><time>2026-04-12T13:27:21.956Z</time></trkpt><trkpt lat="46.37416514434313" lon="12.250479597624997"><ele>1491.0</ele><time>2026-04-12T13:27:22.956Z</time></trkpt><trkpt lat="46.374204013730164" lon="12.250317668574379"><ele>1491.0</ele><time>2026-04-12T13:27:23.956Z</time></trkpt><trkpt lat="46.374201380166916" lon="12.250152537013044"><ele>1489.6</ele><time>2026-04-12T13:27:24.956Z</time></trkpt><trkpt lat="46.37419222158305" lon="12.25000957799333"><ele>1488.1999999999998</ele><time>2026-04-12T13:27:25.956Z</time></trkpt><trkpt lat="46.37417121525557" lon="12.249844589521144"><ele>1486.8000000000002</ele><time>2026-04-12T13:27:26.956Z</time></trkpt><trkpt lat="46.37416970659617" lon="12.249687960175926"><ele>1485.4</ele><time>2026-04-12T13:27:27.956Z</time></trkpt><trkpt lat="46.37414995642471" lon="12.249558108398602"><ele>1484.0</ele><time>2026-04-12T13:27:28.956Z</time></trkpt><trkpt lat="46.3741802613273" lon="12.249427340674295"><ele>1482.5</ele><time>2026-04-12T13:27:29.956Z</time></trkpt><trkpt lat="46.3742348669171" lon="12.249255294157866"><ele>1481.0</ele><time>2026-04-12T13:27:30.956Z</time></trkpt><trkpt lat="46.374326049359404" lon="12.24909695847812"><ele>1479.5</ele><time>2026-04-12T13:27:31.956Z</time></trkpt><trkpt lat="46.37437505652933" lon="12.248948720417378"><ele>1478.0</ele><time>2026-04-12T13:27:32.956Z</time></trkpt><trkpt lat="46.37439463768503" lon="12.248796093001427"><ele>1475.25</ele><time>2026-04-12T13:27:33.956Z</time></trkpt><trkpt lat="46.37441524224404" lon="12.248584846692458"><ele>1472.5</ele><time>2026-04-12T13:27:34.956Z</time></trkpt><trkpt lat="46.374430205048874" lon="12.248366391275008"><ele>1469.75</ele><time>2026-04-12T13:27:35.956Z</time></trkpt><trkpt lat="46.374436171654416" lon="12.24817869118453"><ele>1467.0</ele><time>2026-04-12T13:27:36.956Z</time></trkpt><trkpt lat="46.37445105100201" lon="12.2479869900648"><ele>1464.75</ele><time>2026-04-12T13:27:37.956Z</time></trkpt><trkpt lat="46.37447023101755" lon="12.247780576073788"><ele>1462.5</ele><time>2026-04-12T13:27:38.956Z</time></trkpt><trkpt lat="46.37449306603978" lon="12.247607864399313"><ele>1460.25</ele><time>2026-04-12T13:27:39.956Z</time></trkpt><trkpt lat="46.374501757477894" lon="12.247421356679908"><ele>1458.0</ele><time>2026-04-12T13:27:40.956Z</time></trkpt><trkpt lat="46.37451526067097" lon="12.247246667203525"><ele>1456.2</ele><time>2026-04-12T13:27:41.956Z</time></trkpt><trkpt lat="46.37453811786207" lon="12.247112839898875"><ele>1454.4</ele><time>2026-04-12T13:27:42.956Z</time></trkpt><trkpt lat="46.37456968261339" lon="12.246986110390104"><ele>1452.6000000000001</ele><time>2026-04-12T13:27:43.956Z</time></trkpt><trkpt lat="46.374637170749374" lon="12.246871527870043"><ele>1450.8000000000002</ele><time>2026-04-12T13:27:44.956Z</time></trkpt><trkpt lat="46.374689667402535" lon="12.246757009451336"><ele>1449.0</ele><time>2026-04-12T13:27:45.956Z</time></trkpt><trkpt lat="46.37482544321684" lon="12.246639354795931"><ele>1452.2</ele><time>2026-04-12T13:27:46.956Z</time></trkpt><trkpt lat="46.37490662557179" lon="12.246522256108426"><ele>1455.4</ele><time>2026-04-12T13:27:47.956Z</time></trkpt><trkpt lat="46.37496287931882" lon="12.246420026043037"><ele>1458.6</ele><time>2026-04-12T13:27:48.956Z</time></trkpt><trkpt lat="46.375007297349036" lon="12.246319438709794"><ele>1461.8</ele><time>2026-04-12T13:27:49.956Z</time></trkpt><trkpt lat="46.37503670732199" lon="12.246185901257897"><ele>1465.0</ele><time>2026-04-12T13:27:50.956Z</time></trkpt><trkpt lat="46.37502895880096" lon="12.246021498488487"><ele>1465.0</ele><time>2026-04-12T13:27:51.956Z</time></trkpt><trkpt lat="46.37494778373482" lon="12.245837350174682"><ele>1465.0</ele><time>2026-04-12T13:27:52.956Z</time></trkpt><trkpt lat="46.37487372833217" lon="12.245663485012964"><ele>1465.0</ele><time>2026-04-12T13:27:53.956Z</time></trkpt><trkpt lat="46.374818960211535" lon="12.245491786946275"><ele>1465.0</ele><time>2026-04-12T13:27:54.956Z</time></trkpt><trkpt lat="46.37473654902389" lon="12.245342497532217"><ele>1458.2</ele><time>2026-04-12T13:27:55.956Z</time></trkpt><trkpt lat="46.37462579673425" lon="12.245259404112293"><ele>1451.4</ele><time>2026-04-12T13:27:56.956Z</time></trkpt><trkpt lat="46.37454143069608" lon="12.245146761757733"><ele>1444.6</ele><time>2026-04-12T13:27:57.956Z</time></trkpt><trkpt lat="46.37446603430503" lon="12.245057139396142"><ele>1437.8</ele><time>2026-04-12T13:27:58.956Z</time></trkpt><trkpt lat="46.374406588861106" lon="12.24494709364212"><ele>1431.0</ele><time>2026-04-12T13:27:59.956Z</time></trkpt><trkpt lat="46.374373940288564" lon="12.244853354853031"><ele>1429.8</ele><time>2026-04-12T13:28:00.956Z</time></trkpt><trkpt lat="46.374359462420244" lon="12.244738217736852"><ele>1428.6</ele><time>2026-04-12T13:28:01.956Z</time></trkpt><trkpt lat="46.374365380778485" lon="12.244644267684793"><ele>1427.4</ele><time>2026-04-12T13:28:02.956Z</time></trkpt><trkpt lat="46.3743973141787" lon="12.244541001070724"><ele>1426.2</ele><time>2026-04-12T13:28:03.956Z</time></trkpt><trkpt lat="46.37444105801325" lon="12.244377779525593"><ele>1425.0</ele><time>2026-04-12T13:28:04.956Z</time></trkpt><trkpt lat="46.37448104268488" lon="12.244216966752168"><ele>1425.0</ele><time>2026-04-12T13:28:05.956Z</time></trkpt><trkpt lat="46.37451791815446" lon="12.244077430818134"><ele>1425.0</ele><time>2026-04-12T13:28:06.956Z</time></trkpt><trkpt lat="46.37455331115286" lon="12.24394350355133"><ele>1425.0</ele><time>2026-04-12T13:28:07.956Z</time></trkpt><trkpt lat="46.374572808104276" lon="12.243845072423483"><ele>1425.0</ele><time>2026-04-12T13:28:08.956Z</time></trkpt><trkpt lat="46.374650146715794" lon="12.243748127023244"><ele>1425.0</ele><time>2026-04-12T13:28:09.956Z</time></trkpt><trkpt lat="46.37471345484409" lon="12.243667983076728"><ele>1428.2</ele><time>2026-04-12T13:28:10.956Z</time></trkpt><trkpt lat="46.374787648524666" lon="12.243586592326796"><ele>1431.4</ele><time>2026-04-12T13:28:11.956Z</time></trkpt><trkpt lat="46.374849671822666" lon="12.243509361921076"><ele>1434.6</ele><time>2026-04-12T13:28:12.956Z</time></trkpt><trkpt lat="46.374914826370684" lon="12.243389908848178"><ele>1437.8</ele><time>2026-04-12T13:28:13.956Z</time></trkpt><trkpt lat="46.37494014489084" lon="12.243236522316518"><ele>1441.0</ele><time>2026-04-12T13:28:14.956Z</time></trkpt><trkpt lat="46.37494400508494" lon="12.243098784512734"><ele>1442.1999999999998</ele><time>2026-04-12T13:28:15.956Z</time></trkpt><trkpt lat="46.37494065766258" lon="12.242934393880141"><ele>1443.3999999999999</ele><time>2026-04-12T13:28:16.956Z</time></trkpt><trkpt lat="46.374905899810415" lon="12.242791916050832"><ele>1444.6</ele><time>2026-04-12T13:28:17.956Z</time></trkpt><trkpt lat="46.37485227801402" lon="12.242677052736468"><ele>1445.8</ele><time>2026-04-12T13:28:18.956Z</time></trkpt><trkpt lat="46.374777162343996" lon="12.242557534714809"><ele>1447.0</ele><time>2026-04-12T13:28:19.956Z</time></trkpt><trkpt lat="46.37471084766909" lon="12.242461616877076"><ele>1439.8</ele><time>2026-04-12T13:28:20.956Z</time></trkpt><trkpt lat="46.37464951843439" lon="12.242357372292272"><ele>1432.6</ele><time>2026-04-12T13:28:21.956Z</time></trkpt><trkpt lat="46.37458410456783" lon="12.242262513854522"><ele>1425.3999999999999</ele><time>2026-04-12T13:28:22.956Z</time></trkpt><trkpt lat="46.374547551323474" lon="12.242108287473075"><ele>1418.1999999999998</ele><time>2026-04-12T13:28:23.956Z</time></trkpt><trkpt lat="46.37451860994088" lon="12.241965750670806"><ele>1411.0</ele><time>2026-04-12T13:28:24.956Z</time></trkpt><trkpt lat="46.374489621329175" lon="12.241803840434967"><ele>1411.0</ele><time>2026-04-12T13:28:25.956Z</time></trkpt><trkpt lat="46.37446456617398" lon="12.241636971623667"><ele>1411.0</ele><time>2026-04-12T13:28:26.956Z</time></trkpt><trkpt lat="46.374427201162085" lon="12.241478937114913"><ele>1411.0</ele><time>2026-04-12T13:28:27.956Z</time></trkpt><trkpt lat="46.374405639692" lon="12.241307321167724"><ele>1411.0</ele><time>2026-04-12T13:28:28.956Z</time></trkpt><trkpt lat="46.37436554756575" lon="12.241147586772682"><ele>1411.0</ele><time>2026-04-12T13:28:29.956Z</time></trkpt><trkpt lat="46.37431221741834" lon="12.24099694970806"><ele>1411.0</ele><time>2026-04-12T13:28:30.956Z</time></trkpt><trkpt lat="46.374277575638274" lon="12.24087206601492"><ele>1411.0</ele><time>2026-04-12T13:28:31.956Z</time></trkpt><trkpt lat="46.37425595632853" lon="12.240770746071247"><ele>1411.0</ele><time>2026-04-12T13:28:32.956Z</time></trkpt><trkpt lat="46.37424324564827" lon="12.240644490702723"><ele>1411.0</ele><time>2026-04-12T13:28:33.956Z</time></trkpt><trkpt lat="46.37422227010395" lon="12.240547003300625"><ele>1411.0</ele><time>2026-04-12T13:28:34.956Z</time></trkpt><trkpt lat="46.37414372986455" lon="12.240482680270143"><ele>1411.0</ele><time>2026-04-12T13:28:36.956Z</time></trkpt><trkpt lat="46.374082531923285" lon="12.240556858196532"><ele>1411.0</ele><time>2026-04-12T13:28:37.956Z</time></trkpt><trkpt lat="46.374092316018896" lon="12.240688658527619"><ele>1411.0</ele><time>2026-04-12T13:28:38.956Z</time></trkpt><trkpt lat="46.37412185104241" lon="12.240819503843676"><ele>1411.0</ele><time>2026-04-12T13:28:39.956Z</time></trkpt><trkpt lat="46.374152345556816" lon="12.240969102017486"><ele>1411.0</ele><time>2026-04-12T13:28:40.956Z</time></trkpt><trkpt lat="46.374164678927514" lon="12.2411180756472"><ele>1411.0</ele><time>2026-04-12T13:28:41.956Z</time></trkpt><trkpt lat="46.37419405319194" lon="12.241301837657739"><ele>1411.0</ele><time>2026-04-12T13:28:42.956Z</time></trkpt><trkpt lat="46.37419961756629" lon="12.241455278902079"><ele>1411.0</ele><time>2026-04-12T13:28:43.956Z</time></trkpt><trkpt lat="46.374214543865904" lon="12.24160723474189"><ele>1411.0</ele><time>2026-04-12T13:28:44.956Z</time></trkpt><trkpt lat="46.37419631826075" lon="12.241789662093453"><ele>1411.0</ele><time>2026-04-12T13:28:45.956Z</time></trkpt><trkpt lat="46.374147270851616" lon="12.241948455840118"><ele>1411.0</ele><time>2026-04-12T13:28:46.956Z</time></trkpt><trkpt lat="46.37407943512985" lon="12.242090484941045"><ele>1411.0</ele><time>2026-04-12T13:28:47.956Z</time></trkpt><trkpt lat="46.373997124117565" lon="12.242258619946922"><ele>1411.0</ele><time>2026-04-12T13:28:48.956Z</time></trkpt><trkpt lat="46.37391928189347" lon="12.242431047398155"><ele>1406.5</ele><time>2026-04-12T13:28:49.956Z</time></trkpt><trkpt lat="46.373832452685804" lon="12.242595965456943"><ele>1402.0</ele><time>2026-04-12T13:28:50.956Z</time></trkpt><trkpt lat="46.37376470706506" lon="12.2427466443262"><ele>1397.5</ele><time>2026-04-12T13:28:51.956Z</time></trkpt><trkpt lat="46.37368842036079" lon="12.242872483031771"><ele>1393.0</ele><time>2026-04-12T13:28:52.956Z</time></trkpt><trkpt lat="46.37361723894342" lon="12.242982701252622"><ele>1393.0</ele><time>2026-04-12T13:28:53.956Z</time></trkpt><trkpt lat="46.37353888694324" lon="12.243031194194574"><ele>1393.0</ele><time>2026-04-12T13:28:54.956Z</time></trkpt><trkpt lat="46.37343968059687" lon="12.243012698760527"><ele>1393.0</ele><time>2026-04-12T13:28:55.956Z</time></trkpt><trkpt lat="46.373342998446404" lon="12.242987995031429"><ele>1393.0</ele><time>2026-04-12T13:28:56.956Z</time></trkpt><trkpt lat="46.373257814057276" lon="12.242930088074097"><ele>1393.0</ele><time>2026-04-12T13:28:57.956Z</time></trkpt><trkpt lat="46.37319937565288" lon="12.24281835525616"><ele>1393.0</ele><time>2026-04-12T13:28:58.956Z</time></trkpt><trkpt lat="46.37315158811501" lon="12.242669586172294"><ele>1393.0</ele><time>2026-04-12T13:28:59.956Z</time></trkpt><trkpt lat="46.37311496101656" lon="12.242506865736608"><ele>1393.0</ele><time>2026-04-12T13:29:00.956Z</time></trkpt><trkpt lat="46.373086383045816" lon="12.242299916889637"><ele>1393.0</ele><time>2026-04-12T13:29:01.956Z</time></trkpt><trkpt lat="46.373065948376684" lon="12.242072719767261"><ele>1391.75</ele><time>2026-04-12T13:29:02.956Z</time></trkpt><trkpt lat="46.37306356914888" lon="12.241862777023329"><ele>1390.5</ele><time>2026-04-12T13:29:03.956Z</time></trkpt><trkpt lat="46.37307944224524" lon="12.241671474233987"><ele>1389.25</ele><time>2026-04-12T13:29:04.956Z</time></trkpt><trkpt lat="46.37312165702466" lon="12.241484099827263"><ele>1388.0</ele><time>2026-04-12T13:29:05.956Z</time></trkpt><trkpt lat="46.37313997972251" lon="12.241298935376816"><ele>1387.5</ele><time>2026-04-12T13:29:06.956Z</time></trkpt><trkpt lat="46.37317002269625" lon="12.24113032021044"><ele>1387.0</ele><time>2026-04-12T13:29:07.957Z</time></trkpt><trkpt lat="46.37316209592128" lon="12.240965096632127"><ele>1386.5</ele><time>2026-04-12T13:29:08.957Z</time></trkpt><trkpt lat="46.37314333371039" lon="12.240795410864592"><ele>1386.0</ele><time>2026-04-12T13:29:09.957Z</time></trkpt><trkpt lat="46.3730779419115" lon="12.240626874404416"><ele>1386.0</ele><time>2026-04-12T13:29:10.957Z</time></trkpt><trkpt lat="46.37300083421008" lon="12.240468813876578"><ele>1386.0</ele><time>2026-04-12T13:29:11.957Z</time></trkpt><trkpt lat="46.37291433656512" lon="12.240288796327244"><ele>1386.0</ele><time>2026-04-12T13:29:12.957Z</time></trkpt><trkpt lat="46.372863880253334" lon="12.240103084048721"><ele>1386.0</ele><time>2026-04-12T13:29:13.957Z</time></trkpt><trkpt lat="46.37283629664529" lon="12.239913034224472"><ele>1384.0</ele><time>2026-04-12T13:29:14.957Z</time></trkpt><trkpt lat="46.37280386549384" lon="12.239730597964876"><ele>1382.0</ele><time>2026-04-12T13:29:15.957Z</time></trkpt><trkpt lat="46.37274593979879" lon="12.23954610374419"><ele>1380.0</ele><time>2026-04-12T13:29:16.957Z</time></trkpt><trkpt lat="46.37269224970776" lon="12.239357689046473"><ele>1378.0</ele><time>2026-04-12T13:29:17.957Z</time></trkpt><trkpt lat="46.37260758835469" lon="12.239190166922505"><ele>1378.0</ele><time>2026-04-12T13:29:18.957Z</time></trkpt><trkpt lat="46.372512886446266" lon="12.23902014246613"><ele>1378.0</ele><time>2026-04-12T13:29:19.957Z</time></trkpt><trkpt lat="46.37241852687954" lon="12.23886028003633"><ele>1378.0</ele><time>2026-04-12T13:29:20.957Z</time></trkpt><trkpt lat="46.3723217595061" lon="12.238727546651196"><ele>1378.0</ele><time>2026-04-12T13:29:21.957Z</time></trkpt><trkpt lat="46.37225718784199" lon="12.238597548205073"><ele>1376.6000000000001</ele><time>2026-04-12T13:29:22.957Z</time></trkpt><trkpt lat="46.372176748143225" lon="12.23850952850182"><ele>1375.2</ele><time>2026-04-12T13:29:23.957Z</time></trkpt><trkpt lat="46.372076369074456" lon="12.23844204760854"><ele>1373.8</ele><time>2026-04-12T13:29:24.957Z</time></trkpt><trkpt lat="46.3719951260611" lon="12.238350808887098"><ele>1372.4</ele><time>2026-04-12T13:29:25.957Z</time></trkpt><trkpt lat="46.37189043794289" lon="12.2383652022119"><ele>1371.0</ele><time>2026-04-12T13:29:26.957Z</time></trkpt><trkpt lat="46.37178212150475" lon="12.238413337912476"><ele>1371.0</ele><time>2026-04-12T13:29:27.957Z</time></trkpt><trkpt lat="46.371668044455234" lon="12.238473517593285"><ele>1371.0</ele><time>2026-04-12T13:29:28.957Z</time></trkpt><trkpt lat="46.37156894166443" lon="12.2384818648849"><ele>1371.0</ele><time>2026-04-12T13:29:29.957Z</time></trkpt><trkpt lat="46.37145769416949" lon="12.238466453238871"><ele>1371.0</ele><time>2026-04-12T13:29:30.957Z</time></trkpt><trkpt lat="46.371335697970935" lon="12.23838026034947"><ele>1366.6666666666667</ele><time>2026-04-12T13:29:31.957Z</time></trkpt><trkpt lat="46.37123017798923" lon="12.238255198660536"><ele>1362.3333333333335</ele><time>2026-04-12T13:29:32.957Z</time></trkpt><trkpt lat="46.371115756394786" lon="12.238091984227184"><ele>1358.0</ele><time>2026-04-12T13:29:33.957Z</time></trkpt><trkpt lat="46.37098017720068" lon="12.23797057473166"><ele>1358.0</ele><time>2026-04-12T13:29:34.957Z</time></trkpt><trkpt lat="46.37084717576081" lon="12.237845973189845"><ele>1358.0</ele><time>2026-04-12T13:29:35.957Z</time></trkpt><trkpt lat="46.37074411356583" lon="12.23772529454601"><ele>1358.0</ele><time>2026-04-12T13:29:36.957Z</time></trkpt><trkpt lat="46.37064371439918" lon="12.237627747755017"><ele>1358.0</ele><time>2026-04-12T13:29:37.957Z</time></trkpt><trkpt lat="46.37055649896327" lon="12.237545451243726"><ele>1359.6000000000001</ele><time>2026-04-12T13:29:38.957Z</time></trkpt><trkpt lat="46.37048357637504" lon="12.2374240352524"><ele>1361.2</ele><time>2026-04-12T13:29:39.957Z</time></trkpt><trkpt lat="46.370437939548516" lon="12.237299107535065"><ele>1362.8</ele><time>2026-04-12T13:29:40.957Z</time></trkpt><trkpt lat="46.37045995520177" lon="12.237114759269677"><ele>1364.4</ele><time>2026-04-12T13:29:41.957Z</time></trkpt><trkpt lat="46.37048294066821" lon="12.236959925253384"><ele>1366.0</ele><time>2026-04-12T13:29:42.957Z</time></trkpt><trkpt lat="46.3705043714369" lon="12.236780924445345"><ele>1366.0</ele><time>2026-04-12T13:29:43.957Z</time></trkpt><trkpt lat="46.37051867847747" lon="12.23663108645489"><ele>1366.0</ele><time>2026-04-12T13:29:44.957Z</time></trkpt><trkpt lat="46.370496851273465" lon="12.236477066781891"><ele>1366.0</ele><time>2026-04-12T13:29:45.957Z</time></trkpt><trkpt lat="46.3704628517519" lon="12.23633548265699"><ele>1366.0</ele><time>2026-04-12T13:29:46.957Z</time></trkpt><trkpt lat="46.37040130966828" lon="12.2362069284331"><ele>1366.0</ele><time>2026-04-12T13:29:47.957Z</time></trkpt><trkpt lat="46.37029731928127" lon="12.236059228550086"><ele>1362.3333333333333</ele><time>2026-04-12T13:29:48.957Z</time></trkpt><trkpt lat="46.370171675524674" lon="12.235870550630652"><ele>1358.6666666666667</ele><time>2026-04-12T13:29:49.957Z</time></trkpt><trkpt lat="46.37006894731527" lon="12.235676173112696"><ele>1355.0</ele><time>2026-04-12T13:29:50.957Z</time></trkpt><trkpt lat="46.36997990490312" lon="12.235475247365448"><ele>1350.0</ele><time>2026-04-12T13:29:51.957Z</time></trkpt><trkpt lat="46.36990584953605" lon="12.235293962271943"><ele>1345.0</ele><time>2026-04-12T13:29:52.957Z</time></trkpt><trkpt lat="46.36982821217433" lon="12.23510218482293"><ele>1340.0</ele><time>2026-04-12T13:29:53.957Z</time></trkpt><trkpt lat="46.36974909385696" lon="12.234906288731267"><ele>1343.4</ele><time>2026-04-12T13:29:54.957Z</time></trkpt><trkpt lat="46.36968439004243" lon="12.23473600413439"><ele>1346.8</ele><time>2026-04-12T13:29:55.957Z</time></trkpt><trkpt lat="46.36963976168365" lon="12.234594247645743"><ele>1350.1999999999998</ele><time>2026-04-12T13:29:56.957Z</time></trkpt><trkpt lat="46.36962666624307" lon="12.234482074066655"><ele>1353.6</ele><time>2026-04-12T13:29:57.957Z</time></trkpt><trkpt lat="46.36963389114124" lon="12.234335257171384"><ele>1357.0</ele><time>2026-04-12T13:29:59.957Z</time></trkpt><trkpt lat="46.36966100106627" lon="12.234121576551235"><ele>1340.5</ele><time>2026-04-12T13:30:00.957Z</time></trkpt><trkpt lat="46.36975137963686" lon="12.233730023251841"><ele>1324.0</ele><time>2026-04-12T13:30:01.957Z</time></trkpt><trkpt lat="46.36979366446983" lon="12.233493962510474"><ele>1324.0</ele><time>2026-04-12T13:30:02.957Z</time></trkpt><trkpt lat="46.369831371732346" lon="12.233295672547895"><ele>1324.0</ele><time>2026-04-12T13:30:03.957Z</time></trkpt><trkpt lat="46.36984523426774" lon="12.233140760396683"><ele>1324.0</ele><time>2026-04-12T13:30:04.957Z</time></trkpt><trkpt lat="46.36984283305594" lon="12.232988898010186"><ele>1324.0</ele><time>2026-04-12T13:30:05.957Z</time></trkpt><trkpt lat="46.369796947763945" lon="12.232816465261394"><ele>1325.3333333333333</ele><time>2026-04-12T13:30:06.957Z</time></trkpt><trkpt lat="46.369692475323305" lon="12.232662465165754"><ele>1326.6666666666667</ele><time>2026-04-12T13:30:07.957Z</time></trkpt><trkpt lat="46.369613278668226" lon="12.232486908452696"><ele>1328.0</ele><time>2026-04-12T13:30:08.957Z</time></trkpt><trkpt lat="46.36950464434491" lon="12.232292278518475"><ele>1328.0</ele><time>2026-04-12T13:30:09.957Z</time></trkpt><trkpt lat="46.3693979637515" lon="12.232101148800377"><ele>1328.0</ele><time>2026-04-12T13:30:10.957Z</time></trkpt><trkpt lat="46.36931559295898" lon="12.231957501331376"><ele>1328.0</ele><time>2026-04-12T13:30:11.957Z</time></trkpt><trkpt lat="46.36923402836734" lon="12.231809521345513"><ele>1328.0</ele><time>2026-04-12T13:30:12.957Z</time></trkpt><trkpt lat="46.3691701189269" lon="12.231669957135452"><ele>1328.0</ele><time>2026-04-12T13:30:13.957Z</time></trkpt><trkpt lat="46.36913286676483" lon="12.231519383907582"><ele>1328.0</ele><time>2026-04-12T13:30:14.957Z</time></trkpt><trkpt lat="46.36912674200288" lon="12.231373810715958"><ele>1328.0</ele><time>2026-04-12T13:30:15.957Z</time></trkpt><trkpt lat="46.36915094609322" lon="12.231216160517025"><ele>1328.0</ele><time>2026-04-12T13:30:16.957Z</time></trkpt><trkpt lat="46.36917085597997" lon="12.23101427483749"><ele>1326.5</ele><time>2026-04-12T13:30:17.957Z</time></trkpt><trkpt lat="46.369193066429126" lon="12.230798858967932"><ele>1325.0</ele><time>2026-04-12T13:30:18.957Z</time></trkpt><trkpt lat="46.3692172902475" lon="12.2305940790943"><ele>1323.5</ele><time>2026-04-12T13:30:19.957Z</time></trkpt><trkpt lat="46.36925315046136" lon="12.230429791695618"><ele>1322.0</ele><time>2026-04-12T13:30:20.957Z</time></trkpt><trkpt lat="46.36928822408868" lon="12.230270051197646"><ele>1320.6</ele><time>2026-04-12T13:30:21.957Z</time></trkpt><trkpt lat="46.36930741183382" lon="12.230130096580455"><ele>1319.1999999999998</ele><time>2026-04-12T13:30:22.957Z</time></trkpt><trkpt lat="46.3693148831934" lon="12.230002812593797"><ele>1317.8</ele><time>2026-04-12T13:30:23.957Z</time></trkpt><trkpt lat="46.36926999848147" lon="12.229862529976211"><ele>1316.4</ele><time>2026-04-12T13:30:24.957Z</time></trkpt><trkpt lat="46.36916291359115" lon="12.229777638497078"><ele>1315.0</ele><time>2026-04-12T13:30:25.957Z</time></trkpt><trkpt lat="46.36905512069177" lon="12.229686597602576"><ele>1312.0</ele><time>2026-04-12T13:30:26.957Z</time></trkpt><trkpt lat="46.36900994098073" lon="12.229606431248069"><ele>1309.0</ele><time>2026-04-12T13:30:27.957Z</time></trkpt><trkpt lat="46.36894758335985" lon="12.22940517143603"><ele>1306.0</ele><time>2026-04-12T13:30:29.957Z</time></trkpt><trkpt lat="46.36895321280215" lon="12.229188940466187"><ele>1303.0</ele><time>2026-04-12T13:30:30.957Z</time></trkpt><trkpt lat="46.368964477441544" lon="12.229023536227336"><ele>1300.2</ele><time>2026-04-12T13:30:31.957Z</time></trkpt><trkpt lat="46.36897143847984" lon="12.228831518491825"><ele>1297.4</ele><time>2026-04-12T13:30:32.957Z</time></trkpt><trkpt lat="46.36896582207059" lon="12.228656369086126"><ele>1294.6000000000001</ele><time>2026-04-12T13:30:33.957Z</time></trkpt><trkpt lat="46.36895353767352" lon="12.228519353823977"><ele>1291.8000000000002</ele><time>2026-04-12T13:30:34.957Z</time></trkpt><trkpt lat="46.368928956214305" lon="12.22840405898499"><ele>1289.0</ele><time>2026-04-12T13:30:35.957Z</time></trkpt><trkpt lat="46.368899729603854" lon="12.228266533924868"><ele>1289.0</ele><time>2026-04-12T13:30:36.957Z</time></trkpt><trkpt lat="46.36882560341459" lon="12.22815216322677"><ele>1289.0</ele><time>2026-04-12T13:30:37.957Z</time></trkpt><trkpt lat="46.36873273096706" lon="12.228057374628355"><ele>1289.0</ele><time>2026-04-12T13:30:38.957Z</time></trkpt><trkpt lat="46.36862154009514" lon="12.227954048095299"><ele>1289.0</ele><time>2026-04-12T13:30:39.957Z</time></trkpt><trkpt lat="46.368525200037226" lon="12.227871065757945"><ele>1289.0</ele><time>2026-04-12T13:30:40.957Z</time></trkpt><trkpt lat="46.36842252545714" lon="12.227798555330837"><ele>1289.0</ele><time>2026-04-12T13:30:41.957Z</time></trkpt><trkpt lat="46.368318583847355" lon="12.22775725495153"><ele>1289.0</ele><time>2026-04-12T13:30:42.957Z</time></trkpt><trkpt lat="46.36823155420107" lon="12.227696034475024"><ele>1289.0</ele><time>2026-04-12T13:30:43.957Z</time></trkpt><trkpt lat="46.36812881257767" lon="12.22759813352835"><ele>1289.0</ele><time>2026-04-12T13:30:44.957Z</time></trkpt><trkpt lat="46.3680407463351" lon="12.22749841180074"><ele>1288.2</ele><time>2026-04-12T13:30:45.957Z</time></trkpt><trkpt lat="46.36795585756242" lon="12.227413246640326"><ele>1287.4</ele><time>2026-04-12T13:30:46.957Z</time></trkpt><trkpt lat="46.36784762932656" lon="12.227368192430143"><ele>1286.6</ele><time>2026-04-12T13:30:47.957Z</time></trkpt><trkpt lat="46.367742115948836" lon="12.227316700932066"><ele>1285.8</ele><time>2026-04-12T13:30:48.957Z</time></trkpt><trkpt lat="46.367629630199765" lon="12.227296873430504"><ele>1285.0</ele><time>2026-04-12T13:30:49.957Z</time></trkpt><trkpt lat="46.367517769350194" lon="12.22731210548763"><ele>1285.0</ele><time>2026-04-12T13:30:50.957Z</time></trkpt><trkpt lat="46.36740609439214" lon="12.227328702055017"><ele>1285.0</ele><time>2026-04-12T13:30:51.957Z</time></trkpt><trkpt lat="46.36728409469061" lon="12.227360676324208"><ele>1285.0</ele><time>2026-04-12T13:30:52.957Z</time></trkpt><trkpt lat="46.36719320961182" lon="12.227400962487174"><ele>1285.0</ele><time>2026-04-12T13:30:53.957Z</time></trkpt><trkpt lat="46.36711021202983" lon="12.227498198891649"><ele>1285.0</ele><time>2026-04-12T13:30:54.957Z</time></trkpt><trkpt lat="46.367038473665204" lon="12.227575240988338"><ele>1284.6</ele><time>2026-04-12T13:30:55.957Z</time></trkpt><trkpt lat="46.36697810140221" lon="12.227630395971143"><ele>1284.2</ele><time>2026-04-12T13:30:56.957Z</time></trkpt><trkpt lat="46.366887828235015" lon="12.227680120253641"><ele>1283.8000000000002</ele><time>2026-04-12T13:30:57.957Z</time></trkpt><trkpt lat="46.366842602094586" lon="12.227554959722063"><ele>1283.4</ele><time>2026-04-12T13:30:58.957Z</time></trkpt><trkpt lat="46.36692076358423" lon="12.227516798049221"><ele>1283.0</ele><time>2026-04-12T13:30:59.957Z</time></trkpt><trkpt lat="46.36701953396665" lon="12.227448478144385"><ele>1283.0</ele><time>2026-04-12T13:31:02.957Z</time></trkpt><trkpt lat="46.36712248499499" lon="12.227326678309216"><ele>1283.0</ele><time>2026-04-12T13:31:03.957Z</time></trkpt><trkpt lat="46.367212213092365" lon="12.227201034523516"><ele>1283.0</ele><time>2026-04-12T13:31:04.957Z</time></trkpt><trkpt lat="46.367271247750764" lon="12.227111491398983"><ele>1283.0</ele><time>2026-04-12T13:31:05.957Z</time></trkpt><trkpt lat="46.3673360492477" lon="12.22701021312241"><ele>1283.0</ele><time>2026-04-12T13:31:06.957Z</time></trkpt><trkpt lat="46.3674024964179" lon="12.22690181040244"><ele>1281.2</ele><time>2026-04-12T13:31:07.957Z</time></trkpt><trkpt lat="46.36744894343262" lon="12.226803991791321"><ele>1279.4</ele><time>2026-04-12T13:31:08.957Z</time></trkpt><trkpt lat="46.36746884861518" lon="12.226635370238323"><ele>1277.6000000000001</ele><time>2026-04-12T13:31:09.957Z</time></trkpt><trkpt lat="46.36744083968853" lon="12.226470974017866"><ele>1275.8000000000002</ele><time>2026-04-12T13:31:10.957Z</time></trkpt><trkpt lat="46.367382567244306" lon="12.226310282049008"><ele>1274.0</ele><time>2026-04-12T13:31:11.957Z</time></trkpt><trkpt lat="46.3673257185915" lon="12.22616241329824"><ele>1273.4</ele><time>2026-04-12T13:31:12.957Z</time></trkpt><trkpt lat="46.367274860745816" lon="12.22602998782816"><ele>1272.8000000000002</ele><time>2026-04-12T13:31:13.958Z</time></trkpt><trkpt lat="46.36723067759729" lon="12.22591710100871"><ele>1272.1999999999998</ele><time>2026-04-12T13:31:14.958Z</time></trkpt><trkpt lat="46.36717340695531" lon="12.225744670580497"><ele>1271.6</ele><time>2026-04-12T13:31:15.958Z</time></trkpt><trkpt lat="46.3671586396434" lon="12.225574826117876"><ele>1271.0</ele><time>2026-04-12T13:31:17.958Z</time></trkpt><trkpt lat="46.367183989689735" lon="12.225445066864946"><ele>1266.75</ele><time>2026-04-12T13:31:18.958Z</time></trkpt><trkpt lat="46.36722610466256" lon="12.225302404545992"><ele>1262.5</ele><time>2026-04-12T13:31:19.958Z</time></trkpt><trkpt lat="46.36724149260483" lon="12.225108387835048"><ele>1258.25</ele><time>2026-04-12T13:31:20.958Z</time></trkpt><trkpt lat="46.3672000533889" lon="12.22488769898366"><ele>1254.0</ele><time>2026-04-12T13:31:21.958Z</time></trkpt><trkpt lat="46.3671771090436" lon="12.22475307335702"><ele>1251.0</ele><time>2026-04-12T13:31:22.958Z</time></trkpt><trkpt lat="46.36718174871596" lon="12.22464305102604"><ele>1248.0</ele><time>2026-04-12T13:31:23.958Z</time></trkpt><trkpt lat="46.36717343111455" lon="12.224420828387036"><ele>1245.0</ele><time>2026-04-12T13:31:24.958Z</time></trkpt><trkpt lat="46.36712793658961" lon="12.224236947561177"><ele>1242.0</ele><time>2026-04-12T13:31:25.958Z</time></trkpt><trkpt lat="46.3670973824665" lon="12.223991680733233"><ele>1241.75</ele><time>2026-04-12T13:31:26.958Z</time></trkpt><trkpt lat="46.367068892514126" lon="12.223827015030386"><ele>1241.5</ele><time>2026-04-12T13:31:27.958Z</time></trkpt><trkpt lat="46.367007976130296" lon="12.223656614450507"><ele>1241.25</ele><time>2026-04-12T13:31:28.958Z</time></trkpt><trkpt lat="46.36694587961296" lon="12.223496298713247"><ele>1241.0</ele><time>2026-04-12T13:31:29.958Z</time></trkpt><trkpt lat="46.36686754338079" lon="12.223351559141214"><ele>1241.0</ele><time>2026-04-12T13:31:30.958Z</time></trkpt><trkpt lat="46.366797185099394" lon="12.223218639935054"><ele>1241.0</ele><time>2026-04-12T13:31:31.958Z</time></trkpt><trkpt lat="46.36671862124748" lon="12.223110290831347"><ele>1241.0</ele><time>2026-04-12T13:31:32.958Z</time></trkpt><trkpt lat="46.36663342131921" lon="12.223035297997464"><ele>1241.0</ele><time>2026-04-12T13:31:33.958Z</time></trkpt><trkpt lat="46.366528300049325" lon="12.223001487348744"><ele>1241.0</ele><time>2026-04-12T13:31:34.958Z</time></trkpt><trkpt lat="46.366418636205125" lon="12.222998468980466"><ele>1237.5</ele><time>2026-04-12T13:31:35.958Z</time></trkpt><trkpt lat="46.36630621179746" lon="12.223051725318522"><ele>1234.0</ele><time>2026-04-12T13:31:36.958Z</time></trkpt><trkpt lat="46.36620695067298" lon="12.223119315176215"><ele>1230.5</ele><time>2026-04-12T13:31:37.958Z</time></trkpt><trkpt lat="46.36612605733357" lon="12.223224403625137"><ele>1227.0</ele><time>2026-04-12T13:31:38.958Z</time></trkpt><trkpt lat="46.366060394389315" lon="12.223369949086608"><ele>1226.5</ele><time>2026-04-12T13:31:39.958Z</time></trkpt><trkpt lat="46.365997195655346" lon="12.223534044535848"><ele>1226.0</ele><time>2026-04-12T13:31:40.958Z</time></trkpt><trkpt lat="46.36591717831227" lon="12.223688090355042"><ele>1225.5</ele><time>2026-04-12T13:31:41.958Z</time></trkpt><trkpt lat="46.365814267906835" lon="12.22379312087701"><ele>1225.0</ele><time>2026-04-12T13:31:42.958Z</time></trkpt><trkpt lat="46.36569777032654" lon="12.223885467002038"><ele>1225.0</ele><time>2026-04-12T13:31:43.958Z</time></trkpt><trkpt lat="46.36556931138335" lon="12.223945804425911"><ele>1225.0</ele><time>2026-04-12T13:31:44.958Z</time></trkpt><trkpt lat="46.36545523085434" lon="12.224021657776545"><ele>1225.0</ele><time>2026-04-12T13:31:45.958Z</time></trkpt><trkpt lat="46.365341946941925" lon="12.22411982238834"><ele>1225.0</ele><time>2026-04-12T13:31:46.958Z</time></trkpt><trkpt lat="46.36524069469589" lon="12.224231593483287"><ele>1225.25</ele><time>2026-04-12T13:31:47.958Z</time></trkpt><trkpt lat="46.36513976116199" lon="12.224336129027176"><ele>1225.5</ele><time>2026-04-12T13:31:48.958Z</time></trkpt><trkpt lat="46.365031180999225" lon="12.224410320419294"><ele>1225.75</ele><time>2026-04-12T13:31:49.958Z</time></trkpt><trkpt lat="46.36487305491541" lon="12.224471125936585"><ele>1226.0</ele><time>2026-04-12T13:31:50.958Z</time></trkpt><trkpt lat="46.36469718487978" lon="12.224428082776408"><ele>1222.75</ele><time>2026-04-12T13:31:51.958Z</time></trkpt><trkpt lat="46.3645844562281" lon="12.224417039853666"><ele>1219.5</ele><time>2026-04-12T13:31:52.958Z</time></trkpt><trkpt lat="46.364458062648865" lon="12.224401075143884"><ele>1216.25</ele><time>2026-04-12T13:31:53.958Z</time></trkpt><trkpt lat="46.364329090548885" lon="12.224379759397152"><ele>1213.0</ele><time>2026-04-12T13:31:54.958Z</time></trkpt><trkpt lat="46.36419515652981" lon="12.224385137544413"><ele>1213.0</ele><time>2026-04-12T13:31:55.958Z</time></trkpt><trkpt lat="46.3640391395759" lon="12.224377007251741"><ele>1213.0</ele><time>2026-04-12T13:31:56.958Z</time></trkpt><trkpt lat="46.36387857872366" lon="12.224343553742129"><ele>1213.0</ele><time>2026-04-12T13:31:57.958Z</time></trkpt><trkpt lat="46.363746368492286" lon="12.224328738978185"><ele>1212.0</ele><time>2026-04-12T13:31:58.958Z</time></trkpt><trkpt lat="46.36362543114155" lon="12.22430802919936"><ele>1211.0</ele><time>2026-04-12T13:31:59.958Z</time></trkpt><trkpt lat="46.363508212824826" lon="12.224250277757433"><ele>1210.0</ele><time>2026-04-12T13:32:00.958Z</time></trkpt><trkpt lat="46.36341121974495" lon="12.224122895034803"><ele>1209.0</ele><time>2026-04-12T13:32:01.958Z</time></trkpt><trkpt lat="46.363314841982046" lon="12.224033143112402"><ele>1208.75</ele><time>2026-04-12T13:32:02.958Z</time></trkpt><trkpt lat="46.36320317711025" lon="12.223893597002016"><ele>1208.5</ele><time>2026-04-12T13:32:03.958Z</time></trkpt><trkpt lat="46.36309323178523" lon="12.223763289542319"><ele>1208.25</ele><time>2026-04-12T13:32:04.958Z</time></trkpt><trkpt lat="46.36299520578073" lon="12.223649308211934"><ele>1208.0</ele><time>2026-04-12T13:32:05.958Z</time></trkpt><trkpt lat="46.36290224841634" lon="12.223542061062707"><ele>1208.0</ele><time>2026-04-12T13:32:06.958Z</time></trkpt><trkpt lat="46.36284923153277" lon="12.22340550769171"><ele>1208.0</ele><time>2026-04-12T13:32:07.958Z</time></trkpt><trkpt lat="46.36281026797198" lon="12.223268363207767"><ele>1208.0</ele><time>2026-04-12T13:32:08.958Z</time></trkpt><trkpt lat="46.36279524494707" lon="12.223106263174097"><ele>1208.0</ele><time>2026-04-12T13:32:09.958Z</time></trkpt><trkpt lat="46.36278903981206" lon="12.222928858277214"><ele>1208.0</ele><time>2026-04-12T13:32:10.958Z</time></trkpt><trkpt lat="46.362808809215885" lon="12.222774892625512"><ele>1205.4</ele><time>2026-04-12T13:32:11.958Z</time></trkpt><trkpt lat="46.36286591024964" lon="12.222640964785871"><ele>1202.8</ele><time>2026-04-12T13:32:12.958Z</time></trkpt><trkpt lat="46.36294180496117" lon="12.222543357192448"><ele>1200.2</ele><time>2026-04-12T13:32:13.958Z</time></trkpt><trkpt lat="46.363013312306364" lon="12.22241616379239"><ele>1197.6</ele><time>2026-04-12T13:32:14.958Z</time></trkpt><trkpt lat="46.363093768170245" lon="12.222316927182407"><ele>1195.0</ele><time>2026-04-12T13:32:15.958Z</time></trkpt><trkpt lat="46.36315898401355" lon="12.22219212491516"><ele>1192.75</ele><time>2026-04-12T13:32:16.958Z</time></trkpt><trkpt lat="46.36320349995845" lon="12.222035927665795"><ele>1190.5</ele><time>2026-04-12T13:32:17.958Z</time></trkpt><trkpt lat="46.36323484944346" lon="12.22184893622148"><ele>1188.25</ele><time>2026-04-12T13:32:18.958Z</time></trkpt><trkpt lat="46.36323351272763" lon="12.221653758019784"><ele>1186.0</ele><time>2026-04-12T13:32:19.958Z</time></trkpt><trkpt lat="46.36321642540698" lon="12.221461162593032"><ele>1184.75</ele><time>2026-04-12T13:32:20.958Z</time></trkpt><trkpt lat="46.363174435565234" lon="12.221272894584164"><ele>1183.5</ele><time>2026-04-12T13:32:21.958Z</time></trkpt><trkpt lat="46.3631370028167" lon="12.221082607284927"><ele>1182.25</ele><time>2026-04-12T13:32:22.958Z</time></trkpt><trkpt lat="46.36311055924084" lon="12.220895072672254"><ele>1181.0</ele><time>2026-04-12T13:32:23.958Z</time></trkpt><trkpt lat="46.363084548140215" lon="12.220712365935055"><ele>1178.0</ele><time>2026-04-12T13:32:24.958Z</time></trkpt><trkpt lat="46.363060109301266" lon="12.220536062672286"><ele>1175.0</ele><time>2026-04-12T13:32:25.958Z</time></trkpt><trkpt lat="46.36304404818365" lon="12.220378617687025"><ele>1172.0</ele><time>2026-04-12T13:32:26.958Z</time></trkpt><trkpt lat="46.3630926100463" lon="12.22020736533341"><ele>1169.0</ele><time>2026-04-12T13:32:27.958Z</time></trkpt><trkpt lat="46.36316458908842" lon="12.220040022636208"><ele>1169.0</ele><time>2026-04-12T13:32:28.958Z</time></trkpt><trkpt lat="46.363230535162145" lon="12.219970122663295"><ele>1169.0</ele><time>2026-04-12T13:32:29.958Z</time></trkpt><trkpt lat="46.363345057550134" lon="12.21991963349527"><ele>1169.0</ele><time>2026-04-12T13:32:30.958Z</time></trkpt><trkpt lat="46.36344963895432" lon="12.219826364119202"><ele>1169.0</ele><time>2026-04-12T13:32:31.958Z</time></trkpt><trkpt lat="46.36354653424149" lon="12.219768496421358"><ele>1169.0</ele><time>2026-04-12T13:32:32.958Z</time></trkpt><trkpt lat="46.363647862122534" lon="12.219705773215873"><ele>1168.25</ele><time>2026-04-12T13:32:33.958Z</time></trkpt><trkpt lat="46.36380738154826" lon="12.219554600007424"><ele>1167.5</ele><time>2026-04-12T13:32:34.958Z</time></trkpt><trkpt lat="46.363913262979196" lon="12.21943236231602"><ele>1166.75</ele><time>2026-04-12T13:32:35.958Z</time></trkpt><trkpt lat="46.363979847888025" lon="12.219307261379923"><ele>1166.0</ele><time>2026-04-12T13:32:36.958Z</time></trkpt><trkpt lat="46.36400663266131" lon="12.219160331561735"><ele>1166.0</ele><time>2026-04-12T13:32:37.958Z</time></trkpt><trkpt lat="46.36402459616531" lon="12.218999531871038"><ele>1166.0</ele><time>2026-04-12T13:32:38.958Z</time></trkpt><trkpt lat="46.3640736313991" lon="12.21886944687937"><ele>1166.0</ele><time>2026-04-12T13:32:39.958Z</time></trkpt><trkpt lat="46.36411728783962" lon="12.218747882794027"><ele>1166.0</ele><time>2026-04-12T13:32:40.958Z</time></trkpt><trkpt lat="46.36419346383126" lon="12.218692482175312"><ele>1166.0</ele><time>2026-04-12T13:32:41.958Z</time></trkpt><trkpt lat="46.364281938642456" lon="12.218657983044045"><ele>1163.75</ele><time>2026-04-12T13:32:42.958Z</time></trkpt><trkpt lat="46.36438665676736" lon="12.218630342878798"><ele>1161.5</ele><time>2026-04-12T13:32:43.958Z</time></trkpt><trkpt lat="46.36454432652009" lon="12.218594353703825"><ele>1159.25</ele><time>2026-04-12T13:32:44.958Z</time></trkpt><trkpt lat="46.364661813961604" lon="12.21855918635444"><ele>1157.0</ele><time>2026-04-12T13:32:45.958Z</time></trkpt><trkpt lat="46.3647540053105" lon="12.21844098547903"><ele>1157.0</ele><time>2026-04-12T13:32:46.958Z</time></trkpt><trkpt lat="46.36483965810579" lon="12.218317183999549"><ele>1157.0</ele><time>2026-04-12T13:32:47.958Z</time></trkpt><trkpt lat="46.36488978032266" lon="12.218208314548102"><ele>1157.0</ele><time>2026-04-12T13:32:48.958Z</time></trkpt><trkpt lat="46.36497640888004" lon="12.218094368143582"><ele>1157.0</ele><time>2026-04-12T13:32:49.958Z</time></trkpt><trkpt lat="46.3650685405176" lon="12.21800535464086"><ele>1157.0</ele><time>2026-04-12T13:32:50.958Z</time></trkpt><trkpt lat="46.36519340226717" lon="12.217960220027607"><ele>1151.75</ele><time>2026-04-12T13:32:51.958Z</time></trkpt><trkpt lat="46.36530836550556" lon="12.21792469735783"><ele>1146.5</ele><time>2026-04-12T13:32:52.958Z</time></trkpt><trkpt lat="46.36544082691202" lon="12.217869241761061"><ele>1141.25</ele><time>2026-04-12T13:32:53.958Z</time></trkpt><trkpt lat="46.36556218760071" lon="12.21781511790075"><ele>1136.0</ele><time>2026-04-12T13:32:54.958Z</time></trkpt><trkpt lat="46.3656841930955" lon="12.217781477945078"><ele>1136.0</ele><time>2026-04-12T13:32:55.958Z</time></trkpt><trkpt lat="46.36580409717741" lon="12.217763178222294"><ele>1136.0</ele><time>2026-04-12T13:32:56.958Z</time></trkpt><trkpt lat="46.36590065477745" lon="12.217767848063357"><ele>1136.0</ele><time>2026-04-12T13:32:57.958Z</time></trkpt><trkpt lat="46.365974131710466" lon="12.217829751445192"><ele>1136.0</ele><time>2026-04-12T13:32:58.958Z</time></trkpt><trkpt lat="46.3660555057775" lon="12.217859371896145"><ele>1136.0</ele><time>2026-04-12T13:32:59.958Z</time></trkpt><trkpt lat="46.366144183902364" lon="12.217822315124712"><ele>1136.0</ele><time>2026-04-12T13:33:00.958Z</time></trkpt><trkpt lat="46.36620431305419" lon="12.21772063268008"><ele>1136.0</ele><time>2026-04-12T13:33:01.958Z</time></trkpt><trkpt lat="46.36624572186774" lon="12.217589305384381"><ele>1136.0</ele><time>2026-04-12T13:33:02.958Z</time></trkpt><trkpt lat="46.366265282797045" lon="12.217450699481669"><ele>1136.0</ele><time>2026-04-12T13:33:03.958Z</time></trkpt><trkpt lat="46.366251395978196" lon="12.217323083203514"><ele>1136.0</ele><time>2026-04-12T13:33:04.958Z</time></trkpt><trkpt lat="46.36623127346825" lon="12.217213038209177"><ele>1139.5</ele><time>2026-04-12T13:33:05.958Z</time></trkpt><trkpt lat="46.36611859756672" lon="12.217129178191538"><ele>1143.0</ele><time>2026-04-12T13:33:06.958Z</time></trkpt><trkpt lat="46.36599477618768" lon="12.217144383924422"><ele>1146.5</ele><time>2026-04-12T13:33:07.958Z</time></trkpt><trkpt lat="46.365886744863175" lon="12.217120961907481"><ele>1150.0</ele><time>2026-04-12T13:33:08.958Z</time></trkpt><trkpt lat="46.36572813984843" lon="12.217019036455593"><ele>1150.0</ele><time>2026-04-12T13:33:09.958Z</time></trkpt><trkpt lat="46.36555066715218" lon="12.216923354074426"><ele>1150.0</ele><time>2026-04-12T13:33:10.958Z</time></trkpt><trkpt lat="46.365329775784744" lon="12.216823361907824"><ele>1150.0</ele><time>2026-04-12T13:33:11.958Z</time></trkpt><trkpt lat="46.365098665311" lon="12.216692884419473"><ele>1144.5</ele><time>2026-04-12T13:33:12.958Z</time></trkpt><trkpt lat="46.36488666816315" lon="12.216577922664378"><ele>1139.0</ele><time>2026-04-12T13:33:13.958Z</time></trkpt><trkpt lat="46.36464519305441" lon="12.216452717059768"><ele>1139.0</ele><time>2026-04-12T13:33:14.958Z</time></trkpt><trkpt lat="46.36443359574405" lon="12.216337438398943"><ele>1139.0</ele><time>2026-04-12T13:33:15.958Z</time></trkpt><trkpt lat="46.36422351179548" lon="12.216251290640644"><ele>1139.0</ele><time>2026-04-12T13:33:16.958Z</time></trkpt><trkpt lat="46.364036605591856" lon="12.216148885964186"><ele>1139.0</ele><time>2026-04-12T13:33:17.958Z</time></trkpt><trkpt lat="46.36391244909819" lon="12.216068695410776"><ele>1139.0</ele><time>2026-04-12T13:33:18.958Z</time></trkpt><trkpt lat="46.36378842401824" lon="12.216023885972053"><ele>1139.0</ele><time>2026-04-12T13:33:19.959Z</time></trkpt><trkpt lat="46.36369583529873" lon="12.21594998614555"><ele>1139.0</ele><time>2026-04-12T13:33:20.959Z</time></trkpt><trkpt lat="46.36361245710058" lon="12.215860121437226"><ele>1134.75</ele><time>2026-04-12T13:33:21.959Z</time></trkpt><trkpt lat="46.36354115977239" lon="12.21570957901049"><ele>1130.5</ele><time>2026-04-12T13:33:22.959Z</time></trkpt><trkpt lat="46.3634641854956" lon="12.215513199223826"><ele>1126.25</ele><time>2026-04-12T13:33:23.959Z</time></trkpt><trkpt lat="46.363416132116456" lon="12.215353574759352"><ele>1122.0</ele><time>2026-04-12T13:33:24.959Z</time></trkpt><trkpt lat="46.36340028551686" lon="12.215194726933417"><ele>1122.0</ele><time>2026-04-12T13:33:25.959Z</time></trkpt><trkpt lat="46.3634291069841" lon="12.215024527090293"><ele>1122.0</ele><time>2026-04-12T13:33:26.959Z</time></trkpt><trkpt lat="46.36341696392185" lon="12.214907285875327"><ele>1122.0</ele><time>2026-04-12T13:33:27.959Z</time></trkpt><trkpt lat="46.363394854600635" lon="12.214792757283794"><ele>1122.0</ele><time>2026-04-12T13:33:28.959Z</time></trkpt><trkpt lat="46.36336724693934" lon="12.21471011641907"><ele>1122.0</ele><time>2026-04-12T13:33:29.959Z</time></trkpt><trkpt lat="46.36317501855287" lon="12.214501797360567"><ele>1115.75</ele><time>2026-04-12T13:33:30.959Z</time></trkpt><trkpt lat="46.363024633098995" lon="12.2143900233258"><ele>1109.5</ele><time>2026-04-12T13:33:31.959Z</time></trkpt><trkpt lat="46.36294074059965" lon="12.214257649692966"><ele>1103.25</ele><time>2026-04-12T13:33:32.959Z</time></trkpt><trkpt lat="46.36285601169403" lon="12.214148043798662"><ele>1097.0</ele><time>2026-04-12T13:33:33.959Z</time></trkpt><trkpt lat="46.36279211809683" lon="12.214032678541967"><ele>1095.0</ele><time>2026-04-12T13:33:34.959Z</time></trkpt><trkpt lat="46.36277217231465" lon="12.213888683263315"><ele>1093.0</ele><time>2026-04-12T13:33:35.959Z</time></trkpt><trkpt lat="46.36276416096461" lon="12.21371484554598"><ele>1091.0</ele><time>2026-04-12T13:33:36.959Z</time></trkpt><trkpt lat="46.36283616380234" lon="12.21358069543448"><ele>1089.0</ele><time>2026-04-12T13:33:37.959Z</time></trkpt><trkpt lat="46.36289040395995" lon="12.213379648377392"><ele>1089.0</ele><time>2026-04-12T13:33:38.959Z</time></trkpt><trkpt lat="46.36294309444037" lon="12.213179800349243"><ele>1089.0</ele><time>2026-04-12T13:33:39.959Z</time></trkpt><trkpt lat="46.36300218329439" lon="12.21298006320966"><ele>1089.0</ele><time>2026-04-12T13:33:40.959Z</time></trkpt><trkpt lat="46.363038976754844" lon="12.212781753963384"><ele>1089.0</ele><time>2026-04-12T13:33:41.959Z</time></trkpt><trkpt lat="46.363048369103886" lon="12.212580687014505"><ele>1087.25</ele><time>2026-04-12T13:33:42.959Z</time></trkpt><trkpt lat="46.36301369374942" lon="12.212400529798307"><ele>1085.5</ele><time>2026-04-12T13:33:43.959Z</time></trkpt><trkpt lat="46.36296247569198" lon="12.212200324071711"><ele>1083.75</ele><time>2026-04-12T13:33:44.959Z</time></trkpt><trkpt lat="46.362902697679395" lon="12.212018731094425"><ele>1082.0</ele><time>2026-04-12T13:33:45.959Z</time></trkpt><trkpt lat="46.36279097962196" lon="12.211851440176314"><ele>1086.6666666666667</ele><time>2026-04-12T13:33:46.959Z</time></trkpt><trkpt lat="46.36266876472591" lon="12.211679657004035"><ele>1091.3333333333333</ele><time>2026-04-12T13:33:47.959Z</time></trkpt><trkpt lat="46.362588170969666" lon="12.211473004735486"><ele>1096.0</ele><time>2026-04-12T13:33:48.959Z</time></trkpt><trkpt lat="46.36252094466874" lon="12.211284699204256"><ele>1099.3333333333333</ele><time>2026-04-12T13:33:49.959Z</time></trkpt><trkpt lat="46.36246224863392" lon="12.211095663533547"><ele>1102.6666666666667</ele><time>2026-04-12T13:33:50.959Z</time></trkpt><trkpt lat="46.36234195803744" lon="12.210919063877462"><ele>1106.0</ele><time>2026-04-12T13:33:51.959Z</time></trkpt><trkpt lat="46.36224224808583" lon="12.210761764245012"><ele>1098.25</ele><time>2026-04-12T13:33:52.959Z</time></trkpt><trkpt lat="46.36215082823791" lon="12.21059259314323"><ele>1090.5</ele><time>2026-04-12T13:33:53.959Z</time></trkpt><trkpt lat="46.36205831329342" lon="12.210434393792179"><ele>1082.75</ele><time>2026-04-12T13:33:54.959Z</time></trkpt><trkpt lat="46.36199600932975" lon="12.210286879002432"><ele>1075.0</ele><time>2026-04-12T13:33:55.959Z</time></trkpt><trkpt lat="46.36193313959361" lon="12.210148492295604"><ele>1075.0</ele><time>2026-04-12T13:33:56.959Z</time></trkpt><trkpt lat="46.36191613640318" lon="12.209948286472722"><ele>1075.0</ele><time>2026-04-12T13:33:57.959Z</time></trkpt><trkpt lat="46.36190868905449" lon="12.20974625894073"><ele>1075.0</ele><time>2026-04-12T13:33:58.959Z</time></trkpt><trkpt lat="46.361893305247364" lon="12.209497958826097"><ele>1076.6666666666665</ele><time>2026-04-12T13:33:59.959Z</time></trkpt><trkpt lat="46.36185213813598" lon="12.209207188833487"><ele>1078.3333333333333</ele><time>2026-04-12T13:34:00.959Z</time></trkpt><trkpt lat="46.36181480691995" lon="12.208941078826642"><ele>1080.0</ele><time>2026-04-12T13:34:01.959Z</time></trkpt><trkpt lat="46.36179262251527" lon="12.208684415484282"><ele>1080.0</ele><time>2026-04-12T13:34:02.959Z</time></trkpt><trkpt lat="46.36175930687925" lon="12.208474207624132"><ele>1080.0</ele><time>2026-04-12T13:34:03.959Z</time></trkpt><trkpt lat="46.36171677759628" lon="12.208217619404596"><ele>1080.0</ele><time>2026-04-12T13:34:04.959Z</time></trkpt><trkpt lat="46.36166829094242" lon="12.2079263322555"><ele>1080.0</ele><time>2026-04-12T13:34:05.959Z</time></trkpt><trkpt lat="46.361636499737514" lon="12.20772991740986"><ele>1080.0</ele><time>2026-04-12T13:34:06.959Z</time></trkpt><trkpt lat="46.361610836266415" lon="12.207535220630284"><ele>1080.0</ele><time>2026-04-12T13:34:07.959Z</time></trkpt><trkpt lat="46.361612871216316" lon="12.207365960905568"><ele>1080.0</ele><time>2026-04-12T13:34:08.959Z</time></trkpt><trkpt lat="46.3616202848343" lon="12.207170807491254"><ele>1078.3333333333333</ele><time>2026-04-12T13:34:09.959Z</time></trkpt><trkpt lat="46.361628637234695" lon="12.20695094180264"><ele>1076.6666666666665</ele><time>2026-04-12T13:34:10.959Z</time></trkpt><trkpt lat="46.36163739058154" lon="12.206701650593342"><ele>1075.0</ele><time>2026-04-12T13:34:11.959Z</time></trkpt><trkpt lat="46.36164439851961" lon="12.206465716770676"><ele>1075.0</ele><time>2026-04-12T13:34:12.959Z</time></trkpt><trkpt lat="46.36164983358843" lon="12.206223042381836"><ele>1075.0</ele><time>2026-04-12T13:34:13.959Z</time></trkpt><trkpt lat="46.361650712003616" lon="12.205995963429485"><ele>1075.0</ele><time>2026-04-12T13:34:14.959Z</time></trkpt><trkpt lat="46.361627978595145" lon="12.205760939786408"><ele>1075.3333333333333</ele><time>2026-04-12T13:34:15.959Z</time></trkpt><trkpt lat="46.36158840327087" lon="12.20554054630003"><ele>1075.6666666666667</ele><time>2026-04-12T13:34:16.959Z</time></trkpt><trkpt lat="46.36152456202471" lon="12.205342489292867"><ele>1076.0</ele><time>2026-04-12T13:34:17.959Z</time></trkpt><trkpt lat="46.36146820480843" lon="12.205143852385088"><ele>1076.0</ele><time>2026-04-12T13:34:18.959Z</time></trkpt><trkpt lat="46.36143024208816" lon="12.204941790511615"><ele>1076.0</ele><time>2026-04-12T13:34:19.959Z</time></trkpt><trkpt lat="46.3613921751159" lon="12.204764898789382"><ele>1076.0</ele><time>2026-04-12T13:34:20.959Z</time></trkpt><trkpt lat="46.361373977012455" lon="12.204586326488103"><ele>1076.0</ele><time>2026-04-12T13:34:21.959Z</time></trkpt><trkpt lat="46.361376696314814" lon="12.204397216411106"><ele>1074.3333333333335</ele><time>2026-04-12T13:34:22.959Z</time></trkpt><trkpt lat="46.36137660931417" lon="12.204176684674197"><ele>1072.6666666666667</ele><time>2026-04-12T13:34:23.959Z</time></trkpt><trkpt lat="46.36135442651675" lon="12.20396323326085"><ele>1071.0</ele><time>2026-04-12T13:34:24.959Z</time></trkpt><trkpt lat="46.36131318463806" lon="12.20375018702533"><ele>1061.2</ele><time>2026-04-12T13:34:25.959Z</time></trkpt><trkpt lat="46.361273760278124" lon="12.2035642568026"><ele>1051.3999999999999</ele><time>2026-04-12T13:34:26.959Z</time></trkpt><trkpt lat="46.3612519947275" lon="12.203409909851459"><ele>1041.6</ele><time>2026-04-12T13:34:27.959Z</time></trkpt><trkpt lat="46.361244135638586" lon="12.20327363052955"><ele>1031.8</ele><time>2026-04-12T13:34:28.959Z</time></trkpt><trkpt lat="46.36126836109236" lon="12.2031408216733"><ele>1022.0</ele><time>2026-04-12T13:34:29.959Z</time></trkpt><trkpt lat="46.3613126176739" lon="12.203022281780585"><ele>1031.25</ele><time>2026-04-12T13:34:30.959Z</time></trkpt><trkpt lat="46.361378757746216" lon="12.202887797916782"><ele>1040.5</ele><time>2026-04-12T13:34:31.959Z</time></trkpt><trkpt lat="46.36144730375236" lon="12.202715578047481"><ele>1049.75</ele><time>2026-04-12T13:34:32.959Z</time></trkpt><trkpt lat="46.36150755398929" lon="12.202541406471003"><ele>1059.0</ele><time>2026-04-12T13:34:33.959Z</time></trkpt><trkpt lat="46.36154805825936" lon="12.202363274544144"><ele>1059.25</ele><time>2026-04-12T13:34:34.959Z</time></trkpt><trkpt lat="46.36151965503325" lon="12.202161453163635"><ele>1059.5</ele><time>2026-04-12T13:34:35.959Z</time></trkpt><trkpt lat="46.36148984627313" lon="12.201979269026227"><ele>1059.75</ele><time>2026-04-12T13:34:36.959Z</time></trkpt><trkpt lat="46.361463789830985" lon="12.201778602213789"><ele>1060.0</ele><time>2026-04-12T13:34:37.959Z</time></trkpt><trkpt lat="46.36142488688432" lon="12.20159005479508"><ele>1059.25</ele><time>2026-04-12T13:34:38.959Z</time></trkpt><trkpt lat="46.36138141173643" lon="12.201391037515657"><ele>1058.5</ele><time>2026-04-12T13:34:39.959Z</time></trkpt><trkpt lat="46.36134249467289" lon="12.201221879617078"><ele>1057.75</ele><time>2026-04-12T13:34:40.959Z</time></trkpt><trkpt lat="46.361328072582694" lon="12.201130343093357"><ele>1057.0</ele><time>2026-04-12T13:34:41.959Z</time></trkpt><trkpt lat="46.361339680857256" lon="12.200955218973377"><ele>1057.0</ele><time>2026-04-12T13:34:42.959Z</time></trkpt><trkpt lat="46.36137519135088" lon="12.20080042107984"><ele>1057.0</ele><time>2026-04-12T13:34:43.959Z</time></trkpt><trkpt lat="46.36139671164362" lon="12.20063328492916"><ele>1057.0</ele><time>2026-04-12T13:34:44.959Z</time></trkpt><trkpt lat="46.36137320692492" lon="12.200462988517593"><ele>1057.0</ele><time>2026-04-12T13:34:45.959Z</time></trkpt><trkpt lat="46.361375241868636" lon="12.200262172220324"><ele>1044.0</ele><time>2026-04-12T13:34:46.959Z</time></trkpt><trkpt lat="46.36134326271087" lon="12.20005904861773"><ele>1031.0</ele><time>2026-04-12T13:34:47.959Z</time></trkpt><trkpt lat="46.36128088740827" lon="12.199889256674181"><ele>1018.0</ele><time>2026-04-12T13:34:48.959Z</time></trkpt><trkpt lat="46.36120917304438" lon="12.199736600706894"><ele>1005.0</ele><time>2026-04-12T13:34:49.959Z</time></trkpt><trkpt lat="46.36113306726854" lon="12.199590767861745"><ele>1005.0</ele><time>2026-04-12T13:34:50.959Z</time></trkpt><trkpt lat="46.36104144223165" lon="12.199465832250146"><ele>1005.0</ele><time>2026-04-12T13:34:51.959Z</time></trkpt><trkpt lat="46.36093320183039" lon="12.19935213183146"><ele>1005.0</ele><time>2026-04-12T13:34:52.959Z</time></trkpt><trkpt lat="46.36085282701516" lon="12.199222809703823"><ele>1005.0</ele><time>2026-04-12T13:34:53.959Z</time></trkpt><trkpt lat="46.360807212119646" lon="12.199084876858867"><ele>1004.25</ele><time>2026-04-12T13:34:54.959Z</time></trkpt><trkpt lat="46.36078842826535" lon="12.198923497925684"><ele>1003.5</ele><time>2026-04-12T13:34:55.959Z</time></trkpt><trkpt lat="46.36078244401158" lon="12.198747616748825"><ele>1002.75</ele><time>2026-04-12T13:34:56.959Z</time></trkpt><trkpt lat="46.360818670931565" lon="12.198567260334231"><ele>1002.0</ele><time>2026-04-12T13:34:57.959Z</time></trkpt><trkpt lat="46.36083165634207" lon="12.1983646229868"><ele>1002.0</ele><time>2026-04-12T13:34:58.959Z</time></trkpt><trkpt lat="46.360816945511004" lon="12.198172427576155"><ele>1002.0</ele><time>2026-04-12T13:34:59.959Z</time></trkpt><trkpt lat="46.36079031270978" lon="12.197982963495631"><ele>1002.0</ele><time>2026-04-12T13:35:00.959Z</time></trkpt><trkpt lat="46.360792639787626" lon="12.197830204067815"><ele>1002.0</ele><time>2026-04-12T13:35:01.959Z</time></trkpt><trkpt lat="46.36080004283809" lon="12.197666352586555"><ele>1001.0</ele><time>2026-04-12T13:35:02.959Z</time></trkpt><trkpt lat="46.36083427639281" lon="12.197532160138499"><ele>1000.0</ele><time>2026-04-12T13:35:03.959Z</time></trkpt><trkpt lat="46.3608839382494" lon="12.197404903055903"><ele>999.0</ele><time>2026-04-12T13:35:04.959Z</time></trkpt><trkpt lat="46.360955642973664" lon="12.197258650696783"><ele>998.0</ele><time>2026-04-12T13:35:05.959Z</time></trkpt><trkpt lat="46.36102558255619" lon="12.197113031602745"><ele>997.0</ele><time>2026-04-12T13:35:06.959Z</time></trkpt><trkpt lat="46.36108129931669" lon="12.196965011571324"><ele>995.0</ele><time>2026-04-12T13:35:07.959Z</time></trkpt><trkpt lat="46.36114052415866" lon="12.19681227186695"><ele>993.0</ele><time>2026-04-12T13:35:08.959Z</time></trkpt><trkpt lat="46.36116950634816" lon="12.196641167958546"><ele>991.0</ele><time>2026-04-12T13:35:09.959Z</time></trkpt><trkpt lat="46.36117414566406" lon="12.196471647814228"><ele>989.0</ele><time>2026-04-12T13:35:10.959Z</time></trkpt><trkpt lat="46.36119324306254" lon="12.196307881387941"><ele>987.8000000000001</ele><time>2026-04-12T13:35:11.959Z</time></trkpt><trkpt lat="46.361232116299085" lon="12.196166072968206"><ele>986.6000000000001</ele><time>2026-04-12T13:35:12.959Z</time></trkpt><trkpt lat="46.36124439941145" lon="12.196017383098281"><ele>985.4</ele><time>2026-04-12T13:35:13.959Z</time></trkpt><trkpt lat="46.36127020636654" lon="12.195919578256378"><ele>984.2</ele><time>2026-04-12T13:35:14.959Z</time></trkpt><trkpt lat="46.361221933277776" lon="12.195789299027627"><ele>983.0</ele><time>2026-04-12T13:35:16.959Z</time></trkpt><trkpt lat="46.36112291879919" lon="12.195780302500049"><ele>983.0</ele><time>2026-04-12T13:35:18.959Z</time></trkpt><trkpt lat="46.36109839967716" lon="12.195907420930196"><ele>983.0</ele><time>2026-04-12T13:35:19.959Z</time></trkpt><trkpt lat="46.361087072548095" lon="12.196032139147242"><ele>983.0</ele><time>2026-04-12T13:35:20.959Z</time></trkpt><trkpt lat="46.36104807701242" lon="12.196160844399332"><ele>983.0</ele><time>2026-04-12T13:35:21.959Z</time></trkpt><trkpt lat="46.36100608042868" lon="12.19629467136212"><ele>983.0</ele><time>2026-04-12T13:35:22.959Z</time></trkpt><trkpt lat="46.36093841226003" lon="12.196404517069304"><ele>984.2</ele><time>2026-04-12T13:35:23.959Z</time></trkpt><trkpt lat="46.36086301251583" lon="12.19651407975097"><ele>985.4</ele><time>2026-04-12T13:35:24.959Z</time></trkpt><trkpt lat="46.360781616391854" lon="12.196583072706126"><ele>986.6000000000001</ele><time>2026-04-12T13:35:25.96Z</time></trkpt><trkpt lat="46.36068174977606" lon="12.196610771608233"><ele>987.8000000000001</ele><time>2026-04-12T13:35:26.96Z</time></trkpt><trkpt lat="46.36058939015488" lon="12.196638833526736"><ele>989.0</ele><time>2026-04-12T13:35:27.96Z</time></trkpt><trkpt lat="46.36050795661255" lon="12.196688834821913"><ele>982.2</ele><time>2026-04-12T13:35:28.96Z</time></trkpt><trkpt lat="46.36042288913316" lon="12.196726554082604"><ele>975.4000000000001</ele><time>2026-04-12T13:35:29.96Z</time></trkpt><trkpt lat="46.36037675530554" lon="12.196851028978795"><ele>968.6</ele><time>2026-04-12T13:35:30.96Z</time></trkpt><trkpt lat="46.360348510172095" lon="12.19696637291841"><ele>961.8</ele><time>2026-04-12T13:35:31.96Z</time></trkpt><trkpt lat="46.36034076530683" lon="12.19710622459851"><ele>955.0</ele><time>2026-04-12T13:35:32.96Z</time></trkpt><trkpt lat="46.36032952112226" lon="12.197250553787338"><ele>955.0</ele><time>2026-04-12T13:35:33.96Z</time></trkpt><trkpt lat="46.360319915675824" lon="12.197364183765186"><ele>955.0</ele><time>2026-04-12T13:35:34.96Z</time></trkpt><trkpt lat="46.36027376514231" lon="12.197453839159884"><ele>955.0</ele><time>2026-04-12T13:35:36.96Z</time></trkpt><trkpt lat="46.3602019221764" lon="12.197337373363004"><ele>955.0</ele><time>2026-04-12T13:35:38.96Z</time></trkpt><trkpt lat="46.36023470279301" lon="12.197199027335238"><ele>955.0</ele><time>2026-04-12T13:35:39.96Z</time></trkpt><trkpt lat="46.36023746215731" lon="12.197028750752716"><ele>955.0</ele><time>2026-04-12T13:35:40.96Z</time></trkpt><trkpt lat="46.36027203977286" lon="12.196871448274743"><ele>955.0</ele><time>2026-04-12T13:35:41.96Z</time></trkpt><trkpt lat="46.36028769120653" lon="12.196733690305752"><ele>955.0</ele><time>2026-04-12T13:35:42.96Z</time></trkpt><trkpt lat="46.36031038754119" lon="12.196602278747498"><ele>955.0</ele><time>2026-04-12T13:35:43.96Z</time></trkpt><trkpt lat="46.36037400726442" lon="12.196465288410453"><ele>955.0</ele><time>2026-04-12T13:35:44.96Z</time></trkpt><trkpt lat="46.36046263113452" lon="12.196344007015508"><ele>960.6</ele><time>2026-04-12T13:35:45.96Z</time></trkpt><trkpt lat="46.36054171372729" lon="12.196234130032693"><ele>966.2</ele><time>2026-04-12T13:35:46.96Z</time></trkpt><trkpt lat="46.36061154471611" lon="12.196135379142616"><ele>971.8</ele><time>2026-04-12T13:35:47.96Z</time></trkpt><trkpt lat="46.360651515006644" lon="12.19603587679405"><ele>977.4</ele><time>2026-04-12T13:35:48.96Z</time></trkpt><trkpt lat="46.36065432089987" lon="12.195923387967854"><ele>983.0</ele><time>2026-04-12T13:35:49.96Z</time></trkpt><trkpt lat="46.36061729908723" lon="12.195792830812726"><ele>983.0</ele><time>2026-04-12T13:35:50.96Z</time></trkpt><trkpt lat="46.36056038046513" lon="12.195674224352697"><ele>983.0</ele><time>2026-04-12T13:35:51.96Z</time></trkpt><trkpt lat="46.36049977608369" lon="12.195569337957984"><ele>983.0</ele><time>2026-04-12T13:35:52.96Z</time></trkpt><trkpt lat="46.36048194099593" lon="12.195442163467613"><ele>983.0</ele><time>2026-04-12T13:35:53.96Z</time></trkpt><trkpt lat="46.36048750710585" lon="12.195281758529633"><ele>983.0</ele><time>2026-04-12T13:35:54.96Z</time></trkpt><trkpt lat="46.36049720021891" lon="12.195085455675391"><ele>971.75</ele><time>2026-04-12T13:35:55.96Z</time></trkpt><trkpt lat="46.36050480685612" lon="12.194889210520987"><ele>960.5</ele><time>2026-04-12T13:35:56.96Z</time></trkpt><trkpt lat="46.3604963229385" lon="12.194716113328294"><ele>949.25</ele><time>2026-04-12T13:35:57.96Z</time></trkpt><trkpt lat="46.360492499204966" lon="12.194537728078698"><ele>938.0</ele><time>2026-04-12T13:35:58.96Z</time></trkpt><trkpt lat="46.36048281927689" lon="12.194352934623135"><ele>937.75</ele><time>2026-04-12T13:35:59.96Z</time></trkpt><trkpt lat="46.36046635200774" lon="12.194174951599322"><ele>937.5</ele><time>2026-04-12T13:36:00.96Z</time></trkpt><trkpt lat="46.360452070709414" lon="12.193992593712947"><ele>937.25</ele><time>2026-04-12T13:36:01.96Z</time></trkpt><trkpt lat="46.36044316014195" lon="12.193810410461083"><ele>937.0</ele><time>2026-04-12T13:36:02.96Z</time></trkpt><trkpt lat="46.360428919646495" lon="12.19362807274003"><ele>936.75</ele><time>2026-04-12T13:36:03.96Z</time></trkpt><trkpt lat="46.36044031179199" lon="12.193452405319517"><ele>936.5</ele><time>2026-04-12T13:36:04.96Z</time></trkpt><trkpt lat="46.36045355228297" lon="12.193273305139453"><ele>936.25</ele><time>2026-04-12T13:36:05.96Z</time></trkpt><trkpt lat="46.360474495281636" lon="12.193106336765743"><ele>936.0</ele><time>2026-04-12T13:36:06.96Z</time></trkpt><trkpt lat="46.360482247705434" lon="12.192961547972141"><ele>933.0</ele><time>2026-04-12T13:36:07.96Z</time></trkpt><trkpt lat="46.360518709423886" lon="12.192819520408992"><ele>930.0</ele><time>2026-04-12T13:36:08.96Z</time></trkpt><trkpt lat="46.36058750010998" lon="12.19268048398665"><ele>927.0</ele><time>2026-04-12T13:36:09.96Z</time></trkpt><trkpt lat="46.3606587757716" lon="12.192546343336495"><ele>924.0</ele><time>2026-04-12T13:36:10.96Z</time></trkpt><trkpt lat="46.36074076420728" lon="12.192398465133735"><ele>923.6</ele><time>2026-04-12T13:36:11.96Z</time></trkpt><trkpt lat="46.360806690937295" lon="12.192242725681284"><ele>923.2</ele><time>2026-04-12T13:36:12.96Z</time></trkpt><trkpt lat="46.36087311496082" lon="12.192139030274818"><ele>922.8000000000001</ele><time>2026-04-12T13:36:13.96Z</time></trkpt><trkpt lat="46.360942348287566" lon="12.192029978132267"><ele>922.4000000000001</ele><time>2026-04-12T13:36:14.96Z</time></trkpt><trkpt lat="46.36104081962056" lon="12.19198831128181"><ele>922.0</ele><time>2026-04-12T13:36:15.96Z</time></trkpt><trkpt lat="46.36111608402594" lon="12.191900168117966"><ele>922.0</ele><time>2026-04-12T13:36:16.96Z</time></trkpt><trkpt lat="46.361208868592904" lon="12.19180521574133"><ele>922.0</ele><time>2026-04-12T13:36:17.96Z</time></trkpt><trkpt lat="46.361249946657516" lon="12.191649953464763"><ele>922.0</ele><time>2026-04-12T13:36:18.96Z</time></trkpt><trkpt lat="46.361307176801816" lon="12.191515829420128"><ele>922.0</ele><time>2026-04-12T13:36:19.96Z</time></trkpt><trkpt lat="46.36140756741811" lon="12.191462531502149"><ele>922.0</ele><time>2026-04-12T13:36:20.96Z</time></trkpt><trkpt lat="46.3614939377487" lon="12.191379529644403"><ele>921.25</ele><time>2026-04-12T13:36:21.96Z</time></trkpt><trkpt lat="46.36161487211645" lon="12.191288556908773"><ele>920.5</ele><time>2026-04-12T13:36:22.96Z</time></trkpt><trkpt lat="46.36171204279844" lon="12.19122582294018"><ele>919.75</ele><time>2026-04-12T13:36:23.96Z</time></trkpt><trkpt lat="46.36178661748208" lon="12.191131155408808"><ele>919.0</ele><time>2026-04-12T13:36:25.96Z</time></trkpt><trkpt lat="46.36172616795609" lon="12.19099902714952"><ele>919.0</ele><time>2026-04-12T13:36:27.96Z</time></trkpt><trkpt lat="46.361631468970444" lon="12.190993124803036"><ele>919.0000000000001</ele><time>2026-04-12T13:36:28.96Z</time></trkpt><trkpt lat="46.36154080119796" lon="12.191060851020525"><ele>919.0000000000001</ele><time>2026-04-12T13:36:29.96Z</time></trkpt><trkpt lat="46.361452919189254" lon="12.19115724610365"><ele>919.0</ele><time>2026-04-12T13:36:30.96Z</time></trkpt><trkpt lat="46.361342930502204" lon="12.191248342699508"><ele>919.0</ele><time>2026-04-12T13:36:31.96Z</time></trkpt><trkpt lat="46.361219046662264" lon="12.19134373870444"><ele>919.75</ele><time>2026-04-12T13:36:32.96Z</time></trkpt><trkpt lat="46.36112100146421" lon="12.191449698391938"><ele>920.5</ele><time>2026-04-12T13:36:33.96Z</time></trkpt><trkpt lat="46.361042148039196" lon="12.191567762246812"><ele>921.25</ele><time>2026-04-12T13:36:34.96Z</time></trkpt><trkpt lat="46.360953383132184" lon="12.19168429142354"><ele>922.0</ele><time>2026-04-12T13:36:35.96Z</time></trkpt><trkpt lat="46.36086665354569" lon="12.191776820713738"><ele>922.0</ele><time>2026-04-12T13:36:36.96Z</time></trkpt><trkpt lat="46.360743258806934" lon="12.191853806318086"><ele>922.0</ele><time>2026-04-12T13:36:37.96Z</time></trkpt><trkpt lat="46.3605969623683" lon="12.191912780872416"><ele>922.0</ele><time>2026-04-12T13:36:38.96Z</time></trkpt><trkpt lat="46.36044786149696" lon="12.191940595169362"><ele>922.0</ele><time>2026-04-12T13:36:39.96Z</time></trkpt><trkpt lat="46.36029072989258" lon="12.191907265232768"><ele>918.2</ele><time>2026-04-12T13:36:40.96Z</time></trkpt><trkpt lat="46.36016521321647" lon="12.191889581060076"><ele>914.4000000000001</ele><time>2026-04-12T13:36:41.96Z</time></trkpt><trkpt lat="46.36007160231785" lon="12.191901057818585"><ele>910.5999999999999</ele><time>2026-04-12T13:36:42.96Z</time></trkpt><trkpt lat="46.36000335278427" lon="12.191906000205359"><ele>906.8</ele><time>2026-04-12T13:36:43.96Z</time></trkpt><trkpt lat="46.35993413609102" lon="12.191806792094093"><ele>903.0</ele><time>2026-04-12T13:36:45.96Z</time></trkpt><trkpt lat="46.35996512745436" lon="12.191720666815481"><ele>903.0</ele><time>2026-04-12T13:36:46.96Z</time></trkpt><trkpt lat="46.36005437665841" lon="12.191737304037703"><ele>903.0</ele><time>2026-04-12T13:36:47.96Z</time></trkpt><trkpt lat="46.36015417056654" lon="12.19174029875664"><ele>903.0</ele><time>2026-04-12T13:36:48.96Z</time></trkpt><trkpt lat="46.36026301819357" lon="12.191725453927328"><ele>903.0</ele><time>2026-04-12T13:36:49.96Z</time></trkpt><trkpt lat="46.36038823535311" lon="12.191713600776518"><ele>903.0</ele><time>2026-04-12T13:36:50.96Z</time></trkpt><trkpt lat="46.36048442608755" lon="12.191695867298986"><ele>901.0</ele><time>2026-04-12T13:36:51.96Z</time></trkpt><trkpt lat="46.3606475015638" lon="12.191639101670564"><ele>899.0</ele><time>2026-04-12T13:36:52.96Z</time></trkpt><trkpt lat="46.360760347914265" lon="12.191522330532372"><ele>897.0</ele><time>2026-04-12T13:36:53.96Z</time></trkpt><trkpt lat="46.360876441820146" lon="12.19138313072285"><ele>897.0</ele><time>2026-04-12T13:36:54.96Z</time></trkpt><trkpt lat="46.360951763342726" lon="12.191208631333375"><ele>897.0</ele><time>2026-04-12T13:36:55.96Z</time></trkpt><trkpt lat="46.3610220830188" lon="12.191046952602056"><ele>897.0</ele><time>2026-04-12T13:36:56.96Z</time></trkpt><trkpt lat="46.36110559904736" lon="12.1908917447923"><ele>897.0</ele><time>2026-04-12T13:36:57.96Z</time></trkpt><trkpt lat="46.361182531108284" lon="12.190733324175753"><ele>897.4000000000001</ele><time>2026-04-12T13:36:58.96Z</time></trkpt><trkpt lat="46.36123892702227" lon="12.190594829612719"><ele>897.8000000000001</ele><time>2026-04-12T13:36:59.96Z</time></trkpt><trkpt lat="46.36127697495692" lon="12.190482952058531"><ele>898.2</ele><time>2026-04-12T13:37:00.96Z</time></trkpt><trkpt lat="46.36127809026001" lon="12.190336702315804"><ele>898.6</ele><time>2026-04-12T13:37:01.96Z</time></trkpt><trkpt lat="46.36124308116594" lon="12.19021010629671"><ele>899.0</ele><time>2026-04-12T13:37:02.96Z</time></trkpt><trkpt lat="46.36117493517289" lon="12.190113398589753"><ele>899.0</ele><time>2026-04-12T13:37:03.96Z</time></trkpt><trkpt lat="46.361083211151254" lon="12.190059434316971"><ele>899.0000000000001</ele><time>2026-04-12T13:37:04.96Z</time></trkpt><trkpt lat="46.360991998471526" lon="12.19006055083035"><ele>899.0000000000001</ele><time>2026-04-12T13:37:05.96Z</time></trkpt><trkpt lat="46.36087656474729" lon="12.190119415725734"><ele>899.0</ele><time>2026-04-12T13:37:06.96Z</time></trkpt><trkpt lat="46.36077630217217" lon="12.190220117052885"><ele>899.0</ele><time>2026-04-12T13:37:07.96Z</time></trkpt><trkpt lat="46.36067650157478" lon="12.190311901820891"><ele>899.0</ele><time>2026-04-12T13:37:08.96Z</time></trkpt><trkpt lat="46.36054733056541" lon="12.190350695984751"><ele>899.0</ele><time>2026-04-12T13:37:09.96Z</time></trkpt><trkpt lat="46.3604144163053" lon="12.190345215577606"><ele>899.0</ele><time>2026-04-12T13:37:10.96Z</time></trkpt><trkpt lat="46.360324601223326" lon="12.190277039357925"><ele>899.0</ele><time>2026-04-12T13:37:11.96Z</time></trkpt><trkpt lat="46.36020594818809" lon="12.190176061928133"><ele>897.3333333333334</ele><time>2026-04-12T13:37:12.96Z</time></trkpt><trkpt lat="46.360032168394525" lon="12.190080087574527"><ele>895.6666666666667</ele><time>2026-04-12T13:37:13.96Z</time></trkpt><trkpt lat="46.35980758519219" lon="12.190001869072987"><ele>894.0</ele><time>2026-04-12T13:37:14.96Z</time></trkpt><trkpt lat="46.35955871631414" lon="12.189922924831002"><ele>892.5</ele><time>2026-04-12T13:37:15.96Z</time></trkpt><trkpt lat="46.359645381620034" lon="12.189962718277148"><ele>891.0</ele><time>2026-04-12T13:37:16.96Z</time></trkpt><trkpt lat="46.3594994154214" lon="12.18991566847809"><ele>889.5</ele><time>2026-04-12T13:37:17.96Z</time></trkpt><trkpt lat="46.359363490661046" lon="12.189822663308124"><ele>888.0</ele><time>2026-04-12T13:37:18.96Z</time></trkpt><trkpt lat="46.35924224015361" lon="12.189721447439224"><ele>888.0</ele><time>2026-04-12T13:37:19.96Z</time></trkpt><trkpt lat="46.359142829306336" lon="12.189572493025391"><ele>888.0</ele><time>2026-04-12T13:37:20.96Z</time></trkpt><trkpt lat="46.359040180973686" lon="12.189409362551642"><ele>888.0</ele><time>2026-04-12T13:37:21.96Z</time></trkpt><trkpt lat="46.358935515285516" lon="12.189230978669732"><ele>887.6666666666667</ele><time>2026-04-12T13:37:22.96Z</time></trkpt><trkpt lat="46.358810414084104" lon="12.18905440372225"><ele>887.3333333333334</ele><time>2026-04-12T13:37:23.96Z</time></trkpt><trkpt lat="46.358691019104754" lon="12.188868114875566"><ele>887.0</ele><time>2026-04-12T13:37:24.96Z</time></trkpt><trkpt lat="46.35856369441297" lon="12.188708884727346"><ele>887.0</ele><time>2026-04-12T13:37:25.96Z</time></trkpt><trkpt lat="46.35842648580218" lon="12.18857048987479"><ele>887.0</ele><time>2026-04-12T13:37:26.96Z</time></trkpt><trkpt lat="46.358272719407786" lon="12.188450408615378"><ele>887.0</ele><time>2026-04-12T13:37:27.96Z</time></trkpt><trkpt lat="46.35810261372486" lon="12.188348948659568"><ele>887.3333333333334</ele><time>2026-04-12T13:37:28.96Z</time></trkpt><trkpt lat="46.3579404685589" lon="12.18824416170543"><ele>887.6666666666667</ele><time>2026-04-12T13:37:29.96Z</time></trkpt><trkpt lat="46.35776670509178" lon="12.188148492319138"><ele>888.0</ele><time>2026-04-12T13:37:30.96Z</time></trkpt><trkpt lat="46.35761801240107" lon="12.188049916784733"><ele>888.0</ele><time>2026-04-12T13:37:31.961Z</time></trkpt><trkpt lat="46.357467387677005" lon="12.187935127926481"><ele>888.0</ele><time>2026-04-12T13:37:32.961Z</time></trkpt><trkpt lat="46.35732613399824" lon="12.18784887610281"><ele>888.0</ele><time>2026-04-12T13:37:33.961Z</time></trkpt><trkpt lat="46.35717381820866" lon="12.187785694437787"><ele>880.3333333333333</ele><time>2026-04-12T13:37:34.961Z</time></trkpt><trkpt lat="46.357001616381126" lon="12.187752922011896"><ele>872.6666666666666</ele><time>2026-04-12T13:37:35.961Z</time></trkpt><trkpt lat="46.35681802915258" lon="12.187743814758734"><ele>865.0</ele><time>2026-04-12T13:37:36.961Z</time></trkpt><trkpt lat="46.356620439808125" lon="12.187755588397952"><ele>865.0</ele><time>2026-04-12T13:37:37.961Z</time></trkpt><trkpt lat="46.35640262805484" lon="12.18777600581767"><ele>865.0</ele><time>2026-04-12T13:37:38.961Z</time></trkpt><trkpt lat="46.35617497961326" lon="12.187813080903108"><ele>865.0</ele><time>2026-04-12T13:37:39.961Z</time></trkpt><trkpt lat="46.35599349284902" lon="12.187817794812249"><ele>863.6666666666666</ele><time>2026-04-12T13:37:40.961Z</time></trkpt><trkpt lat="46.35582085028261" lon="12.187809839146942"><ele>862.3333333333333</ele><time>2026-04-12T13:37:41.961Z</time></trkpt><trkpt lat="46.35565280115095" lon="12.187778316826636"><ele>861.0</ele><time>2026-04-12T13:37:42.961Z</time></trkpt><trkpt lat="46.35549096304595" lon="12.18767323473767"><ele>860.6666666666667</ele><time>2026-04-12T13:37:43.961Z</time></trkpt><trkpt lat="46.355304852497504" lon="12.187578949984891"><ele>860.3333333333334</ele><time>2026-04-12T13:37:44.961Z</time></trkpt><trkpt lat="46.355135346548806" lon="12.187457357301493"><ele>860.0</ele><time>2026-04-12T13:37:45.961Z</time></trkpt><trkpt lat="46.35496529152836" lon="12.187334329028783"><ele>859.6666666666667</ele><time>2026-04-12T13:37:46.961Z</time></trkpt><trkpt lat="46.3548140570457" lon="12.187214887074598"><ele>859.3333333333333</ele><time>2026-04-12T13:37:47.961Z</time></trkpt><trkpt lat="46.3546765644471" lon="12.18714618597006"><ele>859.0</ele><time>2026-04-12T13:37:48.961Z</time></trkpt><trkpt lat="46.35451649598557" lon="12.18710264121331"><ele>859.0</ele><time>2026-04-12T13:37:49.961Z</time></trkpt><trkpt lat="46.35436932357063" lon="12.187084809097671"><ele>859.0</ele><time>2026-04-12T13:37:50.961Z</time></trkpt><trkpt lat="46.35422340491373" lon="12.187069261968967"><ele>859.0</ele><time>2026-04-12T13:37:51.961Z</time></trkpt><trkpt lat="46.35406847631876" lon="12.187070883997668"><ele>859.0</ele><time>2026-04-12T13:37:52.961Z</time></trkpt><trkpt lat="46.35391920723837" lon="12.187079597712987"><ele>857.25</ele><time>2026-04-12T13:37:53.961Z</time></trkpt><trkpt lat="46.353769725842945" lon="12.187108181596765"><ele>855.5</ele><time>2026-04-12T13:37:54.961Z</time></trkpt><trkpt lat="46.353638434929636" lon="12.18719592970666"><ele>853.75</ele><time>2026-04-12T13:37:55.961Z</time></trkpt><trkpt lat="46.353519157538805" lon="12.187308815448526"><ele>852.0</ele><time>2026-04-12T13:37:56.961Z</time></trkpt><trkpt lat="46.353389583753696" lon="12.187436213505098"><ele>850.0</ele><time>2026-04-12T13:37:57.961Z</time></trkpt><trkpt lat="46.35326505827411" lon="12.187563285218225"><ele>848.0</ele><time>2026-04-12T13:37:58.961Z</time></trkpt><trkpt lat="46.35313105520771" lon="12.187695901930676"><ele>846.0</ele><time>2026-04-12T13:37:59.961Z</time></trkpt><trkpt lat="46.352998217587995" lon="12.187808770371458"><ele>847.6666666666667</ele><time>2026-04-12T13:38:00.961Z</time></trkpt><trkpt lat="46.35286638848824" lon="12.187924958618755"><ele>849.3333333333334</ele><time>2026-04-12T13:38:01.961Z</time></trkpt><trkpt lat="46.35272417950886" lon="12.188056369569962"><ele>851.0</ele><time>2026-04-12T13:38:02.961Z</time></trkpt><trkpt lat="46.352578675274046" lon="12.18817770472644"><ele>851.0</ele><time>2026-04-12T13:38:03.961Z</time></trkpt><trkpt lat="46.352424859819116" lon="12.18827148056676"><ele>851.0</ele><time>2026-04-12T13:38:04.961Z</time></trkpt><trkpt lat="46.35224451651645" lon="12.188286438269008"><ele>851.0</ele><time>2026-04-12T13:38:05.961Z</time></trkpt><trkpt lat="46.3520692587935" lon="12.18832144829575"><ele>846.3333333333334</ele><time>2026-04-12T13:38:06.961Z</time></trkpt><trkpt lat="46.35190252007212" lon="12.188316612985004"><ele>841.6666666666667</ele><time>2026-04-12T13:38:07.961Z</time></trkpt><trkpt lat="46.35174751968752" lon="12.188331189997802"><ele>837.0</ele><time>2026-04-12T13:38:08.961Z</time></trkpt><trkpt lat="46.35161440884389" lon="12.188376898373805"><ele>837.0</ele><time>2026-04-12T13:38:09.961Z</time></trkpt><trkpt lat="46.351491306840884" lon="12.188441740537982"><ele>837.0</ele><time>2026-04-12T13:38:10.961Z</time></trkpt><trkpt lat="46.35137686795488" lon="12.188531941174697"><ele>837.0</ele><time>2026-04-12T13:38:11.961Z</time></trkpt><trkpt lat="46.351272691659865" lon="12.188630509615379"><ele>837.0</ele><time>2026-04-12T13:38:12.961Z</time></trkpt><trkpt lat="46.35118018109019" lon="12.188727047603319"><ele>836.0</ele><time>2026-04-12T13:38:13.961Z</time></trkpt><trkpt lat="46.351090292235156" lon="12.188811997003324"><ele>835.0</ele><time>2026-04-12T13:38:14.961Z</time></trkpt><trkpt lat="46.35099255886955" lon="12.188892054115406"><ele>834.0</ele><time>2026-04-12T13:38:15.961Z</time></trkpt><trkpt lat="46.350897612450936" lon="12.188953344442712"><ele>833.0</ele><time>2026-04-12T13:38:16.961Z</time></trkpt><trkpt lat="46.350805696092834" lon="12.189041587302691"><ele>832.0</ele><time>2026-04-12T13:38:17.961Z</time></trkpt><trkpt lat="46.35070374522369" lon="12.189146298818857"><ele>832.0</ele><time>2026-04-12T13:38:18.961Z</time></trkpt><trkpt lat="46.350590882959025" lon="12.189255109557175"><ele>832.0</ele><time>2026-04-12T13:38:19.961Z</time></trkpt><trkpt lat="46.35046225120249" lon="12.189376194725062"><ele>832.0</ele><time>2026-04-12T13:38:20.961Z</time></trkpt><trkpt lat="46.350323612971" lon="12.189511331375726"><ele>831.0</ele><time>2026-04-12T13:38:21.961Z</time></trkpt><trkpt lat="46.350180216216316" lon="12.18966140125162"><ele>830.0</ele><time>2026-04-12T13:38:22.961Z</time></trkpt><trkpt lat="46.35001979211066" lon="12.189804513524686"><ele>829.0</ele><time>2026-04-12T13:38:23.961Z</time></trkpt><trkpt lat="46.3498460111496" lon="12.1899591358889"><ele>826.0</ele><time>2026-04-12T13:38:24.961Z</time></trkpt><trkpt lat="46.34965991733472" lon="12.190130664568626"><ele>823.0</ele><time>2026-04-12T13:38:25.961Z</time></trkpt><trkpt lat="46.34946785921385" lon="12.190315787402774"><ele>823.0</ele><time>2026-04-12T13:38:26.961Z</time></trkpt><trkpt lat="46.34928188702155" lon="12.19049210856348"><ele>823.0</ele><time>2026-04-12T13:38:27.961Z</time></trkpt><trkpt lat="46.34910357269573" lon="12.19065364989759"><ele>823.0</ele><time>2026-04-12T13:38:28.961Z</time></trkpt><trkpt lat="46.3489155929348" lon="12.190808602801102"><ele>819.5</ele><time>2026-04-12T13:38:29.961Z</time></trkpt><trkpt lat="46.348716169311835" lon="12.190960105906148"><ele>816.0</ele><time>2026-04-12T13:38:30.961Z</time></trkpt><trkpt lat="46.34850272582912" lon="12.191121234800843"><ele>816.0</ele><time>2026-04-12T13:38:31.961Z</time></trkpt><trkpt lat="46.34826812320018" lon="12.191292084794648"><ele>816.0</ele><time>2026-04-12T13:38:32.961Z</time></trkpt><trkpt lat="46.34802554909143" lon="12.191464258869749"><ele>817.0</ele><time>2026-04-12T13:38:33.961Z</time></trkpt><trkpt lat="46.34780381292659" lon="12.19161954892475"><ele>818.0</ele><time>2026-04-12T13:38:34.961Z</time></trkpt><trkpt lat="46.347596473152514" lon="12.191767234246472"><ele>818.0</ele><time>2026-04-12T13:38:35.961Z</time></trkpt><trkpt lat="46.34739941509741" lon="12.191899153003325"><ele>818.0</ele><time>2026-04-12T13:38:36.961Z</time></trkpt><trkpt lat="46.34723015058251" lon="12.192025005704629"><ele>818.0</ele><time>2026-04-12T13:38:37.961Z</time></trkpt><trkpt lat="46.347065740854724" lon="12.192157299454193"><ele>817.3333333333334</ele><time>2026-04-12T13:38:38.961Z</time></trkpt><trkpt lat="46.34690363456528" lon="12.192275509607132"><ele>816.6666666666667</ele><time>2026-04-12T13:38:39.961Z</time></trkpt><trkpt lat="46.346749775593715" lon="12.192384130969417"><ele>816.0</ele><time>2026-04-12T13:38:40.961Z</time></trkpt><trkpt lat="46.34661306725607" lon="12.192486859053023"><ele>816.0</ele><time>2026-04-12T13:38:41.961Z</time></trkpt><trkpt lat="46.34648004567662" lon="12.192577802578247"><ele>816.0</ele><time>2026-04-12T13:38:42.961Z</time></trkpt><trkpt lat="46.34636720446246" lon="12.192673026301945"><ele>816.0</ele><time>2026-04-12T13:38:43.961Z</time></trkpt><trkpt lat="46.34624669474109" lon="12.192731694902076"><ele>816.0</ele><time>2026-04-12T13:38:44.961Z</time></trkpt><trkpt lat="46.34613367577731" lon="12.192780965370867"><ele>815.5999999999999</ele><time>2026-04-12T13:38:45.961Z</time></trkpt><trkpt lat="46.34603084463803" lon="12.192808976859551"><ele>815.2</ele><time>2026-04-12T13:38:46.961Z</time></trkpt><trkpt lat="46.345958096775924" lon="12.192807290616797"><ele>814.8</ele><time>2026-04-12T13:38:47.961Z</time></trkpt><trkpt lat="46.34587132112972" lon="12.192830578684209"><ele>814.4000000000001</ele><time>2026-04-12T13:38:49.961Z</time></trkpt><trkpt lat="46.345823073389965" lon="12.193043872393323"><ele>814.0</ele><time>2026-04-12T13:38:51.961Z</time></trkpt><trkpt lat="46.34581363956004" lon="12.193223134913952"><ele>814.0</ele><time>2026-04-12T13:38:52.961Z</time></trkpt><trkpt lat="46.34579568866659" lon="12.193414381419123"><ele>814.0</ele><time>2026-04-12T13:38:53.961Z</time></trkpt><trkpt lat="46.345739221175364" lon="12.19362568315796"><ele>814.0</ele><time>2026-04-12T13:38:54.961Z</time></trkpt><trkpt lat="46.34567315620649" lon="12.193872522705107"><ele>816.0</ele><time>2026-04-12T13:38:55.961Z</time></trkpt><trkpt lat="46.345594572518436" lon="12.194145905283944"><ele>818.0</ele><time>2026-04-12T13:38:56.961Z</time></trkpt><trkpt lat="46.34549837583477" lon="12.1944111188225"><ele>820.0</ele><time>2026-04-12T13:38:57.961Z</time></trkpt><trkpt lat="46.345409781013856" lon="12.194640862400492"><ele>816.0</ele><time>2026-04-12T13:38:58.961Z</time></trkpt><trkpt lat="46.345321388352666" lon="12.19482817437087"><ele>812.0</ele><time>2026-04-12T13:38:59.961Z</time></trkpt><trkpt lat="46.34524178156652" lon="12.19498457195285"><ele>808.0</ele><time>2026-04-12T13:39:00.961Z</time></trkpt><trkpt lat="46.34517685806534" lon="12.195116493427957"><ele>804.0</ele><time>2026-04-12T13:39:01.961Z</time></trkpt><trkpt lat="46.34512789930185" lon="12.195220284272514"><ele>803.8000000000001</ele><time>2026-04-12T13:39:02.961Z</time></trkpt><trkpt lat="46.34511357787419" lon="12.1953469226265"><ele>803.6</ele><time>2026-04-12T13:39:03.961Z</time></trkpt><trkpt lat="46.345124992735606" lon="12.19544670360974"><ele>803.4</ele><time>2026-04-12T13:39:04.961Z</time></trkpt><trkpt lat="46.345119971200866" lon="12.19556953343762"><ele>803.2</ele><time>2026-04-12T13:39:06.961Z</time></trkpt><trkpt lat="46.34501587046668" lon="12.19544233012123"><ele>803.0</ele><time>2026-04-12T13:39:44.962Z</time></trkpt><trkpt lat="46.344989215932415" lon="12.195596030254078"><ele>804.5999999999999</ele><time>2026-04-12T13:44:11.965Z</time></trkpt><trkpt lat="46.344910450926555" lon="12.19568278779465"><ele>806.1999999999999</ele><time>2026-04-12T13:44:12.965Z</time></trkpt><trkpt lat="46.3448481565979" lon="12.195798750142357"><ele>807.8</ele><time>2026-04-12T13:44:14.965Z</time></trkpt><trkpt lat="46.344787811299156" lon="12.195847961833799"><ele>809.4</ele><time>2026-04-12T13:44:15.965Z</time></trkpt><trkpt lat="46.344748551961715" lon="12.195919359597585"><ele>811.0</ele><time>2026-04-12T13:44:16.965Z</time></trkpt><trkpt lat="46.34464682879625" lon="12.196108293624329"><ele>811.0</ele><time>2026-04-12T13:44:18.965Z</time></trkpt><trkpt lat="46.34454215566801" lon="12.196250199032308"><ele>811.0</ele><time>2026-04-12T13:44:19.965Z</time></trkpt><trkpt lat="46.34441640431391" lon="12.196446356028373"><ele>811.0</ele><time>2026-04-12T13:44:20.965Z</time></trkpt><trkpt lat="46.34430654620837" lon="12.196664866809327"><ele>810.6666666666666</ele><time>2026-04-12T13:44:21.965Z</time></trkpt><trkpt lat="46.34421698493743" lon="12.19685567531269"><ele>810.3333333333333</ele><time>2026-04-12T13:44:22.965Z</time></trkpt><trkpt lat="46.34411222870414" lon="12.197054870898892"><ele>810.0</ele><time>2026-04-12T13:44:23.965Z</time></trkpt><trkpt lat="46.34401478107543" lon="12.197256935391996"><ele>812.3333333333333</ele><time>2026-04-12T13:44:24.965Z</time></trkpt><trkpt lat="46.3439063175602" lon="12.197488361233642"><ele>814.6666666666666</ele><time>2026-04-12T13:44:25.965Z</time></trkpt><trkpt lat="46.34381189739368" lon="12.197651873495268"><ele>817.0</ele><time>2026-04-12T13:44:26.965Z</time></trkpt><trkpt lat="46.3436791276148" lon="12.19780816976672"><ele>817.0</ele><time>2026-04-12T13:44:27.965Z</time></trkpt><trkpt lat="46.34354351049998" lon="12.198086352172329"><ele>817.0</ele><time>2026-04-12T13:44:28.965Z</time></trkpt><trkpt lat="46.34339872295681" lon="12.198264816980235"><ele>817.0</ele><time>2026-04-12T13:44:29.965Z</time></trkpt><trkpt lat="46.343280191228665" lon="12.198420271818128"><ele>816.75</ele><time>2026-04-12T13:44:30.965Z</time></trkpt><trkpt lat="46.34315606916403" lon="12.19856874938205"><ele>816.5</ele><time>2026-04-12T13:44:31.965Z</time></trkpt><trkpt lat="46.343030314863775" lon="12.198690080055417"><ele>816.25</ele><time>2026-04-12T13:44:32.965Z</time></trkpt><trkpt lat="46.34295157025879" lon="12.19880923636898"><ele>816.0</ele><time>2026-04-12T13:44:33.965Z</time></trkpt><trkpt lat="46.34288501246192" lon="12.198966077397152"><ele>811.0</ele><time>2026-04-12T13:44:34.965Z</time></trkpt><trkpt lat="46.34284117340934" lon="12.199168559552593"><ele>806.0</ele><time>2026-04-12T13:44:35.965Z</time></trkpt><trkpt lat="46.34280889714534" lon="12.199402199506368"><ele>801.0</ele><time>2026-04-12T13:44:36.965Z</time></trkpt><trkpt lat="46.34280767859008" lon="12.199671097049004"><ele>803.6666666666667</ele><time>2026-04-12T13:44:37.965Z</time></trkpt><trkpt lat="46.342820663730755" lon="12.19990720537809"><ele>806.3333333333334</ele><time>2026-04-12T13:44:38.965Z</time></trkpt><trkpt lat="46.342802642632996" lon="12.200172193001094"><ele>809.0</ele><time>2026-04-12T13:44:39.965Z</time></trkpt><trkpt lat="46.342754708651874" lon="12.200460375094018"><ele>832.3333333333334</ele><time>2026-04-12T13:44:40.982Z</time></trkpt><trkpt lat="46.3426656544975" lon="12.200773401996473"><ele>855.6666666666667</ele><time>2026-04-12T13:44:41.979Z</time></trkpt><trkpt lat="46.34258987838189" lon="12.201037987191588"><ele>879.0</ele><time>2026-04-12T13:44:42.983Z</time></trkpt><trkpt lat="46.3425070848956" lon="12.201348053787331"><ele>905.5</ele><time>2026-04-12T13:44:43.982Z</time></trkpt><trkpt lat="46.342405133587675" lon="12.201561176578345"><ele>932.0</ele><time>2026-04-12T13:44:44.982Z</time></trkpt><trkpt lat="46.34089081086809" lon="12.207181155692979"><ele>868.5</ele><time>2026-04-12T13:45:02.965Z</time></trkpt><trkpt lat="46.340817633582965" lon="12.207521920778625"><ele>805.0</ele><time>2026-04-12T13:45:03.965Z</time></trkpt><trkpt lat="46.34074978993603" lon="12.207891995441177"><ele>810.3333333333333</ele><time>2026-04-12T13:45:04.965Z</time></trkpt><trkpt lat="46.34069155245462" lon="12.208212727633057"><ele>815.6666666666667</ele><time>2026-04-12T13:45:05.965Z</time></trkpt><trkpt lat="46.34063544844421" lon="12.208519832648854"><ele>821.0</ele><time>2026-04-12T13:45:06.965Z</time></trkpt><trkpt lat="46.34056960353595" lon="12.208804142421789"><ele>812.6666666666667</ele><time>2026-04-12T13:45:07.965Z</time></trkpt><trkpt lat="46.340515637989064" lon="12.209082857695087"><ele>804.3333333333333</ele><time>2026-04-12T13:45:08.965Z</time></trkpt><trkpt lat="46.340468885911434" lon="12.209360121852514"><ele>796.0</ele><time>2026-04-12T13:45:09.965Z</time></trkpt><trkpt lat="46.340405547910336" lon="12.209601800897584"><ele>795.3333333333333</ele><time>2026-04-12T13:45:10.965Z</time></trkpt><trkpt lat="46.34036589239455" lon="12.209836223926155"><ele>794.6666666666667</ele><time>2026-04-12T13:45:11.965Z</time></trkpt><trkpt lat="46.340318689736534" lon="12.210054946609631"><ele>794.0</ele><time>2026-04-12T13:45:12.965Z</time></trkpt><trkpt lat="46.340350994100675" lon="12.210316170125918"><ele>794.0</ele><time>2026-04-12T13:45:14.965Z</time></trkpt><trkpt lat="46.34041624445373" lon="12.210494780336193"><ele>794.0</ele><time>2026-04-12T13:45:15.965Z</time></trkpt><trkpt lat="46.34053020242022" lon="12.210675484591896"><ele>794.0</ele><time>2026-04-12T13:45:16.965Z</time></trkpt><trkpt lat="46.340617188419635" lon="12.210907059153415"><ele>802.3333333333334</ele><time>2026-04-12T13:45:17.965Z</time></trkpt><trkpt lat="46.34070802526799" lon="12.211111406967511"><ele>810.6666666666667</ele><time>2026-04-12T13:45:18.965Z</time></trkpt><trkpt lat="46.34075442740455" lon="12.211338673425677"><ele>819.0</ele><time>2026-04-12T13:45:19.965Z</time></trkpt><trkpt lat="46.34076909313682" lon="12.21158446544429"><ele>819.0</ele><time>2026-04-12T13:45:20.965Z</time></trkpt><trkpt lat="46.34076720248226" lon="12.211843652177114"><ele>819.0</ele><time>2026-04-12T13:45:21.965Z</time></trkpt><trkpt lat="46.34077299229807" lon="12.212104699849482"><ele>819.0</ele><time>2026-04-12T13:45:22.965Z</time></trkpt><trkpt lat="46.34079981398429" lon="12.212298403617684"><ele>820.3333333333333</ele><time>2026-04-12T13:45:23.965Z</time></trkpt><trkpt lat="46.3407823841204" lon="12.212530728487963"><ele>821.6666666666666</ele><time>2026-04-12T13:45:24.965Z</time></trkpt><trkpt lat="46.340739059946124" lon="12.212753754699483"><ele>823.0</ele><time>2026-04-12T13:45:25.965Z</time></trkpt><trkpt lat="46.34067241648416" lon="12.21299537317204"><ele>825.6666666666666</ele><time>2026-04-12T13:45:26.965Z</time></trkpt><trkpt lat="46.340604331093694" lon="12.213272451718465"><ele>828.3333333333333</ele><time>2026-04-12T13:45:27.965Z</time></trkpt><trkpt lat="46.340535442854744" lon="12.21347989000634"><ele>831.0</ele><time>2026-04-12T13:45:28.965Z</time></trkpt><trkpt lat="46.3404876375949" lon="12.213660902972304"><ele>821.0</ele><time>2026-04-12T13:45:29.965Z</time></trkpt><trkpt lat="46.34048452630845" lon="12.213895410723488"><ele>811.0</ele><time>2026-04-12T13:45:30.965Z</time></trkpt><trkpt lat="46.340513371478764" lon="12.21414381126383"><ele>801.0</ele><time>2026-04-12T13:45:31.965Z</time></trkpt><trkpt lat="46.34052220623392" lon="12.214426563665002"><ele>801.0</ele><time>2026-04-12T13:45:32.965Z</time></trkpt><trkpt lat="46.34052018535496" lon="12.214726208128578"><ele>801.0</ele><time>2026-04-12T13:45:33.965Z</time></trkpt><trkpt lat="46.34052444870688" lon="12.215056808041826"><ele>801.0</ele><time>2026-04-12T13:45:34.965Z</time></trkpt><trkpt lat="46.340519117594496" lon="12.21540137971511"><ele>802.6666666666667</ele><time>2026-04-12T13:45:35.965Z</time></trkpt><trkpt lat="46.340514241371366" lon="12.215742576230655"><ele>804.3333333333334</ele><time>2026-04-12T13:45:36.965Z</time></trkpt><trkpt lat="46.340511833829424" lon="12.21604751384084"><ele>806.0</ele><time>2026-04-12T13:45:37.965Z</time></trkpt><trkpt lat="46.3405118037899" lon="12.216362241548351"><ele>807.0</ele><time>2026-04-12T13:45:38.965Z</time></trkpt><trkpt lat="46.340510988803075" lon="12.21669165940115"><ele>808.0</ele><time>2026-04-12T13:45:39.965Z</time></trkpt><trkpt lat="46.34050135413371" lon="12.217017349245246"><ele>808.0</ele><time>2026-04-12T13:45:40.965Z</time></trkpt><trkpt lat="46.34049497343776" lon="12.217313124688214"><ele>808.0</ele><time>2026-04-12T13:45:41.965Z</time></trkpt><trkpt lat="46.340491734495586" lon="12.217581526875891"><ele>808.0</ele><time>2026-04-12T13:45:42.965Z</time></trkpt><trkpt lat="46.340493900450234" lon="12.217854987439386"><ele>809.3333333333333</ele><time>2026-04-12T13:45:43.965Z</time></trkpt><trkpt lat="46.340476350207744" lon="12.218117325281488"><ele>810.6666666666667</ele><time>2026-04-12T13:45:44.965Z</time></trkpt><trkpt lat="46.340409050105784" lon="12.218366430730391"><ele>812.0</ele><time>2026-04-12T13:45:45.965Z</time></trkpt><trkpt lat="46.34033013164316" lon="12.218626043623448"><ele>815.3333333333334</ele><time>2026-04-12T13:45:46.965Z</time></trkpt><trkpt lat="46.34023786638723" lon="12.218903491074483"><ele>818.6666666666667</ele><time>2026-04-12T13:45:47.965Z</time></trkpt><trkpt lat="46.34013540503521" lon="12.219192374482727"><ele>822.0</ele><time>2026-04-12T13:45:48.965Z</time></trkpt><trkpt lat="46.34005285255005" lon="12.219463304170313"><ele>827.0</ele><time>2026-04-12T13:45:49.965Z</time></trkpt><trkpt lat="46.339972881301364" lon="12.219710838210249"><ele>832.0</ele><time>2026-04-12T13:45:50.965Z</time></trkpt><trkpt lat="46.339907739712146" lon="12.21993324716461"><ele>837.0</ele><time>2026-04-12T13:45:51.965Z</time></trkpt><trkpt lat="46.33987681932562" lon="12.220190183293585"><ele>837.6666666666667</ele><time>2026-04-12T13:45:52.965Z</time></trkpt><trkpt lat="46.3398704700912" lon="12.220481462796364"><ele>838.3333333333334</ele><time>2026-04-12T13:45:53.965Z</time></trkpt><trkpt lat="46.33986106647611" lon="12.220787484777038"><ele>839.0</ele><time>2026-04-12T13:45:54.965Z</time></trkpt><trkpt lat="46.33984524821697" lon="12.221113287433807"><ele>839.0</ele><time>2026-04-12T13:45:55.966Z</time></trkpt><trkpt lat="46.339828098424064" lon="12.221453602385699"><ele>839.0</ele><time>2026-04-12T13:45:56.966Z</time></trkpt><trkpt lat="46.33980094519136" lon="12.221809373385375"><ele>836.5</ele><time>2026-04-12T13:45:57.966Z</time></trkpt><trkpt lat="46.33977547162012" lon="12.222158412481978"><ele>834.0</ele><time>2026-04-12T13:45:58.966Z</time></trkpt><trkpt lat="46.33975353396582" lon="12.222476937700776"><ele>834.0</ele><time>2026-04-12T13:45:59.966Z</time></trkpt><trkpt lat="46.33973068198799" lon="12.22278473277345"><ele>834.0</ele><time>2026-04-12T13:46:00.966Z</time></trkpt><trkpt lat="46.33971434260559" lon="12.223094583121394"><ele>834.0</ele><time>2026-04-12T13:46:01.966Z</time></trkpt><trkpt lat="46.33969879115842" lon="12.223397848251208"><ele>829.6666666666667</ele><time>2026-04-12T13:46:02.966Z</time></trkpt><trkpt lat="46.339672487547325" lon="12.223684125702325"><ele>825.3333333333334</ele><time>2026-04-12T13:46:03.966Z</time></trkpt><trkpt lat="46.33963159703694" lon="12.223949945987567"><ele>821.0</ele><time>2026-04-12T13:46:04.966Z</time></trkpt><trkpt lat="46.33956987643078" lon="12.224184500127778"><ele>818.6666666666667</ele><time>2026-04-12T13:46:05.966Z</time></trkpt><trkpt lat="46.339480468173235" lon="12.22438475669231"><ele>816.3333333333333</ele><time>2026-04-12T13:46:06.966Z</time></trkpt><trkpt lat="46.33934726146093" lon="12.22451922597802"><ele>814.0</ele><time>2026-04-12T13:46:07.966Z</time></trkpt><trkpt lat="46.339223751311756" lon="12.224606908646905"><ele>814.0</ele><time>2026-04-12T13:46:08.966Z</time></trkpt><trkpt lat="46.33911529419561" lon="12.224700478005209"><ele>814.0</ele><time>2026-04-12T13:46:09.966Z</time></trkpt><trkpt lat="46.33900418504274" lon="12.224783996024343"><ele>814.0</ele><time>2026-04-12T13:46:10.966Z</time></trkpt><trkpt lat="46.338935211499425" lon="12.224921800982164"><ele>814.0</ele><time>2026-04-12T13:46:11.966Z</time></trkpt><trkpt lat="46.33890630746818" lon="12.225101031747608"><ele>816.5</ele><time>2026-04-12T13:46:12.966Z</time></trkpt><trkpt lat="46.33891417508421" lon="12.225295931904839"><ele>819.0</ele><time>2026-04-12T13:46:13.966Z</time></trkpt><trkpt lat="46.33890414045962" lon="12.225452302556052"><ele>821.5</ele><time>2026-04-12T13:46:14.966Z</time></trkpt><trkpt lat="46.33884718376583" lon="12.225592566329798"><ele>824.0</ele><time>2026-04-12T13:46:15.966Z</time></trkpt><trkpt lat="46.33872131794729" lon="12.225670189224463"><ele>816.6666666666667</ele><time>2026-04-12T13:46:16.966Z</time></trkpt><trkpt lat="46.33859506508034" lon="12.225800203788454"><ele>809.3333333333333</ele><time>2026-04-12T13:46:17.966Z</time></trkpt><trkpt lat="46.33846339669071" lon="12.225924892760819"><ele>802.0</ele><time>2026-04-12T13:46:18.966Z</time></trkpt><trkpt lat="46.33833327404015" lon="12.226065732657483"><ele>802.0</ele><time>2026-04-12T13:46:19.966Z</time></trkpt><trkpt lat="46.33820750632169" lon="12.226250352370508"><ele>802.0</ele><time>2026-04-12T13:46:20.966Z</time></trkpt><trkpt lat="46.338105637773076" lon="12.226437607567487"><ele>802.0</ele><time>2026-04-12T13:46:21.966Z</time></trkpt><trkpt lat="46.338011215792875" lon="12.226627794607497"><ele>797.6666666666666</ele><time>2026-04-12T13:46:22.966Z</time></trkpt><trkpt lat="46.33791844396239" lon="12.226819966095587"><ele>793.3333333333333</ele><time>2026-04-12T13:46:23.966Z</time></trkpt><trkpt lat="46.33784870634391" lon="12.227046657691421"><ele>789.0</ele><time>2026-04-12T13:46:24.966Z</time></trkpt><trkpt lat="46.33777139715834" lon="12.227272940562365"><ele>792.0</ele><time>2026-04-12T13:46:25.966Z</time></trkpt><trkpt lat="46.33770679051118" lon="12.227486287013438"><ele>795.0</ele><time>2026-04-12T13:46:26.966Z</time></trkpt><trkpt lat="46.337625388521516" lon="12.22766641708725"><ele>798.0</ele><time>2026-04-12T13:46:27.966Z</time></trkpt><trkpt lat="46.33753467016319" lon="12.227819661540568"><ele>801.0</ele><time>2026-04-12T13:46:28.966Z</time></trkpt><trkpt lat="46.3373970640658" lon="12.227945121264025"><ele>801.0</ele><time>2026-04-12T13:46:29.966Z</time></trkpt><trkpt lat="46.33727662141037" lon="12.228092616680534"><ele>801.0</ele><time>2026-04-12T13:46:30.966Z</time></trkpt><trkpt lat="46.337150372981135" lon="12.228195612256977"><ele>801.0</ele><time>2026-04-12T13:46:31.966Z</time></trkpt><trkpt lat="46.337030417073755" lon="12.228283748663573"><ele>801.0</ele><time>2026-04-12T13:46:32.966Z</time></trkpt><trkpt lat="46.33686030818897" lon="12.2282806470954"><ele>798.3333333333333</ele><time>2026-04-12T13:46:33.966Z</time></trkpt><trkpt lat="46.33668620952152" lon="12.228310744102387"><ele>795.6666666666666</ele><time>2026-04-12T13:46:34.966Z</time></trkpt><trkpt lat="46.336510902834455" lon="12.228331602959454"><ele>793.0</ele><time>2026-04-12T13:46:35.979Z</time></trkpt><trkpt lat="46.33634943473776" lon="12.228349593495201"><ele>793.0</ele><time>2026-04-12T13:46:36.982Z</time></trkpt><trkpt lat="46.33622063740301" lon="12.228346922353563"><ele>793.0</ele><time>2026-04-12T13:46:37.979Z</time></trkpt><trkpt lat="46.33608088836017" lon="12.228331080071653"><ele>793.0</ele><time>2026-04-12T13:46:38.982Z</time></trkpt><trkpt lat="46.335898413554354" lon="12.228362554530285"><ele>793.0</ele><time>2026-04-12T13:46:39.979Z</time></trkpt><trkpt lat="46.33559328211879" lon="12.22845221518549"><ele>793.0</ele><time>2026-04-12T13:46:41.966Z</time></trkpt><trkpt lat="46.335436218675945" lon="12.228514591573706"><ele>781.25</ele><time>2026-04-12T13:46:42.966Z</time></trkpt><trkpt lat="46.335298806648375" lon="12.22862137999951"><ele>769.5</ele><time>2026-04-12T13:46:43.966Z</time></trkpt><trkpt lat="46.335177489513754" lon="12.22873723230539"><ele>757.75</ele><time>2026-04-12T13:46:44.966Z</time></trkpt><trkpt lat="46.33506370321205" lon="12.228825093851443"><ele>746.0</ele><time>2026-04-12T13:46:45.966Z</time></trkpt><trkpt lat="46.33493952939004" lon="12.228967212435204"><ele>746.75</ele><time>2026-04-12T13:46:46.966Z</time></trkpt><trkpt lat="46.334833005262894" lon="12.229137004352625"><ele>747.5</ele><time>2026-04-12T13:46:47.966Z</time></trkpt><trkpt lat="46.334746599843214" lon="12.229308237017063"><ele>748.25</ele><time>2026-04-12T13:46:48.966Z</time></trkpt><trkpt lat="46.33464716117529" lon="12.22945651597367"><ele>749.0</ele><time>2026-04-12T13:46:49.966Z</time></trkpt><trkpt lat="46.33459742874317" lon="12.229628765204273"><ele>749.0</ele><time>2026-04-12T13:46:50.966Z</time></trkpt><trkpt lat="46.33456678377796" lon="12.229799158980265"><ele>749.0</ele><time>2026-04-12T13:46:51.966Z</time></trkpt><trkpt lat="46.33450951342018" lon="12.229940729078637"><ele>749.0</ele><time>2026-04-12T13:46:52.966Z</time></trkpt><trkpt lat="46.33442887505169" lon="12.23002291710559"><ele>749.0</ele><time>2026-04-12T13:46:53.966Z</time></trkpt><trkpt lat="46.334330582686015" lon="12.230086067506527"><ele>749.0</ele><time>2026-04-12T13:46:54.966Z</time></trkpt><trkpt lat="46.33423327193024" lon="12.230114944299391"><ele>749.0</ele><time>2026-04-12T13:46:55.966Z</time></trkpt><trkpt lat="46.33414360109259" lon="12.230122546520093"><ele>749.0</ele><time>2026-04-12T13:46:56.966Z</time></trkpt><trkpt lat="46.334040483832474" lon="12.230137246224253"><ele>749.0</ele><time>2026-04-12T13:46:57.978Z</time></trkpt><trkpt lat="46.333926084599874" lon="12.230136668053664"><ele>749.0</ele><time>2026-04-12T13:46:58.984Z</time></trkpt><trkpt lat="46.33373031055143" lon="12.230165914806676"><ele>749.0</ele><time>2026-04-12T13:46:59.984Z</time></trkpt><trkpt lat="46.33353892500367" lon="12.230318434043907"><ele>749.0</ele><time>2026-04-12T13:47:00.966Z</time></trkpt><trkpt lat="46.333400945417004" lon="12.230484860254473"><ele>749.0</ele><time>2026-04-12T13:47:01.966Z</time></trkpt><trkpt lat="46.33327951918053" lon="12.230586339348722"><ele>747.0</ele><time>2026-04-12T13:47:02.966Z</time></trkpt><trkpt lat="46.33314717293474" lon="12.230681342871407"><ele>745.0</ele><time>2026-04-12T13:47:03.966Z</time></trkpt><trkpt lat="46.333003150078184" lon="12.230785247996115"><ele>743.0</ele><time>2026-04-12T13:47:04.966Z</time></trkpt><trkpt lat="46.332896253695374" lon="12.230869180728476"><ele>741.0</ele><time>2026-04-12T13:47:05.966Z</time></trkpt><trkpt lat="46.33280852137467" lon="12.23095029802299"><ele>741.0</ele><time>2026-04-12T13:47:06.966Z</time></trkpt><trkpt lat="46.332742493435354" lon="12.231061237831046"><ele>741.0</ele><time>2026-04-12T13:47:07.966Z</time></trkpt><trkpt lat="46.332694814473705" lon="12.23120156776049"><ele>741.0</ele><time>2026-04-12T13:47:08.966Z</time></trkpt><trkpt lat="46.3326986989877" lon="12.23137456259991"><ele>741.0</ele><time>2026-04-12T13:47:09.966Z</time></trkpt><trkpt lat="46.332730560549535" lon="12.231589172759033"><ele>748.6666666666666</ele><time>2026-04-12T13:47:10.966Z</time></trkpt><trkpt lat="46.332736288596045" lon="12.231795151252289"><ele>756.3333333333333</ele><time>2026-04-12T13:47:11.966Z</time></trkpt><trkpt lat="46.3327053775771" lon="12.231996749624138"><ele>764.0</ele><time>2026-04-12T13:47:12.966Z</time></trkpt><trkpt lat="46.33261930977243" lon="12.232210240987728"><ele>768.0</ele><time>2026-04-12T13:47:13.966Z</time></trkpt><trkpt lat="46.33253582185912" lon="12.232369513661027"><ele>772.0</ele><time>2026-04-12T13:47:14.966Z</time></trkpt><trkpt lat="46.332449054406574" lon="12.232508252221985"><ele>776.0</ele><time>2026-04-12T13:47:15.966Z</time></trkpt><trkpt lat="46.33235437915756" lon="12.232611002875467"><ele>780.0</ele><time>2026-04-12T13:47:16.966Z</time></trkpt><trkpt lat="46.33223796119782" lon="12.232705044080134"><ele>774.5</ele><time>2026-04-12T13:47:17.966Z</time></trkpt><trkpt lat="46.33217377559964" lon="12.232685579034076"><ele>769.0</ele><time>2026-04-12T13:47:18.966Z</time></trkpt><trkpt lat="46.33207582172252" lon="12.232657872817521"><ele>763.5</ele><time>2026-04-12T13:47:19.966Z</time></trkpt><trkpt lat="46.331918905488735" lon="12.232614517240462"><ele>758.0</ele><time>2026-04-12T13:47:20.966Z</time></trkpt><trkpt lat="46.33163233877487" lon="12.232508286483345"><ele>758.0</ele><time>2026-04-12T13:47:21.966Z</time></trkpt><trkpt lat="46.331541156285915" lon="12.232495946101956"><ele>758.0</ele><time>2026-04-12T13:47:22.966Z</time></trkpt><trkpt lat="46.331426600421416" lon="12.23251971125911"><ele>758.0</ele><time>2026-04-12T13:47:23.966Z</time></trkpt><trkpt lat="46.33127809401625" lon="12.23260258231572"><ele>758.0</ele><time>2026-04-12T13:47:24.966Z</time></trkpt><trkpt lat="46.331128651626514" lon="12.232722942194329"><ele>752.3333333333333</ele><time>2026-04-12T13:47:25.966Z</time></trkpt><trkpt lat="46.33094813817343" lon="12.232822257172174"><ele>746.6666666666666</ele><time>2026-04-12T13:47:26.966Z</time></trkpt><trkpt lat="46.33076272331341" lon="12.232909866158193"><ele>741.0</ele><time>2026-04-12T13:47:27.966Z</time></trkpt><trkpt lat="46.3305931945644" lon="12.232984162300971"><ele>744.6666666666666</ele><time>2026-04-12T13:47:28.966Z</time></trkpt><trkpt lat="46.330438588973436" lon="12.233059266949818"><ele>748.3333333333333</ele><time>2026-04-12T13:47:29.966Z</time></trkpt><trkpt lat="46.330291711180514" lon="12.233149204572246"><ele>752.0</ele><time>2026-04-12T13:47:30.966Z</time></trkpt><trkpt lat="46.330164839875344" lon="12.233265131414614"><ele>752.0</ele><time>2026-04-12T13:47:31.966Z</time></trkpt><trkpt lat="46.33001404587242" lon="12.233312943660879"><ele>752.0</ele><time>2026-04-12T13:47:32.966Z</time></trkpt><trkpt lat="46.32984747077154" lon="12.233330535037172"><ele>752.0</ele><time>2026-04-12T13:47:33.966Z</time></trkpt><trkpt lat="46.32965569961392" lon="12.233308890420776"><ele>753.3333333333333</ele><time>2026-04-12T13:47:34.966Z</time></trkpt><trkpt lat="46.32948047762173" lon="12.233265853331762"><ele>754.6666666666666</ele><time>2026-04-12T13:47:35.966Z</time></trkpt><trkpt lat="46.32930242979846" lon="12.233221958691182"><ele>756.0</ele><time>2026-04-12T13:47:36.966Z</time></trkpt><trkpt lat="46.32913355843804" lon="12.233146892502704"><ele>756.0</ele><time>2026-04-12T13:47:37.966Z</time></trkpt><trkpt lat="46.32896555301619" lon="12.23315990129456"><ele>756.0</ele><time>2026-04-12T13:47:38.966Z</time></trkpt><trkpt lat="46.328805691935635" lon="12.233183949948518"><ele>756.0</ele><time>2026-04-12T13:47:39.966Z</time></trkpt><trkpt lat="46.32863818242658" lon="12.233205338776077"><ele>748.6666666666666</ele><time>2026-04-12T13:47:40.966Z</time></trkpt><trkpt lat="46.32849580403212" lon="12.233264305088232"><ele>741.3333333333333</ele><time>2026-04-12T13:47:41.966Z</time></trkpt><trkpt lat="46.32833664432102" lon="12.233368206884938"><ele>734.0</ele><time>2026-04-12T13:47:42.966Z</time></trkpt><trkpt lat="46.32817474284486" lon="12.233484867606888"><ele>729.0</ele><time>2026-04-12T13:47:43.966Z</time></trkpt><trkpt lat="46.32802212147175" lon="12.233565901665324"><ele>724.0</ele><time>2026-04-12T13:47:44.966Z</time></trkpt><trkpt lat="46.327844094653315" lon="12.233611736288822"><ele>719.0</ele><time>2026-04-12T13:47:45.966Z</time></trkpt><trkpt lat="46.327662638937724" lon="12.233670684912271"><ele>719.0</ele><time>2026-04-12T13:47:46.966Z</time></trkpt><trkpt lat="46.327472009758786" lon="12.23372163737602"><ele>719.0</ele><time>2026-04-12T13:47:47.966Z</time></trkpt><trkpt lat="46.32728690610747" lon="12.233734518833732"><ele>719.0</ele><time>2026-04-12T13:47:48.966Z</time></trkpt><trkpt lat="46.327104129800105" lon="12.233712230476709"><ele>720.0</ele><time>2026-04-12T13:47:49.966Z</time></trkpt><trkpt lat="46.326940985153016" lon="12.233712383290586"><ele>721.0</ele><time>2026-04-12T13:47:50.966Z</time></trkpt><trkpt lat="46.32680615955148" lon="12.233698724944007"><ele>722.0</ele><time>2026-04-12T13:47:51.966Z</time></trkpt><trkpt lat="46.326673951147285" lon="12.233648134531961"><ele>723.0</ele><time>2026-04-12T13:47:52.966Z</time></trkpt><trkpt lat="46.326489138357935" lon="12.23348906172179"><ele>719.5</ele><time>2026-04-12T13:47:53.966Z</time></trkpt><trkpt lat="46.32629777071628" lon="12.233270082425065"><ele>716.0</ele><time>2026-04-12T13:47:54.966Z</time></trkpt><trkpt lat="46.32609966081416" lon="12.233033791623626"><ele>716.0</ele><time>2026-04-12T13:47:55.966Z</time></trkpt><trkpt lat="46.325917627242525" lon="12.232790797969344"><ele>716.0</ele><time>2026-04-12T13:47:56.966Z</time></trkpt><trkpt lat="46.325785464000774" lon="12.232573996108584"><ele>716.0</ele><time>2026-04-12T13:47:58.966Z</time></trkpt><trkpt lat="46.32564138431455" lon="12.232356432063224"><ele>712.0</ele><time>2026-04-12T13:47:59.966Z</time></trkpt><trkpt lat="46.325502843186506" lon="12.232187810749764"><ele>708.0</ele><time>2026-04-12T13:48:00.966Z</time></trkpt><trkpt lat="46.32538231896586" lon="12.232030391781342"><ele>704.0</ele><time>2026-04-12T13:48:01.967Z</time></trkpt><trkpt lat="46.32524946302775" lon="12.231904867159638"><ele>704.0</ele><time>2026-04-12T13:48:02.967Z</time></trkpt><trkpt lat="46.325111708584096" lon="12.231827329275706"><ele>704.0</ele><time>2026-04-12T13:48:03.967Z</time></trkpt><trkpt lat="46.32496630595805" lon="12.231789219322305"><ele>704.0</ele><time>2026-04-12T13:48:04.967Z</time></trkpt><trkpt lat="46.32482008242722" lon="12.231795171541997"><ele>704.0</ele><time>2026-04-12T13:48:05.967Z</time></trkpt><trkpt lat="46.32467454802274" lon="12.231866541635933"><ele>701.0</ele><time>2026-04-12T13:48:06.967Z</time></trkpt><trkpt lat="46.32451781387066" lon="12.231993613480814"><ele>698.0</ele><time>2026-04-12T13:48:07.967Z</time></trkpt><trkpt lat="46.32434053771516" lon="12.232112911619794"><ele>695.0</ele><time>2026-04-12T13:48:08.967Z</time></trkpt><trkpt lat="46.32414809407296" lon="12.232212864136764"><ele>693.3333333333333</ele><time>2026-04-12T13:48:09.967Z</time></trkpt><trkpt lat="46.323989176029784" lon="12.232330743784908"><ele>691.6666666666666</ele><time>2026-04-12T13:48:10.967Z</time></trkpt><trkpt lat="46.323834380765064" lon="12.232471199371302"><ele>690.0</ele><time>2026-04-12T13:48:11.967Z</time></trkpt><trkpt lat="46.323688519019235" lon="12.232641830306205"><ele>690.0</ele><time>2026-04-12T13:48:12.967Z</time></trkpt><trkpt lat="46.32356362554392" lon="12.23283335007217"><ele>690.0</ele><time>2026-04-12T13:48:13.967Z</time></trkpt><trkpt lat="46.32344098253068" lon="12.233042940376698"><ele>690.0</ele><time>2026-04-12T13:48:14.967Z</time></trkpt><trkpt lat="46.323304100684794" lon="12.233252724943572"><ele>686.3333333333334</ele><time>2026-04-12T13:48:15.967Z</time></trkpt><trkpt lat="46.32313612201429" lon="12.233448747081729"><ele>682.6666666666667</ele><time>2026-04-12T13:48:16.967Z</time></trkpt><trkpt lat="46.32298961217642" lon="12.233595766449403"><ele>679.0</ele><time>2026-04-12T13:48:17.967Z</time></trkpt><trkpt lat="46.32282608748108" lon="12.23374211875573"><ele>679.0</ele><time>2026-04-12T13:48:18.967Z</time></trkpt><trkpt lat="46.32269312569164" lon="12.233885872702714"><ele>679.0</ele><time>2026-04-12T13:48:19.967Z</time></trkpt><trkpt lat="46.32256172607172" lon="12.233966837657436"><ele>679.0</ele><time>2026-04-12T13:48:20.967Z</time></trkpt><trkpt lat="46.32241400369157" lon="12.234027352151221"><ele>680.6666666666667</ele><time>2026-04-12T13:48:21.967Z</time></trkpt><trkpt lat="46.32223449009972" lon="12.234062926786914"><ele>682.3333333333334</ele><time>2026-04-12T13:48:22.967Z</time></trkpt><trkpt lat="46.322029989509645" lon="12.234076938736763"><ele>684.0</ele><time>2026-04-12T13:48:23.967Z</time></trkpt><trkpt lat="46.32183062078047" lon="12.234084778108366"><ele>684.0</ele><time>2026-04-12T13:48:24.967Z</time></trkpt><trkpt lat="46.32165990098432" lon="12.234118793398942"><ele>684.0</ele><time>2026-04-12T13:48:25.967Z</time></trkpt><trkpt lat="46.321478333507876" lon="12.234145327468104"><ele>684.0</ele><time>2026-04-12T13:48:26.967Z</time></trkpt><trkpt lat="46.32129759884825" lon="12.234215106786325"><ele>679.3333333333334</ele><time>2026-04-12T13:48:27.967Z</time></trkpt><trkpt lat="46.32114393137503" lon="12.234295690738245"><ele>674.6666666666667</ele><time>2026-04-12T13:48:28.967Z</time></trkpt><trkpt lat="46.32098554612917" lon="12.23432844598283"><ele>670.0</ele><time>2026-04-12T13:48:29.967Z</time></trkpt><trkpt lat="46.32082691658113" lon="12.234302540842462"><ele>670.0</ele><time>2026-04-12T13:48:30.967Z</time></trkpt><trkpt lat="46.32064503475858" lon="12.234250805657352"><ele>670.0</ele><time>2026-04-12T13:48:31.967Z</time></trkpt><trkpt lat="46.32045212944828" lon="12.234214861185494"><ele>670.0</ele><time>2026-04-12T13:48:32.967Z</time></trkpt><trkpt lat="46.32027711460199" lon="12.234150175100883"><ele>675.0</ele><time>2026-04-12T13:48:33.967Z</time></trkpt><trkpt lat="46.3201187327902" lon="12.234049697244815"><ele>680.0</ele><time>2026-04-12T13:48:34.967Z</time></trkpt><trkpt lat="46.31996405014424" lon="12.233937293460816"><ele>685.0</ele><time>2026-04-12T13:48:35.967Z</time></trkpt><trkpt lat="46.31980504000948" lon="12.233770596418994"><ele>684.0</ele><time>2026-04-12T13:48:36.967Z</time></trkpt><trkpt lat="46.31963602279394" lon="12.233573219951893"><ele>683.0</ele><time>2026-04-12T13:48:37.967Z</time></trkpt><trkpt lat="46.31948001884706" lon="12.23332172479411"><ele>675.0</ele><time>2026-04-12T13:48:38.967Z</time></trkpt><trkpt lat="46.31934560610182" lon="12.233043409064422"><ele>667.0</ele><time>2026-04-12T13:48:39.967Z</time></trkpt><trkpt lat="46.31923262316396" lon="12.232772189434641"><ele>667.0</ele><time>2026-04-12T13:48:40.967Z</time></trkpt><trkpt lat="46.319133229281405" lon="12.23250247464905"><ele>667.0</ele><time>2026-04-12T13:48:41.967Z</time></trkpt><trkpt lat="46.31902291235834" lon="12.232262748068113"><ele>667.0</ele><time>2026-04-12T13:48:42.967Z</time></trkpt><trkpt lat="46.31891297524942" lon="12.232037845820141"><ele>665.0</ele><time>2026-04-12T13:48:43.967Z</time></trkpt><trkpt lat="46.31879820454581" lon="12.231830750618219"><ele>663.0</ele><time>2026-04-12T13:48:44.967Z</time></trkpt><trkpt lat="46.3186714161077" lon="12.231626505841998"><ele>661.0</ele><time>2026-04-12T13:48:45.967Z</time></trkpt><trkpt lat="46.318541725140044" lon="12.231421406276915"><ele>661.0</ele><time>2026-04-12T13:48:46.967Z</time></trkpt><trkpt lat="46.3184197489471" lon="12.231242646380094"><ele>661.0</ele><time>2026-04-12T13:48:47.967Z</time></trkpt><trkpt lat="46.318292911696204" lon="12.231087253685509"><ele>661.0</ele><time>2026-04-12T13:48:48.967Z</time></trkpt><trkpt lat="46.31816885182977" lon="12.230950239410852"><ele>660.3333333333334</ele><time>2026-04-12T13:48:49.967Z</time></trkpt><trkpt lat="46.31804852017035" lon="12.230806897237454"><ele>659.6666666666666</ele><time>2026-04-12T13:48:50.967Z</time></trkpt><trkpt lat="46.31792750796981" lon="12.230668876755683"><ele>659.0</ele><time>2026-04-12T13:48:51.967Z</time></trkpt><trkpt lat="46.317798259447926" lon="12.230579342915505"><ele>659.0</ele><time>2026-04-12T13:48:52.967Z</time></trkpt><trkpt lat="46.31763204820647" lon="12.230480707234404"><ele>659.0</ele><time>2026-04-12T13:48:53.967Z</time></trkpt><trkpt lat="46.31747643705323" lon="12.230377763086846"><ele>659.0</ele><time>2026-04-12T13:48:54.967Z</time></trkpt><trkpt lat="46.31735331039082" lon="12.230315940423832"><ele>662.6666666666666</ele><time>2026-04-12T13:48:55.967Z</time></trkpt><trkpt lat="46.31722302937956" lon="12.230219543885976"><ele>666.3333333333334</ele><time>2026-04-12T13:48:56.967Z</time></trkpt><trkpt lat="46.31708350377893" lon="12.230123776086304"><ele>670.0</ele><time>2026-04-12T13:48:57.967Z</time></trkpt><trkpt lat="46.316920929363434" lon="12.23001196060951"><ele>670.0</ele><time>2026-04-12T13:48:58.967Z</time></trkpt><trkpt lat="46.31675697975117" lon="12.22990145890403"><ele>670.0</ele><time>2026-04-12T13:48:59.967Z</time></trkpt><trkpt lat="46.31658609863959" lon="12.229790136409372"><ele>670.0</ele><time>2026-04-12T13:49:00.967Z</time></trkpt><trkpt lat="46.31642909785893" lon="12.229678081782515"><ele>668.3333333333334</ele><time>2026-04-12T13:49:01.967Z</time></trkpt><trkpt lat="46.31627070834763" lon="12.229553670944192"><ele>666.6666666666666</ele><time>2026-04-12T13:49:02.967Z</time></trkpt><trkpt lat="46.316134266707714" lon="12.229426925123976"><ele>665.0</ele><time>2026-04-12T13:49:03.967Z</time></trkpt><trkpt lat="46.31600202746285" lon="12.229288027238857"><ele>665.0</ele><time>2026-04-12T13:49:04.967Z</time></trkpt><trkpt lat="46.31587672777085" lon="12.229132042824322"><ele>665.0</ele><time>2026-04-12T13:49:05.967Z</time></trkpt><trkpt lat="46.31574816031147" lon="12.22898545876823"><ele>665.0</ele><time>2026-04-12T13:49:06.967Z</time></trkpt><trkpt lat="46.31562505756357" lon="12.228836800245416"><ele>662.3333333333333</ele><time>2026-04-12T13:49:07.967Z</time></trkpt><trkpt lat="46.315507195002596" lon="12.228678989903443"><ele>659.6666666666666</ele><time>2026-04-12T13:49:08.967Z</time></trkpt><trkpt lat="46.31539811447205" lon="12.228512548664114"><ele>657.0</ele><time>2026-04-12T13:49:09.967Z</time></trkpt><trkpt lat="46.31529081539962" lon="12.228354641556294"><ele>657.0</ele><time>2026-04-12T13:49:10.967Z</time></trkpt><trkpt lat="46.31517516180309" lon="12.228214610232726"><ele>657.0</ele><time>2026-04-12T13:49:11.967Z</time></trkpt><trkpt lat="46.31503081583577" lon="12.228084244250836"><ele>657.0</ele><time>2026-04-12T13:49:12.967Z</time></trkpt><trkpt lat="46.314865203301565" lon="12.227973273029844"><ele>652.6666666666666</ele><time>2026-04-12T13:49:13.967Z</time></trkpt><trkpt lat="46.31468501758882" lon="12.227878526093379"><ele>648.3333333333333</ele><time>2026-04-12T13:49:14.967Z</time></trkpt><trkpt lat="46.31451027005616" lon="12.227804979301306"><ele>644.0</ele><time>2026-04-12T13:49:15.967Z</time></trkpt><trkpt lat="46.314317862592084" lon="12.227748169343185"><ele>644.0</ele><time>2026-04-12T13:49:16.967Z</time></trkpt><trkpt lat="46.314126925610104" lon="12.227705892973056"><ele>644.0</ele><time>2026-04-12T13:49:17.967Z</time></trkpt><trkpt lat="46.31395439616076" lon="12.227660390786381"><ele>644.0</ele><time>2026-04-12T13:49:18.967Z</time></trkpt><trkpt lat="46.31378901170259" lon="12.22761571159047"><ele>646.3333333333333</ele><time>2026-04-12T13:49:19.967Z</time></trkpt><trkpt lat="46.31362286467691" lon="12.227559011540036"><ele>648.6666666666666</ele><time>2026-04-12T13:49:20.967Z</time></trkpt><trkpt lat="46.31346570501289" lon="12.227506698942932"><ele>651.0</ele><time>2026-04-12T13:49:21.967Z</time></trkpt><trkpt lat="46.313317068349285" lon="12.227415823763732"><ele>651.0</ele><time>2026-04-12T13:49:22.967Z</time></trkpt><trkpt lat="46.31316796827059" lon="12.227320093388338"><ele>651.0</ele><time>2026-04-12T13:49:23.967Z</time></trkpt><trkpt lat="46.31302633362439" lon="12.227230318355202"><ele>651.0</ele><time>2026-04-12T13:49:24.967Z</time></trkpt><trkpt lat="46.31288107617671" lon="12.227141195122462"><ele>648.5</ele><time>2026-04-12T13:49:25.967Z</time></trkpt><trkpt lat="46.31274190339701" lon="12.227051028213411"><ele>646.0</ele><time>2026-04-12T13:49:26.967Z</time></trkpt><trkpt lat="46.31260872323029" lon="12.22695231762628"><ele>643.5</ele><time>2026-04-12T13:49:27.967Z</time></trkpt><trkpt lat="46.31248462025312" lon="12.22685860118278"><ele>641.0</ele><time>2026-04-12T13:49:28.967Z</time></trkpt><trkpt lat="46.31235614231471" lon="12.226781460852951"><ele>640.25</ele><time>2026-04-12T13:49:29.967Z</time></trkpt><trkpt lat="46.31222792011892" lon="12.226731659614444"><ele>639.5</ele><time>2026-04-12T13:49:30.967Z</time></trkpt><trkpt lat="46.31209672684151" lon="12.226738931957842"><ele>638.75</ele><time>2026-04-12T13:49:31.967Z</time></trkpt><trkpt lat="46.31195447200268" lon="12.226775428130557"><ele>638.0</ele><time>2026-04-12T13:49:32.967Z</time></trkpt><trkpt lat="46.311832419299265" lon="12.226837798189665"><ele>638.0</ele><time>2026-04-12T13:49:33.967Z</time></trkpt><trkpt lat="46.31170522875623" lon="12.226883534661841"><ele>638.0</ele><time>2026-04-12T13:49:34.967Z</time></trkpt><trkpt lat="46.31157761281656" lon="12.226923737992141"><ele>638.0</ele><time>2026-04-12T13:49:35.967Z</time></trkpt><trkpt lat="46.31144883783735" lon="12.226937720119883"><ele>638.0</ele><time>2026-04-12T13:49:36.967Z</time></trkpt><trkpt lat="46.31130745945812" lon="12.226913400254514"><ele>640.5</ele><time>2026-04-12T13:49:37.967Z</time></trkpt><trkpt lat="46.311159712928614" lon="12.22683994794185"><ele>643.0</ele><time>2026-04-12T13:49:38.967Z</time></trkpt><trkpt lat="46.31102063162043" lon="12.226793426218334"><ele>645.5</ele><time>2026-04-12T13:49:39.967Z</time></trkpt><trkpt lat="46.310890163202" lon="12.226706891258068"><ele>648.0</ele><time>2026-04-12T13:49:40.967Z</time></trkpt><trkpt lat="46.31075795114272" lon="12.22660323003752"><ele>648.0</ele><time>2026-04-12T13:49:41.967Z</time></trkpt><trkpt lat="46.31063235738551" lon="12.226483965517222"><ele>648.0</ele><time>2026-04-12T13:49:42.967Z</time></trkpt><trkpt lat="46.310515066873236" lon="12.226339131847848"><ele>648.0</ele><time>2026-04-12T13:49:43.967Z</time></trkpt><trkpt lat="46.31040999882522" lon="12.226170174647768"><ele>651.6666666666666</ele><time>2026-04-12T13:49:44.967Z</time></trkpt><trkpt lat="46.31030033812679" lon="12.225982117890448"><ele>655.3333333333333</ele><time>2026-04-12T13:49:45.967Z</time></trkpt><trkpt lat="46.310203679171885" lon="12.225795268776004"><ele>659.0</ele><time>2026-04-12T13:49:46.967Z</time></trkpt><trkpt lat="46.310117191478504" lon="12.225609967371218"><ele>657.25</ele><time>2026-04-12T13:49:47.967Z</time></trkpt><trkpt lat="46.310035240458326" lon="12.225447506630731"><ele>655.5</ele><time>2026-04-12T13:49:48.967Z</time></trkpt><trkpt lat="46.309941936185005" lon="12.225290691035296"><ele>653.75</ele><time>2026-04-12T13:49:49.967Z</time></trkpt><trkpt lat="46.30982751894606" lon="12.225131105696617"><ele>652.0</ele><time>2026-04-12T13:49:50.967Z</time></trkpt><trkpt lat="46.30972169315048" lon="12.225000118735412"><ele>652.0</ele><time>2026-04-12T13:49:51.967Z</time></trkpt><trkpt lat="46.30960977643464" lon="12.224882757926093"><ele>652.0</ele><time>2026-04-12T13:49:52.967Z</time></trkpt><trkpt lat="46.30948111310195" lon="12.224783310568364"><ele>652.0</ele><time>2026-04-12T13:49:53.967Z</time></trkpt><trkpt lat="46.30933640524515" lon="12.224717674171831"><ele>652.0</ele><time>2026-04-12T13:49:54.967Z</time></trkpt><trkpt lat="46.30918643046239" lon="12.224685845087254"><ele>646.25</ele><time>2026-04-12T13:49:55.967Z</time></trkpt><trkpt lat="46.30903755164897" lon="12.224680704689586"><ele>640.5</ele><time>2026-04-12T13:49:56.967Z</time></trkpt><trkpt lat="46.308911930963326" lon="12.224684197716314"><ele>634.75</ele><time>2026-04-12T13:49:57.967Z</time></trkpt><trkpt lat="46.30878049481235" lon="12.224648612980157"><ele>629.0</ele><time>2026-04-12T13:49:58.967Z</time></trkpt><trkpt lat="46.30864530358185" lon="12.224600574814028"><ele>629.0</ele><time>2026-04-12T13:49:59.967Z</time></trkpt><trkpt lat="46.308503558725874" lon="12.224526414534054"><ele>629.0</ele><time>2026-04-12T13:50:00.967Z</time></trkpt><trkpt lat="46.30834823792291" lon="12.22442737386332"><ele>629.0</ele><time>2026-04-12T13:50:01.967Z</time></trkpt><trkpt lat="46.30821922606588" lon="12.224352672678755"><ele>629.0</ele><time>2026-04-12T13:50:02.967Z</time></trkpt><trkpt lat="46.30808965334622" lon="12.224308628153159"><ele>629.0</ele><time>2026-04-12T13:50:03.967Z</time></trkpt><trkpt lat="46.30800682220457" lon="12.224289731734881"><ele>629.0</ele><time>2026-04-12T13:50:04.967Z</time></trkpt><trkpt lat="46.30783353527928" lon="12.224271636680937"><ele>629.0</ele><time>2026-04-12T13:50:05.967Z</time></trkpt><trkpt lat="46.30768689845848" lon="12.224214956512846"><ele>632.6666666666666</ele><time>2026-04-12T13:50:06.967Z</time></trkpt><trkpt lat="46.30749284556969" lon="12.224234216667671"><ele>636.3333333333334</ele><time>2026-04-12T13:50:07.968Z</time></trkpt><trkpt lat="46.307258840934495" lon="12.224215299134611"><ele>640.0</ele><time>2026-04-12T13:50:08.968Z</time></trkpt><trkpt lat="46.307022414032616" lon="12.224183495304853"><ele>642.5</ele><time>2026-04-12T13:50:09.968Z</time></trkpt><trkpt lat="46.30677888174303" lon="12.224134088559868"><ele>645.0</ele><time>2026-04-12T13:50:10.968Z</time></trkpt><trkpt lat="46.3065847186306" lon="12.224040640374744"><ele>646.6666666666666</ele><time>2026-04-12T13:50:11.968Z</time></trkpt><trkpt lat="46.30639987608551" lon="12.22398472417903"><ele>648.3333333333333</ele><time>2026-04-12T13:50:12.968Z</time></trkpt><trkpt lat="46.3062136342722" lon="12.223970294856445"><ele>650.0</ele><time>2026-04-12T13:50:13.968Z</time></trkpt><trkpt lat="46.30602605979823" lon="12.223940363616881"><ele>646.3333333333333</ele><time>2026-04-12T13:50:14.968Z</time></trkpt><trkpt lat="46.3058440508522" lon="12.223897766583772"><ele>642.6666666666666</ele><time>2026-04-12T13:50:15.968Z</time></trkpt><trkpt lat="46.30565682976362" lon="12.223898294771137"><ele>639.0</ele><time>2026-04-12T13:50:16.968Z</time></trkpt><trkpt lat="46.30547620234412" lon="12.22393657852557"><ele>639.0</ele><time>2026-04-12T13:50:17.968Z</time></trkpt><trkpt lat="46.30531287069608" lon="12.223961635554511"><ele>639.0</ele><time>2026-04-12T13:50:18.968Z</time></trkpt><trkpt lat="46.30516558075426" lon="12.223948484808608"><ele>639.0</ele><time>2026-04-12T13:50:19.968Z</time></trkpt><trkpt lat="46.30501425866487" lon="12.223921337568605"><ele>639.0</ele><time>2026-04-12T13:50:20.968Z</time></trkpt><trkpt lat="46.30486775603831" lon="12.223907010078305"><ele>639.0</ele><time>2026-04-12T13:50:21.968Z</time></trkpt><trkpt lat="46.30470929900935" lon="12.22395530066967"><ele>639.0</ele><time>2026-04-12T13:50:22.968Z</time></trkpt><trkpt lat="46.30451779132878" lon="12.224024217750026"><ele>641.3333333333334</ele><time>2026-04-12T13:50:23.968Z</time></trkpt><trkpt lat="46.304345095650255" lon="12.224109663387894"><ele>643.6666666666667</ele><time>2026-04-12T13:50:24.968Z</time></trkpt><trkpt lat="46.30417270173212" lon="12.224244673034251"><ele>646.0</ele><time>2026-04-12T13:50:25.968Z</time></trkpt><trkpt lat="46.304077426987355" lon="12.224410476898504"><ele>646.0</ele><time>2026-04-12T13:50:27.968Z</time></trkpt><trkpt lat="46.30401721142439" lon="12.224526063429524"><ele>646.0</ele><time>2026-04-12T13:50:28.968Z</time></trkpt><trkpt lat="46.3039767029401" lon="12.224652637508092"><ele>646.0</ele><time>2026-04-12T13:50:29.968Z</time></trkpt><trkpt lat="46.303918581270814" lon="12.224894887359463"><ele>646.0</ele><time>2026-04-12T13:50:30.968Z</time></trkpt><trkpt lat="46.30390712626353" lon="12.2250751940819"><ele>645.4</ele><time>2026-04-12T13:50:31.968Z</time></trkpt><trkpt lat="46.303879612971684" lon="12.225236636236184"><ele>644.8</ele><time>2026-04-12T13:50:32.968Z</time></trkpt><trkpt lat="46.303845112311556" lon="12.225394426088931"><ele>644.1999999999999</ele><time>2026-04-12T13:50:33.968Z</time></trkpt><trkpt lat="46.30381343517411" lon="12.225534266898132"><ele>643.5999999999999</ele><time>2026-04-12T13:50:34.968Z</time></trkpt><trkpt lat="46.30379240403322" lon="12.225658416158984"><ele>643.0</ele><time>2026-04-12T13:50:35.968Z</time></trkpt><trkpt lat="46.30376001846358" lon="12.225786968722378"><ele>642.5999999999999</ele><time>2026-04-12T13:50:36.968Z</time></trkpt><trkpt lat="46.30373142384394" lon="12.225920553022407"><ele>642.1999999999999</ele><time>2026-04-12T13:50:37.968Z</time></trkpt><trkpt lat="46.30369595596749" lon="12.226044877434637"><ele>641.8</ele><time>2026-04-12T13:50:38.968Z</time></trkpt><trkpt lat="46.30366862039882" lon="12.22618272065983"><ele>641.4</ele><time>2026-04-12T13:50:39.968Z</time></trkpt><trkpt lat="46.303631770295304" lon="12.22633857189661"><ele>641.0</ele><time>2026-04-12T13:50:40.968Z</time></trkpt><trkpt lat="46.303597115959896" lon="12.22650413932902"><ele>641.0</ele><time>2026-04-12T13:50:41.968Z</time></trkpt><trkpt lat="46.30355161654926" lon="12.226691533704635"><ele>641.0</ele><time>2026-04-12T13:50:42.968Z</time></trkpt><trkpt lat="46.30349759516937" lon="12.22690100646103"><ele>641.0</ele><time>2026-04-12T13:50:43.968Z</time></trkpt><trkpt lat="46.3034457663238" lon="12.227062350872083"><ele>641.0</ele><time>2026-04-12T13:50:44.968Z</time></trkpt><trkpt lat="46.30337164046278" lon="12.22725398747874"><ele>643.6666666666666</ele><time>2026-04-12T13:50:45.968Z</time></trkpt><trkpt lat="46.3032678913945" lon="12.227413866076914"><ele>646.3333333333334</ele><time>2026-04-12T13:50:46.968Z</time></trkpt><trkpt lat="46.303152323006216" lon="12.227576752058267"><ele>649.0</ele><time>2026-04-12T13:50:47.968Z</time></trkpt><trkpt lat="46.303013790103606" lon="12.227727487654942"><ele>642.3333333333334</ele><time>2026-04-12T13:50:48.968Z</time></trkpt><trkpt lat="46.30285732175557" lon="12.227863949314461"><ele>635.6666666666666</ele><time>2026-04-12T13:50:49.968Z</time></trkpt><trkpt lat="46.30268367018173" lon="12.227983753877162"><ele>629.0</ele><time>2026-04-12T13:50:50.968Z</time></trkpt><trkpt lat="46.302514981447636" lon="12.22807980485753"><ele>628.3333333333333</ele><time>2026-04-12T13:50:51.968Z</time></trkpt><trkpt lat="46.302357564908704" lon="12.228163328196375"><ele>627.6666666666666</ele><time>2026-04-12T13:50:52.968Z</time></trkpt><trkpt lat="46.302228936440365" lon="12.228270651383095"><ele>627.0</ele><time>2026-04-12T13:50:53.968Z</time></trkpt><trkpt lat="46.30210019352515" lon="12.228357077650923"><ele>627.0</ele><time>2026-04-12T13:50:54.968Z</time></trkpt><trkpt lat="46.302001424694765" lon="12.228492687723392"><ele>627.0</ele><time>2026-04-12T13:50:55.968Z</time></trkpt><trkpt lat="46.30192190803975" lon="12.228658348369809"><ele>627.0</ele><time>2026-04-12T13:50:56.968Z</time></trkpt><trkpt lat="46.30186302619433" lon="12.228874944708203"><ele>627.0</ele><time>2026-04-12T13:50:57.968Z</time></trkpt><trkpt lat="46.301819311545536" lon="12.229128038613085"><ele>625.0</ele><time>2026-04-12T13:50:58.968Z</time></trkpt><trkpt lat="46.301771921950305" lon="12.229401875467792"><ele>623.0</ele><time>2026-04-12T13:50:59.968Z</time></trkpt><trkpt lat="46.30170717499658" lon="12.229695310398352"><ele>621.0</ele><time>2026-04-12T13:51:00.968Z</time></trkpt><trkpt lat="46.30161759353292" lon="12.230015232444444"><ele>621.3333333333334</ele><time>2026-04-12T13:51:01.968Z</time></trkpt><trkpt lat="46.30152024280173" lon="12.230299706401437"><ele>621.6666666666667</ele><time>2026-04-12T13:51:02.968Z</time></trkpt><trkpt lat="46.30144698564609" lon="12.230537121071286"><ele>622.0</ele><time>2026-04-12T13:51:03.968Z</time></trkpt><trkpt lat="46.3013787068367" lon="12.230728154838305"><ele>622.0</ele><time>2026-04-12T13:51:04.968Z</time></trkpt><trkpt lat="46.301256596448255" lon="12.23086737820444"><ele>622.0</ele><time>2026-04-12T13:51:05.968Z</time></trkpt><trkpt lat="46.301125627308885" lon="12.23103219170619"><ele>622.0</ele><time>2026-04-12T13:51:06.968Z</time></trkpt><trkpt lat="46.300996534667824" lon="12.231187657905293"><ele>622.0</ele><time>2026-04-12T13:51:07.968Z</time></trkpt><trkpt lat="46.300896378221275" lon="12.231327052537662"><ele>622.0</ele><time>2026-04-12T13:51:08.968Z</time></trkpt><trkpt lat="46.30078370283567" lon="12.231396703350233"><ele>622.0</ele><time>2026-04-12T13:51:09.968Z</time></trkpt><trkpt lat="46.30066427944859" lon="12.231424108030623"><ele>622.0</ele><time>2026-04-12T13:51:10.968Z</time></trkpt><trkpt lat="46.300527243850944" lon="12.231398885547836"><ele>619.3333333333334</ele><time>2026-04-12T13:51:11.968Z</time></trkpt><trkpt lat="46.300370802906514" lon="12.231382667216593"><ele>616.6666666666666</ele><time>2026-04-12T13:51:12.968Z</time></trkpt><trkpt lat="46.30021520050171" lon="12.231369702058371"><ele>614.0</ele><time>2026-04-12T13:51:13.968Z</time></trkpt><trkpt lat="46.30006421680976" lon="12.231376501721035"><ele>614.0</ele><time>2026-04-12T13:51:14.968Z</time></trkpt><trkpt lat="46.29996539025842" lon="12.231377987178682"><ele>614.0</ele><time>2026-04-12T13:51:15.968Z</time></trkpt><trkpt lat="46.29984844774569" lon="12.231412551867455"><ele>614.0</ele><time>2026-04-12T13:51:16.968Z</time></trkpt><trkpt lat="46.29971691009277" lon="12.231541933144765"><ele>614.0</ele><time>2026-04-12T13:51:17.968Z</time></trkpt><trkpt lat="46.29959136540653" lon="12.231707123034324"><ele>613.5</ele><time>2026-04-12T13:51:18.968Z</time></trkpt><trkpt lat="46.29949216558545" lon="12.231880019108791"><ele>613.0</ele><time>2026-04-12T13:51:19.968Z</time></trkpt><trkpt lat="46.29936504758094" lon="12.231984980795495"><ele>612.5</ele><time>2026-04-12T13:51:20.968Z</time></trkpt><trkpt lat="46.299219644016134" lon="12.231987374274471"><ele>612.0</ele><time>2026-04-12T13:51:21.968Z</time></trkpt><trkpt lat="46.29906262480585" lon="12.231993625714436"><ele>613.6666666666666</ele><time>2026-04-12T13:51:22.968Z</time></trkpt><trkpt lat="46.29885580990946" lon="12.23201348905487"><ele>615.3333333333333</ele><time>2026-04-12T13:51:23.968Z</time></trkpt><trkpt lat="46.298649430568226" lon="12.232061290788286"><ele>617.0</ele><time>2026-04-12T13:51:24.968Z</time></trkpt><trkpt lat="46.298418258196726" lon="12.232138801844055"><ele>617.0</ele><time>2026-04-12T13:51:25.968Z</time></trkpt><trkpt lat="46.29819389681181" lon="12.232225155802436"><ele>617.0</ele><time>2026-04-12T13:51:26.968Z</time></trkpt><trkpt lat="46.297968961008856" lon="12.23231720792606"><ele>622.6666666666666</ele><time>2026-04-12T13:51:27.968Z</time></trkpt><trkpt lat="46.29778318180982" lon="12.23237058238812"><ele>628.3333333333334</ele><time>2026-04-12T13:51:28.968Z</time></trkpt><trkpt lat="46.29761612407685" lon="12.232383271952894"><ele>634.0</ele><time>2026-04-12T13:51:29.968Z</time></trkpt><trkpt lat="46.297452271726335" lon="12.232413467970671"><ele>634.0</ele><time>2026-04-12T13:51:30.968Z</time></trkpt><trkpt lat="46.297307298440494" lon="12.23241810349404"><ele>634.0</ele><time>2026-04-12T13:51:31.968Z</time></trkpt><trkpt lat="46.29719393701292" lon="12.232477003396728"><ele>634.0</ele><time>2026-04-12T13:51:32.968Z</time></trkpt><trkpt lat="46.29709207534422" lon="12.232595648358483"><ele>634.0</ele><time>2026-04-12T13:51:33.968Z</time></trkpt><trkpt lat="46.29701359118474" lon="12.232764815902868"><ele>629.6666666666667</ele><time>2026-04-12T13:51:34.968Z</time></trkpt><trkpt lat="46.29694830870019" lon="12.232956718816231"><ele>625.3333333333334</ele><time>2026-04-12T13:51:35.968Z</time></trkpt><trkpt lat="46.296889016451445" lon="12.233197954227856"><ele>621.0</ele><time>2026-04-12T13:51:36.968Z</time></trkpt><trkpt lat="46.29682308458934" lon="12.233450518327736"><ele>621.0</ele><time>2026-04-12T13:51:37.968Z</time></trkpt><trkpt lat="46.296739663167045" lon="12.233727351392368"><ele>621.0</ele><time>2026-04-12T13:51:38.968Z</time></trkpt><trkpt lat="46.29664333491611" lon="12.234016036815566"><ele>621.0</ele><time>2026-04-12T13:51:39.968Z</time></trkpt><trkpt lat="46.296527585615586" lon="12.234315345115634"><ele>617.0</ele><time>2026-04-12T13:51:40.968Z</time></trkpt><trkpt lat="46.29639783531839" lon="12.234603447885386"><ele>613.0</ele><time>2026-04-12T13:51:41.968Z</time></trkpt><trkpt lat="46.29628381854919" lon="12.234875056521734"><ele>613.0</ele><time>2026-04-12T13:51:42.968Z</time></trkpt><trkpt lat="46.296185430871226" lon="12.235104606531472"><ele>613.0</ele><time>2026-04-12T13:51:43.968Z</time></trkpt><trkpt lat="46.29608496552901" lon="12.2353107741038"><ele>613.0</ele><time>2026-04-12T13:51:44.968Z</time></trkpt><trkpt lat="46.2959794314262" lon="12.235481718886065"><ele>613.0</ele><time>2026-04-12T13:51:45.968Z</time></trkpt><trkpt lat="46.29584298299561" lon="12.235631939401156"><ele>613.0</ele><time>2026-04-12T13:51:46.968Z</time></trkpt><trkpt lat="46.2956983277204" lon="12.235761969664381"><ele>613.0</ele><time>2026-04-12T13:51:47.968Z</time></trkpt><trkpt lat="46.295551674090696" lon="12.235898209002448"><ele>616.6666666666667</ele><time>2026-04-12T13:51:48.968Z</time></trkpt><trkpt lat="46.295421302993944" lon="12.236043734861843"><ele>620.3333333333334</ele><time>2026-04-12T13:51:49.968Z</time></trkpt><trkpt lat="46.29529947937974" lon="12.236177918197972"><ele>624.0</ele><time>2026-04-12T13:51:50.968Z</time></trkpt><trkpt lat="46.2951907723994" lon="12.236291785351778"><ele>624.0</ele><time>2026-04-12T13:51:51.968Z</time></trkpt><trkpt lat="46.29510815442225" lon="12.236402212603219"><ele>624.0</ele><time>2026-04-12T13:51:52.968Z</time></trkpt><trkpt lat="46.295063290786665" lon="12.236534390591988"><ele>624.0</ele><time>2026-04-12T13:51:53.968Z</time></trkpt><trkpt lat="46.295073114599056" lon="12.236693540151018"><ele>624.0</ele><time>2026-04-12T13:51:54.968Z</time></trkpt><trkpt lat="46.29511645854576" lon="12.236874871684918"><ele>624.3333333333334</ele><time>2026-04-12T13:51:55.968Z</time></trkpt><trkpt lat="46.295181818807336" lon="12.237088934730386"><ele>624.6666666666667</ele><time>2026-04-12T13:51:56.968Z</time></trkpt><trkpt lat="46.29523789563484" lon="12.237298658335376"><ele>625.0</ele><time>2026-04-12T13:51:57.968Z</time></trkpt><trkpt lat="46.29531571044199" lon="12.237524170142674"><ele>621.75</ele><time>2026-04-12T13:51:58.968Z</time></trkpt><trkpt lat="46.29540960350665" lon="12.23772251872294"><ele>618.5</ele><time>2026-04-12T13:51:59.968Z</time></trkpt><trkpt lat="46.295476931617024" lon="12.237856867321014"><ele>615.25</ele><time>2026-04-12T13:52:00.968Z</time></trkpt><trkpt lat="46.29556203897965" lon="12.237959734695108"><ele>612.0</ele><time>2026-04-12T13:52:01.968Z</time></trkpt><trkpt lat="46.29563589951407" lon="12.238074697418725"><ele>609.8000000000001</ele><time>2026-04-12T13:52:02.968Z</time></trkpt><trkpt lat="46.29567424402518" lon="12.238209262125892"><ele>607.6</ele><time>2026-04-12T13:52:03.968Z</time></trkpt><trkpt lat="46.29566458835935" lon="12.238347208088001"><ele>605.4000000000001</ele><time>2026-04-12T13:52:04.968Z</time></trkpt><trkpt lat="46.295582085023504" lon="12.238467358138124"><ele>603.2</ele><time>2026-04-12T13:52:05.968Z</time></trkpt><trkpt lat="46.2954806885339" lon="12.238516045931954"><ele>601.0</ele><time>2026-04-12T13:52:06.968Z</time></trkpt><trkpt lat="46.295336781949224" lon="12.238621675419857"><ele>601.0</ele><time>2026-04-12T13:52:07.968Z</time></trkpt><trkpt lat="46.295211729375424" lon="12.238772851008683"><ele>601.0</ele><time>2026-04-12T13:52:08.968Z</time></trkpt><trkpt lat="46.295087144728896" lon="12.238984932742731"><ele>601.0</ele><time>2026-04-12T13:52:09.968Z</time></trkpt><trkpt lat="46.29498321710134" lon="12.23919933754178"><ele>600.0</ele><time>2026-04-12T13:52:10.968Z</time></trkpt><trkpt lat="46.294852914157964" lon="12.239354968834226"><ele>599.0</ele><time>2026-04-12T13:52:11.968Z</time></trkpt><trkpt lat="46.294703269601825" lon="12.239461982722684"><ele>598.0</ele><time>2026-04-12T13:52:12.968Z</time></trkpt><trkpt lat="46.294531755028096" lon="12.23957194377267"><ele>598.0</ele><time>2026-04-12T13:52:13.969Z</time></trkpt><trkpt lat="46.29436228591273" lon="12.239719230026749"><ele>598.0</ele><time>2026-04-12T13:52:14.969Z</time></trkpt><trkpt lat="46.294220322609206" lon="12.239838479962307"><ele>598.0</ele><time>2026-04-12T13:52:15.969Z</time></trkpt><trkpt lat="46.29409366626575" lon="12.239976165800002"><ele>599.6666666666667</ele><time>2026-04-12T13:52:16.969Z</time></trkpt><trkpt lat="46.293963070284384" lon="12.240089627066599"><ele>601.3333333333334</ele><time>2026-04-12T13:52:17.969Z</time></trkpt><trkpt lat="46.29381927405281" lon="12.240155267518373"><ele>603.0</ele><time>2026-04-12T13:52:18.969Z</time></trkpt><trkpt lat="46.29366894108078" lon="12.24014451047822"><ele>603.0</ele><time>2026-04-12T13:52:19.969Z</time></trkpt><trkpt lat="46.293494707458684" lon="12.240140130453794"><ele>603.0</ele><time>2026-04-12T13:52:20.969Z</time></trkpt><trkpt lat="46.293275956072954" lon="12.240147186859458"><ele>603.0</ele><time>2026-04-12T13:52:21.969Z</time></trkpt><trkpt lat="46.29305877462625" lon="12.240138128200465"><ele>600.3333333333334</ele><time>2026-04-12T13:52:22.969Z</time></trkpt><trkpt lat="46.29283166314996" lon="12.240134452070848"><ele>597.6666666666667</ele><time>2026-04-12T13:52:23.969Z</time></trkpt><trkpt lat="46.292614859666706" lon="12.24013731148185"><ele>595.0</ele><time>2026-04-12T13:52:24.969Z</time></trkpt><trkpt lat="46.29238621108111" lon="12.24010647526063"><ele>593.5</ele><time>2026-04-12T13:52:25.969Z</time></trkpt><trkpt lat="46.29214128768832" lon="12.240103866054977"><ele>592.0</ele><time>2026-04-12T13:52:26.969Z</time></trkpt><trkpt lat="46.29187670652175" lon="12.240103419874176"><ele>592.0</ele><time>2026-04-12T13:52:27.969Z</time></trkpt><trkpt lat="46.29161855253641" lon="12.240104026981095"><ele>592.0</ele><time>2026-04-12T13:52:28.969Z</time></trkpt><trkpt lat="46.29138894314295" lon="12.24010325647589"><ele>592.0</ele><time>2026-04-12T13:52:29.969Z</time></trkpt><trkpt lat="46.29116077706688" lon="12.240101035681262"><ele>592.0</ele><time>2026-04-12T13:52:30.969Z</time></trkpt><trkpt lat="46.2909450328282" lon="12.240084757324516"><ele>592.0</ele><time>2026-04-12T13:52:31.969Z</time></trkpt><trkpt lat="46.290745015567964" lon="12.240044345795726"><ele>591.0</ele><time>2026-04-12T13:52:32.969Z</time></trkpt><trkpt lat="46.29055470502721" lon="12.240023627621795"><ele>590.0</ele><time>2026-04-12T13:52:33.969Z</time></trkpt><trkpt lat="46.29037871980899" lon="12.239987896359287"><ele>589.0</ele><time>2026-04-12T13:52:34.969Z</time></trkpt><trkpt lat="46.290191354201305" lon="12.239994645216115"><ele>589.0</ele><time>2026-04-12T13:52:35.969Z</time></trkpt><trkpt lat="46.29000656336102" lon="12.240085609091944"><ele>589.0</ele><time>2026-04-12T13:52:36.969Z</time></trkpt><trkpt lat="46.289787224825936" lon="12.24010708335528"><ele>589.0</ele><time>2026-04-12T13:52:37.969Z</time></trkpt><trkpt lat="46.28955940491557" lon="12.240151400910365"><ele>590.3333333333334</ele><time>2026-04-12T13:52:38.969Z</time></trkpt><trkpt lat="46.289337853402216" lon="12.240194499147456"><ele>591.6666666666666</ele><time>2026-04-12T13:52:39.969Z</time></trkpt><trkpt lat="46.28913366850801" lon="12.240234218929324"><ele>593.0</ele><time>2026-04-12T13:52:40.969Z</time></trkpt><trkpt lat="46.2889447979832" lon="12.240269241221341"><ele>592.0</ele><time>2026-04-12T13:52:41.969Z</time></trkpt><trkpt lat="46.288765721115816" lon="12.240295515303751"><ele>591.0</ele><time>2026-04-12T13:52:42.969Z</time></trkpt><trkpt lat="46.28858114545363" lon="12.240280769264407"><ele>590.0</ele><time>2026-04-12T13:52:43.969Z</time></trkpt><trkpt lat="46.28838896365875" lon="12.240250173036795"><ele>590.0</ele><time>2026-04-12T13:52:44.969Z</time></trkpt><trkpt lat="46.28819786898946" lon="12.240217330950047"><ele>590.0</ele><time>2026-04-12T13:52:45.969Z</time></trkpt><trkpt lat="46.2880489720497" lon="12.240188599959287"><ele>590.0</ele><time>2026-04-12T13:52:46.969Z</time></trkpt><trkpt lat="46.28793933030179" lon="12.24018028024624"><ele>589.3333333333333</ele><time>2026-04-12T13:52:47.969Z</time></trkpt><trkpt lat="46.287799489043124" lon="12.240239365492645"><ele>588.6666666666666</ele><time>2026-04-12T13:52:48.969Z</time></trkpt><trkpt lat="46.28761684745818" lon="12.240303344405948"><ele>588.0</ele><time>2026-04-12T13:52:49.969Z</time></trkpt><trkpt lat="46.287441519889164" lon="12.240352405417559"><ele>585.6666666666666</ele><time>2026-04-12T13:52:50.969Z</time></trkpt><trkpt lat="46.28724199359681" lon="12.240426294205157"><ele>583.3333333333333</ele><time>2026-04-12T13:52:51.969Z</time></trkpt><trkpt lat="46.28700798676634" lon="12.240512219109632"><ele>581.0</ele><time>2026-04-12T13:52:52.969Z</time></trkpt><trkpt lat="46.28680802907957" lon="12.240585531788154"><ele>584.0</ele><time>2026-04-12T13:52:53.969Z</time></trkpt><trkpt lat="46.28663585144118" lon="12.240647176533042"><ele>587.0</ele><time>2026-04-12T13:52:54.969Z</time></trkpt><trkpt lat="46.28646142891966" lon="12.240710302584613"><ele>590.0</ele><time>2026-04-12T13:52:55.969Z</time></trkpt><trkpt lat="46.28630855817948" lon="12.240760122491627"><ele>590.0</ele><time>2026-04-12T13:52:56.969Z</time></trkpt><trkpt lat="46.286130244301845" lon="12.240823348424302"><ele>590.0</ele><time>2026-04-12T13:52:57.969Z</time></trkpt><trkpt lat="46.285952893230004" lon="12.240885913551516"><ele>590.0</ele><time>2026-04-12T13:52:58.969Z</time></trkpt><trkpt lat="46.28578825113314" lon="12.240937911146569"><ele>590.0</ele><time>2026-04-12T13:52:59.969Z</time></trkpt><trkpt lat="46.285623798987146" lon="12.240969699179622"><ele>590.0</ele><time>2026-04-12T13:53:00.969Z</time></trkpt><trkpt lat="46.285458597379304" lon="12.24095477484753"><ele>590.0</ele><time>2026-04-12T13:53:01.969Z</time></trkpt><trkpt lat="46.285290089758405" lon="12.240913112495742"><ele>586.0</ele><time>2026-04-12T13:53:02.969Z</time></trkpt><trkpt lat="46.285138522711506" lon="12.240873024306724"><ele>582.0</ele><time>2026-04-12T13:53:03.969Z</time></trkpt><trkpt lat="46.28499191494588" lon="12.240844111813857"><ele>578.0</ele><time>2026-04-12T13:53:04.969Z</time></trkpt><trkpt lat="46.28484311088456" lon="12.24085710730128"><ele>575.6666666666666</ele><time>2026-04-12T13:53:05.969Z</time></trkpt><trkpt lat="46.284683218440456" lon="12.240890226472944"><ele>573.3333333333334</ele><time>2026-04-12T13:53:06.969Z</time></trkpt><trkpt lat="46.28451526129187" lon="12.240979036862123"><ele>571.0</ele><time>2026-04-12T13:53:07.969Z</time></trkpt><trkpt lat="46.28433533560367" lon="12.24104768675272"><ele>571.0</ele><time>2026-04-12T13:53:08.969Z</time></trkpt><trkpt lat="46.28412935518788" lon="12.2411246091463"><ele>571.0</ele><time>2026-04-12T13:53:09.969Z</time></trkpt><trkpt lat="46.28394117032636" lon="12.24119540967334"><ele>571.0</ele><time>2026-04-12T13:53:10.969Z</time></trkpt><trkpt lat="46.283780768620325" lon="12.241260421040545"><ele>569.3333333333334</ele><time>2026-04-12T13:53:11.969Z</time></trkpt><trkpt lat="46.28363909514486" lon="12.24133780516684"><ele>567.6666666666666</ele><time>2026-04-12T13:53:12.969Z</time></trkpt><trkpt lat="46.28349782151512" lon="12.241463070374706"><ele>566.0</ele><time>2026-04-12T13:53:13.969Z</time></trkpt><trkpt lat="46.28333233324545" lon="12.24158304431187"><ele>563.3333333333333</ele><time>2026-04-12T13:53:14.969Z</time></trkpt><trkpt lat="46.283162411260925" lon="12.241730999086368"><ele>560.6666666666666</ele><time>2026-04-12T13:53:15.969Z</time></trkpt><trkpt lat="46.28299691228729" lon="12.241878380028522"><ele>558.0</ele><time>2026-04-12T13:53:16.969Z</time></trkpt><trkpt lat="46.28285149174966" lon="12.24200850949255"><ele>558.0</ele><time>2026-04-12T13:53:17.969Z</time></trkpt><trkpt lat="46.28270384508535" lon="12.242151107263055"><ele>558.0</ele><time>2026-04-12T13:53:18.969Z</time></trkpt><trkpt lat="46.28256217986872" lon="12.242357246806337"><ele>558.0</ele><time>2026-04-12T13:53:19.969Z</time></trkpt><trkpt lat="46.282398852235865" lon="12.242543455359481"><ele>558.0</ele><time>2026-04-12T13:53:20.969Z</time></trkpt><trkpt lat="46.282239442851974" lon="12.242751968085516"><ele>558.0</ele><time>2026-04-12T13:53:21.969Z</time></trkpt><trkpt lat="46.28205805377391" lon="12.242989175941558"><ele>568.5</ele><time>2026-04-12T13:53:22.969Z</time></trkpt><trkpt lat="46.281879702331096" lon="12.243224544913828"><ele>579.0</ele><time>2026-04-12T13:53:23.969Z</time></trkpt><trkpt lat="46.28171701492062" lon="12.243438968812674"><ele>579.0</ele><time>2026-04-12T13:53:24.969Z</time></trkpt><trkpt lat="46.281592896344726" lon="12.243632986801966"><ele>579.0</ele><time>2026-04-12T13:53:25.969Z</time></trkpt><trkpt lat="46.281454221343296" lon="12.243786611869293"><ele>579.0</ele><time>2026-04-12T13:53:26.969Z</time></trkpt><trkpt lat="46.28135108025862" lon="12.243923411991748"><ele>578.25</ele><time>2026-04-12T13:53:27.969Z</time></trkpt><trkpt lat="46.281274093873485" lon="12.244025519776653"><ele>577.5</ele><time>2026-04-12T13:53:28.969Z</time></trkpt><trkpt lat="46.281212252889" lon="12.244107427592466"><ele>576.75</ele><time>2026-04-12T13:53:29.969Z</time></trkpt><trkpt lat="46.28115686962789" lon="12.244185401883817"><ele>576.0</ele><time>2026-04-12T13:53:30.969Z</time></trkpt><trkpt lat="46.280835741177654" lon="12.244480921542714"><ele>576.0</ele><time>2026-04-12T13:53:31.969Z</time></trkpt><trkpt lat="46.28070429907255" lon="12.244483988311583"><ele>576.0</ele><time>2026-04-12T13:53:32.969Z</time></trkpt><trkpt lat="46.28054740340277" lon="12.244454702582262"><ele>576.0</ele><time>2026-04-12T13:53:33.969Z</time></trkpt><trkpt lat="46.28036518931312" lon="12.24447592404983"><ele>573.6666666666666</ele><time>2026-04-12T13:53:34.969Z</time></trkpt><trkpt lat="46.28018031996157" lon="12.244547262872194"><ele>571.3333333333333</ele><time>2026-04-12T13:53:35.969Z</time></trkpt><trkpt lat="46.280018914831544" lon="12.244580289326219"><ele>569.0</ele><time>2026-04-12T13:53:36.969Z</time></trkpt><trkpt lat="46.279863389529645" lon="12.244631333606694"><ele>569.75</ele><time>2026-04-12T13:53:37.969Z</time></trkpt><trkpt lat="46.27973471372371" lon="12.244705867282592"><ele>570.5</ele><time>2026-04-12T13:53:38.969Z</time></trkpt><trkpt lat="46.279609572521515" lon="12.244743476327578"><ele>571.25</ele><time>2026-04-12T13:53:39.969Z</time></trkpt><trkpt lat="46.279497012487695" lon="12.244829504407381"><ele>572.0</ele><time>2026-04-12T13:53:40.969Z</time></trkpt><trkpt lat="46.27936449698077" lon="12.244954346022656"><ele>576.0</ele><time>2026-04-12T13:53:41.969Z</time></trkpt><trkpt lat="46.279226424198534" lon="12.245085910159307"><ele>580.0</ele><time>2026-04-12T13:53:42.969Z</time></trkpt><trkpt lat="46.27911825033382" lon="12.245375826521432"><ele>584.0</ele><time>2026-04-12T13:53:43.969Z</time></trkpt><trkpt lat="46.27895906538856" lon="12.245591680209095"><ele>581.0</ele><time>2026-04-12T13:53:44.969Z</time></trkpt><trkpt lat="46.278796529511624" lon="12.24577987656638"><ele>578.0</ele><time>2026-04-12T13:53:45.969Z</time></trkpt><trkpt lat="46.278638602924545" lon="12.245935967928334"><ele>575.0</ele><time>2026-04-12T13:53:46.969Z</time></trkpt><trkpt lat="46.27849248440357" lon="12.246057059866642"><ele>575.0</ele><time>2026-04-12T13:53:47.969Z</time></trkpt><trkpt lat="46.27836756234794" lon="12.246150225728108"><ele>575.0</ele><time>2026-04-12T13:53:48.969Z</time></trkpt><trkpt lat="46.27825515482091" lon="12.24624750196642"><ele>575.0</ele><time>2026-04-12T13:53:49.969Z</time></trkpt><trkpt lat="46.27814842913188" lon="12.246413842538301"><ele>575.0</ele><time>2026-04-12T13:53:50.969Z</time></trkpt><trkpt lat="46.278063460736206" lon="12.246646709956233"><ele>579.0</ele><time>2026-04-12T13:53:51.969Z</time></trkpt><trkpt lat="46.27795711246393" lon="12.246892470646294"><ele>583.0</ele><time>2026-04-12T13:53:52.969Z</time></trkpt><trkpt lat="46.27782325657919" lon="12.247118310342728"><ele>587.0</ele><time>2026-04-12T13:53:53.969Z</time></trkpt><trkpt lat="46.277694482949954" lon="12.247313232977556"><ele>587.0</ele><time>2026-04-12T13:53:54.969Z</time></trkpt><trkpt lat="46.277586691963386" lon="12.247480049332122"><ele>587.0</ele><time>2026-04-12T13:53:55.969Z</time></trkpt><trkpt lat="46.2774716678826" lon="12.24765627650774"><ele>587.0</ele><time>2026-04-12T13:53:56.969Z</time></trkpt><trkpt lat="46.2773578638731" lon="12.247820413433788"><ele>593.0</ele><time>2026-04-12T13:53:57.969Z</time></trkpt><trkpt lat="46.27724203048232" lon="12.24795406590875"><ele>599.0</ele><time>2026-04-12T13:53:58.969Z</time></trkpt><trkpt lat="46.27710545366871" lon="12.248047742950247"><ele>605.0</ele><time>2026-04-12T13:53:59.969Z</time></trkpt><trkpt lat="46.276937690686594" lon="12.24813946455448"><ele>605.0</ele><time>2026-04-12T13:54:00.969Z</time></trkpt><trkpt lat="46.27681142562337" lon="12.248267198356547"><ele>605.0</ele><time>2026-04-12T13:54:01.969Z</time></trkpt><trkpt lat="46.276691517182115" lon="12.248387034418474"><ele>605.0</ele><time>2026-04-12T13:54:02.969Z</time></trkpt><trkpt lat="46.27657204858717" lon="12.248459861841674"><ele>605.0</ele><time>2026-04-12T13:54:03.969Z</time></trkpt><trkpt lat="46.276444646664046" lon="12.248528492658151"><ele>597.5</ele><time>2026-04-12T13:54:04.969Z</time></trkpt><trkpt lat="46.27633852668105" lon="12.248612611309715"><ele>590.0</ele><time>2026-04-12T13:54:05.969Z</time></trkpt><trkpt lat="46.27622637531328" lon="12.24873203603988"><ele>582.5</ele><time>2026-04-12T13:54:06.969Z</time></trkpt><trkpt lat="46.27611773878421" lon="12.248831108531357"><ele>575.0</ele><time>2026-04-12T13:54:07.969Z</time></trkpt><trkpt lat="46.27605516252041" lon="12.248862014273241"><ele>575.0</ele><time>2026-04-12T13:54:08.969Z</time></trkpt><trkpt lat="46.27599947617089" lon="12.248927149477046"><ele>575.0</ele><time>2026-04-12T13:54:09.969Z</time></trkpt><trkpt lat="46.27591694628588" lon="12.249060180288277"><ele>575.0</ele><time>2026-04-12T13:54:10.969Z</time></trkpt><trkpt lat="46.275732712547565" lon="12.249210969463421"><ele>575.0</ele><time>2026-04-12T13:54:11.969Z</time></trkpt><trkpt lat="46.275576034708564" lon="12.249296384041372"><ele>587.3333333333333</ele><time>2026-04-12T13:54:12.969Z</time></trkpt><trkpt lat="46.27540424986646" lon="12.249296794691617"><ele>599.6666666666666</ele><time>2026-04-12T13:54:13.969Z</time></trkpt><trkpt lat="46.275233687227846" lon="12.249278076504952"><ele>612.0</ele><time>2026-04-12T13:54:14.969Z</time></trkpt><trkpt lat="46.275085702048294" lon="12.249236482460734"><ele>612.0</ele><time>2026-04-12T13:54:15.969Z</time></trkpt><trkpt lat="46.274953561221864" lon="12.249271502992324"><ele>612.0</ele><time>2026-04-12T13:54:16.969Z</time></trkpt><trkpt lat="46.274822497735194" lon="12.249343850097693"><ele>612.0</ele><time>2026-04-12T13:54:17.969Z</time></trkpt><trkpt lat="46.274702270343305" lon="12.249360550892984"><ele>612.0</ele><time>2026-04-12T13:54:18.969Z</time></trkpt><trkpt lat="46.27457058939168" lon="12.249336807714498"><ele>609.8000000000001</ele><time>2026-04-12T13:54:19.97Z</time></trkpt><trkpt lat="46.27447532285945" lon="12.249286339689332"><ele>607.6</ele><time>2026-04-12T13:54:20.97Z</time></trkpt><trkpt lat="46.27439717401395" lon="12.249226202288936"><ele>605.4000000000001</ele><time>2026-04-12T13:54:21.97Z</time></trkpt><trkpt lat="46.274312419940706" lon="12.249197281123598"><ele>603.2</ele><time>2026-04-12T13:54:22.97Z</time></trkpt><trkpt lat="46.27423025100242" lon="12.249283126203796"><ele>601.0</ele><time>2026-04-12T13:54:23.97Z</time></trkpt><trkpt lat="46.27416101381536" lon="12.249451408431199"><ele>601.0</ele><time>2026-04-12T13:54:24.97Z</time></trkpt><trkpt lat="46.274079927722944" lon="12.249622727730852"><ele>601.0</ele><time>2026-04-12T13:54:25.97Z</time></trkpt><trkpt lat="46.27396651327172" lon="12.249726859743467"><ele>601.0</ele><time>2026-04-12T13:54:26.97Z</time></trkpt><trkpt lat="46.27378400601715" lon="12.249816480342648"><ele>602.0</ele><time>2026-04-12T13:54:27.97Z</time></trkpt><trkpt lat="46.273651405308954" lon="12.249895714661909"><ele>603.0</ele><time>2026-04-12T13:54:28.97Z</time></trkpt><trkpt lat="46.273538744729514" lon="12.249995547844632"><ele>604.0</ele><time>2026-04-12T13:54:29.97Z</time></trkpt><trkpt lat="46.27344795125018" lon="12.250094929420712"><ele>605.0</ele><time>2026-04-12T13:54:30.97Z</time></trkpt><trkpt lat="46.27336987093556" lon="12.250204150082945"><ele>605.0</ele><time>2026-04-12T13:54:31.97Z</time></trkpt><trkpt lat="46.27332028433241" lon="12.250358555710172"><ele>605.0</ele><time>2026-04-12T13:54:32.97Z</time></trkpt><trkpt lat="46.273302463012485" lon="12.250575962953793"><ele>605.0</ele><time>2026-04-12T13:54:33.97Z</time></trkpt><trkpt lat="46.27329945384077" lon="12.250833843555776"><ele>605.0</ele><time>2026-04-12T13:54:34.97Z</time></trkpt><trkpt lat="46.273304550938825" lon="12.251050286475248"><ele>611.25</ele><time>2026-04-12T13:54:35.97Z</time></trkpt><trkpt lat="46.27330950571368" lon="12.251246825148543"><ele>617.5</ele><time>2026-04-12T13:54:36.97Z</time></trkpt><trkpt lat="46.27325380781147" lon="12.251416574196256"><ele>623.75</ele><time>2026-04-12T13:54:37.97Z</time></trkpt><trkpt lat="46.27318058230639" lon="12.251619198624093"><ele>630.0</ele><time>2026-04-12T13:54:38.97Z</time></trkpt><trkpt lat="46.2731147167669" lon="12.251812127779536"><ele>632.5</ele><time>2026-04-12T13:54:39.97Z</time></trkpt><trkpt lat="46.2730757798088" lon="12.252003233556877"><ele>635.0</ele><time>2026-04-12T13:54:40.97Z</time></trkpt><trkpt lat="46.27306173910928" lon="12.252168797470766"><ele>637.5</ele><time>2026-04-12T13:54:41.97Z</time></trkpt><trkpt lat="46.273026393963555" lon="12.25230505051899"><ele>640.0</ele><time>2026-04-12T13:54:42.97Z</time></trkpt><trkpt lat="46.27294178136616" lon="12.252401780095013"><ele>640.0</ele><time>2026-04-12T13:54:43.97Z</time></trkpt><trkpt lat="46.27281532100614" lon="12.25239533368107"><ele>640.0</ele><time>2026-04-12T13:54:44.97Z</time></trkpt><trkpt lat="46.272679907549715" lon="12.25232939727077"><ele>640.0</ele><time>2026-04-12T13:54:45.97Z</time></trkpt><trkpt lat="46.27253450327156" lon="12.252338994554526"><ele>640.0</ele><time>2026-04-12T13:54:46.97Z</time></trkpt><trkpt lat="46.27238445482707" lon="12.252425552996542"><ele>632.75</ele><time>2026-04-12T13:54:47.97Z</time></trkpt><trkpt lat="46.27223917209192" lon="12.252513671429604"><ele>625.5</ele><time>2026-04-12T13:54:48.97Z</time></trkpt><trkpt lat="46.27207728203461" lon="12.252472885522725"><ele>618.25</ele><time>2026-04-12T13:54:49.97Z</time></trkpt><trkpt lat="46.27195023595594" lon="12.252473048968696"><ele>611.0</ele><time>2026-04-12T13:54:50.97Z</time></trkpt><trkpt lat="46.27186203173501" lon="12.252485786647641"><ele>611.0</ele><time>2026-04-12T13:54:51.97Z</time></trkpt><trkpt lat="46.27181757868403" lon="12.252579692564455"><ele>611.0</ele><time>2026-04-12T13:54:52.97Z</time></trkpt><trkpt lat="46.271793273728825" lon="12.252723149075457"><ele>611.0</ele><time>2026-04-12T13:54:53.97Z</time></trkpt><trkpt lat="46.27181085248848" lon="12.252901206247376"><ele>611.0</ele><time>2026-04-12T13:54:54.97Z</time></trkpt><trkpt lat="46.27186555363355" lon="12.253097512688946"><ele>616.75</ele><time>2026-04-12T13:54:55.97Z</time></trkpt><trkpt lat="46.271886094673654" lon="12.253298412907842"><ele>622.5</ele><time>2026-04-12T13:54:56.97Z</time></trkpt><trkpt lat="46.27179412651035" lon="12.253489480285554"><ele>628.25</ele><time>2026-04-12T13:54:57.97Z</time></trkpt><trkpt lat="46.27173140919691" lon="12.253670141642155"><ele>634.0</ele><time>2026-04-12T13:54:58.97Z</time></trkpt><trkpt lat="46.27164423614938" lon="12.253792631244968"><ele>634.0</ele><time>2026-04-12T13:54:59.97Z</time></trkpt><trkpt lat="46.2715334097028" lon="12.25389727514785"><ele>634.0</ele><time>2026-04-12T13:55:00.97Z</time></trkpt><trkpt lat="46.27139346085632" lon="12.253933321216836"><ele>634.0</ele><time>2026-04-12T13:55:01.97Z</time></trkpt><trkpt lat="46.27126300803884" lon="12.253936484326495"><ele>634.0</ele><time>2026-04-12T13:55:02.97Z</time></trkpt><trkpt lat="46.27111934770709" lon="12.253907235458634"><ele>631.5</ele><time>2026-04-12T13:55:03.97Z</time></trkpt><trkpt lat="46.270998603791746" lon="12.25391127403233"><ele>629.0</ele><time>2026-04-12T13:55:04.97Z</time></trkpt><trkpt lat="46.27088783537595" lon="12.25397240901095"><ele>626.5</ele><time>2026-04-12T13:55:05.97Z</time></trkpt><trkpt lat="46.270797562611946" lon="12.25408816738448"><ele>624.0</ele><time>2026-04-12T13:55:06.97Z</time></trkpt><trkpt lat="46.27072326325508" lon="12.254237159828072"><ele>624.0</ele><time>2026-04-12T13:55:07.97Z</time></trkpt><trkpt lat="46.27067411700432" lon="12.254434676360258"><ele>624.0</ele><time>2026-04-12T13:55:08.97Z</time></trkpt><trkpt lat="46.270651923957594" lon="12.254671835081696"><ele>624.0</ele><time>2026-04-12T13:55:09.97Z</time></trkpt><trkpt lat="46.27063302790247" lon="12.254938864779874"><ele>630.0</ele><time>2026-04-12T13:55:10.97Z</time></trkpt><trkpt lat="46.270625228344606" lon="12.255183176299964"><ele>636.0</ele><time>2026-04-12T13:55:11.97Z</time></trkpt><trkpt lat="46.27063727512311" lon="12.255417604107462"><ele>642.0</ele><time>2026-04-12T13:55:12.97Z</time></trkpt><trkpt lat="46.27068129291158" lon="12.255673302578328"><ele>645.3333333333334</ele><time>2026-04-12T13:55:13.97Z</time></trkpt><trkpt lat="46.27069649362131" lon="12.255959637824176"><ele>648.6666666666667</ele><time>2026-04-12T13:55:14.97Z</time></trkpt><trkpt lat="46.27068798884251" lon="12.25627423028989"><ele>652.0</ele><time>2026-04-12T13:55:15.97Z</time></trkpt><trkpt lat="46.270671162723815" lon="12.25661165258444"><ele>653.3333333333334</ele><time>2026-04-12T13:55:16.97Z</time></trkpt><trkpt lat="46.27063239686644" lon="12.256916276308036"><ele>654.6666666666666</ele><time>2026-04-12T13:55:17.97Z</time></trkpt><trkpt lat="46.27059001863592" lon="12.257199335342559"><ele>656.0</ele><time>2026-04-12T13:55:18.97Z</time></trkpt><trkpt lat="46.270546585929125" lon="12.257475752727002"><ele>637.0</ele><time>2026-04-12T13:55:19.97Z</time></trkpt><trkpt lat="46.27052157054364" lon="12.257740810679142"><ele>618.0</ele><time>2026-04-12T13:55:20.97Z</time></trkpt><trkpt lat="46.270486218991024" lon="12.25796935180003"><ele>599.0</ele><time>2026-04-12T13:55:21.97Z</time></trkpt><trkpt lat="46.270469529721844" lon="12.258198842116975"><ele>594.6666666666666</ele><time>2026-04-12T13:55:22.97Z</time></trkpt><trkpt lat="46.27048745408864" lon="12.25844689737966"><ele>590.3333333333334</ele><time>2026-04-12T13:55:23.97Z</time></trkpt><trkpt lat="46.270511031289736" lon="12.258676385213402"><ele>586.0</ele><time>2026-04-12T13:55:24.97Z</time></trkpt><trkpt lat="46.2705060849331" lon="12.25888302534058"><ele>582.25</ele><time>2026-04-12T13:55:25.97Z</time></trkpt><trkpt lat="46.27045048004373" lon="12.259061060809861"><ele>578.5</ele><time>2026-04-12T13:55:26.97Z</time></trkpt><trkpt lat="46.270409339946944" lon="12.25924865277311"><ele>574.75</ele><time>2026-04-12T13:55:27.97Z</time></trkpt><trkpt lat="46.27038973545401" lon="12.259446876749601"><ele>571.0</ele><time>2026-04-12T13:55:28.97Z</time></trkpt><trkpt lat="46.27038911148864" lon="12.25966517794979"><ele>577.0</ele><time>2026-04-12T13:55:29.97Z</time></trkpt><trkpt lat="46.27041266708644" lon="12.259890610106414"><ele>583.0</ele><time>2026-04-12T13:55:30.97Z</time></trkpt><trkpt lat="46.270362937769924" lon="12.260099098849036"><ele>589.0</ele><time>2026-04-12T13:55:31.97Z</time></trkpt><trkpt lat="46.27032657584521" lon="12.260311704601328"><ele>589.0</ele><time>2026-04-12T13:55:32.97Z</time></trkpt><trkpt lat="46.27030890334451" lon="12.260504044251517"><ele>589.0</ele><time>2026-04-12T13:55:33.97Z</time></trkpt><trkpt lat="46.2703017857939" lon="12.260700584300583"><ele>589.0</ele><time>2026-04-12T13:55:34.97Z</time></trkpt><trkpt lat="46.27025367324538" lon="12.26085899335743"><ele>589.0</ele><time>2026-04-12T13:55:35.97Z</time></trkpt><trkpt lat="46.270166270658194" lon="12.260989480876367"><ele>593.6666666666667</ele><time>2026-04-12T13:55:36.97Z</time></trkpt><trkpt lat="46.270068318079346" lon="12.26116593700587"><ele>598.3333333333334</ele><time>2026-04-12T13:55:37.97Z</time></trkpt><trkpt lat="46.269990052092204" lon="12.261387974609217"><ele>603.0</ele><time>2026-04-12T13:55:38.97Z</time></trkpt><trkpt lat="46.26990437678862" lon="12.26158579646888"><ele>592.0</ele><time>2026-04-12T13:55:39.97Z</time></trkpt><trkpt lat="46.26981786162045" lon="12.261780206867545"><ele>581.0</ele><time>2026-04-12T13:55:40.97Z</time></trkpt><trkpt lat="46.269702163620735" lon="12.261966197030807"><ele>570.0</ele><time>2026-04-12T13:55:41.97Z</time></trkpt><trkpt lat="46.26957792509188" lon="12.262124136476016"><ele>570.0</ele><time>2026-04-12T13:55:42.97Z</time></trkpt><trkpt lat="46.26946518484029" lon="12.262265497835035"><ele>570.0</ele><time>2026-04-12T13:55:43.97Z</time></trkpt><trkpt lat="46.269352773471496" lon="12.262375565444005"><ele>570.0</ele><time>2026-04-12T13:55:44.97Z</time></trkpt><trkpt lat="46.26924047218717" lon="12.262436377096334"><ele>570.0</ele><time>2026-04-12T13:55:45.97Z</time></trkpt><trkpt lat="46.26915208502921" lon="12.262531245853417"><ele>565.25</ele><time>2026-04-12T13:55:46.97Z</time></trkpt><trkpt lat="46.26906110640668" lon="12.262607520768517"><ele>560.5</ele><time>2026-04-12T13:55:47.97Z</time></trkpt><trkpt lat="46.26899020435704" lon="12.26276967098917"><ele>555.75</ele><time>2026-04-12T13:55:48.97Z</time></trkpt><trkpt lat="46.26895334748744" lon="12.262993071596263"><ele>551.0</ele><time>2026-04-12T13:55:49.97Z</time></trkpt><trkpt lat="46.268940178585744" lon="12.263218423088244"><ele>551.0</ele><time>2026-04-12T13:55:50.97Z</time></trkpt><trkpt lat="46.268923280931006" lon="12.26341190239204"><ele>551.0</ele><time>2026-04-12T13:55:51.97Z</time></trkpt><trkpt lat="46.268926120588105" lon="12.263606124551012"><ele>551.0</ele><time>2026-04-12T13:55:52.97Z</time></trkpt><trkpt lat="46.26897242261938" lon="12.263814310691854"><ele>551.0</ele><time>2026-04-12T13:55:53.97Z</time></trkpt><trkpt lat="46.26902865329848" lon="12.264029119627219"><ele>570.5</ele><time>2026-04-12T13:55:54.97Z</time></trkpt><trkpt lat="46.26903310072933" lon="12.26422281576391"><ele>590.0</ele><time>2026-04-12T13:55:55.97Z</time></trkpt><trkpt lat="46.26900597294199" lon="12.264447457400953"><ele>609.5</ele><time>2026-04-12T13:55:56.97Z</time></trkpt><trkpt lat="46.268988877933666" lon="12.264655258057157"><ele>629.0</ele><time>2026-04-12T13:55:57.97Z</time></trkpt><trkpt lat="46.269017651252334" lon="12.264855719556577"><ele>632.5</ele><time>2026-04-12T13:55:58.97Z</time></trkpt><trkpt lat="46.269061906745705" lon="12.265030963656212"><ele>636.0</ele><time>2026-04-12T13:55:59.97Z</time></trkpt><trkpt lat="46.26907299142597" lon="12.265201408574383"><ele>639.5</ele><time>2026-04-12T13:56:00.97Z</time></trkpt><trkpt lat="46.268993611403964" lon="12.265357261482189"><ele>643.0</ele><time>2026-04-12T13:56:01.97Z</time></trkpt><trkpt lat="46.268936388478295" lon="12.265539704144986"><ele>619.0</ele><time>2026-04-12T13:56:02.97Z</time></trkpt><trkpt lat="46.26889778708357" lon="12.265744076212611"><ele>595.0</ele><time>2026-04-12T13:56:03.97Z</time></trkpt><trkpt lat="46.268850510616076" lon="12.26593233367961"><ele>571.0</ele><time>2026-04-12T13:56:04.97Z</time></trkpt><trkpt lat="46.26887008886596" lon="12.266195833144605"><ele>571.0</ele><time>2026-04-12T13:56:05.97Z</time></trkpt><trkpt lat="46.2688886279049" lon="12.266394459203049"><ele>571.0</ele><time>2026-04-12T13:56:06.97Z</time></trkpt><trkpt lat="46.2689135821972" lon="12.266587101308728"><ele>571.0</ele><time>2026-04-12T13:56:07.97Z</time></trkpt><trkpt lat="46.26888808139272" lon="12.266770114437321"><ele>571.0</ele><time>2026-04-12T13:56:08.97Z</time></trkpt><trkpt lat="46.26885651715988" lon="12.26693815021991"><ele>573.4</ele><time>2026-04-12T13:56:09.97Z</time></trkpt><trkpt lat="46.26884261186209" lon="12.267108009966087"><ele>575.8</ele><time>2026-04-12T13:56:10.97Z</time></trkpt><trkpt lat="46.26881059227631" lon="12.267245665314157"><ele>578.1999999999999</ele><time>2026-04-12T13:56:11.97Z</time></trkpt><trkpt lat="46.268805345577476" lon="12.267401543421139"><ele>580.6</ele><time>2026-04-12T13:56:12.97Z</time></trkpt><trkpt lat="46.26879463815394" lon="12.267538252888246"><ele>583.0</ele><time>2026-04-12T13:56:13.97Z</time></trkpt><trkpt lat="46.268795236112155" lon="12.26767961919212"><ele>583.0</ele><time>2026-04-12T13:56:14.97Z</time></trkpt><trkpt lat="46.268776901638" lon="12.26784834960147"><ele>583.0</ele><time>2026-04-12T13:56:15.97Z</time></trkpt><trkpt lat="46.2687326257331" lon="12.268005773692371"><ele>583.0</ele><time>2026-04-12T13:56:16.97Z</time></trkpt><trkpt lat="46.26867679614878" lon="12.268138632070576"><ele>583.0</ele><time>2026-04-12T13:56:17.97Z</time></trkpt><trkpt lat="46.26860260103767" lon="12.268233154192728"><ele>583.0</ele><time>2026-04-12T13:56:18.97Z</time></trkpt><trkpt lat="46.26852464891561" lon="12.268329897749371"><ele>582.1999999999999</ele><time>2026-04-12T13:56:19.97Z</time></trkpt><trkpt lat="46.268452550015795" lon="12.268418648587303"><ele>581.4</ele><time>2026-04-12T13:56:20.97Z</time></trkpt><trkpt lat="46.26837185420191" lon="12.268530098413354"><ele>580.5999999999999</ele><time>2026-04-12T13:56:21.97Z</time></trkpt><trkpt lat="46.26830623052198" lon="12.268687485654876"><ele>579.8</ele><time>2026-04-12T13:56:22.97Z</time></trkpt><trkpt lat="46.26828428485103" lon="12.268829751222297"><ele>579.0</ele><time>2026-04-12T13:56:23.97Z</time></trkpt><trkpt lat="46.26828780343647" lon="12.26896698953978"><ele>582.6</ele><time>2026-04-12T13:56:24.97Z</time></trkpt><trkpt lat="46.26827914792232" lon="12.269090774112385"><ele>586.2</ele><time>2026-04-12T13:56:25.971Z</time></trkpt><trkpt lat="46.268223615905654" lon="12.269199082151713"><ele>589.8000000000001</ele><time>2026-04-12T13:56:26.971Z</time></trkpt><trkpt lat="46.26818796263176" lon="12.269299520806678"><ele>593.4</ele><time>2026-04-12T13:56:27.971Z</time></trkpt><trkpt lat="46.26817206846802" lon="12.269457109613217"><ele>597.0</ele><time>2026-04-12T13:56:28.971Z</time></trkpt><trkpt lat="46.268114928135645" lon="12.26959696870774"><ele>588.0</ele><time>2026-04-12T13:56:29.971Z</time></trkpt><trkpt lat="46.26805095502284" lon="12.269784537034814"><ele>579.0</ele><time>2026-04-12T13:56:30.971Z</time></trkpt><trkpt lat="46.26800648878815" lon="12.269969270392615"><ele>570.0</ele><time>2026-04-12T13:56:31.971Z</time></trkpt><trkpt lat="46.26797376287622" lon="12.27011218979789"><ele>561.0</ele><time>2026-04-12T13:56:32.971Z</time></trkpt><trkpt lat="46.26793059152867" lon="12.27030619925922"><ele>561.0</ele><time>2026-04-12T13:56:33.971Z</time></trkpt><trkpt lat="46.267893445266246" lon="12.270479206411556"><ele>561.0</ele><time>2026-04-12T13:56:34.971Z</time></trkpt><trkpt lat="46.267849640108636" lon="12.270683036825941"><ele>561.0</ele><time>2026-04-12T13:56:35.971Z</time></trkpt><trkpt lat="46.26779392002937" lon="12.27092430472392"><ele>561.0</ele><time>2026-04-12T13:56:36.971Z</time></trkpt><trkpt lat="46.26778306471726" lon="12.271329024880059"><ele>568.0</ele><time>2026-04-12T13:56:37.971Z</time></trkpt><trkpt lat="46.267797396332845" lon="12.271484250985639"><ele>575.0</ele><time>2026-04-12T13:56:38.971Z</time></trkpt><trkpt lat="46.26779951261567" lon="12.271641296105368"><ele>582.0</ele><time>2026-04-12T13:56:39.971Z</time></trkpt><trkpt lat="46.26776905165046" lon="12.27177149761832"><ele>589.0</ele><time>2026-04-12T13:56:40.971Z</time></trkpt><trkpt lat="46.26771175457401" lon="12.271894740535625"><ele>596.0</ele><time>2026-04-12T13:56:41.971Z</time></trkpt><trkpt lat="46.267633950461565" lon="12.272009179355857"><ele>596.0</ele><time>2026-04-12T13:56:42.971Z</time></trkpt><trkpt lat="46.267557800867706" lon="12.272134135822386"><ele>596.0</ele><time>2026-04-12T13:56:43.971Z</time></trkpt><trkpt lat="46.267533007787435" lon="12.272316406317156"><ele>596.0</ele><time>2026-04-12T13:56:44.971Z</time></trkpt><trkpt lat="46.26747172630264" lon="12.272475921997534"><ele>596.0</ele><time>2026-04-12T13:56:45.971Z</time></trkpt><trkpt lat="46.267385967336146" lon="12.272614369605655"><ele>595.75</ele><time>2026-04-12T13:56:46.971Z</time></trkpt><trkpt lat="46.26730016495304" lon="12.272757439458296"><ele>595.5</ele><time>2026-04-12T13:56:47.971Z</time></trkpt><trkpt lat="46.267214846403576" lon="12.272913618594066"><ele>595.25</ele><time>2026-04-12T13:56:48.971Z</time></trkpt><trkpt lat="46.26712126491893" lon="12.273055490144802"><ele>595.0</ele><time>2026-04-12T13:56:49.971Z</time></trkpt><trkpt lat="46.2670523034751" lon="12.273185303919238"><ele>595.0</ele><time>2026-04-12T13:56:50.971Z</time></trkpt><trkpt lat="46.26702481707523" lon="12.273382112569966"><ele>595.0</ele><time>2026-04-12T13:56:52.971Z</time></trkpt><trkpt lat="46.26706062427126" lon="12.273478539311663"><ele>595.0</ele><time>2026-04-12T13:56:53.971Z</time></trkpt><trkpt lat="46.26711035214107" lon="12.27362284658587"><ele>595.0</ele><time>2026-04-12T13:56:55.971Z</time></trkpt><trkpt lat="46.267158213510534" lon="12.273692737522715"><ele>595.0</ele><time>2026-04-12T13:56:56.971Z</time></trkpt><trkpt lat="46.26720615915629" lon="12.273770784818579"><ele>594.5</ele><time>2026-04-12T13:56:57.971Z</time></trkpt><trkpt lat="46.266866367932174" lon="12.274194535290187"><ele>594.0</ele><time>2026-04-12T13:56:58.971Z</time></trkpt><trkpt lat="46.26684185572656" lon="12.2743229673047"><ele>594.0</ele><time>2026-04-12T13:56:59.971Z</time></trkpt><trkpt lat="46.26680074094089" lon="12.274417382926012"><ele>594.0</ele><time>2026-04-12T13:57:00.971Z</time></trkpt><trkpt lat="46.266743650999246" lon="12.27448855638471"><ele>594.0</ele><time>2026-04-12T13:57:01.971Z</time></trkpt><trkpt lat="46.266662741702895" lon="12.274518248017499"><ele>594.0</ele><time>2026-04-12T13:57:02.971Z</time></trkpt><trkpt lat="46.266583680114614" lon="12.274462320708588"><ele>594.0</ele><time>2026-04-12T13:57:03.971Z</time></trkpt><trkpt lat="46.26651800972405" lon="12.274470603254754"><ele>594.0</ele><time>2026-04-12T13:57:04.971Z</time></trkpt><trkpt lat="46.26645021048871" lon="12.274487873630983"><ele>590.0</ele><time>2026-04-12T13:57:05.971Z</time></trkpt><trkpt lat="46.26636428259464" lon="12.274455201425758"><ele>586.0</ele><time>2026-04-12T13:57:06.971Z</time></trkpt><trkpt lat="46.2662745549464" lon="12.274356077017067"><ele>582.0</ele><time>2026-04-12T13:57:07.971Z</time></trkpt><trkpt lat="46.26618381476145" lon="12.274281995401155"><ele>578.0</ele><time>2026-04-12T13:57:08.971Z</time></trkpt><trkpt lat="46.26607828158173" lon="12.274236509168574"><ele>574.0</ele><time>2026-04-12T13:57:09.971Z</time></trkpt><trkpt lat="46.26594667215234" lon="12.274202249617705"><ele>574.0</ele><time>2026-04-12T13:57:10.971Z</time></trkpt><trkpt lat="46.26581637773955" lon="12.274225060289572"><ele>574.0</ele><time>2026-04-12T13:57:11.971Z</time></trkpt><trkpt lat="46.26568822208189" lon="12.274307801733173"><ele>574.0</ele><time>2026-04-12T13:57:12.971Z</time></trkpt><trkpt lat="46.26555157063231" lon="12.274440780593123"><ele>574.0</ele><time>2026-04-12T13:57:13.971Z</time></trkpt><trkpt lat="46.265442066149944" lon="12.27457999166901"><ele>572.75</ele><time>2026-04-12T13:57:14.971Z</time></trkpt><trkpt lat="46.26534682254938" lon="12.274721039715708"><ele>571.5</ele><time>2026-04-12T13:57:15.971Z</time></trkpt><trkpt lat="46.265251240348825" lon="12.274859562421929"><ele>570.25</ele><time>2026-04-12T13:57:16.971Z</time></trkpt><trkpt lat="46.26516965236346" lon="12.275005810602698"><ele>569.0</ele><time>2026-04-12T13:57:17.971Z</time></trkpt><trkpt lat="46.2650783088036" lon="12.275176310146605"><ele>569.0</ele><time>2026-04-12T13:57:18.971Z</time></trkpt><trkpt lat="46.264995826975145" lon="12.275342316709372"><ele>569.0</ele><time>2026-04-12T13:57:19.971Z</time></trkpt><trkpt lat="46.26490494598366" lon="12.275499205042196"><ele>569.0</ele><time>2026-04-12T13:57:20.971Z</time></trkpt><trkpt lat="46.26477659132539" lon="12.27562457443742"><ele>569.0</ele><time>2026-04-12T13:57:21.971Z</time></trkpt><trkpt lat="46.26463528358365" lon="12.275764079509429"><ele>567.3333333333333</ele><time>2026-04-12T13:57:22.971Z</time></trkpt><trkpt lat="46.26448292906067" lon="12.275878895183101"><ele>565.6666666666666</ele><time>2026-04-12T13:57:23.971Z</time></trkpt><trkpt lat="46.2643458389774" lon="12.275950485836045"><ele>564.0</ele><time>2026-04-12T13:57:24.971Z</time></trkpt><trkpt lat="46.26420614463212" lon="12.276021147293296"><ele>564.0</ele><time>2026-04-12T13:57:25.971Z</time></trkpt><trkpt lat="46.26408900349909" lon="12.27610562164235"><ele>564.0</ele><time>2026-04-12T13:57:26.971Z</time></trkpt><trkpt lat="46.26397595246567" lon="12.276203374890958"><ele>564.0</ele><time>2026-04-12T13:57:27.971Z</time></trkpt><trkpt lat="46.26386823628546" lon="12.276335304310924"><ele>564.0</ele><time>2026-04-12T13:57:28.971Z</time></trkpt><trkpt lat="46.26375813374906" lon="12.276495574356977"><ele>558.0</ele><time>2026-04-12T13:57:29.971Z</time></trkpt><trkpt lat="46.263667010260264" lon="12.27672373384845"><ele>552.0</ele><time>2026-04-12T13:57:30.971Z</time></trkpt><trkpt lat="46.26357178800703" lon="12.276975220140166"><ele>546.0</ele><time>2026-04-12T13:57:31.971Z</time></trkpt><trkpt lat="46.26346905130689" lon="12.277182710541926"><ele>549.75</ele><time>2026-04-12T13:57:32.971Z</time></trkpt><trkpt lat="46.26340453783419" lon="12.277375803792246"><ele>553.5</ele><time>2026-04-12T13:57:33.971Z</time></trkpt><trkpt lat="46.26333058070602" lon="12.277544671245963"><ele>557.25</ele><time>2026-04-12T13:57:34.971Z</time></trkpt><trkpt lat="46.263270891446425" lon="12.27773108030441"><ele>561.0</ele><time>2026-04-12T13:57:35.971Z</time></trkpt><trkpt lat="46.26322461857783" lon="12.277935345526984"><ele>562.3333333333334</ele><time>2026-04-12T13:57:36.971Z</time></trkpt><trkpt lat="46.26321377472042" lon="12.27819867123972"><ele>563.6666666666667</ele><time>2026-04-12T13:57:37.971Z</time></trkpt><trkpt lat="46.26321882009048" lon="12.278508867700644"><ele>565.0</ele><time>2026-04-12T13:57:38.971Z</time></trkpt><trkpt lat="46.26322066181037" lon="12.278850850355191"><ele>564.5</ele><time>2026-04-12T13:57:39.971Z</time></trkpt><trkpt lat="46.26322400111952" lon="12.279215550787569"><ele>564.0</ele><time>2026-04-12T13:57:40.971Z</time></trkpt><trkpt lat="46.26322706066037" lon="12.279608268515641"><ele>564.0</ele><time>2026-04-12T13:57:41.971Z</time></trkpt><trkpt lat="46.26322881500342" lon="12.279971511096644"><ele>564.0</ele><time>2026-04-12T13:57:42.971Z</time></trkpt><trkpt lat="46.263223366869305" lon="12.280302255787399"><ele>564.3333333333334</ele><time>2026-04-12T13:57:43.971Z</time></trkpt><trkpt lat="46.2632123191871" lon="12.280623765761108"><ele>564.6666666666667</ele><time>2026-04-12T13:57:44.971Z</time></trkpt><trkpt lat="46.26317298254382" lon="12.280927944819092"><ele>565.0</ele><time>2026-04-12T13:57:45.971Z</time></trkpt><trkpt lat="46.26313313940827" lon="12.281215034297807"><ele>553.0</ele><time>2026-04-12T13:57:46.971Z</time></trkpt><trkpt lat="46.2630945450288" lon="12.281499052073777"><ele>541.0</ele><time>2026-04-12T13:57:47.971Z</time></trkpt><trkpt lat="46.263068915425755" lon="12.281776143419071"><ele>529.0</ele><time>2026-04-12T13:57:48.971Z</time></trkpt><trkpt lat="46.263049137209265" lon="12.282053879184119"><ele>528.3333333333334</ele><time>2026-04-12T13:57:49.971Z</time></trkpt><trkpt lat="46.26303271219621" lon="12.282313616087883"><ele>527.6666666666666</ele><time>2026-04-12T13:57:50.971Z</time></trkpt><trkpt lat="46.263020476895434" lon="12.282558858773681"><ele>527.0</ele><time>2026-04-12T13:57:51.971Z</time></trkpt><trkpt lat="46.26300896219917" lon="12.282779072432062"><ele>527.0</ele><time>2026-04-12T13:57:52.971Z</time></trkpt><trkpt lat="46.26301179379015" lon="12.282993811283024"><ele>527.0</ele><time>2026-04-12T13:57:53.971Z</time></trkpt><trkpt lat="46.26303352458873" lon="12.283198486746544"><ele>527.0</ele><time>2026-04-12T13:57:54.971Z</time></trkpt><trkpt lat="46.26308012089007" lon="12.28340266830159"><ele>527.0</ele><time>2026-04-12T13:57:55.971Z</time></trkpt><trkpt lat="46.263152568098015" lon="12.283632746323265"><ele>532.3333333333333</ele><time>2026-04-12T13:57:56.971Z</time></trkpt><trkpt lat="46.26325403701437" lon="12.283862976337659"><ele>537.6666666666666</ele><time>2026-04-12T13:57:57.971Z</time></trkpt><trkpt lat="46.263344752748" lon="12.284080443125934"><ele>543.0</ele><time>2026-04-12T13:57:58.971Z</time></trkpt><trkpt lat="46.263406765598" lon="12.284317052180798"><ele>543.0</ele><time>2026-04-12T13:57:59.971Z</time></trkpt><trkpt lat="46.26343465702967" lon="12.284563938005952"><ele>543.0</ele><time>2026-04-12T13:58:00.971Z</time></trkpt><trkpt lat="46.26346445303392" lon="12.284796122676408"><ele>543.0</ele><time>2026-04-12T13:58:01.971Z</time></trkpt><trkpt lat="46.26352844719315" lon="12.285009160302817"><ele>539.3333333333334</ele><time>2026-04-12T13:58:02.971Z</time></trkpt><trkpt lat="46.26362181790729" lon="12.285230735708923"><ele>535.6666666666667</ele><time>2026-04-12T13:58:03.971Z</time></trkpt><trkpt lat="46.26373054337633" lon="12.285456382374825"><ele>532.0</ele><time>2026-04-12T13:58:04.971Z</time></trkpt><trkpt lat="46.26383809117042" lon="12.285664769194002"><ele>537.0</ele><time>2026-04-12T13:58:05.971Z</time></trkpt><trkpt lat="46.263934484421" lon="12.285863282270567"><ele>542.0</ele><time>2026-04-12T13:58:06.971Z</time></trkpt><trkpt lat="46.26400797422145" lon="12.2860593784079"><ele>547.0</ele><time>2026-04-12T13:58:07.971Z</time></trkpt><trkpt lat="46.26406100297039" lon="12.28626973947898"><ele>544.6666666666667</ele><time>2026-04-12T13:58:08.971Z</time></trkpt><trkpt lat="46.264092785857905" lon="12.286482838313647"><ele>542.3333333333334</ele><time>2026-04-12T13:58:09.971Z</time></trkpt><trkpt lat="46.264104050285574" lon="12.286727589403135"><ele>540.0</ele><time>2026-04-12T13:58:10.971Z</time></trkpt><trkpt lat="46.26410709140295" lon="12.286990666984304"><ele>544.0</ele><time>2026-04-12T13:58:11.971Z</time></trkpt><trkpt lat="46.264104828562424" lon="12.287279933517107"><ele>548.0</ele><time>2026-04-12T13:58:12.971Z</time></trkpt><trkpt lat="46.26409013483676" lon="12.287581783666553"><ele>552.0</ele><time>2026-04-12T13:58:13.971Z</time></trkpt><trkpt lat="46.26406106087797" lon="12.28788652385262"><ele>560.3333333333334</ele><time>2026-04-12T13:58:14.985Z</time></trkpt><trkpt lat="46.26404578136134" lon="12.288182966562804"><ele>568.6666666666667</ele><time>2026-04-12T13:58:15.988Z</time></trkpt><trkpt lat="46.26403066908874" lon="12.288476165166562"><ele>577.0</ele><time>2026-04-12T13:58:16.986Z</time></trkpt><trkpt lat="46.264016260224956" lon="12.288755716325442"><ele>591.3333333333334</ele><time>2026-04-12T13:58:17.985Z</time></trkpt><trkpt lat="46.26400212727426" lon="12.289029914584187"><ele>605.6666666666666</ele><time>2026-04-12T13:58:18.988Z</time></trkpt><trkpt lat="46.26398713740451" lon="12.289320738203804"><ele>620.0</ele><time>2026-04-12T13:58:19.988Z</time></trkpt><trkpt lat="46.26384478960047" lon="12.29910475055418"><ele>577.3333333333333</ele><time>2026-04-12T13:58:44.971Z</time></trkpt><trkpt lat="46.26393971944322" lon="12.299308368347997"><ele>534.6666666666666</ele><time>2026-04-12T13:58:45.971Z</time></trkpt><trkpt lat="46.26401474366357" lon="12.299519342892273"><ele>492.0</ele><time>2026-04-12T13:58:46.971Z</time></trkpt><trkpt lat="46.26403665113826" lon="12.299695609561057"><ele>492.0</ele><time>2026-04-12T13:58:47.971Z</time></trkpt><trkpt lat="46.26405610098457" lon="12.299825930928687"><ele>492.00000000000006</ele><time>2026-04-12T13:58:48.971Z</time></trkpt><trkpt lat="46.264064064957296" lon="12.299944377282653"><ele>492.00000000000006</ele><time>2026-04-12T13:58:49.972Z</time></trkpt><trkpt lat="46.26408544128046" lon="12.300123637327177"><ele>492.0</ele><time>2026-04-12T13:58:50.972Z</time></trkpt><trkpt lat="46.26414559086637" lon="12.300292081032916"><ele>492.0</ele><time>2026-04-12T13:58:51.972Z</time></trkpt><trkpt lat="46.264159584236445" lon="12.30048773524093"><ele>491.8</ele><time>2026-04-12T13:58:52.972Z</time></trkpt><trkpt lat="46.26419251202433" lon="12.300631359435943"><ele>491.6</ele><time>2026-04-12T13:58:53.972Z</time></trkpt><trkpt lat="46.26424223225299" lon="12.300785042309437"><ele>491.40000000000003</ele><time>2026-04-12T13:58:54.972Z</time></trkpt><trkpt lat="46.264280496873006" lon="12.300859859168064"><ele>491.20000000000005</ele><time>2026-04-12T13:58:57.972Z</time></trkpt><trkpt lat="46.264375456351615" lon="12.300957530272699"><ele>491.0</ele><time>2026-04-12T13:58:58.972Z</time></trkpt><trkpt lat="46.2644934876586" lon="12.300947985896647"><ele>491.0</ele><time>2026-04-12T13:58:59.972Z</time></trkpt><trkpt lat="46.264655631188965" lon="12.300923608598108"><ele>491.0</ele><time>2026-04-12T13:59:00.972Z</time></trkpt><trkpt lat="46.26483321700908" lon="12.300776230089543"><ele>491.0</ele><time>2026-04-12T13:59:01.972Z</time></trkpt><trkpt lat="46.264935719395865" lon="12.300595524363747"><ele>490.75</ele><time>2026-04-12T13:59:02.972Z</time></trkpt><trkpt lat="46.265034866898446" lon="12.300417388660026"><ele>490.5</ele><time>2026-04-12T13:59:03.972Z</time></trkpt><trkpt lat="46.26513007279085" lon="12.300249151083209"><ele>490.25</ele><time>2026-04-12T13:59:04.972Z</time></trkpt><trkpt lat="46.265216697119406" lon="12.300096984217348"><ele>490.0</ele><time>2026-04-12T13:59:05.972Z</time></trkpt><trkpt lat="46.26528333023374" lon="12.300000559181445"><ele>490.0</ele><time>2026-04-12T13:59:06.972Z</time></trkpt><trkpt lat="46.26520630502743" lon="12.300103999696699"><ele>490.0</ele><time>2026-04-12T13:59:07.972Z</time></trkpt><trkpt lat="46.26529495022962" lon="12.29999119265312"><ele>490.0</ele><time>2026-04-12T13:59:09.972Z</time></trkpt><trkpt lat="46.265387479916164" lon="12.299990609261352"><ele>490.0</ele><time>2026-04-12T13:59:10.972Z</time></trkpt><trkpt lat="46.26556311292616" lon="12.3000265350382"><ele>488.6666666666667</ele><time>2026-04-12T13:59:11.972Z</time></trkpt><trkpt lat="46.26564442788996" lon="12.300434771504305"><ele>487.33333333333337</ele><time>2026-04-12T13:59:12.972Z</time></trkpt><trkpt lat="46.26562214788045" lon="12.300616136409799"><ele>486.0</ele><time>2026-04-12T13:59:13.972Z</time></trkpt><trkpt lat="46.26540433630305" lon="12.300713639597971"><ele>486.0</ele><time>2026-04-12T13:59:14.972Z</time></trkpt><trkpt lat="46.26540387720726" lon="12.3008706920317"><ele>486.0</ele><time>2026-04-12T13:59:15.972Z</time></trkpt><trkpt lat="46.26539435832992" lon="12.301025256119631"><ele>486.0</ele><time>2026-04-12T13:59:16.972Z</time></trkpt><trkpt lat="46.26538223622652" lon="12.301176212100424"><ele>486.0</ele><time>2026-04-12T13:59:17.972Z</time></trkpt><trkpt lat="46.26537328159532" lon="12.301329158934589"><ele>486.0</ele><time>2026-04-12T13:59:18.972Z</time></trkpt><trkpt lat="46.26536368556001" lon="12.301481444681485"><ele>484.75</ele><time>2026-04-12T13:59:19.972Z</time></trkpt><trkpt lat="46.26544597325573" lon="12.301701762067951"><ele>483.5</ele><time>2026-04-12T13:59:20.972Z</time></trkpt><trkpt lat="46.26537711765924" lon="12.301849369719953"><ele>482.25</ele><time>2026-04-12T13:59:21.972Z</time></trkpt><trkpt lat="46.26528060667826" lon="12.30196657951268"><ele>481.0</ele><time>2026-04-12T13:59:22.972Z</time></trkpt><trkpt lat="46.26519974643837" lon="12.302081504660505"><ele>481.0</ele><time>2026-04-12T13:59:23.972Z</time></trkpt><trkpt lat="46.26512126699763" lon="12.302201876154758"><ele>481.0</ele><time>2026-04-12T13:59:24.972Z</time></trkpt><trkpt lat="46.26503952285099" lon="12.302332550973112"><ele>481.0</ele><time>2026-04-12T13:59:25.972Z</time></trkpt><trkpt lat="46.26496084172992" lon="12.302458269586092"><ele>481.0</ele><time>2026-04-12T13:59:26.972Z</time></trkpt><trkpt lat="46.26487532404567" lon="12.302593400027684"><ele>480.75</ele><time>2026-04-12T13:59:27.972Z</time></trkpt><trkpt lat="46.26477797287524" lon="12.302711844001655"><ele>480.5</ele><time>2026-04-12T13:59:28.972Z</time></trkpt><trkpt lat="46.26466228798883" lon="12.302808118031162"><ele>480.25</ele><time>2026-04-12T13:59:29.972Z</time></trkpt><trkpt lat="46.26453005794173" lon="12.302898862094256"><ele>480.0</ele><time>2026-04-12T13:59:30.972Z</time></trkpt><trkpt lat="46.26437901537086" lon="12.302936235031083"><ele>480.0</ele><time>2026-04-12T13:59:31.972Z</time></trkpt><trkpt lat="46.26424078870019" lon="12.302984521168867"><ele>480.0</ele><time>2026-04-12T13:59:32.972Z</time></trkpt><trkpt lat="46.264090572578276" lon="12.302995054289969"><ele>480.0</ele><time>2026-04-12T13:59:33.972Z</time></trkpt><trkpt lat="46.26393463777812" lon="12.302945939785028"><ele>475.33333333333337</ele><time>2026-04-12T13:59:34.972Z</time></trkpt><trkpt lat="46.26375656795717" lon="12.302873231143856"><ele>470.6666666666667</ele><time>2026-04-12T13:59:35.972Z</time></trkpt><trkpt lat="46.26355928354256" lon="12.302746105386772"><ele>466.0</ele><time>2026-04-12T13:59:36.972Z</time></trkpt><trkpt lat="46.263339862779844" lon="12.302621831460572"><ele>466.0</ele><time>2026-04-12T13:59:37.972Z</time></trkpt><trkpt lat="46.26311810969409" lon="12.302459479469961"><ele>466.0</ele><time>2026-04-12T13:59:38.972Z</time></trkpt><trkpt lat="46.262903862660785" lon="12.302316273462976"><ele>465.0</ele><time>2026-04-12T13:59:39.972Z</time></trkpt><trkpt lat="46.262702020059535" lon="12.302181356826518"><ele>464.0</ele><time>2026-04-12T13:59:40.972Z</time></trkpt><trkpt lat="46.26250507855175" lon="12.302073211547343"><ele>463.0</ele><time>2026-04-12T13:59:41.972Z</time></trkpt><trkpt lat="46.262311463495145" lon="12.301945390027566"><ele>458.33333333333337</ele><time>2026-04-12T13:59:42.972Z</time></trkpt><trkpt lat="46.262115277140005" lon="12.301790288609808"><ele>453.66666666666663</ele><time>2026-04-12T13:59:43.972Z</time></trkpt><trkpt lat="46.261914907899836" lon="12.30165699768001"><ele>449.0</ele><time>2026-04-12T13:59:44.972Z</time></trkpt><trkpt lat="46.26172904383423" lon="12.301532007766701"><ele>449.66666666666663</ele><time>2026-04-12T13:59:45.972Z</time></trkpt><trkpt lat="46.26154716994155" lon="12.301407545875572"><ele>450.33333333333337</ele><time>2026-04-12T13:59:46.972Z</time></trkpt><trkpt lat="46.261363293068634" lon="12.301276329242485"><ele>451.0</ele><time>2026-04-12T13:59:47.972Z</time></trkpt><trkpt lat="46.26118410573429" lon="12.301138145167549"><ele>451.0</ele><time>2026-04-12T13:59:48.972Z</time></trkpt><trkpt lat="46.26102238605401" lon="12.300996007949959"><ele>451.0</ele><time>2026-04-12T13:59:49.972Z</time></trkpt><trkpt lat="46.2608347454683" lon="12.300821620138334"><ele>451.0</ele><time>2026-04-12T13:59:50.972Z</time></trkpt><trkpt lat="46.260661527483386" lon="12.300660926468323"><ele>449.0</ele><time>2026-04-12T13:59:51.972Z</time></trkpt><trkpt lat="46.26049359636655" lon="12.300528557908194"><ele>447.0</ele><time>2026-04-12T13:59:52.972Z</time></trkpt><trkpt lat="46.2603304349533" lon="12.300446325152699"><ele>445.0</ele><time>2026-04-12T13:59:53.972Z</time></trkpt><trkpt lat="46.260165823534905" lon="12.300360401691378"><ele>445.0</ele><time>2026-04-12T13:59:54.972Z</time></trkpt><trkpt lat="46.260006934940954" lon="12.300295855949905"><ele>445.0</ele><time>2026-04-12T13:59:55.972Z</time></trkpt><trkpt lat="46.2598509118042" lon="12.300228478519227"><ele>445.0</ele><time>2026-04-12T13:59:56.972Z</time></trkpt><trkpt lat="46.25969602772111" lon="12.300149336094123"><ele>443.33333333333337</ele><time>2026-04-12T13:59:57.972Z</time></trkpt><trkpt lat="46.25953250437849" lon="12.300075747656708"><ele>441.66666666666663</ele><time>2026-04-12T13:59:58.972Z</time></trkpt><trkpt lat="46.25935722829547" lon="12.300001434136526"><ele>440.0</ele><time>2026-04-12T13:59:59.972Z</time></trkpt><trkpt lat="46.25918678831522" lon="12.299944040506109"><ele>440.0</ele><time>2026-04-12T14:00:00.972Z</time></trkpt><trkpt lat="46.25902541721491" lon="12.299901742916274"><ele>440.0</ele><time>2026-04-12T14:00:01.972Z</time></trkpt><trkpt lat="46.25886493634605" lon="12.299868481843776"><ele>440.0</ele><time>2026-04-12T14:00:02.972Z</time></trkpt><trkpt lat="46.2586951297521" lon="12.299836163259451"><ele>438.3333333333333</ele><time>2026-04-12T14:00:03.972Z</time></trkpt><trkpt lat="46.25852304673208" lon="12.29980953028879"><ele>436.66666666666663</ele><time>2026-04-12T14:00:04.972Z</time></trkpt><trkpt lat="46.25833474265853" lon="12.299773489746022"><ele>435.0</ele><time>2026-04-12T14:00:05.972Z</time></trkpt><trkpt lat="46.25813966552928" lon="12.299726742205822"><ele>440.33333333333337</ele><time>2026-04-12T14:00:06.972Z</time></trkpt><trkpt lat="46.2579418765548" lon="12.299654381904238"><ele>445.6666666666667</ele><time>2026-04-12T14:00:07.972Z</time></trkpt><trkpt lat="46.25775608116275" lon="12.299575231799455"><ele>451.0</ele><time>2026-04-12T14:00:08.972Z</time></trkpt><trkpt lat="46.25757732575099" lon="12.299490956828553"><ele>451.0</ele><time>2026-04-12T14:00:09.972Z</time></trkpt><trkpt lat="46.25740713232982" lon="12.299406371183835"><ele>451.0</ele><time>2026-04-12T14:00:10.972Z</time></trkpt><trkpt lat="46.257244301237314" lon="12.299320266046415"><ele>451.0</ele><time>2026-04-12T14:00:11.972Z</time></trkpt><trkpt lat="46.25708693545404" lon="12.299234639320149"><ele>446.33333333333337</ele><time>2026-04-12T14:00:12.972Z</time></trkpt><trkpt lat="46.256921220304825" lon="12.299150383112899"><ele>441.66666666666663</ele><time>2026-04-12T14:00:13.972Z</time></trkpt><trkpt lat="46.25674581977468" lon="12.299070625697398"><ele>437.0</ele><time>2026-04-12T14:00:14.972Z</time></trkpt><trkpt lat="46.25656348033049" lon="12.299006507283913"><ele>440.66666666666663</ele><time>2026-04-12T14:00:15.972Z</time></trkpt><trkpt lat="46.25638033375799" lon="12.298912432356127"><ele>444.33333333333337</ele><time>2026-04-12T14:00:16.972Z</time></trkpt><trkpt lat="46.2561813616183" lon="12.298836521142189"><ele>448.0</ele><time>2026-04-12T14:00:17.972Z</time></trkpt><trkpt lat="46.25598440920318" lon="12.298795783904163"><ele>448.0</ele><time>2026-04-12T14:00:18.972Z</time></trkpt><trkpt lat="46.25580846914296" lon="12.298732009358586"><ele>448.0</ele><time>2026-04-12T14:00:19.972Z</time></trkpt><trkpt lat="46.255632923240995" lon="12.29868780141868"><ele>448.0</ele><time>2026-04-12T14:00:20.972Z</time></trkpt><trkpt lat="46.25547385737617" lon="12.298662007079558"><ele>449.0</ele><time>2026-04-12T14:00:21.972Z</time></trkpt><trkpt lat="46.25530655043739" lon="12.298644171409464"><ele>450.0</ele><time>2026-04-12T14:00:22.972Z</time></trkpt><trkpt lat="46.25513756805043" lon="12.29864142732222"><ele>451.0</ele><time>2026-04-12T14:00:23.972Z</time></trkpt><trkpt lat="46.25496172813121" lon="12.298644607372367"><ele>449.33333333333337</ele><time>2026-04-12T14:00:24.972Z</time></trkpt><trkpt lat="46.254784573944" lon="12.29864017535833"><ele>447.66666666666663</ele><time>2026-04-12T14:00:25.972Z</time></trkpt><trkpt lat="46.2545981928712" lon="12.298639666027018"><ele>446.0</ele><time>2026-04-12T14:00:26.972Z</time></trkpt><trkpt lat="46.254404632692534" lon="12.298638734451178"><ele>446.0</ele><time>2026-04-12T14:00:27.972Z</time></trkpt><trkpt lat="46.25418605041422" lon="12.298611819856378"><ele>446.0</ele><time>2026-04-12T14:00:28.972Z</time></trkpt><trkpt lat="46.25395944768481" lon="12.298605919081988"><ele>446.0</ele><time>2026-04-12T14:00:29.972Z</time></trkpt><trkpt lat="46.253704659303295" lon="12.298613861779826"><ele>447.5</ele><time>2026-04-12T14:00:30.972Z</time></trkpt><trkpt lat="46.253463473071164" lon="12.298594785358198"><ele>449.0</ele><time>2026-04-12T14:00:31.972Z</time></trkpt><trkpt lat="46.25320912880325" lon="12.298589350459325"><ele>450.0</ele><time>2026-04-12T14:00:32.972Z</time></trkpt><trkpt lat="46.252979663045565" lon="12.298605878533701"><ele>451.0</ele><time>2026-04-12T14:00:33.972Z</time></trkpt><trkpt lat="46.252767623703164" lon="12.298593831275774"><ele>452.0</ele><time>2026-04-12T14:00:34.972Z</time></trkpt><trkpt lat="46.25255606633151" lon="12.298546613061593"><ele>452.0</ele><time>2026-04-12T14:00:35.972Z</time></trkpt><trkpt lat="46.252323743050816" lon="12.298515676733093"><ele>452.0</ele><time>2026-04-12T14:00:36.972Z</time></trkpt><trkpt lat="46.25207135712698" lon="12.298481265418367"><ele>449.0</ele><time>2026-04-12T14:00:37.972Z</time></trkpt><trkpt lat="46.25184142783265" lon="12.298449394808115"><ele>446.0</ele><time>2026-04-12T14:00:38.972Z</time></trkpt><trkpt lat="46.251631856058324" lon="12.298419375968606"><ele>443.0</ele><time>2026-04-12T14:00:39.972Z</time></trkpt><trkpt lat="46.25143117261789" lon="12.298390415186779"><ele>441.0</ele><time>2026-04-12T14:00:40.972Z</time></trkpt><trkpt lat="46.251240461595266" lon="12.298361990046775"><ele>439.0</ele><time>2026-04-12T14:00:41.972Z</time></trkpt><trkpt lat="46.25104561616997" lon="12.298334186463363"><ele>437.0</ele><time>2026-04-12T14:00:42.972Z</time></trkpt><trkpt lat="46.25085538918571" lon="12.298312018558706"><ele>437.0</ele><time>2026-04-12T14:00:43.972Z</time></trkpt><trkpt lat="46.25067616424891" lon="12.298317401931445"><ele>437.0</ele><time>2026-04-12T14:00:44.972Z</time></trkpt><trkpt lat="46.250467709605026" lon="12.298297582290598"><ele>437.0</ele><time>2026-04-12T14:00:45.972Z</time></trkpt><trkpt lat="46.25023853709982" lon="12.298353520019555"><ele>438.0</ele><time>2026-04-12T14:00:46.972Z</time></trkpt><trkpt lat="46.25000255018466" lon="12.298402424182122"><ele>439.0</ele><time>2026-04-12T14:00:47.972Z</time></trkpt><trkpt lat="46.24974762867751" lon="12.298451478930048"><ele>436.5</ele><time>2026-04-12T14:00:48.972Z</time></trkpt><trkpt lat="46.2494815107398" lon="12.298495365770513"><ele>434.0</ele><time>2026-04-12T14:00:49.972Z</time></trkpt><trkpt lat="46.24923382540596" lon="12.298503280919915"><ele>434.0</ele><time>2026-04-12T14:00:50.972Z</time></trkpt><trkpt lat="46.24901080030297" lon="12.298547862090674"><ele>434.0</ele><time>2026-04-12T14:00:51.972Z</time></trkpt><trkpt lat="46.24881086429039" lon="12.29858697186418"><ele>434.0</ele><time>2026-04-12T14:00:52.972Z</time></trkpt><trkpt lat="46.24862954057212" lon="12.298621247921355"><ele>433.66666666666663</ele><time>2026-04-12T14:00:53.972Z</time></trkpt><trkpt lat="46.248466344690826" lon="12.298688409105504"><ele>433.33333333333337</ele><time>2026-04-12T14:00:54.972Z</time></trkpt><trkpt lat="46.248311902496454" lon="12.298722931258764"><ele>433.0</ele><time>2026-04-12T14:00:55.973Z</time></trkpt><trkpt lat="46.248168044604306" lon="12.298761083273495"><ele>433.33333333333337</ele><time>2026-04-12T14:00:56.973Z</time></trkpt><trkpt lat="46.24801251763874" lon="12.298812264525768"><ele>433.66666666666663</ele><time>2026-04-12T14:00:57.973Z</time></trkpt><trkpt lat="46.247863299144605" lon="12.298876672562875"><ele>434.0</ele><time>2026-04-12T14:00:58.973Z</time></trkpt><trkpt lat="46.24772487679793" lon="12.298926202855641"><ele>433.0</ele><time>2026-04-12T14:00:59.973Z</time></trkpt><trkpt lat="46.24759507007055" lon="12.29896909245365"><ele>432.0</ele><time>2026-04-12T14:01:00.973Z</time></trkpt><trkpt lat="46.24745550653084" lon="12.299013138526947"><ele>431.0</ele><time>2026-04-12T14:01:01.973Z</time></trkpt><trkpt lat="46.24729151631307" lon="12.299059777240156"><ele>430.0</ele><time>2026-04-12T14:01:02.973Z</time></trkpt><trkpt lat="46.24711645890449" lon="12.299058394571187"><ele>430.0</ele><time>2026-04-12T14:01:03.973Z</time></trkpt><trkpt lat="46.24693846128622" lon="12.299076035672178"><ele>430.0</ele><time>2026-04-12T14:01:04.973Z</time></trkpt><trkpt lat="46.24676662670394" lon="12.299055489471758"><ele>430.0</ele><time>2026-04-12T14:01:05.973Z</time></trkpt><trkpt lat="46.246603888872926" lon="12.299017784140627"><ele>428.6666666666667</ele><time>2026-04-12T14:01:06.973Z</time></trkpt><trkpt lat="46.24645177057136" lon="12.298968507455944"><ele>427.33333333333337</ele><time>2026-04-12T14:01:07.973Z</time></trkpt><trkpt lat="46.246299317872335" lon="12.29890283293602"><ele>426.0</ele><time>2026-04-12T14:01:08.973Z</time></trkpt><trkpt lat="46.246140983105505" lon="12.298806893823214"><ele>428.66666666666663</ele><time>2026-04-12T14:01:09.973Z</time></trkpt><trkpt lat="46.24597762959896" lon="12.298679985432543"><ele>431.3333333333333</ele><time>2026-04-12T14:01:10.973Z</time></trkpt><trkpt lat="46.24581444210623" lon="12.298513402738301"><ele>434.0</ele><time>2026-04-12T14:01:11.973Z</time></trkpt><trkpt lat="46.24564298940074" lon="12.298325403083913"><ele>434.0</ele><time>2026-04-12T14:01:12.973Z</time></trkpt><trkpt lat="46.24545717686904" lon="12.298102079418097"><ele>434.0</ele><time>2026-04-12T14:01:13.973Z</time></trkpt><trkpt lat="46.24525890021328" lon="12.297871429642145"><ele>434.0</ele><time>2026-04-12T14:01:14.973Z</time></trkpt><trkpt lat="46.2450470100023" lon="12.297636665146284"><ele>434.0</ele><time>2026-04-12T14:01:15.973Z</time></trkpt><trkpt lat="46.24481877751547" lon="12.297403881890778"><ele>436.5</ele><time>2026-04-12T14:01:16.973Z</time></trkpt><trkpt lat="46.244584796555046" lon="12.297165235476713"><ele>439.0</ele><time>2026-04-12T14:01:17.973Z</time></trkpt><trkpt lat="46.24438754462814" lon="12.296964050544538"><ele>439.0</ele><time>2026-04-12T14:01:18.973Z</time></trkpt><trkpt lat="46.244199162182014" lon="12.296794933251164"><ele>439.0</ele><time>2026-04-12T14:01:19.973Z</time></trkpt><trkpt lat="46.24402765234289" lon="12.296618619711339"><ele>439.0</ele><time>2026-04-12T14:01:20.973Z</time></trkpt><trkpt lat="46.24387777818623" lon="12.296464205265258"><ele>439.6666666666667</ele><time>2026-04-12T14:01:21.973Z</time></trkpt><trkpt lat="46.243740742617874" lon="12.296323466246832"><ele>440.33333333333337</ele><time>2026-04-12T14:01:22.973Z</time></trkpt><trkpt lat="46.243616336976395" lon="12.296189445007375"><ele>441.0</ele><time>2026-04-12T14:01:23.973Z</time></trkpt><trkpt lat="46.24349547009148" lon="12.296071780764372"><ele>441.0</ele><time>2026-04-12T14:01:24.973Z</time></trkpt><trkpt lat="46.24337681215352" lon="12.29593439748706"><ele>441.0</ele><time>2026-04-12T14:01:25.973Z</time></trkpt><trkpt lat="46.24324159874593" lon="12.29581397993675"><ele>441.0</ele><time>2026-04-12T14:01:26.973Z</time></trkpt><trkpt lat="46.24312324577652" lon="12.295676753906852"><ele>442.0</ele><time>2026-04-12T14:01:27.973Z</time></trkpt><trkpt lat="46.24300354111627" lon="12.295554393537955"><ele>443.0</ele><time>2026-04-12T14:01:28.973Z</time></trkpt><trkpt lat="46.24282167032015" lon="12.29536848753048"><ele>444.0</ele><time>2026-04-12T14:01:29.973Z</time></trkpt><trkpt lat="46.242680368518755" lon="12.295224051027573"><ele>444.0</ele><time>2026-04-12T14:01:30.973Z</time></trkpt><trkpt lat="46.24251733416906" lon="12.295083879394344"><ele>444.0</ele><time>2026-04-12T14:01:31.973Z</time></trkpt><trkpt lat="46.242372461295226" lon="12.29493234695784"><ele>444.0</ele><time>2026-04-12T14:01:32.973Z</time></trkpt><trkpt lat="46.24222051218556" lon="12.294794648794925"><ele>448.66666666666663</ele><time>2026-04-12T14:01:33.973Z</time></trkpt><trkpt lat="46.2420805834242" lon="12.294686588721419"><ele>453.3333333333333</ele><time>2026-04-12T14:01:34.973Z</time></trkpt><trkpt lat="46.24193096200545" lon="12.294604627358327"><ele>458.0</ele><time>2026-04-12T14:01:35.973Z</time></trkpt><trkpt lat="46.2417672361476" lon="12.294553696339088"><ele>458.0</ele><time>2026-04-12T14:01:36.973Z</time></trkpt><trkpt lat="46.24160264350371" lon="12.294482421920367"><ele>458.0</ele><time>2026-04-12T14:01:37.973Z</time></trkpt><trkpt lat="46.24141055588486" lon="12.294513853010175"><ele>458.0</ele><time>2026-04-12T14:01:38.973Z</time></trkpt><trkpt lat="46.24121603448105" lon="12.294560914740837"><ele>454.3333333333333</ele><time>2026-04-12T14:01:39.973Z</time></trkpt><trkpt lat="46.24103837312695" lon="12.294650882045651"><ele>450.66666666666663</ele><time>2026-04-12T14:01:40.973Z</time></trkpt><trkpt lat="46.240856109099575" lon="12.294802266806355"><ele>447.0</ele><time>2026-04-12T14:01:41.973Z</time></trkpt><trkpt lat="46.24066283396013" lon="12.294974200904504"><ele>442.0</ele><time>2026-04-12T14:01:42.973Z</time></trkpt><trkpt lat="46.24044779555859" lon="12.295146179592786"><ele>437.0</ele><time>2026-04-12T14:01:43.973Z</time></trkpt><trkpt lat="46.24024723804074" lon="12.295272110788547"><ele>437.0</ele><time>2026-04-12T14:01:44.973Z</time></trkpt><trkpt lat="46.240056546128706" lon="12.295374666209486"><ele>437.0</ele><time>2026-04-12T14:01:45.973Z</time></trkpt><trkpt lat="46.239875580848306" lon="12.295455407601645"><ele>437.0</ele><time>2026-04-12T14:01:46.973Z</time></trkpt><trkpt lat="46.23970850906647" lon="12.29552015755557"><ele>437.3333333333333</ele><time>2026-04-12T14:01:47.973Z</time></trkpt><trkpt lat="46.239544096098385" lon="12.295569041721953"><ele>437.66666666666663</ele><time>2026-04-12T14:01:48.973Z</time></trkpt><trkpt lat="46.23939156046238" lon="12.295597603263364"><ele>438.0</ele><time>2026-04-12T14:01:49.973Z</time></trkpt><trkpt lat="46.2392217243226" lon="12.295613874332835"><ele>438.0</ele><time>2026-04-12T14:01:50.973Z</time></trkpt><trkpt lat="46.239039041261485" lon="12.295580836036184"><ele>438.0</ele><time>2026-04-12T14:01:51.973Z</time></trkpt><trkpt lat="46.23887806110921" lon="12.2955700558762"><ele>438.0</ele><time>2026-04-12T14:01:52.973Z</time></trkpt><trkpt lat="46.23872453474564" lon="12.295547670165266"><ele>436.66666666666663</ele><time>2026-04-12T14:01:53.973Z</time></trkpt><trkpt lat="46.238580980516154" lon="12.29554276171174"><ele>435.3333333333333</ele><time>2026-04-12T14:01:54.973Z</time></trkpt><trkpt lat="46.238434278353466" lon="12.295499309573772"><ele>434.0</ele><time>2026-04-12T14:01:55.973Z</time></trkpt><trkpt lat="46.238278534027685" lon="12.295423659037722"><ele>435.3333333333333</ele><time>2026-04-12T14:01:56.973Z</time></trkpt><trkpt lat="46.23810067055541" lon="12.295383635331598"><ele>436.66666666666663</ele><time>2026-04-12T14:01:57.973Z</time></trkpt><trkpt lat="46.23792223753256" lon="12.29531823321579"><ele>438.0</ele><time>2026-04-12T14:01:58.973Z</time></trkpt><trkpt lat="46.23776055576541" lon="12.295259983389903"><ele>438.0</ele><time>2026-04-12T14:01:59.973Z</time></trkpt><trkpt lat="46.237629362651994" lon="12.295210436941394"><ele>437.99999999999994</ele><time>2026-04-12T14:02:00.973Z</time></trkpt><trkpt lat="46.23751164827235" lon="12.295171744826371"><ele>437.99999999999994</ele><time>2026-04-12T14:02:01.973Z</time></trkpt><trkpt lat="46.23740688407329" lon="12.295114972644502"><ele>438.0</ele><time>2026-04-12T14:02:02.973Z</time></trkpt><trkpt lat="46.237326518482725" lon="12.295106170757405"><ele>438.0</ele><time>2026-04-12T14:02:03.973Z</time></trkpt><trkpt lat="46.23723631219943" lon="12.295069627979439"><ele>437.25</ele><time>2026-04-12T14:02:05.973Z</time></trkpt><trkpt lat="46.237152817732785" lon="12.295028318348361"><ele>436.5</ele><time>2026-04-12T14:02:06.973Z</time></trkpt><trkpt lat="46.2370355878022" lon="12.294981108310644"><ele>435.75</ele><time>2026-04-12T14:02:07.973Z</time></trkpt><trkpt lat="46.236891576025556" lon="12.294933491707372"><ele>435.0</ele><time>2026-04-12T14:02:08.973Z</time></trkpt><trkpt lat="46.23672346707508" lon="12.29487691840285"><ele>435.0</ele><time>2026-04-12T14:02:09.973Z</time></trkpt><trkpt lat="46.236522816754466" lon="12.294800607092602"><ele>435.0</ele><time>2026-04-12T14:02:10.973Z</time></trkpt><trkpt lat="46.236292629391095" lon="12.294710624521432"><ele>435.0</ele><time>2026-04-12T14:02:11.973Z</time></trkpt><trkpt lat="46.23604449074671" lon="12.294624436201003"><ele>437.0</ele><time>2026-04-12T14:02:12.973Z</time></trkpt><trkpt lat="46.23582013517591" lon="12.29454589155246"><ele>439.0</ele><time>2026-04-12T14:02:13.973Z</time></trkpt><trkpt lat="46.23562197688604" lon="12.294476084431453"><ele>441.0</ele><time>2026-04-12T14:02:14.973Z</time></trkpt><trkpt lat="46.23542200985844" lon="12.294408179383513"><ele>441.0</ele><time>2026-04-12T14:02:15.973Z</time></trkpt><trkpt lat="46.23521813459756" lon="12.294333129028486"><ele>441.0</ele><time>2026-04-12T14:02:16.973Z</time></trkpt><trkpt lat="46.235009388170305" lon="12.294244973064945"><ele>441.0</ele><time>2026-04-12T14:02:17.973Z</time></trkpt><trkpt lat="46.23479278632983" lon="12.294141542713401"><ele>445.5</ele><time>2026-04-12T14:02:18.973Z</time></trkpt><trkpt lat="46.234569786041234" lon="12.294040202336554"><ele>450.0</ele><time>2026-04-12T14:02:19.973Z</time></trkpt><trkpt lat="46.23432587213436" lon="12.293902200604231"><ele>450.0</ele><time>2026-04-12T14:02:20.973Z</time></trkpt><trkpt lat="46.23411257179992" lon="12.293750112457543"><ele>450.0</ele><time>2026-04-12T14:02:21.973Z</time></trkpt><trkpt lat="46.23391722856299" lon="12.293574347372891"><ele>442.0</ele><time>2026-04-12T14:02:22.973Z</time></trkpt><trkpt lat="46.233713708658925" lon="12.293362125618561"><ele>434.0</ele><time>2026-04-12T14:02:23.973Z</time></trkpt><trkpt lat="46.23350325096993" lon="12.293148156532228"><ele>433.3333333333333</ele><time>2026-04-12T14:02:24.973Z</time></trkpt><trkpt lat="46.233311611287924" lon="12.292960942347486"><ele>432.66666666666663</ele><time>2026-04-12T14:02:25.973Z</time></trkpt><trkpt lat="46.233144597980306" lon="12.292798846808127"><ele>432.0</ele><time>2026-04-12T14:02:26.973Z</time></trkpt><trkpt lat="46.232992433312646" lon="12.292649440976767"><ele>432.0</ele><time>2026-04-12T14:02:27.973Z</time></trkpt><trkpt lat="46.23284826559469" lon="12.292498393677079"><ele>432.0</ele><time>2026-04-12T14:02:28.973Z</time></trkpt><trkpt lat="46.232714702901234" lon="12.292347061481056"><ele>432.0</ele><time>2026-04-12T14:02:29.973Z</time></trkpt><trkpt lat="46.232590969208594" lon="12.29220055384073"><ele>431.0</ele><time>2026-04-12T14:02:30.973Z</time></trkpt><trkpt lat="46.23246056287459" lon="12.292035754837306"><ele>430.0</ele><time>2026-04-12T14:02:31.973Z</time></trkpt><trkpt lat="46.23232153719408" lon="12.291856620899273"><ele>429.0</ele><time>2026-04-12T14:02:32.973Z</time></trkpt><trkpt lat="46.23218425187506" lon="12.291662887277989"><ele>429.0</ele><time>2026-04-12T14:02:33.973Z</time></trkpt><trkpt lat="46.23206307100343" lon="12.29148031129378"><ele>429.0</ele><time>2026-04-12T14:02:34.973Z</time></trkpt><trkpt lat="46.231952270554466" lon="12.291297860754266"><ele>429.0</ele><time>2026-04-12T14:02:35.973Z</time></trkpt><trkpt lat="46.2318410395415" lon="12.291132459493355"><ele>429.33333333333337</ele><time>2026-04-12T14:02:36.973Z</time></trkpt><trkpt lat="46.2317067882506" lon="12.29096367601175"><ele>429.6666666666667</ele><time>2026-04-12T14:02:37.973Z</time></trkpt><trkpt lat="46.23154159577615" lon="12.290785428213097"><ele>430.0</ele><time>2026-04-12T14:02:38.973Z</time></trkpt><trkpt lat="46.231352197630024" lon="12.29061352964894"><ele>433.5</ele><time>2026-04-12T14:02:39.973Z</time></trkpt><trkpt lat="46.231146935553205" lon="12.290432775509897"><ele>437.0</ele><time>2026-04-12T14:02:40.973Z</time></trkpt><trkpt lat="46.23093718831816" lon="12.290223192071963"><ele>437.0</ele><time>2026-04-12T14:02:41.973Z</time></trkpt><trkpt lat="46.230727925854644" lon="12.290029861161626"><ele>437.0</ele><time>2026-04-12T14:02:42.973Z</time></trkpt><trkpt lat="46.230520967165724" lon="12.289882360237613"><ele>436.0</ele><time>2026-04-12T14:02:43.973Z</time></trkpt><trkpt lat="46.23030071676761" lon="12.289761164096285"><ele>435.0</ele><time>2026-04-12T14:02:44.973Z</time></trkpt><trkpt lat="46.230081829580215" lon="12.289654680507379"><ele>435.0</ele><time>2026-04-12T14:02:45.973Z</time></trkpt><trkpt lat="46.22988274974115" lon="12.289552121634888"><ele>435.0</ele><time>2026-04-12T14:02:46.973Z</time></trkpt><trkpt lat="46.22969964191766" lon="12.289456164299283"><ele>435.0</ele><time>2026-04-12T14:02:47.973Z</time></trkpt><trkpt lat="46.22952069524987" lon="12.2893659100833"><ele>434.66666666666663</ele><time>2026-04-12T14:02:48.973Z</time></trkpt><trkpt lat="46.22934612013964" lon="12.28928015703205"><ele>434.3333333333333</ele><time>2026-04-12T14:02:49.973Z</time></trkpt><trkpt lat="46.22918795771706" lon="12.289201835239954"><ele>434.0</ele><time>2026-04-12T14:02:50.973Z</time></trkpt><trkpt lat="46.22904204640952" lon="12.289126127113793"><ele>433.66666666666663</ele><time>2026-04-12T14:02:51.973Z</time></trkpt><trkpt lat="46.22889225826579" lon="12.289053286502915"><ele>433.33333333333337</ele><time>2026-04-12T14:02:52.973Z</time></trkpt><trkpt lat="46.228743924752656" lon="12.288976713741675"><ele>433.0</ele><time>2026-04-12T14:02:53.973Z</time></trkpt><trkpt lat="46.228594405052306" lon="12.288905055894057"><ele>433.6666666666667</ele><time>2026-04-12T14:02:54.973Z</time></trkpt><trkpt lat="46.22844590879506" lon="12.288835326751627"><ele>434.33333333333337</ele><time>2026-04-12T14:02:55.973Z</time></trkpt><trkpt lat="46.228296485686506" lon="12.288758368456303"><ele>435.0</ele><time>2026-04-12T14:02:56.973Z</time></trkpt><trkpt lat="46.2281502123692" lon="12.288692025263392"><ele>434.33333333333337</ele><time>2026-04-12T14:02:57.973Z</time></trkpt><trkpt lat="46.22800429838856" lon="12.288634704951017"><ele>433.6666666666667</ele><time>2026-04-12T14:02:58.973Z</time></trkpt><trkpt lat="46.22785307631115" lon="12.2885849212836"><ele>433.0</ele><time>2026-04-12T14:02:59.973Z</time></trkpt><trkpt lat="46.22770302316304" lon="12.28853444661794"><ele>433.0</ele><time>2026-04-12T14:03:00.973Z</time></trkpt><trkpt lat="46.227551578990564" lon="12.288475012575203"><ele>433.0</ele><time>2026-04-12T14:03:01.974Z</time></trkpt><trkpt lat="46.227399000881476" lon="12.288422044776512"><ele>433.0</ele><time>2026-04-12T14:03:02.974Z</time></trkpt><trkpt lat="46.22724159523235" lon="12.28835580846909"><ele>429.6666666666667</ele><time>2026-04-12T14:03:03.974Z</time></trkpt><trkpt lat="46.227089121837516" lon="12.288293334424829"><ele>426.33333333333337</ele><time>2026-04-12T14:03:04.974Z</time></trkpt><trkpt lat="46.226942420584614" lon="12.28823468647331"><ele>423.0</ele><time>2026-04-12T14:03:05.974Z</time></trkpt><trkpt lat="46.226803508492615" lon="12.288181686734196"><ele>423.0</ele><time>2026-04-12T14:03:06.974Z</time></trkpt><trkpt lat="46.226670058171095" lon="12.288115556600827"><ele>423.0</ele><time>2026-04-12T14:03:07.974Z</time></trkpt><trkpt lat="46.22653949349159" lon="12.288046945244389"><ele>423.0</ele><time>2026-04-12T14:03:08.974Z</time></trkpt><trkpt lat="46.22641604443514" lon="12.287972840619428"><ele>423.0</ele><time>2026-04-12T14:03:09.974Z</time></trkpt><trkpt lat="46.22628339601682" lon="12.28789262430235"><ele>424.75</ele><time>2026-04-12T14:03:10.974Z</time></trkpt><trkpt lat="46.2261554527182" lon="12.287816862160728"><ele>426.5</ele><time>2026-04-12T14:03:11.974Z</time></trkpt><trkpt lat="46.22602072178705" lon="12.287748871029036"><ele>428.25</ele><time>2026-04-12T14:03:12.974Z</time></trkpt><trkpt lat="46.22587772739527" lon="12.287667229882999"><ele>430.0</ele><time>2026-04-12T14:03:13.974Z</time></trkpt><trkpt lat="46.225750923572036" lon="12.287591976395152"><ele>431.0</ele><time>2026-04-12T14:03:14.974Z</time></trkpt><trkpt lat="46.22563386648355" lon="12.287504872612766"><ele>432.0</ele><time>2026-04-12T14:03:15.974Z</time></trkpt><trkpt lat="46.22552445392981" lon="12.287416921941142"><ele>433.0</ele><time>2026-04-12T14:03:16.974Z</time></trkpt><trkpt lat="46.22541817724744" lon="12.287319097905037"><ele>434.0</ele><time>2026-04-12T14:03:17.974Z</time></trkpt><trkpt lat="46.225314945577736" lon="12.287217065707106"><ele>434.0</ele><time>2026-04-12T14:03:18.974Z</time></trkpt><trkpt lat="46.22521378195382" lon="12.287125870994236"><ele>434.0</ele><time>2026-04-12T14:03:19.974Z</time></trkpt><trkpt lat="46.225127533869866" lon="12.287049214755768"><ele>434.0</ele><time>2026-04-12T14:03:20.974Z</time></trkpt><trkpt lat="46.22505003213338" lon="12.286979213489236"><ele>434.0</ele><time>2026-04-12T14:03:21.974Z</time></trkpt><trkpt lat="46.224990420290055" lon="12.28688282215058"><ele>434.0</ele><time>2026-04-12T14:03:22.974Z</time></trkpt><trkpt lat="46.22495338975434" lon="12.286768948368135"><ele>433.99999999999994</ele><time>2026-04-12T14:03:23.974Z</time></trkpt><trkpt lat="46.224911382997746" lon="12.28668903336204"><ele>434.0</ele><time>2026-04-12T14:03:24.974Z</time></trkpt><trkpt lat="46.2248517356344" lon="12.28665103438145"><ele>434.0</ele><time>2026-04-12T14:03:25.974Z</time></trkpt><trkpt lat="46.224776498537565" lon="12.286656534461287"><ele>434.0</ele><time>2026-04-12T14:03:26.974Z</time></trkpt><trkpt lat="46.22471018618242" lon="12.286678545690533"><ele>433.99999999999994</ele><time>2026-04-12T14:03:27.974Z</time></trkpt><trkpt lat="46.22461461091404" lon="12.286734775679017"><ele>434.0</ele><time>2026-04-12T14:03:29.974Z</time></trkpt><trkpt lat="46.224639640775685" lon="12.286926792719532"><ele>433.99999999999994</ele><time>2026-04-12T14:03:30.974Z</time></trkpt><trkpt lat="46.224681599658545" lon="12.287035600630183"><ele>434.0</ele><time>2026-04-12T14:03:31.974Z</time></trkpt><trkpt lat="46.22475277379433" lon="12.287116258035352"><ele>434.0</ele><time>2026-04-12T14:03:32.974Z</time></trkpt><trkpt lat="46.224836649225104" lon="12.28712335242371"><ele>434.0</ele><time>2026-04-12T14:03:33.974Z</time></trkpt><trkpt lat="46.224908490861026" lon="12.28707370313598"><ele>433.99999999999994</ele><time>2026-04-12T14:03:34.974Z</time></trkpt><trkpt lat="46.22496301244908" lon="12.286986242786286"><ele>434.0</ele><time>2026-04-12T14:03:35.974Z</time></trkpt><trkpt lat="46.22498167122069" lon="12.286869348857323"><ele>434.0</ele><time>2026-04-12T14:03:36.974Z</time></trkpt><trkpt lat="46.224955383686044" lon="12.286743089289509"><ele>434.0</ele><time>2026-04-12T14:03:37.974Z</time></trkpt><trkpt lat="46.2248943837762" lon="12.286654442666174"><ele>434.0</ele><time>2026-04-12T14:03:38.974Z</time></trkpt><trkpt lat="46.22480731700839" lon="12.286609144142218"><ele>434.0</ele><time>2026-04-12T14:03:39.974Z</time></trkpt><trkpt lat="46.224721571700385" lon="12.286608460243738"><ele>434.0</ele><time>2026-04-12T14:03:40.974Z</time></trkpt><trkpt lat="46.22463271237658" lon="12.286712261702917"><ele>431.5</ele><time>2026-04-12T14:03:41.974Z</time></trkpt><trkpt lat="46.22453947232426" lon="12.286786727797372"><ele>429.0</ele><time>2026-04-12T14:03:42.974Z</time></trkpt><trkpt lat="46.22441854369023" lon="12.286804679799678"><ele>426.5</ele><time>2026-04-12T14:03:43.974Z</time></trkpt><trkpt lat="46.22427739658731" lon="12.286764699958804"><ele>424.0</ele><time>2026-04-12T14:03:44.974Z</time></trkpt><trkpt lat="46.224114213021096" lon="12.286694059404892"><ele>421.33333333333337</ele><time>2026-04-12T14:03:45.974Z</time></trkpt><trkpt lat="46.223925334042775" lon="12.286595179757931"><ele>418.66666666666663</ele><time>2026-04-12T14:03:46.974Z</time></trkpt><trkpt lat="46.223713538009434" lon="12.286493042354055"><ele>416.0</ele><time>2026-04-12T14:03:47.974Z</time></trkpt><trkpt lat="46.22351986708304" lon="12.286409388176237"><ele>416.0</ele><time>2026-04-12T14:03:48.974Z</time></trkpt><trkpt lat="46.22333782188508" lon="12.286326278460466"><ele>416.0</ele><time>2026-04-12T14:03:49.974Z</time></trkpt><trkpt lat="46.22313791251356" lon="12.286249801243347"><ele>416.0</ele><time>2026-04-12T14:03:50.974Z</time></trkpt><trkpt lat="46.22292790820443" lon="12.286184576777545"><ele>416.3333333333333</ele><time>2026-04-12T14:03:51.974Z</time></trkpt><trkpt lat="46.22270966466694" lon="12.286127272573784"><ele>416.66666666666663</ele><time>2026-04-12T14:03:52.974Z</time></trkpt><trkpt lat="46.222508272817535" lon="12.286087467430002"><ele>417.0</ele><time>2026-04-12T14:03:53.974Z</time></trkpt><trkpt lat="46.222320107981375" lon="12.286050135299869"><ele>418.0</ele><time>2026-04-12T14:03:54.974Z</time></trkpt><trkpt lat="46.222140356870625" lon="12.286031557054818"><ele>419.0</ele><time>2026-04-12T14:03:55.974Z</time></trkpt><trkpt lat="46.22196066703717" lon="12.286007882781679"><ele>420.0</ele><time>2026-04-12T14:03:56.974Z</time></trkpt><trkpt lat="46.221776913468474" lon="12.285998142163832"><ele>420.0</ele><time>2026-04-12T14:03:57.974Z</time></trkpt><trkpt lat="46.22158472275064" lon="12.285988411548042"><ele>420.0</ele><time>2026-04-12T14:03:58.974Z</time></trkpt><trkpt lat="46.221382682738074" lon="12.285995569316832"><ele>420.0</ele><time>2026-04-12T14:03:59.974Z</time></trkpt><trkpt lat="46.221161305368625" lon="12.286014499737233"><ele>421.0</ele><time>2026-04-12T14:04:00.974Z</time></trkpt><trkpt lat="46.22094446095656" lon="12.286037159560125"><ele>422.0</ele><time>2026-04-12T14:04:01.974Z</time></trkpt><trkpt lat="46.22075216786326" lon="12.286066458618452"><ele>423.0</ele><time>2026-04-12T14:04:02.974Z</time></trkpt><trkpt lat="46.220564252753555" lon="12.286097004655172"><ele>423.66666666666663</ele><time>2026-04-12T14:04:03.974Z</time></trkpt><trkpt lat="46.2203715756892" lon="12.286134771864393"><ele>424.3333333333333</ele><time>2026-04-12T14:04:04.974Z</time></trkpt><trkpt lat="46.220179205487014" lon="12.286191302323951"><ele>425.0</ele><time>2026-04-12T14:04:05.974Z</time></trkpt><trkpt lat="46.21998957771868" lon="12.286249921203272"><ele>423.66666666666663</ele><time>2026-04-12T14:04:06.974Z</time></trkpt><trkpt lat="46.21979655490593" lon="12.286320843882518"><ele>422.33333333333337</ele><time>2026-04-12T14:04:07.974Z</time></trkpt><trkpt lat="46.2195916296476" lon="12.286407006477756"><ele>421.0</ele><time>2026-04-12T14:04:08.974Z</time></trkpt><trkpt lat="46.21937580832861" lon="12.286513715689303"><ele>419.33333333333337</ele><time>2026-04-12T14:04:09.974Z</time></trkpt><trkpt lat="46.219170601816984" lon="12.286625495342065"><ele>417.66666666666663</ele><time>2026-04-12T14:04:10.974Z</time></trkpt><trkpt lat="46.218979366967304" lon="12.286721888116888"><ele>416.0</ele><time>2026-04-12T14:04:11.974Z</time></trkpt><trkpt lat="46.218804226828276" lon="12.286817941017537"><ele>416.0</ele><time>2026-04-12T14:04:12.974Z</time></trkpt><trkpt lat="46.21864212978481" lon="12.28690421955631"><ele>416.0</ele><time>2026-04-12T14:04:13.974Z</time></trkpt><trkpt lat="46.21847610182921" lon="12.286969487059539"><ele>416.0</ele><time>2026-04-12T14:04:14.974Z</time></trkpt><trkpt lat="46.21829846125861" lon="12.287049500102437"><ele>413.3333333333333</ele><time>2026-04-12T14:04:15.974Z</time></trkpt><trkpt lat="46.2181384721932" lon="12.287115161401603"><ele>410.66666666666663</ele><time>2026-04-12T14:04:16.974Z</time></trkpt><trkpt lat="46.217896574097935" lon="12.28728101856335"><ele>408.0</ele><time>2026-04-12T14:04:17.974Z</time></trkpt><trkpt lat="46.217673733754296" lon="12.287431001633953"><ele>408.0</ele><time>2026-04-12T14:04:18.974Z</time></trkpt><trkpt lat="46.21744998951839" lon="12.287568852886217"><ele>408.0</ele><time>2026-04-12T14:04:19.974Z</time></trkpt><trkpt lat="46.2172467175174" lon="12.287688720637128"><ele>413.0</ele><time>2026-04-12T14:04:20.974Z</time></trkpt><trkpt lat="46.217048612619635" lon="12.287800439388961"><ele>418.0</ele><time>2026-04-12T14:04:21.974Z</time></trkpt><trkpt lat="46.216835062580984" lon="12.287924438110771"><ele>423.0</ele><time>2026-04-12T14:04:22.974Z</time></trkpt><trkpt lat="46.21662425164762" lon="12.288025184142056"><ele>416.66666666666663</ele><time>2026-04-12T14:04:23.974Z</time></trkpt><trkpt lat="46.216406955777785" lon="12.288101444948591"><ele>410.3333333333333</ele><time>2026-04-12T14:04:24.974Z</time></trkpt><trkpt lat="46.216201727747" lon="12.288163448614014"><ele>404.0</ele><time>2026-04-12T14:04:25.974Z</time></trkpt><trkpt lat="46.21599953531354" lon="12.288219918193999"><ele>404.0</ele><time>2026-04-12T14:04:26.974Z</time></trkpt><trkpt lat="46.21579470987382" lon="12.288257239683764"><ele>404.0</ele><time>2026-04-12T14:04:27.974Z</time></trkpt><trkpt lat="46.215586564429934" lon="12.288269994475522"><ele>404.0</ele><time>2026-04-12T14:04:28.974Z</time></trkpt><trkpt lat="46.21536838844122" lon="12.288253893684319"><ele>405.0</ele><time>2026-04-12T14:04:29.974Z</time></trkpt><trkpt lat="46.215137618838156" lon="12.288212631998185"><ele>406.0</ele><time>2026-04-12T14:04:30.974Z</time></trkpt><trkpt lat="46.21490070347178" lon="12.288177336651225"><ele>403.5</ele><time>2026-04-12T14:04:31.974Z</time></trkpt><trkpt lat="46.21464994542024" lon="12.288108472406407"><ele>401.0</ele><time>2026-04-12T14:04:32.974Z</time></trkpt><trkpt lat="46.214392740280246" lon="12.288010438534817"><ele>408.0</ele><time>2026-04-12T14:04:33.974Z</time></trkpt><trkpt lat="46.21412260352542" lon="12.287899337123276"><ele>415.0</ele><time>2026-04-12T14:04:34.974Z</time></trkpt><trkpt lat="46.213832536313205" lon="12.287783570176309"><ele>415.0</ele><time>2026-04-12T14:04:35.974Z</time></trkpt><trkpt lat="46.21355752137009" lon="12.28767114608793"><ele>415.0</ele><time>2026-04-12T14:04:36.974Z</time></trkpt><trkpt lat="46.21326200512909" lon="12.287548881527044"><ele>410.0</ele><time>2026-04-12T14:04:37.974Z</time></trkpt><trkpt lat="46.212985265668436" lon="12.287434385848712"><ele>405.0</ele><time>2026-04-12T14:04:38.974Z</time></trkpt><trkpt lat="46.21273493361677" lon="12.287331240387873"><ele>413.5</ele><time>2026-04-12T14:04:39.974Z</time></trkpt><trkpt lat="46.21250018893314" lon="12.287233741224798"><ele>422.0</ele><time>2026-04-12T14:04:40.974Z</time></trkpt><trkpt lat="46.212282419621886" lon="12.287142973879172"><ele>422.0</ele><time>2026-04-12T14:04:41.974Z</time></trkpt><trkpt lat="46.212078878512365" lon="12.287058452416101"><ele>422.0</ele><time>2026-04-12T14:04:42.974Z</time></trkpt><trkpt lat="46.21188487759891" lon="12.286978991788336"><ele>422.0</ele><time>2026-04-12T14:04:43.974Z</time></trkpt><trkpt lat="46.21169369109243" lon="12.286900684053467"><ele>422.0</ele><time>2026-04-12T14:04:44.974Z</time></trkpt><trkpt lat="46.21149484025673" lon="12.286835989206345"><ele>422.0</ele><time>2026-04-12T14:04:45.974Z</time></trkpt><trkpt lat="46.21129656300609" lon="12.286750503204173"><ele>422.0</ele><time>2026-04-12T14:04:46.974Z</time></trkpt><trkpt lat="46.21110656329664" lon="12.286664785287387"><ele>419.0</ele><time>2026-04-12T14:04:47.974Z</time></trkpt><trkpt lat="46.21091937257574" lon="12.286581625881047"><ele>416.0</ele><time>2026-04-12T14:04:48.974Z</time></trkpt><trkpt lat="46.21072331543466" lon="12.286499989831508"><ele>413.0</ele><time>2026-04-12T14:04:49.974Z</time></trkpt><trkpt lat="46.2105331153845" lon="12.286417121284618"><ele>413.0</ele><time>2026-04-12T14:04:50.974Z</time></trkpt><trkpt lat="46.2103479552774" lon="12.286337638268472"><ele>413.0</ele><time>2026-04-12T14:04:51.974Z</time></trkpt><trkpt lat="46.21015492441319" lon="12.286253325064886"><ele>413.0</ele><time>2026-04-12T14:04:52.974Z</time></trkpt><trkpt lat="46.20996287034353" lon="12.286186899458798"><ele>410.66666666666663</ele><time>2026-04-12T14:04:53.974Z</time></trkpt><trkpt lat="46.20977419662144" lon="12.286101543606177"><ele>408.33333333333337</ele><time>2026-04-12T14:04:54.974Z</time></trkpt><trkpt lat="46.209582706587" lon="12.28602629646863"><ele>406.0</ele><time>2026-04-12T14:04:55.974Z</time></trkpt><trkpt lat="46.20939533438541" lon="12.285948883727723"><ele>406.0</ele><time>2026-04-12T14:04:56.974Z</time></trkpt><trkpt lat="46.20920661962603" lon="12.285875900029945"><ele>406.0</ele><time>2026-04-12T14:04:57.974Z</time></trkpt><trkpt lat="46.20901037983061" lon="12.28580431229408"><ele>406.0</ele><time>2026-04-12T14:04:58.974Z</time></trkpt><trkpt lat="46.20881952159049" lon="12.285728409057619"><ele>407.0</ele><time>2026-04-12T14:04:59.974Z</time></trkpt><trkpt lat="46.208617316581375" lon="12.28567465170626"><ele>408.0</ele><time>2026-04-12T14:05:00.974Z</time></trkpt><trkpt lat="46.208409106245774" lon="12.285640366347936"><ele>409.0</ele><time>2026-04-12T14:05:01.974Z</time></trkpt><trkpt lat="46.20818195670718" lon="12.285600699623608"><ele>409.5</ele><time>2026-04-12T14:05:02.974Z</time></trkpt><trkpt lat="46.20794482868615" lon="12.285578114003808"><ele>410.0</ele><time>2026-04-12T14:05:03.974Z</time></trkpt><trkpt lat="46.20770152680072" lon="12.285562484863668"><ele>410.0</ele><time>2026-04-12T14:05:04.974Z</time></trkpt><trkpt lat="46.20746353009137" lon="12.28554812887251"><ele>410.0</ele><time>2026-04-12T14:05:05.974Z</time></trkpt><trkpt lat="46.20723614220811" lon="12.285550321926483"><ele>416.0</ele><time>2026-04-12T14:05:06.974Z</time></trkpt><trkpt lat="46.20698020046759" lon="12.285549430990368"><ele>422.0</ele><time>2026-04-12T14:05:07.975Z</time></trkpt><trkpt lat="46.206703672670706" lon="12.285561508497782"><ele>417.5</ele><time>2026-04-12T14:05:08.975Z</time></trkpt><trkpt lat="46.20642298064286" lon="12.285602447155519"><ele>413.0</ele><time>2026-04-12T14:05:09.975Z</time></trkpt><trkpt lat="46.206136786375176" lon="12.285638668945415"><ele>413.0</ele><time>2026-04-12T14:05:10.975Z</time></trkpt><trkpt lat="46.20589085862268" lon="12.285673089994955"><ele>413.0</ele><time>2026-04-12T14:05:11.975Z</time></trkpt><trkpt lat="46.2056748309227" lon="12.285692751043076"><ele>414.0</ele><time>2026-04-12T14:05:12.975Z</time></trkpt><trkpt lat="46.205464202394985" lon="12.285712872651906"><ele>415.0</ele><time>2026-04-12T14:05:13.975Z</time></trkpt><trkpt lat="46.205256511601455" lon="12.285729919931919"><ele>416.0</ele><time>2026-04-12T14:05:14.975Z</time></trkpt><trkpt lat="46.205054135957404" lon="12.285762589995478"><ele>416.0</ele><time>2026-04-12T14:05:15.975Z</time></trkpt><trkpt lat="46.20484780018951" lon="12.285783425459618"><ele>416.0</ele><time>2026-04-12T14:05:16.975Z</time></trkpt><trkpt lat="46.20464746908799" lon="12.285803267078727"><ele>416.0</ele><time>2026-04-12T14:05:17.975Z</time></trkpt><trkpt lat="46.204448289067464" lon="12.285823694932342"><ele>415.66666666666663</ele><time>2026-04-12T14:05:18.975Z</time></trkpt><trkpt lat="46.204252544695585" lon="12.285845195322263"><ele>415.33333333333337</ele><time>2026-04-12T14:05:19.975Z</time></trkpt><trkpt lat="46.204056316317924" lon="12.285857281395472"><ele>415.0</ele><time>2026-04-12T14:05:20.975Z</time></trkpt><trkpt lat="46.20385709552471" lon="12.285879787859722"><ele>416.0</ele><time>2026-04-12T14:05:21.975Z</time></trkpt><trkpt lat="46.20365278116504" lon="12.285900359981278"><ele>417.0</ele><time>2026-04-12T14:05:22.975Z</time></trkpt><trkpt lat="46.20344897200532" lon="12.285926018563021"><ele>418.0</ele><time>2026-04-12T14:05:23.975Z</time></trkpt><trkpt lat="46.203238480608505" lon="12.285966676253146"><ele>418.33333333333337</ele><time>2026-04-12T14:05:24.975Z</time></trkpt><trkpt lat="46.203032524864675" lon="12.286008800268778"><ele>418.66666666666663</ele><time>2026-04-12T14:05:25.975Z</time></trkpt><trkpt lat="46.20282634836489" lon="12.286059281325102"><ele>419.0</ele><time>2026-04-12T14:05:26.975Z</time></trkpt><trkpt lat="46.20261404604602" lon="12.286126600164827"><ele>419.0</ele><time>2026-04-12T14:05:27.975Z</time></trkpt><trkpt lat="46.202405972409515" lon="12.286190245374804"><ele>419.0</ele><time>2026-04-12T14:05:28.975Z</time></trkpt><trkpt lat="46.20219452946614" lon="12.286248240859084"><ele>419.0</ele><time>2026-04-12T14:05:29.975Z</time></trkpt><trkpt lat="46.20198533211555" lon="12.286303263298546"><ele>419.0</ele><time>2026-04-12T14:05:30.975Z</time></trkpt><trkpt lat="46.2017743630123" lon="12.2863465171269"><ele>419.0</ele><time>2026-04-12T14:05:31.975Z</time></trkpt><trkpt lat="46.20155770110015" lon="12.286379885924578"><ele>419.0</ele><time>2026-04-12T14:05:32.975Z</time></trkpt><trkpt lat="46.201344606647865" lon="12.286399543689017"><ele>419.0</ele><time>2026-04-12T14:05:33.975Z</time></trkpt><trkpt lat="46.20112825794068" lon="12.28641654994898"><ele>419.0</ele><time>2026-04-12T14:05:34.975Z</time></trkpt><trkpt lat="46.20091282500944" lon="12.286433103241082"><ele>419.0</ele><time>2026-04-12T14:05:35.975Z</time></trkpt><trkpt lat="46.20069570465301" lon="12.286446159783349"><ele>416.0</ele><time>2026-04-12T14:05:36.975Z</time></trkpt><trkpt lat="46.200476843254684" lon="12.286456144423427"><ele>413.0</ele><time>2026-04-12T14:05:37.975Z</time></trkpt><trkpt lat="46.20025509758006" lon="12.286479104577573"><ele>410.0</ele><time>2026-04-12T14:05:38.975Z</time></trkpt><trkpt lat="46.20003745754153" lon="12.286507463534747"><ele>410.3333333333333</ele><time>2026-04-12T14:05:39.975Z</time></trkpt><trkpt lat="46.1998174096331" lon="12.286494469879083"><ele>410.66666666666663</ele><time>2026-04-12T14:05:40.975Z</time></trkpt><trkpt lat="46.19960796725143" lon="12.286510437232154"><ele>411.0</ele><time>2026-04-12T14:05:41.975Z</time></trkpt><trkpt lat="46.19942084658723" lon="12.28654471429543"><ele>411.0</ele><time>2026-04-12T14:05:42.975Z</time></trkpt><trkpt lat="46.19923994673714" lon="12.286555106234825"><ele>411.0</ele><time>2026-04-12T14:05:43.975Z</time></trkpt><trkpt lat="46.19906582396189" lon="12.28656253298496"><ele>411.0</ele><time>2026-04-12T14:05:44.975Z</time></trkpt><trkpt lat="46.198888280906935" lon="12.286576198552163"><ele>409.33333333333337</ele><time>2026-04-12T14:05:45.975Z</time></trkpt><trkpt lat="46.19870766782113" lon="12.286593137468778"><ele>407.6666666666667</ele><time>2026-04-12T14:05:46.975Z</time></trkpt><trkpt lat="46.198526679121194" lon="12.286606786293435"><ele>406.0</ele><time>2026-04-12T14:05:47.975Z</time></trkpt><trkpt lat="46.19833768013846" lon="12.286612326817382"><ele>406.0</ele><time>2026-04-12T14:05:48.975Z</time></trkpt><trkpt lat="46.19814735805637" lon="12.286629117359398"><ele>406.0</ele><time>2026-04-12T14:05:49.975Z</time></trkpt><trkpt lat="46.19795366749249" lon="12.286642400234145"><ele>406.0</ele><time>2026-04-12T14:05:50.975Z</time></trkpt><trkpt lat="46.197755972368576" lon="12.286660278386462"><ele>406.0</ele><time>2026-04-12T14:05:51.975Z</time></trkpt><trkpt lat="46.19756047507123" lon="12.286674258313335"><ele>406.0</ele><time>2026-04-12T14:05:52.975Z</time></trkpt><trkpt lat="46.19736381870974" lon="12.286693693242201"><ele>406.0</ele><time>2026-04-12T14:05:53.975Z</time></trkpt><trkpt lat="46.19717517329619" lon="12.286710003830507"><ele>407.0</ele><time>2026-04-12T14:05:54.975Z</time></trkpt><trkpt lat="46.19699513886536" lon="12.28672320900058"><ele>408.0</ele><time>2026-04-12T14:05:55.975Z</time></trkpt><trkpt lat="46.19682561593014" lon="12.286712286651607"><ele>409.0</ele><time>2026-04-12T14:05:56.975Z</time></trkpt><trkpt lat="46.196665998278974" lon="12.286724283181222"><ele>409.0</ele><time>2026-04-12T14:05:57.975Z</time></trkpt><trkpt lat="46.196509048661426" lon="12.286736079173595"><ele>409.0</ele><time>2026-04-12T14:05:58.975Z</time></trkpt><trkpt lat="46.196359803033275" lon="12.286747478138675"><ele>409.0</ele><time>2026-04-12T14:05:59.975Z</time></trkpt><trkpt lat="46.19621900291542" lon="12.286780751398698"><ele>409.0</ele><time>2026-04-12T14:06:00.975Z</time></trkpt><trkpt lat="46.196085519447486" lon="12.286782707004622"><ele>410.0</ele><time>2026-04-12T14:06:01.975Z</time></trkpt><trkpt lat="46.19594657820249" lon="12.286788754629656"><ele>411.0</ele><time>2026-04-12T14:06:02.975Z</time></trkpt><trkpt lat="46.195812996054066" lon="12.28679894486181"><ele>412.0</ele><time>2026-04-12T14:06:03.975Z</time></trkpt><trkpt lat="46.19568001934227" lon="12.28680923388571"><ele>413.0</ele><time>2026-04-12T14:06:04.975Z</time></trkpt><trkpt lat="46.195540270835906" lon="12.286824153778142"><ele>413.0</ele><time>2026-04-12T14:06:05.975Z</time></trkpt><trkpt lat="46.19539682133726" lon="12.286828351273426"><ele>413.0</ele><time>2026-04-12T14:06:06.975Z</time></trkpt><trkpt lat="46.195250548724744" lon="12.286812749796136"><ele>413.0</ele><time>2026-04-12T14:06:07.975Z</time></trkpt><trkpt lat="46.19511678512825" lon="12.286830669959496"><ele>413.0</ele><time>2026-04-12T14:06:08.975Z</time></trkpt><trkpt lat="46.19499983854278" lon="12.286826636670293"><ele>413.0</ele><time>2026-04-12T14:06:09.975Z</time></trkpt><trkpt lat="46.19488778720109" lon="12.286816624842254"><ele>413.0</ele><time>2026-04-12T14:06:10.975Z</time></trkpt><trkpt lat="46.19477981471556" lon="12.286809681276553"><ele>413.0</ele><time>2026-04-12T14:06:11.975Z</time></trkpt><trkpt lat="46.19468527677323" lon="12.286811947988314"><ele>413.0</ele><time>2026-04-12T14:06:12.975Z</time></trkpt><trkpt lat="46.19458046608483" lon="12.286803210302198"><ele>413.0</ele><time>2026-04-12T14:06:13.975Z</time></trkpt><trkpt lat="46.19449562864297" lon="12.286793922721268"><ele>412.49999999999994</ele><time>2026-04-12T14:06:14.975Z</time></trkpt><trkpt lat="46.19440408620922" lon="12.286796701507784"><ele>412.0</ele><time>2026-04-12T14:06:15.975Z</time></trkpt><trkpt lat="46.194318907908794" lon="12.286789941176611"><ele>411.5</ele><time>2026-04-12T14:06:16.975Z</time></trkpt><trkpt lat="46.194241629974215" lon="12.286763122693316"><ele>411.0</ele><time>2026-04-12T14:06:17.975Z</time></trkpt><trkpt lat="46.194172110259174" lon="12.28671086243097"><ele>410.49999999999994</ele><time>2026-04-12T14:06:18.975Z</time></trkpt><trkpt lat="46.19410200093173" lon="12.286645908970957"><ele>410.0</ele><time>2026-04-12T14:06:19.975Z</time></trkpt><trkpt lat="46.19402431214629" lon="12.286635573428871"><ele>410.6</ele><time>2026-04-12T14:06:20.975Z</time></trkpt><trkpt lat="46.19393364292436" lon="12.28669687155203"><ele>411.2</ele><time>2026-04-12T14:06:21.975Z</time></trkpt><trkpt lat="46.193839192542285" lon="12.286762220841572"><ele>411.79999999999995</ele><time>2026-04-12T14:06:22.975Z</time></trkpt><trkpt lat="46.19372773061165" lon="12.28677735817472"><ele>412.4</ele><time>2026-04-12T14:06:23.975Z</time></trkpt><trkpt lat="46.19363163166097" lon="12.286762850972858"><ele>413.0</ele><time>2026-04-12T14:06:24.975Z</time></trkpt><trkpt lat="46.193536031461214" lon="12.286744130848682"><ele>413.0</ele><time>2026-04-12T14:06:25.975Z</time></trkpt><trkpt lat="46.19343298814941" lon="12.286739159918419"><ele>413.0</ele><time>2026-04-12T14:06:26.975Z</time></trkpt><trkpt lat="46.19331932966466" lon="12.286738263022988"><ele>413.0</ele><time>2026-04-12T14:06:27.975Z</time></trkpt><trkpt lat="46.19320140092631" lon="12.286733877688759"><ele>413.0</ele><time>2026-04-12T14:06:28.975Z</time></trkpt><trkpt lat="46.193093886874166" lon="12.286731206856208"><ele>413.0</ele><time>2026-04-12T14:06:29.975Z</time></trkpt><trkpt lat="46.19297766983794" lon="12.286727165523567"><ele>412.25</ele><time>2026-04-12T14:06:30.975Z</time></trkpt><trkpt lat="46.19283504433761" lon="12.286722653860902"><ele>411.5</ele><time>2026-04-12T14:06:31.975Z</time></trkpt><trkpt lat="46.19268839343656" lon="12.286692426873616"><ele>410.75</ele><time>2026-04-12T14:06:32.975Z</time></trkpt><trkpt lat="46.19253729029207" lon="12.286685661577115"><ele>410.0</ele><time>2026-04-12T14:06:33.975Z</time></trkpt><trkpt lat="46.192386194734475" lon="12.286701297093186"><ele>409.75</ele><time>2026-04-12T14:06:34.975Z</time></trkpt><trkpt lat="46.19224693510687" lon="12.286685458316207"><ele>409.5</ele><time>2026-04-12T14:06:35.975Z</time></trkpt><trkpt lat="46.192112634238825" lon="12.286667572174228"><ele>409.25</ele><time>2026-04-12T14:06:36.975Z</time></trkpt><trkpt lat="46.191990622430566" lon="12.286656537782644"><ele>409.0</ele><time>2026-04-12T14:06:37.975Z</time></trkpt><trkpt lat="46.191865725057006" lon="12.286655929188159"><ele>409.0</ele><time>2026-04-12T14:06:38.975Z</time></trkpt><trkpt lat="46.1917316662284" lon="12.286660330835018"><ele>409.0</ele><time>2026-04-12T14:06:39.975Z</time></trkpt><trkpt lat="46.19159006143325" lon="12.286651706227259"><ele>409.0</ele><time>2026-04-12T14:06:40.975Z</time></trkpt><trkpt lat="46.19144801340515" lon="12.286639555693883"><ele>409.0</ele><time>2026-04-12T14:06:41.975Z</time></trkpt><trkpt lat="46.191303564425425" lon="12.286627879990661"><ele>408.75</ele><time>2026-04-12T14:06:42.975Z</time></trkpt><trkpt lat="46.1911469774251" lon="12.286621573883481"><ele>408.5</ele><time>2026-04-12T14:06:43.975Z</time></trkpt><trkpt lat="46.19099778684412" lon="12.286610458053485"><ele>408.25</ele><time>2026-04-12T14:06:44.975Z</time></trkpt><trkpt lat="46.19086157302389" lon="12.286597181977392"><ele>408.0</ele><time>2026-04-12T14:06:45.975Z</time></trkpt><trkpt lat="46.19074357034734" lon="12.286591213910423"><ele>407.75</ele><time>2026-04-12T14:06:46.975Z</time></trkpt><trkpt lat="46.190623017245876" lon="12.286589566593507"><ele>407.5</ele><time>2026-04-12T14:06:47.975Z</time></trkpt><trkpt lat="46.190499176708954" lon="12.286592372009272"><ele>407.25</ele><time>2026-04-12T14:06:48.975Z</time></trkpt><trkpt lat="46.19038336709614" lon="12.286587674595763"><ele>407.0</ele><time>2026-04-12T14:06:49.975Z</time></trkpt><trkpt lat="46.19025415896057" lon="12.286578258646479"><ele>407.0</ele><time>2026-04-12T14:06:50.975Z</time></trkpt><trkpt lat="46.19012992874584" lon="12.286571921946681"><ele>407.0</ele><time>2026-04-12T14:06:51.975Z</time></trkpt><trkpt lat="46.19000360352256" lon="12.28657021517215"><ele>407.0</ele><time>2026-04-12T14:06:52.975Z</time></trkpt><trkpt lat="46.189876588998345" lon="12.286563090277594"><ele>407.0</ele><time>2026-04-12T14:06:53.975Z</time></trkpt><trkpt lat="46.18974877497734" lon="12.286550645549248"><ele>406.75</ele><time>2026-04-12T14:06:54.975Z</time></trkpt><trkpt lat="46.189619945140365" lon="12.286538600186327"><ele>406.5</ele><time>2026-04-12T14:06:55.975Z</time></trkpt><trkpt lat="46.18949668513179" lon="12.286530511704163"><ele>406.25</ele><time>2026-04-12T14:06:56.975Z</time></trkpt><trkpt lat="46.18938459986254" lon="12.28651840046706"><ele>406.0</ele><time>2026-04-12T14:06:57.975Z</time></trkpt><trkpt lat="46.189274145570344" lon="12.286510380631915"><ele>406.0</ele><time>2026-04-12T14:06:58.975Z</time></trkpt><trkpt lat="46.18916280377971" lon="12.286502623204058"><ele>406.0</ele><time>2026-04-12T14:06:59.975Z</time></trkpt><trkpt lat="46.18905839091171" lon="12.286495822125516"><ele>406.0</ele><time>2026-04-12T14:07:00.975Z</time></trkpt><trkpt lat="46.188947713465936" lon="12.286475506246704"><ele>406.0</ele><time>2026-04-12T14:07:01.975Z</time></trkpt><trkpt lat="46.18881881526669" lon="12.286445269849708"><ele>405.6666666666667</ele><time>2026-04-12T14:07:02.975Z</time></trkpt><trkpt lat="46.18867334549044" lon="12.286397627672184"><ele>405.33333333333337</ele><time>2026-04-12T14:07:03.975Z</time></trkpt><trkpt lat="46.188498234304795" lon="12.286337549444521"><ele>405.0</ele><time>2026-04-12T14:07:04.975Z</time></trkpt><trkpt lat="46.18833871169986" lon="12.286288468524269"><ele>405.0</ele><time>2026-04-12T14:07:05.975Z</time></trkpt><trkpt lat="46.188188847541156" lon="12.28624387075574"><ele>405.0</ele><time>2026-04-12T14:07:06.975Z</time></trkpt><trkpt lat="46.18802237425103" lon="12.2862043485387"><ele>405.0</ele><time>2026-04-12T14:07:07.975Z</time></trkpt><trkpt lat="46.18789500874729" lon="12.286149467712534"><ele>405.0</ele><time>2026-04-12T14:07:08.975Z</time></trkpt><trkpt lat="46.187730967841475" lon="12.286091757172253"><ele>405.0</ele><time>2026-04-12T14:07:09.975Z</time></trkpt><trkpt lat="46.18756901765779" lon="12.286048612976073"><ele>405.0</ele><time>2026-04-12T14:07:10.975Z</time></trkpt><trkpt lat="46.187415826842134" lon="12.286011559036154"><ele>404.66666666666663</ele><time>2026-04-12T14:07:11.975Z</time></trkpt><trkpt lat="46.18726115025306" lon="12.2859721528697"><ele>404.3333333333333</ele><time>2026-04-12T14:07:12.975Z</time></trkpt><trkpt lat="46.18711144330611" lon="12.285931675253185"><ele>404.0</ele><time>2026-04-12T14:07:13.976Z</time></trkpt><trkpt lat="46.18696033052602" lon="12.285890246400532"><ele>404.0</ele><time>2026-04-12T14:07:14.976Z</time></trkpt><trkpt lat="46.186812328984104" lon="12.285854555327239"><ele>404.0</ele><time>2026-04-12T14:07:15.976Z</time></trkpt><trkpt lat="46.186667790721394" lon="12.285805326042642"><ele>404.0</ele><time>2026-04-12T14:07:16.976Z</time></trkpt><trkpt lat="46.18652211137248" lon="12.285752134470217"><ele>404.0</ele><time>2026-04-12T14:07:17.976Z</time></trkpt><trkpt lat="46.186378991647075" lon="12.285716009712196"><ele>403.75</ele><time>2026-04-12T14:07:18.976Z</time></trkpt><trkpt lat="46.18622924471323" lon="12.285674721067927"><ele>403.5</ele><time>2026-04-12T14:07:19.976Z</time></trkpt><trkpt lat="46.18608251216084" lon="12.285630786863523"><ele>403.25</ele><time>2026-04-12T14:07:20.976Z</time></trkpt><trkpt lat="46.18594843875599" lon="12.28558404174885"><ele>403.0</ele><time>2026-04-12T14:07:21.976Z</time></trkpt><trkpt lat="46.18581635143782" lon="12.285543870652912"><ele>403.0</ele><time>2026-04-12T14:07:22.976Z</time></trkpt><trkpt lat="46.18568451338783" lon="12.285514253204484"><ele>403.0</ele><time>2026-04-12T14:07:23.976Z</time></trkpt><trkpt lat="46.185547010370456" lon="12.285448816253222"><ele>403.0</ele><time>2026-04-12T14:07:24.976Z</time></trkpt><trkpt lat="46.185407183372995" lon="12.285406637265565"><ele>403.0</ele><time>2026-04-12T14:07:25.976Z</time></trkpt><trkpt lat="46.18527090407719" lon="12.285365526326633"><ele>402.75</ele><time>2026-04-12T14:07:26.976Z</time></trkpt><trkpt lat="46.185137216034995" lon="12.285325691971968"><ele>402.5</ele><time>2026-04-12T14:07:27.976Z</time></trkpt><trkpt lat="46.18500520670423" lon="12.285286852709328"><ele>402.25</ele><time>2026-04-12T14:07:28.976Z</time></trkpt><trkpt lat="46.18486368482221" lon="12.285265249574495"><ele>402.0</ele><time>2026-04-12T14:07:29.976Z</time></trkpt><trkpt lat="46.18471680854709" lon="12.285202086518966"><ele>402.0</ele><time>2026-04-12T14:07:30.976Z</time></trkpt><trkpt lat="46.18455712416262" lon="12.285204611078752"><ele>402.0</ele><time>2026-04-12T14:07:31.976Z</time></trkpt><trkpt lat="46.184441110861535" lon="12.285145199692574"><ele>402.0</ele><time>2026-04-12T14:07:32.976Z</time></trkpt><trkpt lat="46.18431368073838" lon="12.285087660053167"><ele>402.0</ele><time>2026-04-12T14:07:33.976Z</time></trkpt><trkpt lat="46.18419441319453" lon="12.28505828372061"><ele>402.0</ele><time>2026-04-12T14:07:34.976Z</time></trkpt><trkpt lat="46.18408362094622" lon="12.28503743005887"><ele>402.0</ele><time>2026-04-12T14:07:35.976Z</time></trkpt><trkpt lat="46.18397820911936" lon="12.284998244686008"><ele>402.0</ele><time>2026-04-12T14:07:36.976Z</time></trkpt><trkpt lat="46.18385443265844" lon="12.284953985014191"><ele>402.0</ele><time>2026-04-12T14:07:37.976Z</time></trkpt><trkpt lat="46.183731561892756" lon="12.284921257067941"><ele>402.5</ele><time>2026-04-12T14:07:38.976Z</time></trkpt><trkpt lat="46.18360528705419" lon="12.284878941533666"><ele>403.0</ele><time>2026-04-12T14:07:39.976Z</time></trkpt><trkpt lat="46.18347380178078" lon="12.28483528337266"><ele>403.5</ele><time>2026-04-12T14:07:40.976Z</time></trkpt><trkpt lat="46.183341856319494" lon="12.284808641271196"><ele>404.0</ele><time>2026-04-12T14:07:41.976Z</time></trkpt><trkpt lat="46.183215420161034" lon="12.284770471513344"><ele>403.25</ele><time>2026-04-12T14:07:42.976Z</time></trkpt><trkpt lat="46.18308918976082" lon="12.284732783202802"><ele>402.5</ele><time>2026-04-12T14:07:43.976Z</time></trkpt><trkpt lat="46.18297285851313" lon="12.284690602436685"><ele>401.75</ele><time>2026-04-12T14:07:44.976Z</time></trkpt><trkpt lat="46.18286072020149" lon="12.284648627426645"><ele>401.0</ele><time>2026-04-12T14:07:45.976Z</time></trkpt><trkpt lat="46.18274650072291" lon="12.284607580126368"><ele>401.0</ele><time>2026-04-12T14:07:46.976Z</time></trkpt><trkpt lat="46.18263201970897" lon="12.284569142894366"><ele>401.0</ele><time>2026-04-12T14:07:47.976Z</time></trkpt><trkpt lat="46.1825070487107" lon="12.28452967946112"><ele>401.0</ele><time>2026-04-12T14:07:48.976Z</time></trkpt><trkpt lat="46.182375224218916" lon="12.284501290186697"><ele>401.0</ele><time>2026-04-12T14:07:49.976Z</time></trkpt><trkpt lat="46.182241583656236" lon="12.28446452124305"><ele>400.75</ele><time>2026-04-12T14:07:50.976Z</time></trkpt><trkpt lat="46.182120609454635" lon="12.284422640872958"><ele>400.5</ele><time>2026-04-12T14:07:51.976Z</time></trkpt><trkpt lat="46.18200450848702" lon="12.284383719885186"><ele>400.25</ele><time>2026-04-12T14:07:52.976Z</time></trkpt><trkpt lat="46.18189394819237" lon="12.284352997711252"><ele>400.0</ele><time>2026-04-12T14:07:53.976Z</time></trkpt><trkpt lat="46.18178197499423" lon="12.284321826219312"><ele>400.0</ele><time>2026-04-12T14:07:54.976Z</time></trkpt><trkpt lat="46.18167081307935" lon="12.284287209788666"><ele>400.0</ele><time>2026-04-12T14:07:55.976Z</time></trkpt><trkpt lat="46.18154521768551" lon="12.284253063077534"><ele>400.0</ele><time>2026-04-12T14:07:56.976Z</time></trkpt><trkpt lat="46.18142814966875" lon="12.284220385529187"><ele>400.0</ele><time>2026-04-12T14:07:57.976Z</time></trkpt><trkpt lat="46.18132296076038" lon="12.284195470959382"><ele>400.2</ele><time>2026-04-12T14:07:58.976Z</time></trkpt><trkpt lat="46.181222956432954" lon="12.28416583314409"><ele>400.4</ele><time>2026-04-12T14:07:59.976Z</time></trkpt><trkpt lat="46.18113011284555" lon="12.284140953670228"><ele>400.6</ele><time>2026-04-12T14:08:00.976Z</time></trkpt><trkpt lat="46.181038445119675" lon="12.284109867336143"><ele>400.8</ele><time>2026-04-12T14:08:01.976Z</time></trkpt><trkpt lat="46.18094530506171" lon="12.28408153589569"><ele>401.0</ele><time>2026-04-12T14:08:02.976Z</time></trkpt><trkpt lat="46.180862968953235" lon="12.284058852102913"><ele>401.0</ele><time>2026-04-12T14:08:03.976Z</time></trkpt><trkpt lat="46.18077844275228" lon="12.284029174080137"><ele>401.0</ele><time>2026-04-12T14:08:04.976Z</time></trkpt><trkpt lat="46.1806771581838" lon="12.283989169721282"><ele>401.0</ele><time>2026-04-12T14:08:05.976Z</time></trkpt><trkpt lat="46.18055861882332" lon="12.283955401846322"><ele>401.0</ele><time>2026-04-12T14:08:06.976Z</time></trkpt><trkpt lat="46.18043646459212" lon="12.283919151587428"><ele>401.0</ele><time>2026-04-12T14:08:07.976Z</time></trkpt><trkpt lat="46.18033408338887" lon="12.283891823594532"><ele>400.99999999999994</ele><time>2026-04-12T14:08:08.976Z</time></trkpt><trkpt lat="46.180235950868266" lon="12.28386246646178"><ele>401.0</ele><time>2026-04-12T14:08:09.976Z</time></trkpt><trkpt lat="46.18014399529865" lon="12.283832629060843"><ele>401.0</ele><time>2026-04-12T14:08:10.976Z</time></trkpt><trkpt lat="46.1800833663193" lon="12.28380372666458"><ele>401.0</ele><time>2026-04-12T14:08:11.976Z</time></trkpt><trkpt lat="46.18001274452893" lon="12.283779934219869"><ele>400.99999999999994</ele><time>2026-04-12T14:08:13.976Z</time></trkpt><trkpt lat="46.17993601581427" lon="12.283754085130392"><ele>401.0</ele><time>2026-04-12T14:08:17.976Z</time></trkpt><trkpt lat="46.17986590980939" lon="12.283711382215747"><ele>400.99999999999994</ele><time>2026-04-12T14:08:21.976Z</time></trkpt><trkpt lat="46.17980114926525" lon="12.283593151538163"><ele>401.0</ele><time>2026-04-12T14:08:23.976Z</time></trkpt><trkpt lat="46.17977617678424" lon="12.283491774506754"><ele>401.0</ele><time>2026-04-12T14:08:24.976Z</time></trkpt><trkpt lat="46.17973968628655" lon="12.283403937715875"><ele>401.0</ele><time>2026-04-12T14:08:25.976Z</time></trkpt><trkpt lat="46.17967994022185" lon="12.283340344398281"><ele>400.99999999999994</ele><time>2026-04-12T14:08:26.976Z</time></trkpt><trkpt lat="46.17959812130236" lon="12.283324468751474"><ele>401.0</ele><time>2026-04-12T14:08:27.976Z</time></trkpt><trkpt lat="46.179531778123014" lon="12.283372086805478"><ele>401.0</ele><time>2026-04-12T14:08:28.976Z</time></trkpt><trkpt lat="46.17944949609497" lon="12.28348459156999"><ele>401.0</ele><time>2026-04-12T14:08:29.976Z</time></trkpt><trkpt lat="46.17937063622966" lon="12.28360348684347"><ele>401.0</ele><time>2026-04-12T14:08:30.976Z</time></trkpt><trkpt lat="46.17925773122042" lon="12.283611643250929"><ele>401.0</ele><time>2026-04-12T14:08:31.976Z</time></trkpt><trkpt lat="46.179122456807356" lon="12.283596587295452"><ele>400.3333333333333</ele><time>2026-04-12T14:08:32.976Z</time></trkpt><trkpt lat="46.178894846467976" lon="12.283578531150095"><ele>399.66666666666663</ele><time>2026-04-12T14:08:33.976Z</time></trkpt><trkpt lat="46.17870366463769" lon="12.283568726749012"><ele>399.0</ele><time>2026-04-12T14:08:34.976Z</time></trkpt><trkpt lat="46.17854869286431" lon="12.283555437937734"><ele>399.0</ele><time>2026-04-12T14:08:35.976Z</time></trkpt><trkpt lat="46.17840658907634" lon="12.283537080919633"><ele>399.0</ele><time>2026-04-12T14:08:36.976Z</time></trkpt><trkpt lat="46.178288670509836" lon="12.283521527092736"><ele>399.0</ele><time>2026-04-12T14:08:37.976Z</time></trkpt><trkpt lat="46.17819179938817" lon="12.283511729829819"><ele>399.0</ele><time>2026-04-12T14:08:38.976Z</time></trkpt><trkpt lat="46.17809456823852" lon="12.28349815336837"><ele>399.0</ele><time>2026-04-12T14:08:39.976Z</time></trkpt><trkpt lat="46.17800214759442" lon="12.283486855227693"><ele>399.0</ele><time>2026-04-12T14:08:40.976Z</time></trkpt><trkpt lat="46.17790226988681" lon="12.283475328625377"><ele>399.0</ele><time>2026-04-12T14:08:41.976Z</time></trkpt><trkpt lat="46.17778274230278" lon="12.283465172669423"><ele>399.0</ele><time>2026-04-12T14:08:42.976Z</time></trkpt><trkpt lat="46.17765290186009" lon="12.283449957007516"><ele>399.0</ele><time>2026-04-12T14:08:43.976Z</time></trkpt><trkpt lat="46.1775192502003" lon="12.283439261389548"><ele>399.0</ele><time>2026-04-12T14:08:44.976Z</time></trkpt><trkpt lat="46.17736618822739" lon="12.2834146523813"><ele>399.0</ele><time>2026-04-12T14:08:45.976Z</time></trkpt><trkpt lat="46.17718017657686" lon="12.283392354060155"><ele>399.0</ele><time>2026-04-12T14:08:46.976Z</time></trkpt><trkpt lat="46.17701011884471" lon="12.283380197734878"><ele>396.66666666666663</ele><time>2026-04-12T14:08:47.976Z</time></trkpt><trkpt lat="46.176855158818185" lon="12.283372046301121"><ele>394.3333333333333</ele><time>2026-04-12T14:08:48.976Z</time></trkpt><trkpt lat="46.176711811530716" lon="12.283355141622877"><ele>392.0</ele><time>2026-04-12T14:08:49.976Z</time></trkpt><trkpt lat="46.17655811017469" lon="12.283334262738272"><ele>394.0</ele><time>2026-04-12T14:08:50.976Z</time></trkpt><trkpt lat="46.17639976839149" lon="12.283322322692255"><ele>396.0</ele><time>2026-04-12T14:08:51.976Z</time></trkpt><trkpt lat="46.17624896818169" lon="12.283328036286187"><ele>398.0</ele><time>2026-04-12T14:08:52.976Z</time></trkpt><trkpt lat="46.17610633198639" lon="12.283348004555773"><ele>398.0</ele><time>2026-04-12T14:08:53.976Z</time></trkpt><trkpt lat="46.17597288370203" lon="12.28338488262957"><ele>398.0</ele><time>2026-04-12T14:08:54.976Z</time></trkpt><trkpt lat="46.17584913342501" lon="12.283435170938814"><ele>398.0</ele><time>2026-04-12T14:08:55.976Z</time></trkpt><trkpt lat="46.17572761313029" lon="12.283473598658121"><ele>398.0</ele><time>2026-04-12T14:08:56.976Z</time></trkpt><trkpt lat="46.175614198390505" lon="12.283509808527489"><ele>398.4</ele><time>2026-04-12T14:08:57.976Z</time></trkpt><trkpt lat="46.17551048284436" lon="12.283547004989178"><ele>398.79999999999995</ele><time>2026-04-12T14:08:58.976Z</time></trkpt><trkpt lat="46.17540795158517" lon="12.283582485519172"><ele>399.2</ele><time>2026-04-12T14:08:59.976Z</time></trkpt><trkpt lat="46.17532782385955" lon="12.283601230417286"><ele>399.6</ele><time>2026-04-12T14:09:00.976Z</time></trkpt><trkpt lat="46.17524118719009" lon="12.283628092548547"><ele>400.0</ele><time>2026-04-12T14:09:01.976Z</time></trkpt><trkpt lat="46.175154157897744" lon="12.283644217014523"><ele>400.0</ele><time>2026-04-12T14:09:02.976Z</time></trkpt><trkpt lat="46.17506477955991" lon="12.283669010008646"><ele>400.0</ele><time>2026-04-12T14:09:03.976Z</time></trkpt><trkpt lat="46.17497482719813" lon="12.283673583388438"><ele>400.0</ele><time>2026-04-12T14:09:04.976Z</time></trkpt><trkpt lat="46.17485992504063" lon="12.283664841055698"><ele>400.0</ele><time>2026-04-12T14:09:05.976Z</time></trkpt><trkpt lat="46.17473200350621" lon="12.283642466000533"><ele>400.0</ele><time>2026-04-12T14:09:06.976Z</time></trkpt><trkpt lat="46.174573269719204" lon="12.283617092212474"><ele>399.6</ele><time>2026-04-12T14:09:07.976Z</time></trkpt><trkpt lat="46.17444425478207" lon="12.283564458301893"><ele>399.2</ele><time>2026-04-12T14:09:08.976Z</time></trkpt><trkpt lat="46.17437821444093" lon="12.283527301506506"><ele>398.79999999999995</ele><time>2026-04-12T14:09:09.976Z</time></trkpt><trkpt lat="46.174265908919175" lon="12.283549162234724"><ele>398.4</ele><time>2026-04-12T14:09:10.976Z</time></trkpt><trkpt lat="46.17416439147694" lon="12.283581896111757"><ele>398.0</ele><time>2026-04-12T14:09:11.976Z</time></trkpt><trkpt lat="46.17406710840531" lon="12.283612436247394"><ele>396.0</ele><time>2026-04-12T14:09:12.976Z</time></trkpt><trkpt lat="46.17398818151775" lon="12.28363927769798"><ele>394.0</ele><time>2026-04-12T14:09:13.976Z</time></trkpt><trkpt lat="46.17389145885612" lon="12.28368242395996"><ele>392.0</ele><time>2026-04-12T14:09:14.976Z</time></trkpt><trkpt lat="46.17378440103031" lon="12.283780790618717"><ele>390.0</ele><time>2026-04-12T14:09:15.976Z</time></trkpt><trkpt lat="46.17369057945192" lon="12.283889451988438"><ele>388.0</ele><time>2026-04-12T14:09:16.976Z</time></trkpt><trkpt lat="46.173591217347514" lon="12.283990391015555"><ele>388.0</ele><time>2026-04-12T14:09:17.976Z</time></trkpt><trkpt lat="46.17350213473151" lon="12.284087214296825"><ele>388.0</ele><time>2026-04-12T14:09:18.976Z</time></trkpt><trkpt lat="46.173393573485924" lon="12.284118040895722"><ele>388.0</ele><time>2026-04-12T14:09:19.977Z</time></trkpt><trkpt lat="46.17330297267513" lon="12.284134337611823"><ele>388.0</ele><time>2026-04-12T14:09:20.977Z</time></trkpt><trkpt lat="46.17322551240687" lon="12.284071699995586"><ele>388.0</ele><time>2026-04-12T14:09:21.977Z</time></trkpt><trkpt lat="46.173174594542154" lon="12.283960722043227"><ele>386.1666666666667</ele><time>2026-04-12T14:09:22.977Z</time></trkpt><trkpt lat="46.17311497629544" lon="12.28385086220024"><ele>384.33333333333337</ele><time>2026-04-12T14:09:23.977Z</time></trkpt><trkpt lat="46.17306247300182" lon="12.28374216397213"><ele>382.5</ele><time>2026-04-12T14:09:24.977Z</time></trkpt><trkpt lat="46.173026696639226" lon="12.283621894536779"><ele>380.6666666666667</ele><time>2026-04-12T14:09:25.977Z</time></trkpt><trkpt lat="46.17299756053212" lon="12.283522769111148"><ele>378.83333333333337</ele><time>2026-04-12T14:09:26.977Z</time></trkpt><trkpt lat="46.17297801053706" lon="12.283431660455795"><ele>377.0</ele><time>2026-04-12T14:09:27.977Z</time></trkpt><trkpt lat="46.172920201198245" lon="12.283346224974132"><ele>377.0</ele><time>2026-04-12T14:09:28.977Z</time></trkpt><trkpt lat="46.17284919892163" lon="12.28331513463668"><ele>377.0</ele><time>2026-04-12T14:09:29.977Z</time></trkpt><trkpt lat="46.172759421832176" lon="12.283342773836479"><ele>377.0</ele><time>2026-04-12T14:09:30.977Z</time></trkpt><trkpt lat="46.17267081257014" lon="12.283383149023201"><ele>377.0</ele><time>2026-04-12T14:09:31.977Z</time></trkpt><trkpt lat="46.17257418764295" lon="12.283410725151118"><ele>377.0</ele><time>2026-04-12T14:09:32.977Z</time></trkpt><trkpt lat="46.17248097900209" lon="12.28343359543565"><ele>377.0</ele><time>2026-04-12T14:09:33.977Z</time></trkpt><trkpt lat="46.17240197714388" lon="12.283445551004384"><ele>377.0</ele><time>2026-04-12T14:09:34.977Z</time></trkpt><trkpt lat="46.17233395004892" lon="12.283452976059367"><ele>377.0</ele><time>2026-04-12T14:09:36.977Z</time></trkpt><trkpt lat="46.172261405444985" lon="12.283391095407415"><ele>377.0</ele><time>2026-04-12T14:09:40.977Z</time></trkpt><trkpt lat="46.17221462433679" lon="12.283308762812123"><ele>377.0</ele><time>2026-04-12T14:09:41.977Z</time></trkpt><trkpt lat="46.1721799415549" lon="12.283211299180806"><ele>377.0</ele><time>2026-04-12T14:09:42.977Z</time></trkpt><trkpt lat="46.172131689758686" lon="12.283015771131819"><ele>380.25</ele><time>2026-04-12T14:09:44.977Z</time></trkpt><trkpt lat="46.17214149214505" lon="12.282903611957579"><ele>383.5</ele><time>2026-04-12T14:09:45.977Z</time></trkpt><trkpt lat="46.17211399500918" lon="12.282717047982096"><ele>386.75</ele><time>2026-04-12T14:09:46.977Z</time></trkpt><trkpt lat="46.172075571304745" lon="12.282454474531812"><ele>390.0</ele><time>2026-04-12T14:09:47.977Z</time></trkpt><trkpt lat="46.17204615849909" lon="12.282207420109462"><ele>390.0</ele><time>2026-04-12T14:09:48.977Z</time></trkpt><trkpt lat="46.17202616301687" lon="12.281985646250316"><ele>390.0</ele><time>2026-04-12T14:09:49.977Z</time></trkpt><trkpt lat="46.17201624812137" lon="12.28173867340872"><ele>390.0</ele><time>2026-04-12T14:09:50.977Z</time></trkpt><trkpt lat="46.17199397603932" lon="12.281481930100716"><ele>389.33333333333337</ele><time>2026-04-12T14:09:51.977Z</time></trkpt><trkpt lat="46.17196807341911" lon="12.281191512045208"><ele>388.6666666666667</ele><time>2026-04-12T14:09:52.977Z</time></trkpt><trkpt lat="46.17193994321252" lon="12.2809019393305"><ele>388.0</ele><time>2026-04-12T14:09:53.977Z</time></trkpt><trkpt lat="46.17192876816436" lon="12.280648239037859"><ele>388.0</ele><time>2026-04-12T14:09:54.977Z</time></trkpt><trkpt lat="46.17190699095014" lon="12.280394258807283"><ele>388.0</ele><time>2026-04-12T14:09:55.977Z</time></trkpt><trkpt lat="46.17189803386737" lon="12.28012274052056"><ele>388.0</ele><time>2026-04-12T14:09:56.977Z</time></trkpt><trkpt lat="46.17188543259099" lon="12.27983122389173"><ele>388.6666666666667</ele><time>2026-04-12T14:09:57.977Z</time></trkpt><trkpt lat="46.17187988412783" lon="12.279525448523302"><ele>389.33333333333337</ele><time>2026-04-12T14:09:58.977Z</time></trkpt><trkpt lat="46.17187307942414" lon="12.279217182573008"><ele>390.0</ele><time>2026-04-12T14:09:59.977Z</time></trkpt><trkpt lat="46.17186105112438" lon="12.27893551720542"><ele>390.33333333333337</ele><time>2026-04-12T14:10:00.977Z</time></trkpt><trkpt lat="46.171852420356615" lon="12.278681948761747"><ele>390.6666666666667</ele><time>2026-04-12T14:10:01.977Z</time></trkpt><trkpt lat="46.171843504405395" lon="12.27842968413645"><ele>391.0</ele><time>2026-04-12T14:10:02.977Z</time></trkpt><trkpt lat="46.17183949622824" lon="12.278176442591018"><ele>391.0</ele><time>2026-04-12T14:10:03.977Z</time></trkpt><trkpt lat="46.171836027645696" lon="12.277922105709523"><ele>391.0</ele><time>2026-04-12T14:10:04.977Z</time></trkpt><trkpt lat="46.17182863407662" lon="12.277666387219469"><ele>391.0</ele><time>2026-04-12T14:10:05.977Z</time></trkpt><trkpt lat="46.17182336092197" lon="12.277408712105657"><ele>390.6666666666667</ele><time>2026-04-12T14:10:06.977Z</time></trkpt><trkpt lat="46.171815472105884" lon="12.27715770379375"><ele>390.33333333333337</ele><time>2026-04-12T14:10:07.977Z</time></trkpt><trkpt lat="46.171809077963154" lon="12.276914115684955"><ele>390.0</ele><time>2026-04-12T14:10:08.977Z</time></trkpt><trkpt lat="46.17179670541551" lon="12.276683052825407"><ele>390.0</ele><time>2026-04-12T14:10:09.977Z</time></trkpt><trkpt lat="46.171779649297264" lon="12.276461530274744"><ele>390.0</ele><time>2026-04-12T14:10:10.977Z</time></trkpt><trkpt lat="46.17175293041317" lon="12.276249540343994"><ele>390.0</ele><time>2026-04-12T14:10:11.977Z</time></trkpt><trkpt lat="46.171732372648265" lon="12.276042526481406"><ele>390.0</ele><time>2026-04-12T14:10:12.977Z</time></trkpt><trkpt lat="46.17169807191259" lon="12.275820834398873"><ele>390.33333333333337</ele><time>2026-04-12T14:10:13.977Z</time></trkpt><trkpt lat="46.17165763020836" lon="12.275605353319378"><ele>390.6666666666667</ele><time>2026-04-12T14:10:14.977Z</time></trkpt><trkpt lat="46.17161255378225" lon="12.275390711016184"><ele>391.0</ele><time>2026-04-12T14:10:15.977Z</time></trkpt><trkpt lat="46.17156011961211" lon="12.27516479236432"><ele>393.0</ele><time>2026-04-12T14:10:16.977Z</time></trkpt><trkpt lat="46.17151203138945" lon="12.274944560603142"><ele>395.0</ele><time>2026-04-12T14:10:17.977Z</time></trkpt><trkpt lat="46.17144306099549" lon="12.274725051082092"><ele>397.0</ele><time>2026-04-12T14:10:18.977Z</time></trkpt><trkpt lat="46.17137382466079" lon="12.274513590751328"><ele>397.0</ele><time>2026-04-12T14:10:19.977Z</time></trkpt><trkpt lat="46.17131155390204" lon="12.27432160222105"><ele>397.0</ele><time>2026-04-12T14:10:20.977Z</time></trkpt><trkpt lat="46.171241007742694" lon="12.274135635758824"><ele>397.0</ele><time>2026-04-12T14:10:21.977Z</time></trkpt><trkpt lat="46.17117011915637" lon="12.273941080455469"><ele>397.0</ele><time>2026-04-12T14:10:22.977Z</time></trkpt><trkpt lat="46.17108352759247" lon="12.27374119219117"><ele>395.33333333333337</ele><time>2026-04-12T14:10:23.977Z</time></trkpt><trkpt lat="46.170983537505016" lon="12.27353988351256"><ele>393.66666666666663</ele><time>2026-04-12T14:10:24.977Z</time></trkpt><trkpt lat="46.170865346637704" lon="12.273322660840334"><ele>392.0</ele><time>2026-04-12T14:10:25.977Z</time></trkpt><trkpt lat="46.17073966053454" lon="12.273100487553991"><ele>394.66666666666663</ele><time>2026-04-12T14:10:26.977Z</time></trkpt><trkpt lat="46.17059494626122" lon="12.272892439408192"><ele>397.33333333333337</ele><time>2026-04-12T14:10:27.977Z</time></trkpt><trkpt lat="46.1704637067968" lon="12.272701313000447"><ele>400.0</ele><time>2026-04-12T14:10:28.977Z</time></trkpt><trkpt lat="46.17032698758714" lon="12.272518962437644"><ele>400.0</ele><time>2026-04-12T14:10:29.977Z</time></trkpt><trkpt lat="46.170188055160885" lon="12.27231531473673"><ele>400.0</ele><time>2026-04-12T14:10:30.977Z</time></trkpt><trkpt lat="46.17001909599927" lon="12.272118605709787"><ele>400.0</ele><time>2026-04-12T14:10:31.977Z</time></trkpt><trkpt lat="46.169830847893806" lon="12.27194414987573"><ele>400.33333333333337</ele><time>2026-04-12T14:10:32.977Z</time></trkpt><trkpt lat="46.169660060462256" lon="12.271772377734612"><ele>400.66666666666663</ele><time>2026-04-12T14:10:33.977Z</time></trkpt><trkpt lat="46.169483188876065" lon="12.271615467355977"><ele>401.0</ele><time>2026-04-12T14:10:34.977Z</time></trkpt><trkpt lat="46.169294796969616" lon="12.271481786963342"><ele>397.3333333333333</ele><time>2026-04-12T14:10:35.977Z</time></trkpt><trkpt lat="46.16910497634615" lon="12.271365734503275"><ele>393.66666666666663</ele><time>2026-04-12T14:10:36.977Z</time></trkpt><trkpt lat="46.16891457106618" lon="12.271258520286414"><ele>390.0</ele><time>2026-04-12T14:10:37.977Z</time></trkpt><trkpt lat="46.16872753280382" lon="12.271158249397491"><ele>390.0</ele><time>2026-04-12T14:10:38.977Z</time></trkpt><trkpt lat="46.168534037954" lon="12.271060781580955"><ele>390.0</ele><time>2026-04-12T14:10:39.977Z</time></trkpt><trkpt lat="46.16834244460017" lon="12.270980152453596"><ele>390.0</ele><time>2026-04-12T14:10:40.977Z</time></trkpt><trkpt lat="46.16815498882464" lon="12.270897202424871"><ele>394.0</ele><time>2026-04-12T14:10:41.977Z</time></trkpt><trkpt lat="46.16796793864477" lon="12.270819954419666"><ele>398.0</ele><time>2026-04-12T14:10:42.977Z</time></trkpt><trkpt lat="46.16778665226836" lon="12.270737159611015"><ele>402.0</ele><time>2026-04-12T14:10:43.977Z</time></trkpt><trkpt lat="46.16761342778978" lon="12.270660415967463"><ele>396.33333333333337</ele><time>2026-04-12T14:10:44.977Z</time></trkpt><trkpt lat="46.1674432762541" lon="12.270585966400436"><ele>390.6666666666667</ele><time>2026-04-12T14:10:45.977Z</time></trkpt><trkpt lat="46.1672723850972" lon="12.270511910435095"><ele>385.0</ele><time>2026-04-12T14:10:46.977Z</time></trkpt><trkpt lat="46.167110438892955" lon="12.270417907785525"><ele>385.0</ele><time>2026-04-12T14:10:47.977Z</time></trkpt><trkpt lat="46.166949624216194" lon="12.270370782638638"><ele>385.0</ele><time>2026-04-12T14:10:48.977Z</time></trkpt><trkpt lat="46.166800002904274" lon="12.270280804576519"><ele>385.0</ele><time>2026-04-12T14:10:49.977Z</time></trkpt><trkpt lat="46.166648201929675" lon="12.270243901187149"><ele>388.0</ele><time>2026-04-12T14:10:50.977Z</time></trkpt><trkpt lat="46.16650051773966" lon="12.27019312144076"><ele>391.0</ele><time>2026-04-12T14:10:51.977Z</time></trkpt><trkpt lat="46.16635495592019" lon="12.270145976791524"><ele>394.0</ele><time>2026-04-12T14:10:52.977Z</time></trkpt><trkpt lat="46.16619819930678" lon="12.270121330846793"><ele>394.0</ele><time>2026-04-12T14:10:53.977Z</time></trkpt><trkpt lat="46.16604265894919" lon="12.270099693998064"><ele>394.0</ele><time>2026-04-12T14:10:54.977Z</time></trkpt><trkpt lat="46.16588458277518" lon="12.270062767064289"><ele>394.0</ele><time>2026-04-12T14:10:55.977Z</time></trkpt><trkpt lat="46.16572611680591" lon="12.270045584716657"><ele>393.33333333333337</ele><time>2026-04-12T14:10:56.977Z</time></trkpt><trkpt lat="46.165519663673045" lon="12.270055247461801"><ele>392.66666666666663</ele><time>2026-04-12T14:10:57.977Z</time></trkpt><trkpt lat="46.165330191373165" lon="12.270074875232666"><ele>392.0</ele><time>2026-04-12T14:10:58.977Z</time></trkpt><trkpt lat="46.165136582177496" lon="12.270095938303578"><ele>392.0</ele><time>2026-04-12T14:10:59.977Z</time></trkpt><trkpt lat="46.16495441095269" lon="12.270127921337906"><ele>392.0</ele><time>2026-04-12T14:11:00.977Z</time></trkpt><trkpt lat="46.164770704694725" lon="12.270161260756144"><ele>392.0</ele><time>2026-04-12T14:11:01.977Z</time></trkpt><trkpt lat="46.16458248572515" lon="12.27020737541873"><ele>391.0</ele><time>2026-04-12T14:11:02.977Z</time></trkpt><trkpt lat="46.16436950587395" lon="12.270223047852559"><ele>390.0</ele><time>2026-04-12T14:11:03.977Z</time></trkpt><trkpt lat="46.164163771954314" lon="12.270249861762535"><ele>389.0</ele><time>2026-04-12T14:11:04.977Z</time></trkpt><trkpt lat="46.163966942688226" lon="12.270265301714264"><ele>389.0</ele><time>2026-04-12T14:11:05.977Z</time></trkpt><trkpt lat="46.16379386149933" lon="12.270262514104678"><ele>389.0</ele><time>2026-04-12T14:11:06.977Z</time></trkpt><trkpt lat="46.163613410243265" lon="12.270244863586159"><ele>389.0</ele><time>2026-04-12T14:11:07.977Z</time></trkpt><trkpt lat="46.16344004142726" lon="12.27021383517556"><ele>389.0</ele><time>2026-04-12T14:11:08.977Z</time></trkpt><trkpt lat="46.16326619590024" lon="12.270199049501214"><ele>389.0</ele><time>2026-04-12T14:11:09.977Z</time></trkpt><trkpt lat="46.16308788685395" lon="12.270121739897991"><ele>389.0</ele><time>2026-04-12T14:11:10.977Z</time></trkpt><trkpt lat="46.162896350788884" lon="12.270049745593044"><ele>389.0</ele><time>2026-04-12T14:11:11.977Z</time></trkpt><trkpt lat="46.16268117987812" lon="12.269950527566138"><ele>389.0</ele><time>2026-04-12T14:11:12.977Z</time></trkpt><trkpt lat="46.16245954302166" lon="12.269825338275274"><ele>387.5</ele><time>2026-04-12T14:11:13.977Z</time></trkpt><trkpt lat="46.162220282033594" lon="12.269686154492964"><ele>386.0</ele><time>2026-04-12T14:11:14.977Z</time></trkpt><trkpt lat="46.161999210206226" lon="12.269471239823483"><ele>386.0</ele><time>2026-04-12T14:11:15.977Z</time></trkpt><trkpt lat="46.16175915998222" lon="12.269261863725102"><ele>386.0</ele><time>2026-04-12T14:11:16.977Z</time></trkpt><trkpt lat="46.16150820235587" lon="12.269061208482766"><ele>383.5</ele><time>2026-04-12T14:11:17.977Z</time></trkpt><trkpt lat="46.16128420499656" lon="12.26885252876587"><ele>381.0</ele><time>2026-04-12T14:11:18.977Z</time></trkpt><trkpt lat="46.16107215466848" lon="12.268671012501837"><ele>381.0</ele><time>2026-04-12T14:11:19.977Z</time></trkpt><trkpt lat="46.16087630567974" lon="12.26849561316423"><ele>381.0</ele><time>2026-04-12T14:11:20.977Z</time></trkpt><trkpt lat="46.16068971743181" lon="12.268325305201916"><ele>381.6666666666667</ele><time>2026-04-12T14:11:21.977Z</time></trkpt><trkpt lat="46.16050328415745" lon="12.268154750773014"><ele>382.33333333333337</ele><time>2026-04-12T14:11:22.977Z</time></trkpt><trkpt lat="46.16031725030556" lon="12.267987119269081"><ele>383.0</ele><time>2026-04-12T14:11:23.977Z</time></trkpt><trkpt lat="46.16012908906563" lon="12.267827643304665"><ele>382.6666666666667</ele><time>2026-04-12T14:11:24.977Z</time></trkpt><trkpt lat="46.159942119627665" lon="12.267670225394925"><ele>382.3333333333333</ele><time>2026-04-12T14:11:25.977Z</time></trkpt><trkpt lat="46.15976693611046" lon="12.267504241985545"><ele>382.0</ele><time>2026-04-12T14:11:26.977Z</time></trkpt><trkpt lat="46.15959634733781" lon="12.267352977252969"><ele>378.3333333333333</ele><time>2026-04-12T14:11:27.977Z</time></trkpt><trkpt lat="46.15942890505819" lon="12.267210586806277"><ele>374.6666666666667</ele><time>2026-04-12T14:11:28.977Z</time></trkpt><trkpt lat="46.15927179812891" lon="12.267072283011784"><ele>371.0</ele><time>2026-04-12T14:11:29.977Z</time></trkpt><trkpt lat="46.1591103733126" lon="12.266938108245906"><ele>374.33333333333337</ele><time>2026-04-12T14:11:30.977Z</time></trkpt><trkpt lat="46.158960528413246" lon="12.266811058521418"><ele>377.6666666666667</ele><time>2026-04-12T14:11:31.977Z</time></trkpt><trkpt lat="46.15881616231911" lon="12.266688723174399"><ele>381.0</ele><time>2026-04-12T14:11:32.977Z</time></trkpt><trkpt lat="46.15867023587886" lon="12.266573830229547"><ele>381.0</ele><time>2026-04-12T14:11:33.977Z</time></trkpt><trkpt lat="46.158518370772306" lon="12.266468559056943"><ele>381.0</ele><time>2026-04-12T14:11:34.978Z</time></trkpt><trkpt lat="46.158361197052855" lon="12.266371011281628"><ele>381.0</ele><time>2026-04-12T14:11:35.978Z</time></trkpt><trkpt lat="46.15819313430761" lon="12.266282891862483"><ele>377.0</ele><time>2026-04-12T14:11:36.978Z</time></trkpt><trkpt lat="46.15801775520629" lon="12.266212451100913"><ele>373.0</ele><time>2026-04-12T14:11:37.978Z</time></trkpt><trkpt lat="46.15784526138274" lon="12.266149044132554"><ele>369.0</ele><time>2026-04-12T14:11:38.978Z</time></trkpt><trkpt lat="46.1576787645442" lon="12.266099372369874"><ele>369.0</ele><time>2026-04-12T14:11:39.978Z</time></trkpt><trkpt lat="46.157518768424545" lon="12.26605481203408"><ele>369.0</ele><time>2026-04-12T14:11:40.978Z</time></trkpt><trkpt lat="46.15736760964639" lon="12.26601743727078"><ele>369.0</ele><time>2026-04-12T14:11:41.978Z</time></trkpt><trkpt lat="46.157212444333766" lon="12.265992636352554"><ele>369.75</ele><time>2026-04-12T14:11:42.978Z</time></trkpt><trkpt lat="46.15704691983797" lon="12.265975207251195"><ele>370.5</ele><time>2026-04-12T14:11:43.978Z</time></trkpt><trkpt lat="46.15690516981291" lon="12.265941530698322"><ele>371.25</ele><time>2026-04-12T14:11:44.978Z</time></trkpt><trkpt lat="46.1567710722265" lon="12.265916408333673"><ele>372.0</ele><time>2026-04-12T14:11:45.978Z</time></trkpt><trkpt lat="46.15657944856698" lon="12.265892819630366"><ele>374.0</ele><time>2026-04-12T14:11:46.978Z</time></trkpt><trkpt lat="46.15640948631771" lon="12.26586464190444"><ele>376.0</ele><time>2026-04-12T14:11:47.978Z</time></trkpt><trkpt lat="46.15624144876046" lon="12.265834014581436"><ele>378.0</ele><time>2026-04-12T14:11:48.978Z</time></trkpt><trkpt lat="46.15608077361865" lon="12.265801576768306"><ele>378.0</ele><time>2026-04-12T14:11:49.978Z</time></trkpt><trkpt lat="46.155932718076805" lon="12.265773139370776"><ele>378.0</ele><time>2026-04-12T14:11:50.978Z</time></trkpt><trkpt lat="46.15578873071656" lon="12.265749431549"><ele>378.0</ele><time>2026-04-12T14:11:51.978Z</time></trkpt><trkpt lat="46.15565276650952" lon="12.265731042780713"><ele>378.0</ele><time>2026-04-12T14:11:52.978Z</time></trkpt><trkpt lat="46.155533175426584" lon="12.265682625225903"><ele>378.5</ele><time>2026-04-12T14:11:53.978Z</time></trkpt><trkpt lat="46.155398640265524" lon="12.265638375475907"><ele>379.0</ele><time>2026-04-12T14:11:54.978Z</time></trkpt><trkpt lat="46.155262693374375" lon="12.265566206583314"><ele>379.5</ele><time>2026-04-12T14:11:55.978Z</time></trkpt><trkpt lat="46.15513364685673" lon="12.265496446485125"><ele>380.0</ele><time>2026-04-12T14:11:56.978Z</time></trkpt><trkpt lat="46.1550042294575" lon="12.265413733756207"><ele>378.75</ele><time>2026-04-12T14:11:57.978Z</time></trkpt><trkpt lat="46.15488589861611" lon="12.265323747491264"><ele>377.5</ele><time>2026-04-12T14:11:58.978Z</time></trkpt><trkpt lat="46.15477031582802" lon="12.265227584729914"><ele>376.25</ele><time>2026-04-12T14:11:59.978Z</time></trkpt><trkpt lat="46.15461284350622" lon="12.265134450089914"><ele>375.0</ele><time>2026-04-12T14:12:00.978Z</time></trkpt><trkpt lat="46.15447207197434" lon="12.265023955652993"><ele>375.0</ele><time>2026-04-12T14:12:01.978Z</time></trkpt><trkpt lat="46.15433811613432" lon="12.264933089960175"><ele>375.0</ele><time>2026-04-12T14:12:02.978Z</time></trkpt><trkpt lat="46.15420229092551" lon="12.264836753460813"><ele>375.0</ele><time>2026-04-12T14:12:03.978Z</time></trkpt><trkpt lat="46.154072639304964" lon="12.264743206590616"><ele>375.0</ele><time>2026-04-12T14:12:04.978Z</time></trkpt><trkpt lat="46.15394313365036" lon="12.264638130804546"><ele>374.6666666666667</ele><time>2026-04-12T14:12:05.978Z</time></trkpt><trkpt lat="46.15381630421973" lon="12.264515704786099"><ele>374.33333333333337</ele><time>2026-04-12T14:12:06.978Z</time></trkpt><trkpt lat="46.153680440012636" lon="12.264367272931544"><ele>374.0</ele><time>2026-04-12T14:12:07.978Z</time></trkpt><trkpt lat="46.15352786975939" lon="12.264175947323585"><ele>374.0</ele><time>2026-04-12T14:12:08.978Z</time></trkpt><trkpt lat="46.15336193367495" lon="12.263956627845298"><ele>374.0</ele><time>2026-04-12T14:12:09.978Z</time></trkpt><trkpt lat="46.153186053142754" lon="12.263721161490633"><ele>373.5</ele><time>2026-04-12T14:12:10.978Z</time></trkpt><trkpt lat="46.15300225147354" lon="12.263475090297755"><ele>373.0</ele><time>2026-04-12T14:12:11.978Z</time></trkpt><trkpt lat="46.15280353463901" lon="12.263211362793475"><ele>372.0</ele><time>2026-04-12T14:12:12.978Z</time></trkpt><trkpt lat="46.152582465086105" lon="12.262960671387937"><ele>371.0</ele><time>2026-04-12T14:12:13.978Z</time></trkpt><trkpt lat="46.15238574105151" lon="12.26268850283226"><ele>371.33333333333337</ele><time>2026-04-12T14:12:14.978Z</time></trkpt><trkpt lat="46.152218294663626" lon="12.262447370715146"><ele>371.6666666666667</ele><time>2026-04-12T14:12:15.978Z</time></trkpt><trkpt lat="46.15206664051628" lon="12.262246664281795"><ele>372.0</ele><time>2026-04-12T14:12:16.978Z</time></trkpt><trkpt lat="46.15193059933429" lon="12.262063899201852"><ele>372.0</ele><time>2026-04-12T14:12:17.978Z</time></trkpt><trkpt lat="46.15182348593029" lon="12.261884846166396"><ele>372.0</ele><time>2026-04-12T14:12:18.978Z</time></trkpt><trkpt lat="46.15172632475463" lon="12.261695536429249"><ele>372.0</ele><time>2026-04-12T14:12:19.978Z</time></trkpt><trkpt lat="46.15164013139869" lon="12.261487127958649"><ele>371.6666666666667</ele><time>2026-04-12T14:12:20.978Z</time></trkpt><trkpt lat="46.15157197932977" lon="12.261248449087356"><ele>371.33333333333337</ele><time>2026-04-12T14:12:21.978Z</time></trkpt><trkpt lat="46.15152314219962" lon="12.260971293686454"><ele>371.0</ele><time>2026-04-12T14:12:22.978Z</time></trkpt><trkpt lat="46.15146912217303" lon="12.260658625890137"><ele>373.0</ele><time>2026-04-12T14:12:23.978Z</time></trkpt><trkpt lat="46.15143118997763" lon="12.260319226025354"><ele>375.0</ele><time>2026-04-12T14:12:24.978Z</time></trkpt><trkpt lat="46.15138341413592" lon="12.25994455316995"><ele>375.5</ele><time>2026-04-12T14:12:25.978Z</time></trkpt><trkpt lat="46.15133861651701" lon="12.259591315315522"><ele>376.0</ele><time>2026-04-12T14:12:26.978Z</time></trkpt><trkpt lat="46.151299234416065" lon="12.259265935954932"><ele>376.0</ele><time>2026-04-12T14:12:27.978Z</time></trkpt><trkpt lat="46.15126135427087" lon="12.25896070850459"><ele>376.0</ele><time>2026-04-12T14:12:28.978Z</time></trkpt><trkpt lat="46.151226097942505" lon="12.258670731604328"><ele>376.0</ele><time>2026-04-12T14:12:29.978Z</time></trkpt><trkpt lat="46.15119346806389" lon="12.258388186845098"><ele>375.0</ele><time>2026-04-12T14:12:30.978Z</time></trkpt><trkpt lat="46.151154183654704" lon="12.258103577983483"><ele>374.0</ele><time>2026-04-12T14:12:31.978Z</time></trkpt><trkpt lat="46.15111663897682" lon="12.257832145105699"><ele>373.0</ele><time>2026-04-12T14:12:32.978Z</time></trkpt><trkpt lat="46.15108485425823" lon="12.257573300856414"><ele>373.0</ele><time>2026-04-12T14:12:33.978Z</time></trkpt><trkpt lat="46.151059030097684" lon="12.257325389851948"><ele>373.0</ele><time>2026-04-12T14:12:34.978Z</time></trkpt><trkpt lat="46.15103330308111" lon="12.257100923655171"><ele>373.0</ele><time>2026-04-12T14:12:35.978Z</time></trkpt><trkpt lat="46.15100165595343" lon="12.256882802642087"><ele>373.25</ele><time>2026-04-12T14:12:36.978Z</time></trkpt><trkpt lat="46.15097154139902" lon="12.256671568679856"><ele>373.5</ele><time>2026-04-12T14:12:37.978Z</time></trkpt><trkpt lat="46.15094421418325" lon="12.256473095731838"><ele>373.75</ele><time>2026-04-12T14:12:38.978Z</time></trkpt><trkpt lat="46.15092034519364" lon="12.256284579586978"><ele>374.0</ele><time>2026-04-12T14:12:39.978Z</time></trkpt><trkpt lat="46.15089958258917" lon="12.256130217171725"><ele>374.0</ele><time>2026-04-12T14:12:40.978Z</time></trkpt><trkpt lat="46.150899265850754" lon="12.256010031373425"><ele>374.0</ele><time>2026-04-12T14:12:41.978Z</time></trkpt><trkpt lat="46.15093465806858" lon="12.255912468956318"><ele>374.0</ele><time>2026-04-12T14:12:42.978Z</time></trkpt><trkpt lat="46.15100276248039" lon="12.255836414806923"><ele>374.0</ele><time>2026-04-12T14:12:43.978Z</time></trkpt><trkpt lat="46.1510734383066" lon="12.25576217775242"><ele>374.0</ele><time>2026-04-12T14:12:44.978Z</time></trkpt><trkpt lat="46.15110457631894" lon="12.25565626797769"><ele>374.0</ele><time>2026-04-12T14:12:45.978Z</time></trkpt><trkpt lat="46.151101881000706" lon="12.255553599169492"><ele>373.79999999999995</ele><time>2026-04-12T14:12:46.978Z</time></trkpt><trkpt lat="46.15106376075999" lon="12.25546393113911"><ele>373.59999999999997</ele><time>2026-04-12T14:12:47.978Z</time></trkpt><trkpt lat="46.15100430873989" lon="12.255383130763056"><ele>373.4</ele><time>2026-04-12T14:12:48.978Z</time></trkpt><trkpt lat="46.15092400389803" lon="12.255307758866435"><ele>373.2</ele><time>2026-04-12T14:12:49.978Z</time></trkpt><trkpt lat="46.15084266079839" lon="12.255188878990465"><ele>373.0</ele><time>2026-04-12T14:12:50.978Z</time></trkpt><trkpt lat="46.150802486534566" lon="12.255038687476459"><ele>373.0</ele><time>2026-04-12T14:12:51.978Z</time></trkpt><trkpt lat="46.15078411035827" lon="12.254859381654006"><ele>373.0</ele><time>2026-04-12T14:12:52.978Z</time></trkpt><trkpt lat="46.15075346146319" lon="12.254690111761127"><ele>373.0</ele><time>2026-04-12T14:12:53.978Z</time></trkpt><trkpt lat="46.150720460097425" lon="12.25454451820482"><ele>373.0</ele><time>2026-04-12T14:12:54.978Z</time></trkpt><trkpt lat="46.150663847278324" lon="12.254173603225508"><ele>373.0</ele><time>2026-04-12T14:12:55.978Z</time></trkpt><trkpt lat="46.15069768717764" lon="12.254095686608524"><ele>373.0</ele><time>2026-04-12T14:12:56.978Z</time></trkpt><trkpt lat="46.15074133164577" lon="12.25398982958652"><ele>373.0</ele><time>2026-04-12T14:12:57.978Z</time></trkpt><trkpt lat="46.15067235066803" lon="12.254037972449787"><ele>373.0</ele><time>2026-04-12T14:12:58.978Z</time></trkpt><trkpt lat="46.15041269322356" lon="12.253752023343297"><ele>373.16666666666663</ele><time>2026-04-12T14:12:59.978Z</time></trkpt><trkpt lat="46.150370092382786" lon="12.253630491854901"><ele>373.3333333333333</ele><time>2026-04-12T14:13:00.978Z</time></trkpt><trkpt lat="46.150331472728446" lon="12.253506617491396"><ele>373.5</ele><time>2026-04-12T14:13:01.978Z</time></trkpt><trkpt lat="46.15029026537625" lon="12.253398294973971"><ele>373.6666666666667</ele><time>2026-04-12T14:13:02.978Z</time></trkpt><trkpt lat="46.15025169945396" lon="12.253288915791652"><ele>373.83333333333337</ele><time>2026-04-12T14:13:03.978Z</time></trkpt><trkpt lat="46.15021732112856" lon="12.253176120510776"><ele>374.0</ele><time>2026-04-12T14:13:04.978Z</time></trkpt><trkpt lat="46.15017899108289" lon="12.253055387594173"><ele>373.25</ele><time>2026-04-12T14:13:05.978Z</time></trkpt><trkpt lat="46.150132370847366" lon="12.25291949534403"><ele>372.5</ele><time>2026-04-12T14:13:06.978Z</time></trkpt><trkpt lat="46.15008951866405" lon="12.252777193276636"><ele>371.75</ele><time>2026-04-12T14:13:07.978Z</time></trkpt><trkpt lat="46.150036967028605" lon="12.25262304978193"><ele>371.0</ele><time>2026-04-12T14:13:08.978Z</time></trkpt><trkpt lat="46.14998530522306" lon="12.252460271439395"><ele>371.0</ele><time>2026-04-12T14:13:09.978Z</time></trkpt><trkpt lat="46.14992305398467" lon="12.252290274191212"><ele>371.0</ele><time>2026-04-12T14:13:10.978Z</time></trkpt><trkpt lat="46.14986159086758" lon="12.252122771149677"><ele>371.0</ele><time>2026-04-12T14:13:11.978Z</time></trkpt><trkpt lat="46.14980736144075" lon="12.25195325259253"><ele>371.0</ele><time>2026-04-12T14:13:12.978Z</time></trkpt><trkpt lat="46.149757272037235" lon="12.2518022231834"><ele>371.5</ele><time>2026-04-12T14:13:13.978Z</time></trkpt><trkpt lat="46.14970103777597" lon="12.251638896793212"><ele>372.0</ele><time>2026-04-12T14:13:14.978Z</time></trkpt><trkpt lat="46.149642695221445" lon="12.251479395236496"><ele>372.5</ele><time>2026-04-12T14:13:15.978Z</time></trkpt><trkpt lat="46.149587230993134" lon="12.251315538329507"><ele>373.0</ele><time>2026-04-12T14:13:16.978Z</time></trkpt><trkpt lat="46.149533685088755" lon="12.25115624379681"><ele>373.25</ele><time>2026-04-12T14:13:17.978Z</time></trkpt><trkpt lat="46.14948036817352" lon="12.250991724040944"><ele>373.5</ele><time>2026-04-12T14:13:18.978Z</time></trkpt><trkpt lat="46.149411814293195" lon="12.250834470098884"><ele>373.75</ele><time>2026-04-12T14:13:19.978Z</time></trkpt><trkpt lat="46.14935926502204" lon="12.250666091251679"><ele>374.0</ele><time>2026-04-12T14:13:20.978Z</time></trkpt><trkpt lat="46.14930420369031" lon="12.250514465966242"><ele>374.0</ele><time>2026-04-12T14:13:21.978Z</time></trkpt><trkpt lat="46.149247148763756" lon="12.250371947572063"><ele>374.0</ele><time>2026-04-12T14:13:22.978Z</time></trkpt><trkpt lat="46.149195619173554" lon="12.250226634585886"><ele>374.0</ele><time>2026-04-12T14:13:23.978Z</time></trkpt><trkpt lat="46.14915906007929" lon="12.250088315301912"><ele>374.0</ele><time>2026-04-12T14:13:24.978Z</time></trkpt><trkpt lat="46.14910657565789" lon="12.249951354650914"><ele>374.0</ele><time>2026-04-12T14:13:25.978Z</time></trkpt><trkpt lat="46.14905832557251" lon="12.249805642014941"><ele>375.5</ele><time>2026-04-12T14:13:26.978Z</time></trkpt><trkpt lat="46.14900581712541" lon="12.249652637321432"><ele>377.0</ele><time>2026-04-12T14:13:27.978Z</time></trkpt><trkpt lat="46.14895772124105" lon="12.2494994762943"><ele>378.5</ele><time>2026-04-12T14:13:28.978Z</time></trkpt><trkpt lat="46.14891130228982" lon="12.249340471987267"><ele>380.0</ele><time>2026-04-12T14:13:29.978Z</time></trkpt><trkpt lat="46.14885258738658" lon="12.2491753201726"><ele>380.0</ele><time>2026-04-12T14:13:30.978Z</time></trkpt><trkpt lat="46.14878773904097" lon="12.24900294058016"><ele>380.0</ele><time>2026-04-12T14:13:31.978Z</time></trkpt><trkpt lat="46.14872164136183" lon="12.248819705840308"><ele>380.0</ele><time>2026-04-12T14:13:32.978Z</time></trkpt><trkpt lat="46.148649637231195" lon="12.248620835270033"><ele>380.0</ele><time>2026-04-12T14:13:33.978Z</time></trkpt><trkpt lat="46.14858209297839" lon="12.24841707490477"><ele>379.33333333333337</ele><time>2026-04-12T14:13:34.978Z</time></trkpt><trkpt lat="46.1485190707541" lon="12.248250160266965"><ele>378.6666666666667</ele><time>2026-04-12T14:13:35.978Z</time></trkpt><trkpt lat="46.14842928113111" lon="12.248006956130277"><ele>378.0</ele><time>2026-04-12T14:13:36.978Z</time></trkpt><trkpt lat="46.148297196210436" lon="12.247693101296516"><ele>377.6666666666667</ele><time>2026-04-12T14:13:37.978Z</time></trkpt><trkpt lat="46.14819171282304" lon="12.247461567642604"><ele>377.33333333333337</ele><time>2026-04-12T14:13:38.978Z</time></trkpt><trkpt lat="46.14809500352266" lon="12.247255760138923"><ele>377.0</ele><time>2026-04-12T14:13:39.978Z</time></trkpt><trkpt lat="46.14799109539727" lon="12.24705933869352"><ele>377.0</ele><time>2026-04-12T14:13:40.978Z</time></trkpt><trkpt lat="46.14789287970889" lon="12.246862107413062"><ele>377.0</ele><time>2026-04-12T14:13:41.978Z</time></trkpt><trkpt lat="46.14778203035935" lon="12.24665958880673"><ele>377.0</ele><time>2026-04-12T14:13:42.978Z</time></trkpt><trkpt lat="46.14766691832231" lon="12.246454221937492"><ele>377.33333333333337</ele><time>2026-04-12T14:13:43.978Z</time></trkpt><trkpt lat="46.147550422169424" lon="12.246262291455109"><ele>377.6666666666667</ele><time>2026-04-12T14:13:44.978Z</time></trkpt><trkpt lat="46.147438413914514" lon="12.246086044588651"><ele>378.0</ele><time>2026-04-12T14:13:45.978Z</time></trkpt><trkpt lat="46.147330819916206" lon="12.24592795096579"><ele>378.0</ele><time>2026-04-12T14:13:46.978Z</time></trkpt><trkpt lat="46.147216382271175" lon="12.245770377932553"><ele>378.0</ele><time>2026-04-12T14:13:47.978Z</time></trkpt><trkpt lat="46.14710925253235" lon="12.24561966723591"><ele>378.0</ele><time>2026-04-12T14:13:48.978Z</time></trkpt><trkpt lat="46.147000388523075" lon="12.245469823509389"><ele>376.3333333333333</ele><time>2026-04-12T14:13:49.978Z</time></trkpt><trkpt lat="46.14688214497801" lon="12.245312862585537"><ele>374.66666666666663</ele><time>2026-04-12T14:13:50.978Z</time></trkpt><trkpt lat="46.14676488986684" lon="12.245155605935581"><ele>373.0</ele><time>2026-04-12T14:13:51.978Z</time></trkpt><trkpt lat="46.14664062370451" lon="12.245004211615266"><ele>372.0</ele><time>2026-04-12T14:13:52.978Z</time></trkpt><trkpt lat="46.14650532648133" lon="12.244842404479307"><ele>371.0</ele><time>2026-04-12T14:13:53.978Z</time></trkpt><trkpt lat="46.14637558386676" lon="12.244681201493911"><ele>370.0</ele><time>2026-04-12T14:13:54.978Z</time></trkpt><trkpt lat="46.14624064353826" lon="12.244532980274334"><ele>370.0</ele><time>2026-04-12T14:13:55.978Z</time></trkpt><trkpt lat="46.14611020907479" lon="12.244377146942616"><ele>370.0</ele><time>2026-04-12T14:13:56.978Z</time></trkpt><trkpt lat="46.1459753264718" lon="12.244216535693978"><ele>370.0</ele><time>2026-04-12T14:13:57.978Z</time></trkpt><trkpt lat="46.14583738877733" lon="12.244059238976677"><ele>370.3333333333333</ele><time>2026-04-12T14:13:58.978Z</time></trkpt><trkpt lat="46.14569881356547" lon="12.24389073671503"><ele>370.6666666666667</ele><time>2026-04-12T14:13:59.978Z</time></trkpt><trkpt lat="46.14555877733581" lon="12.243716851967083"><ele>371.0</ele><time>2026-04-12T14:14:00.978Z</time></trkpt><trkpt lat="46.14541869821063" lon="12.243548056800691"><ele>371.0</ele><time>2026-04-12T14:14:01.978Z</time></trkpt><trkpt lat="46.14528586430367" lon="12.24339136169523"><ele>371.0</ele><time>2026-04-12T14:14:02.978Z</time></trkpt><trkpt lat="46.14516315942767" lon="12.243244703564727"><ele>371.0</ele><time>2026-04-12T14:14:03.978Z</time></trkpt><trkpt lat="46.14505535271575" lon="12.243102454671389"><ele>369.0</ele><time>2026-04-12T14:14:04.978Z</time></trkpt><trkpt lat="46.1449556240456" lon="12.242970547187484"><ele>367.0</ele><time>2026-04-12T14:14:05.978Z</time></trkpt><trkpt lat="46.14485993427226" lon="12.24283745173823"><ele>365.0</ele><time>2026-04-12T14:14:06.978Z</time></trkpt><trkpt lat="46.144771948025415" lon="12.242691890599863"><ele>363.0</ele><time>2026-04-12T14:14:07.978Z</time></trkpt><trkpt lat="46.14467988703516" lon="12.242541161102404"><ele>364.5</ele><time>2026-04-12T14:14:08.978Z</time></trkpt><trkpt lat="46.144581182403584" lon="12.242380619987316"><ele>366.0</ele><time>2026-04-12T14:14:09.978Z</time></trkpt><trkpt lat="46.14448129858216" lon="12.242215180678196"><ele>367.5</ele><time>2026-04-12T14:14:10.978Z</time></trkpt><trkpt lat="46.14438774768625" lon="12.242051340992619"><ele>369.0</ele><time>2026-04-12T14:14:11.978Z</time></trkpt><trkpt lat="46.14428804407603" lon="12.241890431236133"><ele>369.0</ele><time>2026-04-12T14:14:12.978Z</time></trkpt><trkpt lat="46.14418887914971" lon="12.241727631179833"><ele>369.0</ele><time>2026-04-12T14:14:13.978Z</time></trkpt><trkpt lat="46.14408087501919" lon="12.241562392993444"><ele>369.0</ele><time>2026-04-12T14:14:14.978Z</time></trkpt><trkpt lat="46.14397507406182" lon="12.241387379153434"><ele>370.6666666666667</ele><time>2026-04-12T14:14:15.978Z</time></trkpt><trkpt lat="46.143880489996604" lon="12.241210679744055"><ele>372.33333333333337</ele><time>2026-04-12T14:14:16.978Z</time></trkpt><trkpt lat="46.14376175264079" lon="12.241013420195658"><ele>374.0</ele><time>2026-04-12T14:14:17.978Z</time></trkpt><trkpt lat="46.143644517787905" lon="12.240822487690856"><ele>369.6666666666667</ele><time>2026-04-12T14:14:18.978Z</time></trkpt><trkpt lat="46.143533245607536" lon="12.240632870501802"><ele>365.3333333333333</ele><time>2026-04-12T14:14:19.978Z</time></trkpt><trkpt lat="46.14342700421084" lon="12.240449054321125"><ele>361.0</ele><time>2026-04-12T14:14:20.978Z</time></trkpt><trkpt lat="46.14332345051861" lon="12.24026805704013"><ele>364.0</ele><time>2026-04-12T14:14:21.978Z</time></trkpt><trkpt lat="46.143203024621926" lon="12.240073827496532"><ele>367.0</ele><time>2026-04-12T14:14:22.978Z</time></trkpt><trkpt lat="46.14307602999361" lon="12.239868289483889"><ele>370.0</ele><time>2026-04-12T14:14:23.978Z</time></trkpt><trkpt lat="46.1429313374962" lon="12.239638184796362"><ele>370.0</ele><time>2026-04-12T14:14:24.978Z</time></trkpt><trkpt lat="46.14279894412313" lon="12.239390413381907"><ele>370.0</ele><time>2026-04-12T14:14:25.978Z</time></trkpt><trkpt lat="46.142647003298045" lon="12.239157130128303"><ele>370.0</ele><time>2026-04-12T14:14:26.978Z</time></trkpt><trkpt lat="46.142495757806" lon="12.23892952913419"><ele>371.5</ele><time>2026-04-12T14:14:27.978Z</time></trkpt><trkpt lat="46.142338761349265" lon="12.23869636087428"><ele>373.0</ele><time>2026-04-12T14:14:28.978Z</time></trkpt><trkpt lat="46.14216695511867" lon="12.238478833974755"><ele>373.0</ele><time>2026-04-12T14:14:29.978Z</time></trkpt><trkpt lat="46.14200618188264" lon="12.238236975096282"><ele>373.0</ele><time>2026-04-12T14:14:30.978Z</time></trkpt><trkpt lat="46.1418443157679" lon="12.237994580467474"><ele>379.0</ele><time>2026-04-12T14:14:31.978Z</time></trkpt><trkpt lat="46.141679020377566" lon="12.237752904586175"><ele>385.0</ele><time>2026-04-12T14:14:32.978Z</time></trkpt><trkpt lat="46.14151125405067" lon="12.237505801261612"><ele>375.5</ele><time>2026-04-12T14:14:33.978Z</time></trkpt><trkpt lat="46.14134299155247" lon="12.237265711727368"><ele>366.0</ele><time>2026-04-12T14:14:34.978Z</time></trkpt><trkpt lat="46.14116651582758" lon="12.23700979395386"><ele>366.0</ele><time>2026-04-12T14:14:35.978Z</time></trkpt><trkpt lat="46.14098668875337" lon="12.23675029959653"><ele>366.0</ele><time>2026-04-12T14:14:36.978Z</time></trkpt><trkpt lat="46.14080414099586" lon="12.236482400991827"><ele>369.0</ele><time>2026-04-12T14:14:37.978Z</time></trkpt><trkpt lat="46.1406246149437" lon="12.236220106965655"><ele>372.0</ele><time>2026-04-12T14:14:38.978Z</time></trkpt><trkpt lat="46.14044512348236" lon="12.235960562896109"><ele>372.0</ele><time>2026-04-12T14:14:39.978Z</time></trkpt><trkpt lat="46.140266855687614" lon="12.235701088025086"><ele>372.0</ele><time>2026-04-12T14:14:40.978Z</time></trkpt><trkpt lat="46.14008773383172" lon="12.23543275712043"><ele>374.0</ele><time>2026-04-12T14:14:41.978Z</time></trkpt><trkpt lat="46.139910091336304" lon="12.23516877092802"><ele>376.0</ele><time>2026-04-12T14:14:42.978Z</time></trkpt><trkpt lat="46.139729257542186" lon="12.234900999573835"><ele>368.5</ele><time>2026-04-12T14:14:43.978Z</time></trkpt><trkpt lat="46.139549559040866" lon="12.234639656669525"><ele>361.0</ele><time>2026-04-12T14:14:44.978Z</time></trkpt><trkpt lat="46.139368548298314" lon="12.234376015292352"><ele>361.0</ele><time>2026-04-12T14:14:45.978Z</time></trkpt><trkpt lat="46.13919333737865" lon="12.234112155770427"><ele>361.0</ele><time>2026-04-12T14:14:46.978Z</time></trkpt><trkpt lat="46.139015036745505" lon="12.233852973867288"><ele>360.5</ele><time>2026-04-12T14:14:47.978Z</time></trkpt><trkpt lat="46.13882845897616" lon="12.233594339460753"><ele>360.0</ele><time>2026-04-12T14:14:48.978Z</time></trkpt><trkpt lat="46.13864479816144" lon="12.233337424459416"><ele>355.5</ele><time>2026-04-12T14:14:49.978Z</time></trkpt><trkpt lat="46.13845786783905" lon="12.23308160836771"><ele>351.0</ele><time>2026-04-12T14:14:50.978Z</time></trkpt><trkpt lat="46.13826747934283" lon="12.232826592702551"><ele>352.5</ele><time>2026-04-12T14:14:51.978Z</time></trkpt><trkpt lat="46.13806578426922" lon="12.232566723992575"><ele>354.0</ele><time>2026-04-12T14:14:52.978Z</time></trkpt><trkpt lat="46.13785306707396" lon="12.232292972469809"><ele>354.0</ele><time>2026-04-12T14:14:53.978Z</time></trkpt><trkpt lat="46.13763135223988" lon="12.232008392387163"><ele>354.0</ele><time>2026-04-12T14:14:54.978Z</time></trkpt><trkpt lat="46.13740314874494" lon="12.231714436700173"><ele>354.5</ele><time>2026-04-12T14:14:55.978Z</time></trkpt><trkpt lat="46.13718589256324" lon="12.2314423395962"><ele>355.0</ele><time>2026-04-12T14:14:56.978Z</time></trkpt><trkpt lat="46.136983489669404" lon="12.231187969674455"><ele>355.0</ele><time>2026-04-12T14:14:57.978Z</time></trkpt><trkpt lat="46.13679565913486" lon="12.230951230267198"><ele>355.0</ele><time>2026-04-12T14:14:58.978Z</time></trkpt><trkpt lat="46.1366131776999" lon="12.23072583968352"><ele>354.3333333333333</ele><time>2026-04-12T14:14:59.978Z</time></trkpt><trkpt lat="46.13643749311705" lon="12.230522207522068"><ele>353.6666666666667</ele><time>2026-04-12T14:15:00.978Z</time></trkpt><trkpt lat="46.136271590359236" lon="12.230334012213909"><ele>353.0</ele><time>2026-04-12T14:15:01.978Z</time></trkpt><trkpt lat="46.13610918045846" lon="12.230153487991188"><ele>353.0</ele><time>2026-04-12T14:15:02.978Z</time></trkpt><trkpt lat="46.13594516921957" lon="12.229973274829753"><ele>353.0</ele><time>2026-04-12T14:15:03.978Z</time></trkpt><trkpt lat="46.13577508937959" lon="12.229799417030323"><ele>353.0</ele><time>2026-04-12T14:15:04.978Z</time></trkpt><trkpt lat="46.13559211108785" lon="12.229633255680838"><ele>352.0</ele><time>2026-04-12T14:15:05.978Z</time></trkpt><trkpt lat="46.13540840512911" lon="12.22947458869438"><ele>351.0</ele><time>2026-04-12T14:15:06.978Z</time></trkpt><trkpt lat="46.135234872257904" lon="12.229316739356483"><ele>350.0</ele><time>2026-04-12T14:15:07.978Z</time></trkpt><trkpt lat="46.13507030726111" lon="12.229161647258161"><ele>350.0</ele><time>2026-04-12T14:15:08.978Z</time></trkpt><trkpt lat="46.13491657896821" lon="12.229011933210334"><ele>350.0</ele><time>2026-04-12T14:15:09.978Z</time></trkpt><trkpt lat="46.13477532608109" lon="12.228859041411152"><ele>350.0</ele><time>2026-04-12T14:15:10.978Z</time></trkpt><trkpt lat="46.13464711107444" lon="12.228690216745157"><ele>351.33333333333337</ele><time>2026-04-12T14:15:11.978Z</time></trkpt><trkpt lat="46.13453298836887" lon="12.228529154942443"><ele>352.6666666666667</ele><time>2026-04-12T14:15:12.978Z</time></trkpt><trkpt lat="46.13443130963464" lon="12.228364166819237"><ele>354.0</ele><time>2026-04-12T14:15:13.978Z</time></trkpt><trkpt lat="46.134349575944796" lon="12.228193718458535"><ele>352.79999999999995</ele><time>2026-04-12T14:15:14.978Z</time></trkpt><trkpt lat="46.13428408081143" lon="12.22803933053603"><ele>351.59999999999997</ele><time>2026-04-12T14:15:15.978Z</time></trkpt><trkpt lat="46.134231219835655" lon="12.22789236833594"><ele>350.4</ele><time>2026-04-12T14:15:16.978Z</time></trkpt><trkpt lat="46.1342031281303" lon="12.227747187436425"><ele>349.2</ele><time>2026-04-12T14:15:17.978Z</time></trkpt><trkpt lat="46.13419781810994" lon="12.227611006935748"><ele>348.0</ele><time>2026-04-12T14:15:18.978Z</time></trkpt><trkpt lat="46.13420874165727" lon="12.227513865189183"><ele>348.0</ele><time>2026-04-12T14:15:19.978Z</time></trkpt><trkpt lat="46.13417034508217" lon="12.227431436538808"><ele>348.0</ele><time>2026-04-12T14:15:20.978Z</time></trkpt><trkpt lat="46.13410630040614" lon="12.227387720150483"><ele>348.0</ele><time>2026-04-12T14:15:21.978Z</time></trkpt><trkpt lat="46.134020249580345" lon="12.227370191998531"><ele>348.0</ele><time>2026-04-12T14:15:22.978Z</time></trkpt><trkpt lat="46.13393161242728" lon="12.227407216017962"><ele>348.0</ele><time>2026-04-12T14:15:23.978Z</time></trkpt><trkpt lat="46.13385816655879" lon="12.227499723292263"><ele>348.0</ele><time>2026-04-12T14:15:24.978Z</time></trkpt><trkpt lat="46.13379311743258" lon="12.22758683948256"><ele>352.0</ele><time>2026-04-12T14:15:25.978Z</time></trkpt><trkpt lat="46.13371684579844" lon="12.227636364182645"><ele>356.0</ele><time>2026-04-12T14:15:26.978Z</time></trkpt><trkpt lat="46.13362097704276" lon="12.22762267470499"><ele>360.0</ele><time>2026-04-12T14:15:27.978Z</time></trkpt><trkpt lat="46.133525805004666" lon="12.227538884685886"><ele>364.0</ele><time>2026-04-12T14:15:28.978Z</time></trkpt><trkpt lat="46.133433433900045" lon="12.227467979797797"><ele>368.0</ele><time>2026-04-12T14:15:29.978Z</time></trkpt><trkpt lat="46.13333721882259" lon="12.227390086421307"><ele>366.5</ele><time>2026-04-12T14:15:30.978Z</time></trkpt><trkpt lat="46.13323505889386" lon="12.227297577972593"><ele>365.0</ele><time>2026-04-12T14:15:31.996Z</time></trkpt><trkpt lat="46.13313684674511" lon="12.227204396074448"><ele>363.5</ele><time>2026-04-12T14:15:32.995Z</time></trkpt><trkpt lat="46.1330352352637" lon="12.22710662353961"><ele>362.0</ele><time>2026-04-12T14:15:33.991Z</time></trkpt><trkpt lat="46.13293997190623" lon="12.227014132393485"><ele>370.0</ele><time>2026-04-12T14:15:34.995Z</time></trkpt><trkpt lat="46.1328389922917" lon="12.226915254330011"><ele>378.0</ele><time>2026-04-12T14:15:35.995Z</time></trkpt><trkpt lat="46.131629583154286" lon="12.22629034566941"><ele>387.0</ele><time>2026-04-12T14:15:46.998Z</time></trkpt><trkpt lat="46.13105408355975" lon="12.22590176255363"><ele>381.0</ele><time>2026-04-12T14:15:53.244Z</time></trkpt><trkpt lat="46.131464159294765" lon="12.225566150461763"><ele>381.0</ele><time>2026-04-12T14:16:01.661Z</time></trkpt><trkpt lat="46.130960855232146" lon="12.22502558735028"><ele>387.0</ele><time>2026-04-12T14:16:02.661Z</time></trkpt><trkpt lat="46.13048283528902" lon="12.22443795514897"><ele>391.0</ele><time>2026-04-12T14:16:03.661Z</time></trkpt><trkpt lat="46.13002964216871" lon="12.223811968944576"><ele>407.0</ele><time>2026-04-12T14:16:04.66Z</time></trkpt><trkpt lat="46.1296013047643" lon="12.223150700882734"><ele>401.0</ele><time>2026-04-12T14:16:05.661Z</time></trkpt><trkpt lat="46.12918491112615" lon="12.222471205026489"><ele>409.0</ele><time>2026-04-12T14:16:06.661Z</time></trkpt><trkpt lat="46.128800232748084" lon="12.221753406755504"><ele>408.5</ele><time>2026-04-12T14:16:07.661Z</time></trkpt><trkpt lat="46.1285577" lon="12.2212915"><ele>408.0</ele><time>2026-04-12T14:16:08.661Z</time></trkpt><trkpt lat="46.12104229167674" lon="12.210819907497811"><ele>383.5</ele><time>2026-04-12T14:16:45.978Z</time></trkpt><trkpt lat="46.12086665300878" lon="12.210590984336848"><ele>359.0</ele><time>2026-04-12T14:16:46.978Z</time></trkpt><trkpt lat="46.12072570832616" lon="12.21033376341419"><ele>357.6666666666667</ele><time>2026-04-12T14:16:47.978Z</time></trkpt><trkpt lat="46.12057710424508" lon="12.210122218076656"><ele>356.3333333333333</ele><time>2026-04-12T14:16:48.978Z</time></trkpt><trkpt lat="46.12041554171294" lon="12.209870977737763"><ele>355.0</ele><time>2026-04-12T14:16:49.978Z</time></trkpt><trkpt lat="46.120275004887525" lon="12.209614708968115"><ele>355.0</ele><time>2026-04-12T14:16:50.978Z</time></trkpt><trkpt lat="46.12014376722788" lon="12.209345844099998"><ele>355.0</ele><time>2026-04-12T14:16:51.979Z</time></trkpt><trkpt lat="46.11999669314553" lon="12.209065946447819"><ele>352.0</ele><time>2026-04-12T14:16:52.979Z</time></trkpt><trkpt lat="46.11985515286336" lon="12.208796918094587"><ele>349.0</ele><time>2026-04-12T14:16:53.979Z</time></trkpt><trkpt lat="46.119731137159995" lon="12.20853300759511"><ele>349.0</ele><time>2026-04-12T14:16:54.979Z</time></trkpt><trkpt lat="46.119624898994516" lon="12.208328945858584"><ele>349.0</ele><time>2026-04-12T14:16:55.979Z</time></trkpt><trkpt lat="46.11952483135788" lon="12.208146684979443"><ele>349.0</ele><time>2026-04-12T14:16:56.979Z</time></trkpt><trkpt lat="46.11944501291926" lon="12.207957665270705"><ele>347.75</ele><time>2026-04-12T14:16:57.979Z</time></trkpt><trkpt lat="46.11936781751169" lon="12.207789150852783"><ele>346.5</ele><time>2026-04-12T14:16:58.979Z</time></trkpt><trkpt lat="46.11929051867568" lon="12.207616486954283"><ele>345.25</ele><time>2026-04-12T14:16:59.979Z</time></trkpt><trkpt lat="46.11923189801279" lon="12.207464988017318"><ele>344.0</ele><time>2026-04-12T14:17:00.979Z</time></trkpt><trkpt lat="46.11920666715436" lon="12.207331477096306"><ele>343.79999999999995</ele><time>2026-04-12T14:17:01.979Z</time></trkpt><trkpt lat="46.11916468896413" lon="12.20724990675811"><ele>343.59999999999997</ele><time>2026-04-12T14:17:02.979Z</time></trkpt><trkpt lat="46.119091855696894" lon="12.20704868772209"><ele>343.4</ele><time>2026-04-12T14:17:03.979Z</time></trkpt><trkpt lat="46.11912113807958" lon="12.20691770702558"><ele>343.2</ele><time>2026-04-12T14:17:04.979Z</time></trkpt><trkpt lat="46.11916960139447" lon="12.20675814452498"><ele>343.0</ele><time>2026-04-12T14:17:05.979Z</time></trkpt><trkpt lat="46.119054144315626" lon="12.206645672758972"><ele>343.66666666666663</ele><time>2026-04-12T14:17:08.979Z</time></trkpt><trkpt lat="46.11886426562534" lon="12.206555330560093"><ele>344.3333333333333</ele><time>2026-04-12T14:17:09.979Z</time></trkpt><trkpt lat="46.11876204755518" lon="12.206721868963788"><ele>345.0</ele><time>2026-04-12T14:17:10.979Z</time></trkpt><trkpt lat="46.11869783774216" lon="12.206831727217947"><ele>345.0</ele><time>2026-04-12T14:17:11.979Z</time></trkpt><trkpt lat="46.118624977238156" lon="12.20691163697134"><ele>345.0</ele><time>2026-04-12T14:17:12.979Z</time></trkpt><trkpt lat="46.118538750032855" lon="12.206956876296779"><ele>345.0</ele><time>2026-04-12T14:17:13.979Z</time></trkpt><trkpt lat="46.11843446335003" lon="12.206997497382181"><ele>345.0</ele><time>2026-04-12T14:17:14.979Z</time></trkpt><trkpt lat="46.118301950000706" lon="12.207044311008767"><ele>345.0</ele><time>2026-04-12T14:17:15.979Z</time></trkpt><trkpt lat="46.118165917987646" lon="12.207063674986419"><ele>345.6666666666667</ele><time>2026-04-12T14:17:16.979Z</time></trkpt><trkpt lat="46.11802193136159" lon="12.207069404348745"><ele>346.33333333333337</ele><time>2026-04-12T14:17:17.979Z</time></trkpt><trkpt lat="46.11786267422936" lon="12.207009987225675"><ele>347.0</ele><time>2026-04-12T14:17:18.979Z</time></trkpt><trkpt lat="46.11769077230096" lon="12.206948434347131"><ele>347.0</ele><time>2026-04-12T14:17:19.979Z</time></trkpt><trkpt lat="46.1174967790046" lon="12.206848808891866"><ele>347.0</ele><time>2026-04-12T14:17:20.979Z</time></trkpt><trkpt lat="46.117317847374046" lon="12.206725978294584"><ele>347.0</ele><time>2026-04-12T14:17:21.979Z</time></trkpt><trkpt lat="46.11717379274198" lon="12.206608419381562"><ele>346.0</ele><time>2026-04-12T14:17:22.979Z</time></trkpt><trkpt lat="46.11697463883615" lon="12.206429421220252"><ele>345.0</ele><time>2026-04-12T14:17:23.979Z</time></trkpt><trkpt lat="46.11676024870133" lon="12.206232220438242"><ele>346.5</ele><time>2026-04-12T14:17:24.979Z</time></trkpt><trkpt lat="46.11650997105928" lon="12.205999285778644"><ele>348.0</ele><time>2026-04-12T14:17:25.979Z</time></trkpt><trkpt lat="46.11626081359708" lon="12.205765696616734"><ele>348.0</ele><time>2026-04-12T14:17:26.979Z</time></trkpt><trkpt lat="46.115995705640394" lon="12.205514014376014"><ele>348.0</ele><time>2026-04-12T14:17:27.979Z</time></trkpt><trkpt lat="46.11575013183621" lon="12.205281259496507"><ele>347.0</ele><time>2026-04-12T14:17:28.979Z</time></trkpt><trkpt lat="46.11549982474988" lon="12.205075753612201"><ele>346.0</ele><time>2026-04-12T14:17:29.979Z</time></trkpt><trkpt lat="46.11525916068768" lon="12.204846656414214"><ele>345.5</ele><time>2026-04-12T14:17:30.979Z</time></trkpt><trkpt lat="46.1150231677372" lon="12.204627541809097"><ele>345.0</ele><time>2026-04-12T14:17:31.979Z</time></trkpt><trkpt lat="46.114799327693746" lon="12.204411422254307"><ele>347.0</ele><time>2026-04-12T14:17:32.979Z</time></trkpt><trkpt lat="46.114558500991464" lon="12.204170153004686"><ele>349.0</ele><time>2026-04-12T14:17:33.979Z</time></trkpt><trkpt lat="46.11429137650485" lon="12.20394722001754"><ele>355.0</ele><time>2026-04-12T14:17:34.979Z</time></trkpt><trkpt lat="46.114026192289906" lon="12.203697208620419"><ele>361.0</ele><time>2026-04-12T14:17:35.979Z</time></trkpt><trkpt lat="46.11374285955438" lon="12.203433586815597"><ele>359.0</ele><time>2026-04-12T14:17:36.979Z</time></trkpt><trkpt lat="46.11345296139407" lon="12.203137194222265"><ele>357.0</ele><time>2026-04-12T14:17:37.979Z</time></trkpt><trkpt lat="46.11322909622789" lon="12.202914446836143"><ele>361.0</ele><time>2026-04-12T14:17:38.979Z</time></trkpt><trkpt lat="46.112970505969834" lon="12.202665796678225"><ele>365.0</ele><time>2026-04-12T14:17:39.979Z</time></trkpt><trkpt lat="46.112730660686836" lon="12.202437268125093"><ele>366.5</ele><time>2026-04-12T14:17:40.979Z</time></trkpt><trkpt lat="46.11249839488222" lon="12.202226686369045"><ele>368.0</ele><time>2026-04-12T14:17:41.979Z</time></trkpt><trkpt lat="46.112274831149115" lon="12.202024419069467"><ele>368.0</ele><time>2026-04-12T14:17:42.979Z</time></trkpt><trkpt lat="46.11206419679953" lon="12.201834611132751"><ele>368.0</ele><time>2026-04-12T14:17:43.979Z</time></trkpt><trkpt lat="46.11184513683961" lon="12.201588144801303"><ele>368.0</ele><time>2026-04-12T14:17:44.979Z</time></trkpt><trkpt lat="46.11164734871889" lon="12.201430855761679"><ele>368.0</ele><time>2026-04-12T14:17:45.979Z</time></trkpt><trkpt lat="46.11147316912005" lon="12.201257737246936"><ele>368.0</ele><time>2026-04-12T14:17:46.979Z</time></trkpt><trkpt lat="46.111278400442494" lon="12.201084101985623"><ele>368.0</ele><time>2026-04-12T14:17:47.979Z</time></trkpt><trkpt lat="46.11109252027733" lon="12.20091348956153"><ele>368.0</ele><time>2026-04-12T14:17:48.979Z</time></trkpt><trkpt lat="46.11090966761828" lon="12.200743277569934"><ele>368.0</ele><time>2026-04-12T14:17:49.979Z</time></trkpt><trkpt lat="46.11072119759433" lon="12.200561754506449"><ele>362.5</ele><time>2026-04-12T14:17:50.979Z</time></trkpt><trkpt lat="46.110523240360344" lon="12.200376653442397"><ele>357.0</ele><time>2026-04-12T14:17:51.979Z</time></trkpt><trkpt lat="46.11033571449022" lon="12.200200856568948"><ele>357.0</ele><time>2026-04-12T14:17:52.979Z</time></trkpt><trkpt lat="46.11013978441891" lon="12.20002311503851"><ele>357.0</ele><time>2026-04-12T14:17:53.979Z</time></trkpt><trkpt lat="46.10994816302884" lon="12.199842373857996"><ele>355.5</ele><time>2026-04-12T14:17:54.979Z</time></trkpt><trkpt lat="46.10974753344054" lon="12.199657138907286"><ele>354.0</ele><time>2026-04-12T14:17:55.979Z</time></trkpt><trkpt lat="46.10954105117973" lon="12.199476231960379"><ele>354.0</ele><time>2026-04-12T14:17:56.979Z</time></trkpt><trkpt lat="46.10933691984543" lon="12.199279776804147"><ele>354.0</ele><time>2026-04-12T14:17:57.979Z</time></trkpt><trkpt lat="46.10913107731904" lon="12.199081998343017"><ele>353.0</ele><time>2026-04-12T14:17:58.979Z</time></trkpt><trkpt lat="46.10892726302169" lon="12.198899419045194"><ele>352.0</ele><time>2026-04-12T14:17:59.979Z</time></trkpt><trkpt lat="46.108733794428815" lon="12.198723638373528"><ele>352.0</ele><time>2026-04-12T14:18:00.979Z</time></trkpt><trkpt lat="46.108542547710655" lon="12.198540938212634"><ele>352.0</ele><time>2026-04-12T14:18:01.979Z</time></trkpt><trkpt lat="46.10835768668235" lon="12.198367906506713"><ele>351.0</ele><time>2026-04-12T14:18:02.979Z</time></trkpt><trkpt lat="46.10818503201652" lon="12.19820045474823"><ele>350.0</ele><time>2026-04-12T14:18:03.979Z</time></trkpt><trkpt lat="46.10803247207292" lon="12.198017645195907"><ele>349.0</ele><time>2026-04-12T14:18:04.979Z</time></trkpt><trkpt lat="46.10789399823469" lon="12.197809032607811"><ele>349.0</ele><time>2026-04-12T14:18:05.979Z</time></trkpt><trkpt lat="46.10776092052996" lon="12.197579009789198"><ele>349.0</ele><time>2026-04-12T14:18:06.979Z</time></trkpt><trkpt lat="46.107645818725985" lon="12.197332528938638"><ele>349.0</ele><time>2026-04-12T14:18:07.979Z</time></trkpt><trkpt lat="46.10755055719342" lon="12.197069837959956"><ele>349.3333333333333</ele><time>2026-04-12T14:18:08.979Z</time></trkpt><trkpt lat="46.10747285904975" lon="12.196788138148765"><ele>349.6666666666667</ele><time>2026-04-12T14:18:09.979Z</time></trkpt><trkpt lat="46.10741708238196" lon="12.196500876800345"><ele>350.0</ele><time>2026-04-12T14:18:10.979Z</time></trkpt><trkpt lat="46.107380526855934" lon="12.19619577049289"><ele>354.5</ele><time>2026-04-12T14:18:11.979Z</time></trkpt><trkpt lat="46.10737005799884" lon="12.195868948647453"><ele>359.0</ele><time>2026-04-12T14:18:12.979Z</time></trkpt><trkpt lat="46.10736820351657" lon="12.195542248936293"><ele>359.6666666666667</ele><time>2026-04-12T14:18:13.979Z</time></trkpt><trkpt lat="46.10735413745306" lon="12.195224487782484"><ele>360.3333333333333</ele><time>2026-04-12T14:18:14.979Z</time></trkpt><trkpt lat="46.10734723419822" lon="12.194944542663977"><ele>361.0</ele><time>2026-04-12T14:18:15.979Z</time></trkpt><trkpt lat="46.10733151874447" lon="12.194677985026491"><ele>361.0</ele><time>2026-04-12T14:18:16.979Z</time></trkpt><trkpt lat="46.107311997269655" lon="12.194420604955557"><ele>361.0</ele><time>2026-04-12T14:18:17.979Z</time></trkpt><trkpt lat="46.10728695487563" lon="12.19417556941416"><ele>361.0</ele><time>2026-04-12T14:18:18.979Z</time></trkpt><trkpt lat="46.10726635658739" lon="12.193952392579524"><ele>361.0</ele><time>2026-04-12T14:18:19.979Z</time></trkpt><trkpt lat="46.107251128081764" lon="12.193749393558315"><ele>361.0</ele><time>2026-04-12T14:18:20.979Z</time></trkpt><trkpt lat="46.10722960916506" lon="12.193560129682332"><ele>361.0</ele><time>2026-04-12T14:18:21.979Z</time></trkpt><trkpt lat="46.10720895329704" lon="12.193380346876344"><ele>361.0</ele><time>2026-04-12T14:18:22.979Z</time></trkpt><trkpt lat="46.10718939278753" lon="12.193219955773776"><ele>360.8</ele><time>2026-04-12T14:18:23.979Z</time></trkpt><trkpt lat="46.10718035801824" lon="12.193068872636724"><ele>360.6</ele><time>2026-04-12T14:18:24.979Z</time></trkpt><trkpt lat="46.10720309484928" lon="12.192934192830386"><ele>360.4</ele><time>2026-04-12T14:18:25.979Z</time></trkpt><trkpt lat="46.10725699097064" lon="12.192817177311062"><ele>360.2</ele><time>2026-04-12T14:18:26.979Z</time></trkpt><trkpt lat="46.10726959991738" lon="12.192696626264974"><ele>360.0</ele><time>2026-04-12T14:18:27.979Z</time></trkpt><trkpt lat="46.10723148768591" lon="12.19256479893524"><ele>360.0</ele><time>2026-04-12T14:18:28.979Z</time></trkpt><trkpt lat="46.10715976438211" lon="12.192452623077314"><ele>360.0</ele><time>2026-04-12T14:18:29.979Z</time></trkpt><trkpt lat="46.10707455820201" lon="12.192339329662977"><ele>360.0</ele><time>2026-04-12T14:18:30.979Z</time></trkpt><trkpt lat="46.10700522889882" lon="12.1921689263066"><ele>360.0</ele><time>2026-04-12T14:18:31.979Z</time></trkpt><trkpt lat="46.10698862101947" lon="12.19194353796715"><ele>359.75</ele><time>2026-04-12T14:18:32.979Z</time></trkpt><trkpt lat="46.10693125608216" lon="12.191717568844084"><ele>359.5</ele><time>2026-04-12T14:18:33.979Z</time></trkpt><trkpt lat="46.106898784418966" lon="12.191511871165442"><ele>359.25</ele><time>2026-04-12T14:18:34.979Z</time></trkpt><trkpt lat="46.106861970141075" lon="12.191322948141499"><ele>359.0</ele><time>2026-04-12T14:18:35.979Z</time></trkpt><trkpt lat="46.10680873010504" lon="12.191122027754021"><ele>359.0</ele><time>2026-04-12T14:18:36.979Z</time></trkpt><trkpt lat="46.10675543398091" lon="12.190913288633089"><ele>359.0</ele><time>2026-04-12T14:18:37.979Z</time></trkpt><trkpt lat="46.10669075866226" lon="12.190695108722856"><ele>359.0</ele><time>2026-04-12T14:18:38.979Z</time></trkpt><trkpt lat="46.10661712133159" lon="12.190460074066959"><ele>358.33333333333337</ele><time>2026-04-12T14:18:39.979Z</time></trkpt><trkpt lat="46.106541753235696" lon="12.190204386265314"><ele>357.6666666666667</ele><time>2026-04-12T14:18:40.979Z</time></trkpt><trkpt lat="46.10645216301825" lon="12.189924918567689"><ele>357.0</ele><time>2026-04-12T14:18:41.979Z</time></trkpt><trkpt lat="46.10635913588987" lon="12.18962917461128"><ele>356.3333333333333</ele><time>2026-04-12T14:18:42.979Z</time></trkpt><trkpt lat="46.10627200617118" lon="12.189372683839464"><ele>355.66666666666663</ele><time>2026-04-12T14:18:43.979Z</time></trkpt><trkpt lat="46.106193813952046" lon="12.189155514263389"><ele>355.0</ele><time>2026-04-12T14:18:44.979Z</time></trkpt><trkpt lat="46.10611918218519" lon="12.188950057452153"><ele>355.0</ele><time>2026-04-12T14:18:45.979Z</time></trkpt><trkpt lat="46.10604636309342" lon="12.188758169202993"><ele>355.0</ele><time>2026-04-12T14:18:46.979Z</time></trkpt><trkpt lat="46.105976427309876" lon="12.188570403804194"><ele>355.0</ele><time>2026-04-12T14:18:47.979Z</time></trkpt><trkpt lat="46.10589998693555" lon="12.188383613920285"><ele>355.0</ele><time>2026-04-12T14:18:48.979Z</time></trkpt><trkpt lat="46.10582241461796" lon="12.188180718176675"><ele>355.0</ele><time>2026-04-12T14:18:49.979Z</time></trkpt><trkpt lat="46.1057404855459" lon="12.187962182331644"><ele>355.0</ele><time>2026-04-12T14:18:50.979Z</time></trkpt><trkpt lat="46.10564894264009" lon="12.187733219573564"><ele>355.3333333333333</ele><time>2026-04-12T14:18:51.979Z</time></trkpt><trkpt lat="46.10555090879377" lon="12.187481239001077"><ele>355.6666666666667</ele><time>2026-04-12T14:18:52.979Z</time></trkpt><trkpt lat="46.10544462212389" lon="12.187228945704602"><ele>356.0</ele><time>2026-04-12T14:18:53.979Z</time></trkpt><trkpt lat="46.105351201518964" lon="12.186992583414808"><ele>355.33333333333337</ele><time>2026-04-12T14:18:54.979Z</time></trkpt><trkpt lat="46.10525510816168" lon="12.186752277202304"><ele>354.6666666666667</ele><time>2026-04-12T14:18:55.979Z</time></trkpt><trkpt lat="46.105155450178025" lon="12.186501508515736"><ele>354.0</ele><time>2026-04-12T14:18:56.979Z</time></trkpt><trkpt lat="46.10505577940766" lon="12.186245739512371"><ele>354.3333333333333</ele><time>2026-04-12T14:18:57.98Z</time></trkpt><trkpt lat="46.10495261095343" lon="12.18598815092255"><ele>354.66666666666663</ele><time>2026-04-12T14:18:58.98Z</time></trkpt><trkpt lat="46.10484740566723" lon="12.185726367726584"><ele>355.0</ele><time>2026-04-12T14:18:59.98Z</time></trkpt><trkpt lat="46.10473705906293" lon="12.185451401233648"><ele>354.0</ele><time>2026-04-12T14:19:00.98Z</time></trkpt><trkpt lat="46.104622093688654" lon="12.185164718532556"><ele>353.0</ele><time>2026-04-12T14:19:01.98Z</time></trkpt><trkpt lat="46.10450685834669" lon="12.18487775341923"><ele>352.0</ele><time>2026-04-12T14:19:02.98Z</time></trkpt><trkpt lat="46.10440246710909" lon="12.184619300018586"><ele>351.0</ele><time>2026-04-12T14:19:03.98Z</time></trkpt><trkpt lat="46.104304072595156" lon="12.18437150659775"><ele>350.0</ele><time>2026-04-12T14:19:04.98Z</time></trkpt><trkpt lat="46.1042164214707" lon="12.18413045816208"><ele>349.6666666666667</ele><time>2026-04-12T14:19:05.98Z</time></trkpt><trkpt lat="46.10411922947503" lon="12.183885857412262"><ele>349.3333333333333</ele><time>2026-04-12T14:19:06.98Z</time></trkpt><trkpt lat="46.104014007174115" lon="12.18363195330872"><ele>349.0</ele><time>2026-04-12T14:19:07.98Z</time></trkpt><trkpt lat="46.10391288711578" lon="12.183372967712476"><ele>347.5</ele><time>2026-04-12T14:19:08.98Z</time></trkpt><trkpt lat="46.103800631263674" lon="12.183101561695441"><ele>346.0</ele><time>2026-04-12T14:19:09.98Z</time></trkpt><trkpt lat="46.1036820487317" lon="12.182816217077441"><ele>346.0</ele><time>2026-04-12T14:19:10.98Z</time></trkpt><trkpt lat="46.103567703661554" lon="12.182528865703341"><ele>346.0</ele><time>2026-04-12T14:19:11.98Z</time></trkpt><trkpt lat="46.103447333711536" lon="12.182219430944432"><ele>345.5</ele><time>2026-04-12T14:19:12.98Z</time></trkpt><trkpt lat="46.103327128788784" lon="12.181919897927076"><ele>345.0</ele><time>2026-04-12T14:19:13.98Z</time></trkpt><trkpt lat="46.10321859735575" lon="12.181640433264898"><ele>344.3333333333333</ele><time>2026-04-12T14:19:14.98Z</time></trkpt><trkpt lat="46.10311353765128" lon="12.181376891271537"><ele>343.66666666666663</ele><time>2026-04-12T14:19:15.98Z</time></trkpt><trkpt lat="46.10301435044994" lon="12.18112729208955"><ele>343.0</ele><time>2026-04-12T14:19:16.98Z</time></trkpt><trkpt lat="46.102911215636716" lon="12.180864563113982"><ele>343.0</ele><time>2026-04-12T14:19:17.98Z</time></trkpt><trkpt lat="46.10281928181347" lon="12.180611209530198"><ele>343.0</ele><time>2026-04-12T14:19:18.98Z</time></trkpt><trkpt lat="46.10270387504798" lon="12.180335231550973"><ele>343.0</ele><time>2026-04-12T14:19:19.98Z</time></trkpt><trkpt lat="46.102586791197986" lon="12.180053654481778"><ele>343.0</ele><time>2026-04-12T14:19:20.98Z</time></trkpt><trkpt lat="46.10246950801298" lon="12.179769711841722"><ele>343.0</ele><time>2026-04-12T14:19:21.98Z</time></trkpt><trkpt lat="46.102358152131615" lon="12.179486069725382"><ele>343.0</ele><time>2026-04-12T14:19:22.98Z</time></trkpt><trkpt lat="46.102247947221876" lon="12.179212576777294"><ele>343.0</ele><time>2026-04-12T14:19:23.98Z</time></trkpt><trkpt lat="46.10214499613303" lon="12.178954964663374"><ele>343.0</ele><time>2026-04-12T14:19:24.98Z</time></trkpt><trkpt lat="46.102050766683135" lon="12.178709938720951"><ele>343.0</ele><time>2026-04-12T14:19:25.98Z</time></trkpt><trkpt lat="46.101952856804196" lon="12.178469610485847"><ele>343.0</ele><time>2026-04-12T14:19:26.98Z</time></trkpt><trkpt lat="46.10185476166988" lon="12.178231498715617"><ele>343.0</ele><time>2026-04-12T14:19:27.98Z</time></trkpt><trkpt lat="46.101759815474075" lon="12.177986721967507"><ele>343.0</ele><time>2026-04-12T14:19:28.98Z</time></trkpt><trkpt lat="46.1016614840933" lon="12.177745062244366"><ele>343.0</ele><time>2026-04-12T14:19:29.98Z</time></trkpt><trkpt lat="46.101568043988976" lon="12.177494336401189"><ele>343.0</ele><time>2026-04-12T14:19:30.98Z</time></trkpt><trkpt lat="46.101468852451845" lon="12.177235826531062"><ele>343.0</ele><time>2026-04-12T14:19:31.98Z</time></trkpt><trkpt lat="46.10136847863448" lon="12.176980546226819"><ele>343.0</ele><time>2026-04-12T14:19:32.98Z</time></trkpt><trkpt lat="46.10126411550363" lon="12.176742275951925"><ele>343.0</ele><time>2026-04-12T14:19:33.98Z</time></trkpt><trkpt lat="46.10116991868378" lon="12.176510160995138"><ele>342.66666666666663</ele><time>2026-04-12T14:19:34.98Z</time></trkpt><trkpt lat="46.10107937325331" lon="12.176283580026398"><ele>342.3333333333333</ele><time>2026-04-12T14:19:35.98Z</time></trkpt><trkpt lat="46.10098591950006" lon="12.176057542147982"><ele>342.0</ele><time>2026-04-12T14:19:36.98Z</time></trkpt><trkpt lat="46.100894350045444" lon="12.175835017671446"><ele>341.6666666666667</ele><time>2026-04-12T14:19:37.98Z</time></trkpt><trkpt lat="46.100805704953984" lon="12.175616686292884"><ele>341.33333333333337</ele><time>2026-04-12T14:19:38.98Z</time></trkpt><trkpt lat="46.10070232562611" lon="12.175393343187515"><ele>341.0</ele><time>2026-04-12T14:19:39.98Z</time></trkpt><trkpt lat="46.10057707359725" lon="12.175180218360303"><ele>342.0</ele><time>2026-04-12T14:19:40.98Z</time></trkpt><trkpt lat="46.10043180490439" lon="12.174977164455823"><ele>343.0</ele><time>2026-04-12T14:19:41.98Z</time></trkpt><trkpt lat="46.10027712851541" lon="12.174780355767473"><ele>344.0</ele><time>2026-04-12T14:19:42.98Z</time></trkpt><trkpt lat="46.100107667523524" lon="12.17459085188351"><ele>344.0</ele><time>2026-04-12T14:19:43.98Z</time></trkpt><trkpt lat="46.099936585614955" lon="12.174409019758768"><ele>344.0</ele><time>2026-04-12T14:19:44.98Z</time></trkpt><trkpt lat="46.09976422336879" lon="12.17425044466369"><ele>344.0</ele><time>2026-04-12T14:19:45.98Z</time></trkpt><trkpt lat="46.099588195069046" lon="12.174111348432826"><ele>344.6666666666667</ele><time>2026-04-12T14:19:46.98Z</time></trkpt><trkpt lat="46.09940409747865" lon="12.173997971672314"><ele>345.3333333333333</ele><time>2026-04-12T14:19:47.98Z</time></trkpt><trkpt lat="46.09921383436455" lon="12.173909377884872"><ele>346.0</ele><time>2026-04-12T14:19:48.98Z</time></trkpt><trkpt lat="46.09900716965954" lon="12.173829086999067"><ele>347.5</ele><time>2026-04-12T14:19:49.98Z</time></trkpt><trkpt lat="46.09879498741363" lon="12.173741025313527"><ele>349.0</ele><time>2026-04-12T14:19:50.98Z</time></trkpt><trkpt lat="46.09857787925817" lon="12.173613212213429"><ele>349.0</ele><time>2026-04-12T14:19:51.98Z</time></trkpt><trkpt lat="46.0983509872344" lon="12.173502413995786"><ele>349.0</ele><time>2026-04-12T14:19:52.98Z</time></trkpt><trkpt lat="46.09812460112747" lon="12.173390496029844"><ele>349.66666666666663</ele><time>2026-04-12T14:19:53.98Z</time></trkpt><trkpt lat="46.097904139859914" lon="12.173285733718375"><ele>350.3333333333333</ele><time>2026-04-12T14:19:54.98Z</time></trkpt><trkpt lat="46.09770472689036" lon="12.173214595089247"><ele>351.0</ele><time>2026-04-12T14:19:55.98Z</time></trkpt><trkpt lat="46.09753022189978" lon="12.173135994290321"><ele>350.75</ele><time>2026-04-12T14:19:56.98Z</time></trkpt><trkpt lat="46.09738802282405" lon="12.17307567510367"><ele>350.5</ele><time>2026-04-12T14:19:57.98Z</time></trkpt><trkpt lat="46.097261152912154" lon="12.17302342590777"><ele>350.25</ele><time>2026-04-12T14:19:58.98Z</time></trkpt><trkpt lat="46.097141045764815" lon="12.172977269808664"><ele>350.0</ele><time>2026-04-12T14:19:59.98Z</time></trkpt><trkpt lat="46.097031210472565" lon="12.172935990120301"><ele>350.0</ele><time>2026-04-12T14:20:00.98Z</time></trkpt><trkpt lat="46.0969443981544" lon="12.172878998626746"><ele>350.0</ele><time>2026-04-12T14:20:01.98Z</time></trkpt><trkpt lat="46.09686749327285" lon="12.172803141564623"><ele>350.0</ele><time>2026-04-12T14:20:02.98Z</time></trkpt><trkpt lat="46.09676774820167" lon="12.17273247205949"><ele>350.0</ele><time>2026-04-12T14:20:03.98Z</time></trkpt><trkpt lat="46.09665188176248" lon="12.172664860213452"><ele>350.0</ele><time>2026-04-12T14:20:04.98Z</time></trkpt><trkpt lat="46.096571806629846" lon="12.172584857766012"><ele>349.8</ele><time>2026-04-12T14:20:05.98Z</time></trkpt><trkpt lat="46.09648282842943" lon="12.172507122007696"><ele>349.6</ele><time>2026-04-12T14:20:06.98Z</time></trkpt><trkpt lat="46.096410374878424" lon="12.17241291755672"><ele>349.4</ele><time>2026-04-12T14:20:07.98Z</time></trkpt><trkpt lat="46.09635002514566" lon="12.172334107594969"><ele>349.2</ele><time>2026-04-12T14:20:08.98Z</time></trkpt><trkpt lat="46.0962360417704" lon="12.172355202613515"><ele>349.0</ele><time>2026-04-12T14:20:09.98Z</time></trkpt><trkpt lat="46.096106769552" lon="12.172370117611516"><ele>349.0</ele><time>2026-04-12T14:20:10.98Z</time></trkpt><trkpt lat="46.0959694147381" lon="12.172339418771093"><ele>349.0</ele><time>2026-04-12T14:20:11.98Z</time></trkpt><trkpt lat="46.09581592475057" lon="12.1722447231686"><ele>349.0</ele><time>2026-04-12T14:20:12.98Z</time></trkpt><trkpt lat="46.09564423167907" lon="12.172085510944255"><ele>347.66666666666663</ele><time>2026-04-12T14:20:13.98Z</time></trkpt><trkpt lat="46.09548534014896" lon="12.17193470838526"><ele>346.3333333333333</ele><time>2026-04-12T14:20:14.98Z</time></trkpt><trkpt lat="46.095351764380226" lon="12.17179111159008"><ele>345.0</ele><time>2026-04-12T14:20:15.98Z</time></trkpt><trkpt lat="46.09523666339181" lon="12.17166731813583"><ele>345.0</ele><time>2026-04-12T14:20:16.98Z</time></trkpt><trkpt lat="46.09512701872106" lon="12.171540562727255"><ele>345.0</ele><time>2026-04-12T14:20:17.98Z</time></trkpt><trkpt lat="46.09501774079508" lon="12.171410653041024"><ele>345.0</ele><time>2026-04-12T14:20:18.98Z</time></trkpt><trkpt lat="46.09491264948845" lon="12.17126880944986"><ele>345.0</ele><time>2026-04-12T14:20:19.98Z</time></trkpt><trkpt lat="46.09480721189831" lon="12.17112865863964"><ele>345.5</ele><time>2026-04-12T14:20:20.98Z</time></trkpt><trkpt lat="46.09471117020511" lon="12.170985365284313"><ele>346.0</ele><time>2026-04-12T14:20:21.98Z</time></trkpt><trkpt lat="46.0946201264182" lon="12.170830599175256"><ele>346.5</ele><time>2026-04-12T14:20:22.98Z</time></trkpt><trkpt lat="46.094524982777926" lon="12.170670258770476"><ele>347.0</ele><time>2026-04-12T14:20:23.98Z</time></trkpt><trkpt lat="46.094427888402215" lon="12.17051918506249"><ele>347.5</ele><time>2026-04-12T14:20:24.98Z</time></trkpt><trkpt lat="46.09433139963494" lon="12.170365059196389"><ele>348.0</ele><time>2026-04-12T14:20:25.98Z</time></trkpt><trkpt lat="46.09423295424454" lon="12.170204028130364"><ele>348.5</ele><time>2026-04-12T14:20:26.98Z</time></trkpt><trkpt lat="46.09413427768404" lon="12.170042478673901"><ele>349.0</ele><time>2026-04-12T14:20:27.98Z</time></trkpt><trkpt lat="46.09403767919857" lon="12.169885629518093"><ele>349.75</ele><time>2026-04-12T14:20:28.98Z</time></trkpt><trkpt lat="46.09394557259747" lon="12.169730183317183"><ele>350.5</ele><time>2026-04-12T14:20:29.98Z</time></trkpt><trkpt lat="46.09384840190821" lon="12.169568143787659"><ele>351.25</ele><time>2026-04-12T14:20:30.98Z</time></trkpt><trkpt lat="46.09376129710105" lon="12.169418448214422"><ele>352.0</ele><time>2026-04-12T14:20:31.98Z</time></trkpt><trkpt lat="46.093661351518236" lon="12.169262479650243"><ele>352.0</ele><time>2026-04-12T14:20:32.98Z</time></trkpt><trkpt lat="46.093556189884566" lon="12.169099331423505"><ele>352.0</ele><time>2026-04-12T14:20:33.98Z</time></trkpt><trkpt lat="46.09344758778809" lon="12.168926247928123"><ele>352.0</ele><time>2026-04-12T14:20:34.98Z</time></trkpt><trkpt lat="46.09333721157087" lon="12.168746763893015"><ele>350.66666666666663</ele><time>2026-04-12T14:20:35.98Z</time></trkpt><trkpt lat="46.09321684767456" lon="12.1685509513083"><ele>349.3333333333333</ele><time>2026-04-12T14:20:36.98Z</time></trkpt><trkpt lat="46.09308702192986" lon="12.168326478893418"><ele>348.0</ele><time>2026-04-12T14:20:37.98Z</time></trkpt><trkpt lat="46.092962742765245" lon="12.16812158371317"><ele>348.0</ele><time>2026-04-12T14:20:38.98Z</time></trkpt><trkpt lat="46.09284314902823" lon="12.167923148247308"><ele>348.0</ele><time>2026-04-12T14:20:39.98Z</time></trkpt><trkpt lat="46.0927209587489" lon="12.167722261273981"><ele>348.0</ele><time>2026-04-12T14:20:40.98Z</time></trkpt><trkpt lat="46.092601939721035" lon="12.16751555780262"><ele>347.6666666666667</ele><time>2026-04-12T14:20:41.98Z</time></trkpt><trkpt lat="46.092479314612675" lon="12.16731483660435"><ele>347.33333333333337</ele><time>2026-04-12T14:20:42.98Z</time></trkpt><trkpt lat="46.092362541110724" lon="12.167103145120858"><ele>347.0</ele><time>2026-04-12T14:20:43.98Z</time></trkpt><trkpt lat="46.09224971285036" lon="12.166898793149562"><ele>347.0</ele><time>2026-04-12T14:20:44.98Z</time></trkpt><trkpt lat="46.09215033736342" lon="12.166711193821227"><ele>347.0</ele><time>2026-04-12T14:20:45.98Z</time></trkpt><trkpt lat="46.092061681841386" lon="12.166533475000305"><ele>347.0</ele><time>2026-04-12T14:20:46.98Z</time></trkpt><trkpt lat="46.09197332154404" lon="12.166350338233888"><ele>347.6666666666667</ele><time>2026-04-12T14:20:47.98Z</time></trkpt><trkpt lat="46.09188835038051" lon="12.166160566033167"><ele>348.3333333333333</ele><time>2026-04-12T14:20:48.98Z</time></trkpt><trkpt lat="46.09178013946597" lon="12.165957044333469"><ele>349.0</ele><time>2026-04-12T14:20:49.98Z</time></trkpt><trkpt lat="46.09166566493548" lon="12.165745424028332"><ele>347.66666666666663</ele><time>2026-04-12T14:20:50.98Z</time></trkpt><trkpt lat="46.09153566712246" lon="12.165516648343301"><ele>346.3333333333333</ele><time>2026-04-12T14:20:51.98Z</time></trkpt><trkpt lat="46.09139508576996" lon="12.165268289850756"><ele>345.0</ele><time>2026-04-12T14:20:52.98Z</time></trkpt><trkpt lat="46.09124360361787" lon="12.165002982690629"><ele>345.5</ele><time>2026-04-12T14:20:53.98Z</time></trkpt><trkpt lat="46.091042385066245" lon="12.16477149502034"><ele>346.0</ele><time>2026-04-12T14:20:54.98Z</time></trkpt><trkpt lat="46.09087823155288" lon="12.16447128009722"><ele>344.0</ele><time>2026-04-12T14:20:55.98Z</time></trkpt><trkpt lat="46.09074343108009" lon="12.164221173870557"><ele>342.0</ele><time>2026-04-12T14:20:56.98Z</time></trkpt><trkpt lat="46.09062559897588" lon="12.163972248246601"><ele>340.0</ele><time>2026-04-12T14:20:57.98Z</time></trkpt><trkpt lat="46.090508224880544" lon="12.163706043086284"><ele>340.0</ele><time>2026-04-12T14:20:58.98Z</time></trkpt><trkpt lat="46.090402462360245" lon="12.163430906899094"><ele>340.0</ele><time>2026-04-12T14:20:59.98Z</time></trkpt><trkpt lat="46.09029504857697" lon="12.163170334937535"><ele>340.0</ele><time>2026-04-12T14:21:00.98Z</time></trkpt><trkpt lat="46.090184309276935" lon="12.162924265552082"><ele>340.0</ele><time>2026-04-12T14:21:01.98Z</time></trkpt><trkpt lat="46.09008289169585" lon="12.162685476708043"><ele>340.0</ele><time>2026-04-12T14:21:02.98Z</time></trkpt><trkpt lat="46.08999222376565" lon="12.162459501458114"><ele>340.0</ele><time>2026-04-12T14:21:03.981Z</time></trkpt><trkpt lat="46.089899054824926" lon="12.162235159151733"><ele>339.66666666666663</ele><time>2026-04-12T14:21:04.981Z</time></trkpt><trkpt lat="46.08979333326682" lon="12.162002593501459"><ele>339.3333333333333</ele><time>2026-04-12T14:21:05.981Z</time></trkpt><trkpt lat="46.089702935479316" lon="12.161758635144096"><ele>339.0</ele><time>2026-04-12T14:21:06.981Z</time></trkpt><trkpt lat="46.089602554480926" lon="12.161510162121788"><ele>339.0</ele><time>2026-04-12T14:21:07.981Z</time></trkpt><trkpt lat="46.0894978000368" lon="12.16124950143877"><ele>339.0</ele><time>2026-04-12T14:21:08.981Z</time></trkpt><trkpt lat="46.089392122717015" lon="12.160985508134152"><ele>339.0</ele><time>2026-04-12T14:21:09.981Z</time></trkpt><trkpt lat="46.089294493713254" lon="12.160742044092546"><ele>338.3333333333333</ele><time>2026-04-12T14:21:10.981Z</time></trkpt><trkpt lat="46.08920775144566" lon="12.160525739466136"><ele>337.66666666666663</ele><time>2026-04-12T14:21:11.981Z</time></trkpt><trkpt lat="46.089112664599824" lon="12.160311079490288"><ele>337.0</ele><time>2026-04-12T14:21:12.981Z</time></trkpt><trkpt lat="46.08902760022864" lon="12.160067470680467"><ele>335.0</ele><time>2026-04-12T14:21:13.981Z</time></trkpt><trkpt lat="46.08894586588915" lon="12.159817146750042"><ele>333.0</ele><time>2026-04-12T14:21:14.981Z</time></trkpt><trkpt lat="46.08886212957428" lon="12.159557084469965"><ele>331.0</ele><time>2026-04-12T14:21:15.981Z</time></trkpt><trkpt lat="46.088781510543846" lon="12.15929199954031"><ele>330.3333333333333</ele><time>2026-04-12T14:21:16.981Z</time></trkpt><trkpt lat="46.08869153572655" lon="12.159021500017582"><ele>329.6666666666667</ele><time>2026-04-12T14:21:17.981Z</time></trkpt><trkpt lat="46.08860058497817" lon="12.158745885082762"><ele>329.0</ele><time>2026-04-12T14:21:18.981Z</time></trkpt><trkpt lat="46.08851286406387" lon="12.158469064869722"><ele>328.0</ele><time>2026-04-12T14:21:19.981Z</time></trkpt><trkpt lat="46.08842304214548" lon="12.158191828566626"><ele>327.0</ele><time>2026-04-12T14:21:20.981Z</time></trkpt><trkpt lat="46.08833597616471" lon="12.157927112183813"><ele>326.0</ele><time>2026-04-12T14:21:21.981Z</time></trkpt><trkpt lat="46.08824846238763" lon="12.157665980922568"><ele>326.0</ele><time>2026-04-12T14:21:22.981Z</time></trkpt><trkpt lat="46.08816284762492" lon="12.157397397400839"><ele>326.0</ele><time>2026-04-12T14:21:23.981Z</time></trkpt><trkpt lat="46.088076152933056" lon="12.157128475292135"><ele>326.0</ele><time>2026-04-12T14:21:24.981Z</time></trkpt><trkpt lat="46.08799372273081" lon="12.15686623148444"><ele>325.6666666666667</ele><time>2026-04-12T14:21:25.981Z</time></trkpt><trkpt lat="46.08791337920059" lon="12.156605022173718"><ele>325.3333333333333</ele><time>2026-04-12T14:21:26.981Z</time></trkpt><trkpt lat="46.08783001475674" lon="12.156338039797872"><ele>325.0</ele><time>2026-04-12T14:21:27.981Z</time></trkpt><trkpt lat="46.08774298897253" lon="12.156073161531932"><ele>324.66666666666663</ele><time>2026-04-12T14:21:28.981Z</time></trkpt><trkpt lat="46.08765457407273" lon="12.155811164549633"><ele>324.3333333333333</ele><time>2026-04-12T14:21:29.981Z</time></trkpt><trkpt lat="46.08754676014161" lon="12.15553836631856"><ele>324.0</ele><time>2026-04-12T14:21:30.981Z</time></trkpt><trkpt lat="46.087449302320344" lon="12.155200216120972"><ele>331.0</ele><time>2026-04-12T14:21:31.981Z</time></trkpt><trkpt lat="46.087327143895095" lon="12.154825441003089"><ele>338.0</ele><time>2026-04-12T14:21:32.981Z</time></trkpt><trkpt lat="46.08719639355121" lon="12.154418494618486"><ele>337.0</ele><time>2026-04-12T14:21:33.981Z</time></trkpt><trkpt lat="46.08705871874726" lon="12.153988480079443"><ele>336.0</ele><time>2026-04-12T14:21:34.981Z</time></trkpt><trkpt lat="46.08691381433972" lon="12.153541851525388"><ele>337.5</ele><time>2026-04-12T14:21:35.981Z</time></trkpt><trkpt lat="46.08676701134325" lon="12.153091513618756"><ele>339.0</ele><time>2026-04-12T14:21:36.981Z</time></trkpt><trkpt lat="46.08665226065766" lon="12.152775455773485"><ele>340.0</ele><time>2026-04-12T14:21:38.981Z</time></trkpt><trkpt lat="46.08654664429275" lon="12.152453459422984"><ele>341.0</ele><time>2026-04-12T14:21:39.981Z</time></trkpt><trkpt lat="46.08643959132618" lon="12.152145918649614"><ele>341.5</ele><time>2026-04-12T14:21:40.981Z</time></trkpt><trkpt lat="46.086338259433106" lon="12.151820796979468"><ele>342.0</ele><time>2026-04-12T14:21:41.981Z</time></trkpt><trkpt lat="46.086244706404656" lon="12.151498670994275"><ele>340.0</ele><time>2026-04-12T14:21:42.981Z</time></trkpt><trkpt lat="46.08613323338912" lon="12.1511734203818"><ele>338.0</ele><time>2026-04-12T14:21:43.981Z</time></trkpt><trkpt lat="46.08602845309792" lon="12.150855126946315"><ele>336.0</ele><time>2026-04-12T14:21:44.981Z</time></trkpt><trkpt lat="46.08592819955314" lon="12.150536713630133"><ele>334.0</ele><time>2026-04-12T14:21:45.981Z</time></trkpt><trkpt lat="46.08582944652002" lon="12.150232356192728"><ele>329.0</ele><time>2026-04-12T14:21:46.981Z</time></trkpt><trkpt lat="46.085726373333685" lon="12.14992639980844"><ele>324.0</ele><time>2026-04-12T14:21:47.981Z</time></trkpt><trkpt lat="46.08562061455407" lon="12.149612038470027"><ele>323.5</ele><time>2026-04-12T14:21:48.981Z</time></trkpt><trkpt lat="46.08551713231409" lon="12.149291279559261"><ele>323.0</ele><time>2026-04-12T14:21:49.981Z</time></trkpt><trkpt lat="46.085420944662346" lon="12.148949783859095"><ele>323.0</ele><time>2026-04-12T14:21:50.981Z</time></trkpt><trkpt lat="46.08529780828143" lon="12.14862830257287"><ele>323.0</ele><time>2026-04-12T14:21:51.981Z</time></trkpt><trkpt lat="46.085199444066866" lon="12.148311395300915"><ele>323.5</ele><time>2026-04-12T14:21:52.981Z</time></trkpt><trkpt lat="46.08509738342973" lon="12.148000042726784"><ele>324.0</ele><time>2026-04-12T14:21:53.981Z</time></trkpt><trkpt lat="46.08500217651724" lon="12.147695721117207"><ele>326.5</ele><time>2026-04-12T14:21:54.981Z</time></trkpt><trkpt lat="46.084906990910035" lon="12.147392979169124"><ele>329.0</ele><time>2026-04-12T14:21:55.981Z</time></trkpt><trkpt lat="46.08480772441483" lon="12.147089976652401"><ele>330.0</ele><time>2026-04-12T14:21:56.981Z</time></trkpt><trkpt lat="46.08471238988482" lon="12.146794410227736"><ele>331.0</ele><time>2026-04-12T14:21:57.981Z</time></trkpt><trkpt lat="46.08461924368885" lon="12.146499528077603"><ele>331.0</ele><time>2026-04-12T14:21:58.981Z</time></trkpt><trkpt lat="46.08452319835623" lon="12.146201236765844"><ele>331.0</ele><time>2026-04-12T14:21:59.981Z</time></trkpt><trkpt lat="46.084456859630855" lon="12.145915057633887"><ele>331.0</ele><time>2026-04-12T14:22:00.981Z</time></trkpt><trkpt lat="46.084388339505274" lon="12.145624296480552"><ele>330.3333333333333</ele><time>2026-04-12T14:22:01.981Z</time></trkpt><trkpt lat="46.08432826384555" lon="12.145349478849853"><ele>329.6666666666667</ele><time>2026-04-12T14:22:02.981Z</time></trkpt><trkpt lat="46.084272282523784" lon="12.145096061267296"><ele>329.0</ele><time>2026-04-12T14:22:03.981Z</time></trkpt><trkpt lat="46.084221552480315" lon="12.14484820477373"><ele>328.33333333333337</ele><time>2026-04-12T14:22:04.981Z</time></trkpt><trkpt lat="46.08417871815247" lon="12.144588757319479"><ele>327.6666666666667</ele><time>2026-04-12T14:22:05.981Z</time></trkpt><trkpt lat="46.08413180279506" lon="12.144334994660744"><ele>327.0</ele><time>2026-04-12T14:22:06.981Z</time></trkpt><trkpt lat="46.084090209433256" lon="12.14410906707394"><ele>328.3333333333333</ele><time>2026-04-12T14:22:07.981Z</time></trkpt><trkpt lat="46.08404740939523" lon="12.143883478847089"><ele>329.66666666666663</ele><time>2026-04-12T14:22:08.981Z</time></trkpt><trkpt lat="46.084011261573956" lon="12.143663942425365"><ele>331.0</ele><time>2026-04-12T14:22:09.981Z</time></trkpt><trkpt lat="46.083973129478885" lon="12.143459172549406"><ele>331.0</ele><time>2026-04-12T14:22:10.981Z</time></trkpt><trkpt lat="46.08394001488623" lon="12.14324820295114"><ele>331.0</ele><time>2026-04-12T14:22:11.981Z</time></trkpt><trkpt lat="46.083897698828245" lon="12.143000805704261"><ele>331.0</ele><time>2026-04-12T14:22:12.981Z</time></trkpt><trkpt lat="46.083847714807455" lon="12.142722877020425"><ele>330.66666666666663</ele><time>2026-04-12T14:22:13.981Z</time></trkpt><trkpt lat="46.08379658936569" lon="12.142436613262667"><ele>330.3333333333333</ele><time>2026-04-12T14:22:14.981Z</time></trkpt><trkpt lat="46.08374629449442" lon="12.142131461355433"><ele>330.0</ele><time>2026-04-12T14:22:15.981Z</time></trkpt><trkpt lat="46.08370047888161" lon="12.141824079612663"><ele>329.5</ele><time>2026-04-12T14:22:16.981Z</time></trkpt><trkpt lat="46.08364052693169" lon="12.141484251399783"><ele>329.0</ele><time>2026-04-12T14:22:17.981Z</time></trkpt><trkpt lat="46.0835752822839" lon="12.141129136583382"><ele>329.0</ele><time>2026-04-12T14:22:18.981Z</time></trkpt><trkpt lat="46.08350976457921" lon="12.14075546846669"><ele>329.0</ele><time>2026-04-12T14:22:19.981Z</time></trkpt><trkpt lat="46.08344366392497" lon="12.140372271007617"><ele>327.5</ele><time>2026-04-12T14:22:20.981Z</time></trkpt><trkpt lat="46.083369006404595" lon="12.13996644001235"><ele>326.0</ele><time>2026-04-12T14:22:21.981Z</time></trkpt><trkpt lat="46.08329760218542" lon="12.139555019299815"><ele>326.5</ele><time>2026-04-12T14:22:22.981Z</time></trkpt><trkpt lat="46.083228731926816" lon="12.139155007104522"><ele>327.0</ele><time>2026-04-12T14:22:23.981Z</time></trkpt><trkpt lat="46.08316611036607" lon="12.138790821803983"><ele>327.0</ele><time>2026-04-12T14:22:24.981Z</time></trkpt><trkpt lat="46.083111001264946" lon="12.138456001798053"><ele>327.0</ele><time>2026-04-12T14:22:25.981Z</time></trkpt><trkpt lat="46.08305618801925" lon="12.138126075126836"><ele>326.0</ele><time>2026-04-12T14:22:26.981Z</time></trkpt><trkpt lat="46.08299726321024" lon="12.137791472476128"><ele>325.0</ele><time>2026-04-12T14:22:27.981Z</time></trkpt><trkpt lat="46.0829418134131" lon="12.137465853283283"><ele>324.3333333333333</ele><time>2026-04-12T14:22:28.981Z</time></trkpt><trkpt lat="46.08289057755911" lon="12.137156040908362"><ele>323.6666666666667</ele><time>2026-04-12T14:22:29.981Z</time></trkpt><trkpt lat="46.08283855073072" lon="12.136855606246533"><ele>323.0</ele><time>2026-04-12T14:22:30.981Z</time></trkpt><trkpt lat="46.082779127367054" lon="12.136570317079737"><ele>323.0</ele><time>2026-04-12T14:22:31.981Z</time></trkpt><trkpt lat="46.08270603883506" lon="12.136286417054956"><ele>323.0</ele><time>2026-04-12T14:22:32.981Z</time></trkpt><trkpt lat="46.082632803524454" lon="12.136012295700647"><ele>323.0</ele><time>2026-04-12T14:22:33.981Z</time></trkpt><trkpt lat="46.082542904147125" lon="12.135724752433438"><ele>321.5</ele><time>2026-04-12T14:22:34.981Z</time></trkpt><trkpt lat="46.082434139649074" lon="12.135442345441618"><ele>320.0</ele><time>2026-04-12T14:22:35.981Z</time></trkpt><trkpt lat="46.08231967759209" lon="12.13515920842469"><ele>319.5</ele><time>2026-04-12T14:22:36.981Z</time></trkpt><trkpt lat="46.08219363915728" lon="12.134876926716828"><ele>319.0</ele><time>2026-04-12T14:22:37.981Z</time></trkpt><trkpt lat="46.08205951723492" lon="12.134606004456776"><ele>319.0</ele><time>2026-04-12T14:22:38.981Z</time></trkpt><trkpt lat="46.081918071699405" lon="12.134348499001165"><ele>319.0</ele><time>2026-04-12T14:22:39.981Z</time></trkpt><trkpt lat="46.081759369857664" lon="12.134094953910205"><ele>318.5</ele><time>2026-04-12T14:22:40.981Z</time></trkpt><trkpt lat="46.081580722455044" lon="12.13384788339281"><ele>318.0</ele><time>2026-04-12T14:22:41.981Z</time></trkpt><trkpt lat="46.081387079052114" lon="12.133602133443723"><ele>318.0</ele><time>2026-04-12T14:22:42.981Z</time></trkpt><trkpt lat="46.081172124479615" lon="12.133357740664781"><ele>318.0</ele><time>2026-04-12T14:22:43.981Z</time></trkpt><trkpt lat="46.080953033664194" lon="12.133116727658361"><ele>319.5</ele><time>2026-04-12T14:22:44.981Z</time></trkpt><trkpt lat="46.08072145618872" lon="12.132870507276637"><ele>321.0</ele><time>2026-04-12T14:22:45.981Z</time></trkpt><trkpt lat="46.08048271955759" lon="12.13261175824301"><ele>321.0</ele><time>2026-04-12T14:22:46.981Z</time></trkpt><trkpt lat="46.080239064459874" lon="12.132343788754563"><ele>321.0</ele><time>2026-04-12T14:22:47.981Z</time></trkpt><trkpt lat="46.07998797680708" lon="12.132071136539537"><ele>321.5</ele><time>2026-04-12T14:22:48.981Z</time></trkpt><trkpt lat="46.07972892613534" lon="12.13179677740697"><ele>322.0</ele><time>2026-04-12T14:22:49.981Z</time></trkpt><trkpt lat="46.07947438100289" lon="12.131519863896077"><ele>322.0</ele><time>2026-04-12T14:22:50.981Z</time></trkpt><trkpt lat="46.07920259883496" lon="12.131231560903007"><ele>322.0</ele><time>2026-04-12T14:22:51.981Z</time></trkpt><trkpt lat="46.078922800439585" lon="12.130937854300857"><ele>321.5</ele><time>2026-04-12T14:22:52.981Z</time></trkpt><trkpt lat="46.07864481767083" lon="12.130642856363613"><ele>321.0</ele><time>2026-04-12T14:22:53.981Z</time></trkpt><trkpt lat="46.07836229464123" lon="12.130340558419995"><ele>321.5</ele><time>2026-04-12T14:22:54.981Z</time></trkpt><trkpt lat="46.0780878579192" lon="12.130051577293036"><ele>322.0</ele><time>2026-04-12T14:22:55.981Z</time></trkpt><trkpt lat="46.077828661359" lon="12.129772326892864"><ele>322.0</ele><time>2026-04-12T14:22:56.981Z</time></trkpt><trkpt lat="46.07757848719709" lon="12.129501613571104"><ele>322.0</ele><time>2026-04-12T14:22:57.981Z</time></trkpt><trkpt lat="46.07732985455558" lon="12.129236411136246"><ele>325.0</ele><time>2026-04-12T14:22:58.981Z</time></trkpt><trkpt lat="46.07709703689695" lon="12.128979497021957"><ele>328.0</ele><time>2026-04-12T14:22:59.981Z</time></trkpt><trkpt lat="46.076866343710876" lon="12.128733157413599"><ele>328.0</ele><time>2026-04-12T14:23:00.981Z</time></trkpt><trkpt lat="46.07663322803986" lon="12.128482789568862"><ele>328.0</ele><time>2026-04-12T14:23:01.981Z</time></trkpt><trkpt lat="46.076394833117725" lon="12.1282263275638"><ele>328.5</ele><time>2026-04-12T14:23:02.981Z</time></trkpt><trkpt lat="46.07614835847157" lon="12.127956597454352"><ele>329.0</ele><time>2026-04-12T14:23:03.981Z</time></trkpt><trkpt lat="46.0758923946999" lon="12.127679046831515"><ele>330.0</ele><time>2026-04-12T14:23:04.981Z</time></trkpt><trkpt lat="46.07564140004148" lon="12.127402658535065"><ele>331.0</ele><time>2026-04-12T14:23:05.981Z</time></trkpt><trkpt lat="46.07540889475557" lon="12.12715186064321"><ele>331.0</ele><time>2026-04-12T14:23:06.981Z</time></trkpt><trkpt lat="46.07519066222672" lon="12.12691938248704"><ele>331.0</ele><time>2026-04-12T14:23:07.981Z</time></trkpt><trkpt lat="46.07498766145915" lon="12.126704898493365"><ele>333.5</ele><time>2026-04-12T14:23:08.981Z</time></trkpt><trkpt lat="46.074793208244294" lon="12.126498063257012"><ele>336.0</ele><time>2026-04-12T14:23:09.982Z</time></trkpt><trkpt lat="46.0746121404507" lon="12.12629823520394"><ele>336.0</ele><time>2026-04-12T14:23:10.982Z</time></trkpt><trkpt lat="46.074447007526956" lon="12.126117352194875"><ele>336.0</ele><time>2026-04-12T14:23:11.982Z</time></trkpt><trkpt lat="46.07428978345392" lon="12.12595244678642"><ele>336.0</ele><time>2026-04-12T14:23:12.982Z</time></trkpt><trkpt lat="46.07414698845753" lon="12.125805881903466"><ele>335.0</ele><time>2026-04-12T14:23:13.982Z</time></trkpt><trkpt lat="46.07401241602079" lon="12.125661065084577"><ele>334.0</ele><time>2026-04-12T14:23:14.982Z</time></trkpt><trkpt lat="46.073878440198676" lon="12.125518379851796"><ele>333.0</ele><time>2026-04-12T14:23:15.982Z</time></trkpt><trkpt lat="46.07374197820501" lon="12.125369851445544"><ele>333.0</ele><time>2026-04-12T14:23:16.982Z</time></trkpt><trkpt lat="46.07360399548795" lon="12.125220272766523"><ele>333.0</ele><time>2026-04-12T14:23:17.982Z</time></trkpt><trkpt lat="46.07345668138371" lon="12.12507040203193"><ele>333.0</ele><time>2026-04-12T14:23:18.982Z</time></trkpt><trkpt lat="46.073300991589406" lon="12.124910893245191"><ele>334.6666666666667</ele><time>2026-04-12T14:23:19.982Z</time></trkpt><trkpt lat="46.07314026922573" lon="12.124745236483554"><ele>336.33333333333337</ele><time>2026-04-12T14:23:20.982Z</time></trkpt><trkpt lat="46.07298156336014" lon="12.124577930680282"><ele>338.0</ele><time>2026-04-12T14:23:21.982Z</time></trkpt><trkpt lat="46.07281813951549" lon="12.124402981470691"><ele>338.0</ele><time>2026-04-12T14:23:22.982Z</time></trkpt><trkpt lat="46.07264789757257" lon="12.124179903474301"><ele>338.0</ele><time>2026-04-12T14:23:23.982Z</time></trkpt><trkpt lat="46.07245991109397" lon="12.12398066767401"><ele>338.0</ele><time>2026-04-12T14:23:24.982Z</time></trkpt><trkpt lat="46.0722958446939" lon="12.123737616459296"><ele>338.0</ele><time>2026-04-12T14:23:25.982Z</time></trkpt><trkpt lat="46.07211247202198" lon="12.123512874126332"><ele>338.0</ele><time>2026-04-12T14:23:26.982Z</time></trkpt><trkpt lat="46.071935669925" lon="12.12324774603315"><ele>338.0</ele><time>2026-04-12T14:23:27.982Z</time></trkpt><trkpt lat="46.071764048801555" lon="12.122955508108832"><ele>340.0</ele><time>2026-04-12T14:23:28.982Z</time></trkpt><trkpt lat="46.07159560240331" lon="12.122654767025276"><ele>342.0</ele><time>2026-04-12T14:23:29.982Z</time></trkpt><trkpt lat="46.07142881596971" lon="12.122341526291866"><ele>342.0</ele><time>2026-04-12T14:23:30.982Z</time></trkpt><trkpt lat="46.07126485223331" lon="12.12202364957415"><ele>342.0</ele><time>2026-04-12T14:23:31.982Z</time></trkpt><trkpt lat="46.07111718681743" lon="12.121704475431821"><ele>341.0</ele><time>2026-04-12T14:23:32.982Z</time></trkpt><trkpt lat="46.070977801484936" lon="12.12139022069655"><ele>340.0</ele><time>2026-04-12T14:23:33.982Z</time></trkpt><trkpt lat="46.07085197426061" lon="12.12108714166777"><ele>341.0</ele><time>2026-04-12T14:23:34.982Z</time></trkpt><trkpt lat="46.07074040977135" lon="12.120802002504032"><ele>342.0</ele><time>2026-04-12T14:23:35.982Z</time></trkpt><trkpt lat="46.07063466228448" lon="12.120540488204668"><ele>343.0</ele><time>2026-04-12T14:23:36.982Z</time></trkpt><trkpt lat="46.070526485702366" lon="12.120274442788114"><ele>343.0</ele><time>2026-04-12T14:23:37.982Z</time></trkpt><trkpt lat="46.0704201706157" lon="12.120014555022658"><ele>343.0</ele><time>2026-04-12T14:23:38.982Z</time></trkpt><trkpt lat="46.07031423721483" lon="12.119755256699841"><ele>343.0</ele><time>2026-04-12T14:23:39.982Z</time></trkpt><trkpt lat="46.07021633047436" lon="12.119497636731031"><ele>343.0</ele><time>2026-04-12T14:23:40.982Z</time></trkpt><trkpt lat="46.07011438132509" lon="12.119245468205266"><ele>343.0</ele><time>2026-04-12T14:23:41.982Z</time></trkpt><trkpt lat="46.070012123865496" lon="12.118999792780413"><ele>343.0</ele><time>2026-04-12T14:23:42.982Z</time></trkpt><trkpt lat="46.06991348791467" lon="12.118744984383593"><ele>344.0</ele><time>2026-04-12T14:23:43.982Z</time></trkpt><trkpt lat="46.069810260949524" lon="12.118488519623229"><ele>345.0</ele><time>2026-04-12T14:23:44.982Z</time></trkpt><trkpt lat="46.06970822935439" lon="12.118233344669571"><ele>346.0</ele><time>2026-04-12T14:23:45.982Z</time></trkpt><trkpt lat="46.06960652548253" lon="12.117963560185698"><ele>344.0</ele><time>2026-04-12T14:23:46.982Z</time></trkpt><trkpt lat="46.0695268028492" lon="12.117699315695361"><ele>342.0</ele><time>2026-04-12T14:23:47.982Z</time></trkpt><trkpt lat="46.06945427399009" lon="12.117432080006132"><ele>340.0</ele><time>2026-04-12T14:23:48.982Z</time></trkpt><trkpt lat="46.06939225617169" lon="12.11715478107738"><ele>337.66666666666663</ele><time>2026-04-12T14:23:49.982Z</time></trkpt><trkpt lat="46.0693370369806" lon="12.116872069357674"><ele>335.3333333333333</ele><time>2026-04-12T14:23:50.982Z</time></trkpt><trkpt lat="46.06929075558764" lon="12.116580994541794"><ele>333.0</ele><time>2026-04-12T14:23:51.982Z</time></trkpt><trkpt lat="46.069248153252424" lon="12.116281738798335"><ele>333.0</ele><time>2026-04-12T14:23:52.982Z</time></trkpt><trkpt lat="46.069207754791336" lon="12.115965704734899"><ele>333.0</ele><time>2026-04-12T14:23:53.982Z</time></trkpt><trkpt lat="46.06917639684382" lon="12.115643540770453"><ele>333.0</ele><time>2026-04-12T14:23:54.982Z</time></trkpt><trkpt lat="46.069157499744016" lon="12.115319429707206"><ele>336.5</ele><time>2026-04-12T14:23:55.982Z</time></trkpt><trkpt lat="46.06914421929874" lon="12.114992674665192"><ele>340.0</ele><time>2026-04-12T14:23:56.982Z</time></trkpt><trkpt lat="46.069122759527055" lon="12.114663205690924"><ele>343.0</ele><time>2026-04-12T14:23:57.982Z</time></trkpt><trkpt lat="46.069102619054895" lon="12.114347560167504"><ele>346.0</ele><time>2026-04-12T14:23:58.982Z</time></trkpt><trkpt lat="46.06908086868245" lon="12.114050695296786"><ele>349.0</ele><time>2026-04-12T14:23:59.982Z</time></trkpt><trkpt lat="46.06906296755408" lon="12.113772000631165"><ele>349.3333333333333</ele><time>2026-04-12T14:24:00.982Z</time></trkpt><trkpt lat="46.069042790274636" lon="12.113499697551639"><ele>349.6666666666667</ele><time>2026-04-12T14:24:01.982Z</time></trkpt><trkpt lat="46.06902170782789" lon="12.11319723853957"><ele>350.0</ele><time>2026-04-12T14:24:02.982Z</time></trkpt><trkpt lat="46.0690029764809" lon="12.112914977070236"><ele>350.0</ele><time>2026-04-12T14:24:03.982Z</time></trkpt><trkpt lat="46.068980958978386" lon="12.112622297322012"><ele>350.0</ele><time>2026-04-12T14:24:04.982Z</time></trkpt><trkpt lat="46.068958606018356" lon="12.112330865557485"><ele>350.0</ele><time>2026-04-12T14:24:05.982Z</time></trkpt><trkpt lat="46.06894119332755" lon="12.112043910091408"><ele>348.6666666666667</ele><time>2026-04-12T14:24:06.982Z</time></trkpt><trkpt lat="46.06891904779023" lon="12.111758656951515"><ele>347.3333333333333</ele><time>2026-04-12T14:24:07.982Z</time></trkpt><trkpt lat="46.06889735228818" lon="12.111490668507114"><ele>346.0</ele><time>2026-04-12T14:24:08.982Z</time></trkpt><trkpt lat="46.06887478655535" lon="12.111216549736973"><ele>344.0</ele><time>2026-04-12T14:24:09.982Z</time></trkpt><trkpt lat="46.06885574268209" lon="12.110947830047733"><ele>342.0</ele><time>2026-04-12T14:24:10.982Z</time></trkpt><trkpt lat="46.06883353802005" lon="12.110684361122532"><ele>340.0</ele><time>2026-04-12T14:24:11.982Z</time></trkpt><trkpt lat="46.068809265820775" lon="12.110431236520187"><ele>339.3333333333333</ele><time>2026-04-12T14:24:12.982Z</time></trkpt><trkpt lat="46.06877869950573" lon="12.11018626888026"><ele>338.6666666666667</ele><time>2026-04-12T14:24:13.982Z</time></trkpt><trkpt lat="46.06874259878827" lon="12.1099333925876"><ele>338.0</ele><time>2026-04-12T14:24:14.982Z</time></trkpt><trkpt lat="46.06870108813906" lon="12.109680346079086"><ele>338.0</ele><time>2026-04-12T14:24:15.982Z</time></trkpt><trkpt lat="46.06865577954644" lon="12.109434389059112"><ele>338.0</ele><time>2026-04-12T14:24:16.982Z</time></trkpt><trkpt lat="46.06860330835479" lon="12.109181114580712"><ele>338.0</ele><time>2026-04-12T14:24:17.982Z</time></trkpt><trkpt lat="46.06854913623448" lon="12.108933249873896"><ele>337.33333333333337</ele><time>2026-04-12T14:24:18.982Z</time></trkpt><trkpt lat="46.06849071713345" lon="12.10869739267652"><ele>336.6666666666667</ele><time>2026-04-12T14:24:19.982Z</time></trkpt><trkpt lat="46.06843106520472" lon="12.10846259304138"><ele>336.0</ele><time>2026-04-12T14:24:20.982Z</time></trkpt><trkpt lat="46.06837396673899" lon="12.10822486349528"><ele>335.6666666666667</ele><time>2026-04-12T14:24:21.982Z</time></trkpt><trkpt lat="46.06831625319145" lon="12.108001919270697"><ele>335.33333333333337</ele><time>2026-04-12T14:24:22.982Z</time></trkpt><trkpt lat="46.0682512172104" lon="12.107770978075193"><ele>335.0</ele><time>2026-04-12T14:24:23.982Z</time></trkpt><trkpt lat="46.0681817852667" lon="12.107527121306227"><ele>335.33333333333337</ele><time>2026-04-12T14:24:24.982Z</time></trkpt><trkpt lat="46.06811491367435" lon="12.10728141722256"><ele>335.6666666666667</ele><time>2026-04-12T14:24:25.982Z</time></trkpt><trkpt lat="46.068039542154935" lon="12.10702087060588"><ele>336.0</ele><time>2026-04-12T14:24:26.982Z</time></trkpt><trkpt lat="46.06795751750321" lon="12.106738646470786"><ele>335.0</ele><time>2026-04-12T14:24:27.982Z</time></trkpt><trkpt lat="46.067884388919786" lon="12.106416295317395"><ele>334.0</ele><time>2026-04-12T14:24:28.982Z</time></trkpt><trkpt lat="46.06779702544462" lon="12.10607030918148"><ele>334.0</ele><time>2026-04-12T14:24:29.982Z</time></trkpt><trkpt lat="46.06772860679482" lon="12.105798495945256"><ele>334.0</ele><time>2026-04-12T14:24:30.982Z</time></trkpt><trkpt lat="46.06765083437917" lon="12.105432294853252"><ele>333.0</ele><time>2026-04-12T14:24:31.982Z</time></trkpt><trkpt lat="46.06756024531804" lon="12.105053237229527"><ele>332.0</ele><time>2026-04-12T14:24:32.982Z</time></trkpt><trkpt lat="46.06746762810807" lon="12.104686313603635"><ele>332.0</ele><time>2026-04-12T14:24:33.982Z</time></trkpt><trkpt lat="46.06738679515814" lon="12.104348126892225"><ele>332.0</ele><time>2026-04-12T14:24:34.982Z</time></trkpt><trkpt lat="46.067305010986054" lon="12.104033133795108"><ele>331.33333333333337</ele><time>2026-04-12T14:24:35.982Z</time></trkpt><trkpt lat="46.067233394766184" lon="12.10373001077148"><ele>330.6666666666667</ele><time>2026-04-12T14:24:36.982Z</time></trkpt><trkpt lat="46.06715941900948" lon="12.103445336438993"><ele>330.0</ele><time>2026-04-12T14:24:37.982Z</time></trkpt><trkpt lat="46.06709128374431" lon="12.10317161504456"><ele>329.6666666666667</ele><time>2026-04-12T14:24:38.982Z</time></trkpt><trkpt lat="46.06701996759656" lon="12.102895059412905"><ele>329.33333333333337</ele><time>2026-04-12T14:24:39.982Z</time></trkpt><trkpt lat="46.06695794502143" lon="12.102623247194773"><ele>329.0</ele><time>2026-04-12T14:24:40.982Z</time></trkpt><trkpt lat="46.0668960649492" lon="12.102357642937271"><ele>328.6666666666667</ele><time>2026-04-12T14:24:41.982Z</time></trkpt><trkpt lat="46.06683319069731" lon="12.102099679753133"><ele>328.3333333333333</ele><time>2026-04-12T14:24:42.982Z</time></trkpt><trkpt lat="46.066775359777665" lon="12.101848623972566"><ele>328.0</ele><time>2026-04-12T14:24:43.982Z</time></trkpt><trkpt lat="46.066715438655315" lon="12.101597814627269"><ele>327.66666666666663</ele><time>2026-04-12T14:24:44.982Z</time></trkpt><trkpt lat="46.06665435268816" lon="12.10134792285411"><ele>327.3333333333333</ele><time>2026-04-12T14:24:45.982Z</time></trkpt><trkpt lat="46.066594955102076" lon="12.101101615664613"><ele>327.0</ele><time>2026-04-12T14:24:46.982Z</time></trkpt><trkpt lat="46.0665316411001" lon="12.100858156305124"><ele>327.0</ele><time>2026-04-12T14:24:47.982Z</time></trkpt><trkpt lat="46.06647660344165" lon="12.100609263504289"><ele>327.0</ele><time>2026-04-12T14:24:48.982Z</time></trkpt><trkpt lat="46.06641705527544" lon="12.10036949168495"><ele>327.0</ele><time>2026-04-12T14:24:49.982Z</time></trkpt><trkpt lat="46.06636001383299" lon="12.100126157307857"><ele>326.3333333333333</ele><time>2026-04-12T14:24:50.982Z</time></trkpt><trkpt lat="46.06630182323088" lon="12.099893704885993"><ele>325.66666666666663</ele><time>2026-04-12T14:24:51.982Z</time></trkpt><trkpt lat="46.06625123135837" lon="12.099655341199396"><ele>325.0</ele><time>2026-04-12T14:24:52.982Z</time></trkpt><trkpt lat="46.06620300524886" lon="12.099419262342863"><ele>325.0</ele><time>2026-04-12T14:24:53.982Z</time></trkpt><trkpt lat="46.0661443151238" lon="12.099168596900522"><ele>325.0</ele><time>2026-04-12T14:24:54.982Z</time></trkpt><trkpt lat="46.06608624541139" lon="12.098915766829569"><ele>325.0</ele><time>2026-04-12T14:24:55.982Z</time></trkpt><trkpt lat="46.06603145672929" lon="12.098658464799113"><ele>324.3333333333333</ele><time>2026-04-12T14:24:56.982Z</time></trkpt><trkpt lat="46.065979937806034" lon="12.09839255820922"><ele>323.6666666666667</ele><time>2026-04-12T14:24:57.982Z</time></trkpt><trkpt lat="46.06592652164019" lon="12.098128754729379"><ele>323.0</ele><time>2026-04-12T14:24:58.982Z</time></trkpt><trkpt lat="46.06587334816648" lon="12.09785887395181"><ele>323.0</ele><time>2026-04-12T14:24:59.982Z</time></trkpt><trkpt lat="46.06581658920344" lon="12.097589720267399"><ele>323.0</ele><time>2026-04-12T14:25:00.982Z</time></trkpt><trkpt lat="46.06576583111821" lon="12.097336288778148"><ele>323.0</ele><time>2026-04-12T14:25:01.982Z</time></trkpt><trkpt lat="46.065711690115" lon="12.097098700753149"><ele>323.33333333333337</ele><time>2026-04-12T14:25:02.982Z</time></trkpt><trkpt lat="46.06566516860639" lon="12.096877089059186"><ele>323.6666666666667</ele><time>2026-04-12T14:25:03.982Z</time></trkpt><trkpt lat="46.065620592345454" lon="12.09666507472943"><ele>324.0</ele><time>2026-04-12T14:25:04.982Z</time></trkpt><trkpt lat="46.06557672839388" lon="12.09645227650648"><ele>324.0</ele><time>2026-04-12T14:25:05.982Z</time></trkpt><trkpt lat="46.0655386123609" lon="12.096254463731936"><ele>324.0</ele><time>2026-04-12T14:25:06.982Z</time></trkpt><trkpt lat="46.065498489655226" lon="12.096067641083689"><ele>324.0</ele><time>2026-04-12T14:25:07.982Z</time></trkpt><trkpt lat="46.06546456326099" lon="12.095886361798506"><ele>324.0</ele><time>2026-04-12T14:25:08.982Z</time></trkpt><trkpt lat="46.065426830011084" lon="12.09570712781941"><ele>323.5</ele><time>2026-04-12T14:25:09.982Z</time></trkpt><trkpt lat="46.06539390749209" lon="12.095538683808568"><ele>323.0</ele><time>2026-04-12T14:25:10.982Z</time></trkpt><trkpt lat="46.06535691178901" lon="12.09535196411077"><ele>322.5</ele><time>2026-04-12T14:25:11.982Z</time></trkpt><trkpt lat="46.06531510122262" lon="12.095160400755741"><ele>322.0</ele><time>2026-04-12T14:25:12.982Z</time></trkpt><trkpt lat="46.06527449245925" lon="12.094977156508035"><ele>321.75</ele><time>2026-04-12T14:25:13.982Z</time></trkpt><trkpt lat="46.06523732322767" lon="12.094797856389429"><ele>321.5</ele><time>2026-04-12T14:25:14.982Z</time></trkpt><trkpt lat="46.06520250160588" lon="12.09462072830004"><ele>321.25</ele><time>2026-04-12T14:25:15.983Z</time></trkpt><trkpt lat="46.06517462653272" lon="12.09446647896465"><ele>321.0</ele><time>2026-04-12T14:25:16.983Z</time></trkpt><trkpt lat="46.06513511557209" lon="12.094292766060036"><ele>321.0</ele><time>2026-04-12T14:25:17.983Z</time></trkpt><trkpt lat="46.06509747976415" lon="12.094115566661237"><ele>321.0</ele><time>2026-04-12T14:25:18.983Z</time></trkpt><trkpt lat="46.065065590511075" lon="12.093935560371552"><ele>321.0</ele><time>2026-04-12T14:25:19.983Z</time></trkpt><trkpt lat="46.065030383013685" lon="12.093773904121464"><ele>321.0</ele><time>2026-04-12T14:25:20.983Z</time></trkpt><trkpt lat="46.06500364776212" lon="12.09360822971658"><ele>321.5</ele><time>2026-04-12T14:25:21.983Z</time></trkpt><trkpt lat="46.06495989461809" lon="12.093448689737734"><ele>322.0</ele><time>2026-04-12T14:25:22.983Z</time></trkpt><trkpt lat="46.06492027509094" lon="12.093275740520383"><ele>322.5</ele><time>2026-04-12T14:25:23.983Z</time></trkpt><trkpt lat="46.064889282522046" lon="12.093103737950985"><ele>323.0</ele><time>2026-04-12T14:25:24.983Z</time></trkpt><trkpt lat="46.064850687459504" lon="12.09292743393581"><ele>322.0</ele><time>2026-04-12T14:25:25.983Z</time></trkpt><trkpt lat="46.064814409455664" lon="12.092748043914547"><ele>321.0</ele><time>2026-04-12T14:25:26.983Z</time></trkpt><trkpt lat="46.064774541437174" lon="12.09255767387164"><ele>320.0</ele><time>2026-04-12T14:25:27.983Z</time></trkpt><trkpt lat="46.06474241530863" lon="12.092358833359235"><ele>319.0</ele><time>2026-04-12T14:25:28.983Z</time></trkpt><trkpt lat="46.06470385923727" lon="12.092164854925135"><ele>319.0</ele><time>2026-04-12T14:25:29.983Z</time></trkpt><trkpt lat="46.06466566281707" lon="12.09196133179854"><ele>319.0</ele><time>2026-04-12T14:25:30.983Z</time></trkpt><trkpt lat="46.064619292452406" lon="12.09175265251092"><ele>319.0</ele><time>2026-04-12T14:25:31.983Z</time></trkpt><trkpt lat="46.06457502570582" lon="12.091539581753528"><ele>319.3333333333333</ele><time>2026-04-12T14:25:32.983Z</time></trkpt><trkpt lat="46.06452605447708" lon="12.091321577922784"><ele>319.6666666666667</ele><time>2026-04-12T14:25:33.983Z</time></trkpt><trkpt lat="46.06448069791942" lon="12.091101175466251"><ele>320.0</ele><time>2026-04-12T14:25:34.983Z</time></trkpt><trkpt lat="46.064434674965376" lon="12.090883137794526"><ele>319.75</ele><time>2026-04-12T14:25:35.983Z</time></trkpt><trkpt lat="46.06439706476352" lon="12.090679466682824"><ele>319.5</ele><time>2026-04-12T14:25:36.983Z</time></trkpt><trkpt lat="46.0643574258305" lon="12.090473178883439"><ele>319.25</ele><time>2026-04-12T14:25:37.983Z</time></trkpt><trkpt lat="46.06432230464081" lon="12.090263845106973"><ele>319.0</ele><time>2026-04-12T14:25:38.983Z</time></trkpt><trkpt lat="46.064271094802365" lon="12.090038318968372"><ele>319.25</ele><time>2026-04-12T14:25:39.983Z</time></trkpt><trkpt lat="46.064232705085296" lon="12.08983258584026"><ele>319.5</ele><time>2026-04-12T14:25:40.983Z</time></trkpt><trkpt lat="46.06419161251023" lon="12.089635432758966"><ele>319.75</ele><time>2026-04-12T14:25:41.983Z</time></trkpt><trkpt lat="46.06415254009924" lon="12.089448083108396"><ele>320.0</ele><time>2026-04-12T14:25:42.983Z</time></trkpt><trkpt lat="46.064120541644144" lon="12.089269941358369"><ele>321.5</ele><time>2026-04-12T14:25:43.983Z</time></trkpt><trkpt lat="46.064083605714885" lon="12.08909206694027"><ele>323.0</ele><time>2026-04-12T14:25:44.983Z</time></trkpt><trkpt lat="46.064042391609334" lon="12.08891539252901"><ele>324.5</ele><time>2026-04-12T14:25:45.983Z</time></trkpt><trkpt lat="46.064013013844786" lon="12.088745435476852"><ele>326.0</ele><time>2026-04-12T14:25:46.983Z</time></trkpt><trkpt lat="46.06397527837575" lon="12.088563484923444"><ele>326.0</ele><time>2026-04-12T14:25:47.983Z</time></trkpt><trkpt lat="46.063937941371776" lon="12.088376845522134"><ele>326.0</ele><time>2026-04-12T14:25:48.983Z</time></trkpt><trkpt lat="46.0639044106051" lon="12.08819499998132"><ele>326.0</ele><time>2026-04-12T14:25:49.983Z</time></trkpt><trkpt lat="46.06386841223561" lon="12.088008995539424"><ele>326.0</ele><time>2026-04-12T14:25:50.983Z</time></trkpt><trkpt lat="46.06382801582977" lon="12.087820391993299"><ele>326.0</ele><time>2026-04-12T14:25:51.983Z</time></trkpt><trkpt lat="46.06378234774143" lon="12.087634493985274"><ele>326.0</ele><time>2026-04-12T14:25:52.983Z</time></trkpt><trkpt lat="46.06373484931234" lon="12.087446724047101"><ele>326.0</ele><time>2026-04-12T14:25:53.983Z</time></trkpt><trkpt lat="46.063681691178026" lon="12.0872625595735"><ele>326.0</ele><time>2026-04-12T14:25:54.983Z</time></trkpt><trkpt lat="46.06363007779603" lon="12.08709016479187"><ele>326.0</ele><time>2026-04-12T14:25:55.983Z</time></trkpt><trkpt lat="46.06355439165035" lon="12.086923761416207"><ele>326.0</ele><time>2026-04-12T14:25:56.983Z</time></trkpt><trkpt lat="46.063464656799034" lon="12.086779314573828"><ele>326.0</ele><time>2026-04-12T14:25:57.983Z</time></trkpt><trkpt lat="46.06335774127479" lon="12.08665484256502"><ele>326.0</ele><time>2026-04-12T14:25:58.983Z</time></trkpt><trkpt lat="46.06324463037879" lon="12.086521856986954"><ele>326.0</ele><time>2026-04-12T14:25:59.983Z</time></trkpt><trkpt lat="46.06314108598779" lon="12.086394366203942"><ele>326.0</ele><time>2026-04-12T14:26:00.983Z</time></trkpt><trkpt lat="46.063032692840785" lon="12.086248579071555"><ele>326.0</ele><time>2026-04-12T14:26:01.983Z</time></trkpt><trkpt lat="46.06292005005902" lon="12.086095071401468"><ele>326.0</ele><time>2026-04-12T14:26:02.983Z</time></trkpt><trkpt lat="46.06280489985633" lon="12.085937284865755"><ele>326.0</ele><time>2026-04-12T14:26:03.983Z</time></trkpt><trkpt lat="46.0626890195306" lon="12.085790053602503"><ele>326.0</ele><time>2026-04-12T14:26:04.983Z</time></trkpt><trkpt lat="46.06257237213828" lon="12.085662672829383"><ele>326.0</ele><time>2026-04-12T14:26:05.983Z</time></trkpt><trkpt lat="46.062454956964885" lon="12.085534105149748"><ele>326.0</ele><time>2026-04-12T14:26:06.983Z</time></trkpt><trkpt lat="46.06233506074588" lon="12.085439076263091"><ele>324.25</ele><time>2026-04-12T14:26:07.983Z</time></trkpt><trkpt lat="46.06221966077995" lon="12.085348081085534"><ele>322.5</ele><time>2026-04-12T14:26:08.983Z</time></trkpt><trkpt lat="46.062094417923774" lon="12.085251857557141"><ele>320.75</ele><time>2026-04-12T14:26:09.983Z</time></trkpt><trkpt lat="46.06196213442833" lon="12.085149242899089"><ele>319.0</ele><time>2026-04-12T14:26:10.983Z</time></trkpt><trkpt lat="46.06183344503788" lon="12.085033727528812"><ele>317.3333333333333</ele><time>2026-04-12T14:26:11.983Z</time></trkpt><trkpt lat="46.06170389984302" lon="12.084897393932067"><ele>315.6666666666667</ele><time>2026-04-12T14:26:12.983Z</time></trkpt><trkpt lat="46.06157357479826" lon="12.084745270890412"><ele>314.0</ele><time>2026-04-12T14:26:13.983Z</time></trkpt><trkpt lat="46.06145025957747" lon="12.084577652870404"><ele>314.0</ele><time>2026-04-12T14:26:14.983Z</time></trkpt><trkpt lat="46.061333533040035" lon="12.084394564359377"><ele>314.0</ele><time>2026-04-12T14:26:15.983Z</time></trkpt><trkpt lat="46.06123171693914" lon="12.084188229125449"><ele>314.0</ele><time>2026-04-12T14:26:16.983Z</time></trkpt><trkpt lat="46.06112425678411" lon="12.08395698684865"><ele>314.33333333333337</ele><time>2026-04-12T14:26:17.983Z</time></trkpt><trkpt lat="46.06101618988566" lon="12.083693953074294"><ele>314.6666666666667</ele><time>2026-04-12T14:26:18.983Z</time></trkpt><trkpt lat="46.06091765799967" lon="12.083397217957554"><ele>315.0</ele><time>2026-04-12T14:26:19.983Z</time></trkpt><trkpt lat="46.06083555571739" lon="12.083111308020058"><ele>314.6666666666667</ele><time>2026-04-12T14:26:20.983Z</time></trkpt><trkpt lat="46.060750196333245" lon="12.082838541938857"><ele>314.33333333333337</ele><time>2026-04-12T14:26:21.983Z</time></trkpt><trkpt lat="46.06067503406524" lon="12.08257093627281"><ele>314.0</ele><time>2026-04-12T14:26:22.983Z</time></trkpt><trkpt lat="46.06059764354997" lon="12.082298909253307"><ele>313.6666666666667</ele><time>2026-04-12T14:26:23.983Z</time></trkpt><trkpt lat="46.060514457163436" lon="12.08203053755063"><ele>313.3333333333333</ele><time>2026-04-12T14:26:24.983Z</time></trkpt><trkpt lat="46.06043025987509" lon="12.081762075098416"><ele>313.0</ele><time>2026-04-12T14:26:25.983Z</time></trkpt><trkpt lat="46.060347875410436" lon="12.081489649762736"><ele>312.3333333333333</ele><time>2026-04-12T14:26:26.983Z</time></trkpt><trkpt lat="46.060269022598746" lon="12.08121400993682"><ele>311.6666666666667</ele><time>2026-04-12T14:26:27.983Z</time></trkpt><trkpt lat="46.06018445205187" lon="12.080929009476748"><ele>311.0</ele><time>2026-04-12T14:26:28.983Z</time></trkpt><trkpt lat="46.06010346689354" lon="12.080644735419629"><ele>310.5</ele><time>2026-04-12T14:26:29.983Z</time></trkpt><trkpt lat="46.06001926969029" lon="12.080353658624361"><ele>310.0</ele><time>2026-04-12T14:26:30.983Z</time></trkpt><trkpt lat="46.05993084558499" lon="12.080045650172627"><ele>307.5</ele><time>2026-04-12T14:26:31.983Z</time></trkpt><trkpt lat="46.05983448177352" lon="12.079718538404533"><ele>305.0</ele><time>2026-04-12T14:26:32.983Z</time></trkpt><trkpt lat="46.059747850580024" lon="12.079404392043045"><ele>305.0</ele><time>2026-04-12T14:26:33.983Z</time></trkpt><trkpt lat="46.05965971292842" lon="12.079117133175343"><ele>305.0</ele><time>2026-04-12T14:26:34.983Z</time></trkpt><trkpt lat="46.059580488310424" lon="12.078844872283106"><ele>305.0</ele><time>2026-04-12T14:26:35.983Z</time></trkpt><trkpt lat="46.05950334817535" lon="12.07857873735498"><ele>305.33333333333337</ele><time>2026-04-12T14:26:36.983Z</time></trkpt><trkpt lat="46.05941982692098" lon="12.078304065637811"><ele>305.6666666666667</ele><time>2026-04-12T14:26:37.983Z</time></trkpt><trkpt lat="46.059338200616935" lon="12.078028969538213"><ele>306.0</ele><time>2026-04-12T14:26:38.983Z</time></trkpt><trkpt lat="46.05926149952205" lon="12.077754885198708"><ele>306.3333333333333</ele><time>2026-04-12T14:26:39.983Z</time></trkpt><trkpt lat="46.05918153615966" lon="12.077479150440954"><ele>306.66666666666663</ele><time>2026-04-12T14:26:40.983Z</time></trkpt><trkpt lat="46.05909398527153" lon="12.077203245951623"><ele>307.0</ele><time>2026-04-12T14:26:41.983Z</time></trkpt><trkpt lat="46.05901278084319" lon="12.076933874744869"><ele>308.3333333333333</ele><time>2026-04-12T14:26:42.983Z</time></trkpt><trkpt lat="46.05892858303292" lon="12.076666207927891"><ele>309.6666666666667</ele><time>2026-04-12T14:26:43.983Z</time></trkpt><trkpt lat="46.05886177842756" lon="12.076418037903121"><ele>311.0</ele><time>2026-04-12T14:26:44.983Z</time></trkpt><trkpt lat="46.05879070474234" lon="12.076175767896311"><ele>311.0</ele><time>2026-04-12T14:26:45.983Z</time></trkpt><trkpt lat="46.058719682713765" lon="12.075933147286756"><ele>311.0</ele><time>2026-04-12T14:26:46.983Z</time></trkpt><trkpt lat="46.05863692260525" lon="12.075697404431835"><ele>311.0</ele><time>2026-04-12T14:26:47.983Z</time></trkpt><trkpt lat="46.05853855391698" lon="12.075476939636236"><ele>311.0</ele><time>2026-04-12T14:26:48.983Z</time></trkpt><trkpt lat="46.05842517873867" lon="12.075266077316288"><ele>311.0</ele><time>2026-04-12T14:26:49.983Z</time></trkpt><trkpt lat="46.0582983680677" lon="12.07507333384292"><ele>311.0</ele><time>2026-04-12T14:26:50.983Z</time></trkpt><trkpt lat="46.05815291219434" lon="12.074898211875533"><ele>309.33333333333337</ele><time>2026-04-12T14:26:51.983Z</time></trkpt><trkpt lat="46.058004876235564" lon="12.074745232888851"><ele>307.6666666666667</ele><time>2026-04-12T14:26:52.983Z</time></trkpt><trkpt lat="46.057851761286415" lon="12.074634751927338"><ele>306.0</ele><time>2026-04-12T14:26:53.983Z</time></trkpt><trkpt lat="46.05769555672949" lon="12.074543874850095"><ele>306.0</ele><time>2026-04-12T14:26:54.983Z</time></trkpt><trkpt lat="46.057537312987684" lon="12.074491600966704"><ele>306.0</ele><time>2026-04-12T14:26:55.983Z</time></trkpt><trkpt lat="46.05737993269157" lon="12.074455662522373"><ele>306.0</ele><time>2026-04-12T14:26:56.983Z</time></trkpt><trkpt lat="46.057227521574376" lon="12.07442104182374"><ele>306.3333333333333</ele><time>2026-04-12T14:26:57.983Z</time></trkpt><trkpt lat="46.05708260792855" lon="12.074385343897433"><ele>306.66666666666663</ele><time>2026-04-12T14:26:58.983Z</time></trkpt><trkpt lat="46.05692050862269" lon="12.07434352782181"><ele>307.0</ele><time>2026-04-12T14:26:59.983Z</time></trkpt><trkpt lat="46.0567776373017" lon="12.074305408016542"><ele>307.0</ele><time>2026-04-12T14:27:00.983Z</time></trkpt><trkpt lat="46.05667005107284" lon="12.074243048387798"><ele>307.0</ele><time>2026-04-12T14:27:01.983Z</time></trkpt><trkpt lat="46.05650755761452" lon="12.074210525177573"><ele>307.0</ele><time>2026-04-12T14:27:02.983Z</time></trkpt><trkpt lat="46.05627125636615" lon="12.074188289723464"><ele>307.0</ele><time>2026-04-12T14:27:03.983Z</time></trkpt><trkpt lat="46.05608084324697" lon="12.074129533354869"><ele>307.0</ele><time>2026-04-12T14:27:04.983Z</time></trkpt><trkpt lat="46.055900101785646" lon="12.07406935077561"><ele>307.0</ele><time>2026-04-12T14:27:05.983Z</time></trkpt><trkpt lat="46.05571281217886" lon="12.073995615853283"><ele>305.66666666666663</ele><time>2026-04-12T14:27:06.983Z</time></trkpt><trkpt lat="46.055522283500025" lon="12.073904055577252"><ele>304.3333333333333</ele><time>2026-04-12T14:27:07.983Z</time></trkpt><trkpt lat="46.05532834296777" lon="12.073800343466761"><ele>303.0</ele><time>2026-04-12T14:27:08.983Z</time></trkpt><trkpt lat="46.05512784851609" lon="12.073685527077235"><ele>305.0</ele><time>2026-04-12T14:27:09.983Z</time></trkpt><trkpt lat="46.05492724775365" lon="12.073556034156363"><ele>307.0</ele><time>2026-04-12T14:27:10.983Z</time></trkpt><trkpt lat="46.054744712841114" lon="12.07342910878368"><ele>309.0</ele><time>2026-04-12T14:27:11.983Z</time></trkpt><trkpt lat="46.05456859848553" lon="12.073301388046954"><ele>309.0</ele><time>2026-04-12T14:27:12.983Z</time></trkpt><trkpt lat="46.05438973320571" lon="12.073157387394183"><ele>309.0</ele><time>2026-04-12T14:27:13.983Z</time></trkpt><trkpt lat="46.05421574535042" lon="12.073000063133904"><ele>309.0</ele><time>2026-04-12T14:27:14.983Z</time></trkpt><trkpt lat="46.05403501435276" lon="12.07282975843401"><ele>309.0</ele><time>2026-04-12T14:27:15.983Z</time></trkpt><trkpt lat="46.053851006082944" lon="12.07264696529989"><ele>309.0</ele><time>2026-04-12T14:27:16.983Z</time></trkpt><trkpt lat="46.05367577291018" lon="12.072431396295892"><ele>306.5</ele><time>2026-04-12T14:27:17.983Z</time></trkpt><trkpt lat="46.05349071005232" lon="12.072235950322623"><ele>304.0</ele><time>2026-04-12T14:27:18.983Z</time></trkpt><trkpt lat="46.053303770983824" lon="12.072043785914355"><ele>308.5</ele><time>2026-04-12T14:27:19.983Z</time></trkpt><trkpt lat="46.05310839854819" lon="12.0718657814066"><ele>313.0</ele><time>2026-04-12T14:27:20.983Z</time></trkpt><trkpt lat="46.05292733435211" lon="12.071669418706291"><ele>312.66666666666663</ele><time>2026-04-12T14:27:21.984Z</time></trkpt><trkpt lat="46.05274403208261" lon="12.071475261418387"><ele>312.3333333333333</ele><time>2026-04-12T14:27:22.984Z</time></trkpt><trkpt lat="46.052563480647606" lon="12.071297324169374"><ele>312.0</ele><time>2026-04-12T14:27:23.984Z</time></trkpt><trkpt lat="46.05238256376929" lon="12.071111007958473"><ele>312.0</ele><time>2026-04-12T14:27:24.984Z</time></trkpt><trkpt lat="46.05220352111249" lon="12.070917775096406"><ele>312.0</ele><time>2026-04-12T14:27:25.984Z</time></trkpt><trkpt lat="46.05203427620153" lon="12.070734199904903"><ele>312.0</ele><time>2026-04-12T14:27:26.984Z</time></trkpt><trkpt lat="46.05186055853424" lon="12.070545440049232"><ele>311.0</ele><time>2026-04-12T14:27:27.984Z</time></trkpt><trkpt lat="46.05168189800874" lon="12.070361487124217"><ele>310.0</ele><time>2026-04-12T14:27:28.984Z</time></trkpt><trkpt lat="46.05150242166494" lon="12.070181418217699"><ele>309.0</ele><time>2026-04-12T14:27:29.984Z</time></trkpt><trkpt lat="46.05132259092881" lon="12.07000095035658"><ele>310.6666666666667</ele><time>2026-04-12T14:27:30.984Z</time></trkpt><trkpt lat="46.05113921289078" lon="12.069814485953527"><ele>312.33333333333337</ele><time>2026-04-12T14:27:31.984Z</time></trkpt><trkpt lat="46.05095925543319" lon="12.069633665012374"><ele>314.0</ele><time>2026-04-12T14:27:32.984Z</time></trkpt><trkpt lat="46.05077778664458" lon="12.069447707648502"><ele>315.33333333333337</ele><time>2026-04-12T14:27:33.984Z</time></trkpt><trkpt lat="46.05059634553539" lon="12.06925974490706"><ele>316.6666666666667</ele><time>2026-04-12T14:27:34.984Z</time></trkpt><trkpt lat="46.05041360589639" lon="12.069069172625548"><ele>318.0</ele><time>2026-04-12T14:27:35.984Z</time></trkpt><trkpt lat="46.05022883205473" lon="12.068882239150593"><ele>316.0</ele><time>2026-04-12T14:27:36.984Z</time></trkpt><trkpt lat="46.050064652440014" lon="12.068712523264505"><ele>314.0</ele><time>2026-04-12T14:27:37.984Z</time></trkpt><trkpt lat="46.04991668467948" lon="12.068553098655448"><ele>312.0</ele><time>2026-04-12T14:27:38.984Z</time></trkpt><trkpt lat="46.04977634817404" lon="12.068402769456394"><ele>309.6666666666667</ele><time>2026-04-12T14:27:39.984Z</time></trkpt><trkpt lat="46.04963288830375" lon="12.068259852629625"><ele>307.33333333333337</ele><time>2026-04-12T14:27:40.984Z</time></trkpt><trkpt lat="46.04948425683887" lon="12.0681031767465"><ele>305.0</ele><time>2026-04-12T14:27:41.984Z</time></trkpt><trkpt lat="46.049336061881505" lon="12.067945888458036"><ele>305.0</ele><time>2026-04-12T14:27:42.984Z</time></trkpt><trkpt lat="46.04919372647238" lon="12.067785969191858"><ele>305.0</ele><time>2026-04-12T14:27:43.984Z</time></trkpt><trkpt lat="46.0490437427751" lon="12.067626415017878"><ele>305.0</ele><time>2026-04-12T14:27:44.984Z</time></trkpt><trkpt lat="46.04889194086401" lon="12.067461089160867"><ele>307.33333333333337</ele><time>2026-04-12T14:27:45.984Z</time></trkpt><trkpt lat="46.04876637378124" lon="12.067256894909105"><ele>309.6666666666667</ele><time>2026-04-12T14:27:46.984Z</time></trkpt><trkpt lat="46.04862331882502" lon="12.067067630253119"><ele>312.0</ele><time>2026-04-12T14:27:47.984Z</time></trkpt><trkpt lat="46.048504147521285" lon="12.066845783975259"><ele>312.0</ele><time>2026-04-12T14:27:48.984Z</time></trkpt><trkpt lat="46.04840079302157" lon="12.06660683332974"><ele>312.0</ele><time>2026-04-12T14:27:49.984Z</time></trkpt><trkpt lat="46.04829091152502" lon="12.066407684656438"><ele>312.0</ele><time>2026-04-12T14:27:50.984Z</time></trkpt><trkpt lat="46.04823438613902" lon="12.066139332140878"><ele>312.6666666666667</ele><time>2026-04-12T14:27:51.984Z</time></trkpt><trkpt lat="46.048171355463666" lon="12.06589946634709"><ele>313.33333333333337</ele><time>2026-04-12T14:27:52.984Z</time></trkpt><trkpt lat="46.0481241713894" lon="12.06565508990696"><ele>314.0</ele><time>2026-04-12T14:27:53.984Z</time></trkpt><trkpt lat="46.048080632475944" lon="12.065407567593942"><ele>314.0</ele><time>2026-04-12T14:27:54.984Z</time></trkpt><trkpt lat="46.04804517197023" lon="12.06515726757428"><ele>314.0</ele><time>2026-04-12T14:27:55.984Z</time></trkpt><trkpt lat="46.04802606739845" lon="12.064913885991894"><ele>314.0</ele><time>2026-04-12T14:27:56.984Z</time></trkpt><trkpt lat="46.04801812573879" lon="12.064677434091665"><ele>313.0</ele><time>2026-04-12T14:27:57.984Z</time></trkpt><trkpt lat="46.04802413584022" lon="12.064455543260308"><ele>312.0</ele><time>2026-04-12T14:27:58.984Z</time></trkpt><trkpt lat="46.04802671045874" lon="12.064233163202234"><ele>311.0</ele><time>2026-04-12T14:27:59.984Z</time></trkpt><trkpt lat="46.04803343200784" lon="12.064007732065612"><ele>311.0</ele><time>2026-04-12T14:28:00.984Z</time></trkpt><trkpt lat="46.048036682791796" lon="12.06377729644432"><ele>311.0</ele><time>2026-04-12T14:28:01.984Z</time></trkpt><trkpt lat="46.048061504241915" lon="12.063575613423586"><ele>311.0</ele><time>2026-04-12T14:28:02.984Z</time></trkpt><trkpt lat="46.048098066596054" lon="12.06342570410929"><ele>311.0</ele><time>2026-04-12T14:28:03.984Z</time></trkpt><trkpt lat="46.04808093545183" lon="12.06318862670357"><ele>311.0</ele><time>2026-04-12T14:28:04.984Z</time></trkpt><trkpt lat="46.04805151631774" lon="12.062951387979082"><ele>311.0</ele><time>2026-04-12T14:28:05.984Z</time></trkpt><trkpt lat="46.04804948545522" lon="12.062753237152359"><ele>311.0</ele><time>2026-04-12T14:28:06.984Z</time></trkpt><trkpt lat="46.04804814710711" lon="12.062559509574454"><ele>311.0</ele><time>2026-04-12T14:28:07.984Z</time></trkpt><trkpt lat="46.04804883390135" lon="12.06235772071297"><ele>311.5</ele><time>2026-04-12T14:28:08.984Z</time></trkpt><trkpt lat="46.0480539420275" lon="12.062160771578654"><ele>312.0</ele><time>2026-04-12T14:28:09.984Z</time></trkpt><trkpt lat="46.048051891068" lon="12.061966517547383"><ele>312.5</ele><time>2026-04-12T14:28:10.984Z</time></trkpt><trkpt lat="46.048050459684184" lon="12.061781905387184"><ele>313.0</ele><time>2026-04-12T14:28:11.984Z</time></trkpt><trkpt lat="46.04804549890693" lon="12.061609712506462"><ele>313.4</ele><time>2026-04-12T14:28:12.984Z</time></trkpt><trkpt lat="46.04805275014073" lon="12.061453582580596"><ele>313.8</ele><time>2026-04-12T14:28:13.984Z</time></trkpt><trkpt lat="46.04805899323558" lon="12.06129847857223"><ele>314.2</ele><time>2026-04-12T14:28:14.984Z</time></trkpt><trkpt lat="46.04806421943138" lon="12.061143040101356"><ele>314.6</ele><time>2026-04-12T14:28:15.984Z</time></trkpt><trkpt lat="46.048078612309" lon="12.060993208330267"><ele>315.0</ele><time>2026-04-12T14:28:16.984Z</time></trkpt><trkpt lat="46.04810773899295" lon="12.060867514528537"><ele>315.4</ele><time>2026-04-12T14:28:17.984Z</time></trkpt><trkpt lat="46.04813012360756" lon="12.060745221158587"><ele>315.8</ele><time>2026-04-12T14:28:18.984Z</time></trkpt><trkpt lat="46.04812738479154" lon="12.060619644832894"><ele>316.2</ele><time>2026-04-12T14:28:19.984Z</time></trkpt><trkpt lat="46.048086533559115" lon="12.060476086630443"><ele>316.6</ele><time>2026-04-12T14:28:20.984Z</time></trkpt><trkpt lat="46.0480364612583" lon="12.060318346457798"><ele>317.0</ele><time>2026-04-12T14:28:21.984Z</time></trkpt><trkpt lat="46.04802490088419" lon="12.060154361365859"><ele>316.0</ele><time>2026-04-12T14:28:22.984Z</time></trkpt><trkpt lat="46.048033327602546" lon="12.059933528623414"><ele>315.0</ele><time>2026-04-12T14:28:23.984Z</time></trkpt><trkpt lat="46.04804594894927" lon="12.05967209375528"><ele>314.0</ele><time>2026-04-12T14:28:24.984Z</time></trkpt><trkpt lat="46.048054267075" lon="12.05937157548281"><ele>313.5</ele><time>2026-04-12T14:28:25.984Z</time></trkpt><trkpt lat="46.0480572958717" lon="12.059026548631923"><ele>313.0</ele><time>2026-04-12T14:28:26.984Z</time></trkpt><trkpt lat="46.04806352863396" lon="12.058699725430003"><ele>313.0</ele><time>2026-04-12T14:28:27.984Z</time></trkpt><trkpt lat="46.04807151262243" lon="12.058402015940947"><ele>313.0</ele><time>2026-04-12T14:28:28.984Z</time></trkpt><trkpt lat="46.04807503134259" lon="12.058131849773721"><ele>313.0</ele><time>2026-04-12T14:28:29.984Z</time></trkpt><trkpt lat="46.04807949697321" lon="12.057875922222104"><ele>312.75</ele><time>2026-04-12T14:28:30.984Z</time></trkpt><trkpt lat="46.048085940562196" lon="12.057646128424553"><ele>312.5</ele><time>2026-04-12T14:28:31.984Z</time></trkpt><trkpt lat="46.048091638331634" lon="12.057437425379284"><ele>312.25</ele><time>2026-04-12T14:28:32.984Z</time></trkpt><trkpt lat="46.048092941260514" lon="12.057242959117671"><ele>312.0</ele><time>2026-04-12T14:28:33.984Z</time></trkpt><trkpt lat="46.048096532386886" lon="12.057063657571117"><ele>311.5</ele><time>2026-04-12T14:28:34.984Z</time></trkpt><trkpt lat="46.0481031252969" lon="12.056890372053811"><ele>311.0</ele><time>2026-04-12T14:28:35.984Z</time></trkpt><trkpt lat="46.048110575614984" lon="12.056718462603719"><ele>310.5</ele><time>2026-04-12T14:28:36.984Z</time></trkpt><trkpt lat="46.04811397327181" lon="12.056538620471148"><ele>310.0</ele><time>2026-04-12T14:28:37.984Z</time></trkpt><trkpt lat="46.04812093205137" lon="12.056355654918722"><ele>310.0</ele><time>2026-04-12T14:28:38.984Z</time></trkpt><trkpt lat="46.04813048909866" lon="12.05616475566097"><ele>310.0</ele><time>2026-04-12T14:28:39.984Z</time></trkpt><trkpt lat="46.0481444373824" lon="12.055969317061264"><ele>310.0</ele><time>2026-04-12T14:28:40.984Z</time></trkpt><trkpt lat="46.04816932821216" lon="12.055780470858469"><ele>310.0</ele><time>2026-04-12T14:28:41.984Z</time></trkpt><trkpt lat="46.04819567912953" lon="12.055584173940963"><ele>310.0</ele><time>2026-04-12T14:28:42.984Z</time></trkpt><trkpt lat="46.04823068975651" lon="12.05540316460464"><ele>310.0</ele><time>2026-04-12T14:28:43.984Z</time></trkpt><trkpt lat="46.04826679108811" lon="12.055221341147211"><ele>310.0</ele><time>2026-04-12T14:28:44.984Z</time></trkpt><trkpt lat="46.04830208652815" lon="12.055043941060848"><ele>310.0</ele><time>2026-04-12T14:28:45.984Z</time></trkpt><trkpt lat="46.04834212427945" lon="12.054876250211965"><ele>310.0</ele><time>2026-04-12T14:28:46.984Z</time></trkpt><trkpt lat="46.048388824176705" lon="12.054711763648372"><ele>310.0</ele><time>2026-04-12T14:28:47.984Z</time></trkpt><trkpt lat="46.04843612805441" lon="12.054563748284513"><ele>310.0</ele><time>2026-04-12T14:28:48.984Z</time></trkpt><trkpt lat="46.048481940181006" lon="12.05440787918904"><ele>310.0</ele><time>2026-04-12T14:28:49.984Z</time></trkpt><trkpt lat="46.048533970576955" lon="12.054234328380891"><ele>310.0</ele><time>2026-04-12T14:28:50.984Z</time></trkpt><trkpt lat="46.04858418691522" lon="12.054085227869237"><ele>310.0</ele><time>2026-04-12T14:28:51.984Z</time></trkpt><trkpt lat="46.04862686701671" lon="12.05393969272627"><ele>310.0</ele><time>2026-04-12T14:28:52.984Z</time></trkpt><trkpt lat="46.04867082053883" lon="12.053791756492714"><ele>310.0</ele><time>2026-04-12T14:28:53.984Z</time></trkpt><trkpt lat="46.048709766123814" lon="12.053623018865705"><ele>310.0</ele><time>2026-04-12T14:28:54.984Z</time></trkpt><trkpt lat="46.048752186730425" lon="12.053431823910596"><ele>310.0</ele><time>2026-04-12T14:28:55.984Z</time></trkpt><trkpt lat="46.04879626765344" lon="12.053244499951388"><ele>310.0</ele><time>2026-04-12T14:28:56.984Z</time></trkpt><trkpt lat="46.04882577236083" lon="12.053015198523926"><ele>310.0</ele><time>2026-04-12T14:28:57.984Z</time></trkpt><trkpt lat="46.048851105899274" lon="12.05277426771723"><ele>309.66666666666663</ele><time>2026-04-12T14:28:58.984Z</time></trkpt><trkpt lat="46.04885322161154" lon="12.052550362546832"><ele>309.3333333333333</ele><time>2026-04-12T14:28:59.984Z</time></trkpt><trkpt lat="46.04885843516779" lon="12.052321311828353"><ele>309.0</ele><time>2026-04-12T14:29:00.984Z</time></trkpt><trkpt lat="46.048873314139264" lon="12.052098959629165"><ele>308.3333333333333</ele><time>2026-04-12T14:29:01.984Z</time></trkpt><trkpt lat="46.048887609403344" lon="12.05185727944165"><ele>307.66666666666663</ele><time>2026-04-12T14:29:02.984Z</time></trkpt><trkpt lat="46.048912430406" lon="12.05158184666405"><ele>307.0</ele><time>2026-04-12T14:29:03.984Z</time></trkpt><trkpt lat="46.04893201579313" lon="12.051265614967924"><ele>307.0</ele><time>2026-04-12T14:29:04.984Z</time></trkpt><trkpt lat="46.048953004740326" lon="12.050935649268041"><ele>307.0</ele><time>2026-04-12T14:29:05.984Z</time></trkpt><trkpt lat="46.0489650478785" lon="12.050594906675101"><ele>306.3333333333333</ele><time>2026-04-12T14:29:06.984Z</time></trkpt><trkpt lat="46.04899503677605" lon="12.050283372348018"><ele>305.6666666666667</ele><time>2026-04-12T14:29:07.984Z</time></trkpt><trkpt lat="46.04902836178187" lon="12.049995679842816"><ele>305.0</ele><time>2026-04-12T14:29:08.984Z</time></trkpt><trkpt lat="46.04906155096194" lon="12.04972858599569"><ele>303.0</ele><time>2026-04-12T14:29:09.984Z</time></trkpt><trkpt lat="46.049099789493404" lon="12.04946763461628"><ele>301.0</ele><time>2026-04-12T14:29:10.984Z</time></trkpt><trkpt lat="46.04914531873871" lon="12.049209552016073"><ele>299.0</ele><time>2026-04-12T14:29:11.984Z</time></trkpt><trkpt lat="46.04919387330529" lon="12.048946688505165"><ele>298.33333333333337</ele><time>2026-04-12T14:29:12.984Z</time></trkpt><trkpt lat="46.049249555544385" lon="12.048693017786546"><ele>297.6666666666667</ele><time>2026-04-12T14:29:13.984Z</time></trkpt><trkpt lat="46.04930585222834" lon="12.048444286883655"><ele>297.0</ele><time>2026-04-12T14:29:14.984Z</time></trkpt><trkpt lat="46.04935343712807" lon="12.0482134064676"><ele>296.25</ele><time>2026-04-12T14:29:15.984Z</time></trkpt><trkpt lat="46.0494031547433" lon="12.04800496940725"><ele>295.5</ele><time>2026-04-12T14:29:16.984Z</time></trkpt><trkpt lat="46.04944331862599" lon="12.047796280150894"><ele>294.75</ele><time>2026-04-12T14:29:17.984Z</time></trkpt><trkpt lat="46.049485702111724" lon="12.047604976557075"><ele>294.0</ele><time>2026-04-12T14:29:18.984Z</time></trkpt><trkpt lat="46.04952659180445" lon="12.047417842520138"><ele>293.6666666666667</ele><time>2026-04-12T14:29:19.984Z</time></trkpt><trkpt lat="46.04957475396341" lon="12.047228737634546"><ele>293.33333333333337</ele><time>2026-04-12T14:29:20.984Z</time></trkpt><trkpt lat="46.04961586087988" lon="12.046984186583718"><ele>293.0</ele><time>2026-04-12T14:29:21.984Z</time></trkpt><trkpt lat="46.049648358092035" lon="12.046696180237712"><ele>292.0</ele><time>2026-04-12T14:29:22.984Z</time></trkpt><trkpt lat="46.04967617961474" lon="12.046368295075819"><ele>291.0</ele><time>2026-04-12T14:29:23.984Z</time></trkpt><trkpt lat="46.04968264629266" lon="12.046006051758699"><ele>290.0</ele><time>2026-04-12T14:29:24.984Z</time></trkpt><trkpt lat="46.04967276365499" lon="12.045609734114194"><ele>289.0</ele><time>2026-04-12T14:29:25.984Z</time></trkpt><trkpt lat="46.04965655486806" lon="12.045195199963008"><ele>288.0</ele><time>2026-04-12T14:29:26.984Z</time></trkpt><trkpt lat="46.04964481994896" lon="12.044778254347564"><ele>287.0</ele><time>2026-04-12T14:29:27.984Z</time></trkpt><trkpt lat="46.04963501388111" lon="12.044400533026836"><ele>285.0</ele><time>2026-04-12T14:29:28.984Z</time></trkpt><trkpt lat="46.04962464556716" lon="12.044057702342936"><ele>283.0</ele><time>2026-04-12T14:29:29.984Z</time></trkpt><trkpt lat="46.049612658336784" lon="12.04373194920441"><ele>283.0</ele><time>2026-04-12T14:29:30.984Z</time></trkpt><trkpt lat="46.04959465426689" lon="12.043423679266834"><ele>283.0</ele><time>2026-04-12T14:29:31.984Z</time></trkpt><trkpt lat="46.04956517955814" lon="12.043127012119843"><ele>283.0</ele><time>2026-04-12T14:29:32.984Z</time></trkpt><trkpt lat="46.049527498323684" lon="12.042837890047014"><ele>283.0</ele><time>2026-04-12T14:29:33.984Z</time></trkpt><trkpt lat="46.0494765239729" lon="12.042549852778519"><ele>283.0</ele><time>2026-04-12T14:29:34.984Z</time></trkpt><trkpt lat="46.04941757505624" lon="12.042265660307626"><ele>283.0</ele><time>2026-04-12T14:29:35.984Z</time></trkpt><trkpt lat="46.04934359955972" lon="12.041981637215557"><ele>283.66666666666663</ele><time>2026-04-12T14:29:36.984Z</time></trkpt><trkpt lat="46.04926879027341" lon="12.041695824813674"><ele>284.3333333333333</ele><time>2026-04-12T14:29:37.984Z</time></trkpt><trkpt lat="46.049210817517334" lon="12.041415054614346"><ele>285.0</ele><time>2026-04-12T14:29:38.984Z</time></trkpt><trkpt lat="46.049138229393094" lon="12.041154614253566"><ele>283.6666666666667</ele><time>2026-04-12T14:29:39.984Z</time></trkpt><trkpt lat="46.049080858790674" lon="12.040900200343266"><ele>282.33333333333337</ele><time>2026-04-12T14:29:40.984Z</time></trkpt><trkpt lat="46.049031629536906" lon="12.040662571395654"><ele>281.0</ele><time>2026-04-12T14:29:41.984Z</time></trkpt><trkpt lat="46.048989509535915" lon="12.040428534941377"><ele>281.0</ele><time>2026-04-12T14:29:42.984Z</time></trkpt><trkpt lat="46.04895914993178" lon="12.040217893658753"><ele>281.0</ele><time>2026-04-12T14:29:43.984Z</time></trkpt><trkpt lat="46.048934329259744" lon="12.040030171593044"><ele>281.0</ele><time>2026-04-12T14:29:44.984Z</time></trkpt><trkpt lat="46.04892081935496" lon="12.03984171953491"><ele>281.0</ele><time>2026-04-12T14:29:45.984Z</time></trkpt><trkpt lat="46.048947897517024" lon="12.039643558516744"><ele>281.0</ele><time>2026-04-12T14:29:46.984Z</time></trkpt><trkpt lat="46.048938884170035" lon="12.03943304308431"><ele>281.0</ele><time>2026-04-12T14:29:47.984Z</time></trkpt><trkpt lat="46.0489246979721" lon="12.039185364654582"><ele>281.0</ele><time>2026-04-12T14:29:48.984Z</time></trkpt><trkpt lat="46.04892320406684" lon="12.038923655570782"><ele>281.0</ele><time>2026-04-12T14:29:49.984Z</time></trkpt><trkpt lat="46.04893047638926" lon="12.038649321261477"><ele>281.0</ele><time>2026-04-12T14:29:50.984Z</time></trkpt><trkpt lat="46.04895538660527" lon="12.038351656478037"><ele>281.0</ele><time>2026-04-12T14:29:51.984Z</time></trkpt><trkpt lat="46.04897796126307" lon="12.038061340569469"><ele>282.5</ele><time>2026-04-12T14:29:52.984Z</time></trkpt><trkpt lat="46.04901771103969" lon="12.037764744401747"><ele>284.0</ele><time>2026-04-12T14:29:53.984Z</time></trkpt><trkpt lat="46.049018870065105" lon="12.037410768158628"><ele>284.5</ele><time>2026-04-12T14:29:54.984Z</time></trkpt><trkpt lat="46.049032823714285" lon="12.037008722818214"><ele>285.0</ele><time>2026-04-12T14:29:55.984Z</time></trkpt><trkpt lat="46.049046751571915" lon="12.036607982732308"><ele>285.0</ele><time>2026-04-12T14:29:56.984Z</time></trkpt><trkpt lat="46.04905929274075" lon="12.036250666971487"><ele>285.0</ele><time>2026-04-12T14:29:57.984Z</time></trkpt><trkpt lat="46.049007012850964" lon="12.03576326959376"><ele>281.0</ele><time>2026-04-12T14:29:58.984Z</time></trkpt><trkpt lat="46.04901910550865" lon="12.035413817539771"><ele>277.0</ele><time>2026-04-12T14:29:59.984Z</time></trkpt><trkpt lat="46.04902790962411" lon="12.035090873098962"><ele>275.3333333333333</ele><time>2026-04-12T14:30:00.984Z</time></trkpt><trkpt lat="46.04903869304817" lon="12.034802863846751"><ele>273.6666666666667</ele><time>2026-04-12T14:30:01.984Z</time></trkpt><trkpt lat="46.049045431536996" lon="12.034541267748644"><ele>272.0</ele><time>2026-04-12T14:30:02.984Z</time></trkpt><trkpt lat="46.04906175556988" lon="12.034285041638569"><ele>271.0</ele><time>2026-04-12T14:30:03.984Z</time></trkpt><trkpt lat="46.04907437616512" lon="12.034029087876641"><ele>270.0</ele><time>2026-04-12T14:30:04.984Z</time></trkpt><trkpt lat="46.049085068634426" lon="12.033771642543584"><ele>269.0</ele><time>2026-04-12T14:30:05.984Z</time></trkpt><trkpt lat="46.04909184734017" lon="12.033503513297083"><ele>270.0</ele><time>2026-04-12T14:30:06.984Z</time></trkpt><trkpt lat="46.04910331107485" lon="12.033229171450776"><ele>271.0</ele><time>2026-04-12T14:30:07.984Z</time></trkpt><trkpt lat="46.049114829341136" lon="12.032946265399051"><ele>272.0</ele><time>2026-04-12T14:30:08.984Z</time></trkpt><trkpt lat="46.04912055611046" lon="12.032663176151983"><ele>268.0</ele><time>2026-04-12T14:30:09.984Z</time></trkpt><trkpt lat="46.04913067958623" lon="12.03239920274614"><ele>264.0</ele><time>2026-04-12T14:30:10.984Z</time></trkpt><trkpt lat="46.04913394772875" lon="12.032143524880217"><ele>260.0</ele><time>2026-04-12T14:30:11.984Z</time></trkpt><trkpt lat="46.04914794702925" lon="12.031886132333858"><ele>259.33333333333337</ele><time>2026-04-12T14:30:12.984Z</time></trkpt><trkpt lat="46.04915503229621" lon="12.031598494673988"><ele>258.6666666666667</ele><time>2026-04-12T14:30:13.984Z</time></trkpt><trkpt lat="46.04916240087094" lon="12.031278989486102"><ele>258.0</ele><time>2026-04-12T14:30:14.984Z</time></trkpt><trkpt lat="46.049175783729055" lon="12.030934255992788"><ele>258.5</ele><time>2026-04-12T14:30:15.984Z</time></trkpt><trkpt lat="46.0491890641703" lon="12.030571490577303"><ele>259.0</ele><time>2026-04-12T14:30:16.984Z</time></trkpt><trkpt lat="46.04921764759665" lon="12.03018511511743"><ele>259.0</ele><time>2026-04-12T14:30:17.984Z</time></trkpt><trkpt lat="46.04921672174988" lon="12.029782514845667"><ele>259.0</ele><time>2026-04-12T14:30:18.984Z</time></trkpt><trkpt lat="46.04923253214369" lon="12.029371550065163"><ele>258.5</ele><time>2026-04-12T14:30:19.984Z</time></trkpt><trkpt lat="46.04925027957237" lon="12.028896890652229"><ele>258.0</ele><time>2026-04-12T14:30:20.984Z</time></trkpt><trkpt lat="46.04926755003994" lon="12.028447345998186"><ele>257.5</ele><time>2026-04-12T14:30:21.984Z</time></trkpt><trkpt lat="46.04928508835028" lon="12.028004869579632"><ele>257.0</ele><time>2026-04-12T14:30:22.984Z</time></trkpt><trkpt lat="46.04930046375946" lon="12.027599107170268"><ele>255.5</ele><time>2026-04-12T14:30:23.984Z</time></trkpt><trkpt lat="46.049319355121845" lon="12.027198355206071"><ele>254.0</ele><time>2026-04-12T14:30:24.984Z</time></trkpt><trkpt lat="46.04933763712366" lon="12.026794542048401"><ele>254.5</ele><time>2026-04-12T14:30:25.984Z</time></trkpt><trkpt lat="46.04935364907965" lon="12.026383897167811"><ele>255.0</ele><time>2026-04-12T14:30:26.984Z</time></trkpt><trkpt lat="46.049365644960474" lon="12.02596853064068"><ele>255.5</ele><time>2026-04-12T14:30:27.984Z</time></trkpt><trkpt lat="46.0493809200548" lon="12.025539244981509"><ele>256.0</ele><time>2026-04-12T14:30:28.984Z</time></trkpt><trkpt lat="46.049391854041865" lon="12.025093328576085"><ele>255.0</ele><time>2026-04-12T14:30:29.984Z</time></trkpt><trkpt lat="46.04940596245796" lon="12.024649342185043"><ele>254.0</ele><time>2026-04-12T14:30:30.984Z</time></trkpt><trkpt lat="46.04942044903638" lon="12.024251814382248"><ele>255.0</ele><time>2026-04-12T14:30:31.984Z</time></trkpt><trkpt lat="46.04943608346279" lon="12.023869932212158"><ele>256.0</ele><time>2026-04-12T14:30:32.984Z</time></trkpt><trkpt lat="46.04945220686554" lon="12.023484922252848"><ele>256.0</ele><time>2026-04-12T14:30:33.984Z</time></trkpt><trkpt lat="46.04946929314814" lon="12.023101176240505"><ele>256.0</ele><time>2026-04-12T14:30:34.984Z</time></trkpt><trkpt lat="46.049483281176535" lon="12.022717656469096"><ele>255.5</ele><time>2026-04-12T14:30:35.984Z</time></trkpt><trkpt lat="46.04949602473882" lon="12.02233277585132"><ele>255.0</ele><time>2026-04-12T14:30:36.984Z</time></trkpt><trkpt lat="46.0495085273806" lon="12.021941722804952"><ele>253.5</ele><time>2026-04-12T14:30:37.984Z</time></trkpt><trkpt lat="46.04952191444469" lon="12.021548649853337"><ele>252.0</ele><time>2026-04-12T14:30:38.984Z</time></trkpt><trkpt lat="46.04953484019884" lon="12.021163038886245"><ele>251.5</ele><time>2026-04-12T14:30:39.984Z</time></trkpt><trkpt lat="46.04953856126247" lon="12.020793615429362"><ele>251.0</ele><time>2026-04-12T14:30:40.984Z</time></trkpt><trkpt lat="46.04952575631828" lon="12.020436084142984"><ele>251.0</ele><time>2026-04-12T14:30:41.984Z</time></trkpt><trkpt lat="46.04950644146812" lon="12.020077802497639"><ele>251.0</ele><time>2026-04-12T14:30:42.984Z</time></trkpt><trkpt lat="46.04946858969336" lon="12.019718782263821"><ele>249.5</ele><time>2026-04-12T14:30:43.984Z</time></trkpt><trkpt lat="46.04942615490649" lon="12.019360239078361"><ele>248.0</ele><time>2026-04-12T14:30:44.984Z</time></trkpt><trkpt lat="46.04937078730571" lon="12.019011555598226"><ele>248.0</ele><time>2026-04-12T14:30:45.984Z</time></trkpt><trkpt lat="46.04931170435356" lon="12.018674866124835"><ele>248.0</ele><time>2026-04-12T14:30:46.984Z</time></trkpt><trkpt lat="46.04923922350472" lon="12.018353772891118"><ele>248.5</ele><time>2026-04-12T14:30:47.984Z</time></trkpt><trkpt lat="46.04915770554557" lon="12.018042273368442"><ele>249.0</ele><time>2026-04-12T14:30:48.984Z</time></trkpt><trkpt lat="46.04907058375686" lon="12.017733704972276"><ele>248.5</ele><time>2026-04-12T14:30:49.984Z</time></trkpt><trkpt lat="46.04896616348207" lon="12.017428395284151"><ele>248.0</ele><time>2026-04-12T14:30:50.984Z</time></trkpt><trkpt lat="46.04886094635874" lon="12.017132787018934"><ele>248.0</ele><time>2026-04-12T14:30:51.984Z</time></trkpt><trkpt lat="46.04874173987078" lon="12.01683290158695"><ele>248.0</ele><time>2026-04-12T14:30:52.984Z</time></trkpt><trkpt lat="46.04861751355057" lon="12.016533501092448"><ele>245.5</ele><time>2026-04-12T14:30:53.984Z</time></trkpt><trkpt lat="46.048491650740544" lon="12.016240470902524"><ele>243.0</ele><time>2026-04-12T14:30:54.984Z</time></trkpt><trkpt lat="46.048377562176555" lon="12.015966968943014"><ele>245.33333333333331</ele><time>2026-04-12T14:30:55.984Z</time></trkpt><trkpt lat="46.0482684683955" lon="12.015698867415312"><ele>247.66666666666666</ele><time>2026-04-12T14:30:56.984Z</time></trkpt><trkpt lat="46.048161434608645" lon="12.015441130762454"><ele>250.0</ele><time>2026-04-12T14:30:57.984Z</time></trkpt><trkpt lat="46.048054648021086" lon="12.015185329339982"><ele>248.66666666666666</ele><time>2026-04-12T14:30:58.984Z</time></trkpt><trkpt lat="46.047955328122654" lon="12.014937837175031"><ele>247.33333333333331</ele><time>2026-04-12T14:30:59.984Z</time></trkpt><trkpt lat="46.0478507905226" lon="12.01468185016125"><ele>246.0</ele><time>2026-04-12T14:31:00.984Z</time></trkpt><trkpt lat="46.047737024420364" lon="12.014411830303876"><ele>246.66666666666669</ele><time>2026-04-12T14:31:01.984Z</time></trkpt><trkpt lat="46.04762743001574" lon="12.014142728217283"><ele>247.33333333333334</ele><time>2026-04-12T14:31:02.984Z</time></trkpt><trkpt lat="46.04750977516464" lon="12.013864301624368"><ele>248.0</ele><time>2026-04-12T14:31:03.984Z</time></trkpt><trkpt lat="46.04739006978128" lon="12.013572591603177"><ele>246.0</ele><time>2026-04-12T14:31:04.984Z</time></trkpt><trkpt lat="46.04725844081868" lon="12.013262700391309"><ele>244.0</ele><time>2026-04-12T14:31:05.984Z</time></trkpt><trkpt lat="46.04712310682802" lon="12.012939127177466"><ele>244.0</ele><time>2026-04-12T14:31:06.984Z</time></trkpt><trkpt lat="46.046981804377005" lon="12.012600162571644"><ele>244.0</ele><time>2026-04-12T14:31:07.984Z</time></trkpt><trkpt lat="46.04684942740883" lon="12.012276717578883"><ele>244.0</ele><time>2026-04-12T14:31:08.984Z</time></trkpt><trkpt lat="46.04672389039475" lon="12.011970148003462"><ele>244.0</ele><time>2026-04-12T14:31:09.984Z</time></trkpt><trkpt lat="46.04660844913382" lon="12.011686358462914"><ele>243.66666666666666</ele><time>2026-04-12T14:31:10.984Z</time></trkpt><trkpt lat="46.04649876577144" lon="12.011418380489273"><ele>243.33333333333331</ele><time>2026-04-12T14:31:11.984Z</time></trkpt><trkpt lat="46.046395284292814" lon="12.011166596301477"><ele>243.0</ele><time>2026-04-12T14:31:12.984Z</time></trkpt><trkpt lat="46.04630066970565" lon="12.010930441129965"><ele>242.33333333333331</ele><time>2026-04-12T14:31:13.984Z</time></trkpt><trkpt lat="46.04620574267029" lon="12.010708548025887"><ele>241.66666666666666</ele><time>2026-04-12T14:31:14.984Z</time></trkpt><trkpt lat="46.04609587512017" lon="12.010490452758072"><ele>241.0</ele><time>2026-04-12T14:31:15.984Z</time></trkpt><trkpt lat="46.045958290892194" lon="12.010281473484664"><ele>241.0</ele><time>2026-04-12T14:31:16.984Z</time></trkpt><trkpt lat="46.045795249690364" lon="12.010093045407183"><ele>241.0</ele><time>2026-04-12T14:31:17.984Z</time></trkpt><trkpt lat="46.04561281467213" lon="12.00993036704119"><ele>241.0</ele><time>2026-04-12T14:31:18.984Z</time></trkpt><trkpt lat="46.045409324525295" lon="12.00980415437406"><ele>241.33333333333331</ele><time>2026-04-12T14:31:19.984Z</time></trkpt><trkpt lat="46.04520633080181" lon="12.00971093752859"><ele>241.66666666666669</ele><time>2026-04-12T14:31:20.984Z</time></trkpt><trkpt lat="46.045012753955824" lon="12.009648037558279"><ele>242.0</ele><time>2026-04-12T14:31:21.984Z</time></trkpt><trkpt lat="46.0448098137919" lon="12.009609085888481"><ele>242.0</ele><time>2026-04-12T14:31:22.984Z</time></trkpt><trkpt lat="46.044602557468174" lon="12.009613591696558"><ele>242.0</ele><time>2026-04-12T14:31:23.984Z</time></trkpt><trkpt lat="46.044389058006836" lon="12.009656076362358"><ele>242.0</ele><time>2026-04-12T14:31:24.984Z</time></trkpt><trkpt lat="46.0441864395131" lon="12.009732131172496"><ele>242.33333333333334</ele><time>2026-04-12T14:31:25.984Z</time></trkpt><trkpt lat="46.043997336572644" lon="12.00984220991413"><ele>242.66666666666669</ele><time>2026-04-12T14:31:26.984Z</time></trkpt><trkpt lat="46.04383594649465" lon="12.009966422647194"><ele>243.0</ele><time>2026-04-12T14:31:27.984Z</time></trkpt><trkpt lat="46.043694877404114" lon="12.01009955159137"><ele>243.75</ele><time>2026-04-12T14:31:28.984Z</time></trkpt><trkpt lat="46.04355229994874" lon="12.01020645983934"><ele>244.5</ele><time>2026-04-12T14:31:29.984Z</time></trkpt><trkpt lat="46.04342177551644" lon="12.010324585839458"><ele>245.25</ele><time>2026-04-12T14:31:30.984Z</time></trkpt><trkpt lat="46.043309343407316" lon="12.01042770286952"><ele>246.0</ele><time>2026-04-12T14:31:31.984Z</time></trkpt><trkpt lat="46.04321088381974" lon="12.010521515952432"><ele>246.60000000000002</ele><time>2026-04-12T14:31:32.984Z</time></trkpt><trkpt lat="46.04313374940153" lon="12.010617983450004"><ele>247.20000000000002</ele><time>2026-04-12T14:31:33.985Z</time></trkpt><trkpt lat="46.04306343472324" lon="12.010679830977976"><ele>247.79999999999998</ele><time>2026-04-12T14:31:34.985Z</time></trkpt><trkpt lat="46.04296009969137" lon="12.010736571370161"><ele>248.39999999999998</ele><time>2026-04-12T14:31:36.985Z</time></trkpt><trkpt lat="46.04285010091695" lon="12.010683883439288"><ele>249.0</ele><time>2026-04-12T14:31:38.985Z</time></trkpt><trkpt lat="46.04277582273915" lon="12.010532820407462"><ele>249.0</ele><time>2026-04-12T14:31:40.985Z</time></trkpt><trkpt lat="46.042734768534814" lon="12.01042354538207"><ele>249.0</ele><time>2026-04-12T14:31:41.985Z</time></trkpt><trkpt lat="46.04268075281633" lon="12.010264691984299"><ele>249.0</ele><time>2026-04-12T14:31:42.985Z</time></trkpt><trkpt lat="46.04262050004557" lon="12.010091962117254"><ele>249.0</ele><time>2026-04-12T14:31:43.985Z</time></trkpt><trkpt lat="46.04255933167695" lon="12.009917956292925"><ele>249.25</ele><time>2026-04-12T14:31:44.985Z</time></trkpt><trkpt lat="46.04249406398596" lon="12.009763281489477"><ele>249.5</ele><time>2026-04-12T14:31:45.985Z</time></trkpt><trkpt lat="46.042431333445265" lon="12.009607458042083"><ele>249.75</ele><time>2026-04-12T14:31:46.985Z</time></trkpt><trkpt lat="46.0423570623455" lon="12.009429493134219"><ele>250.0</ele><time>2026-04-12T14:31:47.985Z</time></trkpt><trkpt lat="46.04227071580366" lon="12.009232855556663"><ele>249.66666666666666</ele><time>2026-04-12T14:31:48.985Z</time></trkpt><trkpt lat="46.042179532017215" lon="12.008989670697286"><ele>249.33333333333331</ele><time>2026-04-12T14:31:49.985Z</time></trkpt><trkpt lat="46.0420955719802" lon="12.008797692860977"><ele>249.0</ele><time>2026-04-12T14:31:50.985Z</time></trkpt><trkpt lat="46.04199896314072" lon="12.008620783293777"><ele>249.0</ele><time>2026-04-12T14:31:51.985Z</time></trkpt><trkpt lat="46.041916597861615" lon="12.008403763811838"><ele>249.0</ele><time>2026-04-12T14:31:52.985Z</time></trkpt><trkpt lat="46.04182638522533" lon="12.00819992339731"><ele>249.0</ele><time>2026-04-12T14:31:53.985Z</time></trkpt><trkpt lat="46.041740547487315" lon="12.00800626430213"><ele>248.66666666666669</ele><time>2026-04-12T14:31:54.985Z</time></trkpt><trkpt lat="46.041653469702176" lon="12.007785626101464"><ele>248.33333333333334</ele><time>2026-04-12T14:31:55.985Z</time></trkpt><trkpt lat="46.04156510176446" lon="12.007582265328407"><ele>248.0</ele><time>2026-04-12T14:31:56.985Z</time></trkpt><trkpt lat="46.04147844896183" lon="12.007382851249076"><ele>247.66666666666669</ele><time>2026-04-12T14:31:57.985Z</time></trkpt><trkpt lat="46.04137718091801" lon="12.007191753959454"><ele>247.33333333333331</ele><time>2026-04-12T14:31:58.985Z</time></trkpt><trkpt lat="46.04128192280413" lon="12.00697128437126"><ele>247.0</ele><time>2026-04-12T14:31:59.985Z</time></trkpt><trkpt lat="46.041191310279956" lon="12.006756997627887"><ele>246.66666666666666</ele><time>2026-04-12T14:32:00.985Z</time></trkpt><trkpt lat="46.041105336209185" lon="12.006566458976351"><ele>246.33333333333331</ele><time>2026-04-12T14:32:01.985Z</time></trkpt><trkpt lat="46.04101589048549" lon="12.006371044135374"><ele>246.0</ele><time>2026-04-12T14:32:02.985Z</time></trkpt><trkpt lat="46.04093462241969" lon="12.006181582502597"><ele>246.0</ele><time>2026-04-12T14:32:03.985Z</time></trkpt><trkpt lat="46.040845472696475" lon="12.005976151110328"><ele>246.0</ele><time>2026-04-12T14:32:04.985Z</time></trkpt><trkpt lat="46.04076673370659" lon="12.0057461687686"><ele>246.0</ele><time>2026-04-12T14:32:05.985Z</time></trkpt><trkpt lat="46.04066817050606" lon="12.005551142890868"><ele>246.0</ele><time>2026-04-12T14:32:06.985Z</time></trkpt><trkpt lat="46.04057410348669" lon="12.005328973436109"><ele>246.0</ele><time>2026-04-12T14:32:07.985Z</time></trkpt><trkpt lat="46.040482154099664" lon="12.005114687344312"><ele>246.0</ele><time>2026-04-12T14:32:08.985Z</time></trkpt><trkpt lat="46.04038776371872" lon="12.00490452941007"><ele>245.66666666666669</ele><time>2026-04-12T14:32:09.985Z</time></trkpt><trkpt lat="46.04028968166994" lon="12.004691467530103"><ele>245.33333333333334</ele><time>2026-04-12T14:32:10.985Z</time></trkpt><trkpt lat="46.040196107815795" lon="12.00448089891936"><ele>245.0</ele><time>2026-04-12T14:32:11.985Z</time></trkpt><trkpt lat="46.04010094262338" lon="12.004270284145361"><ele>244.33333333333334</ele><time>2026-04-12T14:32:12.985Z</time></trkpt><trkpt lat="46.040010329192654" lon="12.004061612026623"><ele>243.66666666666669</ele><time>2026-04-12T14:32:13.985Z</time></trkpt><trkpt lat="46.03991754631434" lon="12.003862434596714"><ele>243.0</ele><time>2026-04-12T14:32:14.985Z</time></trkpt><trkpt lat="46.0398273482607" lon="12.003656315791954"><ele>243.0</ele><time>2026-04-12T14:32:15.985Z</time></trkpt><trkpt lat="46.03972512209062" lon="12.00345498824085"><ele>243.0</ele><time>2026-04-12T14:32:16.985Z</time></trkpt><trkpt lat="46.03961496274983" lon="12.003247985302833"><ele>243.0</ele><time>2026-04-12T14:32:17.985Z</time></trkpt><trkpt lat="46.03949963668464" lon="12.003038070696794"><ele>243.0</ele><time>2026-04-12T14:32:18.985Z</time></trkpt><trkpt lat="46.039385213778594" lon="12.002839444012997"><ele>243.0</ele><time>2026-04-12T14:32:19.985Z</time></trkpt><trkpt lat="46.039273617097685" lon="12.002658263616654"><ele>243.0</ele><time>2026-04-12T14:32:20.985Z</time></trkpt><trkpt lat="46.039168091135416" lon="12.002478832268132"><ele>243.0</ele><time>2026-04-12T14:32:21.985Z</time></trkpt><trkpt lat="46.039059974592135" lon="12.002294439598037"><ele>243.0</ele><time>2026-04-12T14:32:22.985Z</time></trkpt><trkpt lat="46.03895147996624" lon="12.002110236677005"><ele>243.0</ele><time>2026-04-12T14:32:23.985Z</time></trkpt><trkpt lat="46.0388381829963" lon="12.001923465618795"><ele>243.0</ele><time>2026-04-12T14:32:24.985Z</time></trkpt><trkpt lat="46.03872448925699" lon="12.001725985193529"><ele>243.0</ele><time>2026-04-12T14:32:25.985Z</time></trkpt><trkpt lat="46.03861704363179" lon="12.001505114117808"><ele>243.0</ele><time>2026-04-12T14:32:26.985Z</time></trkpt><trkpt lat="46.03851623363059" lon="12.001285587365755"><ele>243.33333333333331</ele><time>2026-04-12T14:32:27.985Z</time></trkpt><trkpt lat="46.03842751583043" lon="12.0010781155479"><ele>243.66666666666666</ele><time>2026-04-12T14:32:28.985Z</time></trkpt><trkpt lat="46.0383501921065" lon="12.000875715232393"><ele>244.0</ele><time>2026-04-12T14:32:29.985Z</time></trkpt><trkpt lat="46.03827627978711" lon="12.000671315052122"><ele>243.0</ele><time>2026-04-12T14:32:30.985Z</time></trkpt><trkpt lat="46.038217575639976" lon="12.000450409352833"><ele>242.0</ele><time>2026-04-12T14:32:31.985Z</time></trkpt><trkpt lat="46.038152784812524" lon="12.000219522943734"><ele>241.0</ele><time>2026-04-12T14:32:32.985Z</time></trkpt><trkpt lat="46.03809607190644" lon="11.999989998918837"><ele>241.0</ele><time>2026-04-12T14:32:33.985Z</time></trkpt><trkpt lat="46.03804372078061" lon="11.9997546077287"><ele>241.0</ele><time>2026-04-12T14:32:34.985Z</time></trkpt><trkpt lat="46.037999344072965" lon="11.999529893406166"><ele>241.0</ele><time>2026-04-12T14:32:35.985Z</time></trkpt><trkpt lat="46.03795664796215" lon="11.999294536298741"><ele>241.33333333333331</ele><time>2026-04-12T14:32:36.985Z</time></trkpt><trkpt lat="46.037916164359196" lon="11.999045528665501"><ele>241.66666666666669</ele><time>2026-04-12T14:32:37.985Z</time></trkpt><trkpt lat="46.037896208018616" lon="11.998782839693149"><ele>242.0</ele><time>2026-04-12T14:32:38.985Z</time></trkpt><trkpt lat="46.03784474433332" lon="11.998527819552539"><ele>241.0</ele><time>2026-04-12T14:32:39.985Z</time></trkpt><trkpt lat="46.03780705741618" lon="11.998260729515833"><ele>240.0</ele><time>2026-04-12T14:32:40.985Z</time></trkpt><trkpt lat="46.037787625457355" lon="11.997973084516536"><ele>239.0</ele><time>2026-04-12T14:32:41.985Z</time></trkpt><trkpt lat="46.03776359897716" lon="11.997657908572217"><ele>240.0</ele><time>2026-04-12T14:32:42.985Z</time></trkpt><trkpt lat="46.03777147185167" lon="11.997300215227513"><ele>241.0</ele><time>2026-04-12T14:32:43.985Z</time></trkpt><trkpt lat="46.03770702582869" lon="11.996921783107968"><ele>241.5</ele><time>2026-04-12T14:32:44.985Z</time></trkpt><trkpt lat="46.03768352817193" lon="11.996518012256614"><ele>242.0</ele><time>2026-04-12T14:32:45.985Z</time></trkpt><trkpt lat="46.03768178151921" lon="11.996127511541314"><ele>242.5</ele><time>2026-04-12T14:32:46.985Z</time></trkpt><trkpt lat="46.037670872397264" lon="11.995789998100127"><ele>243.0</ele><time>2026-04-12T14:32:47.985Z</time></trkpt><trkpt lat="46.03780368899591" lon="11.995490437089837"><ele>243.0</ele><time>2026-04-12T14:32:48.985Z</time></trkpt><trkpt lat="46.03782650565214" lon="11.995193948168145"><ele>243.0</ele><time>2026-04-12T14:32:49.985Z</time></trkpt><trkpt lat="46.037847635466875" lon="11.994979780013505"><ele>243.0</ele><time>2026-04-12T14:32:50.985Z</time></trkpt><trkpt lat="46.037872551100286" lon="11.994742971238667"><ele>242.66666666666669</ele><time>2026-04-12T14:32:51.985Z</time></trkpt><trkpt lat="46.03788960275405" lon="11.994493026784035"><ele>242.33333333333334</ele><time>2026-04-12T14:32:52.985Z</time></trkpt><trkpt lat="46.037886770972044" lon="11.994234431303164"><ele>242.0</ele><time>2026-04-12T14:32:53.985Z</time></trkpt><trkpt lat="46.03791190960473" lon="11.993993204396395"><ele>241.33333333333334</ele><time>2026-04-12T14:32:54.985Z</time></trkpt><trkpt lat="46.03793730750089" lon="11.993755897497124"><ele>240.66666666666669</ele><time>2026-04-12T14:32:55.985Z</time></trkpt><trkpt lat="46.03796308132484" lon="11.993519746044448"><ele>240.0</ele><time>2026-04-12T14:32:56.985Z</time></trkpt><trkpt lat="46.0379850970983" lon="11.993286452541092"><ele>240.0</ele><time>2026-04-12T14:32:57.985Z</time></trkpt><trkpt lat="46.03800380413371" lon="11.993054577809817"><ele>240.0</ele><time>2026-04-12T14:32:58.985Z</time></trkpt><trkpt lat="46.03804166527541" lon="11.992808439063458"><ele>240.0</ele><time>2026-04-12T14:32:59.985Z</time></trkpt><trkpt lat="46.038048579010784" lon="11.992575812098869"><ele>240.25</ele><time>2026-04-12T14:33:00.985Z</time></trkpt><trkpt lat="46.03808232633709" lon="11.992377339640258"><ele>240.5</ele><time>2026-04-12T14:33:01.985Z</time></trkpt><trkpt lat="46.03811050243511" lon="11.992174795700441"><ele>240.75</ele><time>2026-04-12T14:33:02.985Z</time></trkpt><trkpt lat="46.038136665981504" lon="11.991965200197212"><ele>241.0</ele><time>2026-04-12T14:33:03.985Z</time></trkpt><trkpt lat="46.038158621289995" lon="11.991756469019121"><ele>240.66666666666666</ele><time>2026-04-12T14:33:04.985Z</time></trkpt><trkpt lat="46.03817880255541" lon="11.991535507374817"><ele>240.33333333333331</ele><time>2026-04-12T14:33:05.985Z</time></trkpt><trkpt lat="46.038205956621894" lon="11.991319871399547"><ele>240.0</ele><time>2026-04-12T14:33:06.985Z</time></trkpt><trkpt lat="46.038222450947956" lon="11.991067782461581"><ele>240.0</ele><time>2026-04-12T14:33:07.985Z</time></trkpt><trkpt lat="46.03824090071605" lon="11.990783114671512"><ele>240.0</ele><time>2026-04-12T14:33:08.985Z</time></trkpt><trkpt lat="46.03827594456444" lon="11.990485807825163"><ele>240.0</ele><time>2026-04-12T14:33:09.985Z</time></trkpt><trkpt lat="46.03829705206137" lon="11.990247627083463"><ele>239.66666666666669</ele><time>2026-04-12T14:33:10.985Z</time></trkpt><trkpt lat="46.038294858525575" lon="11.990007178602147"><ele>239.33333333333334</ele><time>2026-04-12T14:33:11.985Z</time></trkpt><trkpt lat="46.03826517468938" lon="11.989737689166597"><ele>239.0</ele><time>2026-04-12T14:33:12.985Z</time></trkpt><trkpt lat="46.038237179894175" lon="11.989463557710756"><ele>239.0</ele><time>2026-04-12T14:33:13.985Z</time></trkpt><trkpt lat="46.03819346414202" lon="11.989184852609519"><ele>239.0</ele><time>2026-04-12T14:33:14.985Z</time></trkpt><trkpt lat="46.03815486484603" lon="11.988941172342104"><ele>239.0</ele><time>2026-04-12T14:33:15.985Z</time></trkpt><trkpt lat="46.038133512828665" lon="11.988694600244559"><ele>238.0</ele><time>2026-04-12T14:33:16.985Z</time></trkpt><trkpt lat="46.03809688686441" lon="11.988449353456746"><ele>237.0</ele><time>2026-04-12T14:33:17.985Z</time></trkpt><trkpt lat="46.0380646262037" lon="11.988217657075534"><ele>236.0</ele><time>2026-04-12T14:33:18.985Z</time></trkpt><trkpt lat="46.03804202636157" lon="11.987998693586457"><ele>235.33333333333334</ele><time>2026-04-12T14:33:19.985Z</time></trkpt><trkpt lat="46.038036249758655" lon="11.987762192453443"><ele>234.66666666666669</ele><time>2026-04-12T14:33:20.985Z</time></trkpt><trkpt lat="46.03804022404777" lon="11.987528782674499"><ele>234.0</ele><time>2026-04-12T14:33:21.985Z</time></trkpt><trkpt lat="46.038044113799835" lon="11.987335962154846"><ele>233.75</ele><time>2026-04-12T14:33:22.985Z</time></trkpt><trkpt lat="46.03803778008006" lon="11.987193519084439"><ele>233.5</ele><time>2026-04-12T14:33:23.985Z</time></trkpt><trkpt lat="46.03805340651738" lon="11.987076377125852"><ele>233.25</ele><time>2026-04-12T14:33:24.985Z</time></trkpt><trkpt lat="46.03807448791106" lon="11.98697531878383"><ele>233.0</ele><time>2026-04-12T14:33:25.985Z</time></trkpt><trkpt lat="46.03806299118079" lon="11.986317999747447"><ele>233.0</ele><time>2026-04-12T14:33:27.985Z</time></trkpt><trkpt lat="46.03806627521748" lon="11.986137512710181"><ele>233.0</ele><time>2026-04-12T14:33:28.985Z</time></trkpt><trkpt lat="46.03807274213714" lon="11.985972835432442"><ele>233.0</ele><time>2026-04-12T14:33:29.985Z</time></trkpt><trkpt lat="46.03808741400349" lon="11.98581899720278"><ele>233.0</ele><time>2026-04-12T14:33:30.985Z</time></trkpt><trkpt lat="46.03811815004267" lon="11.985680360463546"><ele>233.0</ele><time>2026-04-12T14:33:31.985Z</time></trkpt><trkpt lat="46.0381649820633" lon="11.985547831063064"><ele>233.5</ele><time>2026-04-12T14:33:32.985Z</time></trkpt><trkpt lat="46.038229873595036" lon="11.985394326527786"><ele>234.0</ele><time>2026-04-12T14:33:33.985Z</time></trkpt><trkpt lat="46.03829473617117" lon="11.985230043754681"><ele>234.5</ele><time>2026-04-12T14:33:34.985Z</time></trkpt><trkpt lat="46.03836044986406" lon="11.98506274180378"><ele>235.0</ele><time>2026-04-12T14:33:35.985Z</time></trkpt><trkpt lat="46.038423568932416" lon="11.984902624922634"><ele>236.0</ele><time>2026-04-12T14:33:36.985Z</time></trkpt><trkpt lat="46.03848282751416" lon="11.984753073960675"><ele>237.0</ele><time>2026-04-12T14:33:37.985Z</time></trkpt><trkpt lat="46.038536841051155" lon="11.98462027341053"><ele>238.0</ele><time>2026-04-12T14:33:38.985Z</time></trkpt><trkpt lat="46.03858696407415" lon="11.984497038296018"><ele>239.0</ele><time>2026-04-12T14:33:39.986Z</time></trkpt><trkpt lat="46.038640690505886" lon="11.984357389917314"><ele>240.0</ele><time>2026-04-12T14:33:40.986Z</time></trkpt><trkpt lat="46.03868068683484" lon="11.984192898482743"><ele>241.0</ele><time>2026-04-12T14:33:41.986Z</time></trkpt><trkpt lat="46.03872308203329" lon="11.984053563005437"><ele>242.0</ele><time>2026-04-12T14:33:42.986Z</time></trkpt><trkpt lat="46.038747109211464" lon="11.983926507056763"><ele>243.0</ele><time>2026-04-12T14:33:43.986Z</time></trkpt><trkpt lat="46.03876023998459" lon="11.983795296406704"><ele>244.0</ele><time>2026-04-12T14:33:44.986Z</time></trkpt><trkpt lat="46.0387727806061" lon="11.983672401200463"><ele>245.0</ele><time>2026-04-12T14:33:45.986Z</time></trkpt><trkpt lat="46.03877839660145" lon="11.983576905770686"><ele>246.0</ele><time>2026-04-12T14:33:46.986Z</time></trkpt><trkpt lat="46.03879267443124" lon="11.983402877650807"><ele>246.0</ele><time>2026-04-12T14:33:48.986Z</time></trkpt><trkpt lat="46.03885926391093" lon="11.983242088192732"><ele>246.00000000000003</ele><time>2026-04-12T14:33:50.986Z</time></trkpt><trkpt lat="46.03891282042471" lon="11.983125523374296"><ele>246.00000000000003</ele><time>2026-04-12T14:33:51.986Z</time></trkpt><trkpt lat="46.03893381246854" lon="11.982993137091414"><ele>246.0</ele><time>2026-04-12T14:33:52.986Z</time></trkpt><trkpt lat="46.038898357818226" lon="11.982848825697788"><ele>246.0</ele><time>2026-04-12T14:33:53.986Z</time></trkpt><trkpt lat="46.038819594214004" lon="11.98272768502434"><ele>246.0</ele><time>2026-04-12T14:33:54.986Z</time></trkpt><trkpt lat="46.03870855132876" lon="11.982631071420327"><ele>246.0</ele><time>2026-04-12T14:33:55.986Z</time></trkpt><trkpt lat="46.03860803680381" lon="11.982534693578318"><ele>246.0</ele><time>2026-04-12T14:33:56.986Z</time></trkpt><trkpt lat="46.03853265359776" lon="11.982414750376469"><ele>246.0</ele><time>2026-04-12T14:33:57.986Z</time></trkpt><trkpt lat="46.038465101919336" lon="11.982271389665588"><ele>246.0</ele><time>2026-04-12T14:33:58.986Z</time></trkpt><trkpt lat="46.038385579487354" lon="11.982115506029425"><ele>246.0</ele><time>2026-04-12T14:33:59.986Z</time></trkpt><trkpt lat="46.03830272834957" lon="11.981961437912267"><ele>246.0</ele><time>2026-04-12T14:34:00.986Z</time></trkpt><trkpt lat="46.038218870648194" lon="11.981793706954408"><ele>246.0</ele><time>2026-04-12T14:34:01.986Z</time></trkpt><trkpt lat="46.03813818736463" lon="11.981613008291614"><ele>246.33333333333331</ele><time>2026-04-12T14:34:02.986Z</time></trkpt><trkpt lat="46.03805860166954" lon="11.981430377054258"><ele>246.66666666666666</ele><time>2026-04-12T14:34:03.986Z</time></trkpt><trkpt lat="46.037983660393664" lon="11.98124718832765"><ele>247.0</ele><time>2026-04-12T14:34:04.986Z</time></trkpt><trkpt lat="46.0379074470578" lon="11.98104582108001"><ele>247.0</ele><time>2026-04-12T14:34:05.986Z</time></trkpt><trkpt lat="46.03781707786742" lon="11.980818316093735"><ele>247.0</ele><time>2026-04-12T14:34:06.986Z</time></trkpt><trkpt lat="46.03772230451997" lon="11.980552813763765"><ele>247.0</ele><time>2026-04-12T14:34:07.986Z</time></trkpt><trkpt lat="46.03758742385959" lon="11.980283291662627"><ele>251.0</ele><time>2026-04-12T14:34:08.986Z</time></trkpt><trkpt lat="46.037455527652405" lon="11.979977337598822"><ele>255.0</ele><time>2026-04-12T14:34:09.986Z</time></trkpt><trkpt lat="46.03732648854152" lon="11.979644279216595"><ele>255.0</ele><time>2026-04-12T14:34:10.986Z</time></trkpt><trkpt lat="46.03718706216643" lon="11.979296669409567"><ele>255.0</ele><time>2026-04-12T14:34:11.986Z</time></trkpt><trkpt lat="46.03706079968141" lon="11.978972147057942"><ele>258.0</ele><time>2026-04-12T14:34:12.986Z</time></trkpt><trkpt lat="46.03694723192338" lon="11.978682449784728"><ele>261.0</ele><time>2026-04-12T14:34:13.986Z</time></trkpt><trkpt lat="46.03682907058098" lon="11.97838794304127"><ele>262.5</ele><time>2026-04-12T14:34:14.986Z</time></trkpt><trkpt lat="46.03671419311332" lon="11.978090579379804"><ele>264.0</ele><time>2026-04-12T14:34:15.986Z</time></trkpt><trkpt lat="46.03658652225433" lon="11.977792092322387"><ele>261.5</ele><time>2026-04-12T14:34:16.986Z</time></trkpt><trkpt lat="46.0364675363656" lon="11.977498844975653"><ele>259.0</ele><time>2026-04-12T14:34:17.986Z</time></trkpt><trkpt lat="46.03634996040812" lon="11.977211873229011"><ele>259.0</ele><time>2026-04-12T14:34:18.986Z</time></trkpt><trkpt lat="46.03623646847313" lon="11.97693010942494"><ele>259.0</ele><time>2026-04-12T14:34:19.986Z</time></trkpt><trkpt lat="46.03612619869289" lon="11.976655125932123"><ele>259.0</ele><time>2026-04-12T14:34:20.986Z</time></trkpt><trkpt lat="46.036015310299994" lon="11.97638214948565"><ele>258.3333333333333</ele><time>2026-04-12T14:34:21.986Z</time></trkpt><trkpt lat="46.03590354710472" lon="11.976112794062374"><ele>257.6666666666667</ele><time>2026-04-12T14:34:22.986Z</time></trkpt><trkpt lat="46.03579653054025" lon="11.975859950821679"><ele>257.0</ele><time>2026-04-12T14:34:23.986Z</time></trkpt><trkpt lat="46.03569965283966" lon="11.975623800424287"><ele>258.6666666666667</ele><time>2026-04-12T14:34:24.986Z</time></trkpt><trkpt lat="46.03560768705894" lon="11.975395332370336"><ele>260.3333333333333</ele><time>2026-04-12T14:34:25.986Z</time></trkpt><trkpt lat="46.03551211303471" lon="11.975160681174176"><ele>262.0</ele><time>2026-04-12T14:34:26.986Z</time></trkpt><trkpt lat="46.035415202178676" lon="11.97492353792989"><ele>262.0</ele><time>2026-04-12T14:34:27.986Z</time></trkpt><trkpt lat="46.03531708941457" lon="11.974680239794214"><ele>262.0</ele><time>2026-04-12T14:34:28.986Z</time></trkpt><trkpt lat="46.03521770184363" lon="11.9744350025708"><ele>262.0</ele><time>2026-04-12T14:34:29.986Z</time></trkpt><trkpt lat="46.0351194320725" lon="11.974190666034904"><ele>263.0</ele><time>2026-04-12T14:34:30.986Z</time></trkpt><trkpt lat="46.035024619775925" lon="11.973955880736138"><ele>264.0</ele><time>2026-04-12T14:34:31.986Z</time></trkpt><trkpt lat="46.034930660846" lon="11.973720969888667"><ele>265.0</ele><time>2026-04-12T14:34:32.986Z</time></trkpt><trkpt lat="46.034836637746004" lon="11.973488287993202"><ele>264.66666666666663</ele><time>2026-04-12T14:34:33.986Z</time></trkpt><trkpt lat="46.03474522154225" lon="11.97326559574297"><ele>264.3333333333333</ele><time>2026-04-12T14:34:34.986Z</time></trkpt><trkpt lat="46.034661707425364" lon="11.973050914597314"><ele>264.0</ele><time>2026-04-12T14:34:35.986Z</time></trkpt><trkpt lat="46.03458355406978" lon="11.972810341218898"><ele>264.0</ele><time>2026-04-12T14:34:36.986Z</time></trkpt><trkpt lat="46.03448366451914" lon="11.972595243276668"><ele>264.0</ele><time>2026-04-12T14:34:37.986Z</time></trkpt><trkpt lat="46.03439026930974" lon="11.9723556295847"><ele>264.0</ele><time>2026-04-12T14:34:38.986Z</time></trkpt><trkpt lat="46.03429392193698" lon="11.972092481863532"><ele>264.3333333333333</ele><time>2026-04-12T14:34:39.986Z</time></trkpt><trkpt lat="46.03418852328514" lon="11.971812423330883"><ele>264.66666666666663</ele><time>2026-04-12T14:34:40.986Z</time></trkpt><trkpt lat="46.0340867824138" lon="11.97152569548967"><ele>265.0</ele><time>2026-04-12T14:34:41.986Z</time></trkpt><trkpt lat="46.03399128249885" lon="11.971280420943136"><ele>264.3333333333333</ele><time>2026-04-12T14:34:42.986Z</time></trkpt><trkpt lat="46.03389454753922" lon="11.97102455844312"><ele>263.6666666666667</ele><time>2026-04-12T14:34:43.986Z</time></trkpt><trkpt lat="46.03381464815425" lon="11.970807652444838"><ele>263.0</ele><time>2026-04-12T14:34:44.986Z</time></trkpt><trkpt lat="46.033738627391244" lon="11.970607535883959"><ele>263.0</ele><time>2026-04-12T14:34:45.986Z</time></trkpt><trkpt lat="46.03367014873587" lon="11.970409420291041"><ele>263.0</ele><time>2026-04-12T14:34:46.986Z</time></trkpt><trkpt lat="46.03361044159492" lon="11.970219820997336"><ele>263.0</ele><time>2026-04-12T14:34:47.986Z</time></trkpt><trkpt lat="46.03357758405986" lon="11.970020711297527"><ele>263.0</ele><time>2026-04-12T14:34:48.986Z</time></trkpt><trkpt lat="46.03352532118947" lon="11.969830138475649"><ele>263.5</ele><time>2026-04-12T14:34:49.986Z</time></trkpt><trkpt lat="46.03350177694528" lon="11.969628176811757"><ele>264.0</ele><time>2026-04-12T14:34:50.986Z</time></trkpt><trkpt lat="46.033485674922645" lon="11.969428970007547"><ele>264.5</ele><time>2026-04-12T14:34:51.986Z</time></trkpt><trkpt lat="46.033475373957174" lon="11.969231085677784"><ele>265.0</ele><time>2026-04-12T14:34:52.986Z</time></trkpt><trkpt lat="46.033489498838925" lon="11.969028413506964"><ele>265.0</ele><time>2026-04-12T14:34:53.986Z</time></trkpt><trkpt lat="46.0334936606255" lon="11.968817949639881"><ele>265.0</ele><time>2026-04-12T14:34:54.986Z</time></trkpt><trkpt lat="46.033490477429176" lon="11.968586152907598"><ele>265.0</ele><time>2026-04-12T14:34:55.986Z</time></trkpt><trkpt lat="46.03350762995972" lon="11.968371618299434"><ele>265.25</ele><time>2026-04-12T14:34:56.986Z</time></trkpt><trkpt lat="46.033511917748584" lon="11.968167717295135"><ele>265.5</ele><time>2026-04-12T14:34:57.986Z</time></trkpt><trkpt lat="46.033503517139856" lon="11.967967130551479"><ele>265.75</ele><time>2026-04-12T14:34:58.986Z</time></trkpt><trkpt lat="46.03350784661919" lon="11.967738114994992"><ele>266.0</ele><time>2026-04-12T14:34:59.986Z</time></trkpt><trkpt lat="46.03351371193332" lon="11.967532533013829"><ele>267.25</ele><time>2026-04-12T14:35:00.986Z</time></trkpt><trkpt lat="46.03351800266385" lon="11.967316031356134"><ele>268.5</ele><time>2026-04-12T14:35:01.986Z</time></trkpt><trkpt lat="46.03352136712219" lon="11.96710682139227"><ele>269.75</ele><time>2026-04-12T14:35:02.986Z</time></trkpt><trkpt lat="46.033518489452725" lon="11.966897016599685"><ele>271.0</ele><time>2026-04-12T14:35:03.986Z</time></trkpt><trkpt lat="46.03349221448123" lon="11.966708549408105"><ele>272.3333333333333</ele><time>2026-04-12T14:35:04.986Z</time></trkpt><trkpt lat="46.03346923666421" lon="11.966508052520318"><ele>273.6666666666667</ele><time>2026-04-12T14:35:05.986Z</time></trkpt><trkpt lat="46.03341896915057" lon="11.96627915150851"><ele>275.0</ele><time>2026-04-12T14:35:06.986Z</time></trkpt><trkpt lat="46.03336338062915" lon="11.966060228514776"><ele>274.33333333333337</ele><time>2026-04-12T14:35:07.986Z</time></trkpt><trkpt lat="46.03329503878928" lon="11.965819098144369"><ele>273.6666666666667</ele><time>2026-04-12T14:35:08.986Z</time></trkpt><trkpt lat="46.03321157901195" lon="11.965542589714927"><ele>273.0</ele><time>2026-04-12T14:35:09.986Z</time></trkpt><trkpt lat="46.03312101456779" lon="11.965257162222684"><ele>273.6666666666667</ele><time>2026-04-12T14:35:10.986Z</time></trkpt><trkpt lat="46.03303461424292" lon="11.96499012881241"><ele>274.33333333333337</ele><time>2026-04-12T14:35:11.986Z</time></trkpt><trkpt lat="46.0329453956559" lon="11.964778950632514"><ele>275.0</ele><time>2026-04-12T14:35:12.986Z</time></trkpt><trkpt lat="46.0328714907975" lon="11.964556897152505"><ele>275.0</ele><time>2026-04-12T14:35:13.986Z</time></trkpt><trkpt lat="46.03278850702772" lon="11.964360163839425"><ele>275.0</ele><time>2026-04-12T14:35:14.986Z</time></trkpt><trkpt lat="46.032696244309946" lon="11.964180178219559"><ele>275.0</ele><time>2026-04-12T14:35:15.986Z</time></trkpt><trkpt lat="46.032579361432795" lon="11.963987181048367"><ele>278.0</ele><time>2026-04-12T14:35:16.986Z</time></trkpt><trkpt lat="46.03244762934969" lon="11.963766174366615"><ele>281.0</ele><time>2026-04-12T14:35:17.986Z</time></trkpt><trkpt lat="46.03231374165147" lon="11.963541923799012"><ele>284.0</ele><time>2026-04-12T14:35:18.986Z</time></trkpt><trkpt lat="46.03216804994554" lon="11.963297607384934"><ele>285.0</ele><time>2026-04-12T14:35:19.986Z</time></trkpt><trkpt lat="46.03202651032066" lon="11.9630585316673"><ele>286.0</ele><time>2026-04-12T14:35:20.986Z</time></trkpt><trkpt lat="46.03189356861422" lon="11.962859367947898"><ele>287.0</ele><time>2026-04-12T14:35:21.986Z</time></trkpt><trkpt lat="46.03178830712533" lon="11.962642087819543"><ele>286.6666666666667</ele><time>2026-04-12T14:35:22.986Z</time></trkpt><trkpt lat="46.031704016973244" lon="11.962416621753066"><ele>286.3333333333333</ele><time>2026-04-12T14:35:23.986Z</time></trkpt><trkpt lat="46.03164122945197" lon="11.962193827847187"><ele>286.0</ele><time>2026-04-12T14:35:24.986Z</time></trkpt><trkpt lat="46.03159100560458" lon="11.96195954005548"><ele>286.0</ele><time>2026-04-12T14:35:25.986Z</time></trkpt><trkpt lat="46.03155123418762" lon="11.96171886115818"><ele>286.0</ele><time>2026-04-12T14:35:26.986Z</time></trkpt><trkpt lat="46.031540462322646" lon="11.961486007801355"><ele>286.0</ele><time>2026-04-12T14:35:27.986Z</time></trkpt><trkpt lat="46.03151034658516" lon="11.961266705353445"><ele>285.75</ele><time>2026-04-12T14:35:28.986Z</time></trkpt><trkpt lat="46.03149171999508" lon="11.961057459541497"><ele>285.5</ele><time>2026-04-12T14:35:29.986Z</time></trkpt><trkpt lat="46.031473065718224" lon="11.96086419003124"><ele>285.25</ele><time>2026-04-12T14:35:30.986Z</time></trkpt><trkpt lat="46.03145555899574" lon="11.960674777503833"><ele>285.0</ele><time>2026-04-12T14:35:31.986Z</time></trkpt><trkpt lat="46.03143952780623" lon="11.9605034575203"><ele>285.5</ele><time>2026-04-12T14:35:32.986Z</time></trkpt><trkpt lat="46.03142505863081" lon="11.960331989043054"><ele>286.0</ele><time>2026-04-12T14:35:33.986Z</time></trkpt><trkpt lat="46.03143049207692" lon="11.960155780526694"><ele>286.5</ele><time>2026-04-12T14:35:34.986Z</time></trkpt><trkpt lat="46.031435394204365" lon="11.959973339737367"><ele>287.0</ele><time>2026-04-12T14:35:35.986Z</time></trkpt><trkpt lat="46.031407736994574" lon="11.959765861416631"><ele>287.33333333333337</ele><time>2026-04-12T14:35:36.986Z</time></trkpt><trkpt lat="46.03136284364853" lon="11.95953111812283"><ele>287.6666666666667</ele><time>2026-04-12T14:35:37.986Z</time></trkpt><trkpt lat="46.03132692925623" lon="11.959256963956822"><ele>288.0</ele><time>2026-04-12T14:35:38.986Z</time></trkpt><trkpt lat="46.03129778548112" lon="11.958981451088958"><ele>288.6666666666667</ele><time>2026-04-12T14:35:39.986Z</time></trkpt><trkpt lat="46.03127409580118" lon="11.95873483912078"><ele>289.33333333333337</ele><time>2026-04-12T14:35:40.986Z</time></trkpt><trkpt lat="46.031267246066896" lon="11.958507573587319"><ele>290.0</ele><time>2026-04-12T14:35:41.986Z</time></trkpt><trkpt lat="46.031246565103324" lon="11.958292202383804"><ele>290.25</ele><time>2026-04-12T14:35:42.986Z</time></trkpt><trkpt lat="46.0312122969259" lon="11.958097671513363"><ele>290.5</ele><time>2026-04-12T14:35:43.986Z</time></trkpt><trkpt lat="46.03119503476198" lon="11.957896369587157"><ele>290.75</ele><time>2026-04-12T14:35:44.986Z</time></trkpt><trkpt lat="46.0311780860095" lon="11.957700438245798"><ele>291.0</ele><time>2026-04-12T14:35:45.987Z</time></trkpt><trkpt lat="46.03116065093041" lon="11.957495754502704"><ele>291.5</ele><time>2026-04-12T14:35:46.987Z</time></trkpt><trkpt lat="46.03113932208847" lon="11.957296838925016"><ele>292.0</ele><time>2026-04-12T14:35:47.987Z</time></trkpt><trkpt lat="46.03112069335442" lon="11.957097365712437"><ele>292.5</ele><time>2026-04-12T14:35:48.987Z</time></trkpt><trkpt lat="46.0311055770882" lon="11.956911515001176"><ele>293.0</ele><time>2026-04-12T14:35:49.987Z</time></trkpt><trkpt lat="46.031083453956114" lon="11.956732165666244"><ele>293.75</ele><time>2026-04-12T14:35:50.987Z</time></trkpt><trkpt lat="46.03106745563748" lon="11.956565571660512"><ele>294.5</ele><time>2026-04-12T14:35:51.987Z</time></trkpt><trkpt lat="46.03104930913705" lon="11.956398502242553"><ele>295.25</ele><time>2026-04-12T14:35:52.987Z</time></trkpt><trkpt lat="46.03103335129368" lon="11.956225305483926"><ele>296.0</ele><time>2026-04-12T14:35:53.987Z</time></trkpt><trkpt lat="46.03103229632207" lon="11.95604845528063"><ele>296.0</ele><time>2026-04-12T14:35:54.987Z</time></trkpt><trkpt lat="46.03101818958826" lon="11.955897218373224"><ele>296.0</ele><time>2026-04-12T14:35:55.987Z</time></trkpt><trkpt lat="46.030992047941474" lon="11.955770830271216"><ele>296.0</ele><time>2026-04-12T14:35:56.987Z</time></trkpt><trkpt lat="46.0309831663337" lon="11.955640453461545"><ele>296.0</ele><time>2026-04-12T14:35:57.987Z</time></trkpt><trkpt lat="46.03096914714534" lon="11.955496289437376"><ele>296.0</ele><time>2026-04-12T14:35:58.987Z</time></trkpt><trkpt lat="46.03096044431446" lon="11.955361424028766"><ele>296.2</ele><time>2026-04-12T14:35:59.987Z</time></trkpt><trkpt lat="46.03094702756642" lon="11.955216583592827"><ele>296.40000000000003</ele><time>2026-04-12T14:36:00.987Z</time></trkpt><trkpt lat="46.03094094948137" lon="11.95507410448931"><ele>296.6</ele><time>2026-04-12T14:36:01.987Z</time></trkpt><trkpt lat="46.03092596798969" lon="11.954929331511831"><ele>296.8</ele><time>2026-04-12T14:36:02.987Z</time></trkpt><trkpt lat="46.03090759721728" lon="11.954779707708251"><ele>297.0</ele><time>2026-04-12T14:36:03.987Z</time></trkpt><trkpt lat="46.030890456264444" lon="11.954628817466274"><ele>297.25</ele><time>2026-04-12T14:36:04.987Z</time></trkpt><trkpt lat="46.03087724687833" lon="11.95447346669277"><ele>297.5</ele><time>2026-04-12T14:36:05.987Z</time></trkpt><trkpt lat="46.03085987806992" lon="11.954308441240505"><ele>297.75</ele><time>2026-04-12T14:36:06.987Z</time></trkpt><trkpt lat="46.03084135530665" lon="11.954137989985247"><ele>298.0</ele><time>2026-04-12T14:36:07.987Z</time></trkpt><trkpt lat="46.03082942988267" lon="11.953968004666029"><ele>299.66666666666663</ele><time>2026-04-12T14:36:08.987Z</time></trkpt><trkpt lat="46.03082608068262" lon="11.953787181728252"><ele>301.3333333333333</ele><time>2026-04-12T14:36:09.987Z</time></trkpt><trkpt lat="46.030812169032714" lon="11.953581328344702"><ele>303.0</ele><time>2026-04-12T14:36:10.987Z</time></trkpt><trkpt lat="46.03077662914545" lon="11.953323259486812"><ele>303.0</ele><time>2026-04-12T14:36:11.987Z</time></trkpt><trkpt lat="46.03074761634594" lon="11.953050556380084"><ele>303.0</ele><time>2026-04-12T14:36:12.987Z</time></trkpt><trkpt lat="46.03071985717431" lon="11.952779583719641"><ele>303.0</ele><time>2026-04-12T14:36:13.987Z</time></trkpt><trkpt lat="46.03068759780591" lon="11.95249697623039"><ele>303.3333333333333</ele><time>2026-04-12T14:36:14.987Z</time></trkpt><trkpt lat="46.03065574079163" lon="11.95224216154444"><ele>303.66666666666663</ele><time>2026-04-12T14:36:15.987Z</time></trkpt><trkpt lat="46.03062198611147" lon="11.95201644225363"><ele>304.0</ele><time>2026-04-12T14:36:16.987Z</time></trkpt><trkpt lat="46.03057937177028" lon="11.95179104994611"><ele>305.0</ele><time>2026-04-12T14:36:17.987Z</time></trkpt><trkpt lat="46.03053759600729" lon="11.951565601570241"><ele>306.0</ele><time>2026-04-12T14:36:18.987Z</time></trkpt><trkpt lat="46.03049808556192" lon="11.95134648118244"><ele>307.0</ele><time>2026-04-12T14:36:19.987Z</time></trkpt><trkpt lat="46.03045833138972" lon="11.951132741009744"><ele>307.0</ele><time>2026-04-12T14:36:20.987Z</time></trkpt><trkpt lat="46.03042333834573" lon="11.950924650662941"><ele>307.0</ele><time>2026-04-12T14:36:21.987Z</time></trkpt><trkpt lat="46.03038978154024" lon="11.950725967379519"><ele>307.0</ele><time>2026-04-12T14:36:22.987Z</time></trkpt><trkpt lat="46.0303511073442" lon="11.950520722352518"><ele>307.0</ele><time>2026-04-12T14:36:23.987Z</time></trkpt><trkpt lat="46.03031460604912" lon="11.950312038521089"><ele>307.0</ele><time>2026-04-12T14:36:24.987Z</time></trkpt><trkpt lat="46.030277817567274" lon="11.950102487673702"><ele>307.0</ele><time>2026-04-12T14:36:25.987Z</time></trkpt><trkpt lat="46.03023471256562" lon="11.94988829199393"><ele>307.0</ele><time>2026-04-12T14:36:26.987Z</time></trkpt><trkpt lat="46.03019253286014" lon="11.94966403638589"><ele>307.66666666666663</ele><time>2026-04-12T14:36:27.987Z</time></trkpt><trkpt lat="46.030156719483394" lon="11.949444342620357"><ele>308.3333333333333</ele><time>2026-04-12T14:36:28.987Z</time></trkpt><trkpt lat="46.03011967207082" lon="11.949221856927265"><ele>309.0</ele><time>2026-04-12T14:36:29.987Z</time></trkpt><trkpt lat="46.03007559452177" lon="11.948989537915349"><ele>309.3333333333333</ele><time>2026-04-12T14:36:30.987Z</time></trkpt><trkpt lat="46.03003210778863" lon="11.948759133297964"><ele>309.66666666666663</ele><time>2026-04-12T14:36:31.987Z</time></trkpt><trkpt lat="46.029986698470644" lon="11.948524411458102"><ele>310.0</ele><time>2026-04-12T14:36:32.987Z</time></trkpt><trkpt lat="46.029940885597696" lon="11.948292153927781"><ele>310.0</ele><time>2026-04-12T14:36:33.987Z</time></trkpt><trkpt lat="46.02989668809568" lon="11.9480759676072"><ele>310.0</ele><time>2026-04-12T14:36:34.987Z</time></trkpt><trkpt lat="46.029854728045116" lon="11.947868129692775"><ele>310.0</ele><time>2026-04-12T14:36:35.987Z</time></trkpt><trkpt lat="46.029817252416365" lon="11.947658192122631"><ele>311.0</ele><time>2026-04-12T14:36:36.987Z</time></trkpt><trkpt lat="46.02977532592614" lon="11.947440837035975"><ele>312.0</ele><time>2026-04-12T14:36:37.987Z</time></trkpt><trkpt lat="46.02973208113702" lon="11.947222433049458"><ele>313.0</ele><time>2026-04-12T14:36:38.987Z</time></trkpt><trkpt lat="46.02968929198769" lon="11.9470064968129"><ele>313.0</ele><time>2026-04-12T14:36:39.987Z</time></trkpt><trkpt lat="46.02965172604416" lon="11.94679788807116"><ele>313.0</ele><time>2026-04-12T14:36:40.987Z</time></trkpt><trkpt lat="46.02962363377601" lon="11.946571673103737"><ele>313.0</ele><time>2026-04-12T14:36:41.987Z</time></trkpt><trkpt lat="46.02958585969291" lon="11.946363125691049"><ele>313.0</ele><time>2026-04-12T14:36:42.987Z</time></trkpt><trkpt lat="46.02955183882582" lon="11.94617529990571"><ele>313.0</ele><time>2026-04-12T14:36:43.987Z</time></trkpt><trkpt lat="46.029505799942775" lon="11.945988820774197"><ele>313.0</ele><time>2026-04-12T14:36:44.987Z</time></trkpt><trkpt lat="46.029477088528225" lon="11.945765094693472"><ele>313.0</ele><time>2026-04-12T14:36:45.987Z</time></trkpt><trkpt lat="46.029433091091455" lon="11.945532796826894"><ele>313.0</ele><time>2026-04-12T14:36:46.987Z</time></trkpt><trkpt lat="46.02939128767238" lon="11.945318402333218"><ele>313.0</ele><time>2026-04-12T14:36:47.987Z</time></trkpt><trkpt lat="46.02935071559958" lon="11.945120504869035"><ele>313.0</ele><time>2026-04-12T14:36:48.987Z</time></trkpt><trkpt lat="46.029307736292445" lon="11.94491409621373"><ele>313.0</ele><time>2026-04-12T14:36:49.987Z</time></trkpt><trkpt lat="46.02925395168226" lon="11.94466592399461"><ele>313.66666666666663</ele><time>2026-04-12T14:36:50.987Z</time></trkpt><trkpt lat="46.029190826235045" lon="11.944398143776672"><ele>314.3333333333333</ele><time>2026-04-12T14:36:51.987Z</time></trkpt><trkpt lat="46.02911757103831" lon="11.944121094690683"><ele>315.0</ele><time>2026-04-12T14:36:52.987Z</time></trkpt><trkpt lat="46.029135339220836" lon="11.944254102542493"><ele>315.6666666666667</ele><time>2026-04-12T14:36:53.987Z</time></trkpt><trkpt lat="46.02908708473451" lon="11.944061015610773"><ele>316.33333333333337</ele><time>2026-04-12T14:36:54.987Z</time></trkpt><trkpt lat="46.02902857410585" lon="11.943862742881718"><ele>317.0</ele><time>2026-04-12T14:36:55.987Z</time></trkpt><trkpt lat="46.028952620057574" lon="11.943645026246095"><ele>317.0</ele><time>2026-04-12T14:36:56.987Z</time></trkpt><trkpt lat="46.02889136665747" lon="11.94342718785725"><ele>317.0</ele><time>2026-04-12T14:36:57.987Z</time></trkpt><trkpt lat="46.028829769662295" lon="11.943220332023754"><ele>317.0</ele><time>2026-04-12T14:36:58.987Z</time></trkpt><trkpt lat="46.02879847157939" lon="11.943001101080327"><ele>316.33333333333337</ele><time>2026-04-12T14:36:59.987Z</time></trkpt><trkpt lat="46.02873115951498" lon="11.942771485741952"><ele>315.6666666666667</ele><time>2026-04-12T14:37:00.987Z</time></trkpt><trkpt lat="46.02865788267591" lon="11.94252152370358"><ele>315.0</ele><time>2026-04-12T14:37:01.987Z</time></trkpt><trkpt lat="46.02859008907298" lon="11.942290266205388"><ele>315.0</ele><time>2026-04-12T14:37:02.987Z</time></trkpt><trkpt lat="46.02852524718111" lon="11.942069370856604"><ele>315.0</ele><time>2026-04-12T14:37:03.987Z</time></trkpt><trkpt lat="46.02845677238059" lon="11.941836924214245"><ele>315.0</ele><time>2026-04-12T14:37:04.987Z</time></trkpt><trkpt lat="46.028384968082825" lon="11.941590103418132"><ele>314.0</ele><time>2026-04-12T14:37:05.987Z</time></trkpt><trkpt lat="46.02830672978685" lon="11.941320584968004"><ele>313.0</ele><time>2026-04-12T14:37:06.987Z</time></trkpt><trkpt lat="46.028224267752925" lon="11.941035866199748"><ele>312.0</ele><time>2026-04-12T14:37:07.987Z</time></trkpt><trkpt lat="46.028145955204124" lon="11.940765136313399"><ele>311.3333333333333</ele><time>2026-04-12T14:37:08.987Z</time></trkpt><trkpt lat="46.028073439056556" lon="11.94051433851818"><ele>310.66666666666663</ele><time>2026-04-12T14:37:09.987Z</time></trkpt><trkpt lat="46.02800314463164" lon="11.940269428755999"><ele>310.0</ele><time>2026-04-12T14:37:10.987Z</time></trkpt><trkpt lat="46.02793580564092" lon="11.94003401798487"><ele>308.3333333333333</ele><time>2026-04-12T14:37:11.987Z</time></trkpt><trkpt lat="46.02787264939349" lon="11.939813091560415"><ele>306.6666666666667</ele><time>2026-04-12T14:37:12.987Z</time></trkpt><trkpt lat="46.02781239733923" lon="11.939602325296937"><ele>305.0</ele><time>2026-04-12T14:37:13.987Z</time></trkpt><trkpt lat="46.02773556613277" lon="11.939391212817137"><ele>305.0</ele><time>2026-04-12T14:37:14.987Z</time></trkpt><trkpt lat="46.02766955424609" lon="11.939166035789269"><ele>305.0</ele><time>2026-04-12T14:37:15.987Z</time></trkpt><trkpt lat="46.02762329466443" lon="11.938934341458225"><ele>305.0</ele><time>2026-04-12T14:37:16.987Z</time></trkpt><trkpt lat="46.02756664845003" lon="11.93868030104121"><ele>304.5</ele><time>2026-04-12T14:37:17.987Z</time></trkpt><trkpt lat="46.02750307890963" lon="11.938380809839048"><ele>304.0</ele><time>2026-04-12T14:37:18.987Z</time></trkpt><trkpt lat="46.02743940969756" lon="11.938059233929293"><ele>308.0</ele><time>2026-04-12T14:37:19.987Z</time></trkpt><trkpt lat="46.02736963453208" lon="11.93770125475687"><ele>312.0</ele><time>2026-04-12T14:37:20.987Z</time></trkpt><trkpt lat="46.02729637083488" lon="11.937325378131517"><ele>313.5</ele><time>2026-04-12T14:37:21.987Z</time></trkpt><trkpt lat="46.02722051113732" lon="11.93693618259384"><ele>315.0</ele><time>2026-04-12T14:37:22.987Z</time></trkpt><trkpt lat="46.02714215246552" lon="11.936523055428653"><ele>315.0</ele><time>2026-04-12T14:37:23.987Z</time></trkpt><trkpt lat="46.02706649136745" lon="11.936120769601082"><ele>315.0</ele><time>2026-04-12T14:37:24.987Z</time></trkpt><trkpt lat="46.026996016880034" lon="11.935751398927398"><ele>311.5</ele><time>2026-04-12T14:37:25.987Z</time></trkpt><trkpt lat="46.026931468479745" lon="11.93541538502754"><ele>308.0</ele><time>2026-04-12T14:37:26.987Z</time></trkpt><trkpt lat="46.02687310820179" lon="11.935091001646192"><ele>308.0</ele><time>2026-04-12T14:37:27.987Z</time></trkpt><trkpt lat="46.026820429111176" lon="11.934766524928074"><ele>308.0</ele><time>2026-04-12T14:37:28.987Z</time></trkpt><trkpt lat="46.026776749253806" lon="11.934436223165118"><ele>307.0</ele><time>2026-04-12T14:37:29.987Z</time></trkpt><trkpt lat="46.02674655331361" lon="11.934106543348179"><ele>306.0</ele><time>2026-04-12T14:37:30.987Z</time></trkpt><trkpt lat="46.02672674666584" lon="11.93378145027935"><ele>306.0</ele><time>2026-04-12T14:37:31.987Z</time></trkpt><trkpt lat="46.026707447395474" lon="11.933451891146628"><ele>306.0</ele><time>2026-04-12T14:37:32.987Z</time></trkpt><trkpt lat="46.02667365602779" lon="11.933127146685809"><ele>305.6666666666667</ele><time>2026-04-12T14:37:33.987Z</time></trkpt><trkpt lat="46.02665619882962" lon="11.93280781292198"><ele>305.33333333333337</ele><time>2026-04-12T14:37:34.987Z</time></trkpt><trkpt lat="46.02664419226245" lon="11.932517252176162"><ele>305.0</ele><time>2026-04-12T14:37:35.987Z</time></trkpt><trkpt lat="46.02662853660745" lon="11.932229845308136"><ele>309.33333333333337</ele><time>2026-04-12T14:37:36.987Z</time></trkpt><trkpt lat="46.02660809190656" lon="11.931931597019888"><ele>313.6666666666667</ele><time>2026-04-12T14:37:37.987Z</time></trkpt><trkpt lat="46.02658484313088" lon="11.931624399764926"><ele>318.0</ele><time>2026-04-12T14:37:38.987Z</time></trkpt><trkpt lat="46.02655155916452" lon="11.93131222257888"><ele>318.0</ele><time>2026-04-12T14:37:39.987Z</time></trkpt><trkpt lat="46.02651433066983" lon="11.930996217792906"><ele>318.0</ele><time>2026-04-12T14:37:40.987Z</time></trkpt><trkpt lat="46.02646212000111" lon="11.930668120523492"><ele>315.5</ele><time>2026-04-12T14:37:41.987Z</time></trkpt><trkpt lat="46.02640406706449" lon="11.930353822893299"><ele>313.0</ele><time>2026-04-12T14:37:42.987Z</time></trkpt><trkpt lat="46.026337212621854" lon="11.93004537480956"><ele>311.3333333333333</ele><time>2026-04-12T14:37:43.987Z</time></trkpt><trkpt lat="46.02627027271414" lon="11.929738568725913"><ele>309.6666666666667</ele><time>2026-04-12T14:37:44.987Z</time></trkpt><trkpt lat="46.026197170213315" lon="11.92943912744725"><ele>308.0</ele><time>2026-04-12T14:37:45.987Z</time></trkpt><trkpt lat="46.026119161349904" lon="11.929170583253965"><ele>305.6666666666667</ele><time>2026-04-12T14:37:46.987Z</time></trkpt><trkpt lat="46.02603082996523" lon="11.928907839012108"><ele>303.3333333333333</ele><time>2026-04-12T14:37:47.987Z</time></trkpt><trkpt lat="46.025956325867625" lon="11.928662193820864"><ele>301.0</ele><time>2026-04-12T14:37:48.987Z</time></trkpt><trkpt lat="46.02588794846838" lon="11.928450965048334"><ele>300.0</ele><time>2026-04-12T14:37:49.987Z</time></trkpt><trkpt lat="46.02583051836102" lon="11.928273472568357"><ele>299.0</ele><time>2026-04-12T14:37:50.987Z</time></trkpt><trkpt lat="46.02578204294766" lon="11.928110642213873"><ele>298.0</ele><time>2026-04-12T14:37:51.987Z</time></trkpt><trkpt lat="46.0257346331897" lon="11.927962315607584"><ele>297.0</ele><time>2026-04-12T14:37:52.987Z</time></trkpt><trkpt lat="46.025690865355884" lon="11.927814348413479"><ele>298.5</ele><time>2026-04-12T14:37:53.987Z</time></trkpt><trkpt lat="46.02563911878001" lon="11.927666251186558"><ele>300.0</ele><time>2026-04-12T14:37:54.987Z</time></trkpt><trkpt lat="46.025595759240396" lon="11.927502819417949"><ele>301.5</ele><time>2026-04-12T14:37:55.987Z</time></trkpt><trkpt lat="46.02555309228611" lon="11.927345660525146"><ele>303.0</ele><time>2026-04-12T14:37:56.987Z</time></trkpt><trkpt lat="46.02550349980887" lon="11.927187261469271"><ele>303.0</ele><time>2026-04-12T14:37:57.987Z</time></trkpt><trkpt lat="46.025447672885704" lon="11.927026226367246"><ele>303.0</ele><time>2026-04-12T14:37:58.987Z</time></trkpt><trkpt lat="46.02539011352205" lon="11.9268679670615"><ele>303.0</ele><time>2026-04-12T14:37:59.987Z</time></trkpt><trkpt lat="46.02533507310137" lon="11.926688135841436"><ele>303.0</ele><time>2026-04-12T14:38:00.987Z</time></trkpt><trkpt lat="46.02526583980111" lon="11.926491328951641"><ele>301.6666666666667</ele><time>2026-04-12T14:38:01.987Z</time></trkpt><trkpt lat="46.02519442894093" lon="11.926289486468828"><ele>300.33333333333337</ele><time>2026-04-12T14:38:02.987Z</time></trkpt><trkpt lat="46.02510486647184" lon="11.926069092201697"><ele>299.0</ele><time>2026-04-12T14:38:03.987Z</time></trkpt><trkpt lat="46.02501192419078" lon="11.925850775610213"><ele>299.33333333333337</ele><time>2026-04-12T14:38:04.987Z</time></trkpt><trkpt lat="46.02492324724621" lon="11.925642484311442"><ele>299.6666666666667</ele><time>2026-04-12T14:38:05.987Z</time></trkpt><trkpt lat="46.02482293964978" lon="11.92543664420685"><ele>300.0</ele><time>2026-04-12T14:38:06.987Z</time></trkpt><trkpt lat="46.024727468885615" lon="11.925242608302936"><ele>299.0</ele><time>2026-04-12T14:38:07.987Z</time></trkpt><trkpt lat="46.02462724820748" lon="11.92505412095321"><ele>298.0</ele><time>2026-04-12T14:38:08.987Z</time></trkpt><trkpt lat="46.02452985208124" lon="11.924887868189586"><ele>297.0</ele><time>2026-04-12T14:38:09.987Z</time></trkpt><trkpt lat="46.024429060648544" lon="11.924726585255812"><ele>297.0</ele><time>2026-04-12T14:38:10.987Z</time></trkpt><trkpt lat="46.02433653831927" lon="11.924552894440117"><ele>297.0</ele><time>2026-04-12T14:38:11.987Z</time></trkpt><trkpt lat="46.024217641792625" lon="11.92436684635987"><ele>297.0</ele><time>2026-04-12T14:38:12.987Z</time></trkpt><trkpt lat="46.0241040405618" lon="11.924173308414868"><ele>297.0</ele><time>2026-04-12T14:38:13.987Z</time></trkpt><trkpt lat="46.02399787871379" lon="11.923984358086145"><ele>297.0</ele><time>2026-04-12T14:38:14.987Z</time></trkpt><trkpt lat="46.02390549458146" lon="11.923803756066627"><ele>297.0</ele><time>2026-04-12T14:38:15.987Z</time></trkpt><trkpt lat="46.02382554507351" lon="11.92362576403409"><ele>297.0</ele><time>2026-04-12T14:38:16.987Z</time></trkpt><trkpt lat="46.023764251999395" lon="11.923449529462792"><ele>297.0</ele><time>2026-04-12T14:38:17.987Z</time></trkpt><trkpt lat="46.02369155894823" lon="11.923276888865"><ele>297.0</ele><time>2026-04-12T14:38:18.987Z</time></trkpt><trkpt lat="46.0235673834329" lon="11.923066001245786"><ele>296.75</ele><time>2026-04-12T14:38:19.987Z</time></trkpt><trkpt lat="46.02349196743352" lon="11.922878031381693"><ele>296.5</ele><time>2026-04-12T14:38:20.987Z</time></trkpt><trkpt lat="46.023423703804674" lon="11.922689917266396"><ele>296.25</ele><time>2026-04-12T14:38:21.987Z</time></trkpt><trkpt lat="46.02336181120571" lon="11.92251695998253"><ele>296.0</ele><time>2026-04-12T14:38:22.987Z</time></trkpt><trkpt lat="46.023307347741806" lon="11.922352614483893"><ele>295.25</ele><time>2026-04-12T14:38:23.987Z</time></trkpt><trkpt lat="46.02325908963502" lon="11.922194456707395"><ele>294.5</ele><time>2026-04-12T14:38:24.987Z</time></trkpt><trkpt lat="46.02320936902069" lon="11.922032259819698"><ele>293.75</ele><time>2026-04-12T14:38:25.987Z</time></trkpt><trkpt lat="46.023177554095234" lon="11.921867209643192"><ele>293.0</ele><time>2026-04-12T14:38:26.987Z</time></trkpt><trkpt lat="46.02316441367332" lon="11.921708990919766"><ele>292.6</ele><time>2026-04-12T14:38:27.987Z</time></trkpt><trkpt lat="46.02316481125377" lon="11.921551101156265"><ele>292.20000000000005</ele><time>2026-04-12T14:38:28.987Z</time></trkpt><trkpt lat="46.02318087716088" lon="11.921403299616449"><ele>291.8</ele><time>2026-04-12T14:38:29.987Z</time></trkpt><trkpt lat="46.02317709727094" lon="11.92125793864664"><ele>291.40000000000003</ele><time>2026-04-12T14:38:30.987Z</time></trkpt><trkpt lat="46.02313679828936" lon="11.921098308351633"><ele>291.0</ele><time>2026-04-12T14:38:31.987Z</time></trkpt><trkpt lat="46.023076478363414" lon="11.920930831752628"><ele>291.6666666666667</ele><time>2026-04-12T14:38:32.987Z</time></trkpt><trkpt lat="46.023056549200575" lon="11.920746265587107"><ele>292.33333333333337</ele><time>2026-04-12T14:38:33.987Z</time></trkpt><trkpt lat="46.023031015990696" lon="11.920509228978657"><ele>293.0</ele><time>2026-04-12T14:38:34.987Z</time></trkpt><trkpt lat="46.023005785969666" lon="11.92024659957114"><ele>293.33333333333337</ele><time>2026-04-12T14:38:35.987Z</time></trkpt><trkpt lat="46.022985216154495" lon="11.919992131096791"><ele>293.6666666666667</ele><time>2026-04-12T14:38:36.987Z</time></trkpt><trkpt lat="46.02297003153745" lon="11.919750920692444"><ele>294.0</ele><time>2026-04-12T14:38:37.987Z</time></trkpt><trkpt lat="46.022960556841596" lon="11.919518622453602"><ele>294.0</ele><time>2026-04-12T14:38:38.987Z</time></trkpt><trkpt lat="46.02295283466843" lon="11.919279398965676"><ele>294.0</ele><time>2026-04-12T14:38:39.987Z</time></trkpt><trkpt lat="46.022941004085865" lon="11.919028554792515"><ele>294.0</ele><time>2026-04-12T14:38:40.987Z</time></trkpt><trkpt lat="46.022930851455364" lon="11.918770060855508"><ele>293.0</ele><time>2026-04-12T14:38:41.987Z</time></trkpt><trkpt lat="46.02291628185819" lon="11.918500309926987"><ele>292.0</ele><time>2026-04-12T14:38:42.987Z</time></trkpt><trkpt lat="46.02290358305581" lon="11.918213477970285"><ele>291.0</ele><time>2026-04-12T14:38:43.987Z</time></trkpt><trkpt lat="46.02288882269596" lon="11.91790909730857"><ele>289.6666666666667</ele><time>2026-04-12T14:38:44.987Z</time></trkpt><trkpt lat="46.02287260750482" lon="11.917625822479195"><ele>288.33333333333337</ele><time>2026-04-12T14:38:45.987Z</time></trkpt><trkpt lat="46.022852877948246" lon="11.917359523607434"><ele>287.0</ele><time>2026-04-12T14:38:46.987Z</time></trkpt><trkpt lat="46.02283684861889" lon="11.917104870309716"><ele>286.6666666666667</ele><time>2026-04-12T14:38:47.987Z</time></trkpt><trkpt lat="46.02282466094439" lon="11.916856060693817"><ele>286.3333333333333</ele><time>2026-04-12T14:38:48.987Z</time></trkpt><trkpt lat="46.02281763709392" lon="11.916610756480772"><ele>286.0</ele><time>2026-04-12T14:38:49.987Z</time></trkpt><trkpt lat="46.02281496193078" lon="11.916370861947165"><ele>285.0</ele><time>2026-04-12T14:38:50.987Z</time></trkpt><trkpt lat="46.02280522669424" lon="11.916112570296962"><ele>284.0</ele><time>2026-04-12T14:38:51.987Z</time></trkpt><trkpt lat="46.02279622667484" lon="11.915860674392999"><ele>283.0</ele><time>2026-04-12T14:38:52.987Z</time></trkpt><trkpt lat="46.022785628346966" lon="11.915596140381153"><ele>281.3333333333333</ele><time>2026-04-12T14:38:53.987Z</time></trkpt><trkpt lat="46.022774971397645" lon="11.9153364211029"><ele>279.6666666666667</ele><time>2026-04-12T14:38:54.987Z</time></trkpt><trkpt lat="46.02276072107624" lon="11.915084764254813"><ele>278.0</ele><time>2026-04-12T14:38:55.987Z</time></trkpt><trkpt lat="46.02274846398093" lon="11.914832322825143"><ele>277.0</ele><time>2026-04-12T14:38:56.987Z</time></trkpt><trkpt lat="46.022736637083" lon="11.914588118972796"><ele>276.0</ele><time>2026-04-12T14:38:57.987Z</time></trkpt><trkpt lat="46.02272559086324" lon="11.914339289293299"><ele>275.0</ele><time>2026-04-12T14:38:58.987Z</time></trkpt><trkpt lat="46.02271273630764" lon="11.914092394887275"><ele>275.0</ele><time>2026-04-12T14:38:59.987Z</time></trkpt><trkpt lat="46.022702445103874" lon="11.913844718690477"><ele>275.0</ele><time>2026-04-12T14:39:00.987Z</time></trkpt><trkpt lat="46.02269361599755" lon="11.913609314880654"><ele>275.0</ele><time>2026-04-12T14:39:01.987Z</time></trkpt><trkpt lat="46.02268409146814" lon="11.913385871544351"><ele>275.0</ele><time>2026-04-12T14:39:02.987Z</time></trkpt><trkpt lat="46.022679478386415" lon="11.913182743310477"><ele>275.0</ele><time>2026-04-12T14:39:03.987Z</time></trkpt><trkpt lat="46.02267593740428" lon="11.913006438814563"><ele>275.0</ele><time>2026-04-12T14:39:04.987Z</time></trkpt><trkpt lat="46.02266496285797" lon="11.912843427359185"><ele>275.0</ele><time>2026-04-12T14:39:05.987Z</time></trkpt><trkpt lat="46.022664850478044" lon="11.912693452965499"><ele>275.5</ele><time>2026-04-12T14:39:06.987Z</time></trkpt><trkpt lat="46.02269613639541" lon="11.912549548218749"><ele>276.0</ele><time>2026-04-12T14:39:07.987Z</time></trkpt><trkpt lat="46.02271291912739" lon="11.912391353056263"><ele>276.5</ele><time>2026-04-12T14:39:08.987Z</time></trkpt><trkpt lat="46.02270769058571" lon="11.912225534587618"><ele>277.0</ele><time>2026-04-12T14:39:09.987Z</time></trkpt><trkpt lat="46.022641564479045" lon="11.912053972047218"><ele>277.0</ele><time>2026-04-12T14:39:10.987Z</time></trkpt><trkpt lat="46.022615676984294" lon="11.911843052163736"><ele>277.0</ele><time>2026-04-12T14:39:11.987Z</time></trkpt><trkpt lat="46.022598745157254" lon="11.911594277582115"><ele>277.0</ele><time>2026-04-12T14:39:12.987Z</time></trkpt><trkpt lat="46.022582129941405" lon="11.91134580114606"><ele>277.0</ele><time>2026-04-12T14:39:13.987Z</time></trkpt><trkpt lat="46.022566178445594" lon="11.911135127950338"><ele>277.0</ele><time>2026-04-12T14:39:14.987Z</time></trkpt><trkpt lat="46.02254787383681" lon="11.91094808339005"><ele>277.0</ele><time>2026-04-12T14:39:15.987Z</time></trkpt><trkpt lat="46.02251621951699" lon="11.910772487458079"><ele>277.0</ele><time>2026-04-12T14:39:16.987Z</time></trkpt><trkpt lat="46.02248101491334" lon="11.910595958672118"><ele>276.8333333333333</ele><time>2026-04-12T14:39:17.987Z</time></trkpt><trkpt lat="46.02245552711233" lon="11.910442028312108"><ele>276.66666666666663</ele><time>2026-04-12T14:39:18.987Z</time></trkpt><trkpt lat="46.022426843239614" lon="11.910323348165837"><ele>276.5</ele><time>2026-04-12T14:39:19.987Z</time></trkpt><trkpt lat="46.0224097078172" lon="11.91023251383553"><ele>276.3333333333333</ele><time>2026-04-12T14:39:20.987Z</time></trkpt><trkpt lat="46.02238522253834" lon="11.910140012204202"><ele>276.1666666666667</ele><time>2026-04-12T14:39:22.987Z</time></trkpt><trkpt lat="46.022349193281634" lon="11.909991155602729"><ele>276.0</ele><time>2026-04-12T14:39:25.987Z</time></trkpt><trkpt lat="46.022334382140244" lon="11.909867230892713"><ele>275.8</ele><time>2026-04-12T14:39:26.987Z</time></trkpt><trkpt lat="46.02230989635259" lon="11.909757998320755"><ele>275.6</ele><time>2026-04-12T14:39:27.987Z</time></trkpt><trkpt lat="46.02228203988236" lon="11.909634603584191"><ele>275.4</ele><time>2026-04-12T14:39:29.987Z</time></trkpt><trkpt lat="46.02225841956308" lon="11.90952966424101"><ele>275.2</ele><time>2026-04-12T14:39:30.987Z</time></trkpt><trkpt lat="46.022219766366234" lon="11.909375915421624"><ele>275.0</ele><time>2026-04-12T14:39:31.987Z</time></trkpt><trkpt lat="46.022172447787476" lon="11.909151927924565"><ele>274.75</ele><time>2026-04-12T14:39:32.987Z</time></trkpt><trkpt lat="46.02213364629923" lon="11.908982915903088"><ele>274.5</ele><time>2026-04-12T14:39:33.987Z</time></trkpt><trkpt lat="46.02209329680038" lon="11.908807161053845"><ele>274.25</ele><time>2026-04-12T14:39:34.987Z</time></trkpt><trkpt lat="46.022049650372516" lon="11.908616320500352"><ele>274.0</ele><time>2026-04-12T14:39:35.987Z</time></trkpt><trkpt lat="46.02199283530192" lon="11.908437517131905"><ele>273.75</ele><time>2026-04-12T14:39:36.987Z</time></trkpt><trkpt lat="46.02196915377755" lon="11.908270048437105"><ele>273.5</ele><time>2026-04-12T14:39:37.987Z</time></trkpt><trkpt lat="46.02193285808963" lon="11.908080295021417"><ele>273.25</ele><time>2026-04-12T14:39:38.987Z</time></trkpt><trkpt lat="46.0218974621249" lon="11.907892826702035"><ele>273.0</ele><time>2026-04-12T14:39:39.987Z</time></trkpt><trkpt lat="46.02186523439554" lon="11.907723066741397"><ele>272.75</ele><time>2026-04-12T14:39:40.987Z</time></trkpt><trkpt lat="46.021841114022706" lon="11.90756878812751"><ele>272.5</ele><time>2026-04-12T14:39:41.987Z</time></trkpt><trkpt lat="46.021810848997426" lon="11.907406619150246"><ele>272.25</ele><time>2026-04-12T14:39:42.987Z</time></trkpt><trkpt lat="46.02176680640545" lon="11.907224216547922"><ele>272.0</ele><time>2026-04-12T14:39:43.987Z</time></trkpt><trkpt lat="46.021740307067105" lon="11.907071326910167"><ele>272.0</ele><time>2026-04-12T14:39:44.987Z</time></trkpt><trkpt lat="46.021723346094504" lon="11.906930334257058"><ele>272.0</ele><time>2026-04-12T14:39:45.987Z</time></trkpt><trkpt lat="46.02169876497725" lon="11.906791885698043"><ele>272.0</ele><time>2026-04-12T14:39:46.987Z</time></trkpt><trkpt lat="46.02167763502089" lon="11.906644838379362"><ele>272.0</ele><time>2026-04-12T14:39:47.987Z</time></trkpt><trkpt lat="46.02166375742003" lon="11.906497482102793"><ele>272.0</ele><time>2026-04-12T14:39:48.987Z</time></trkpt><trkpt lat="46.02166546678693" lon="11.906377410594663"><ele>272.4</ele><time>2026-04-12T14:39:49.987Z</time></trkpt><trkpt lat="46.02167563471135" lon="11.90627999536284"><ele>272.79999999999995</ele><time>2026-04-12T14:39:50.987Z</time></trkpt><trkpt lat="46.02167442703848" lon="11.906112842030302"><ele>273.2</ele><time>2026-04-12T14:39:52.987Z</time></trkpt><trkpt lat="46.02166893380659" lon="11.906002892915843"><ele>273.59999999999997</ele><time>2026-04-12T14:39:53.987Z</time></trkpt><trkpt lat="46.02166180452087" lon="11.905860197728462"><ele>274.0</ele><time>2026-04-12T14:39:54.987Z</time></trkpt><trkpt lat="46.02165366580594" lon="11.905697298591162"><ele>274.0</ele><time>2026-04-12T14:39:56.987Z</time></trkpt><trkpt lat="46.02159029630612" lon="11.905585506004941"><ele>274.0</ele><time>2026-04-12T14:39:57.987Z</time></trkpt><trkpt lat="46.02159918509198" lon="11.90545355681122"><ele>274.0</ele><time>2026-04-12T14:39:59.987Z</time></trkpt><trkpt lat="46.02160439320318" lon="11.905352258418745"><ele>274.0</ele><time>2026-04-12T14:40:01.987Z</time></trkpt><trkpt lat="46.021636121801414" lon="11.905206544689706"><ele>274.0</ele><time>2026-04-12T14:40:03.987Z</time></trkpt><trkpt lat="46.0216615551712" lon="11.905049926785429"><ele>273.8333333333333</ele><time>2026-04-12T14:40:05.987Z</time></trkpt><trkpt lat="46.021608432403966" lon="11.904957947924022"><ele>273.66666666666663</ele><time>2026-04-12T14:40:07.987Z</time></trkpt><trkpt lat="46.021565832681944" lon="11.904865826379805"><ele>273.5</ele><time>2026-04-12T14:40:09.987Z</time></trkpt><trkpt lat="46.02153878805412" lon="11.90476339131865"><ele>273.3333333333333</ele><time>2026-04-12T14:40:11.987Z</time></trkpt><trkpt lat="46.0215273041946" lon="11.904651289089728"><ele>273.1666666666667</ele><time>2026-04-12T14:40:13.987Z</time></trkpt><trkpt lat="46.02152131129546" lon="11.904471656397552"><ele>273.0</ele><time>2026-04-12T14:40:15.987Z</time></trkpt><trkpt lat="46.02151370387177" lon="11.904314472451874"><ele>272.8</ele><time>2026-04-12T14:40:17.987Z</time></trkpt><trkpt lat="46.021496718517284" lon="11.904169274749805"><ele>272.6</ele><time>2026-04-12T14:40:19.987Z</time></trkpt><trkpt lat="46.02148880208451" lon="11.904011448773332"><ele>272.4</ele><time>2026-04-12T14:40:21.987Z</time></trkpt><trkpt lat="46.02149476530191" lon="11.90385787752083"><ele>272.2</ele><time>2026-04-12T14:40:23.987Z</time></trkpt><trkpt lat="46.02147604730955" lon="11.903711801980263"><ele>272.0</ele><time>2026-04-12T14:40:25.987Z</time></trkpt><trkpt lat="46.021473749717444" lon="11.903603159722879"><ele>272.0</ele><time>2026-04-12T14:40:26.987Z</time></trkpt><trkpt lat="46.02147152457442" lon="11.903489884537276"><ele>272.0</ele><time>2026-04-12T14:40:27.987Z</time></trkpt><trkpt lat="46.02146483435033" lon="11.903369564947376"><ele>272.0</ele><time>2026-04-12T14:40:28.987Z</time></trkpt><trkpt lat="46.02145635230402" lon="11.903245887094517"><ele>272.0</ele><time>2026-04-12T14:40:29.987Z</time></trkpt><trkpt lat="46.02144895597113" lon="11.903120689152745"><ele>272.0</ele><time>2026-04-12T14:40:30.987Z</time></trkpt><trkpt lat="46.021436522973715" lon="11.902987817481124"><ele>272.0</ele><time>2026-04-12T14:40:31.987Z</time></trkpt><trkpt lat="46.021446402350335" lon="11.902869896805122"><ele>272.0</ele><time>2026-04-12T14:40:32.987Z</time></trkpt><trkpt lat="46.021440450643574" lon="11.902757296884607"><ele>272.0</ele><time>2026-04-12T14:40:33.987Z</time></trkpt><trkpt lat="46.021433750348706" lon="11.902640262663292"><ele>272.0</ele><time>2026-04-12T14:40:34.987Z</time></trkpt><trkpt lat="46.021425962048625" lon="11.902504224267636"><ele>272.0</ele><time>2026-04-12T14:40:35.987Z</time></trkpt><trkpt lat="46.021405480436705" lon="11.90236705068527"><ele>272.0</ele><time>2026-04-12T14:40:36.987Z</time></trkpt><trkpt lat="46.02141087344515" lon="11.902240670959845"><ele>272.0</ele><time>2026-04-12T14:40:37.987Z</time></trkpt><trkpt lat="46.021404023939816" lon="11.902121030420245"><ele>272.1666666666667</ele><time>2026-04-12T14:40:38.987Z</time></trkpt><trkpt lat="46.02138143635369" lon="11.902008183848785"><ele>272.33333333333337</ele><time>2026-04-12T14:40:39.987Z</time></trkpt><trkpt lat="46.021368094550574" lon="11.901885741895748"><ele>272.5</ele><time>2026-04-12T14:40:40.987Z</time></trkpt><trkpt lat="46.021353019608775" lon="11.901775643048554"><ele>272.6666666666667</ele><time>2026-04-12T14:40:41.987Z</time></trkpt><trkpt lat="46.02134396259122" lon="11.90163847239397"><ele>272.8333333333333</ele><time>2026-04-12T14:40:42.987Z</time></trkpt><trkpt lat="46.02131506576223" lon="11.901522602446693"><ele>273.0</ele><time>2026-04-12T14:40:43.987Z</time></trkpt><trkpt lat="46.021267966638675" lon="11.901423541367874"><ele>273.1666666666667</ele><time>2026-04-12T14:40:44.987Z</time></trkpt><trkpt lat="46.021246331945" lon="11.901310604535402"><ele>273.3333333333333</ele><time>2026-04-12T14:40:45.987Z</time></trkpt><trkpt lat="46.02120900232798" lon="11.901214972329994"><ele>273.5</ele><time>2026-04-12T14:40:46.987Z</time></trkpt><trkpt lat="46.02116828420498" lon="11.90111187548559"><ele>273.66666666666663</ele><time>2026-04-12T14:40:47.987Z</time></trkpt><trkpt lat="46.02112718008383" lon="11.90100780124709"><ele>273.8333333333333</ele><time>2026-04-12T14:40:48.987Z</time></trkpt><trkpt lat="46.02108421786369" lon="11.900899022386822"><ele>274.0</ele><time>2026-04-12T14:40:49.987Z</time></trkpt><trkpt lat="46.021040257025724" lon="11.900787716544219"><ele>274.0</ele><time>2026-04-12T14:40:50.987Z</time></trkpt><trkpt lat="46.02100366511276" lon="11.900685594854147"><ele>274.0</ele><time>2026-04-12T14:40:51.987Z</time></trkpt><trkpt lat="46.020970263488415" lon="11.900595108406202"><ele>274.0</ele><time>2026-04-12T14:40:52.987Z</time></trkpt><trkpt lat="46.020918971745644" lon="11.90052696150224"><ele>274.0</ele><time>2026-04-12T14:40:53.987Z</time></trkpt><trkpt lat="46.02087570046418" lon="11.9003889031183"><ele>274.0</ele><time>2026-04-12T14:40:55.987Z</time></trkpt><trkpt lat="46.02083495854373" lon="11.900237757655745"><ele>274.0</ele><time>2026-04-12T14:40:57.987Z</time></trkpt><trkpt lat="46.02081072302779" lon="11.900066415633587"><ele>274.0</ele><time>2026-04-12T14:40:59.987Z</time></trkpt><trkpt lat="46.02083480605079" lon="11.899899497308455"><ele>274.0</ele><time>2026-04-12T14:41:01.987Z</time></trkpt><trkpt lat="46.02082534563855" lon="11.899727635587524"><ele>274.0</ele><time>2026-04-12T14:41:03.987Z</time></trkpt><trkpt lat="46.02078782577809" lon="11.899636029500462"><ele>274.0</ele><time>2026-04-12T14:41:04.987Z</time></trkpt><trkpt lat="46.020726471571805" lon="11.899561408394993"><ele>274.0</ele><time>2026-04-12T14:41:05.987Z</time></trkpt><trkpt lat="46.02067847580692" lon="11.899473845728098"><ele>274.0</ele><time>2026-04-12T14:41:06.987Z</time></trkpt><trkpt lat="46.02065230240176" lon="11.899348463997153"><ele>274.0</ele><time>2026-04-12T14:41:07.987Z</time></trkpt><trkpt lat="46.02063774480424" lon="11.89921274665621"><ele>274.0</ele><time>2026-04-12T14:41:08.987Z</time></trkpt><trkpt lat="46.020615241736685" lon="11.89903959904322"><ele>274.0</ele><time>2026-04-12T14:41:09.987Z</time></trkpt><trkpt lat="46.02057890086505" lon="11.898848965946877"><ele>274.0</ele><time>2026-04-12T14:41:10.987Z</time></trkpt><trkpt lat="46.02055563648898" lon="11.898618682543788"><ele>273.75</ele><time>2026-04-12T14:41:11.987Z</time></trkpt><trkpt lat="46.020507505095686" lon="11.898430948729159"><ele>273.5</ele><time>2026-04-12T14:41:12.987Z</time></trkpt><trkpt lat="46.02047819679175" lon="11.898255403744093"><ele>273.25</ele><time>2026-04-12T14:41:13.987Z</time></trkpt><trkpt lat="46.02045404507883" lon="11.898094072409297"><ele>273.0</ele><time>2026-04-12T14:41:14.987Z</time></trkpt><trkpt lat="46.02043115452536" lon="11.897939955053355"><ele>273.0</ele><time>2026-04-12T14:41:15.987Z</time></trkpt><trkpt lat="46.02039580598632" lon="11.897785271352822"><ele>273.0</ele><time>2026-04-12T14:41:16.987Z</time></trkpt><trkpt lat="46.02036309761565" lon="11.897649983135475"><ele>273.0</ele><time>2026-04-12T14:41:17.987Z</time></trkpt><trkpt lat="46.02032313093877" lon="11.897506898675713"><ele>273.0</ele><time>2026-04-12T14:41:18.987Z</time></trkpt><trkpt lat="46.02029460317189" lon="11.89737163911671"><ele>273.0</ele><time>2026-04-12T14:41:19.987Z</time></trkpt><trkpt lat="46.02025621630403" lon="11.897245935710911"><ele>273.4</ele><time>2026-04-12T14:41:20.987Z</time></trkpt><trkpt lat="46.02022224513036" lon="11.89711009181582"><ele>273.8</ele><time>2026-04-12T14:41:21.987Z</time></trkpt><trkpt lat="46.02018290602373" lon="11.896972694392916"><ele>274.2</ele><time>2026-04-12T14:41:22.987Z</time></trkpt><trkpt lat="46.02014652412886" lon="11.896835120272828"><ele>274.6</ele><time>2026-04-12T14:41:23.987Z</time></trkpt><trkpt lat="46.0201024632463" lon="11.896704359694166"><ele>275.0</ele><time>2026-04-12T14:41:24.987Z</time></trkpt><trkpt lat="46.02006252444546" lon="11.896584256060317"><ele>274.8</ele><time>2026-04-12T14:41:25.987Z</time></trkpt><trkpt lat="46.02002505668269" lon="11.896480273732951"><ele>274.6</ele><time>2026-04-12T14:41:26.987Z</time></trkpt><trkpt lat="46.019995613717995" lon="11.896388700853906"><ele>274.4</ele><time>2026-04-12T14:41:27.987Z</time></trkpt><trkpt lat="46.019954900555454" lon="11.896245035266562"><ele>274.2</ele><time>2026-04-12T14:41:29.987Z</time></trkpt><trkpt lat="46.019906334734024" lon="11.896082592736443"><ele>274.0</ele><time>2026-04-12T14:41:31.987Z</time></trkpt><trkpt lat="46.019853690403174" lon="11.89592280456363"><ele>274.00000000000006</ele><time>2026-04-12T14:41:33.987Z</time></trkpt><trkpt lat="46.01982189155386" lon="11.895841676915852"><ele>274.0</ele><time>2026-04-12T14:41:34.987Z</time></trkpt><trkpt lat="46.019784318745806" lon="11.895762815356353"><ele>274.0</ele><time>2026-04-12T14:41:35.987Z</time></trkpt><trkpt lat="46.01974968267214" lon="11.89568281339132"><ele>274.0</ele><time>2026-04-12T14:41:36.987Z</time></trkpt><trkpt lat="46.019721190071785" lon="11.895579250548039"><ele>274.0</ele><time>2026-04-12T14:41:37.987Z</time></trkpt><trkpt lat="46.01970016486603" lon="11.895473368071027"><ele>274.00000000000006</ele><time>2026-04-12T14:41:38.987Z</time></trkpt><trkpt lat="46.019669205249095" lon="11.89537386528506"><ele>274.0</ele><time>2026-04-12T14:41:39.987Z</time></trkpt><trkpt lat="46.01963349513639" lon="11.89528720504183"><ele>274.0</ele><time>2026-04-12T14:41:40.987Z</time></trkpt><trkpt lat="46.019591567577194" lon="11.895202753459573"><ele>274.0</ele><time>2026-04-12T14:41:41.987Z</time></trkpt><trkpt lat="46.01955309356165" lon="11.895118615734907"><ele>274.0</ele><time>2026-04-12T14:41:42.987Z</time></trkpt><trkpt lat="46.01951821494914" lon="11.895027275452506"><ele>274.0</ele><time>2026-04-12T14:41:43.987Z</time></trkpt><trkpt lat="46.01948642253271" lon="11.894931116918592"><ele>274.0</ele><time>2026-04-12T14:41:44.987Z</time></trkpt><trkpt lat="46.0194529754969" lon="11.894820849881489"><ele>274.0</ele><time>2026-04-12T14:41:45.987Z</time></trkpt><trkpt lat="46.019412922161855" lon="11.894689230503802"><ele>273.75</ele><time>2026-04-12T14:41:46.987Z</time></trkpt><trkpt lat="46.0193772316189" lon="11.894538147296132"><ele>273.5</ele><time>2026-04-12T14:41:47.987Z</time></trkpt><trkpt lat="46.01934498247192" lon="11.894340851354334"><ele>273.25</ele><time>2026-04-12T14:41:48.987Z</time></trkpt><trkpt lat="46.01931456431984" lon="11.894136375034497"><ele>273.0</ele><time>2026-04-12T14:41:49.987Z</time></trkpt><trkpt lat="46.01930748676274" lon="11.893946043678689"><ele>273.0</ele><time>2026-04-12T14:41:50.987Z</time></trkpt><trkpt lat="46.0192679908276" lon="11.893794011990916"><ele>273.0</ele><time>2026-04-12T14:41:51.987Z</time></trkpt><trkpt lat="46.01924802669508" lon="11.893640874451687"><ele>273.0</ele><time>2026-04-12T14:41:52.987Z</time></trkpt><trkpt lat="46.01922431619266" lon="11.893484888286189"><ele>273.0</ele><time>2026-04-12T14:41:53.987Z</time></trkpt><trkpt lat="46.019202767791214" lon="11.89332154699246"><ele>273.0</ele><time>2026-04-12T14:41:54.987Z</time></trkpt><trkpt lat="46.01919014300836" lon="11.89315292811582"><ele>273.0</ele><time>2026-04-12T14:41:55.987Z</time></trkpt><trkpt lat="46.01917908746034" lon="11.89299956944271"><ele>273.0</ele><time>2026-04-12T14:41:56.987Z</time></trkpt><trkpt lat="46.01916803359698" lon="11.892857004724373"><ele>273.0</ele><time>2026-04-12T14:41:57.987Z</time></trkpt><trkpt lat="46.019150261550884" lon="11.892715643106524"><ele>273.0</ele><time>2026-04-12T14:41:58.987Z</time></trkpt><trkpt lat="46.01912644186388" lon="11.892560071888623"><ele>273.0</ele><time>2026-04-12T14:41:59.987Z</time></trkpt><trkpt lat="46.01910775076038" lon="11.892389110973413"><ele>272.6666666666667</ele><time>2026-04-12T14:42:00.987Z</time></trkpt><trkpt lat="46.01908116212054" lon="11.892192667987446"><ele>272.33333333333337</ele><time>2026-04-12T14:42:01.987Z</time></trkpt><trkpt lat="46.01904156657892" lon="11.891959900951562"><ele>272.0</ele><time>2026-04-12T14:42:02.987Z</time></trkpt><trkpt lat="46.01901062677859" lon="11.891691907010303"><ele>272.0</ele><time>2026-04-12T14:42:03.987Z</time></trkpt><trkpt lat="46.018986777642205" lon="11.891436451953483"><ele>272.0</ele><time>2026-04-12T14:42:04.987Z</time></trkpt><trkpt lat="46.018965577412644" lon="11.891199991209842"><ele>272.0</ele><time>2026-04-12T14:42:05.987Z</time></trkpt><trkpt lat="46.018944532977514" lon="11.890981291282255"><ele>271.75</ele><time>2026-04-12T14:42:06.987Z</time></trkpt><trkpt lat="46.01892429652608" lon="11.890765622126636"><ele>271.5</ele><time>2026-04-12T14:42:07.987Z</time></trkpt><trkpt lat="46.018904534739406" lon="11.89056364768992"><ele>271.25</ele><time>2026-04-12T14:42:08.987Z</time></trkpt><trkpt lat="46.01888739278551" lon="11.890361713114594"><ele>271.0</ele><time>2026-04-12T14:42:09.987Z</time></trkpt><trkpt lat="46.018872273622655" lon="11.890175480247885"><ele>271.0</ele><time>2026-04-12T14:42:10.987Z</time></trkpt><trkpt lat="46.01885368502401" lon="11.889994337941022"><ele>271.0</ele><time>2026-04-12T14:42:11.987Z</time></trkpt><trkpt lat="46.0188367739305" lon="11.88981876442986"><ele>271.0</ele><time>2026-04-12T14:42:12.987Z</time></trkpt><trkpt lat="46.01882204142762" lon="11.889652713326504"><ele>271.0</ele><time>2026-04-12T14:42:13.988Z</time></trkpt><trkpt lat="46.018805756184214" lon="11.889489324340778"><ele>271.0</ele><time>2026-04-12T14:42:14.988Z</time></trkpt><trkpt lat="46.01879062925416" lon="11.889327095046186"><ele>271.0</ele><time>2026-04-12T14:42:15.988Z</time></trkpt><trkpt lat="46.01877698034815" lon="11.889167614205782"><ele>271.0</ele><time>2026-04-12T14:42:16.988Z</time></trkpt><trkpt lat="46.01876421771073" lon="11.889009461344143"><ele>271.0</ele><time>2026-04-12T14:42:17.988Z</time></trkpt><trkpt lat="46.01874967703751" lon="11.888860312335545"><ele>271.0</ele><time>2026-04-12T14:42:18.988Z</time></trkpt><trkpt lat="46.01873640048729" lon="11.888715959947564"><ele>271.0</ele><time>2026-04-12T14:42:19.988Z</time></trkpt><trkpt lat="46.01871707033502" lon="11.888579203516308"><ele>271.0</ele><time>2026-04-12T14:42:20.988Z</time></trkpt><trkpt lat="46.01868717503726" lon="11.88846264730345"><ele>271.0</ele><time>2026-04-12T14:42:21.988Z</time></trkpt><trkpt lat="46.01863504310555" lon="11.88836329959244"><ele>271.0</ele><time>2026-04-12T14:42:22.988Z</time></trkpt><trkpt lat="46.01859049986374" lon="11.888262743967033"><ele>271.0</ele><time>2026-04-12T14:42:23.988Z</time></trkpt><trkpt lat="46.018556138769036" lon="11.888140945277266"><ele>271.0</ele><time>2026-04-12T14:42:24.988Z</time></trkpt><trkpt lat="46.01851991763721" lon="11.888021186277921"><ele>270.42857142857144</ele><time>2026-04-12T14:42:25.988Z</time></trkpt><trkpt lat="46.01849874393012" lon="11.887907892958491"><ele>269.8571428571429</ele><time>2026-04-12T14:42:26.988Z</time></trkpt><trkpt lat="46.01846011478642" lon="11.887819692805452"><ele>269.28571428571433</ele><time>2026-04-12T14:42:27.988Z</time></trkpt><trkpt lat="46.018463515968165" lon="11.887712320823132"><ele>268.7142857142857</ele><time>2026-04-12T14:42:28.988Z</time></trkpt><trkpt lat="46.01850660487162" lon="11.887627953359681"><ele>268.14285714285717</ele><time>2026-04-12T14:42:29.988Z</time></trkpt><trkpt lat="46.018548395540584" lon="11.887539590756418"><ele>267.5714285714286</ele><time>2026-04-12T14:42:30.988Z</time></trkpt><trkpt lat="46.018564461262265" lon="11.88744686917563"><ele>267.0</ele><time>2026-04-12T14:42:31.988Z</time></trkpt><trkpt lat="46.01856258291462" lon="11.887341227580645"><ele>267.0</ele><time>2026-04-12T14:42:32.988Z</time></trkpt><trkpt lat="46.01855098151514" lon="11.887214140390816"><ele>267.0</ele><time>2026-04-12T14:42:33.988Z</time></trkpt><trkpt lat="46.01852353031391" lon="11.887070225875544"><ele>267.0</ele><time>2026-04-12T14:42:34.988Z</time></trkpt><trkpt lat="46.018492706382304" lon="11.886907713140806"><ele>267.0</ele><time>2026-04-12T14:42:35.988Z</time></trkpt><trkpt lat="46.0184506754675" lon="11.88673627824826"><ele>267.0</ele><time>2026-04-12T14:42:36.988Z</time></trkpt><trkpt lat="46.0183947176248" lon="11.886546797823783"><ele>267.0</ele><time>2026-04-12T14:42:37.988Z</time></trkpt><trkpt lat="46.0183258863554" lon="11.886344854682724"><ele>267.0</ele><time>2026-04-12T14:42:38.988Z</time></trkpt><trkpt lat="46.01825622572602" lon="11.886126430481058"><ele>267.0</ele><time>2026-04-12T14:42:39.988Z</time></trkpt><trkpt lat="46.0181789072693" lon="11.885906855945498"><ele>266.6666666666667</ele><time>2026-04-12T14:42:40.988Z</time></trkpt><trkpt lat="46.01810698918668" lon="11.885700560570665"><ele>266.33333333333337</ele><time>2026-04-12T14:42:41.988Z</time></trkpt><trkpt lat="46.01803630134484" lon="11.885498489640856"><ele>266.0</ele><time>2026-04-12T14:42:42.988Z</time></trkpt><trkpt lat="46.017961765381436" lon="11.885285418462145"><ele>266.33333333333337</ele><time>2026-04-12T14:42:43.988Z</time></trkpt><trkpt lat="46.017873790432475" lon="11.885087164823005"><ele>266.6666666666667</ele><time>2026-04-12T14:42:44.988Z</time></trkpt><trkpt lat="46.01780103618729" lon="11.884875025606165"><ele>267.0</ele><time>2026-04-12T14:42:45.988Z</time></trkpt><trkpt lat="46.017725012919264" lon="11.884657296933327"><ele>267.0</ele><time>2026-04-12T14:42:46.988Z</time></trkpt><trkpt lat="46.01765777473472" lon="11.88441242684101"><ele>267.0</ele><time>2026-04-12T14:42:47.988Z</time></trkpt><trkpt lat="46.01757480611862" lon="11.884173467664565"><ele>267.0</ele><time>2026-04-12T14:42:48.988Z</time></trkpt><trkpt lat="46.01747800641901" lon="11.88393394899399"><ele>268.3333333333333</ele><time>2026-04-12T14:42:49.988Z</time></trkpt><trkpt lat="46.017389088763295" lon="11.883671591945527"><ele>269.66666666666663</ele><time>2026-04-12T14:42:50.988Z</time></trkpt><trkpt lat="46.01729578688697" lon="11.883409760838127"><ele>271.0</ele><time>2026-04-12T14:42:51.988Z</time></trkpt><trkpt lat="46.01722424134505" lon="11.883151677089662"><ele>271.0</ele><time>2026-04-12T14:42:52.988Z</time></trkpt><trkpt lat="46.01713245377823" lon="11.882935551100987"><ele>271.0</ele><time>2026-04-12T14:42:53.988Z</time></trkpt><trkpt lat="46.017073175743924" lon="11.882711611558578"><ele>271.0</ele><time>2026-04-12T14:42:54.988Z</time></trkpt><trkpt lat="46.016986875237905" lon="11.882511817125206"><ele>271.0</ele><time>2026-04-12T14:42:55.988Z</time></trkpt><trkpt lat="46.01692819111173" lon="11.882287557832768"><ele>271.0</ele><time>2026-04-12T14:42:56.988Z</time></trkpt><trkpt lat="46.01685648430883" lon="11.882078350335618"><ele>271.0</ele><time>2026-04-12T14:42:57.988Z</time></trkpt><trkpt lat="46.01678139375599" lon="11.881860675619176"><ele>270.66666666666663</ele><time>2026-04-12T14:42:58.988Z</time></trkpt><trkpt lat="46.01670252345763" lon="11.881631445281792"><ele>270.3333333333333</ele><time>2026-04-12T14:42:59.988Z</time></trkpt><trkpt lat="46.016620808342466" lon="11.881393201180142"><ele>270.0</ele><time>2026-04-12T14:43:00.988Z</time></trkpt><trkpt lat="46.01655797179459" lon="11.881209719768863"><ele>269.6666666666667</ele><time>2026-04-12T14:43:01.988Z</time></trkpt><trkpt lat="46.01648214091578" lon="11.88098829503156"><ele>269.33333333333337</ele><time>2026-04-12T14:43:02.988Z</time></trkpt><trkpt lat="46.01639928890849" lon="11.880746933150398"><ele>269.0</ele><time>2026-04-12T14:43:03.988Z</time></trkpt><trkpt lat="46.01629861766616" lon="11.880453794511773"><ele>270.0</ele><time>2026-04-12T14:43:04.988Z</time></trkpt><trkpt lat="46.016190352556585" lon="11.880138543603277"><ele>271.0</ele><time>2026-04-12T14:43:05.988Z</time></trkpt><trkpt lat="46.01607326829805" lon="11.879797891475144"><ele>272.5</ele><time>2026-04-12T14:43:06.988Z</time></trkpt><trkpt lat="46.015948586965216" lon="11.879437103997525"><ele>274.0</ele><time>2026-04-12T14:43:07.988Z</time></trkpt><trkpt lat="46.015816258622024" lon="11.879097696226914"><ele>275.0</ele><time>2026-04-12T14:43:08.988Z</time></trkpt><trkpt lat="46.01573272593324" lon="11.878764631781793"><ele>276.0</ele><time>2026-04-12T14:43:09.988Z</time></trkpt><trkpt lat="46.015647358387234" lon="11.878467310174587"><ele>275.5</ele><time>2026-04-12T14:43:10.988Z</time></trkpt><trkpt lat="46.01553900997986" lon="11.878169929809765"><ele>275.0</ele><time>2026-04-12T14:43:11.988Z</time></trkpt><trkpt lat="46.01541126897068" lon="11.87786420318885"><ele>275.0</ele><time>2026-04-12T14:43:12.988Z</time></trkpt><trkpt lat="46.015305078614496" lon="11.877575876427656"><ele>275.0</ele><time>2026-04-12T14:43:13.988Z</time></trkpt><trkpt lat="46.01521174256629" lon="11.87730827460305"><ele>275.0</ele><time>2026-04-12T14:43:14.988Z</time></trkpt><trkpt lat="46.01511294607144" lon="11.87704830794015"><ele>275.0</ele><time>2026-04-12T14:43:15.988Z</time></trkpt><trkpt lat="46.01502832521259" lon="11.87677320831828"><ele>275.0</ele><time>2026-04-12T14:43:16.988Z</time></trkpt><trkpt lat="46.01493936884816" lon="11.876513630776941"><ele>275.0</ele><time>2026-04-12T14:43:17.988Z</time></trkpt><trkpt lat="46.014844958520314" lon="11.876237524903479"><ele>276.5</ele><time>2026-04-12T14:43:18.988Z</time></trkpt><trkpt lat="46.0147410428326" lon="11.875933539393499"><ele>278.0</ele><time>2026-04-12T14:43:19.988Z</time></trkpt><trkpt lat="46.01463023084885" lon="11.875610671392765"><ele>278.0</ele><time>2026-04-12T14:43:20.988Z</time></trkpt><trkpt lat="46.01453563069799" lon="11.875385790458354"><ele>278.0</ele><time>2026-04-12T14:43:22.988Z</time></trkpt><trkpt lat="46.01445766989408" lon="11.875150584759377"><ele>278.0</ele><time>2026-04-12T14:43:23.988Z</time></trkpt><trkpt lat="46.014383036864466" lon="11.874930475684653"><ele>278.33333333333337</ele><time>2026-04-12T14:43:24.988Z</time></trkpt><trkpt lat="46.01430941645937" lon="11.874716735936403"><ele>278.6666666666667</ele><time>2026-04-12T14:43:25.988Z</time></trkpt><trkpt lat="46.01423625803201" lon="11.874506846470336"><ele>279.0</ele><time>2026-04-12T14:43:26.988Z</time></trkpt><trkpt lat="46.01417019246163" lon="11.874301695966256"><ele>279.0</ele><time>2026-04-12T14:43:27.988Z</time></trkpt><trkpt lat="46.01409625485887" lon="11.874097749861289"><ele>279.0</ele><time>2026-04-12T14:43:28.988Z</time></trkpt><trkpt lat="46.01402221757841" lon="11.873897011970689"><ele>279.0</ele><time>2026-04-12T14:43:29.988Z</time></trkpt><trkpt lat="46.01396760446185" lon="11.873686831320008"><ele>279.0</ele><time>2026-04-12T14:43:30.988Z</time></trkpt><trkpt lat="46.01390076614621" lon="11.873492753825438"><ele>279.0</ele><time>2026-04-12T14:43:31.988Z</time></trkpt><trkpt lat="46.01384222633445" lon="11.873322919427116"><ele>279.0</ele><time>2026-04-12T14:43:32.988Z</time></trkpt><trkpt lat="46.01379294916886" lon="11.873179957350388"><ele>279.0</ele><time>2026-04-12T14:43:33.988Z</time></trkpt><trkpt lat="46.0137495652182" lon="11.873054092782729"><ele>279.4</ele><time>2026-04-12T14:43:34.988Z</time></trkpt><trkpt lat="46.013697502967496" lon="11.872949677889508"><ele>279.79999999999995</ele><time>2026-04-12T14:43:35.988Z</time></trkpt><trkpt lat="46.013657246542564" lon="11.872834914065532"><ele>280.20000000000005</ele><time>2026-04-12T14:43:36.988Z</time></trkpt><trkpt lat="46.013629298440016" lon="11.872746306928283"><ele>280.6</ele><time>2026-04-12T14:43:37.988Z</time></trkpt><trkpt lat="46.01357914079261" lon="11.872559287152805"><ele>281.0</ele><time>2026-04-12T14:43:39.988Z</time></trkpt><trkpt lat="46.01353361454491" lon="11.872426751076029"><ele>281.0</ele><time>2026-04-12T14:43:40.988Z</time></trkpt><trkpt lat="46.01346830228599" lon="11.872280596575527"><ele>281.0</ele><time>2026-04-12T14:43:41.988Z</time></trkpt><trkpt lat="46.013411671571696" lon="11.872115190754567"><ele>281.0</ele><time>2026-04-12T14:43:42.988Z</time></trkpt><trkpt lat="46.01334401980296" lon="11.87192917784717"><ele>281.0</ele><time>2026-04-12T14:43:43.988Z</time></trkpt><trkpt lat="46.013278226184504" lon="11.871726022897674"><ele>281.25</ele><time>2026-04-12T14:43:44.988Z</time></trkpt><trkpt lat="46.01321693278725" lon="11.871549567818914"><ele>281.5</ele><time>2026-04-12T14:43:45.988Z</time></trkpt><trkpt lat="46.013157718147134" lon="11.871381565513095"><ele>281.75</ele><time>2026-04-12T14:43:46.988Z</time></trkpt><trkpt lat="46.01312022947309" lon="11.871214900746214"><ele>282.0</ele><time>2026-04-12T14:43:47.988Z</time></trkpt><trkpt lat="46.013058276807975" lon="11.87103427761938"><ele>282.3333333333333</ele><time>2026-04-12T14:43:48.988Z</time></trkpt><trkpt lat="46.012994320597926" lon="11.870838713084714"><ele>282.66666666666663</ele><time>2026-04-12T14:43:49.988Z</time></trkpt><trkpt lat="46.01291863727369" lon="11.870620270844459"><ele>283.0</ele><time>2026-04-12T14:43:50.988Z</time></trkpt><trkpt lat="46.012833466861125" lon="11.87038697232423"><ele>283.0</ele><time>2026-04-12T14:43:51.988Z</time></trkpt><trkpt lat="46.012753580619666" lon="11.870159746833268"><ele>283.0</ele><time>2026-04-12T14:43:52.988Z</time></trkpt><trkpt lat="46.01268251358438" lon="11.869961754002007"><ele>283.0</ele><time>2026-04-12T14:43:53.988Z</time></trkpt><trkpt lat="46.01262102195504" lon="11.869763495450284"><ele>283.0</ele><time>2026-04-12T14:43:54.988Z</time></trkpt><trkpt lat="46.01254487258033" lon="11.869554317491842"><ele>283.0</ele><time>2026-04-12T14:43:55.988Z</time></trkpt><trkpt lat="46.01247255977341" lon="11.869339463969238"><ele>283.0</ele><time>2026-04-12T14:43:56.988Z</time></trkpt><trkpt lat="46.01239495854326" lon="11.869112936009564"><ele>283.0</ele><time>2026-04-12T14:43:57.988Z</time></trkpt><trkpt lat="46.01231169093185" lon="11.868871505700588"><ele>283.0</ele><time>2026-04-12T14:43:58.988Z</time></trkpt><trkpt lat="46.01222199529743" lon="11.868605971870887"><ele>283.0</ele><time>2026-04-12T14:43:59.988Z</time></trkpt><trkpt lat="46.01214433790076" lon="11.868367847881109"><ele>284.0</ele><time>2026-04-12T14:44:00.988Z</time></trkpt><trkpt lat="46.012070441402635" lon="11.868145067681219"><ele>285.0</ele><time>2026-04-12T14:44:01.988Z</time></trkpt><trkpt lat="46.011995047906126" lon="11.867933454813581"><ele>286.0</ele><time>2026-04-12T14:44:02.988Z</time></trkpt><trkpt lat="46.011916301117004" lon="11.86771667992997"><ele>286.0</ele><time>2026-04-12T14:44:03.988Z</time></trkpt><trkpt lat="46.011836799933086" lon="11.867489270496767"><ele>286.0</ele><time>2026-04-12T14:44:04.988Z</time></trkpt><trkpt lat="46.01175462003702" lon="11.867252485128645"><ele>286.0</ele><time>2026-04-12T14:44:05.988Z</time></trkpt><trkpt lat="46.01167458849686" lon="11.86701801701566"><ele>286.0</ele><time>2026-04-12T14:44:06.988Z</time></trkpt><trkpt lat="46.011596551783725" lon="11.866789565083426"><ele>286.0</ele><time>2026-04-12T14:44:07.988Z</time></trkpt><trkpt lat="46.01151707286069" lon="11.866570361293702"><ele>286.0</ele><time>2026-04-12T14:44:08.988Z</time></trkpt><trkpt lat="46.01143739432805" lon="11.866351985236644"><ele>286.0</ele><time>2026-04-12T14:44:09.988Z</time></trkpt><trkpt lat="46.01135025085002" lon="11.866124768235823"><ele>286.0</ele><time>2026-04-12T14:44:10.988Z</time></trkpt><trkpt lat="46.01127743374607" lon="11.865907988660979"><ele>286.0</ele><time>2026-04-12T14:44:11.988Z</time></trkpt><trkpt lat="46.01119751577674" lon="11.865686225249986"><ele>286.3333333333333</ele><time>2026-04-12T14:44:12.988Z</time></trkpt><trkpt lat="46.01112946096483" lon="11.865475475504915"><ele>286.6666666666667</ele><time>2026-04-12T14:44:13.988Z</time></trkpt><trkpt lat="46.01105312180122" lon="11.865266503367891"><ele>287.0</ele><time>2026-04-12T14:44:14.988Z</time></trkpt><trkpt lat="46.01098534417059" lon="11.865061616868973"><ele>287.6666666666667</ele><time>2026-04-12T14:44:15.988Z</time></trkpt><trkpt lat="46.010912144448824" lon="11.864843432801345"><ele>288.3333333333333</ele><time>2026-04-12T14:44:16.988Z</time></trkpt><trkpt lat="46.01083523323332" lon="11.864612053973485"><ele>289.0</ele><time>2026-04-12T14:44:17.988Z</time></trkpt><trkpt lat="46.01075753869055" lon="11.864379596085993"><ele>290.0</ele><time>2026-04-12T14:44:18.988Z</time></trkpt><trkpt lat="46.010685910622435" lon="11.864166696943952"><ele>291.0</ele><time>2026-04-12T14:44:19.988Z</time></trkpt><trkpt lat="46.01060661055706" lon="11.86395435896457"><ele>292.0</ele><time>2026-04-12T14:44:20.988Z</time></trkpt><trkpt lat="46.01052682639632" lon="11.863728210084231"><ele>292.0</ele><time>2026-04-12T14:44:21.988Z</time></trkpt><trkpt lat="46.010452961698356" lon="11.863513159142109"><ele>292.0</ele><time>2026-04-12T14:44:22.988Z</time></trkpt><trkpt lat="46.01038534091787" lon="11.863307401282635"><ele>292.0</ele><time>2026-04-12T14:44:23.988Z</time></trkpt><trkpt lat="46.010312937245025" lon="11.863092150499842"><ele>292.0</ele><time>2026-04-12T14:44:24.988Z</time></trkpt><trkpt lat="46.01023826983276" lon="11.862871109184844"><ele>292.0</ele><time>2026-04-12T14:44:25.988Z</time></trkpt><trkpt lat="46.01015679923872" lon="11.86263799337553"><ele>292.0</ele><time>2026-04-12T14:44:26.988Z</time></trkpt><trkpt lat="46.010069279767414" lon="11.862390154199154"><ele>291.66666666666663</ele><time>2026-04-12T14:44:27.988Z</time></trkpt><trkpt lat="46.009978673847584" lon="11.862131962351476"><ele>291.3333333333333</ele><time>2026-04-12T14:44:28.988Z</time></trkpt><trkpt lat="46.009888287665994" lon="11.861868413417213"><ele>291.0</ele><time>2026-04-12T14:44:29.988Z</time></trkpt><trkpt lat="46.00979308478403" lon="11.861599664442798"><ele>291.0</ele><time>2026-04-12T14:44:30.988Z</time></trkpt><trkpt lat="46.00969818514786" lon="11.86132690844211"><ele>291.0</ele><time>2026-04-12T14:44:31.988Z</time></trkpt><trkpt lat="46.00961802093287" lon="11.86105108522581"><ele>291.0</ele><time>2026-04-12T14:44:32.988Z</time></trkpt><trkpt lat="46.00952345778774" lon="11.860777632364455"><ele>292.0</ele><time>2026-04-12T14:44:33.988Z</time></trkpt><trkpt lat="46.009427348896104" lon="11.860499709594464"><ele>293.0</ele><time>2026-04-12T14:44:34.988Z</time></trkpt><trkpt lat="46.00934342276007" lon="11.860257016382869"><ele>294.0</ele><time>2026-04-12T14:44:35.988Z</time></trkpt><trkpt lat="46.00926149153849" lon="11.860020091795452"><ele>294.0</ele><time>2026-04-12T14:44:36.988Z</time></trkpt><trkpt lat="46.009187415854434" lon="11.85981897209792"><ele>294.0</ele><time>2026-04-12T14:44:37.988Z</time></trkpt><trkpt lat="46.00910211975702" lon="11.859589467573022"><ele>294.0</ele><time>2026-04-12T14:44:38.988Z</time></trkpt><trkpt lat="46.009028840449005" lon="11.859345704072812"><ele>294.6666666666667</ele><time>2026-04-12T14:44:39.988Z</time></trkpt><trkpt lat="46.008938964008166" lon="11.859125553533422"><ele>295.33333333333337</ele><time>2026-04-12T14:44:40.988Z</time></trkpt><trkpt lat="46.0088764731592" lon="11.858903500362239"><ele>296.0</ele><time>2026-04-12T14:44:41.988Z</time></trkpt><trkpt lat="46.008783640351496" lon="11.858659152847427"><ele>297.0</ele><time>2026-04-12T14:44:42.988Z</time></trkpt><trkpt lat="46.008708095150425" lon="11.858427936019485"><ele>298.0</ele><time>2026-04-12T14:44:43.988Z</time></trkpt><trkpt lat="46.008634399781144" lon="11.858205992317224"><ele>299.0</ele><time>2026-04-12T14:44:44.988Z</time></trkpt><trkpt lat="46.00856087796602" lon="11.857993821132675"><ele>299.0</ele><time>2026-04-12T14:44:45.988Z</time></trkpt><trkpt lat="46.008490381321046" lon="11.85779352539463"><ele>299.0</ele><time>2026-04-12T14:44:46.988Z</time></trkpt><trkpt lat="46.008434281574026" lon="11.857614841898702"><ele>299.0</ele><time>2026-04-12T14:44:47.988Z</time></trkpt><trkpt lat="46.00836937786673" lon="11.857431635200422"><ele>299.0</ele><time>2026-04-12T14:44:48.988Z</time></trkpt><trkpt lat="46.00831071930517" lon="11.857255721348492"><ele>298.6666666666667</ele><time>2026-04-12T14:44:49.988Z</time></trkpt><trkpt lat="46.00825089536475" lon="11.857068087425365"><ele>298.3333333333333</ele><time>2026-04-12T14:44:50.988Z</time></trkpt><trkpt lat="46.008173953462034" lon="11.856862004536152"><ele>298.0</ele><time>2026-04-12T14:44:51.988Z</time></trkpt><trkpt lat="46.00810075452497" lon="11.856647491360327"><ele>299.0</ele><time>2026-04-12T14:44:52.988Z</time></trkpt><trkpt lat="46.008029801095944" lon="11.856436904487826"><ele>300.0</ele><time>2026-04-12T14:44:53.988Z</time></trkpt><trkpt lat="46.00794395866709" lon="11.856210119747256"><ele>301.0</ele><time>2026-04-12T14:44:54.988Z</time></trkpt><trkpt lat="46.00786254878059" lon="11.855968909306654"><ele>301.66666666666663</ele><time>2026-04-12T14:44:55.988Z</time></trkpt><trkpt lat="46.00777319324649" lon="11.855715754696137"><ele>302.3333333333333</ele><time>2026-04-12T14:44:56.988Z</time></trkpt><trkpt lat="46.00767088276327" lon="11.855428059993258"><ele>303.0</ele><time>2026-04-12T14:44:57.988Z</time></trkpt><trkpt lat="46.00757310716712" lon="11.855112095288854"><ele>303.5</ele><time>2026-04-12T14:44:58.988Z</time></trkpt><trkpt lat="46.007458439609074" lon="11.854777310209702"><ele>304.0</ele><time>2026-04-12T14:44:59.988Z</time></trkpt><trkpt lat="46.00733660418602" lon="11.854421597829266"><ele>305.0</ele><time>2026-04-12T14:45:00.988Z</time></trkpt><trkpt lat="46.0072108293771" lon="11.854055796500958"><ele>306.0</ele><time>2026-04-12T14:45:01.988Z</time></trkpt><trkpt lat="46.00707830509393" lon="11.853671862868108"><ele>306.0</ele><time>2026-04-12T14:45:02.988Z</time></trkpt><trkpt lat="46.00693387521106" lon="11.853298943791426"><ele>306.0</ele><time>2026-04-12T14:45:03.988Z</time></trkpt><trkpt lat="46.00682087925082" lon="11.852954349707439"><ele>306.0</ele><time>2026-04-12T14:45:04.988Z</time></trkpt><trkpt lat="46.006712108999274" lon="11.852640109078859"><ele>306.0</ele><time>2026-04-12T14:45:05.988Z</time></trkpt><trkpt lat="46.00661677881451" lon="11.852320224704657"><ele>306.5</ele><time>2026-04-12T14:45:06.988Z</time></trkpt><trkpt lat="46.00650905888047" lon="11.852006792529906"><ele>307.0</ele><time>2026-04-12T14:45:07.988Z</time></trkpt><trkpt lat="46.00639722950955" lon="11.851686040789911"><ele>308.5</ele><time>2026-04-12T14:45:08.988Z</time></trkpt><trkpt lat="46.006291818456035" lon="11.851380446072126"><ele>310.0</ele><time>2026-04-12T14:45:09.988Z</time></trkpt><trkpt lat="46.006192563726934" lon="11.851089831302092"><ele>310.5</ele><time>2026-04-12T14:45:10.988Z</time></trkpt><trkpt lat="46.00608483635135" lon="11.850795489362294"><ele>311.0</ele><time>2026-04-12T14:45:11.988Z</time></trkpt><trkpt lat="46.00598378230258" lon="11.850508566434867"><ele>311.0</ele><time>2026-04-12T14:45:12.988Z</time></trkpt><trkpt lat="46.00588451149046" lon="11.850216757329337"><ele>311.0</ele><time>2026-04-12T14:45:13.988Z</time></trkpt><trkpt lat="46.0057877024082" lon="11.849932500647691"><ele>311.0</ele><time>2026-04-12T14:45:14.988Z</time></trkpt><trkpt lat="46.00569053149913" lon="11.84965062533854"><ele>311.0</ele><time>2026-04-12T14:45:15.988Z</time></trkpt><trkpt lat="46.00559303842236" lon="11.849385697988033"><ele>311.0</ele><time>2026-04-12T14:45:16.988Z</time></trkpt><trkpt lat="46.00547997219713" lon="11.849127567378094"><ele>311.0</ele><time>2026-04-12T14:45:17.988Z</time></trkpt><trkpt lat="46.00535764268768" lon="11.848872170535675"><ele>311.0</ele><time>2026-04-12T14:45:18.988Z</time></trkpt><trkpt lat="46.00521068064108" lon="11.848598566262835"><ele>311.0</ele><time>2026-04-12T14:45:19.988Z</time></trkpt><trkpt lat="46.00505324249908" lon="11.848331124899627"><ele>311.0</ele><time>2026-04-12T14:45:20.988Z</time></trkpt><trkpt lat="46.00491782580948" lon="11.84808897558906"><ele>311.0</ele><time>2026-04-12T14:45:21.988Z</time></trkpt><trkpt lat="46.00479252245095" lon="11.847868609576967"><ele>311.0</ele><time>2026-04-12T14:45:22.988Z</time></trkpt><trkpt lat="46.00467667991252" lon="11.847656836431321"><ele>312.0</ele><time>2026-04-12T14:45:23.988Z</time></trkpt><trkpt lat="46.00456209151308" lon="11.847444913595561"><ele>313.0</ele><time>2026-04-12T14:45:24.988Z</time></trkpt><trkpt lat="46.004445858362566" lon="11.847223809294908"><ele>314.0</ele><time>2026-04-12T14:45:25.988Z</time></trkpt><trkpt lat="46.004336865021" lon="11.846999886113371"><ele>314.0</ele><time>2026-04-12T14:45:26.988Z</time></trkpt><trkpt lat="46.00423506791205" lon="11.84676937106986"><ele>314.0</ele><time>2026-04-12T14:45:27.988Z</time></trkpt><trkpt lat="46.00413279208204" lon="11.846545195673215"><ele>314.0</ele><time>2026-04-12T14:45:28.988Z</time></trkpt><trkpt lat="46.004029992749004" lon="11.846322585674873"><ele>314.0</ele><time>2026-04-12T14:45:29.988Z</time></trkpt><trkpt lat="46.00392487043338" lon="11.84609626633248"><ele>314.0</ele><time>2026-04-12T14:45:30.988Z</time></trkpt><trkpt lat="46.00382839812144" lon="11.845878046527758"><ele>314.0</ele><time>2026-04-12T14:45:31.988Z</time></trkpt><trkpt lat="46.003736472350596" lon="11.845669807158867"><ele>314.6666666666667</ele><time>2026-04-12T14:45:32.988Z</time></trkpt><trkpt lat="46.003656490284115" lon="11.84548053451844"><ele>315.3333333333333</ele><time>2026-04-12T14:45:33.988Z</time></trkpt><trkpt lat="46.003573233124" lon="11.84528789520113"><ele>316.0</ele><time>2026-04-12T14:45:34.988Z</time></trkpt><trkpt lat="46.00348818264602" lon="11.845080091405292"><ele>316.66666666666663</ele><time>2026-04-12T14:45:35.988Z</time></trkpt><trkpt lat="46.00340836583516" lon="11.844861126183412"><ele>317.3333333333333</ele><time>2026-04-12T14:45:36.988Z</time></trkpt><trkpt lat="46.00332861359158" lon="11.844621425644672"><ele>318.0</ele><time>2026-04-12T14:45:37.988Z</time></trkpt><trkpt lat="46.00325402563074" lon="11.844378722656646"><ele>318.6666666666667</ele><time>2026-04-12T14:45:38.988Z</time></trkpt><trkpt lat="46.003196177189935" lon="11.844153286865925"><ele>319.33333333333337</ele><time>2026-04-12T14:45:39.988Z</time></trkpt><trkpt lat="46.00314597103691" lon="11.843922827397973"><ele>320.0</ele><time>2026-04-12T14:45:40.988Z</time></trkpt><trkpt lat="46.003112621896186" lon="11.843707717832276"><ele>320.0</ele><time>2026-04-12T14:45:41.988Z</time></trkpt><trkpt lat="46.0030965275287" lon="11.8435102905062"><ele>320.0</ele><time>2026-04-12T14:45:42.988Z</time></trkpt><trkpt lat="46.00307545946115" lon="11.843324304920783"><ele>320.0</ele><time>2026-04-12T14:45:43.988Z</time></trkpt><trkpt lat="46.003052790344256" lon="11.843142685782523"><ele>320.0</ele><time>2026-04-12T14:45:44.988Z</time></trkpt><trkpt lat="46.003036987876925" lon="11.84296601020252"><ele>320.4</ele><time>2026-04-12T14:45:45.988Z</time></trkpt><trkpt lat="46.0030253337098" lon="11.842799204959597"><ele>320.8</ele><time>2026-04-12T14:45:46.988Z</time></trkpt><trkpt lat="46.00301356664452" lon="11.842642118759937"><ele>321.20000000000005</ele><time>2026-04-12T14:45:47.988Z</time></trkpt><trkpt lat="46.00300301226486" lon="11.842490599597022"><ele>321.6</ele><time>2026-04-12T14:45:48.988Z</time></trkpt><trkpt lat="46.00300462752528" lon="11.842346335916131"><ele>322.0</ele><time>2026-04-12T14:45:49.988Z</time></trkpt><trkpt lat="46.00301300789019" lon="11.842207202939905"><ele>322.20000000000005</ele><time>2026-04-12T14:45:50.988Z</time></trkpt><trkpt lat="46.00303072305063" lon="11.842079104005936"><ele>322.4</ele><time>2026-04-12T14:45:51.988Z</time></trkpt><trkpt lat="46.003049220178745" lon="11.841939666982157"><ele>322.6</ele><time>2026-04-12T14:45:52.988Z</time></trkpt><trkpt lat="46.00307476458992" lon="11.841806740445906"><ele>322.79999999999995</ele><time>2026-04-12T14:45:53.988Z</time></trkpt><trkpt lat="46.0031014099397" lon="11.841683531473318"><ele>323.0</ele><time>2026-04-12T14:45:54.988Z</time></trkpt><trkpt lat="46.0031414392861" lon="11.841475955800414"><ele>323.0</ele><time>2026-04-12T14:45:55.988Z</time></trkpt><trkpt lat="46.00317832909337" lon="11.841323512015753"><ele>323.0</ele><time>2026-04-12T14:45:56.988Z</time></trkpt><trkpt lat="46.00326421140015" lon="11.841085252307566"><ele>323.0</ele><time>2026-04-12T14:45:57.988Z</time></trkpt><trkpt lat="46.00335071006867" lon="11.840790815460274"><ele>323.0</ele><time>2026-04-12T14:45:58.988Z</time></trkpt><trkpt lat="46.00344032110842" lon="11.840505969613448"><ele>323.0</ele><time>2026-04-12T14:45:59.988Z</time></trkpt><trkpt lat="46.00352130858625" lon="11.840254848254157"><ele>323.0</ele><time>2026-04-12T14:46:00.988Z</time></trkpt><trkpt lat="46.00359254567031" lon="11.840023386367898"><ele>322.75</ele><time>2026-04-12T14:46:01.988Z</time></trkpt><trkpt lat="46.003656271744546" lon="11.839826536313797"><ele>322.5</ele><time>2026-04-12T14:46:02.988Z</time></trkpt><trkpt lat="46.003696175821936" lon="11.839642364965174"><ele>322.25</ele><time>2026-04-12T14:46:03.988Z</time></trkpt><trkpt lat="46.0037201402242" lon="11.839465157466655"><ele>322.0</ele><time>2026-04-12T14:46:04.988Z</time></trkpt><trkpt lat="46.003747013578746" lon="11.839312447873697"><ele>321.5</ele><time>2026-04-12T14:46:05.988Z</time></trkpt><trkpt lat="46.00378618600554" lon="11.839190594220883"><ele>321.0</ele><time>2026-04-12T14:46:06.988Z</time></trkpt><trkpt lat="46.00382388113947" lon="11.839100553220623"><ele>320.5</ele><time>2026-04-12T14:46:07.988Z</time></trkpt><trkpt lat="46.00381800486459" lon="11.838999018184422"><ele>320.0</ele><time>2026-04-12T14:46:08.988Z</time></trkpt><trkpt lat="46.00377158096716" lon="11.838923275871748"><ele>319.5</ele><time>2026-04-12T14:46:09.988Z</time></trkpt><trkpt lat="46.00369340110659" lon="11.83886695368026"><ele>319.0</ele><time>2026-04-12T14:46:10.988Z</time></trkpt><trkpt lat="46.003590163811026" lon="11.838812891242839"><ele>319.0</ele><time>2026-04-12T14:46:11.988Z</time></trkpt><trkpt lat="46.003494222157656" lon="11.838708744365123"><ele>319.0</ele><time>2026-04-12T14:46:12.988Z</time></trkpt><trkpt lat="46.00340391479759" lon="11.838555006372792"><ele>319.0</ele><time>2026-04-12T14:46:13.988Z</time></trkpt><trkpt lat="46.00333437285706" lon="11.838399907826787"><ele>319.0</ele><time>2026-04-12T14:46:14.988Z</time></trkpt><trkpt lat="46.0032731403579" lon="11.838251913035233"><ele>318.75</ele><time>2026-04-12T14:46:15.988Z</time></trkpt><trkpt lat="46.00322040152595" lon="11.838095710675775"><ele>318.5</ele><time>2026-04-12T14:46:16.988Z</time></trkpt><trkpt lat="46.00316003791939" lon="11.837938724611597"><ele>318.25</ele><time>2026-04-12T14:46:17.988Z</time></trkpt><trkpt lat="46.00309975543755" lon="11.837788998045948"><ele>318.0</ele><time>2026-04-12T14:46:18.988Z</time></trkpt><trkpt lat="46.003046306681334" lon="11.837640255895831"><ele>318.2</ele><time>2026-04-12T14:46:19.988Z</time></trkpt><trkpt lat="46.00298694037761" lon="11.837486345041956"><ele>318.4</ele><time>2026-04-12T14:46:20.988Z</time></trkpt><trkpt lat="46.00293242388384" lon="11.837347896891487"><ele>318.59999999999997</ele><time>2026-04-12T14:46:21.988Z</time></trkpt><trkpt lat="46.00287946771073" lon="11.837211971226193"><ele>318.8</ele><time>2026-04-12T14:46:22.988Z</time></trkpt><trkpt lat="46.00282826099896" lon="11.837076799231106"><ele>319.0</ele><time>2026-04-12T14:46:23.988Z</time></trkpt><trkpt lat="46.0027844025369" lon="11.836964062802926"><ele>319.0</ele><time>2026-04-12T14:46:24.988Z</time></trkpt><trkpt lat="46.00274022640825" lon="11.836877631504882"><ele>319.0</ele><time>2026-04-12T14:46:25.988Z</time></trkpt><trkpt lat="46.002690682866444" lon="11.836806318538827"><ele>319.0</ele><time>2026-04-12T14:46:26.988Z</time></trkpt><trkpt lat="46.00264660873736" lon="11.836736942382672"><ele>319.0</ele><time>2026-04-12T14:46:27.988Z</time></trkpt><trkpt lat="46.002598228546255" lon="11.836626496651466"><ele>319.0</ele><time>2026-04-12T14:46:28.988Z</time></trkpt><trkpt lat="46.002559139712886" lon="11.836480560410065"><ele>319.0</ele><time>2026-04-12T14:46:29.988Z</time></trkpt><trkpt lat="46.00250597368696" lon="11.836306131913627"><ele>319.0</ele><time>2026-04-12T14:46:30.988Z</time></trkpt><trkpt lat="46.00244684972754" lon="11.836142026669188"><ele>319.0</ele><time>2026-04-12T14:46:31.988Z</time></trkpt><trkpt lat="46.00238750215144" lon="11.835997431421466"><ele>319.0</ele><time>2026-04-12T14:46:32.988Z</time></trkpt><trkpt lat="46.00234644415341" lon="11.835838191873556"><ele>319.0</ele><time>2026-04-12T14:46:33.988Z</time></trkpt><trkpt lat="46.00232343003371" lon="11.835634098127716"><ele>319.3333333333333</ele><time>2026-04-12T14:46:34.988Z</time></trkpt><trkpt lat="46.00230061850846" lon="11.835392093796115"><ele>319.6666666666667</ele><time>2026-04-12T14:46:35.988Z</time></trkpt><trkpt lat="46.00228549932518" lon="11.835109426901072"><ele>320.0</ele><time>2026-04-12T14:46:36.988Z</time></trkpt><trkpt lat="46.00227036972542" lon="11.83479395390478"><ele>319.0</ele><time>2026-04-12T14:46:37.988Z</time></trkpt><trkpt lat="46.00225980596151" lon="11.834454955924278"><ele>318.0</ele><time>2026-04-12T14:46:38.988Z</time></trkpt><trkpt lat="46.002247612220565" lon="11.834129418200071"><ele>318.0</ele><time>2026-04-12T14:46:39.988Z</time></trkpt><trkpt lat="46.00224652020347" lon="11.833832420765345"><ele>318.0</ele><time>2026-04-12T14:46:40.988Z</time></trkpt><trkpt lat="46.00224553734283" lon="11.833532700656487"><ele>318.0</ele><time>2026-04-12T14:46:41.988Z</time></trkpt><trkpt lat="46.00224149108811" lon="11.833206087131913"><ele>318.0</ele><time>2026-04-12T14:46:42.988Z</time></trkpt><trkpt lat="46.00222993830785" lon="11.832848657324936"><ele>318.0</ele><time>2026-04-12T14:46:43.988Z</time></trkpt><trkpt lat="46.00221944316167" lon="11.832458786928317"><ele>318.0</ele><time>2026-04-12T14:46:44.988Z</time></trkpt><trkpt lat="46.00221583044235" lon="11.832053768156214"><ele>318.0</ele><time>2026-04-12T14:46:45.988Z</time></trkpt><trkpt lat="46.00221014514212" lon="11.831617269343138"><ele>318.0</ele><time>2026-04-12T14:46:46.988Z</time></trkpt><trkpt lat="46.00220341804488" lon="11.83116267491881"><ele>318.0</ele><time>2026-04-12T14:46:47.988Z</time></trkpt><trkpt lat="46.002196534911626" lon="11.83068535664676"><ele>318.0</ele><time>2026-04-12T14:46:48.988Z</time></trkpt><trkpt lat="46.0021891535823" lon="11.830202725841888"><ele>318.0</ele><time>2026-04-12T14:46:49.988Z</time></trkpt><trkpt lat="46.002182518373985" lon="11.829759981576313"><ele>317.0</ele><time>2026-04-12T14:46:50.988Z</time></trkpt><trkpt lat="46.00217456854737" lon="11.829323154207566"><ele>316.0</ele><time>2026-04-12T14:46:51.988Z</time></trkpt><trkpt lat="46.00216714288681" lon="11.828892841605642"><ele>315.0</ele><time>2026-04-12T14:46:52.988Z</time></trkpt><trkpt lat="46.00216035756105" lon="11.828472869078807"><ele>314.0</ele><time>2026-04-12T14:46:53.988Z</time></trkpt><trkpt lat="46.002153963258195" lon="11.828073749505782"><ele>314.0</ele><time>2026-04-12T14:46:54.988Z</time></trkpt><trkpt lat="46.00215322542642" lon="11.82769279844362"><ele>314.0</ele><time>2026-04-12T14:46:55.988Z</time></trkpt><trkpt lat="46.00214646963187" lon="11.827308778868609"><ele>314.5</ele><time>2026-04-12T14:46:56.988Z</time></trkpt><trkpt lat="46.00213908136243" lon="11.826904583825508"><ele>315.0</ele><time>2026-04-12T14:46:57.988Z</time></trkpt><trkpt lat="46.002127461736855" lon="11.826476050546411"><ele>315.5</ele><time>2026-04-12T14:46:58.988Z</time></trkpt><trkpt lat="46.002117813705745" lon="11.82603176007765"><ele>316.0</ele><time>2026-04-12T14:46:59.988Z</time></trkpt><trkpt lat="46.002115175570744" lon="11.825583953087746"><ele>315.0</ele><time>2026-04-12T14:47:00.988Z</time></trkpt><trkpt lat="46.00210710799335" lon="11.825172463966586"><ele>314.0</ele><time>2026-04-12T14:47:01.988Z</time></trkpt><trkpt lat="46.002102829519245" lon="11.824788375444136"><ele>313.5</ele><time>2026-04-12T14:47:02.988Z</time></trkpt><trkpt lat="46.002100576971685" lon="11.824421535423786"><ele>313.0</ele><time>2026-04-12T14:47:03.988Z</time></trkpt><trkpt lat="46.00209617697832" lon="11.824072384883713"><ele>312.0</ele><time>2026-04-12T14:47:04.988Z</time></trkpt><trkpt lat="46.002092309216614" lon="11.823711623033482"><ele>311.0</ele><time>2026-04-12T14:47:05.988Z</time></trkpt><trkpt lat="46.00208570738633" lon="11.823339320414036"><ele>310.0</ele><time>2026-04-12T14:47:06.988Z</time></trkpt><trkpt lat="46.0020781866635" lon="11.822952028852988"><ele>309.0</ele><time>2026-04-12T14:47:07.988Z</time></trkpt><trkpt lat="46.0020682841672" lon="11.822555564329123"><ele>309.0</ele><time>2026-04-12T14:47:08.988Z</time></trkpt><trkpt lat="46.00207810367914" lon="11.82214221525671"><ele>309.0</ele><time>2026-04-12T14:47:09.988Z</time></trkpt><trkpt lat="46.002072693694856" lon="11.821723208983423"><ele>308.5</ele><time>2026-04-12T14:47:10.988Z</time></trkpt><trkpt lat="46.00206679477685" lon="11.821313100624213"><ele>308.0</ele><time>2026-04-12T14:47:11.988Z</time></trkpt><trkpt lat="46.002060789758175" lon="11.820929106074471"><ele>307.0</ele><time>2026-04-12T14:47:12.988Z</time></trkpt><trkpt lat="46.00205520467513" lon="11.820573728490682"><ele>306.0</ele><time>2026-04-12T14:47:13.988Z</time></trkpt><trkpt lat="46.002028761565725" lon="11.820228102849068"><ele>305.6666666666667</ele><time>2026-04-12T14:47:14.988Z</time></trkpt><trkpt lat="46.002026375777206" lon="11.81990183485897"><ele>305.33333333333337</ele><time>2026-04-12T14:47:15.988Z</time></trkpt><trkpt lat="46.002021490556054" lon="11.819581273855125"><ele>305.0</ele><time>2026-04-12T14:47:16.988Z</time></trkpt><trkpt lat="46.00201809989309" lon="11.819255661588915"><ele>305.0</ele><time>2026-04-12T14:47:17.988Z</time></trkpt><trkpt lat="46.00201324314113" lon="11.818937101614297"><ele>305.0</ele><time>2026-04-12T14:47:18.988Z</time></trkpt><trkpt lat="46.002007291253484" lon="11.818630261498814"><ele>305.0</ele><time>2026-04-12T14:47:19.988Z</time></trkpt><trkpt lat="46.0020001543125" lon="11.818331811279073"><ele>304.33333333333337</ele><time>2026-04-12T14:47:20.988Z</time></trkpt><trkpt lat="46.00201682985733" lon="11.81804756290614"><ele>303.6666666666667</ele><time>2026-04-12T14:47:21.988Z</time></trkpt><trkpt lat="46.00199664074525" lon="11.817772331329495"><ele>303.0</ele><time>2026-04-12T14:47:22.988Z</time></trkpt><trkpt lat="46.001993058933756" lon="11.817484418691015"><ele>303.0</ele><time>2026-04-12T14:47:23.988Z</time></trkpt><trkpt lat="46.0019889769618" lon="11.817190294754663"><ele>303.0</ele><time>2026-04-12T14:47:24.988Z</time></trkpt><trkpt lat="46.0019833299877" lon="11.816896307886259"><ele>303.0</ele><time>2026-04-12T14:47:25.988Z</time></trkpt><trkpt lat="46.00198006189178" lon="11.816598208923146"><ele>303.0</ele><time>2026-04-12T14:47:26.988Z</time></trkpt><trkpt lat="46.00197621212604" lon="11.816297910427778"><ele>303.0</ele><time>2026-04-12T14:47:27.988Z</time></trkpt><trkpt lat="46.0019717024855" lon="11.816006705133274"><ele>303.0</ele><time>2026-04-12T14:47:28.988Z</time></trkpt><trkpt lat="46.00198234667834" lon="11.815728404044195"><ele>302.0</ele><time>2026-04-12T14:47:29.988Z</time></trkpt><trkpt lat="46.00197889651741" lon="11.815462834835053"><ele>301.0</ele><time>2026-04-12T14:47:30.988Z</time></trkpt><trkpt lat="46.00197523613892" lon="11.81519827410761"><ele>300.0</ele><time>2026-04-12T14:47:31.988Z</time></trkpt><trkpt lat="46.00197146983897" lon="11.814944264030528"><ele>299.6666666666667</ele><time>2026-04-12T14:47:32.988Z</time></trkpt><trkpt lat="46.00196783923046" lon="11.814699405280463"><ele>299.33333333333337</ele><time>2026-04-12T14:47:33.988Z</time></trkpt><trkpt lat="46.00196414729276" lon="11.814450410382094"><ele>299.0</ele><time>2026-04-12T14:47:34.988Z</time></trkpt><trkpt lat="46.00196091771331" lon="11.814205206445168"><ele>298.6666666666667</ele><time>2026-04-12T14:47:35.988Z</time></trkpt><trkpt lat="46.00195770461737" lon="11.813947035655412"><ele>298.3333333333333</ele><time>2026-04-12T14:47:36.988Z</time></trkpt><trkpt lat="46.0019544133032" lon="11.813682580164388"><ele>298.0</ele><time>2026-04-12T14:47:37.988Z</time></trkpt><trkpt lat="46.001950750639644" lon="11.813413983822288"><ele>298.0</ele><time>2026-04-12T14:47:38.988Z</time></trkpt><trkpt lat="46.001945070482236" lon="11.813129826501752"><ele>298.0</ele><time>2026-04-12T14:47:39.988Z</time></trkpt><trkpt lat="46.00192466581618" lon="11.812836546591628"><ele>298.0</ele><time>2026-04-12T14:47:40.988Z</time></trkpt><trkpt lat="46.00191800217248" lon="11.812543496974666"><ele>296.66666666666663</ele><time>2026-04-12T14:47:41.988Z</time></trkpt><trkpt lat="46.00192397901023" lon="11.812233297149273"><ele>295.3333333333333</ele><time>2026-04-12T14:47:42.988Z</time></trkpt><trkpt lat="46.00191542073522" lon="11.81193012344957"><ele>294.0</ele><time>2026-04-12T14:47:43.988Z</time></trkpt><trkpt lat="46.00186894684737" lon="11.811642444902693"><ele>293.6666666666667</ele><time>2026-04-12T14:47:44.988Z</time></trkpt><trkpt lat="46.00185038780855" lon="11.811346364977094"><ele>293.33333333333337</ele><time>2026-04-12T14:47:45.988Z</time></trkpt><trkpt lat="46.001833051751554" lon="11.81104944533977"><ele>293.0</ele><time>2026-04-12T14:47:46.988Z</time></trkpt><trkpt lat="46.00181145864352" lon="11.810747032073891"><ele>293.0</ele><time>2026-04-12T14:47:47.988Z</time></trkpt><trkpt lat="46.00178808211828" lon="11.810434501821133"><ele>293.0</ele><time>2026-04-12T14:47:48.988Z</time></trkpt><trkpt lat="46.00176371105933" lon="11.81009851452171"><ele>293.0</ele><time>2026-04-12T14:47:49.988Z</time></trkpt><trkpt lat="46.00174352860579" lon="11.809761993973341"><ele>293.0</ele><time>2026-04-12T14:47:50.988Z</time></trkpt><trkpt lat="46.00171814372064" lon="11.809432849561388"><ele>293.33333333333337</ele><time>2026-04-12T14:47:51.988Z</time></trkpt><trkpt lat="46.001692995444294" lon="11.809118881379154"><ele>293.6666666666667</ele><time>2026-04-12T14:47:52.988Z</time></trkpt><trkpt lat="46.00165187754386" lon="11.808835638647931"><ele>294.0</ele><time>2026-04-12T14:47:53.988Z</time></trkpt><trkpt lat="46.00164622721504" lon="11.808543029747927"><ele>293.6666666666667</ele><time>2026-04-12T14:47:54.988Z</time></trkpt><trkpt lat="46.00162307824609" lon="11.808255923237017"><ele>293.33333333333337</ele><time>2026-04-12T14:47:55.988Z</time></trkpt><trkpt lat="46.00159854310609" lon="11.807964356811867"><ele>293.0</ele><time>2026-04-12T14:47:56.988Z</time></trkpt><trkpt lat="46.00156189958522" lon="11.8076692371254"><ele>292.6666666666667</ele><time>2026-04-12T14:47:57.988Z</time></trkpt><trkpt lat="46.00150930747194" lon="11.807366562370305"><ele>292.3333333333333</ele><time>2026-04-12T14:47:58.988Z</time></trkpt><trkpt lat="46.00144579724653" lon="11.807069541417608"><ele>292.0</ele><time>2026-04-12T14:47:59.988Z</time></trkpt><trkpt lat="46.001364903293194" lon="11.806766542521641"><ele>293.0</ele><time>2026-04-12T14:48:00.988Z</time></trkpt><trkpt lat="46.00127712628412" lon="11.806459589856972"><ele>294.0</ele><time>2026-04-12T14:48:01.988Z</time></trkpt><trkpt lat="46.001171556320955" lon="11.806151575339472"><ele>294.5</ele><time>2026-04-12T14:48:02.988Z</time></trkpt><trkpt lat="46.00104106700141" lon="11.805840265176098"><ele>295.0</ele><time>2026-04-12T14:48:03.988Z</time></trkpt><trkpt lat="46.00089440126094" lon="11.80552481759762"><ele>301.0</ele><time>2026-04-12T14:48:04.988Z</time></trkpt><trkpt lat="46.00072845242755" lon="11.80521847472198"><ele>307.0</ele><time>2026-04-12T14:48:05.988Z</time></trkpt><trkpt lat="46.00055894977796" lon="11.804944018098453"><ele>307.0</ele><time>2026-04-12T14:48:06.988Z</time></trkpt><trkpt lat="46.00037991686221" lon="11.804689707252871"><ele>307.0</ele><time>2026-04-12T14:48:07.988Z</time></trkpt><trkpt lat="46.000183809824506" lon="11.80443949012322"><ele>304.0</ele><time>2026-04-12T14:48:08.988Z</time></trkpt><trkpt lat="45.9999971573594" lon="11.804200117133002"><ele>301.0</ele><time>2026-04-12T14:48:09.988Z</time></trkpt><trkpt lat="45.99982147965303" lon="11.803972796930386"><ele>301.0</ele><time>2026-04-12T14:48:10.988Z</time></trkpt><trkpt lat="45.9996593886548" lon="11.803748598595739"><ele>301.0</ele><time>2026-04-12T14:48:11.988Z</time></trkpt><trkpt lat="45.99949347153378" lon="11.803519896882252"><ele>305.5</ele><time>2026-04-12T14:48:12.988Z</time></trkpt><trkpt lat="45.99932279832129" lon="11.803290978558154"><ele>310.0</ele><time>2026-04-12T14:48:13.988Z</time></trkpt><trkpt lat="45.999149295446166" lon="11.803058521706921"><ele>310.0</ele><time>2026-04-12T14:48:14.988Z</time></trkpt><trkpt lat="45.99898118986757" lon="11.802822328552018"><ele>310.0</ele><time>2026-04-12T14:48:15.988Z</time></trkpt><trkpt lat="45.99880578675413" lon="11.802577682300234"><ele>302.5</ele><time>2026-04-12T14:48:16.988Z</time></trkpt><trkpt lat="45.99862350599885" lon="11.802314510085287"><ele>295.0</ele><time>2026-04-12T14:48:17.988Z</time></trkpt><trkpt lat="45.99844457590313" lon="11.802037619160284"><ele>295.0</ele><time>2026-04-12T14:48:18.988Z</time></trkpt><trkpt lat="45.99828086598825" lon="11.801774721409636"><ele>295.0</ele><time>2026-04-12T14:48:19.988Z</time></trkpt><trkpt lat="45.9981282253637" lon="11.801529452239512"><ele>295.0</ele><time>2026-04-12T14:48:20.988Z</time></trkpt><trkpt lat="45.997987433258274" lon="11.801293772107877"><ele>295.0</ele><time>2026-04-12T14:48:21.988Z</time></trkpt><trkpt lat="45.997854159124316" lon="11.801074063120968"><ele>295.0</ele><time>2026-04-12T14:48:22.988Z</time></trkpt><trkpt lat="45.99772541136075" lon="11.800873706842577"><ele>293.3333333333333</ele><time>2026-04-12T14:48:23.988Z</time></trkpt><trkpt lat="45.99759103476206" lon="11.80066823679529"><ele>291.6666666666667</ele><time>2026-04-12T14:48:24.988Z</time></trkpt><trkpt lat="45.997465025645944" lon="11.80046912334733"><ele>290.0</ele><time>2026-04-12T14:48:25.988Z</time></trkpt><trkpt lat="45.997334142670915" lon="11.800263603332612"><ele>292.0</ele><time>2026-04-12T14:48:26.988Z</time></trkpt><trkpt lat="45.99720063610458" lon="11.800040885197237"><ele>294.0</ele><time>2026-04-12T14:48:27.988Z</time></trkpt><trkpt lat="45.997063765502745" lon="11.799814259729908"><ele>296.0</ele><time>2026-04-12T14:48:28.989Z</time></trkpt><trkpt lat="45.996915997495165" lon="11.799588101871262"><ele>296.0</ele><time>2026-04-12T14:48:29.989Z</time></trkpt><trkpt lat="45.99676406176312" lon="11.79933979080519"><ele>296.0</ele><time>2026-04-12T14:48:30.989Z</time></trkpt><trkpt lat="45.996605587320076" lon="11.79908660345916"><ele>293.5</ele><time>2026-04-12T14:48:31.989Z</time></trkpt><trkpt lat="45.996441223269464" lon="11.798827831990161"><ele>291.0</ele><time>2026-04-12T14:48:32.989Z</time></trkpt><trkpt lat="45.99627798057801" lon="11.798568645764046"><ele>288.5</ele><time>2026-04-12T14:48:33.989Z</time></trkpt><trkpt lat="45.99612719951657" lon="11.798306909262445"><ele>286.0</ele><time>2026-04-12T14:48:34.989Z</time></trkpt><trkpt lat="45.99597684117287" lon="11.798075874335234"><ele>286.66666666666663</ele><time>2026-04-12T14:48:35.989Z</time></trkpt><trkpt lat="45.99583031566756" lon="11.79783581924736"><ele>287.3333333333333</ele><time>2026-04-12T14:48:36.989Z</time></trkpt><trkpt lat="45.99568037102295" lon="11.797592174065386"><ele>288.0</ele><time>2026-04-12T14:48:37.989Z</time></trkpt><trkpt lat="45.995529899686225" lon="11.79734942092456"><ele>288.0</ele><time>2026-04-12T14:48:38.989Z</time></trkpt><trkpt lat="45.99538087881268" lon="11.797099862290457"><ele>288.0</ele><time>2026-04-12T14:48:39.989Z</time></trkpt><trkpt lat="45.99523053351828" lon="11.796848725367287"><ele>287.5</ele><time>2026-04-12T14:48:40.989Z</time></trkpt><trkpt lat="45.995076598853096" lon="11.796587845231885"><ele>287.0</ele><time>2026-04-12T14:48:41.989Z</time></trkpt><trkpt lat="45.99492324715194" lon="11.796325482855245"><ele>287.0</ele><time>2026-04-12T14:48:42.989Z</time></trkpt><trkpt lat="45.994779641795695" lon="11.796072554207063"><ele>287.0</ele><time>2026-04-12T14:48:43.989Z</time></trkpt><trkpt lat="45.99463646283946" lon="11.795822207060045"><ele>285.0</ele><time>2026-04-12T14:48:44.989Z</time></trkpt><trkpt lat="45.99450013983622" lon="11.795564368225847"><ele>283.0</ele><time>2026-04-12T14:48:45.989Z</time></trkpt><trkpt lat="45.99436545811486" lon="11.795300744272234"><ele>281.5</ele><time>2026-04-12T14:48:46.989Z</time></trkpt><trkpt lat="45.99423366822602" lon="11.795035565030355"><ele>280.0</ele><time>2026-04-12T14:48:47.989Z</time></trkpt><trkpt lat="45.99410042977981" lon="11.794764721311656"><ele>281.0</ele><time>2026-04-12T14:48:48.989Z</time></trkpt><trkpt lat="45.993981076458375" lon="11.794470575143015"><ele>282.0</ele><time>2026-04-12T14:48:49.989Z</time></trkpt><trkpt lat="45.993839609637725" lon="11.794203487313398"><ele>282.0</ele><time>2026-04-12T14:48:50.989Z</time></trkpt><trkpt lat="45.9937073597846" lon="11.793922183454338"><ele>282.0</ele><time>2026-04-12T14:48:51.989Z</time></trkpt><trkpt lat="45.993580675810435" lon="11.793649085708418"><ele>281.6666666666667</ele><time>2026-04-12T14:48:52.989Z</time></trkpt><trkpt lat="45.99346001799207" lon="11.793396230820864"><ele>281.33333333333337</ele><time>2026-04-12T14:48:53.989Z</time></trkpt><trkpt lat="45.993341206735806" lon="11.79314604675895"><ele>281.0</ele><time>2026-04-12T14:48:54.989Z</time></trkpt><trkpt lat="45.99320296247751" lon="11.792888563416463"><ele>280.33333333333337</ele><time>2026-04-12T14:48:55.989Z</time></trkpt><trkpt lat="45.99305524319476" lon="11.792650479926861"><ele>279.6666666666667</ele><time>2026-04-12T14:48:56.989Z</time></trkpt><trkpt lat="45.99289599958414" lon="11.792428846104562"><ele>279.0</ele><time>2026-04-12T14:48:57.989Z</time></trkpt><trkpt lat="45.99272224818237" lon="11.792223515211527"><ele>279.0</ele><time>2026-04-12T14:48:58.989Z</time></trkpt><trkpt lat="45.992525414103056" lon="11.792027597030991"><ele>279.0</ele><time>2026-04-12T14:48:59.989Z</time></trkpt><trkpt lat="45.99231596373285" lon="11.791802245266354"><ele>280.5</ele><time>2026-04-12T14:49:00.989Z</time></trkpt><trkpt lat="45.992085198307045" lon="11.791591412452087"><ele>282.0</ele><time>2026-04-12T14:49:01.989Z</time></trkpt><trkpt lat="45.99188729003829" lon="11.79141845904088"><ele>282.0</ele><time>2026-04-12T14:49:02.989Z</time></trkpt><trkpt lat="45.99167589771687" lon="11.79122637201204"><ele>282.0</ele><time>2026-04-12T14:49:03.989Z</time></trkpt><trkpt lat="45.99147641526423" lon="11.791034120280498"><ele>283.5</ele><time>2026-04-12T14:49:04.989Z</time></trkpt><trkpt lat="45.99127371364667" lon="11.790825171700579"><ele>285.0</ele><time>2026-04-12T14:49:05.989Z</time></trkpt><trkpt lat="45.991075317971834" lon="11.790598644888924"><ele>285.0</ele><time>2026-04-12T14:49:06.989Z</time></trkpt><trkpt lat="45.990880618540615" lon="11.790367295280488"><ele>285.0</ele><time>2026-04-12T14:49:07.989Z</time></trkpt><trkpt lat="45.9907040868633" lon="11.790101634776285"><ele>288.0</ele><time>2026-04-12T14:49:08.989Z</time></trkpt><trkpt lat="45.99052475720871" lon="11.78985145646776"><ele>291.0</ele><time>2026-04-12T14:49:09.989Z</time></trkpt><trkpt lat="45.99034088621409" lon="11.789582505308145"><ele>290.5</ele><time>2026-04-12T14:49:10.989Z</time></trkpt><trkpt lat="45.990166102725915" lon="11.7893250293043"><ele>290.0</ele><time>2026-04-12T14:49:11.989Z</time></trkpt><trkpt lat="45.98997066898892" lon="11.789082754574729"><ele>290.0</ele><time>2026-04-12T14:49:12.989Z</time></trkpt><trkpt lat="45.98982937657851" lon="11.788882381371478"><ele>290.0</ele><time>2026-04-12T14:49:13.989Z</time></trkpt><trkpt lat="45.98968679045216" lon="11.78869118006957"><ele>290.0</ele><time>2026-04-12T14:49:14.989Z</time></trkpt><trkpt lat="45.989525054148196" lon="11.788511689902817"><ele>287.6666666666667</ele><time>2026-04-12T14:49:15.989Z</time></trkpt><trkpt lat="45.98934606249932" lon="11.788357348144098"><ele>285.3333333333333</ele><time>2026-04-12T14:49:16.989Z</time></trkpt><trkpt lat="45.9891379292164" lon="11.788211872764784"><ele>283.0</ele><time>2026-04-12T14:49:17.989Z</time></trkpt><trkpt lat="45.98890722386896" lon="11.788072213852402"><ele>282.66666666666663</ele><time>2026-04-12T14:49:18.989Z</time></trkpt><trkpt lat="45.98870293086873" lon="11.787945315321007"><ele>282.3333333333333</ele><time>2026-04-12T14:49:19.989Z</time></trkpt><trkpt lat="45.988508301689876" lon="11.787815788450347"><ele>282.0</ele><time>2026-04-12T14:49:20.989Z</time></trkpt><trkpt lat="45.9883135909715" lon="11.787693148519194"><ele>281.0</ele><time>2026-04-12T14:49:21.989Z</time></trkpt><trkpt lat="45.988122529456184" lon="11.78756957216999"><ele>280.0</ele><time>2026-04-12T14:49:22.989Z</time></trkpt><trkpt lat="45.98792571185759" lon="11.787448345330544"><ele>279.0</ele><time>2026-04-12T14:49:23.989Z</time></trkpt><trkpt lat="45.987731923543144" lon="11.787320960347866"><ele>279.0</ele><time>2026-04-12T14:49:24.989Z</time></trkpt><trkpt lat="45.987533101920604" lon="11.787214800151219"><ele>279.0</ele><time>2026-04-12T14:49:25.989Z</time></trkpt><trkpt lat="45.98734277006373" lon="11.78709333104638"><ele>279.0</ele><time>2026-04-12T14:49:26.989Z</time></trkpt><trkpt lat="45.987157170094754" lon="11.786975167717399"><ele>278.3333333333333</ele><time>2026-04-12T14:49:27.989Z</time></trkpt><trkpt lat="45.98697640399704" lon="11.786863152608978"><ele>277.66666666666663</ele><time>2026-04-12T14:49:28.989Z</time></trkpt><trkpt lat="45.98679511525811" lon="11.786752982300582"><ele>277.0</ele><time>2026-04-12T14:49:29.989Z</time></trkpt><trkpt lat="45.98661009000321" lon="11.78663702848062"><ele>275.0</ele><time>2026-04-12T14:49:30.989Z</time></trkpt><trkpt lat="45.98641276514714" lon="11.786511258724264"><ele>273.0</ele><time>2026-04-12T14:49:31.989Z</time></trkpt><trkpt lat="45.98619586963357" lon="11.78637422166042"><ele>273.0</ele><time>2026-04-12T14:49:32.989Z</time></trkpt><trkpt lat="45.985963149055884" lon="11.786232012054256"><ele>273.0</ele><time>2026-04-12T14:49:33.989Z</time></trkpt><trkpt lat="45.98571243767851" lon="11.786075844465227"><ele>271.5</ele><time>2026-04-12T14:49:34.989Z</time></trkpt><trkpt lat="45.98545538237449" lon="11.78591635161725"><ele>270.0</ele><time>2026-04-12T14:49:35.989Z</time></trkpt><trkpt lat="45.98522090357938" lon="11.785764854725175"><ele>270.0</ele><time>2026-04-12T14:49:36.989Z</time></trkpt><trkpt lat="45.9849982801019" lon="11.78562461268646"><ele>270.0</ele><time>2026-04-12T14:49:37.989Z</time></trkpt><trkpt lat="45.98479054565889" lon="11.785486487203807"><ele>270.0</ele><time>2026-04-12T14:49:38.989Z</time></trkpt><trkpt lat="45.98458590320302" lon="11.785356857519727"><ele>270.0</ele><time>2026-04-12T14:49:39.989Z</time></trkpt><trkpt lat="45.98439985255068" lon="11.785229339687497"><ele>270.0</ele><time>2026-04-12T14:49:40.989Z</time></trkpt><trkpt lat="45.984226497446684" lon="11.785091198734182"><ele>269.6666666666667</ele><time>2026-04-12T14:49:41.989Z</time></trkpt><trkpt lat="45.984041480311056" lon="11.78493358363508"><ele>269.33333333333337</ele><time>2026-04-12T14:49:42.989Z</time></trkpt><trkpt lat="45.98385873792117" lon="11.784757728388723"><ele>269.0</ele><time>2026-04-12T14:49:43.989Z</time></trkpt><trkpt lat="45.98368013105452" lon="11.784549606967307"><ele>269.0</ele><time>2026-04-12T14:49:44.989Z</time></trkpt><trkpt lat="45.98349930257239" lon="11.78431394620643"><ele>269.0</ele><time>2026-04-12T14:49:45.989Z</time></trkpt><trkpt lat="45.983337513032595" lon="11.784065106024089"><ele>270.0</ele><time>2026-04-12T14:49:46.989Z</time></trkpt><trkpt lat="45.98318347116815" lon="11.783813130677398"><ele>271.0</ele><time>2026-04-12T14:49:47.989Z</time></trkpt><trkpt lat="45.983056588086484" lon="11.783531686336138"><ele>270.0</ele><time>2026-04-12T14:49:48.989Z</time></trkpt><trkpt lat="45.982915871621834" lon="11.783260243808197"><ele>269.0</ele><time>2026-04-12T14:49:49.989Z</time></trkpt><trkpt lat="45.98279911492948" lon="11.782953664432943"><ele>269.0</ele><time>2026-04-12T14:49:50.989Z</time></trkpt><trkpt lat="45.982704555270104" lon="11.7826073405818"><ele>269.0</ele><time>2026-04-12T14:49:51.989Z</time></trkpt><trkpt lat="45.982604426587905" lon="11.782246954937772"><ele>268.0</ele><time>2026-04-12T14:49:52.989Z</time></trkpt><trkpt lat="45.98251450427241" lon="11.781897635541618"><ele>267.0</ele><time>2026-04-12T14:49:53.989Z</time></trkpt><trkpt lat="45.982421595238215" lon="11.781589799135563"><ele>276.0</ele><time>2026-04-12T14:49:54.989Z</time></trkpt><trkpt lat="45.982350080344354" lon="11.781282567539455"><ele>285.0</ele><time>2026-04-12T14:49:55.989Z</time></trkpt><trkpt lat="45.98227186529754" lon="11.780971254006326"><ele>308.5</ele><time>2026-04-12T14:49:56.989Z</time></trkpt><trkpt lat="45.98218763919995" lon="11.7806481240147"><ele>332.0</ele><time>2026-04-12T14:49:58.005Z</time></trkpt><trkpt lat="45.98210677099164" lon="11.780325593028234"><ele>348.0</ele><time>2026-04-12T14:49:59.006Z</time></trkpt><trkpt lat="45.98202148022017" lon="11.780010467997311"><ele>364.0</ele><time>2026-04-12T14:50:00.008Z</time></trkpt><trkpt lat="45.98194610927926" lon="11.77969535681739"><ele>364.0</ele><time>2026-04-12T14:50:01.008Z</time></trkpt><trkpt lat="45.98187119619785" lon="11.779384929578917"><ele>364.0</ele><time>2026-04-12T14:50:02.007Z</time></trkpt><trkpt lat="45.98101962362042" lon="11.777251129980922"><ele>335.0</ele><time>2026-04-12T14:50:08.989Z</time></trkpt><trkpt lat="45.98089254343684" lon="11.776909900846276"><ele>306.0</ele><time>2026-04-12T14:50:09.989Z</time></trkpt><trkpt lat="45.980769872445094" lon="11.776602380210907"><ele>288.0</ele><time>2026-04-12T14:50:10.989Z</time></trkpt><trkpt lat="45.980649051749765" lon="11.776322088845056"><ele>270.0</ele><time>2026-04-12T14:50:11.989Z</time></trkpt><trkpt lat="45.98053347754772" lon="11.776040647856092"><ele>271.5</ele><time>2026-04-12T14:50:12.989Z</time></trkpt><trkpt lat="45.98042487597076" lon="11.775748879974921"><ele>273.0</ele><time>2026-04-12T14:50:13.989Z</time></trkpt><trkpt lat="45.98033127040072" lon="11.775435641440716"><ele>273.0</ele><time>2026-04-12T14:50:14.989Z</time></trkpt><trkpt lat="45.9802465572758" lon="11.77511332153048"><ele>273.0</ele><time>2026-04-12T14:50:15.989Z</time></trkpt><trkpt lat="45.980183200544225" lon="11.774806553711874"><ele>273.0</ele><time>2026-04-12T14:50:16.989Z</time></trkpt><trkpt lat="45.98013041483878" lon="11.77447787285942"><ele>273.0</ele><time>2026-04-12T14:50:17.989Z</time></trkpt><trkpt lat="45.98009257204583" lon="11.774119874957952"><ele>273.0</ele><time>2026-04-12T14:50:18.989Z</time></trkpt><trkpt lat="45.98007256896079" lon="11.773757501578812"><ele>273.0</ele><time>2026-04-12T14:50:19.989Z</time></trkpt><trkpt lat="45.980069633717605" lon="11.77339258825379"><ele>274.0</ele><time>2026-04-12T14:50:20.989Z</time></trkpt><trkpt lat="45.980085088300335" lon="11.773020063978679"><ele>275.0</ele><time>2026-04-12T14:50:21.989Z</time></trkpt><trkpt lat="45.980117908998906" lon="11.772635794561294"><ele>279.0</ele><time>2026-04-12T14:50:22.989Z</time></trkpt><trkpt lat="45.980158561403506" lon="11.772265546613415"><ele>283.0</ele><time>2026-04-12T14:50:23.989Z</time></trkpt><trkpt lat="45.980200648450904" lon="11.771932055748387"><ele>284.5</ele><time>2026-04-12T14:50:24.989Z</time></trkpt><trkpt lat="45.980238802596475" lon="11.771611824460424"><ele>286.0</ele><time>2026-04-12T14:50:25.989Z</time></trkpt><trkpt lat="45.98027044047383" lon="11.77128844413547"><ele>288.0</ele><time>2026-04-12T14:50:26.989Z</time></trkpt><trkpt lat="45.9802905734409" lon="11.770952294258096"><ele>290.0</ele><time>2026-04-12T14:50:27.989Z</time></trkpt><trkpt lat="45.980297501509796" lon="11.77060144939577"><ele>290.0</ele><time>2026-04-12T14:50:28.989Z</time></trkpt><trkpt lat="45.98028473468395" lon="11.770243664847508"><ele>290.0</ele><time>2026-04-12T14:50:29.989Z</time></trkpt><trkpt lat="45.980262529728904" lon="11.769872977863365"><ele>294.5</ele><time>2026-04-12T14:50:30.989Z</time></trkpt><trkpt lat="45.980248011878274" lon="11.769494094316894"><ele>299.0</ele><time>2026-04-12T14:50:31.989Z</time></trkpt><trkpt lat="45.98023441954521" lon="11.769114467040124"><ele>302.0</ele><time>2026-04-12T14:50:32.989Z</time></trkpt><trkpt lat="45.980220326487824" lon="11.768768714524214"><ele>305.0</ele><time>2026-04-12T14:50:33.989Z</time></trkpt><trkpt lat="45.98020876933504" lon="11.7684522103358"><ele>306.6666666666667</ele><time>2026-04-12T14:50:34.989Z</time></trkpt><trkpt lat="45.98020221379521" lon="11.76815393721603"><ele>308.3333333333333</ele><time>2026-04-12T14:50:35.989Z</time></trkpt><trkpt lat="45.980190359374554" lon="11.767852272637223"><ele>310.0</ele><time>2026-04-12T14:50:36.989Z</time></trkpt><trkpt lat="45.98018282051893" lon="11.767557820201512"><ele>310.66666666666663</ele><time>2026-04-12T14:50:37.989Z</time></trkpt><trkpt lat="45.98016942096417" lon="11.767258388566715"><ele>311.3333333333333</ele><time>2026-04-12T14:50:38.989Z</time></trkpt><trkpt lat="45.98016060765292" lon="11.766963774196569"><ele>312.0</ele><time>2026-04-12T14:50:39.989Z</time></trkpt><trkpt lat="45.980143395148616" lon="11.766664569925716"><ele>312.3333333333333</ele><time>2026-04-12T14:50:40.989Z</time></trkpt><trkpt lat="45.980127937344946" lon="11.76636626707573"><ele>312.66666666666663</ele><time>2026-04-12T14:50:41.989Z</time></trkpt><trkpt lat="45.9801170555119" lon="11.766075580997528"><ele>313.0</ele><time>2026-04-12T14:50:42.989Z</time></trkpt><trkpt lat="45.98010556812241" lon="11.765778524253212"><ele>313.66666666666663</ele><time>2026-04-12T14:50:44.004Z</time></trkpt><trkpt lat="45.98009068521562" lon="11.765499977192118"><ele>314.3333333333333</ele><time>2026-04-12T14:50:45.005Z</time></trkpt><trkpt lat="45.98008450249386" lon="11.765219570936182"><ele>315.0</ele><time>2026-04-12T14:50:46.005Z</time></trkpt><trkpt lat="45.980077206306994" lon="11.764946883755574"><ele>315.0</ele><time>2026-04-12T14:50:47.008Z</time></trkpt><trkpt lat="45.980065402755464" lon="11.764664746920433"><ele>315.0</ele><time>2026-04-12T14:50:48.006Z</time></trkpt><trkpt lat="45.979928928470216" lon="11.764076538394917"><ele>313.6666666666667</ele><time>2026-04-12T14:50:49.989Z</time></trkpt><trkpt lat="45.98006912218064" lon="11.76400090525121"><ele>312.33333333333337</ele><time>2026-04-12T14:50:50.989Z</time></trkpt><trkpt lat="45.98004471347308" lon="11.763775388019212"><ele>311.0</ele><time>2026-04-12T14:50:51.989Z</time></trkpt><trkpt lat="45.980034677711764" lon="11.763534327161047"><ele>309.6666666666667</ele><time>2026-04-12T14:50:52.989Z</time></trkpt><trkpt lat="45.980007407374345" lon="11.763303373605414"><ele>308.3333333333333</ele><time>2026-04-12T14:50:53.989Z</time></trkpt><trkpt lat="45.97995906840939" lon="11.763070341122175"><ele>307.0</ele><time>2026-04-12T14:50:54.989Z</time></trkpt><trkpt lat="45.97990391511695" lon="11.762842593697103"><ele>306.0</ele><time>2026-04-12T14:50:55.989Z</time></trkpt><trkpt lat="45.979846104045706" lon="11.762609074331662"><ele>305.0</ele><time>2026-04-12T14:50:56.989Z</time></trkpt><trkpt lat="45.97977635952838" lon="11.762381145144614"><ele>304.0</ele><time>2026-04-12T14:50:57.989Z</time></trkpt><trkpt lat="45.97969610532237" lon="11.762159027549597"><ele>304.0</ele><time>2026-04-12T14:50:58.989Z</time></trkpt><trkpt lat="45.979606131803" lon="11.761939373883456"><ele>304.0</ele><time>2026-04-12T14:50:59.989Z</time></trkpt><trkpt lat="45.97951481809963" lon="11.761725395360259"><ele>304.0</ele><time>2026-04-12T14:51:00.989Z</time></trkpt><trkpt lat="45.979422559237264" lon="11.761523484082208"><ele>303.3333333333333</ele><time>2026-04-12T14:51:01.989Z</time></trkpt><trkpt lat="45.97932716593828" lon="11.761337238557964"><ele>302.6666666666667</ele><time>2026-04-12T14:51:02.989Z</time></trkpt><trkpt lat="45.979217072126815" lon="11.761163806745559"><ele>302.0</ele><time>2026-04-12T14:51:03.989Z</time></trkpt><trkpt lat="45.97910510939922" lon="11.76099757567948"><ele>301.33333333333337</ele><time>2026-04-12T14:51:04.989Z</time></trkpt><trkpt lat="45.97898885718359" lon="11.760838734532104"><ele>300.6666666666667</ele><time>2026-04-12T14:51:05.989Z</time></trkpt><trkpt lat="45.97886849634431" lon="11.7606781705563"><ele>300.0</ele><time>2026-04-12T14:51:06.989Z</time></trkpt><trkpt lat="45.97874060521948" lon="11.760516468646879"><ele>300.0</ele><time>2026-04-12T14:51:07.989Z</time></trkpt><trkpt lat="45.97860668901132" lon="11.760368256889214"><ele>300.0</ele><time>2026-04-12T14:51:08.989Z</time></trkpt><trkpt lat="45.97846245517262" lon="11.760234606136846"><ele>300.0</ele><time>2026-04-12T14:51:09.989Z</time></trkpt><trkpt lat="45.97831675835156" lon="11.760118857490585"><ele>298.6666666666667</ele><time>2026-04-12T14:51:10.989Z</time></trkpt><trkpt lat="45.978173765386444" lon="11.760009488470182"><ele>297.33333333333337</ele><time>2026-04-12T14:51:11.989Z</time></trkpt><trkpt lat="45.97802635957223" lon="11.759912118914555"><ele>296.0</ele><time>2026-04-12T14:51:12.989Z</time></trkpt><trkpt lat="45.97787337285696" lon="11.75982116913734"><ele>296.0</ele><time>2026-04-12T14:51:13.989Z</time></trkpt><trkpt lat="45.977699611025436" lon="11.759738552659465"><ele>296.0</ele><time>2026-04-12T14:51:14.989Z</time></trkpt><trkpt lat="45.977513380533594" lon="11.759657517721022"><ele>296.0</ele><time>2026-04-12T14:51:15.989Z</time></trkpt><trkpt lat="45.97730009218719" lon="11.759576040673874"><ele>300.0</ele><time>2026-04-12T14:51:16.989Z</time></trkpt><trkpt lat="45.97706926276437" lon="11.75951270501464"><ele>304.0</ele><time>2026-04-12T14:51:17.989Z</time></trkpt><trkpt lat="45.97681027776758" lon="11.759467133885792"><ele>309.5</ele><time>2026-04-12T14:51:18.989Z</time></trkpt><trkpt lat="45.97653742157057" lon="11.759429221768851"><ele>315.0</ele><time>2026-04-12T14:51:19.989Z</time></trkpt><trkpt lat="45.97624913728092" lon="11.759366592497281"><ele>303.5</ele><time>2026-04-12T14:51:20.989Z</time></trkpt><trkpt lat="45.97595289906132" lon="11.759321338313223"><ele>292.0</ele><time>2026-04-12T14:51:21.989Z</time></trkpt><trkpt lat="45.97564513420725" lon="11.759272159947303"><ele>292.0</ele><time>2026-04-12T14:51:22.989Z</time></trkpt><trkpt lat="45.975322728255044" lon="11.75922379244284"><ele>292.0</ele><time>2026-04-12T14:51:23.989Z</time></trkpt><trkpt lat="45.974988862183494" lon="11.759174263276066"><ele>293.0</ele><time>2026-04-12T14:51:24.989Z</time></trkpt><trkpt lat="45.97464607039674" lon="11.759124066759457"><ele>294.0</ele><time>2026-04-12T14:51:25.989Z</time></trkpt><trkpt lat="45.974320818741674" lon="11.759076438722023"><ele>297.0</ele><time>2026-04-12T14:51:26.989Z</time></trkpt><trkpt lat="45.97400040927793" lon="11.75902904297331"><ele>300.0</ele><time>2026-04-12T14:51:27.989Z</time></trkpt><trkpt lat="45.97366423214428" lon="11.758977218509976"><ele>297.5</ele><time>2026-04-12T14:51:28.989Z</time></trkpt><trkpt lat="45.97332579785973" lon="11.75892504607423"><ele>295.0</ele><time>2026-04-12T14:51:29.989Z</time></trkpt><trkpt lat="45.973019317645594" lon="11.758879964356181"><ele>295.0</ele><time>2026-04-12T14:51:30.989Z</time></trkpt><trkpt lat="45.97273442797594" lon="11.75885879056428"><ele>295.0</ele><time>2026-04-12T14:51:31.989Z</time></trkpt><trkpt lat="45.97246350464054" lon="11.758809555908522"><ele>295.5</ele><time>2026-04-12T14:51:32.989Z</time></trkpt><trkpt lat="45.972211008174796" lon="11.758763253176678"><ele>296.0</ele><time>2026-04-12T14:51:33.989Z</time></trkpt><trkpt lat="45.97196355220181" lon="11.758669567195785"><ele>296.0</ele><time>2026-04-12T14:51:34.989Z</time></trkpt><trkpt lat="45.97172219221985" lon="11.758562795298241"><ele>296.0</ele><time>2026-04-12T14:51:35.989Z</time></trkpt><trkpt lat="45.97148757777955" lon="11.758429515935372"><ele>293.0</ele><time>2026-04-12T14:51:36.989Z</time></trkpt><trkpt lat="45.971263624355004" lon="11.758279618601653"><ele>290.0</ele><time>2026-04-12T14:51:37.989Z</time></trkpt><trkpt lat="45.97103856087974" lon="11.758131207801684"><ele>289.5</ele><time>2026-04-12T14:51:38.989Z</time></trkpt><trkpt lat="45.97083422478067" lon="11.757932233988498"><ele>289.0</ele><time>2026-04-12T14:51:39.989Z</time></trkpt><trkpt lat="45.97063295384309" lon="11.757714668390843"><ele>287.5</ele><time>2026-04-12T14:51:40.989Z</time></trkpt><trkpt lat="45.970446950897205" lon="11.757463597747016"><ele>286.0</ele><time>2026-04-12T14:51:41.989Z</time></trkpt><trkpt lat="45.970265465792146" lon="11.757173385793235"><ele>285.0</ele><time>2026-04-12T14:51:42.989Z</time></trkpt><trkpt lat="45.97009328574439" lon="11.756857885307237"><ele>284.0</ele><time>2026-04-12T14:51:43.989Z</time></trkpt><trkpt lat="45.969925992406935" lon="11.75651418246351"><ele>284.0</ele><time>2026-04-12T14:51:44.989Z</time></trkpt><trkpt lat="45.969761800214364" lon="11.756147873059065"><ele>284.0</ele><time>2026-04-12T14:51:45.989Z</time></trkpt><trkpt lat="45.96959064564141" lon="11.755767934258435"><ele>284.0</ele><time>2026-04-12T14:51:46.989Z</time></trkpt><trkpt lat="45.96942463946706" lon="11.755408720915499"><ele>284.0</ele><time>2026-04-12T14:51:47.989Z</time></trkpt><trkpt lat="45.9692739270283" lon="11.755070467816141"><ele>286.0</ele><time>2026-04-12T14:51:48.989Z</time></trkpt><trkpt lat="45.969129503463535" lon="11.754756043300878"><ele>288.0</ele><time>2026-04-12T14:51:49.989Z</time></trkpt><trkpt lat="45.9689896527841" lon="11.754456071684414"><ele>296.0</ele><time>2026-04-12T14:51:50.989Z</time></trkpt><trkpt lat="45.96885078568823" lon="11.754161614022426"><ele>304.0</ele><time>2026-04-12T14:51:51.989Z</time></trkpt><trkpt lat="45.96871619498509" lon="11.753864635917918"><ele>304.0</ele><time>2026-04-12T14:51:52.989Z</time></trkpt><trkpt lat="45.9685835744701" lon="11.75357801503077"><ele>304.0</ele><time>2026-04-12T14:51:53.989Z</time></trkpt><trkpt lat="45.96845980418919" lon="11.75327272515282"><ele>332.5</ele><time>2026-04-12T14:51:54.989Z</time></trkpt><trkpt lat="45.968319179262835" lon="11.752966184875756"><ele>361.0</ele><time>2026-04-12T14:51:56.008Z</time></trkpt><trkpt lat="45.968177421326345" lon="11.752657390716461"><ele>377.5</ele><time>2026-04-12T14:51:57.008Z</time></trkpt><trkpt lat="45.96803038213277" lon="11.752337093127375"><ele>394.0</ele><time>2026-04-12T14:51:58.009Z</time></trkpt><trkpt lat="45.96787998207963" lon="11.752009474637815"><ele>407.0</ele><time>2026-04-12T14:51:59.008Z</time></trkpt><trkpt lat="45.96772722505724" lon="11.751676720637539"><ele>420.0</ele><time>2026-04-12T14:52:00.01Z</time></trkpt><trkpt lat="45.96724086893558" lon="11.75061273941841"><ele>239.0</ele><time>2026-04-12T14:52:24.66Z</time></trkpt><trkpt lat="45.95363058154094" lon="11.721015684317537"><ele>239.0</ele><time>2026-04-12T14:54:31.989Z</time></trkpt><trkpt lat="45.95352025475167" lon="11.720830026729912"><ele>239.0</ele><time>2026-04-12T14:54:32.989Z</time></trkpt><trkpt lat="45.953370784865726" lon="11.720647157843004"><ele>239.0</ele><time>2026-04-12T14:54:33.989Z</time></trkpt><trkpt lat="45.95322964119204" lon="11.72046280503241"><ele>232.0</ele><time>2026-04-12T14:54:34.989Z</time></trkpt><trkpt lat="45.95307453197956" lon="11.720275281938717"><ele>225.0</ele><time>2026-04-12T14:54:35.989Z</time></trkpt><trkpt lat="45.952925721836166" lon="11.720104180564068"><ele>218.0</ele><time>2026-04-12T14:54:36.989Z</time></trkpt><trkpt lat="45.952764628742194" lon="11.719926127966922"><ele>217.66666666666669</ele><time>2026-04-12T14:54:37.991Z</time></trkpt><trkpt lat="45.95262380373179" lon="11.71980251807174"><ele>217.33333333333331</ele><time>2026-04-12T14:54:38.991Z</time></trkpt><trkpt lat="45.95249563661497" lon="11.719660607384629"><ele>217.0</ele><time>2026-04-12T14:54:39.991Z</time></trkpt><trkpt lat="45.9523268427862" lon="11.71961821682044"><ele>261.0</ele><time>2026-04-12T14:54:41.011Z</time></trkpt><trkpt lat="45.95185327710589" lon="11.71953596813721"><ele>319.0</ele><time>2026-04-12T14:54:43.007Z</time></trkpt><trkpt lat="45.95170356001208" lon="11.719539214155915"><ele>377.0</ele><time>2026-04-12T14:54:44.007Z</time></trkpt><trkpt lat="45.95137315134679" lon="11.71978875936327"><ele>415.0</ele><time>2026-04-12T14:55:07.662Z</time></trkpt><trkpt lat="45.95087416919663" lon="11.720083029073368"><ele>396.0</ele><time>2026-04-12T14:55:08.661Z</time></trkpt><trkpt lat="45.95046388349457" lon="11.720592278273244"><ele>361.0</ele><time>2026-04-12T14:55:09.661Z</time></trkpt><trkpt lat="45.95017483683017" lon="11.721251649473032"><ele>309.0</ele><time>2026-04-12T14:55:10.662Z</time></trkpt><trkpt lat="45.94982373167566" lon="11.724162907258568"><ele>309.0</ele><time>2026-04-12T14:55:11.991Z</time></trkpt><trkpt lat="45.94982602559403" lon="11.724339563378846"><ele>309.0</ele><time>2026-04-12T14:55:12.991Z</time></trkpt><trkpt lat="45.949791571284976" lon="11.724464479359632"><ele>309.0</ele><time>2026-04-12T14:55:13.991Z</time></trkpt><trkpt lat="45.949737379204144" lon="11.724592668053877"><ele>309.0</ele><time>2026-04-12T14:55:14.991Z</time></trkpt><trkpt lat="45.94963770628803" lon="11.724723765349138"><ele>302.6666666666667</ele><time>2026-04-12T14:55:15.991Z</time></trkpt><trkpt lat="45.949510705877046" lon="11.724835777204797"><ele>296.33333333333337</ele><time>2026-04-12T14:55:16.991Z</time></trkpt><trkpt lat="45.94937629679728" lon="11.724927347537706"><ele>290.0</ele><time>2026-04-12T14:55:17.991Z</time></trkpt><trkpt lat="45.949152133412575" lon="11.725039796703243"><ele>290.0</ele><time>2026-04-12T14:55:18.991Z</time></trkpt><trkpt lat="45.94896297325214" lon="11.725163511651196"><ele>290.0</ele><time>2026-04-12T14:55:19.991Z</time></trkpt><trkpt lat="45.94873143752682" lon="11.725276565148535"><ele>324.0</ele><time>2026-04-12T14:55:20.991Z</time></trkpt><trkpt lat="45.94850991985777" lon="11.725421393594905"><ele>358.0</ele><time>2026-04-12T14:55:21.991Z</time></trkpt><trkpt lat="45.94831444976647" lon="11.725559490315753"><ele>358.0</ele><time>2026-04-12T14:55:22.991Z</time></trkpt><trkpt lat="45.948127598609204" lon="11.725679176574838"><ele>358.0</ele><time>2026-04-12T14:55:23.991Z</time></trkpt><trkpt lat="45.94788642671203" lon="11.72581417021787"><ele>358.0</ele><time>2026-04-12T14:55:24.991Z</time></trkpt><trkpt lat="45.947644122297774" lon="11.725923206978466"><ele>358.0</ele><time>2026-04-12T14:55:25.991Z</time></trkpt><trkpt lat="45.94738979720184" lon="11.726040822969386"><ele>358.0</ele><time>2026-04-12T14:55:26.991Z</time></trkpt><trkpt lat="45.94714230882246" lon="11.726135695909347"><ele>358.0</ele><time>2026-04-12T14:55:27.991Z</time></trkpt><trkpt lat="45.94690995409903" lon="11.726216167554961"><ele>358.0</ele><time>2026-04-12T14:55:28.991Z</time></trkpt><trkpt lat="45.94668511552113" lon="11.72631634092828"><ele>358.0</ele><time>2026-04-12T14:55:29.991Z</time></trkpt><trkpt lat="45.9464342952405" lon="11.726377749253395"><ele>358.0</ele><time>2026-04-12T14:55:30.991Z</time></trkpt><trkpt lat="45.946170182225345" lon="11.726441037741214"><ele>358.0</ele><time>2026-04-12T14:55:31.991Z</time></trkpt><trkpt lat="45.94588671569521" lon="11.726503114100364"><ele>358.0</ele><time>2026-04-12T14:55:32.991Z</time></trkpt><trkpt lat="45.94559692134191" lon="11.726551088015064"><ele>358.0</ele><time>2026-04-12T14:55:33.991Z</time></trkpt><trkpt lat="45.9453448944007" lon="11.726590112547031"><ele>358.0</ele><time>2026-04-12T14:55:34.991Z</time></trkpt><trkpt lat="45.94511324070035" lon="11.726631947767993"><ele>358.0</ele><time>2026-04-12T14:55:35.991Z</time></trkpt><trkpt lat="45.944880262396076" lon="11.7266716609891"><ele>358.0</ele><time>2026-04-12T14:55:36.991Z</time></trkpt><trkpt lat="45.94464431960369" lon="11.726713783828881"><ele>358.0</ele><time>2026-04-12T14:55:37.991Z</time></trkpt><trkpt lat="45.944422562238366" lon="11.726746688273362"><ele>358.0</ele><time>2026-04-12T14:55:38.991Z</time></trkpt><trkpt lat="45.94419516616671" lon="11.726745234689588"><ele>358.0</ele><time>2026-04-12T14:55:39.991Z</time></trkpt><trkpt lat="45.94395979615145" lon="11.726730498485649"><ele>312.66666666666663</ele><time>2026-04-12T14:55:40.991Z</time></trkpt><trkpt lat="45.94377559637998" lon="11.726644462099898"><ele>267.3333333333333</ele><time>2026-04-12T14:55:41.991Z</time></trkpt><trkpt lat="45.94354834038504" lon="11.726561501054409"><ele>222.0</ele><time>2026-04-12T14:55:42.991Z</time></trkpt><trkpt lat="45.94332195504041" lon="11.72646278379022"><ele>222.0</ele><time>2026-04-12T14:55:43.991Z</time></trkpt><trkpt lat="45.94306947994637" lon="11.726369743125245"><ele>222.0</ele><time>2026-04-12T14:55:44.991Z</time></trkpt><trkpt lat="45.94280128439229" lon="11.726247930309485"><ele>222.0</ele><time>2026-04-12T14:55:45.991Z</time></trkpt><trkpt lat="45.9425205731887" lon="11.726134152829916"><ele>222.0</ele><time>2026-04-12T14:55:46.991Z</time></trkpt><trkpt lat="45.942259403650105" lon="11.72601667980475"><ele>215.5</ele><time>2026-04-12T14:55:47.991Z</time></trkpt><trkpt lat="45.94200818891556" lon="11.7259145561973"><ele>209.0</ele><time>2026-04-12T14:55:48.991Z</time></trkpt><trkpt lat="45.94175253083986" lon="11.725816230936347"><ele>216.5</ele><time>2026-04-12T14:55:49.991Z</time></trkpt><trkpt lat="45.941508187703654" lon="11.72571809462237"><ele>224.0</ele><time>2026-04-12T14:55:50.991Z</time></trkpt><trkpt lat="45.94125224167437" lon="11.725586032370815"><ele>224.0</ele><time>2026-04-12T14:55:51.991Z</time></trkpt><trkpt lat="45.94102752481676" lon="11.725502693960612"><ele>224.0</ele><time>2026-04-12T14:55:52.991Z</time></trkpt><trkpt lat="45.94081029700447" lon="11.725407025865605"><ele>224.0</ele><time>2026-04-12T14:55:53.991Z</time></trkpt><trkpt lat="45.94055999052452" lon="11.725337835160756"><ele>224.0</ele><time>2026-04-12T14:55:54.991Z</time></trkpt><trkpt lat="45.94031137205026" lon="11.72529357743775"><ele>224.0</ele><time>2026-04-12T14:55:55.991Z</time></trkpt><trkpt lat="45.9401041770956" lon="11.72521652291996"><ele>224.0</ele><time>2026-04-12T14:55:56.991Z</time></trkpt><trkpt lat="45.93982056732574" lon="11.725231648972839"><ele>224.0</ele><time>2026-04-12T14:55:57.991Z</time></trkpt><trkpt lat="45.93953976498494" lon="11.725203488607342"><ele>224.0</ele><time>2026-04-12T14:55:58.991Z</time></trkpt><trkpt lat="45.939283502593206" lon="11.725181175412855"><ele>224.0</ele><time>2026-04-12T14:55:59.991Z</time></trkpt><trkpt lat="45.93902124833708" lon="11.725162766437068"><ele>224.0</ele><time>2026-04-12T14:56:00.991Z</time></trkpt><trkpt lat="45.938762477828284" lon="11.72514095684852"><ele>224.0</ele><time>2026-04-12T14:56:01.991Z</time></trkpt><trkpt lat="45.93848218276539" lon="11.725119686097164"><ele>224.0</ele><time>2026-04-12T14:56:02.991Z</time></trkpt><trkpt lat="45.93821086761422" lon="11.7251575768597"><ele>224.0</ele><time>2026-04-12T14:56:03.991Z</time></trkpt><trkpt lat="45.93793753801201" lon="11.725094048826882"><ele>224.0</ele><time>2026-04-12T14:56:04.991Z</time></trkpt><trkpt lat="45.93768886727939" lon="11.72508044910665"><ele>224.0</ele><time>2026-04-12T14:56:05.991Z</time></trkpt><trkpt lat="45.93745451060359" lon="11.725069887985422"><ele>224.0</ele><time>2026-04-12T14:56:06.991Z</time></trkpt><trkpt lat="45.93723317685514" lon="11.725068799057292"><ele>224.0</ele><time>2026-04-12T14:56:07.991Z</time></trkpt><trkpt lat="45.937005973777374" lon="11.725073295290647"><ele>224.0</ele><time>2026-04-12T14:56:08.991Z</time></trkpt><trkpt lat="45.93677996610195" lon="11.725117564317278"><ele>224.0</ele><time>2026-04-12T14:56:09.991Z</time></trkpt><trkpt lat="45.93653994679919" lon="11.725163180584016"><ele>224.0</ele><time>2026-04-12T14:56:10.991Z</time></trkpt><trkpt lat="45.936309165737896" lon="11.725213091616224"><ele>224.0</ele><time>2026-04-12T14:56:11.991Z</time></trkpt><trkpt lat="45.93606609103287" lon="11.725286794584317"><ele>224.0</ele><time>2026-04-12T14:56:12.991Z</time></trkpt><trkpt lat="45.93582581767568" lon="11.725355569994504"><ele>224.0</ele><time>2026-04-12T14:56:13.991Z</time></trkpt><trkpt lat="45.93558451452645" lon="11.725409093414925"><ele>224.0</ele><time>2026-04-12T14:56:14.991Z</time></trkpt><trkpt lat="45.93533943067315" lon="11.725473396021059"><ele>224.0</ele><time>2026-04-12T14:56:15.991Z</time></trkpt><trkpt lat="45.935097828445194" lon="11.725537805788768"><ele>224.0</ele><time>2026-04-12T14:56:16.991Z</time></trkpt><trkpt lat="45.93486822786148" lon="11.72559733202387"><ele>224.0</ele><time>2026-04-12T14:56:17.991Z</time></trkpt><trkpt lat="45.93463733719521" lon="11.725657555714532"><ele>224.0</ele><time>2026-04-12T14:56:18.991Z</time></trkpt><trkpt lat="45.93440716414218" lon="11.725739452749368"><ele>224.0</ele><time>2026-04-12T14:56:19.991Z</time></trkpt><trkpt lat="45.93418726461801" lon="11.725841614861855"><ele>224.0</ele><time>2026-04-12T14:56:20.991Z</time></trkpt><trkpt lat="45.93396435731584" lon="11.72594398449184"><ele>224.0</ele><time>2026-04-12T14:56:21.991Z</time></trkpt><trkpt lat="45.93374390157577" lon="11.726052647812184"><ele>224.0</ele><time>2026-04-12T14:56:22.991Z</time></trkpt><trkpt lat="45.933521935524595" lon="11.726190520447124"><ele>212.0</ele><time>2026-04-12T14:56:23.991Z</time></trkpt><trkpt lat="45.933299939360445" lon="11.72633791615769"><ele>200.0</ele><time>2026-04-12T14:56:24.991Z</time></trkpt><trkpt lat="45.93307185607635" lon="11.726516118990833"><ele>200.0</ele><time>2026-04-12T14:56:25.991Z</time></trkpt><trkpt lat="45.93283967361391" lon="11.726697318739484"><ele>200.0</ele><time>2026-04-12T14:56:26.991Z</time></trkpt><trkpt lat="45.93262054992719" lon="11.726876122649772"><ele>261.5</ele><time>2026-04-12T14:56:27.991Z</time></trkpt><trkpt lat="45.93239913621265" lon="11.72703630922426"><ele>323.0</ele><time>2026-04-12T14:56:28.991Z</time></trkpt><trkpt lat="45.93218490279223" lon="11.727181026989456"><ele>323.0</ele><time>2026-04-12T14:56:29.991Z</time></trkpt><trkpt lat="45.931965243944" lon="11.727315714312425"><ele>323.0</ele><time>2026-04-12T14:56:30.991Z</time></trkpt><trkpt lat="45.93172922555031" lon="11.727431088145918"><ele>262.5</ele><time>2026-04-12T14:56:31.991Z</time></trkpt><trkpt lat="45.931482881304" lon="11.7275468641692"><ele>202.0</ele><time>2026-04-12T14:56:32.991Z</time></trkpt><trkpt lat="45.93122329391736" lon="11.727651415639807"><ele>320.5</ele><time>2026-04-12T14:56:33.991Z</time></trkpt><trkpt lat="45.93094675420601" lon="11.72774728197761"><ele>439.0</ele><time>2026-04-12T14:56:34.991Z</time></trkpt><trkpt lat="45.930658998674886" lon="11.727837937462303"><ele>439.0</ele><time>2026-04-12T14:56:35.991Z</time></trkpt><trkpt lat="45.93037046096996" lon="11.727923106039054"><ele>439.0</ele><time>2026-04-12T14:56:36.991Z</time></trkpt><trkpt lat="45.93010145276699" lon="11.728011619594168"><ele>439.0</ele><time>2026-04-12T14:56:37.991Z</time></trkpt><trkpt lat="45.92985908423131" lon="11.728088248621763"><ele>439.0</ele><time>2026-04-12T14:56:38.991Z</time></trkpt><trkpt lat="45.92961598685761" lon="11.728158379297218"><ele>439.0</ele><time>2026-04-12T14:56:39.991Z</time></trkpt><trkpt lat="45.92937444334745" lon="11.728235907352786"><ele>439.0</ele><time>2026-04-12T14:56:40.991Z</time></trkpt><trkpt lat="45.92913559441628" lon="11.728307480818728"><ele>439.0</ele><time>2026-04-12T14:56:41.991Z</time></trkpt><trkpt lat="45.928886201491785" lon="11.728370186948291"><ele>439.0</ele><time>2026-04-12T14:56:42.991Z</time></trkpt><trkpt lat="45.92864218922682" lon="11.728413722478411"><ele>439.0</ele><time>2026-04-12T14:56:43.992Z</time></trkpt><trkpt lat="45.92837878082746" lon="11.728442462260212"><ele>439.0</ele><time>2026-04-12T14:56:44.992Z</time></trkpt><trkpt lat="45.9281141009296" lon="11.72845638830962"><ele>439.0</ele><time>2026-04-12T14:56:45.992Z</time></trkpt><trkpt lat="45.92784325079602" lon="11.728449230214483"><ele>439.0</ele><time>2026-04-12T14:56:46.992Z</time></trkpt><trkpt lat="45.927573005041545" lon="11.728415832069983"><ele>439.0</ele><time>2026-04-12T14:56:47.992Z</time></trkpt><trkpt lat="45.927296080003984" lon="11.72835948020421"><ele>439.0</ele><time>2026-04-12T14:56:48.992Z</time></trkpt><trkpt lat="45.927017411832914" lon="11.728282562765433"><ele>439.0</ele><time>2026-04-12T14:56:49.992Z</time></trkpt><trkpt lat="45.92672201788958" lon="11.728201539214457"><ele>439.0</ele><time>2026-04-12T14:56:50.992Z</time></trkpt><trkpt lat="45.92643795032281" lon="11.728123961730796"><ele>439.0</ele><time>2026-04-12T14:56:51.992Z</time></trkpt><trkpt lat="45.92616910019527" lon="11.728056113181072"><ele>439.0</ele><time>2026-04-12T14:56:52.992Z</time></trkpt><trkpt lat="45.92591712478077" lon="11.727995232521394"><ele>439.0</ele><time>2026-04-12T14:56:53.992Z</time></trkpt><trkpt lat="45.92566911170473" lon="11.72794059582298"><ele>439.0</ele><time>2026-04-12T14:56:54.992Z</time></trkpt><trkpt lat="45.92541580636078" lon="11.727902386865324"><ele>439.0</ele><time>2026-04-12T14:56:55.992Z</time></trkpt><trkpt lat="45.925157223189395" lon="11.727879669271543"><ele>439.0</ele><time>2026-04-12T14:56:56.992Z</time></trkpt><trkpt lat="45.92490568807517" lon="11.727885581339866"><ele>439.0</ele><time>2026-04-12T14:56:57.992Z</time></trkpt><trkpt lat="45.92465780068114" lon="11.727910215114626"><ele>439.0</ele><time>2026-04-12T14:56:58.992Z</time></trkpt><trkpt lat="45.92439672452234" lon="11.727940584632668"><ele>439.0</ele><time>2026-04-12T14:56:59.992Z</time></trkpt><trkpt lat="45.92413124889347" lon="11.727982302758356"><ele>439.0</ele><time>2026-04-12T14:57:00.992Z</time></trkpt><trkpt lat="45.9238564409438" lon="11.728037433728257"><ele>439.0</ele><time>2026-04-12T14:57:01.992Z</time></trkpt><trkpt lat="45.923573947298436" lon="11.728091037481455"><ele>439.0</ele><time>2026-04-12T14:57:02.992Z</time></trkpt><trkpt lat="45.92329815521296" lon="11.728134129343873"><ele>439.0</ele><time>2026-04-12T14:57:03.992Z</time></trkpt><trkpt lat="45.923048199475744" lon="11.72818061007543"><ele>439.0</ele><time>2026-04-12T14:57:04.992Z</time></trkpt><trkpt lat="45.92281470260562" lon="11.728217604553251"><ele>439.0</ele><time>2026-04-12T14:57:05.992Z</time></trkpt><trkpt lat="45.922590561782606" lon="11.728249619724313"><ele>439.0</ele><time>2026-04-12T14:57:06.992Z</time></trkpt><trkpt lat="45.922366074820204" lon="11.72828236057038"><ele>439.0</ele><time>2026-04-12T14:57:07.992Z</time></trkpt><trkpt lat="45.922137605252615" lon="11.728322855023999"><ele>439.0</ele><time>2026-04-12T14:57:08.992Z</time></trkpt><trkpt lat="45.92190814313902" lon="11.728361556200529"><ele>439.0</ele><time>2026-04-12T14:57:09.992Z</time></trkpt><trkpt lat="45.92167647471448" lon="11.728396679784412"><ele>439.0</ele><time>2026-04-12T14:57:10.992Z</time></trkpt><trkpt lat="45.9214446113568" lon="11.728424516238691"><ele>439.0</ele><time>2026-04-12T14:57:11.992Z</time></trkpt><trkpt lat="45.92121582873013" lon="11.728446251792242"><ele>439.0</ele><time>2026-04-12T14:57:12.992Z</time></trkpt><trkpt lat="45.92098436032828" lon="11.728451853837244"><ele>439.0</ele><time>2026-04-12T14:57:13.992Z</time></trkpt><trkpt lat="45.920749722742286" lon="11.728452284072723"><ele>439.0</ele><time>2026-04-12T14:57:14.992Z</time></trkpt><trkpt lat="45.92051071667424" lon="11.728447645014233"><ele>439.0</ele><time>2026-04-12T14:57:15.992Z</time></trkpt><trkpt lat="45.920272178301445" lon="11.728438759670471"><ele>439.0</ele><time>2026-04-12T14:57:16.992Z</time></trkpt><trkpt lat="45.92003030880021" lon="11.728420776804473"><ele>439.0</ele><time>2026-04-12T14:57:17.992Z</time></trkpt><trkpt lat="45.91979695087387" lon="11.728381375084846"><ele>439.0</ele><time>2026-04-12T14:57:18.992Z</time></trkpt><trkpt lat="45.91955119511836" lon="11.728342841956762"><ele>439.0</ele><time>2026-04-12T14:57:19.992Z</time></trkpt><trkpt lat="45.919295354910865" lon="11.728296972194956"><ele>439.0</ele><time>2026-04-12T14:57:20.992Z</time></trkpt><trkpt lat="45.91904493878765" lon="11.728243143009998"><ele>439.0</ele><time>2026-04-12T14:57:21.992Z</time></trkpt><trkpt lat="45.918814102177905" lon="11.72818158557342"><ele>439.0</ele><time>2026-04-12T14:57:22.992Z</time></trkpt><trkpt lat="45.918588300630056" lon="11.72810682960775"><ele>439.0</ele><time>2026-04-12T14:57:23.992Z</time></trkpt><trkpt lat="45.91836657070057" lon="11.728023817729673"><ele>439.0</ele><time>2026-04-12T14:57:24.992Z</time></trkpt><trkpt lat="45.918149666012575" lon="11.727933268077237"><ele>439.0</ele><time>2026-04-12T14:57:25.992Z</time></trkpt><trkpt lat="45.917925945225655" lon="11.727843482088334"><ele>439.0</ele><time>2026-04-12T14:57:26.992Z</time></trkpt><trkpt lat="45.91770483125365" lon="11.727750392513276"><ele>439.0</ele><time>2026-04-12T14:57:27.992Z</time></trkpt><trkpt lat="45.91747794045598" lon="11.72764540544388"><ele>439.0</ele><time>2026-04-12T14:57:28.992Z</time></trkpt><trkpt lat="45.9172476196801" lon="11.727527873454676"><ele>439.0</ele><time>2026-04-12T14:57:29.992Z</time></trkpt><trkpt lat="45.91700924759835" lon="11.727398632842993"><ele>439.0</ele><time>2026-04-12T14:57:30.992Z</time></trkpt><trkpt lat="45.91676475216223" lon="11.72726308959746"><ele>439.0</ele><time>2026-04-12T14:57:31.992Z</time></trkpt><trkpt lat="45.916514203516286" lon="11.727125723152549"><ele>439.0</ele><time>2026-04-12T14:57:32.992Z</time></trkpt><trkpt lat="45.91625318306873" lon="11.726987916327262"><ele>316.0</ele><time>2026-04-12T14:57:33.992Z</time></trkpt><trkpt lat="45.91600384815808" lon="11.726860257035257"><ele>193.0</ele><time>2026-04-12T14:57:34.992Z</time></trkpt><trkpt lat="45.91577534154982" lon="11.726732767861568"><ele>193.0</ele><time>2026-04-12T14:57:35.992Z</time></trkpt><trkpt lat="45.915544963294515" lon="11.726607335416816"><ele>193.0</ele><time>2026-04-12T14:57:36.992Z</time></trkpt><trkpt lat="45.91530436567674" lon="11.72647368337449"><ele>192.5</ele><time>2026-04-12T14:57:37.992Z</time></trkpt><trkpt lat="45.91504929765324" lon="11.726331841712868"><ele>192.0</ele><time>2026-04-12T14:57:38.992Z</time></trkpt><trkpt lat="45.914793086175386" lon="11.7261943105907"><ele>191.0</ele><time>2026-04-12T14:57:39.992Z</time></trkpt><trkpt lat="45.91454444475324" lon="11.726059851374757"><ele>190.0</ele><time>2026-04-12T14:57:40.992Z</time></trkpt><trkpt lat="45.914299144294255" lon="11.725926072087569"><ele>190.5</ele><time>2026-04-12T14:57:41.992Z</time></trkpt><trkpt lat="45.91405663463498" lon="11.725794380664242"><ele>191.0</ele><time>2026-04-12T14:57:42.992Z</time></trkpt><trkpt lat="45.91381658897204" lon="11.725666055884266"><ele>191.0</ele><time>2026-04-12T14:57:43.992Z</time></trkpt><trkpt lat="45.91357765613953" lon="11.725540913953747"><ele>191.0</ele><time>2026-04-12T14:57:44.992Z</time></trkpt><trkpt lat="45.91333630504418" lon="11.72541120513949"><ele>191.0</ele><time>2026-04-12T14:57:45.992Z</time></trkpt><trkpt lat="45.91309430517169" lon="11.72527814215398"><ele>191.0</ele><time>2026-04-12T14:57:46.992Z</time></trkpt><trkpt lat="45.91285284548299" lon="11.725140778635986"><ele>191.5</ele><time>2026-04-12T14:57:47.992Z</time></trkpt><trkpt lat="45.9126083380254" lon="11.725006976744268"><ele>192.0</ele><time>2026-04-12T14:57:48.992Z</time></trkpt><trkpt lat="45.9123612337973" lon="11.724871877704699"><ele>193.5</ele><time>2026-04-12T14:57:49.992Z</time></trkpt><trkpt lat="45.91211402892884" lon="11.72473537494812"><ele>195.0</ele><time>2026-04-12T14:57:50.992Z</time></trkpt><trkpt lat="45.911857751550414" lon="11.72460602157297"><ele>193.0</ele><time>2026-04-12T14:57:51.992Z</time></trkpt><trkpt lat="45.91159450648479" lon="11.72446783639837"><ele>191.0</ele><time>2026-04-12T14:57:52.992Z</time></trkpt><trkpt lat="45.91133783394391" lon="11.724332408924363"><ele>191.0</ele><time>2026-04-12T14:57:53.992Z</time></trkpt><trkpt lat="45.91110346008748" lon="11.724209667540425"><ele>191.0</ele><time>2026-04-12T14:57:54.992Z</time></trkpt><trkpt lat="45.91088248427306" lon="11.724088265981095"><ele>190.5</ele><time>2026-04-12T14:57:55.992Z</time></trkpt><trkpt lat="45.91065811783669" lon="11.723958526673858"><ele>190.0</ele><time>2026-04-12T14:57:56.992Z</time></trkpt><trkpt lat="45.91042440891697" lon="11.723830121339349"><ele>190.0</ele><time>2026-04-12T14:57:57.992Z</time></trkpt><trkpt lat="45.91018931236678" lon="11.723698447703395"><ele>190.0</ele><time>2026-04-12T14:57:58.992Z</time></trkpt><trkpt lat="45.909955580390076" lon="11.723558022678787"><ele>189.0</ele><time>2026-04-12T14:57:59.992Z</time></trkpt><trkpt lat="45.90972503183095" lon="11.723409822062"><ele>188.0</ele><time>2026-04-12T14:58:00.992Z</time></trkpt><trkpt lat="45.90950030535298" lon="11.723235286741142"><ele>188.0</ele><time>2026-04-12T14:58:01.992Z</time></trkpt><trkpt lat="45.909284135376524" lon="11.723042274057114"><ele>188.0</ele><time>2026-04-12T14:58:02.992Z</time></trkpt><trkpt lat="45.90907732108006" lon="11.72283310975952"><ele>190.0</ele><time>2026-04-12T14:58:03.992Z</time></trkpt><trkpt lat="45.90887672956026" lon="11.722608911995113"><ele>192.0</ele><time>2026-04-12T14:58:04.992Z</time></trkpt><trkpt lat="45.908683092140926" lon="11.722365918170407"><ele>192.0</ele><time>2026-04-12T14:58:05.992Z</time></trkpt><trkpt lat="45.90849570966471" lon="11.722103007263957"><ele>192.0</ele><time>2026-04-12T14:58:06.992Z</time></trkpt><trkpt lat="45.908309781354326" lon="11.72181851407547"><ele>191.0</ele><time>2026-04-12T14:58:07.992Z</time></trkpt><trkpt lat="45.908130446381186" lon="11.721532847417782"><ele>190.0</ele><time>2026-04-12T14:58:08.992Z</time></trkpt><trkpt lat="45.907961648103914" lon="11.721265283621957"><ele>190.0</ele><time>2026-04-12T14:58:09.992Z</time></trkpt><trkpt lat="45.90779668630299" lon="11.721002809070827"><ele>190.0</ele><time>2026-04-12T14:58:10.992Z</time></trkpt><trkpt lat="45.907630188829444" lon="11.720740624671636"><ele>190.5</ele><time>2026-04-12T14:58:11.992Z</time></trkpt><trkpt lat="45.907461435627155" lon="11.72047922888151"><ele>191.0</ele><time>2026-04-12T14:58:12.992Z</time></trkpt><trkpt lat="45.90729698847559" lon="11.720223681425676"><ele>191.5</ele><time>2026-04-12T14:58:13.992Z</time></trkpt><trkpt lat="45.9071266358432" lon="11.719962871061554"><ele>192.0</ele><time>2026-04-12T14:58:14.992Z</time></trkpt><trkpt lat="45.90696234206692" lon="11.719707250146824"><ele>192.0</ele><time>2026-04-12T14:58:15.992Z</time></trkpt><trkpt lat="45.906798351497265" lon="11.719444529320926"><ele>192.0</ele><time>2026-04-12T14:58:16.992Z</time></trkpt><trkpt lat="45.90662393937603" lon="11.719173595293983"><ele>192.0</ele><time>2026-04-12T14:58:17.992Z</time></trkpt><trkpt lat="45.906440003537284" lon="11.718889261405938"><ele>192.0</ele><time>2026-04-12T14:58:18.992Z</time></trkpt><trkpt lat="45.906248375337235" lon="11.718603001362572"><ele>190.5</ele><time>2026-04-12T14:58:19.992Z</time></trkpt><trkpt lat="45.9060807998093" lon="11.718332776795759"><ele>189.0</ele><time>2026-04-12T14:58:20.992Z</time></trkpt><trkpt lat="45.90591681220275" lon="11.718073399470242"><ele>188.5</ele><time>2026-04-12T14:58:21.992Z</time></trkpt><trkpt lat="45.90575807354199" lon="11.717822689624958"><ele>188.0</ele><time>2026-04-12T14:58:22.992Z</time></trkpt><trkpt lat="45.90560203510042" lon="11.717582213231784"><ele>186.5</ele><time>2026-04-12T14:58:23.992Z</time></trkpt><trkpt lat="45.90544363809425" lon="11.717337239922365"><ele>185.0</ele><time>2026-04-12T14:58:24.992Z</time></trkpt><trkpt lat="45.90528265487534" lon="11.717090582064174"><ele>185.0</ele><time>2026-04-12T14:58:25.992Z</time></trkpt><trkpt lat="45.90511973879895" lon="11.71684663003743"><ele>185.0</ele><time>2026-04-12T14:58:26.992Z</time></trkpt><trkpt lat="45.90495625341157" lon="11.716596626186625"><ele>186.0</ele><time>2026-04-12T14:58:27.992Z</time></trkpt><trkpt lat="45.90479001631249" lon="11.716340308529507"><ele>187.0</ele><time>2026-04-12T14:58:28.992Z</time></trkpt><trkpt lat="45.90461243778803" lon="11.716070825490497"><ele>184.5</ele><time>2026-04-12T14:58:29.992Z</time></trkpt><trkpt lat="45.90443015843105" lon="11.71578928250288"><ele>182.0</ele><time>2026-04-12T14:58:30.992Z</time></trkpt><trkpt lat="45.90426268489539" lon="11.715523489706605"><ele>182.5</ele><time>2026-04-12T14:58:31.992Z</time></trkpt><trkpt lat="45.9041019361877" lon="11.71527714688671"><ele>183.0</ele><time>2026-04-12T14:58:32.992Z</time></trkpt><trkpt lat="45.90394650797548" lon="11.715037392741543"><ele>183.0</ele><time>2026-04-12T14:58:33.992Z</time></trkpt><trkpt lat="45.903798632903374" lon="11.71480992699134"><ele>183.0</ele><time>2026-04-12T14:58:34.992Z</time></trkpt><trkpt lat="45.90365789248048" lon="11.714584946593833"><ele>183.0</ele><time>2026-04-12T14:58:35.992Z</time></trkpt><trkpt lat="45.90351885921581" lon="11.714356051277331"><ele>184.66666666666666</ele><time>2026-04-12T14:58:36.992Z</time></trkpt><trkpt lat="45.903379172252805" lon="11.714113907468944"><ele>186.33333333333331</ele><time>2026-04-12T14:58:37.992Z</time></trkpt><trkpt lat="45.90325524405865" lon="11.713860843349847"><ele>188.0</ele><time>2026-04-12T14:58:38.992Z</time></trkpt><trkpt lat="45.90314102060052" lon="11.713613692635068"><ele>186.0</ele><time>2026-04-12T14:58:39.992Z</time></trkpt><trkpt lat="45.90303274100304" lon="11.713340373007313"><ele>184.0</ele><time>2026-04-12T14:58:40.992Z</time></trkpt><trkpt lat="45.90293970134564" lon="11.713042435926091"><ele>182.0</ele><time>2026-04-12T14:58:41.992Z</time></trkpt><trkpt lat="45.902870183438395" lon="11.71274955437726"><ele>180.0</ele><time>2026-04-12T14:58:42.992Z</time></trkpt><trkpt lat="45.902822849051944" lon="11.712416683556864"><ele>178.0</ele><time>2026-04-12T14:58:43.992Z</time></trkpt><trkpt lat="45.90276846666764" lon="11.7120686949906"><ele>177.0</ele><time>2026-04-12T14:58:44.992Z</time></trkpt><trkpt lat="45.90270806476502" lon="11.71169088901254"><ele>176.0</ele><time>2026-04-12T14:58:45.992Z</time></trkpt><trkpt lat="45.90265351193088" lon="11.711300703458608"><ele>176.5</ele><time>2026-04-12T14:58:46.992Z</time></trkpt><trkpt lat="45.90260466479289" lon="11.710897308566512"><ele>177.0</ele><time>2026-04-12T14:58:47.992Z</time></trkpt><trkpt lat="45.90255382297626" lon="11.710486215677292"><ele>185.5</ele><time>2026-04-12T14:58:48.992Z</time></trkpt><trkpt lat="45.90250726423798" lon="11.710115157338798"><ele>194.0</ele><time>2026-04-12T14:58:49.993Z</time></trkpt><trkpt lat="45.90248016533417" lon="11.709760538132132"><ele>195.0</ele><time>2026-04-12T14:58:50.993Z</time></trkpt><trkpt lat="45.902453669757364" lon="11.709405883097928"><ele>196.0</ele><time>2026-04-12T14:58:51.993Z</time></trkpt><trkpt lat="45.9024180846973" lon="11.709051538246477"><ele>196.0</ele><time>2026-04-12T14:58:52.993Z</time></trkpt><trkpt lat="45.90235620259942" lon="11.7086839263512"><ele>196.0</ele><time>2026-04-12T14:58:53.993Z</time></trkpt><trkpt lat="45.90230330534753" lon="11.7083060866671"><ele>189.0</ele><time>2026-04-12T14:58:54.993Z</time></trkpt><trkpt lat="45.902241956872864" lon="11.707906469036265"><ele>182.0</ele><time>2026-04-12T14:58:55.993Z</time></trkpt><trkpt lat="45.902179093565564" lon="11.707493854115038"><ele>179.5</ele><time>2026-04-12T14:58:56.993Z</time></trkpt><trkpt lat="45.902116789611874" lon="11.707104393193296"><ele>177.0</ele><time>2026-04-12T14:58:57.993Z</time></trkpt><trkpt lat="45.90204989602063" lon="11.70672026632766"><ele>175.5</ele><time>2026-04-12T14:58:58.993Z</time></trkpt><trkpt lat="45.90198024236051" lon="11.706343069849146"><ele>174.0</ele><time>2026-04-12T14:58:59.993Z</time></trkpt><trkpt lat="45.901913723367635" lon="11.705973602228362"><ele>174.0</ele><time>2026-04-12T14:59:00.993Z</time></trkpt><trkpt lat="45.90184804352923" lon="11.705606162276649"><ele>174.0</ele><time>2026-04-12T14:59:01.993Z</time></trkpt><trkpt lat="45.90178208328011" lon="11.705249237866106"><ele>179.5</ele><time>2026-04-12T14:59:02.993Z</time></trkpt><trkpt lat="45.90173405378266" lon="11.704905722969514"><ele>185.0</ele><time>2026-04-12T14:59:03.993Z</time></trkpt><trkpt lat="45.901676950091385" lon="11.704564215085702"><ele>183.0</ele><time>2026-04-12T14:59:04.993Z</time></trkpt><trkpt lat="45.901601913409856" lon="11.704233366215087"><ele>181.0</ele><time>2026-04-12T14:59:05.993Z</time></trkpt><trkpt lat="45.90150616808456" lon="11.703899808653864"><ele>180.0</ele><time>2026-04-12T14:59:06.993Z</time></trkpt><trkpt lat="45.90141559414627" lon="11.703567687066709"><ele>179.0</ele><time>2026-04-12T14:59:07.993Z</time></trkpt><trkpt lat="45.9013208061913" lon="11.703231357958082"><ele>179.0</ele><time>2026-04-12T14:59:08.993Z</time></trkpt><trkpt lat="45.901238332321235" lon="11.70290222634711"><ele>179.0</ele><time>2026-04-12T14:59:09.993Z</time></trkpt><trkpt lat="45.90116172189496" lon="11.702572622549111"><ele>178.0</ele><time>2026-04-12T14:59:10.993Z</time></trkpt><trkpt lat="45.90109351245569" lon="11.702260319340326"><ele>177.0</ele><time>2026-04-12T14:59:11.993Z</time></trkpt><trkpt lat="45.901025186711884" lon="11.70196219176184"><ele>176.0</ele><time>2026-04-12T14:59:12.993Z</time></trkpt><trkpt lat="45.900963813176226" lon="11.70168084650559"><ele>176.0</ele><time>2026-04-12T14:59:13.993Z</time></trkpt><trkpt lat="45.9009097788869" lon="11.70142075072199"><ele>176.0</ele><time>2026-04-12T14:59:14.993Z</time></trkpt><trkpt lat="45.90085382755804" lon="11.701163886879879"><ele>176.0</ele><time>2026-04-12T14:59:15.993Z</time></trkpt><trkpt lat="45.90078750864382" lon="11.700917157513762"><ele>175.33333333333331</ele><time>2026-04-12T14:59:16.993Z</time></trkpt><trkpt lat="45.90073622101941" lon="11.700683648769688"><ele>174.66666666666666</ele><time>2026-04-12T14:59:17.993Z</time></trkpt><trkpt lat="45.900684625657206" lon="11.700460110600035"><ele>174.0</ele><time>2026-04-12T14:59:18.993Z</time></trkpt><trkpt lat="45.90063098412307" lon="11.700234043540242"><ele>174.0</ele><time>2026-04-12T14:59:19.993Z</time></trkpt><trkpt lat="45.90058666210961" lon="11.70004401546072"><ele>174.0</ele><time>2026-04-12T14:59:20.993Z</time></trkpt><trkpt lat="45.90054632553277" lon="11.69983568844354"><ele>174.0</ele><time>2026-04-12T14:59:21.993Z</time></trkpt><trkpt lat="45.90047792081197" lon="11.699617521468696"><ele>173.66666666666666</ele><time>2026-04-12T14:59:22.993Z</time></trkpt><trkpt lat="45.900408010996635" lon="11.69936849495296"><ele>173.33333333333331</ele><time>2026-04-12T14:59:23.993Z</time></trkpt><trkpt lat="45.900292829577175" lon="11.69910069400652"><ele>173.0</ele><time>2026-04-12T14:59:24.993Z</time></trkpt><trkpt lat="45.90020246116358" lon="11.698855738622905"><ele>173.0</ele><time>2026-04-12T14:59:25.993Z</time></trkpt><trkpt lat="45.90023416784053" lon="11.698684939686743"><ele>173.0</ele><time>2026-04-12T14:59:26.993Z</time></trkpt><trkpt lat="45.900193849185634" lon="11.698441429838741"><ele>173.0</ele><time>2026-04-12T14:59:27.993Z</time></trkpt><trkpt lat="45.90013688442542" lon="11.698158488350803"><ele>176.5</ele><time>2026-04-12T14:59:28.993Z</time></trkpt><trkpt lat="45.9000794667473" lon="11.697852106309979"><ele>180.0</ele><time>2026-04-12T14:59:29.993Z</time></trkpt><trkpt lat="45.90002954135958" lon="11.69752216681466"><ele>180.0</ele><time>2026-04-12T14:59:30.993Z</time></trkpt><trkpt lat="45.899962017743036" lon="11.697173996681233"><ele>180.0</ele><time>2026-04-12T14:59:31.993Z</time></trkpt><trkpt lat="45.89987520787158" lon="11.69681127749211"><ele>177.5</ele><time>2026-04-12T14:59:32.993Z</time></trkpt><trkpt lat="45.899808737166516" lon="11.696415709886994"><ele>175.0</ele><time>2026-04-12T14:59:33.993Z</time></trkpt><trkpt lat="45.89974158617781" lon="11.696026723142475"><ele>174.5</ele><time>2026-04-12T14:59:34.993Z</time></trkpt><trkpt lat="45.89968683940638" lon="11.695658259940263"><ele>174.0</ele><time>2026-04-12T14:59:35.993Z</time></trkpt><trkpt lat="45.899627456015374" lon="11.695313637843203"><ele>174.0</ele><time>2026-04-12T14:59:36.993Z</time></trkpt><trkpt lat="45.89957534488928" lon="11.694968803555588"><ele>174.0</ele><time>2026-04-12T14:59:37.993Z</time></trkpt><trkpt lat="45.89953181085602" lon="11.694628167707515"><ele>172.5</ele><time>2026-04-12T14:59:38.993Z</time></trkpt><trkpt lat="45.89945928410401" lon="11.694291396891773"><ele>171.0</ele><time>2026-04-12T14:59:39.993Z</time></trkpt><trkpt lat="45.89941604467736" lon="11.693934380610948"><ele>171.0</ele><time>2026-04-12T14:59:40.993Z</time></trkpt><trkpt lat="45.89935439030705" lon="11.6936083489054"><ele>171.0</ele><time>2026-04-12T14:59:41.993Z</time></trkpt><trkpt lat="45.89928653668344" lon="11.69330312895223"><ele>171.66666666666666</ele><time>2026-04-12T14:59:42.993Z</time></trkpt><trkpt lat="45.899189145937115" lon="11.693008737090615"><ele>172.33333333333331</ele><time>2026-04-12T14:59:43.993Z</time></trkpt><trkpt lat="45.89907969412575" lon="11.692738025126818"><ele>173.0</ele><time>2026-04-12T14:59:44.993Z</time></trkpt><trkpt lat="45.89895918733948" lon="11.692477430852547"><ele>174.0</ele><time>2026-04-12T14:59:45.993Z</time></trkpt><trkpt lat="45.89882104752529" lon="11.692227124337052"><ele>175.0</ele><time>2026-04-12T14:59:46.993Z</time></trkpt><trkpt lat="45.898666778978956" lon="11.69198531515009"><ele>175.5</ele><time>2026-04-12T14:59:47.993Z</time></trkpt><trkpt lat="45.89849773921402" lon="11.691770653799566"><ele>176.0</ele><time>2026-04-12T14:59:48.993Z</time></trkpt><trkpt lat="45.89831662140448" lon="11.691579452985925"><ele>174.66666666666666</ele><time>2026-04-12T14:59:49.993Z</time></trkpt><trkpt lat="45.89813221899143" lon="11.691401530918498"><ele>173.33333333333334</ele><time>2026-04-12T14:59:50.993Z</time></trkpt><trkpt lat="45.897936704294686" lon="11.691244088264067"><ele>172.0</ele><time>2026-04-12T14:59:51.993Z</time></trkpt><trkpt lat="45.89774104269584" lon="11.691104486852266"><ele>171.66666666666669</ele><time>2026-04-12T14:59:52.993Z</time></trkpt><trkpt lat="45.89753646929662" lon="11.690988085051345"><ele>171.33333333333334</ele><time>2026-04-12T14:59:53.993Z</time></trkpt><trkpt lat="45.89732257324765" lon="11.690895199529027"><ele>171.0</ele><time>2026-04-12T14:59:54.993Z</time></trkpt><trkpt lat="45.897100517797" lon="11.690825304761706"><ele>171.0</ele><time>2026-04-12T14:59:55.993Z</time></trkpt><trkpt lat="45.89686322494449" lon="11.690772120578927"><ele>171.0</ele><time>2026-04-12T14:59:56.993Z</time></trkpt><trkpt lat="45.89662196450064" lon="11.690740607359395"><ele>173.5</ele><time>2026-04-12T14:59:57.993Z</time></trkpt><trkpt lat="45.89637062003432" lon="11.690740893617333"><ele>176.0</ele><time>2026-04-12T14:59:58.993Z</time></trkpt><trkpt lat="45.8961197459962" lon="11.69073679208855"><ele>176.33333333333331</ele><time>2026-04-12T14:59:59.993Z</time></trkpt><trkpt lat="45.89589278933703" lon="11.690729069317657"><ele>176.66666666666666</ele><time>2026-04-12T15:00:00.993Z</time></trkpt><trkpt lat="45.8956761442575" lon="11.690715512664617"><ele>177.0</ele><time>2026-04-12T15:00:01.993Z</time></trkpt><trkpt lat="45.895451192689514" lon="11.690702471762814"><ele>177.0</ele><time>2026-04-12T15:00:02.993Z</time></trkpt><trkpt lat="45.89521472298624" lon="11.690686750385437"><ele>177.0</ele><time>2026-04-12T15:00:03.993Z</time></trkpt><trkpt lat="45.89497599475018" lon="11.690691150431965"><ele>176.5</ele><time>2026-04-12T15:00:04.993Z</time></trkpt><trkpt lat="45.894738618579325" lon="11.690714315708002"><ele>176.0</ele><time>2026-04-12T15:00:05.993Z</time></trkpt><trkpt lat="45.89451099016184" lon="11.690744009477967"><ele>176.0</ele><time>2026-04-12T15:00:06.993Z</time></trkpt><trkpt lat="45.894279799556756" lon="11.690798130447865"><ele>176.0</ele><time>2026-04-12T15:00:07.993Z</time></trkpt><trkpt lat="45.89403896760524" lon="11.690856467674982"><ele>174.5</ele><time>2026-04-12T15:00:08.993Z</time></trkpt><trkpt lat="45.893806978545626" lon="11.690905820021332"><ele>173.0</ele><time>2026-04-12T15:00:09.993Z</time></trkpt><trkpt lat="45.893584028649045" lon="11.690951715197416"><ele>170.0</ele><time>2026-04-12T15:00:10.993Z</time></trkpt><trkpt lat="45.893357467404115" lon="11.690996507025444"><ele>167.0</ele><time>2026-04-12T15:00:11.993Z</time></trkpt><trkpt lat="45.89313064896006" lon="11.691037065478188"><ele>167.0</ele><time>2026-04-12T15:00:12.993Z</time></trkpt><trkpt lat="45.892913146526546" lon="11.691078071455564"><ele>167.0</ele><time>2026-04-12T15:00:13.993Z</time></trkpt><trkpt lat="45.892699974665284" lon="11.691110790357188"><ele>167.0</ele><time>2026-04-12T15:00:14.993Z</time></trkpt><trkpt lat="45.89249653913625" lon="11.691133142335627"><ele>167.33333333333331</ele><time>2026-04-12T15:00:15.993Z</time></trkpt><trkpt lat="45.892296990319004" lon="11.691125305892552"><ele>167.66666666666666</ele><time>2026-04-12T15:00:16.993Z</time></trkpt><trkpt lat="45.892082942680624" lon="11.69109424164928"><ele>168.0</ele><time>2026-04-12T15:00:17.993Z</time></trkpt><trkpt lat="45.89186694956" lon="11.691041199064726"><ele>169.66666666666666</ele><time>2026-04-12T15:00:18.993Z</time></trkpt><trkpt lat="45.89165711966707" lon="11.690966039156883"><ele>171.33333333333331</ele><time>2026-04-12T15:00:19.993Z</time></trkpt><trkpt lat="45.891436846569896" lon="11.690860582506406"><ele>173.0</ele><time>2026-04-12T15:00:20.993Z</time></trkpt><trkpt lat="45.89120935275232" lon="11.690728528065712"><ele>173.0</ele><time>2026-04-12T15:00:21.993Z</time></trkpt><trkpt lat="45.89096885600961" lon="11.690570232697969"><ele>173.0</ele><time>2026-04-12T15:00:22.993Z</time></trkpt><trkpt lat="45.890722330193086" lon="11.690394597456168"><ele>170.5</ele><time>2026-04-12T15:00:23.993Z</time></trkpt><trkpt lat="45.89046985906561" lon="11.69021020839262"><ele>168.0</ele><time>2026-04-12T15:00:24.993Z</time></trkpt><trkpt lat="45.890210394486296" lon="11.690003676935998"><ele>178.0</ele><time>2026-04-12T15:00:25.993Z</time></trkpt><trkpt lat="45.889950602364486" lon="11.68976523073261"><ele>188.0</ele><time>2026-04-12T15:00:26.993Z</time></trkpt><trkpt lat="45.88969980781489" lon="11.689519576454403"><ele>188.0</ele><time>2026-04-12T15:00:27.993Z</time></trkpt><trkpt lat="45.88944067769121" lon="11.689244711387504"><ele>188.0</ele><time>2026-04-12T15:00:28.993Z</time></trkpt><trkpt lat="45.8891722103044" lon="11.688958094654225"><ele>188.0</ele><time>2026-04-12T15:00:29.993Z</time></trkpt><trkpt lat="45.888908672616495" lon="11.68866467606293"><ele>188.0</ele><time>2026-04-12T15:00:30.993Z</time></trkpt><trkpt lat="45.888629246214215" lon="11.688373424499565"><ele>184.0</ele><time>2026-04-12T15:00:31.993Z</time></trkpt><trkpt lat="45.888342146502566" lon="11.688077073720683"><ele>180.0</ele><time>2026-04-12T15:00:32.993Z</time></trkpt><trkpt lat="45.88805831072975" lon="11.687785571830458"><ele>180.0</ele><time>2026-04-12T15:00:33.993Z</time></trkpt><trkpt lat="45.887788099088255" lon="11.687523404874844"><ele>180.0</ele><time>2026-04-12T15:00:34.993Z</time></trkpt><trkpt lat="45.88752938441748" lon="11.687275304315621"><ele>180.0</ele><time>2026-04-12T15:00:35.993Z</time></trkpt><trkpt lat="45.88727704295006" lon="11.687037620192928"><ele>180.0</ele><time>2026-04-12T15:00:36.993Z</time></trkpt><trkpt lat="45.887034832632246" lon="11.68681398827595"><ele>176.5</ele><time>2026-04-12T15:00:37.993Z</time></trkpt><trkpt lat="45.88679176177929" lon="11.686586908928554"><ele>173.0</ele><time>2026-04-12T15:00:38.993Z</time></trkpt><trkpt lat="45.88655306667188" lon="11.686357886861925"><ele>173.0</ele><time>2026-04-12T15:00:39.993Z</time></trkpt><trkpt lat="45.88631220389194" lon="11.686121008581978"><ele>173.0</ele><time>2026-04-12T15:00:40.993Z</time></trkpt><trkpt lat="45.88607920808163" lon="11.685880860955983"><ele>174.0</ele><time>2026-04-12T15:00:41.993Z</time></trkpt><trkpt lat="45.88585054554343" lon="11.68563902277306"><ele>175.0</ele><time>2026-04-12T15:00:42.993Z</time></trkpt><trkpt lat="45.885620391203545" lon="11.685399749760006"><ele>169.0</ele><time>2026-04-12T15:00:43.993Z</time></trkpt><trkpt lat="45.88540252276003" lon="11.685176243361491"><ele>163.0</ele><time>2026-04-12T15:00:44.993Z</time></trkpt><trkpt lat="45.88519908272308" lon="11.684966885636186"><ele>173.5</ele><time>2026-04-12T15:00:45.993Z</time></trkpt><trkpt lat="45.88499625323916" lon="11.684760653631553"><ele>184.0</ele><time>2026-04-12T15:00:46.993Z</time></trkpt><trkpt lat="45.88479303244289" lon="11.684548476242387"><ele>177.0</ele><time>2026-04-12T15:00:47.993Z</time></trkpt><trkpt lat="45.88458509820283" lon="11.684335567264466"><ele>170.0</ele><time>2026-04-12T15:00:48.993Z</time></trkpt><trkpt lat="45.884375252308196" lon="11.684107803143089"><ele>177.5</ele><time>2026-04-12T15:00:49.993Z</time></trkpt><trkpt lat="45.88416134550577" lon="11.683881820229335"><ele>185.0</ele><time>2026-04-12T15:00:50.993Z</time></trkpt><trkpt lat="45.883944741176286" lon="11.683648693411351"><ele>174.0</ele><time>2026-04-12T15:00:51.993Z</time></trkpt><trkpt lat="45.88373216109875" lon="11.68341328666863"><ele>163.0</ele><time>2026-04-12T15:00:52.993Z</time></trkpt><trkpt lat="45.883520885299205" lon="11.68318188425574"><ele>162.0</ele><time>2026-04-12T15:00:53.993Z</time></trkpt><trkpt lat="45.8833104456056" lon="11.682957994987198"><ele>161.0</ele><time>2026-04-12T15:00:54.993Z</time></trkpt><trkpt lat="45.883106780672186" lon="11.68274169395272"><ele>161.0</ele><time>2026-04-12T15:00:55.994Z</time></trkpt><trkpt lat="45.882920282505246" lon="11.682533573936576"><ele>161.0</ele><time>2026-04-12T15:00:56.994Z</time></trkpt><trkpt lat="45.88274302584654" lon="11.68234607690694"><ele>161.33333333333331</ele><time>2026-04-12T15:00:57.994Z</time></trkpt><trkpt lat="45.882573837554276" lon="11.682163998944453"><ele>161.66666666666666</ele><time>2026-04-12T15:00:58.994Z</time></trkpt><trkpt lat="45.88241087655526" lon="11.681978910710185"><ele>162.0</ele><time>2026-04-12T15:00:59.994Z</time></trkpt><trkpt lat="45.88225176811969" lon="11.681799592960536"><ele>162.0</ele><time>2026-04-12T15:01:00.994Z</time></trkpt><trkpt lat="45.882091955644135" lon="11.681623099951583"><ele>162.0</ele><time>2026-04-12T15:01:01.994Z</time></trkpt><trkpt lat="45.88192294737219" lon="11.681460826003702"><ele>162.0</ele><time>2026-04-12T15:01:02.994Z</time></trkpt><trkpt lat="45.88175885801304" lon="11.68130125227535"><ele>161.66666666666666</ele><time>2026-04-12T15:01:03.994Z</time></trkpt><trkpt lat="45.881593291719135" lon="11.681152192806238"><ele>161.33333333333331</ele><time>2026-04-12T15:01:04.994Z</time></trkpt><trkpt lat="45.88142096804628" lon="11.681011090810928"><ele>161.0</ele><time>2026-04-12T15:01:05.994Z</time></trkpt><trkpt lat="45.88124316974598" lon="11.680879002039966"><ele>161.0</ele><time>2026-04-12T15:01:06.994Z</time></trkpt><trkpt lat="45.88106377353759" lon="11.680751275362214"><ele>161.0</ele><time>2026-04-12T15:01:07.994Z</time></trkpt><trkpt lat="45.88088817379241" lon="11.680642891366064"><ele>161.0</ele><time>2026-04-12T15:01:08.994Z</time></trkpt><trkpt lat="45.880726471687424" lon="11.68054133588396"><ele>162.66666666666666</ele><time>2026-04-12T15:01:09.994Z</time></trkpt><trkpt lat="45.880576855618344" lon="11.68045523230751"><ele>164.33333333333334</ele><time>2026-04-12T15:01:10.994Z</time></trkpt><trkpt lat="45.88042986223132" lon="11.680385380091199"><ele>166.0</ele><time>2026-04-12T15:01:11.994Z</time></trkpt><trkpt lat="45.88028743930923" lon="11.680323331886054"><ele>165.25</ele><time>2026-04-12T15:01:12.994Z</time></trkpt><trkpt lat="45.88015368338522" lon="11.680264117266091"><ele>164.5</ele><time>2026-04-12T15:01:13.994Z</time></trkpt><trkpt lat="45.88002659479496" lon="11.680208949962292"><ele>163.75</ele><time>2026-04-12T15:01:14.994Z</time></trkpt><trkpt lat="45.879904497252525" lon="11.68015501882762"><ele>163.0</ele><time>2026-04-12T15:01:15.994Z</time></trkpt><trkpt lat="45.87977862746577" lon="11.68009739914509"><ele>163.0</ele><time>2026-04-12T15:01:16.994Z</time></trkpt><trkpt lat="45.87965412760888" lon="11.680058152560575"><ele>163.0</ele><time>2026-04-12T15:01:17.994Z</time></trkpt><trkpt lat="45.879524983043204" lon="11.680023611678026"><ele>163.0</ele><time>2026-04-12T15:01:18.994Z</time></trkpt><trkpt lat="45.87937955928516" lon="11.679995863301587"><ele>163.0</ele><time>2026-04-12T15:01:19.994Z</time></trkpt><trkpt lat="45.87920676805492" lon="11.679960623449162"><ele>164.25</ele><time>2026-04-12T15:01:20.994Z</time></trkpt><trkpt lat="45.87906171336964" lon="11.679923484329809"><ele>165.5</ele><time>2026-04-12T15:01:21.994Z</time></trkpt><trkpt lat="45.87892149518906" lon="11.679891346205013"><ele>166.75</ele><time>2026-04-12T15:01:22.994Z</time></trkpt><trkpt lat="45.87876878596685" lon="11.67984926435126"><ele>168.0</ele><time>2026-04-12T15:01:23.994Z</time></trkpt><trkpt lat="45.87861759781961" lon="11.679806646525256"><ele>168.0</ele><time>2026-04-12T15:01:24.994Z</time></trkpt><trkpt lat="45.878460927584264" lon="11.679766408914679"><ele>168.0</ele><time>2026-04-12T15:01:25.994Z</time></trkpt><trkpt lat="45.87830973391809" lon="11.679712499368819"><ele>168.0</ele><time>2026-04-12T15:01:26.994Z</time></trkpt><trkpt lat="45.87816631755022" lon="11.679641453353334"><ele>167.0</ele><time>2026-04-12T15:01:27.994Z</time></trkpt><trkpt lat="45.87803321926622" lon="11.679552798197971"><ele>166.0</ele><time>2026-04-12T15:01:28.994Z</time></trkpt><trkpt lat="45.877908283955556" lon="11.679453427112318"><ele>165.0</ele><time>2026-04-12T15:01:29.994Z</time></trkpt><trkpt lat="45.877775872307424" lon="11.679341384925825"><ele>164.0</ele><time>2026-04-12T15:01:30.994Z</time></trkpt><trkpt lat="45.87764113061796" lon="11.679215959284383"><ele>170.0</ele><time>2026-04-12T15:01:31.994Z</time></trkpt><trkpt lat="45.87751409829518" lon="11.679066006852533"><ele>176.0</ele><time>2026-04-12T15:01:32.994Z</time></trkpt><trkpt lat="45.87736408647335" lon="11.678888809809859"><ele>182.0</ele><time>2026-04-12T15:01:33.994Z</time></trkpt><trkpt lat="45.87714059903525" lon="11.678755162460739"><ele>179.0</ele><time>2026-04-12T15:01:34.994Z</time></trkpt><trkpt lat="45.87693615644713" lon="11.678581083296509"><ele>176.0</ele><time>2026-04-12T15:01:35.994Z</time></trkpt><trkpt lat="45.876721729409006" lon="11.678410781534033"><ele>176.0</ele><time>2026-04-12T15:01:36.994Z</time></trkpt><trkpt lat="45.87648856289605" lon="11.678246242874769"><ele>176.0</ele><time>2026-04-12T15:01:37.994Z</time></trkpt><trkpt lat="45.87624590692483" lon="11.678085660639287"><ele>176.0</ele><time>2026-04-12T15:01:38.994Z</time></trkpt><trkpt lat="45.87602623632578" lon="11.677935245595416"><ele>176.0</ele><time>2026-04-12T15:01:39.994Z</time></trkpt><trkpt lat="45.875822515967194" lon="11.677802761097372"><ele>176.0</ele><time>2026-04-12T15:01:40.994Z</time></trkpt><trkpt lat="45.8755962895557" lon="11.677660929871504"><ele>176.0</ele><time>2026-04-12T15:01:41.994Z</time></trkpt><trkpt lat="45.87535702299527" lon="11.677542242559518"><ele>176.0</ele><time>2026-04-12T15:01:42.994Z</time></trkpt><trkpt lat="45.875111242027" lon="11.677431244069643"><ele>176.0</ele><time>2026-04-12T15:01:43.994Z</time></trkpt><trkpt lat="45.87488125126178" lon="11.677311098748662"><ele>202.5</ele><time>2026-04-12T15:01:44.994Z</time></trkpt><trkpt lat="45.87464808170207" lon="11.677153542924367"><ele>229.0</ele><time>2026-04-12T15:01:45.994Z</time></trkpt><trkpt lat="45.87440469727722" lon="11.676976938894581"><ele>208.0</ele><time>2026-04-12T15:01:46.994Z</time></trkpt><trkpt lat="45.87415960502963" lon="11.676802698878344"><ele>187.0</ele><time>2026-04-12T15:01:47.994Z</time></trkpt><trkpt lat="45.873930718315506" lon="11.676621871553873"><ele>187.0</ele><time>2026-04-12T15:01:48.994Z</time></trkpt><trkpt lat="45.87371339932003" lon="11.676455163523462"><ele>187.0</ele><time>2026-04-12T15:01:49.994Z</time></trkpt><trkpt lat="45.873525297450826" lon="11.676288814564009"><ele>178.5</ele><time>2026-04-12T15:01:50.994Z</time></trkpt><trkpt lat="45.873330289708626" lon="11.676123702393644"><ele>170.0</ele><time>2026-04-12T15:01:51.994Z</time></trkpt><trkpt lat="45.87314795757038" lon="11.675927457190932"><ele>170.0</ele><time>2026-04-12T15:01:52.994Z</time></trkpt><trkpt lat="45.87298298081087" lon="11.675705326634345"><ele>170.0</ele><time>2026-04-12T15:01:53.994Z</time></trkpt><trkpt lat="45.872843972175616" lon="11.675462446190714"><ele>170.0</ele><time>2026-04-12T15:01:54.994Z</time></trkpt><trkpt lat="45.87270186993382" lon="11.675192697686525"><ele>168.66666666666666</ele><time>2026-04-12T15:01:55.994Z</time></trkpt><trkpt lat="45.87258809032636" lon="11.674913047806983"><ele>167.33333333333334</ele><time>2026-04-12T15:01:56.994Z</time></trkpt><trkpt lat="45.87250363808435" lon="11.67462714848341"><ele>166.0</ele><time>2026-04-12T15:01:57.994Z</time></trkpt><trkpt lat="45.87243288690156" lon="11.674334408605356"><ele>164.0</ele><time>2026-04-12T15:01:58.994Z</time></trkpt><trkpt lat="45.87236415800582" lon="11.674046196149103"><ele>162.0</ele><time>2026-04-12T15:01:59.994Z</time></trkpt><trkpt lat="45.87229926054664" lon="11.673782684049746"><ele>160.0</ele><time>2026-04-12T15:02:00.994Z</time></trkpt><trkpt lat="45.87221880648697" lon="11.673501770758348"><ele>158.0</ele><time>2026-04-12T15:02:01.994Z</time></trkpt><trkpt lat="45.87211133126363" lon="11.673214742845243"><ele>156.0</ele><time>2026-04-12T15:02:02.994Z</time></trkpt><trkpt lat="45.87197519058415" lon="11.67291958461019"><ele>155.0</ele><time>2026-04-12T15:02:03.994Z</time></trkpt><trkpt lat="45.87181504950032" lon="11.672604902279806"><ele>154.0</ele><time>2026-04-12T15:02:04.994Z</time></trkpt><trkpt lat="45.87162007034565" lon="11.672306232079013"><ele>155.5</ele><time>2026-04-12T15:02:05.994Z</time></trkpt><trkpt lat="45.87139897462592" lon="11.672032870536105"><ele>157.0</ele><time>2026-04-12T15:02:06.994Z</time></trkpt><trkpt lat="45.87118403581996" lon="11.67175246665991"><ele>157.0</ele><time>2026-04-12T15:02:07.994Z</time></trkpt><trkpt lat="45.87096968074622" lon="11.671444375894822"><ele>157.0</ele><time>2026-04-12T15:02:08.994Z</time></trkpt><trkpt lat="45.870754152256694" lon="11.671120762856194"><ele>158.0</ele><time>2026-04-12T15:02:09.994Z</time></trkpt><trkpt lat="45.870502428968834" lon="11.670779811887792"><ele>159.0</ele><time>2026-04-12T15:02:10.994Z</time></trkpt><trkpt lat="45.87023807300744" lon="11.670440567792816"><ele>162.5</ele><time>2026-04-12T15:02:11.994Z</time></trkpt><trkpt lat="45.86996537943895" lon="11.670111310770404"><ele>166.0</ele><time>2026-04-12T15:02:12.994Z</time></trkpt><trkpt lat="45.869713570220846" lon="11.669748147762487"><ele>166.0</ele><time>2026-04-12T15:02:13.994Z</time></trkpt><trkpt lat="45.869663265859266" lon="11.66956628054415"><ele>166.0</ele><time>2026-04-12T15:02:14.994Z</time></trkpt><trkpt lat="45.8694816952875" lon="11.669300511022277"><ele>166.0</ele><time>2026-04-12T15:02:15.994Z</time></trkpt><trkpt lat="45.86930457264705" lon="11.669053346417938"><ele>169.5</ele><time>2026-04-12T15:02:16.994Z</time></trkpt><trkpt lat="45.86913280728309" lon="11.66880892368794"><ele>173.0</ele><time>2026-04-12T15:02:17.994Z</time></trkpt><trkpt lat="45.868953455147974" lon="11.668552294507359"><ele>164.5</ele><time>2026-04-12T15:02:18.994Z</time></trkpt><trkpt lat="45.868775761743734" lon="11.668295079988058"><ele>156.0</ele><time>2026-04-12T15:02:19.994Z</time></trkpt><trkpt lat="45.86860080043971" lon="11.66803953098918"><ele>160.0</ele><time>2026-04-12T15:02:20.994Z</time></trkpt><trkpt lat="45.86842326897719" lon="11.667789792369799"><ele>164.0</ele><time>2026-04-12T15:02:21.994Z</time></trkpt><trkpt lat="45.86824685414178" lon="11.66753972150871"><ele>164.0</ele><time>2026-04-12T15:02:22.994Z</time></trkpt><trkpt lat="45.86806748390634" lon="11.66735592556781"><ele>164.0</ele><time>2026-04-12T15:02:23.994Z</time></trkpt><trkpt lat="45.86788492992942" lon="11.667087591162867"><ele>160.0</ele><time>2026-04-12T15:02:24.994Z</time></trkpt><trkpt lat="45.86769521497446" lon="11.666851036079715"><ele>156.0</ele><time>2026-04-12T15:02:25.994Z</time></trkpt><trkpt lat="45.867499516134494" lon="11.666615475750632"><ele>164.0</ele><time>2026-04-12T15:02:26.994Z</time></trkpt><trkpt lat="45.867303980301095" lon="11.666395455276069"><ele>172.0</ele><time>2026-04-12T15:02:27.994Z</time></trkpt><trkpt lat="45.86711370189202" lon="11.66617674527284"><ele>168.0</ele><time>2026-04-12T15:02:28.994Z</time></trkpt><trkpt lat="45.86692662933657" lon="11.66595662350422"><ele>164.0</ele><time>2026-04-12T15:02:29.994Z</time></trkpt><trkpt lat="45.86674217001634" lon="11.665744398557818"><ele>164.0</ele><time>2026-04-12T15:02:30.994Z</time></trkpt><trkpt lat="45.86655981099804" lon="11.665527796618832"><ele>164.0</ele><time>2026-04-12T15:02:31.994Z</time></trkpt><trkpt lat="45.86637670258611" lon="11.665316301956228"><ele>158.5</ele><time>2026-04-12T15:02:32.994Z</time></trkpt><trkpt lat="45.866197213897976" lon="11.665105498607154"><ele>153.0</ele><time>2026-04-12T15:02:33.994Z</time></trkpt><trkpt lat="45.86603089592111" lon="11.664897821314877"><ele>152.33333333333334</ele><time>2026-04-12T15:02:34.994Z</time></trkpt><trkpt lat="45.86586873071902" lon="11.664676696595713"><ele>151.66666666666669</ele><time>2026-04-12T15:02:35.994Z</time></trkpt><trkpt lat="45.86572583634362" lon="11.664442100845216"><ele>151.0</ele><time>2026-04-12T15:02:36.994Z</time></trkpt><trkpt lat="45.865578833597375" lon="11.664197962216319"><ele>151.0</ele><time>2026-04-12T15:02:37.994Z</time></trkpt><trkpt lat="45.86543638048391" lon="11.663950061081367"><ele>151.0</ele><time>2026-04-12T15:02:38.994Z</time></trkpt><trkpt lat="45.86530540206661" lon="11.663711940306646"><ele>151.0</ele><time>2026-04-12T15:02:39.994Z</time></trkpt><trkpt lat="45.865179014547536" lon="11.663490671051566"><ele>153.0</ele><time>2026-04-12T15:02:40.994Z</time></trkpt><trkpt lat="45.86506318778851" lon="11.663281936548952"><ele>155.0</ele><time>2026-04-12T15:02:41.994Z</time></trkpt><trkpt lat="45.86493842482015" lon="11.663083536080523"><ele>157.0</ele><time>2026-04-12T15:02:42.994Z</time></trkpt><trkpt lat="45.864787077763395" lon="11.662887297771404"><ele>158.0</ele><time>2026-04-12T15:02:43.994Z</time></trkpt><trkpt lat="45.86461518486465" lon="11.662698720017962"><ele>159.0</ele><time>2026-04-12T15:02:44.994Z</time></trkpt><trkpt lat="45.864429464758395" lon="11.662515203323428"><ele>160.0</ele><time>2026-04-12T15:02:45.994Z</time></trkpt><trkpt lat="45.86423087726117" lon="11.662328720044831"><ele>160.0</ele><time>2026-04-12T15:02:46.994Z</time></trkpt><trkpt lat="45.86402910322024" lon="11.662147776011984"><ele>160.0</ele><time>2026-04-12T15:02:47.994Z</time></trkpt><trkpt lat="45.86382875893666" lon="11.661992696520889"><ele>158.66666666666669</ele><time>2026-04-12T15:02:48.994Z</time></trkpt><trkpt lat="45.86363232030856" lon="11.661853365915947"><ele>157.33333333333334</ele><time>2026-04-12T15:02:49.994Z</time></trkpt><trkpt lat="45.86344606999253" lon="11.661736977514582"><ele>156.0</ele><time>2026-04-12T15:02:50.994Z</time></trkpt><trkpt lat="45.86326569242535" lon="11.66163616552299"><ele>156.0</ele><time>2026-04-12T15:02:51.994Z</time></trkpt><trkpt lat="45.86308909284218" lon="11.661536471504437"><ele>156.0</ele><time>2026-04-12T15:02:52.994Z</time></trkpt><trkpt lat="45.862910253798084" lon="11.661435008092074"><ele>156.0</ele><time>2026-04-12T15:02:53.994Z</time></trkpt><trkpt lat="45.86273569495704" lon="11.661334888354773"><ele>156.33333333333334</ele><time>2026-04-12T15:02:54.994Z</time></trkpt><trkpt lat="45.86256017529336" lon="11.661252442283548"><ele>156.66666666666669</ele><time>2026-04-12T15:02:55.994Z</time></trkpt><trkpt lat="45.862384521861394" lon="11.66118324446549"><ele>157.0</ele><time>2026-04-12T15:02:56.994Z</time></trkpt><trkpt lat="45.86220249805046" lon="11.661131389435454"><ele>157.0</ele><time>2026-04-12T15:02:57.994Z</time></trkpt><trkpt lat="45.862026628040695" lon="11.66107474277611"><ele>157.0</ele><time>2026-04-12T15:02:58.994Z</time></trkpt><trkpt lat="45.861842095879574" lon="11.661018171596725"><ele>157.0</ele><time>2026-04-12T15:02:59.994Z</time></trkpt><trkpt lat="45.861665721382046" lon="11.660948708771754"><ele>157.0</ele><time>2026-04-12T15:03:00.994Z</time></trkpt><trkpt lat="45.861480342947445" lon="11.660879976567621"><ele>157.0</ele><time>2026-04-12T15:03:01.995Z</time></trkpt><trkpt lat="45.861302379749844" lon="11.660828132902097"><ele>157.0</ele><time>2026-04-12T15:03:02.995Z</time></trkpt><trkpt lat="45.86113268273888" lon="11.660786188561865"><ele>157.0</ele><time>2026-04-12T15:03:03.995Z</time></trkpt><trkpt lat="45.86096614695223" lon="11.660752875158762"><ele>157.0</ele><time>2026-04-12T15:03:04.995Z</time></trkpt><trkpt lat="45.860806862927724" lon="11.660724986755646"><ele>157.0</ele><time>2026-04-12T15:03:05.995Z</time></trkpt><trkpt lat="45.86064524300258" lon="11.660707073231952"><ele>157.0</ele><time>2026-04-12T15:03:06.995Z</time></trkpt><trkpt lat="45.86050375067116" lon="11.660695960435591"><ele>157.0</ele><time>2026-04-12T15:03:07.995Z</time></trkpt><trkpt lat="45.86036664612184" lon="11.66069066283216"><ele>157.0</ele><time>2026-04-12T15:03:08.995Z</time></trkpt><trkpt lat="45.86021766255794" lon="11.660686968539"><ele>157.0</ele><time>2026-04-12T15:03:09.995Z</time></trkpt><trkpt lat="45.86008400574654" lon="11.660698110631586"><ele>156.6</ele><time>2026-04-12T15:03:10.995Z</time></trkpt><trkpt lat="45.85997888870197" lon="11.660704367978068"><ele>156.2</ele><time>2026-04-12T15:03:11.995Z</time></trkpt><trkpt lat="45.85986467134116" lon="11.660718797675964"><ele>155.8</ele><time>2026-04-12T15:03:12.995Z</time></trkpt><trkpt lat="45.859782353890985" lon="11.660697768387728"><ele>155.4</ele><time>2026-04-12T15:03:13.995Z</time></trkpt><trkpt lat="45.85968298337273" lon="11.660647678536396"><ele>155.0</ele><time>2026-04-12T15:03:14.995Z</time></trkpt><trkpt lat="45.85956620454269" lon="11.66070296662195"><ele>155.0</ele><time>2026-04-12T15:03:15.995Z</time></trkpt><trkpt lat="45.85948715517949" lon="11.660713498404531"><ele>155.0</ele><time>2026-04-12T15:03:16.995Z</time></trkpt><trkpt lat="45.859420115796546" lon="11.660719061863265"><ele>155.0</ele><time>2026-04-12T15:03:17.995Z</time></trkpt><trkpt lat="45.85932429346245" lon="11.660730311451713"><ele>155.0</ele><time>2026-04-12T15:03:19.995Z</time></trkpt><trkpt lat="45.859259542118735" lon="11.660738478915917"><ele>155.0</ele><time>2026-04-12T15:03:21.995Z</time></trkpt><trkpt lat="45.85918755525664" lon="11.660741532957548"><ele>155.0</ele><time>2026-04-12T15:03:23.995Z</time></trkpt><trkpt lat="45.85912527897295" lon="11.660775841706615"><ele>155.0</ele><time>2026-04-12T15:03:25.995Z</time></trkpt><trkpt lat="45.85902475234813" lon="11.660770557954208"><ele>155.0</ele><time>2026-04-12T15:03:43.995Z</time></trkpt><trkpt lat="45.858937833374014" lon="11.660778313602906"><ele>155.0</ele><time>2026-04-12T15:03:45.995Z</time></trkpt><trkpt lat="45.858829155209165" lon="11.660805994743523"><ele>155.0</ele><time>2026-04-12T15:03:47.995Z</time></trkpt><trkpt lat="45.8586946092664" lon="11.660845980356259"><ele>155.0</ele><time>2026-04-12T15:03:49.995Z</time></trkpt><trkpt lat="45.85863774094464" lon="11.660891392706446"><ele>155.0</ele><time>2026-04-12T15:03:50.995Z</time></trkpt><trkpt lat="45.858577492721714" lon="11.660919934556524"><ele>155.0</ele><time>2026-04-12T15:03:51.995Z</time></trkpt><trkpt lat="45.85846964298163" lon="11.660969426904048"><ele>155.0</ele><time>2026-04-12T15:03:53.995Z</time></trkpt><trkpt lat="45.85841101959974" lon="11.661029829032152"><ele>155.0</ele><time>2026-04-12T15:03:54.995Z</time></trkpt><trkpt lat="45.858349301586905" lon="11.6610662362815"><ele>155.0</ele><time>2026-04-12T15:03:55.995Z</time></trkpt><trkpt lat="45.85827959942586" lon="11.661116959241994"><ele>155.0</ele><time>2026-04-12T15:03:56.995Z</time></trkpt><trkpt lat="45.858204900163294" lon="11.661173630129001"><ele>155.0</ele><time>2026-04-12T15:03:57.995Z</time></trkpt><trkpt lat="45.85811313337437" lon="11.661240077871842"><ele>155.4</ele><time>2026-04-12T15:03:58.995Z</time></trkpt><trkpt lat="45.858045900608026" lon="11.661298558872842"><ele>155.8</ele><time>2026-04-12T15:03:59.995Z</time></trkpt><trkpt lat="45.857953116462795" lon="11.661360923803976"><ele>156.2</ele><time>2026-04-12T15:04:00.995Z</time></trkpt><trkpt lat="45.857865163414836" lon="11.661438863097679"><ele>156.6</ele><time>2026-04-12T15:04:01.995Z</time></trkpt><trkpt lat="45.857780955707184" lon="11.661530294569328"><ele>157.0</ele><time>2026-04-12T15:04:02.995Z</time></trkpt><trkpt lat="45.857685515016655" lon="11.661612114014817"><ele>156.75</ele><time>2026-04-12T15:04:03.995Z</time></trkpt><trkpt lat="45.857595068804834" lon="11.661677142309635"><ele>156.5</ele><time>2026-04-12T15:04:04.995Z</time></trkpt><trkpt lat="45.857502242394666" lon="11.661758560347467"><ele>156.25</ele><time>2026-04-12T15:04:05.995Z</time></trkpt><trkpt lat="45.85740789409936" lon="11.661862674421165"><ele>156.0</ele><time>2026-04-12T15:04:06.995Z</time></trkpt><trkpt lat="45.857306972602146" lon="11.661968269750393"><ele>158.0</ele><time>2026-04-12T15:04:07.995Z</time></trkpt><trkpt lat="45.857203933972784" lon="11.662101541186328"><ele>160.0</ele><time>2026-04-12T15:04:08.995Z</time></trkpt><trkpt lat="45.85711448203436" lon="11.662250117111276"><ele>162.0</ele><time>2026-04-12T15:04:09.995Z</time></trkpt><trkpt lat="45.857028820162" lon="11.66238237440646"><ele>164.0</ele><time>2026-04-12T15:04:10.995Z</time></trkpt><trkpt lat="45.856932811325684" lon="11.662509953409646"><ele>164.0</ele><time>2026-04-12T15:04:11.995Z</time></trkpt><trkpt lat="45.85684072759062" lon="11.662643975240359"><ele>164.0</ele><time>2026-04-12T15:04:12.995Z</time></trkpt><trkpt lat="45.85675149920024" lon="11.662784920210845"><ele>164.0</ele><time>2026-04-12T15:04:13.995Z</time></trkpt><trkpt lat="45.85665941937814" lon="11.662927108252395"><ele>164.0</ele><time>2026-04-12T15:04:14.995Z</time></trkpt><trkpt lat="45.85655910740218" lon="11.663060638782765"><ele>163.25</ele><time>2026-04-12T15:04:15.995Z</time></trkpt><trkpt lat="45.856467888650634" lon="11.663204896604588"><ele>162.5</ele><time>2026-04-12T15:04:16.995Z</time></trkpt><trkpt lat="45.85636370722796" lon="11.663352416237943"><ele>161.75</ele><time>2026-04-12T15:04:17.995Z</time></trkpt><trkpt lat="45.85625998767264" lon="11.66350813319448"><ele>161.0</ele><time>2026-04-12T15:04:18.995Z</time></trkpt><trkpt lat="45.856156270529794" lon="11.663659957395609"><ele>158.66666666666666</ele><time>2026-04-12T15:04:19.995Z</time></trkpt><trkpt lat="45.856042704217764" lon="11.663787177156147"><ele>156.33333333333334</ele><time>2026-04-12T15:04:20.995Z</time></trkpt><trkpt lat="45.855908224618176" lon="11.663927078090877"><ele>154.0</ele><time>2026-04-12T15:04:21.995Z</time></trkpt><trkpt lat="45.85576459965481" lon="11.664047066000851"><ele>154.0</ele><time>2026-04-12T15:04:22.995Z</time></trkpt><trkpt lat="45.855588957975506" lon="11.664174165952124"><ele>154.0</ele><time>2026-04-12T15:04:23.995Z</time></trkpt><trkpt lat="45.85541808727204" lon="11.664293842573281"><ele>154.0</ele><time>2026-04-12T15:04:24.995Z</time></trkpt><trkpt lat="45.85526981731288" lon="11.664397442792726"><ele>156.33333333333334</ele><time>2026-04-12T15:04:25.995Z</time></trkpt><trkpt lat="45.855123670933395" lon="11.66449955921684"><ele>158.66666666666666</ele><time>2026-04-12T15:04:26.995Z</time></trkpt><trkpt lat="45.85498849749418" lon="11.664619139936955"><ele>161.0</ele><time>2026-04-12T15:04:27.995Z</time></trkpt><trkpt lat="45.85485138485788" lon="11.664712585621896"><ele>161.0</ele><time>2026-04-12T15:04:28.995Z</time></trkpt><trkpt lat="45.854703719067054" lon="11.664792316504592"><ele>161.0</ele><time>2026-04-12T15:04:29.995Z</time></trkpt><trkpt lat="45.85456606761239" lon="11.664895790007709"><ele>161.0</ele><time>2026-04-12T15:04:30.995Z</time></trkpt><trkpt lat="45.85444291453396" lon="11.665006923253157"><ele>161.0</ele><time>2026-04-12T15:04:31.995Z</time></trkpt><trkpt lat="45.854322771124885" lon="11.665120884183331"><ele>161.0</ele><time>2026-04-12T15:04:32.995Z</time></trkpt><trkpt lat="45.854190251609275" lon="11.665235690523614"><ele>161.0</ele><time>2026-04-12T15:04:33.995Z</time></trkpt><trkpt lat="45.85406776439791" lon="11.665349425956046"><ele>161.0</ele><time>2026-04-12T15:04:34.995Z</time></trkpt><trkpt lat="45.85395174386573" lon="11.66544956306425"><ele>158.8</ele><time>2026-04-12T15:04:35.995Z</time></trkpt><trkpt lat="45.85385112538093" lon="11.665544161592457"><ele>156.60000000000002</ele><time>2026-04-12T15:04:36.995Z</time></trkpt><trkpt lat="45.85376275449175" lon="11.665644010023449"><ele>154.4</ele><time>2026-04-12T15:04:37.995Z</time></trkpt><trkpt lat="45.85369418219831" lon="11.6657139770613"><ele>152.2</ele><time>2026-04-12T15:04:38.995Z</time></trkpt><trkpt lat="45.853635160868265" lon="11.665775523519928"><ele>150.0</ele><time>2026-04-12T15:04:39.995Z</time></trkpt><trkpt lat="45.85356102357128" lon="11.66585086765284"><ele>150.0</ele><time>2026-04-12T15:04:41.995Z</time></trkpt><trkpt lat="45.85351808900896" lon="11.665952833403189"><ele>150.0</ele><time>2026-04-12T15:09:41.998Z</time></trkpt><trkpt lat="45.853458249362646" lon="11.666083895175674"><ele>150.0</ele><time>2026-04-12T15:09:42.998Z</time></trkpt><trkpt lat="45.85337478019185" lon="11.666237440023728"><ele>150.0</ele><time>2026-04-12T15:09:43.998Z</time></trkpt><trkpt lat="45.85327479447519" lon="11.666362559760904"><ele>149.25</ele><time>2026-04-12T15:09:44.998Z</time></trkpt><trkpt lat="45.85320584399697" lon="11.66649039081999"><ele>148.5</ele><time>2026-04-12T15:09:45.998Z</time></trkpt><trkpt lat="45.85310861713674" lon="11.666631746392929"><ele>147.75</ele><time>2026-04-12T15:09:46.998Z</time></trkpt><trkpt lat="45.85298994782837" lon="11.666791368390147"><ele>147.0</ele><time>2026-04-12T15:09:47.998Z</time></trkpt><trkpt lat="45.85284864951536" lon="11.667000836263112"><ele>147.0</ele><time>2026-04-12T15:09:48.998Z</time></trkpt><trkpt lat="45.852712960141766" lon="11.667191770427076"><ele>147.0</ele><time>2026-04-12T15:09:49.998Z</time></trkpt><trkpt lat="45.85256923287457" lon="11.66736991458492"><ele>147.0</ele><time>2026-04-12T15:09:50.998Z</time></trkpt><trkpt lat="45.85239778990513" lon="11.667532366891628"><ele>147.0</ele><time>2026-04-12T15:09:51.998Z</time></trkpt><trkpt lat="45.85222222047952" lon="11.667722100945298"><ele>147.0</ele><time>2026-04-12T15:09:52.998Z</time></trkpt><trkpt lat="45.852051445952995" lon="11.66790372069114"><ele>147.0</ele><time>2026-04-12T15:09:53.998Z</time></trkpt><trkpt lat="45.85188908332582" lon="11.66805660320027"><ele>148.0</ele><time>2026-04-12T15:09:54.998Z</time></trkpt><trkpt lat="45.85169142544382" lon="11.668226346364259"><ele>149.0</ele><time>2026-04-12T15:09:55.998Z</time></trkpt><trkpt lat="45.85146530552093" lon="11.66836569261397"><ele>149.0</ele><time>2026-04-12T15:09:56.998Z</time></trkpt><trkpt lat="45.85122199689547" lon="11.668513364422736"><ele>149.0</ele><time>2026-04-12T15:09:57.998Z</time></trkpt><trkpt lat="45.850962440609685" lon="11.668680906281631"><ele>153.0</ele><time>2026-04-12T15:09:58.998Z</time></trkpt><trkpt lat="45.85072425384834" lon="11.668831705416446"><ele>157.0</ele><time>2026-04-12T15:09:59.998Z</time></trkpt><trkpt lat="45.85052625577077" lon="11.668956835495658"><ele>157.0</ele><time>2026-04-12T15:10:00.998Z</time></trkpt><trkpt lat="45.850300533576345" lon="11.669104231845138"><ele>157.0</ele><time>2026-04-12T15:10:01.998Z</time></trkpt><trkpt lat="45.850173141418885" lon="11.669203979375123"><ele>157.0</ele><time>2026-04-12T15:10:02.998Z</time></trkpt><trkpt lat="45.84998870226413" lon="11.669327913791113"><ele>160.66666666666669</ele><time>2026-04-12T15:10:03.998Z</time></trkpt><trkpt lat="45.84980821765067" lon="11.669459913840113"><ele>164.33333333333334</ele><time>2026-04-12T15:10:04.998Z</time></trkpt><trkpt lat="45.849622341574836" lon="11.669585843813662"><ele>168.0</ele><time>2026-04-12T15:10:05.998Z</time></trkpt><trkpt lat="45.84944601006164" lon="11.66970342642454"><ele>161.66666666666666</ele><time>2026-04-12T15:10:06.998Z</time></trkpt><trkpt lat="45.849276594681896" lon="11.66981524823936"><ele>155.33333333333331</ele><time>2026-04-12T15:10:07.998Z</time></trkpt><trkpt lat="45.84911238311423" lon="11.669934084381755"><ele>149.0</ele><time>2026-04-12T15:10:08.998Z</time></trkpt><trkpt lat="45.848936755012325" lon="11.670072688265252"><ele>149.0</ele><time>2026-04-12T15:10:09.998Z</time></trkpt><trkpt lat="45.848750882366055" lon="11.670235436364099"><ele>149.0</ele><time>2026-04-12T15:10:10.998Z</time></trkpt><trkpt lat="45.84855302391545" lon="11.670420498225461"><ele>149.0</ele><time>2026-04-12T15:10:11.998Z</time></trkpt><trkpt lat="45.84835780465817" lon="11.670632567022826"><ele>149.0</ele><time>2026-04-12T15:10:12.998Z</time></trkpt><trkpt lat="45.84817950754502" lon="11.670830549380943"><ele>149.0</ele><time>2026-04-12T15:10:13.998Z</time></trkpt><trkpt lat="45.84801591313583" lon="11.671014772889723"><ele>149.0</ele><time>2026-04-12T15:10:14.998Z</time></trkpt><trkpt lat="45.847859285807324" lon="11.67118438704378"><ele>149.0</ele><time>2026-04-12T15:10:15.998Z</time></trkpt><trkpt lat="45.8477120913674" lon="11.67134062470911"><ele>148.33333333333331</ele><time>2026-04-12T15:10:16.998Z</time></trkpt><trkpt lat="45.84756503902595" lon="11.671481939499655"><ele>147.66666666666666</ele><time>2026-04-12T15:10:17.998Z</time></trkpt><trkpt lat="45.84741478635184" lon="11.671617299873624"><ele>147.0</ele><time>2026-04-12T15:10:18.998Z</time></trkpt><trkpt lat="45.847257906157076" lon="11.671762616959654"><ele>147.0</ele><time>2026-04-12T15:10:19.998Z</time></trkpt><trkpt lat="45.84710965897102" lon="11.671891856595106"><ele>147.0</ele><time>2026-04-12T15:10:20.998Z</time></trkpt><trkpt lat="45.84695401914843" lon="11.67202349697706"><ele>147.0</ele><time>2026-04-12T15:10:21.998Z</time></trkpt><trkpt lat="45.84680023069238" lon="11.672183471388253"><ele>148.66666666666666</ele><time>2026-04-12T15:10:22.998Z</time></trkpt><trkpt lat="45.84665882952412" lon="11.672372862713344"><ele>150.33333333333331</ele><time>2026-04-12T15:10:23.998Z</time></trkpt><trkpt lat="45.8465389790864" lon="11.672591926616926"><ele>152.0</ele><time>2026-04-12T15:10:24.998Z</time></trkpt><trkpt lat="45.846447156918366" lon="11.672779675205081"><ele>152.0</ele><time>2026-04-12T15:10:25.998Z</time></trkpt><trkpt lat="45.84636122772503" lon="11.672965691914372"><ele>152.0</ele><time>2026-04-12T15:10:26.998Z</time></trkpt><trkpt lat="45.84630804369568" lon="11.673191631487157"><ele>152.0</ele><time>2026-04-12T15:10:27.998Z</time></trkpt><trkpt lat="45.84626000927104" lon="11.673424013699602"><ele>153.0</ele><time>2026-04-12T15:10:28.998Z</time></trkpt><trkpt lat="45.84620568090841" lon="11.673637694237232"><ele>154.0</ele><time>2026-04-12T15:10:29.998Z</time></trkpt><trkpt lat="45.84612619471906" lon="11.6738158268238"><ele>155.0</ele><time>2026-04-12T15:10:30.998Z</time></trkpt><trkpt lat="45.846008841756365" lon="11.673951051665599"><ele>153.66666666666666</ele><time>2026-04-12T15:10:31.998Z</time></trkpt><trkpt lat="45.84588706149835" lon="11.674113893546187"><ele>152.33333333333334</ele><time>2026-04-12T15:10:32.998Z</time></trkpt><trkpt lat="45.84573728660245" lon="11.67426714523544"><ele>151.0</ele><time>2026-04-12T15:10:33.998Z</time></trkpt><trkpt lat="45.84558177054332" lon="11.674441382398227"><ele>151.0</ele><time>2026-04-12T15:10:34.998Z</time></trkpt><trkpt lat="45.845417365391256" lon="11.674627774153318"><ele>151.0</ele><time>2026-04-12T15:10:35.998Z</time></trkpt><trkpt lat="45.84524833836395" lon="11.674826786273092"><ele>151.0</ele><time>2026-04-12T15:10:36.998Z</time></trkpt><trkpt lat="45.845328925079606" lon="11.675448141276"><ele>151.0</ele><time>2026-04-12T15:10:37.998Z</time></trkpt><trkpt lat="45.84516631681542" lon="11.675576089256221"><ele>151.0</ele><time>2026-04-12T15:10:38.998Z</time></trkpt><trkpt lat="45.84502550125054" lon="11.675737212190363"><ele>151.0</ele><time>2026-04-12T15:10:39.998Z</time></trkpt><trkpt lat="45.844875584390806" lon="11.67588006960634"><ele>151.0</ele><time>2026-04-12T15:10:40.998Z</time></trkpt><trkpt lat="45.84457796408727" lon="11.675775421842905"><ele>151.0</ele><time>2026-04-12T15:10:41.998Z</time></trkpt><trkpt lat="45.84447761271022" lon="11.676017752123652"><ele>151.66666666666669</ele><time>2026-04-12T15:10:42.998Z</time></trkpt><trkpt lat="45.84438513973074" lon="11.676275519565612"><ele>152.33333333333334</ele><time>2026-04-12T15:10:43.998Z</time></trkpt><trkpt lat="45.844288314865906" lon="11.676532153991221"><ele>153.0</ele><time>2026-04-12T15:10:44.998Z</time></trkpt><trkpt lat="45.84419959219664" lon="11.676760708601421"><ele>150.0</ele><time>2026-04-12T15:10:45.998Z</time></trkpt><trkpt lat="45.84409896160793" lon="11.676985744214589"><ele>147.0</ele><time>2026-04-12T15:10:46.998Z</time></trkpt><trkpt lat="45.84400082124149" lon="11.677193988640681"><ele>144.0</ele><time>2026-04-12T15:10:47.998Z</time></trkpt><trkpt lat="45.84390202680566" lon="11.677412054889858"><ele>144.0</ele><time>2026-04-12T15:10:48.998Z</time></trkpt><trkpt lat="45.84380872185781" lon="11.677623096144597"><ele>144.0</ele><time>2026-04-12T15:10:49.998Z</time></trkpt><trkpt lat="45.84371444882167" lon="11.677822052820947"><ele>144.0</ele><time>2026-04-12T15:10:50.998Z</time></trkpt><trkpt lat="45.84362177672692" lon="11.678015332150567"><ele>144.0</ele><time>2026-04-12T15:10:51.998Z</time></trkpt><trkpt lat="45.84353398514255" lon="11.678205273520676"><ele>144.0</ele><time>2026-04-12T15:10:52.998Z</time></trkpt><trkpt lat="45.84345208434939" lon="11.678374952409053"><ele>144.0</ele><time>2026-04-12T15:10:53.998Z</time></trkpt><trkpt lat="45.84337356998699" lon="11.678548994905839"><ele>144.0</ele><time>2026-04-12T15:10:54.998Z</time></trkpt><trkpt lat="45.84328563705273" lon="11.678748377862703"><ele>144.0</ele><time>2026-04-12T15:10:55.998Z</time></trkpt><trkpt lat="45.8431913794842" lon="11.678959129940345"><ele>144.0</ele><time>2026-04-12T15:10:56.998Z</time></trkpt><trkpt lat="45.84309317590072" lon="11.679160517465352"><ele>144.0</ele><time>2026-04-12T15:10:57.998Z</time></trkpt><trkpt lat="45.84300032982505" lon="11.679359293493311"><ele>144.33333333333334</ele><time>2026-04-12T15:10:58.998Z</time></trkpt><trkpt lat="45.842917091035716" lon="11.679545918476313"><ele>144.66666666666669</ele><time>2026-04-12T15:10:59.998Z</time></trkpt><trkpt lat="45.84283816884157" lon="11.679729598877651"><ele>145.0</ele><time>2026-04-12T15:11:00.998Z</time></trkpt><trkpt lat="45.842755572329374" lon="11.679933683699211"><ele>145.0</ele><time>2026-04-12T15:11:01.998Z</time></trkpt><trkpt lat="45.84267451257088" lon="11.68018231595458"><ele>145.0</ele><time>2026-04-12T15:11:02.998Z</time></trkpt><trkpt lat="45.842586678223604" lon="11.680358271394693"><ele>145.0</ele><time>2026-04-12T15:11:03.998Z</time></trkpt><trkpt lat="45.842507496520646" lon="11.680583698765814"><ele>145.66666666666669</ele><time>2026-04-12T15:11:04.998Z</time></trkpt><trkpt lat="45.84243396063481" lon="11.680812267929117"><ele>146.33333333333334</ele><time>2026-04-12T15:11:05.998Z</time></trkpt><trkpt lat="45.84236256604271" lon="11.681042641178735"><ele>147.0</ele><time>2026-04-12T15:11:06.998Z</time></trkpt><trkpt lat="45.84229153320756" lon="11.681281706929948"><ele>147.0</ele><time>2026-04-12T15:11:07.998Z</time></trkpt><trkpt lat="45.8422241901339" lon="11.681516233642954"><ele>147.0</ele><time>2026-04-12T15:11:08.998Z</time></trkpt><trkpt lat="45.842161535671444" lon="11.68176376738569"><ele>147.0</ele><time>2026-04-12T15:11:09.998Z</time></trkpt><trkpt lat="45.84210429235561" lon="11.681991278725441"><ele>148.66666666666666</ele><time>2026-04-12T15:11:10.998Z</time></trkpt><trkpt lat="45.84204747705514" lon="11.682204398839906"><ele>150.33333333333331</ele><time>2026-04-12T15:11:11.998Z</time></trkpt><trkpt lat="45.841990824193054" lon="11.682409464730403"><ele>152.0</ele><time>2026-04-12T15:11:12.998Z</time></trkpt><trkpt lat="45.84193407607882" lon="11.682636420117154"><ele>153.66666666666666</ele><time>2026-04-12T15:11:13.998Z</time></trkpt><trkpt lat="45.84187400581048" lon="11.682851327837678"><ele>155.33333333333334</ele><time>2026-04-12T15:11:14.998Z</time></trkpt><trkpt lat="45.84180680064232" lon="11.683061953008997"><ele>157.0</ele><time>2026-04-12T15:11:15.998Z</time></trkpt><trkpt lat="45.8417455884282" lon="11.683280774434824"><ele>153.66666666666669</ele><time>2026-04-12T15:11:16.998Z</time></trkpt><trkpt lat="45.84169027700533" lon="11.683495264317123"><ele>150.33333333333334</ele><time>2026-04-12T15:11:17.998Z</time></trkpt><trkpt lat="45.84163301885216" lon="11.683715121793691"><ele>147.0</ele><time>2026-04-12T15:11:18.998Z</time></trkpt><trkpt lat="45.84157826851265" lon="11.683919901049514"><ele>147.0</ele><time>2026-04-12T15:11:19.998Z</time></trkpt><trkpt lat="45.84152345814316" lon="11.684115613509732"><ele>147.0</ele><time>2026-04-12T15:11:20.998Z</time></trkpt><trkpt lat="45.841467557075475" lon="11.684297457928848"><ele>147.0</ele><time>2026-04-12T15:11:21.998Z</time></trkpt><trkpt lat="45.84140515631421" lon="11.684489660802306"><ele>147.0</ele><time>2026-04-12T15:11:22.998Z</time></trkpt><trkpt lat="45.84133643836341" lon="11.684692147602808"><ele>147.33333333333334</ele><time>2026-04-12T15:11:23.998Z</time></trkpt><trkpt lat="45.84126190695835" lon="11.684894087580329"><ele>147.66666666666669</ele><time>2026-04-12T15:11:24.998Z</time></trkpt><trkpt lat="45.841178615984504" lon="11.6850981791688"><ele>148.0</ele><time>2026-04-12T15:11:25.999Z</time></trkpt><trkpt lat="45.84109226642894" lon="11.685295430004198"><ele>149.0</ele><time>2026-04-12T15:11:26.999Z</time></trkpt><trkpt lat="45.841009094696034" lon="11.685485458272694"><ele>150.0</ele><time>2026-04-12T15:11:27.999Z</time></trkpt><trkpt lat="45.84091867783611" lon="11.685669026682127"><ele>151.0</ele><time>2026-04-12T15:11:28.999Z</time></trkpt><trkpt lat="45.840819961033496" lon="11.685871774628799"><ele>149.33333333333334</ele><time>2026-04-12T15:11:29.999Z</time></trkpt><trkpt lat="45.8407115772045" lon="11.686112330287004"><ele>147.66666666666666</ele><time>2026-04-12T15:11:30.999Z</time></trkpt><trkpt lat="45.840588309537566" lon="11.686373033893824"><ele>146.0</ele><time>2026-04-12T15:11:31.999Z</time></trkpt><trkpt lat="45.84042086786366" lon="11.686617328603464"><ele>146.0</ele><time>2026-04-12T15:11:32.999Z</time></trkpt><trkpt lat="45.84027096999719" lon="11.686901440917739"><ele>146.0</ele><time>2026-04-12T15:11:33.999Z</time></trkpt><trkpt lat="45.84014122144574" lon="11.687188203944432"><ele>146.33333333333331</ele><time>2026-04-12T15:11:34.999Z</time></trkpt><trkpt lat="45.840005081798246" lon="11.687436474428145"><ele>146.66666666666666</ele><time>2026-04-12T15:11:35.999Z</time></trkpt><trkpt lat="45.83988441762729" lon="11.687657118082575"><ele>147.0</ele><time>2026-04-12T15:11:36.999Z</time></trkpt><trkpt lat="45.839767545691636" lon="11.68787525999347"><ele>148.0</ele><time>2026-04-12T15:11:37.999Z</time></trkpt><trkpt lat="45.83965034200564" lon="11.688103078291123"><ele>149.0</ele><time>2026-04-12T15:11:38.999Z</time></trkpt><trkpt lat="45.83953090018229" lon="11.68833583044528"><ele>150.0</ele><time>2026-04-12T15:11:39.999Z</time></trkpt><trkpt lat="45.83941278080222" lon="11.688560263077699"><ele>149.33333333333334</ele><time>2026-04-12T15:11:40.999Z</time></trkpt><trkpt lat="45.839295956457256" lon="11.688786897486484"><ele>148.66666666666669</ele><time>2026-04-12T15:11:41.999Z</time></trkpt><trkpt lat="45.83918333144623" lon="11.68899652922936"><ele>148.0</ele><time>2026-04-12T15:11:42.999Z</time></trkpt><trkpt lat="45.83907353728245" lon="11.68920119515175"><ele>148.0</ele><time>2026-04-12T15:11:43.999Z</time></trkpt><trkpt lat="45.838970249099" lon="11.689402214272702"><ele>148.0</ele><time>2026-04-12T15:11:44.999Z</time></trkpt><trkpt lat="45.838865089804415" lon="11.689602748992945"><ele>148.0</ele><time>2026-04-12T15:11:45.999Z</time></trkpt><trkpt lat="45.83875783810303" lon="11.689802916445563"><ele>147.33333333333334</ele><time>2026-04-12T15:11:46.999Z</time></trkpt><trkpt lat="45.83864612031684" lon="11.690015148005207"><ele>146.66666666666666</ele><time>2026-04-12T15:11:47.999Z</time></trkpt><trkpt lat="45.83852577284201" lon="11.690253934337292"><ele>146.0</ele><time>2026-04-12T15:11:48.999Z</time></trkpt><trkpt lat="45.83840261197597" lon="11.690498480800663"><ele>144.66666666666666</ele><time>2026-04-12T15:11:49.999Z</time></trkpt><trkpt lat="45.83827781616497" lon="11.690742240904125"><ele>143.33333333333334</ele><time>2026-04-12T15:11:50.999Z</time></trkpt><trkpt lat="45.83815893130466" lon="11.690965063566745"><ele>142.0</ele><time>2026-04-12T15:11:51.999Z</time></trkpt><trkpt lat="45.83802848213227" lon="11.691201275422607"><ele>142.0</ele><time>2026-04-12T15:11:52.999Z</time></trkpt><trkpt lat="45.83788659981072" lon="11.691451263285497"><ele>142.0</ele><time>2026-04-12T15:11:53.999Z</time></trkpt><trkpt lat="45.83773949446085" lon="11.69167168626"><ele>142.0</ele><time>2026-04-12T15:11:54.999Z</time></trkpt><trkpt lat="45.83758350573517" lon="11.691884461070021"><ele>142.33333333333334</ele><time>2026-04-12T15:11:55.999Z</time></trkpt><trkpt lat="45.83742209862142" lon="11.692095543397548"><ele>142.66666666666666</ele><time>2026-04-12T15:11:56.999Z</time></trkpt><trkpt lat="45.83725620800191" lon="11.69230220211019"><ele>143.0</ele><time>2026-04-12T15:11:57.999Z</time></trkpt><trkpt lat="45.83709976264433" lon="11.692488314151182"><ele>143.0</ele><time>2026-04-12T15:11:58.999Z</time></trkpt><trkpt lat="45.836942414931954" lon="11.692684248762003"><ele>143.0</ele><time>2026-04-12T15:11:59.999Z</time></trkpt><trkpt lat="45.83678651668972" lon="11.692878737572432"><ele>143.0</ele><time>2026-04-12T15:12:00.999Z</time></trkpt><trkpt lat="45.8366341322419" lon="11.693071522324528"><ele>142.33333333333331</ele><time>2026-04-12T15:12:01.999Z</time></trkpt><trkpt lat="45.83647674265976" lon="11.693265948149149"><ele>141.66666666666666</ele><time>2026-04-12T15:12:02.999Z</time></trkpt><trkpt lat="45.836324537667565" lon="11.693450344424848"><ele>141.0</ele><time>2026-04-12T15:12:03.999Z</time></trkpt><trkpt lat="45.836171491026896" lon="11.693638187215441"><ele>141.0</ele><time>2026-04-12T15:12:04.999Z</time></trkpt><trkpt lat="45.836015741008126" lon="11.693825004989451"><ele>141.0</ele><time>2026-04-12T15:12:05.999Z</time></trkpt><trkpt lat="45.835852962140024" lon="11.694016664898445"><ele>141.0</ele><time>2026-04-12T15:12:06.999Z</time></trkpt><trkpt lat="45.835696082505116" lon="11.694210199159517"><ele>140.5</ele><time>2026-04-12T15:12:07.999Z</time></trkpt><trkpt lat="45.8355221164074" lon="11.694425143475735"><ele>140.0</ele><time>2026-04-12T15:12:08.999Z</time></trkpt><trkpt lat="45.83535488329122" lon="11.694636562319523"><ele>140.0</ele><time>2026-04-12T15:12:09.999Z</time></trkpt><trkpt lat="45.83518606596718" lon="11.694847294425452"><ele>140.0</ele><time>2026-04-12T15:12:10.999Z</time></trkpt><trkpt lat="45.835013297069956" lon="11.695057792171056"><ele>138.0</ele><time>2026-04-12T15:12:11.999Z</time></trkpt><trkpt lat="45.83483768171221" lon="11.695272345833516"><ele>136.0</ele><time>2026-04-12T15:12:12.999Z</time></trkpt><trkpt lat="45.834663704499135" lon="11.695481722495702"><ele>136.0</ele><time>2026-04-12T15:12:13.999Z</time></trkpt><trkpt lat="45.83449725102986" lon="11.695686196893881"><ele>136.0</ele><time>2026-04-12T15:12:14.999Z</time></trkpt><trkpt lat="45.834331962467154" lon="11.695892401795414"><ele>136.0</ele><time>2026-04-12T15:12:15.999Z</time></trkpt><trkpt lat="45.83416384029882" lon="11.696099413509584"><ele>136.33333333333334</ele><time>2026-04-12T15:12:16.999Z</time></trkpt><trkpt lat="45.834000135148976" lon="11.696297398091591"><ele>136.66666666666666</ele><time>2026-04-12T15:12:17.999Z</time></trkpt><trkpt lat="45.833840925287234" lon="11.696486736720965"><ele>137.0</ele><time>2026-04-12T15:12:18.999Z</time></trkpt><trkpt lat="45.83368653570257" lon="11.696669040054136"><ele>137.0</ele><time>2026-04-12T15:12:19.999Z</time></trkpt><trkpt lat="45.833541807676305" lon="11.696856134754182"><ele>137.0</ele><time>2026-04-12T15:12:20.999Z</time></trkpt><trkpt lat="45.833392637375276" lon="11.697043255321214"><ele>137.0</ele><time>2026-04-12T15:12:21.999Z</time></trkpt><trkpt lat="45.833242772301816" lon="11.697236369154032"><ele>137.66666666666666</ele><time>2026-04-12T15:12:22.999Z</time></trkpt><trkpt lat="45.83309929226374" lon="11.697438358638129"><ele>138.33333333333334</ele><time>2026-04-12T15:12:23.999Z</time></trkpt><trkpt lat="45.832964330454814" lon="11.697666724800243"><ele>139.0</ele><time>2026-04-12T15:12:24.999Z</time></trkpt><trkpt lat="45.83283269827827" lon="11.697902506693007"><ele>139.33333333333334</ele><time>2026-04-12T15:12:25.999Z</time></trkpt><trkpt lat="45.83272177966898" lon="11.698158321590027"><ele>139.66666666666666</ele><time>2026-04-12T15:12:26.999Z</time></trkpt><trkpt lat="45.832593548262736" lon="11.69839941350498"><ele>140.0</ele><time>2026-04-12T15:12:27.999Z</time></trkpt><trkpt lat="45.83247162613123" lon="11.698650654353047"><ele>140.0</ele><time>2026-04-12T15:12:28.999Z</time></trkpt><trkpt lat="45.83244216720177" lon="11.698995709306061"><ele>140.0</ele><time>2026-04-12T15:12:29.999Z</time></trkpt><trkpt lat="45.83235931611947" lon="11.699285910686239"><ele>140.33333333333331</ele><time>2026-04-12T15:12:30.999Z</time></trkpt><trkpt lat="45.83227370897197" lon="11.699572242786275"><ele>140.66666666666666</ele><time>2026-04-12T15:12:31.999Z</time></trkpt><trkpt lat="45.83218407095683" lon="11.699855507235299"><ele>141.0</ele><time>2026-04-12T15:12:32.999Z</time></trkpt><trkpt lat="45.83208718760488" lon="11.700134336530366"><ele>139.66666666666666</ele><time>2026-04-12T15:12:33.999Z</time></trkpt><trkpt lat="45.83197624228982" lon="11.700406736233413"><ele>138.33333333333331</ele><time>2026-04-12T15:12:34.999Z</time></trkpt><trkpt lat="45.83185974834495" lon="11.70066256494238"><ele>137.0</ele><time>2026-04-12T15:12:35.999Z</time></trkpt><trkpt lat="45.831737100627166" lon="11.700913117760809"><ele>140.0</ele><time>2026-04-12T15:12:36.999Z</time></trkpt><trkpt lat="45.831600998949476" lon="11.701155021642865"><ele>143.0</ele><time>2026-04-12T15:12:37.999Z</time></trkpt><trkpt lat="45.83144744659299" lon="11.701379278810252"><ele>146.0</ele><time>2026-04-12T15:12:38.999Z</time></trkpt><trkpt lat="45.831293057540115" lon="11.70160649415502"><ele>146.0</ele><time>2026-04-12T15:12:39.999Z</time></trkpt><trkpt lat="45.83113349287272" lon="11.701801370713632"><ele>146.0</ele><time>2026-04-12T15:12:40.999Z</time></trkpt><trkpt lat="45.83096090639296" lon="11.701999672033109"><ele>146.0</ele><time>2026-04-12T15:12:41.999Z</time></trkpt><trkpt lat="45.83077766634487" lon="11.702188425855923"><ele>141.0</ele><time>2026-04-12T15:12:42.999Z</time></trkpt><trkpt lat="45.83058453015491" lon="11.702373589479945"><ele>136.0</ele><time>2026-04-12T15:12:43.999Z</time></trkpt><trkpt lat="45.83036875988953" lon="11.702555218457292"><ele>136.0</ele><time>2026-04-12T15:12:44.999Z</time></trkpt><trkpt lat="45.83015365873288" lon="11.7027246314381"><ele>136.0</ele><time>2026-04-12T15:12:45.999Z</time></trkpt><trkpt lat="45.829944504573135" lon="11.702885330710389"><ele>139.0</ele><time>2026-04-12T15:12:46.999Z</time></trkpt><trkpt lat="45.82974183628715" lon="11.703042706700723"><ele>142.0</ele><time>2026-04-12T15:12:47.999Z</time></trkpt><trkpt lat="45.82954057110297" lon="11.70319531966447"><ele>142.0</ele><time>2026-04-12T15:12:48.999Z</time></trkpt><trkpt lat="45.82933801892764" lon="11.70334992404211"><ele>142.0</ele><time>2026-04-12T15:12:49.999Z</time></trkpt><trkpt lat="45.82914255890319" lon="11.703497441384018"><ele>141.0</ele><time>2026-04-12T15:12:50.999Z</time></trkpt><trkpt lat="45.82895303502063" lon="11.703643596120441"><ele>140.0</ele><time>2026-04-12T15:12:51.999Z</time></trkpt><trkpt lat="45.82876296500764" lon="11.703789917810207"><ele>139.0</ele><time>2026-04-12T15:12:52.999Z</time></trkpt><trkpt lat="45.8285940612656" lon="11.70392728395244"><ele>137.0</ele><time>2026-04-12T15:12:53.999Z</time></trkpt><trkpt lat="45.8284161734261" lon="11.704068677692531"><ele>135.0</ele><time>2026-04-12T15:12:54.999Z</time></trkpt><trkpt lat="45.82823131149679" lon="11.704208236109674"><ele>133.0</ele><time>2026-04-12T15:12:55.999Z</time></trkpt><trkpt lat="45.82803955346628" lon="11.704359993959297"><ele>133.33333333333334</ele><time>2026-04-12T15:12:56.999Z</time></trkpt><trkpt lat="45.82783955822615" lon="11.704530645797027"><ele>133.66666666666666</ele><time>2026-04-12T15:12:57.999Z</time></trkpt><trkpt lat="45.82764909563809" lon="11.704671147446106"><ele>134.0</ele><time>2026-04-12T15:12:58.999Z</time></trkpt><trkpt lat="45.82744888120149" lon="11.704828450697676"><ele>134.0</ele><time>2026-04-12T15:12:59.999Z</time></trkpt><trkpt lat="45.82725593636397" lon="11.70498414669919"><ele>134.0</ele><time>2026-04-12T15:13:00.999Z</time></trkpt><trkpt lat="45.82706593818595" lon="11.70512954899413"><ele>134.0</ele><time>2026-04-12T15:13:01.999Z</time></trkpt><trkpt lat="45.826886543885735" lon="11.705266884522333"><ele>133.66666666666666</ele><time>2026-04-12T15:13:02.999Z</time></trkpt><trkpt lat="45.826711888506715" lon="11.705401893661959"><ele>133.33333333333334</ele><time>2026-04-12T15:13:03.999Z</time></trkpt><trkpt lat="45.826539009608574" lon="11.705541851718246"><ele>133.0</ele><time>2026-04-12T15:13:04.999Z</time></trkpt><trkpt lat="45.826368990386264" lon="11.705681457981097"><ele>133.0</ele><time>2026-04-12T15:13:05.999Z</time></trkpt><trkpt lat="45.826213341271135" lon="11.705813936570111"><ele>133.0</ele><time>2026-04-12T15:13:06.999Z</time></trkpt><trkpt lat="45.82606816379002" lon="11.705946035170864"><ele>133.0</ele><time>2026-04-12T15:13:07.999Z</time></trkpt><trkpt lat="45.825929996388986" lon="11.706096485370379"><ele>135.0</ele><time>2026-04-12T15:13:08.999Z</time></trkpt><trkpt lat="45.82580167929763" lon="11.706263746790079"><ele>137.0</ele><time>2026-04-12T15:13:09.999Z</time></trkpt><trkpt lat="45.82567836935317" lon="11.70644316257142"><ele>139.0</ele><time>2026-04-12T15:13:10.999Z</time></trkpt><trkpt lat="45.82556077943034" lon="11.70663499225389"><ele>139.0</ele><time>2026-04-12T15:13:11.999Z</time></trkpt><trkpt lat="45.825448229930394" lon="11.706842749218067"><ele>139.0</ele><time>2026-04-12T15:13:12.999Z</time></trkpt><trkpt lat="45.825340697965764" lon="11.707048896757149"><ele>139.0</ele><time>2026-04-12T15:13:13.999Z</time></trkpt><trkpt lat="45.82523966068857" lon="11.707247339867124"><ele>137.66666666666669</ele><time>2026-04-12T15:13:14.999Z</time></trkpt><trkpt lat="45.82514153092788" lon="11.707437852866994"><ele>136.33333333333334</ele><time>2026-04-12T15:13:15.999Z</time></trkpt><trkpt lat="45.825042040921986" lon="11.707630088364791"><ele>135.0</ele><time>2026-04-12T15:13:16.999Z</time></trkpt><trkpt lat="45.824943508307655" lon="11.707814507485905"><ele>134.66666666666666</ele><time>2026-04-12T15:13:17.999Z</time></trkpt><trkpt lat="45.824844821940715" lon="11.707985846907683"><ele>134.33333333333331</ele><time>2026-04-12T15:13:18.999Z</time></trkpt><trkpt lat="45.8247476865737" lon="11.708156569572342"><ele>134.0</ele><time>2026-04-12T15:13:19.999Z</time></trkpt><trkpt lat="45.82465140830597" lon="11.708337483423003"><ele>134.0</ele><time>2026-04-12T15:13:20.999Z</time></trkpt><trkpt lat="45.824554416998595" lon="11.70852770814521"><ele>134.0</ele><time>2026-04-12T15:13:21.999Z</time></trkpt><trkpt lat="45.82446437467225" lon="11.708710064167029"><ele>134.0</ele><time>2026-04-12T15:13:22.999Z</time></trkpt><trkpt lat="45.82437175733555" lon="11.708857698491226"><ele>134.5</ele><time>2026-04-12T15:13:23.999Z</time></trkpt><trkpt lat="45.82428224130806" lon="11.709015791085402"><ele>135.0</ele><time>2026-04-12T15:13:24.999Z</time></trkpt><trkpt lat="45.824186656080414" lon="11.709171022347793"><ele>135.5</ele><time>2026-04-12T15:13:25.999Z</time></trkpt><trkpt lat="45.82408679462736" lon="11.709335765462837"><ele>136.0</ele><time>2026-04-12T15:13:26.999Z</time></trkpt><trkpt lat="45.82398180371747" lon="11.709503289476975"><ele>136.0</ele><time>2026-04-12T15:13:27.999Z</time></trkpt><trkpt lat="45.82386911409937" lon="11.70967409333021"><ele>136.0</ele><time>2026-04-12T15:13:28.999Z</time></trkpt><trkpt lat="45.823753713506214" lon="11.709828176704574"><ele>136.0</ele><time>2026-04-12T15:13:29.999Z</time></trkpt><trkpt lat="45.823644228689226" lon="11.709964266268926"><ele>136.0</ele><time>2026-04-12T15:13:30.999Z</time></trkpt><trkpt lat="45.82352904710836" lon="11.71009320718605"><ele>136.0</ele><time>2026-04-12T15:13:31.999Z</time></trkpt><trkpt lat="45.82340425062036" lon="11.710222458891227"><ele>136.0</ele><time>2026-04-12T15:13:32.999Z</time></trkpt><trkpt lat="45.82327522459712" lon="11.710347847058014"><ele>135.66666666666669</ele><time>2026-04-12T15:13:33.999Z</time></trkpt><trkpt lat="45.82314450382358" lon="11.71047146815023"><ele>135.33333333333334</ele><time>2026-04-12T15:13:34.999Z</time></trkpt><trkpt lat="45.823009817021" lon="11.710601697245892"><ele>135.0</ele><time>2026-04-12T15:13:35.999Z</time></trkpt><trkpt lat="45.82287092227652" lon="11.710739341549973"><ele>135.0</ele><time>2026-04-12T15:13:36.999Z</time></trkpt><trkpt lat="45.822735191808924" lon="11.710877790445004"><ele>135.0</ele><time>2026-04-12T15:13:37.999Z</time></trkpt><trkpt lat="45.82260105696547" lon="11.71100469333809"><ele>135.0</ele><time>2026-04-12T15:13:38.999Z</time></trkpt><trkpt lat="45.82247268156022" lon="11.711124162577336"><ele>134.75</ele><time>2026-04-12T15:13:39.999Z</time></trkpt><trkpt lat="45.82235207535819" lon="11.711239684865909"><ele>134.5</ele><time>2026-04-12T15:13:40.999Z</time></trkpt><trkpt lat="45.82221996396887" lon="11.711335336114287"><ele>134.25</ele><time>2026-04-12T15:13:41.999Z</time></trkpt><trkpt lat="45.82210593667565" lon="11.711468818308994"><ele>134.0</ele><time>2026-04-12T15:13:42.999Z</time></trkpt><trkpt lat="45.8219869314315" lon="11.711581911590395"><ele>134.0</ele><time>2026-04-12T15:13:43.999Z</time></trkpt><trkpt lat="45.82186739710613" lon="11.711689947547946"><ele>134.0</ele><time>2026-04-12T15:13:44.999Z</time></trkpt><trkpt lat="45.82174940801924" lon="11.711804524211766"><ele>134.0</ele><time>2026-04-12T15:13:45.999Z</time></trkpt><trkpt lat="45.82163032519488" lon="11.711911457117612"><ele>134.0</ele><time>2026-04-12T15:13:46.999Z</time></trkpt><trkpt lat="45.8215137655876" lon="11.71201205389828"><ele>134.5</ele><time>2026-04-12T15:13:47.999Z</time></trkpt><trkpt lat="45.82139672013654" lon="11.712130236326956"><ele>135.0</ele><time>2026-04-12T15:13:48.999Z</time></trkpt><trkpt lat="45.82127753815322" lon="11.712243794331716"><ele>135.5</ele><time>2026-04-12T15:13:49.999Z</time></trkpt><trkpt lat="45.82116099219255" lon="11.712351189063805"><ele>136.0</ele><time>2026-04-12T15:13:50.999Z</time></trkpt><trkpt lat="45.8210488068429" lon="11.712452081964928"><ele>136.0</ele><time>2026-04-12T15:13:51.999Z</time></trkpt><trkpt lat="45.820940849865515" lon="11.71252935271221"><ele>136.0</ele><time>2026-04-12T15:13:52.999Z</time></trkpt><trkpt lat="45.8208016732498" lon="11.71269461595762"><ele>136.0</ele><time>2026-04-12T15:13:53.999Z</time></trkpt><trkpt lat="45.82066980186824" lon="11.712811393916928"><ele>136.0</ele><time>2026-04-12T15:13:54.999Z</time></trkpt><trkpt lat="45.82053754014196" lon="11.71294182624827"><ele>136.0</ele><time>2026-04-12T15:13:55.999Z</time></trkpt><trkpt lat="45.82040898044488" lon="11.713063259663196"><ele>136.0</ele><time>2026-04-12T15:13:56.999Z</time></trkpt><trkpt lat="45.82028126435101" lon="11.71318454227107"><ele>136.0</ele><time>2026-04-12T15:13:57.999Z</time></trkpt><trkpt lat="45.82015273545548" lon="11.713304924539287"><ele>136.0</ele><time>2026-04-12T15:13:58.999Z</time></trkpt><trkpt lat="45.820030109881024" lon="11.713420748012323"><ele>136.0</ele><time>2026-04-12T15:13:59.999Z</time></trkpt><trkpt lat="45.819911167209774" lon="11.71352984407101"><ele>136.0</ele><time>2026-04-12T15:14:00.999Z</time></trkpt><trkpt lat="45.819796938577156" lon="11.713645009877709"><ele>135.75</ele><time>2026-04-12T15:14:01.999Z</time></trkpt><trkpt lat="45.819681668559014" lon="11.71373674566694"><ele>135.5</ele><time>2026-04-12T15:14:02.999Z</time></trkpt><trkpt lat="45.81958588334953" lon="11.713821673979034"><ele>135.25</ele><time>2026-04-12T15:14:03.999Z</time></trkpt><trkpt lat="45.819486735252546" lon="11.71396111757299"><ele>135.0</ele><time>2026-04-12T15:14:04.999Z</time></trkpt><trkpt lat="45.819393259377655" lon="11.714090536119897"><ele>134.0</ele><time>2026-04-12T15:14:05.999Z</time></trkpt><trkpt lat="45.81927779304548" lon="11.714221701028302"><ele>133.0</ele><time>2026-04-12T15:14:06.999Z</time></trkpt><trkpt lat="45.81917059995154" lon="11.714323560507712"><ele>132.0</ele><time>2026-04-12T15:14:07.999Z</time></trkpt><trkpt lat="45.81905910690496" lon="11.714431760354925"><ele>131.0</ele><time>2026-04-12T15:14:08.999Z</time></trkpt><trkpt lat="45.818949754208944" lon="11.714544397296692"><ele>131.0</ele><time>2026-04-12T15:14:09.999Z</time></trkpt><trkpt lat="45.81884056372303" lon="11.714660278175371"><ele>131.0</ele><time>2026-04-12T15:14:10.999Z</time></trkpt><trkpt lat="45.81872485299952" lon="11.714778532651891"><ele>131.0</ele><time>2026-04-12T15:14:11.999Z</time></trkpt><trkpt lat="45.81860977886134" lon="11.714880372973141"><ele>131.0</ele><time>2026-04-12T15:14:12.999Z</time></trkpt><trkpt lat="45.81849688418486" lon="11.714952814509857"><ele>130.66666666666666</ele><time>2026-04-12T15:14:13.999Z</time></trkpt><trkpt lat="45.81835790314674" lon="11.715147764962547"><ele>130.33333333333334</ele><time>2026-04-12T15:14:14.999Z</time></trkpt><trkpt lat="45.81822516135138" lon="11.715288194313034"><ele>130.0</ele><time>2026-04-12T15:14:15.999Z</time></trkpt><trkpt lat="45.81809004663689" lon="11.715423360628021"><ele>130.0</ele><time>2026-04-12T15:14:16.999Z</time></trkpt><trkpt lat="45.81795495732547" lon="11.715563809100422"><ele>130.0</ele><time>2026-04-12T15:14:17.999Z</time></trkpt><trkpt lat="45.81780999276238" lon="11.715690797656586"><ele>130.0</ele><time>2026-04-12T15:14:18.999Z</time></trkpt><trkpt lat="45.817661392152765" lon="11.715812682596436"><ele>128.66666666666669</ele><time>2026-04-12T15:14:19.999Z</time></trkpt><trkpt lat="45.817522590988034" lon="11.715918406936314"><ele>127.33333333333334</ele><time>2026-04-12T15:14:20.999Z</time></trkpt><trkpt lat="45.81737513923694" lon="11.716001804752725"><ele>126.0</ele><time>2026-04-12T15:14:21.999Z</time></trkpt><trkpt lat="45.817202315608526" lon="11.71606000671194"><ele>125.33333333333334</ele><time>2026-04-12T15:14:22.999Z</time></trkpt><trkpt lat="45.816998357606195" lon="11.716108650555082"><ele>124.66666666666667</ele><time>2026-04-12T15:14:23.999Z</time></trkpt><trkpt lat="45.816781758089625" lon="11.716161210270586"><ele>124.0</ele><time>2026-04-12T15:14:24.999Z</time></trkpt><trkpt lat="45.81654176320713" lon="11.71621931319057"><ele>124.0</ele><time>2026-04-12T15:14:25.999Z</time></trkpt><trkpt lat="45.8162860557268" lon="11.71628253765094"><ele>124.0</ele><time>2026-04-12T15:14:26.999Z</time></trkpt><trkpt lat="45.816014416761064" lon="11.716344572974357"><ele>123.5</ele><time>2026-04-12T15:14:27.999Z</time></trkpt><trkpt lat="45.81572924414721" lon="11.716413772110444"><ele>123.0</ele><time>2026-04-12T15:14:28.999Z</time></trkpt><trkpt lat="45.81542910388751" lon="11.716484406095526"><ele>124.5</ele><time>2026-04-12T15:14:29.999Z</time></trkpt><trkpt lat="45.8151168881454" lon="11.716543663758824"><ele>126.0</ele><time>2026-04-12T15:14:30.999Z</time></trkpt><trkpt lat="45.81482563663112" lon="11.716598041648878"><ele>126.0</ele><time>2026-04-12T15:14:31.999Z</time></trkpt><trkpt lat="45.81452288571248" lon="11.71665446295273"><ele>126.0</ele><time>2026-04-12T15:14:32.999Z</time></trkpt><trkpt lat="45.814205241011585" lon="11.716712541803314"><ele>124.5</ele><time>2026-04-12T15:14:33.999Z</time></trkpt><trkpt lat="45.813878697666304" lon="11.716776786564822"><ele>123.0</ele><time>2026-04-12T15:14:34.999Z</time></trkpt><trkpt lat="45.81353448660375" lon="11.716843407272997"><ele>124.0</ele><time>2026-04-12T15:14:35.999Z</time></trkpt><trkpt lat="45.813185379321695" lon="11.716910491007594"><ele>125.0</ele><time>2026-04-12T15:14:36.999Z</time></trkpt><trkpt lat="45.81283015072932" lon="11.716973977589852"><ele>125.0</ele><time>2026-04-12T15:14:37.999Z</time></trkpt><trkpt lat="45.81248830954948" lon="11.717036599772868"><ele>125.0</ele><time>2026-04-12T15:14:38.999Z</time></trkpt><trkpt lat="45.81217023890533" lon="11.717091649705672"><ele>125.0</ele><time>2026-04-12T15:14:39.999Z</time></trkpt><trkpt lat="45.8118364426527" lon="11.717150529920584"><ele>125.0</ele><time>2026-04-12T15:14:40.999Z</time></trkpt><trkpt lat="45.81149243024779" lon="11.717216221519404"><ele>124.0</ele><time>2026-04-12T15:14:41.999Z</time></trkpt><trkpt lat="45.811154623498254" lon="11.717280391643317"><ele>123.0</ele><time>2026-04-12T15:14:42.999Z</time></trkpt><trkpt lat="45.81084320619277" lon="11.717334933839766"><ele>122.5</ele><time>2026-04-12T15:14:43.999Z</time></trkpt><trkpt lat="45.810543188990096" lon="11.717387334317824"><ele>122.0</ele><time>2026-04-12T15:14:44.999Z</time></trkpt><trkpt lat="45.81024908785204" lon="11.717447891592291"><ele>121.5</ele><time>2026-04-12T15:14:45.999Z</time></trkpt><trkpt lat="45.80995464745954" lon="11.717498303677933"><ele>121.0</ele><time>2026-04-12T15:14:46.999Z</time></trkpt><trkpt lat="45.8096649621399" lon="11.71754865271513"><ele>121.0</ele><time>2026-04-12T15:14:47.999Z</time></trkpt><trkpt lat="45.8093818445397" lon="11.717595897898981"><ele>121.0</ele><time>2026-04-12T15:14:48.999Z</time></trkpt><trkpt lat="45.80911047904464" lon="11.717639154490776"><ele>121.0</ele><time>2026-04-12T15:14:49.999Z</time></trkpt><trkpt lat="45.80885146520248" lon="11.717686072193278"><ele>121.0</ele><time>2026-04-12T15:14:50.999Z</time></trkpt><trkpt lat="45.808600211990935" lon="11.71773695292662"><ele>124.0</ele><time>2026-04-12T15:14:51.999Z</time></trkpt><trkpt lat="45.8083439513018" lon="11.717786177668962"><ele>127.0</ele><time>2026-04-12T15:14:52.999Z</time></trkpt><trkpt lat="45.80808482479257" lon="11.717847429953368"><ele>127.0</ele><time>2026-04-12T15:14:53.999Z</time></trkpt><trkpt lat="45.80782607966064" lon="11.717908926052251"><ele>127.0</ele><time>2026-04-12T15:14:54.999Z</time></trkpt><trkpt lat="45.80755993890894" lon="11.717970653315776"><ele>125.5</ele><time>2026-04-12T15:14:55.999Z</time></trkpt><trkpt lat="45.80730684000663" lon="11.718020846756833"><ele>124.0</ele><time>2026-04-12T15:14:56.999Z</time></trkpt><trkpt lat="45.8070688301226" lon="11.718060180486237"><ele>124.0</ele><time>2026-04-12T15:14:57.999Z</time></trkpt><trkpt lat="45.80683113003221" lon="11.718086450062291"><ele>124.0</ele><time>2026-04-12T15:14:58.999Z</time></trkpt><trkpt lat="45.80659047181276" lon="11.718105900194823"><ele>126.0</ele><time>2026-04-12T15:14:59.999Z</time></trkpt><trkpt lat="45.80635994239456" lon="11.718124955292641"><ele>128.0</ele><time>2026-04-12T15:15:00.999Z</time></trkpt><trkpt lat="45.806146967481936" lon="11.718145142223001"><ele>130.0</ele><time>2026-04-12T15:15:01.999Z</time></trkpt><trkpt lat="45.805936345376445" lon="11.718155383711782"><ele>131.0</ele><time>2026-04-12T15:15:02.999Z</time></trkpt><trkpt lat="45.80572920693725" lon="11.718162299703886"><ele>132.0</ele><time>2026-04-12T15:15:03.999Z</time></trkpt><trkpt lat="45.805520157195616" lon="11.71817122556395"><ele>133.0</ele><time>2026-04-12T15:15:04.999Z</time></trkpt><trkpt lat="45.805320480720006" lon="11.71817551223643"><ele>131.33333333333334</ele><time>2026-04-12T15:15:05.999Z</time></trkpt><trkpt lat="45.80512143551158" lon="11.718184356282661"><ele>129.66666666666666</ele><time>2026-04-12T15:15:06.999Z</time></trkpt><trkpt lat="45.8049277401361" lon="11.718189653622765"><ele>128.0</ele><time>2026-04-12T15:15:07.999Z</time></trkpt><trkpt lat="45.80472988545923" lon="11.718179519874456"><ele>128.0</ele><time>2026-04-12T15:15:08.999Z</time></trkpt><trkpt lat="45.804529727554936" lon="11.71818748509718"><ele>128.0</ele><time>2026-04-12T15:15:09.999Z</time></trkpt><trkpt lat="45.8043241556892" lon="11.718224544066368"><ele>128.0</ele><time>2026-04-12T15:15:10.999Z</time></trkpt><trkpt lat="45.80411338598612" lon="11.718290157898535"><ele>126.5</ele><time>2026-04-12T15:15:11.999Z</time></trkpt><trkpt lat="45.80389827400487" lon="11.71838655874317"><ele>125.0</ele><time>2026-04-12T15:15:12.999Z</time></trkpt><trkpt lat="45.803671994406166" lon="11.718509800005638"><ele>126.0</ele><time>2026-04-12T15:15:13.999Z</time></trkpt><trkpt lat="45.80344077886758" lon="11.71863521972715"><ele>127.0</ele><time>2026-04-12T15:15:14.999Z</time></trkpt><trkpt lat="45.803212670243916" lon="11.718756964582916"><ele>127.0</ele><time>2026-04-12T15:15:15.999Z</time></trkpt><trkpt lat="45.80299805436493" lon="11.718869042670603"><ele>127.0</ele><time>2026-04-12T15:15:16.999Z</time></trkpt><trkpt lat="45.80280017420037" lon="11.718970211634083"><ele>127.0</ele><time>2026-04-12T15:15:17.999Z</time></trkpt><trkpt lat="45.80261219102052" lon="11.719055393869457"><ele>126.33333333333334</ele><time>2026-04-12T15:15:18.999Z</time></trkpt><trkpt lat="45.80242522432518" lon="11.7191511214694"><ele>125.66666666666666</ele><time>2026-04-12T15:15:19.999Z</time></trkpt><trkpt lat="45.80225020631076" lon="11.71924909974736"><ele>125.0</ele><time>2026-04-12T15:15:20.999Z</time></trkpt><trkpt lat="45.802078946919195" lon="11.71934051079443"><ele>126.33333333333333</ele><time>2026-04-12T15:15:21.999Z</time></trkpt><trkpt lat="45.801910131714564" lon="11.719417440714489"><ele>127.66666666666666</ele><time>2026-04-12T15:15:22.999Z</time></trkpt><trkpt lat="45.80173945148998" lon="11.71950812829535"><ele>129.0</ele><time>2026-04-12T15:15:23.999Z</time></trkpt><trkpt lat="45.80156081231234" lon="11.719599043119027"><ele>129.0</ele><time>2026-04-12T15:15:24.999Z</time></trkpt><trkpt lat="45.801379409914816" lon="11.719688435735076"><ele>129.0</ele><time>2026-04-12T15:15:25.999Z</time></trkpt><trkpt lat="45.801192241835494" lon="11.719778396956501"><ele>129.0</ele><time>2026-04-12T15:15:26.999Z</time></trkpt><trkpt lat="45.80100024234434" lon="11.719874619509447"><ele>128.33333333333334</ele><time>2026-04-12T15:15:27.999Z</time></trkpt><trkpt lat="45.800804819388844" lon="11.719973591298059"><ele>127.66666666666667</ele><time>2026-04-12T15:15:28.999Z</time></trkpt><trkpt lat="45.80060754227788" lon="11.720074550929533"><ele>127.0</ele><time>2026-04-12T15:15:29.999Z</time></trkpt><trkpt lat="45.80041326962124" lon="11.720175400202114"><ele>128.33333333333334</ele><time>2026-04-12T15:15:30.999Z</time></trkpt><trkpt lat="45.800211994901396" lon="11.720258078806856"><ele>129.66666666666666</ele><time>2026-04-12T15:15:31.999Z</time></trkpt><trkpt lat="45.800028004744306" lon="11.720360539825945"><ele>131.0</ele><time>2026-04-12T15:15:32.999Z</time></trkpt><trkpt lat="45.79983903255162" lon="11.720452259514053"><ele>131.0</ele><time>2026-04-12T15:15:33.999Z</time></trkpt><trkpt lat="45.79965030705774" lon="11.720549087205573"><ele>131.0</ele><time>2026-04-12T15:15:34.999Z</time></trkpt><trkpt lat="45.79947349725242" lon="11.720639696572928"><ele>131.0</ele><time>2026-04-12T15:15:35.999Z</time></trkpt><trkpt lat="45.79929926863725" lon="11.720726137381366"><ele>129.33333333333331</ele><time>2026-04-12T15:15:36.999Z</time></trkpt><trkpt lat="45.799126423676164" lon="11.720809354285137"><ele>127.66666666666666</ele><time>2026-04-12T15:15:38Z</time></trkpt><trkpt lat="45.7989574156621" lon="11.72089140374329"><ele>126.0</ele><time>2026-04-12T15:15:39Z</time></trkpt><trkpt lat="45.79878958115534" lon="11.720977768114388"><ele>126.33333333333334</ele><time>2026-04-12T15:15:40Z</time></trkpt><trkpt lat="45.79862038900601" lon="11.72106642144728"><ele>126.66666666666667</ele><time>2026-04-12T15:15:41Z</time></trkpt><trkpt lat="45.79846089879313" lon="11.721139553858746"><ele>127.0</ele><time>2026-04-12T15:15:42Z</time></trkpt><trkpt lat="45.79830042042005" lon="11.721215261512995"><ele>127.0</ele><time>2026-04-12T15:15:43Z</time></trkpt><trkpt lat="45.79814522255016" lon="11.721297711069816"><ele>127.0</ele><time>2026-04-12T15:15:44Z</time></trkpt><trkpt lat="45.79798578747876" lon="11.721379446464347"><ele>127.0</ele><time>2026-04-12T15:15:45Z</time></trkpt><trkpt lat="45.797823454739174" lon="11.72146318028736"><ele>126.66666666666667</ele><time>2026-04-12T15:15:46Z</time></trkpt><trkpt lat="45.79765662916587" lon="11.72155247948427"><ele>126.33333333333334</ele><time>2026-04-12T15:15:47Z</time></trkpt><trkpt lat="45.79749002846321" lon="11.721635065980301"><ele>126.0</ele><time>2026-04-12T15:15:48Z</time></trkpt><trkpt lat="45.79732275391238" lon="11.721713987815892"><ele>126.0</ele><time>2026-04-12T15:15:49Z</time></trkpt><trkpt lat="45.79716027954787" lon="11.72180199835174"><ele>126.0</ele><time>2026-04-12T15:15:50Z</time></trkpt><trkpt lat="45.79699984444126" lon="11.721884684928678"><ele>126.0</ele><time>2026-04-12T15:15:51Z</time></trkpt><trkpt lat="45.79684341946235" lon="11.72197092620202"><ele>127.0</ele><time>2026-04-12T15:15:52Z</time></trkpt><trkpt lat="45.79669679792369" lon="11.722050603384888"><ele>128.0</ele><time>2026-04-12T15:15:53Z</time></trkpt><trkpt lat="45.796542142356564" lon="11.722134933861149"><ele>129.0</ele><time>2026-04-12T15:15:54Z</time></trkpt><trkpt lat="45.79639500320492" lon="11.722196297130006"><ele>129.0</ele><time>2026-04-12T15:15:55Z</time></trkpt><trkpt lat="45.796250420178225" lon="11.722253693166543"><ele>129.0</ele><time>2026-04-12T15:15:56Z</time></trkpt><trkpt lat="45.796110192038874" lon="11.722280013879123"><ele>129.0</ele><time>2026-04-12T15:15:57Z</time></trkpt><trkpt lat="45.795976132278845" lon="11.722305763530887"><ele>129.0</ele><time>2026-04-12T15:15:58Z</time></trkpt><trkpt lat="45.79585433115356" lon="11.722322464604288"><ele>128.66666666666666</ele><time>2026-04-12T15:15:59Z</time></trkpt><trkpt lat="45.795732362781166" lon="11.72234922322716"><ele>128.33333333333331</ele><time>2026-04-12T15:16:00Z</time></trkpt><trkpt lat="45.7956270447517" lon="11.722322235236515"><ele>128.0</ele><time>2026-04-12T15:16:01Z</time></trkpt><trkpt lat="45.79533066060181" lon="11.722737822035363"><ele>127.75</ele><time>2026-04-12T15:16:02Z</time></trkpt><trkpt lat="45.79519570246445" lon="11.72280770507215"><ele>127.5</ele><time>2026-04-12T15:16:03Z</time></trkpt><trkpt lat="45.795058063766746" lon="11.722883562226366"><ele>127.25</ele><time>2026-04-12T15:16:04Z</time></trkpt><trkpt lat="45.79492146676032" lon="11.722952410066181"><ele>127.0</ele><time>2026-04-12T15:16:05Z</time></trkpt><trkpt lat="45.79478849383377" lon="11.723009034498682"><ele>127.75</ele><time>2026-04-12T15:16:06Z</time></trkpt><trkpt lat="45.79466000889382" lon="11.72306687348597"><ele>128.5</ele><time>2026-04-12T15:16:07Z</time></trkpt><trkpt lat="45.79453578335184" lon="11.723127097535519"><ele>129.25</ele><time>2026-04-12T15:16:08Z</time></trkpt><trkpt lat="45.79442149081828" lon="11.7231814042984"><ele>130.0</ele><time>2026-04-12T15:16:09Z</time></trkpt><trkpt lat="45.79430334202331" lon="11.723236514451433"><ele>130.25</ele><time>2026-04-12T15:16:10Z</time></trkpt><trkpt lat="45.79417336488303" lon="11.723301562430153"><ele>130.5</ele><time>2026-04-12T15:16:11Z</time></trkpt><trkpt lat="45.79403473344226" lon="11.723368136090055"><ele>130.75</ele><time>2026-04-12T15:16:12Z</time></trkpt><trkpt lat="45.79389006696192" lon="11.723430971690052"><ele>131.0</ele><time>2026-04-12T15:16:13Z</time></trkpt><trkpt lat="45.79374186544413" lon="11.723505384566042"><ele>132.66666666666666</ele><time>2026-04-12T15:16:14Z</time></trkpt><trkpt lat="45.793604418174425" lon="11.723578542675924"><ele>134.33333333333334</ele><time>2026-04-12T15:16:15Z</time></trkpt><trkpt lat="45.793467842649726" lon="11.723656883117215"><ele>136.0</ele><time>2026-04-12T15:16:16Z</time></trkpt><trkpt lat="45.79331992355966" lon="11.723763711483564"><ele>136.0</ele><time>2026-04-12T15:16:17Z</time></trkpt><trkpt lat="45.79317159706521" lon="11.723887367907999"><ele>136.0</ele><time>2026-04-12T15:16:18Z</time></trkpt><trkpt lat="45.79301163928073" lon="11.72403834518097"><ele>136.0</ele><time>2026-04-12T15:16:19Z</time></trkpt><trkpt lat="45.79284714949" lon="11.724220352727613"><ele>136.0</ele><time>2026-04-12T15:16:20Z</time></trkpt><trkpt lat="45.79269158654892" lon="11.724411945004213"><ele>136.0</ele><time>2026-04-12T15:16:21Z</time></trkpt><trkpt lat="45.792553446850896" lon="11.724599859428494"><ele>136.0</ele><time>2026-04-12T15:16:22Z</time></trkpt><trkpt lat="45.79241510313625" lon="11.724771910393216"><ele>136.0</ele><time>2026-04-12T15:16:23Z</time></trkpt><trkpt lat="45.79228441585882" lon="11.724970448967937"><ele>136.0</ele><time>2026-04-12T15:16:24Z</time></trkpt><trkpt lat="45.792144366678905" lon="11.725137204675672"><ele>136.0</ele><time>2026-04-12T15:16:25Z</time></trkpt><trkpt lat="45.792017168174674" lon="11.7252947864427"><ele>135.33333333333334</ele><time>2026-04-12T15:16:26Z</time></trkpt><trkpt lat="45.79189650427328" lon="11.725445821754517"><ele>134.66666666666666</ele><time>2026-04-12T15:16:27Z</time></trkpt><trkpt lat="45.791767793836875" lon="11.725602426057703"><ele>134.0</ele><time>2026-04-12T15:16:28Z</time></trkpt><trkpt lat="45.79163623521652" lon="11.725770360327123"><ele>134.0</ele><time>2026-04-12T15:16:29Z</time></trkpt><trkpt lat="45.79149457592572" lon="11.725930087072483"><ele>134.0</ele><time>2026-04-12T15:16:30Z</time></trkpt><trkpt lat="45.79135473585917" lon="11.726084041556033"><ele>134.0</ele><time>2026-04-12T15:16:31Z</time></trkpt><trkpt lat="45.79121157006992" lon="11.726248344631466"><ele>133.0</ele><time>2026-04-12T15:16:32Z</time></trkpt><trkpt lat="45.79107355856738" lon="11.726425329008281"><ele>132.0</ele><time>2026-04-12T15:16:33Z</time></trkpt><trkpt lat="45.79093099597776" lon="11.726601897839231"><ele>131.0</ele><time>2026-04-12T15:16:34Z</time></trkpt><trkpt lat="45.79078424498877" lon="11.726798212021032"><ele>132.66666666666666</ele><time>2026-04-12T15:16:35Z</time></trkpt><trkpt lat="45.79062665632524" lon="11.72698895269972"><ele>134.33333333333334</ele><time>2026-04-12T15:16:36Z</time></trkpt><trkpt lat="45.79046209366182" lon="11.727194217068883"><ele>136.0</ele><time>2026-04-12T15:16:37Z</time></trkpt><trkpt lat="45.79028919642844" lon="11.727403959335005"><ele>135.0</ele><time>2026-04-12T15:16:38Z</time></trkpt><trkpt lat="45.79011325140367" lon="11.727615802371133"><ele>134.0</ele><time>2026-04-12T15:16:39Z</time></trkpt><trkpt lat="45.789936263068014" lon="11.727833732284846"><ele>134.0</ele><time>2026-04-12T15:16:40Z</time></trkpt><trkpt lat="45.78976013578279" lon="11.728050793345982"><ele>134.0</ele><time>2026-04-12T15:16:41Z</time></trkpt><trkpt lat="45.78957751503014" lon="11.728269759236001"><ele>134.0</ele><time>2026-04-12T15:16:42Z</time></trkpt><trkpt lat="45.78939528974496" lon="11.728486696573308"><ele>134.0</ele><time>2026-04-12T15:16:43Z</time></trkpt><trkpt lat="45.789224751523186" lon="11.728695030408833"><ele>132.5</ele><time>2026-04-12T15:16:44Z</time></trkpt><trkpt lat="45.789052861780206" lon="11.72890581045999"><ele>131.0</ele><time>2026-04-12T15:16:45Z</time></trkpt><trkpt lat="45.78888392544997" lon="11.729119370083275"><ele>131.0</ele><time>2026-04-12T15:16:46Z</time></trkpt><trkpt lat="45.78872697057888" lon="11.729344787372318"><ele>131.0</ele><time>2026-04-12T15:16:47Z</time></trkpt><trkpt lat="45.78858556726241" lon="11.729584038511755"><ele>131.0</ele><time>2026-04-12T15:16:48Z</time></trkpt><trkpt lat="45.788459190230896" lon="11.729844344364055"><ele>132.0</ele><time>2026-04-12T15:16:49Z</time></trkpt><trkpt lat="45.78834605967551" lon="11.730127610280544"><ele>133.0</ele><time>2026-04-12T15:16:50Z</time></trkpt><trkpt lat="45.788247936350686" lon="11.730427055509093"><ele>133.5</ele><time>2026-04-12T15:16:51Z</time></trkpt><trkpt lat="45.788163848600654" lon="11.730754615402287"><ele>134.0</ele><time>2026-04-12T15:16:52Z</time></trkpt><trkpt lat="45.788097258338446" lon="11.731101876938524"><ele>134.5</ele><time>2026-04-12T15:16:53Z</time></trkpt><trkpt lat="45.788051292348094" lon="11.73145410294904"><ele>135.0</ele><time>2026-04-12T15:16:54Z</time></trkpt><trkpt lat="45.788027907656506" lon="11.731826150254935"><ele>137.5</ele><time>2026-04-12T15:16:55Z</time></trkpt><trkpt lat="45.78803082492052" lon="11.732213353249445"><ele>140.0</ele><time>2026-04-12T15:16:56Z</time></trkpt><trkpt lat="45.78806081659471" lon="11.732586935460033"><ele>140.5</ele><time>2026-04-12T15:16:57Z</time></trkpt><trkpt lat="45.788117655639795" lon="11.732958466458781"><ele>141.0</ele><time>2026-04-12T15:16:58Z</time></trkpt><trkpt lat="45.78819147483009" lon="11.733337909164801"><ele>141.0</ele><time>2026-04-12T15:16:59Z</time></trkpt><trkpt lat="45.788275651838056" lon="11.73369667036107"><ele>141.0</ele><time>2026-04-12T15:17:00Z</time></trkpt><trkpt lat="45.788386386404504" lon="11.73400662065286"><ele>141.0</ele><time>2026-04-12T15:17:01Z</time></trkpt><trkpt lat="45.78848453629293" lon="11.734278810516269"><ele>141.0</ele><time>2026-04-12T15:17:02Z</time></trkpt><trkpt lat="45.78855971214918" lon="11.73458616043275"><ele>141.0</ele><time>2026-04-12T15:17:03Z</time></trkpt><trkpt lat="45.78861778456124" lon="11.734882172784928"><ele>144.0</ele><time>2026-04-12T15:17:04Z</time></trkpt><trkpt lat="45.78864439247607" lon="11.735224438164568"><ele>147.0</ele><time>2026-04-12T15:17:05Z</time></trkpt><trkpt lat="45.78866306588393" lon="11.735583256754756"><ele>147.0</ele><time>2026-04-12T15:17:06Z</time></trkpt><trkpt lat="45.78867691987505" lon="11.73596241454998"><ele>147.0</ele><time>2026-04-12T15:17:07Z</time></trkpt><trkpt lat="45.78869108121471" lon="11.73635136198125"><ele>146.5</ele><time>2026-04-12T15:17:08Z</time></trkpt><trkpt lat="45.788706907701616" lon="11.73675466329682"><ele>146.0</ele><time>2026-04-12T15:17:09Z</time></trkpt><trkpt lat="45.788720826420914" lon="11.737173265803625"><ele>146.0</ele><time>2026-04-12T15:17:10Z</time></trkpt><trkpt lat="45.78874076253609" lon="11.73760350651841"><ele>146.0</ele><time>2026-04-12T15:17:11Z</time></trkpt><trkpt lat="45.78875832249603" lon="11.738045139552456"><ele>146.0</ele><time>2026-04-12T15:17:12Z</time></trkpt><trkpt lat="45.788775711607045" lon="11.738500145700504"><ele>146.0</ele><time>2026-04-12T15:17:13Z</time></trkpt><trkpt lat="45.78879563148589" lon="11.73896450260547"><ele>147.5</ele><time>2026-04-12T15:17:14Z</time></trkpt><trkpt lat="45.78881170297736" lon="11.739438932857443"><ele>149.0</ele><time>2026-04-12T15:17:15Z</time></trkpt><trkpt lat="45.78883739426944" lon="11.73991422389634"><ele>148.5</ele><time>2026-04-12T15:17:16Z</time></trkpt><trkpt lat="45.7888526747202" lon="11.74038915837433"><ele>148.0</ele><time>2026-04-12T15:17:17Z</time></trkpt><trkpt lat="45.7888664887123" lon="11.740839188619296"><ele>148.0</ele><time>2026-04-12T15:17:18Z</time></trkpt><trkpt lat="45.78887741987784" lon="11.741248974448185"><ele>148.0</ele><time>2026-04-12T15:17:19Z</time></trkpt><trkpt lat="45.78888840509052" lon="11.74163545503694"><ele>148.5</ele><time>2026-04-12T15:17:20Z</time></trkpt><trkpt lat="45.78889662358582" lon="11.742011582687061"><ele>149.0</ele><time>2026-04-12T15:17:21Z</time></trkpt><trkpt lat="45.78890648228051" lon="11.742375839778767"><ele>149.5</ele><time>2026-04-12T15:17:22Z</time></trkpt><trkpt lat="45.78891384013184" lon="11.742743187268808"><ele>150.0</ele><time>2026-04-12T15:17:23Z</time></trkpt><trkpt lat="45.78891425584835" lon="11.743115417934513"><ele>150.0</ele><time>2026-04-12T15:17:24Z</time></trkpt><trkpt lat="45.78890593840263" lon="11.743495481563066"><ele>150.0</ele><time>2026-04-12T15:17:25Z</time></trkpt><trkpt lat="45.78888913789097" lon="11.743881846252554"><ele>150.0</ele><time>2026-04-12T15:17:26Z</time></trkpt><trkpt lat="45.78886547452419" lon="11.74427063925034"><ele>150.0</ele><time>2026-04-12T15:17:27Z</time></trkpt><trkpt lat="45.788833446874264" lon="11.744658616153933"><ele>150.0</ele><time>2026-04-12T15:17:28Z</time></trkpt><trkpt lat="45.78878865160592" lon="11.745047740609317"><ele>150.0</ele><time>2026-04-12T15:17:29Z</time></trkpt><trkpt lat="45.7887326314095" lon="11.745440101490894"><ele>150.0</ele><time>2026-04-12T15:17:30Z</time></trkpt><trkpt lat="45.78867231985035" lon="11.745820546334627"><ele>150.0</ele><time>2026-04-12T15:17:31Z</time></trkpt><trkpt lat="45.78860569185076" lon="11.746188201245836"><ele>150.5</ele><time>2026-04-12T15:17:32Z</time></trkpt><trkpt lat="45.788522996483984" lon="11.746557794480845"><ele>151.0</ele><time>2026-04-12T15:17:33Z</time></trkpt><trkpt lat="45.788426986045955" lon="11.746929591933204"><ele>150.0</ele><time>2026-04-12T15:17:34Z</time></trkpt><trkpt lat="45.78832629555685" lon="11.747307342460228"><ele>149.0</ele><time>2026-04-12T15:17:35Z</time></trkpt><trkpt lat="45.78822299947125" lon="11.747685164157021"><ele>148.5</ele><time>2026-04-12T15:17:36Z</time></trkpt><trkpt lat="45.78811213151991" lon="11.748061358568718"><ele>148.0</ele><time>2026-04-12T15:17:37Z</time></trkpt><trkpt lat="45.78799075020135" lon="11.748438057615672"><ele>147.5</ele><time>2026-04-12T15:17:38Z</time></trkpt><trkpt lat="45.787849597802236" lon="11.74882797076203"><ele>147.0</ele><time>2026-04-12T15:17:39Z</time></trkpt><trkpt lat="45.787697219229344" lon="11.749218834519343"><ele>147.0</ele><time>2026-04-12T15:17:40Z</time></trkpt><trkpt lat="45.78753415444485" lon="11.74962659816643"><ele>147.0</ele><time>2026-04-12T15:17:41Z</time></trkpt><trkpt lat="45.78735910071867" lon="11.750033571630986"><ele>147.5</ele><time>2026-04-12T15:17:42Z</time></trkpt><trkpt lat="45.78717558743457" lon="11.75043768831574"><ele>148.0</ele><time>2026-04-12T15:17:43Z</time></trkpt><trkpt lat="45.7869960406793" lon="11.750842388876276"><ele>146.5</ele><time>2026-04-12T15:17:44.001Z</time></trkpt><trkpt lat="45.78682529046675" lon="11.751236399747844"><ele>145.0</ele><time>2026-04-12T15:17:45.001Z</time></trkpt><trkpt lat="45.786665641293354" lon="11.751611230801068"><ele>146.0</ele><time>2026-04-12T15:17:46.001Z</time></trkpt><trkpt lat="45.786514521268906" lon="11.751962379849209"><ele>147.0</ele><time>2026-04-12T15:17:47.001Z</time></trkpt><trkpt lat="45.78636853558579" lon="11.75230698636715"><ele>147.0</ele><time>2026-04-12T15:17:48.001Z</time></trkpt><trkpt lat="45.78622588893536" lon="11.752640284974333"><ele>147.0</ele><time>2026-04-12T15:17:49.001Z</time></trkpt><trkpt lat="45.786084494629876" lon="11.752970397198123"><ele>145.5</ele><time>2026-04-12T15:17:50.001Z</time></trkpt><trkpt lat="45.78594348600088" lon="11.753313476905031"><ele>144.0</ele><time>2026-04-12T15:17:51.001Z</time></trkpt><trkpt lat="45.785800290764776" lon="11.753657743080684"><ele>144.0</ele><time>2026-04-12T15:17:52.001Z</time></trkpt><trkpt lat="45.78565245483897" lon="11.754004339619504"><ele>144.0</ele><time>2026-04-12T15:17:53.001Z</time></trkpt><trkpt lat="45.785501850829625" lon="11.754356914811188"><ele>144.0</ele><time>2026-04-12T15:17:54.001Z</time></trkpt><trkpt lat="45.78534945976802" lon="11.754716568859877"><ele>144.0</ele><time>2026-04-12T15:17:55.001Z</time></trkpt><trkpt lat="45.785201394671425" lon="11.755059373443629"><ele>143.0</ele><time>2026-04-12T15:17:56.001Z</time></trkpt><trkpt lat="45.78505924140534" lon="11.755381283528777"><ele>142.0</ele><time>2026-04-12T15:17:57.001Z</time></trkpt><trkpt lat="45.78491562848254" lon="11.755698966552025"><ele>142.0</ele><time>2026-04-12T15:17:58.001Z</time></trkpt><trkpt lat="45.78476004080482" lon="11.756006283748441"><ele>142.0</ele><time>2026-04-12T15:17:59.001Z</time></trkpt><trkpt lat="45.7845960082534" lon="11.75630176023516"><ele>141.0</ele><time>2026-04-12T15:18:00.001Z</time></trkpt><trkpt lat="45.784426392947964" lon="11.75659152299495"><ele>140.0</ele><time>2026-04-12T15:18:01.001Z</time></trkpt><trkpt lat="45.78425003449347" lon="11.756869317502172"><ele>142.0</ele><time>2026-04-12T15:18:02.001Z</time></trkpt><trkpt lat="45.78406363532233" lon="11.757132494395668"><ele>144.0</ele><time>2026-04-12T15:18:03.001Z</time></trkpt><trkpt lat="45.78385862933001" lon="11.757405112454741"><ele>144.0</ele><time>2026-04-12T15:18:04.001Z</time></trkpt><trkpt lat="45.78365410238442" lon="11.757665973283569"><ele>144.0</ele><time>2026-04-12T15:18:05.001Z</time></trkpt><trkpt lat="45.783442126908334" lon="11.757919753794873"><ele>142.0</ele><time>2026-04-12T15:18:06.001Z</time></trkpt><trkpt lat="45.783220975831604" lon="11.758152308069425"><ele>140.0</ele><time>2026-04-12T15:18:07.001Z</time></trkpt><trkpt lat="45.78300014506968" lon="11.758372744754205"><ele>139.5</ele><time>2026-04-12T15:18:08.001Z</time></trkpt><trkpt lat="45.78276601357862" lon="11.758570367749273"><ele>139.0</ele><time>2026-04-12T15:18:09.001Z</time></trkpt><trkpt lat="45.782524680702664" lon="11.758761423702673"><ele>138.5</ele><time>2026-04-12T15:18:10.001Z</time></trkpt><trkpt lat="45.78228034283789" lon="11.758941393114977"><ele>138.0</ele><time>2026-04-12T15:18:11.001Z</time></trkpt><trkpt lat="45.78203350405192" lon="11.75911919794384"><ele>138.0</ele><time>2026-04-12T15:18:12.001Z</time></trkpt><trkpt lat="45.781779747495854" lon="11.759278323375508"><ele>138.0</ele><time>2026-04-12T15:18:13.001Z</time></trkpt><trkpt lat="45.78152238184554" lon="11.759429692357752"><ele>137.5</ele><time>2026-04-12T15:18:14.001Z</time></trkpt><trkpt lat="45.78125202149756" lon="11.75957394714529"><ele>137.0</ele><time>2026-04-12T15:18:15.001Z</time></trkpt><trkpt lat="45.78096744377141" lon="11.75971339855778"><ele>136.5</ele><time>2026-04-12T15:18:16.001Z</time></trkpt><trkpt lat="45.78067347726365" lon="11.759863627094187"><ele>136.0</ele><time>2026-04-12T15:18:17.001Z</time></trkpt><trkpt lat="45.78036689698554" lon="11.760019120931176"><ele>135.0</ele><time>2026-04-12T15:18:18.001Z</time></trkpt><trkpt lat="45.78006078828685" lon="11.760179750223333"><ele>134.0</ele><time>2026-04-12T15:18:19.001Z</time></trkpt><trkpt lat="45.779774444636686" lon="11.760316325793896"><ele>133.5</ele><time>2026-04-12T15:18:20.001Z</time></trkpt><trkpt lat="45.77950415432558" lon="11.760453640246523"><ele>133.0</ele><time>2026-04-12T15:18:21.001Z</time></trkpt><trkpt lat="45.7792523020704" lon="11.760582469143484"><ele>132.5</ele><time>2026-04-12T15:18:22.001Z</time></trkpt><trkpt lat="45.77898476173436" lon="11.760716127610982"><ele>132.0</ele><time>2026-04-12T15:18:23.001Z</time></trkpt><trkpt lat="45.77872041900862" lon="11.7608552756924"><ele>132.0</ele><time>2026-04-12T15:18:24.001Z</time></trkpt><trkpt lat="45.77844944420224" lon="11.760994833975612"><ele>132.0</ele><time>2026-04-12T15:18:25.001Z</time></trkpt><trkpt lat="45.77817920833059" lon="11.761131253953563"><ele>132.0</ele><time>2026-04-12T15:18:26.001Z</time></trkpt><trkpt lat="45.77791577983639" lon="11.761264274285564"><ele>132.0</ele><time>2026-04-12T15:18:27.001Z</time></trkpt><trkpt lat="45.77766324548014" lon="11.761404959187482"><ele>132.0</ele><time>2026-04-12T15:18:28.001Z</time></trkpt><trkpt lat="45.77740877464559" lon="11.761538901810773"><ele>132.0</ele><time>2026-04-12T15:18:29.001Z</time></trkpt><trkpt lat="45.77715001515586" lon="11.761675654559374"><ele>132.0</ele><time>2026-04-12T15:18:30.001Z</time></trkpt><trkpt lat="45.77687896910186" lon="11.761812338427248"><ele>132.0</ele><time>2026-04-12T15:18:31.001Z</time></trkpt><trkpt lat="45.77659305746804" lon="11.761960720785108"><ele>131.0</ele><time>2026-04-12T15:18:32.001Z</time></trkpt><trkpt lat="45.77630212161665" lon="11.762117546422555"><ele>130.0</ele><time>2026-04-12T15:18:33.001Z</time></trkpt><trkpt lat="45.77599622828916" lon="11.762278838786619"><ele>129.0</ele><time>2026-04-12T15:18:34.001Z</time></trkpt><trkpt lat="45.775700848519584" lon="11.762428349190442"><ele>128.0</ele><time>2026-04-12T15:18:35.001Z</time></trkpt><trkpt lat="45.77542571125294" lon="11.762543023537491"><ele>127.5</ele><time>2026-04-12T15:18:36.001Z</time></trkpt><trkpt lat="45.77510405860965" lon="11.762769233127626"><ele>127.0</ele><time>2026-04-12T15:18:37.001Z</time></trkpt><trkpt lat="45.77481099495144" lon="11.762932281855337"><ele>127.0</ele><time>2026-04-12T15:18:38.001Z</time></trkpt><trkpt lat="45.77451699527901" lon="11.763088732973824"><ele>127.0</ele><time>2026-04-12T15:18:39.001Z</time></trkpt><trkpt lat="45.77422013401719" lon="11.763248092936774"><ele>127.0</ele><time>2026-04-12T15:18:40.001Z</time></trkpt><trkpt lat="45.77392797907175" lon="11.763413382969995"><ele>127.0</ele><time>2026-04-12T15:18:41.001Z</time></trkpt><trkpt lat="45.77363784234292" lon="11.76357643321459"><ele>128.0</ele><time>2026-04-12T15:18:42.001Z</time></trkpt><trkpt lat="45.77334585589955" lon="11.763723715306885"><ele>129.0</ele><time>2026-04-12T15:18:43.001Z</time></trkpt><trkpt lat="45.77305455296688" lon="11.763879754325833"><ele>129.0</ele><time>2026-04-12T15:18:44.001Z</time></trkpt><trkpt lat="45.77276992056354" lon="11.764029377471251"><ele>129.0</ele><time>2026-04-12T15:18:45.001Z</time></trkpt><trkpt lat="45.772494223896636" lon="11.76418568870039"><ele>129.0</ele><time>2026-04-12T15:18:46.001Z</time></trkpt><trkpt lat="45.772240715577716" lon="11.764326643100743"><ele>129.0</ele><time>2026-04-12T15:18:47.001Z</time></trkpt><trkpt lat="45.77200532617005" lon="11.76444404391883"><ele>128.0</ele><time>2026-04-12T15:18:48.001Z</time></trkpt><trkpt lat="45.77176346690915" lon="11.764568715660422"><ele>127.0</ele><time>2026-04-12T15:18:49.001Z</time></trkpt><trkpt lat="45.7715247482692" lon="11.764700136325512"><ele>127.0</ele><time>2026-04-12T15:18:50.001Z</time></trkpt><trkpt lat="45.77129103870789" lon="11.7648370465107"><ele>127.0</ele><time>2026-04-12T15:18:51.001Z</time></trkpt><trkpt lat="45.77105805303952" lon="11.764956227929845"><ele>127.0</ele><time>2026-04-12T15:18:52.001Z</time></trkpt><trkpt lat="45.77082535247765" lon="11.765080421012103"><ele>127.0</ele><time>2026-04-12T15:18:53.001Z</time></trkpt><trkpt lat="45.770591161966394" lon="11.76520729649664"><ele>126.5</ele><time>2026-04-12T15:18:54.001Z</time></trkpt><trkpt lat="45.77035680358053" lon="11.765334507422839"><ele>126.0</ele><time>2026-04-12T15:18:55.001Z</time></trkpt><trkpt lat="45.77010857777427" lon="11.765469306070024"><ele>126.0</ele><time>2026-04-12T15:18:56.001Z</time></trkpt><trkpt lat="45.769843498581366" lon="11.765611939627032"><ele>126.0</ele><time>2026-04-12T15:18:57.001Z</time></trkpt><trkpt lat="45.76956542868338" lon="11.765766313594767"><ele>125.0</ele><time>2026-04-12T15:18:58.001Z</time></trkpt><trkpt lat="45.769254989552266" lon="11.765935080608516"><ele>124.0</ele><time>2026-04-12T15:18:59.001Z</time></trkpt><trkpt lat="45.76894591725305" lon="11.766102170628358"><ele>124.0</ele><time>2026-04-12T15:19:00.001Z</time></trkpt><trkpt lat="45.76862729760828" lon="11.766271079499866"><ele>124.0</ele><time>2026-04-12T15:19:01.001Z</time></trkpt><trkpt lat="45.76830132476477" lon="11.766442246447358"><ele>123.5</ele><time>2026-04-12T15:19:02.001Z</time></trkpt><trkpt lat="45.767980505143704" lon="11.766612129281558"><ele>123.0</ele><time>2026-04-12T15:19:03.001Z</time></trkpt><trkpt lat="45.76767195729411" lon="11.766773902497043"><ele>121.5</ele><time>2026-04-12T15:19:04.001Z</time></trkpt><trkpt lat="45.76737080517824" lon="11.766934084739798"><ele>120.0</ele><time>2026-04-12T15:19:05.001Z</time></trkpt><trkpt lat="45.76708401669478" lon="11.767080380756497"><ele>120.5</ele><time>2026-04-12T15:19:06.001Z</time></trkpt><trkpt lat="45.76680064408356" lon="11.767232254528125"><ele>121.0</ele><time>2026-04-12T15:19:07.001Z</time></trkpt><trkpt lat="45.76653488808402" lon="11.76737655499822"><ele>121.0</ele><time>2026-04-12T15:19:08.001Z</time></trkpt><trkpt lat="45.766276302612255" lon="11.767515449159825"><ele>121.0</ele><time>2026-04-12T15:19:09.001Z</time></trkpt><trkpt lat="45.76602241141159" lon="11.767651451838224"><ele>120.0</ele><time>2026-04-12T15:19:10.001Z</time></trkpt><trkpt lat="45.76577202392798" lon="11.767792193961617"><ele>119.0</ele><time>2026-04-12T15:19:11.001Z</time></trkpt><trkpt lat="45.76552372791913" lon="11.76793831842529"><ele>119.0</ele><time>2026-04-12T15:19:12.001Z</time></trkpt><trkpt lat="45.76527723855806" lon="11.768090365261635"><ele>119.0</ele><time>2026-04-12T15:19:13.001Z</time></trkpt><trkpt lat="45.765028453692175" lon="11.768258085544256"><ele>119.0</ele><time>2026-04-12T15:19:14.001Z</time></trkpt><trkpt lat="45.76477583383366" lon="11.76843800480016"><ele>119.0</ele><time>2026-04-12T15:19:15.001Z</time></trkpt><trkpt lat="45.76452171117896" lon="11.768625338265617"><ele>119.0</ele><time>2026-04-12T15:19:16.001Z</time></trkpt><trkpt lat="45.764264253336165" lon="11.768819648565264"><ele>119.0</ele><time>2026-04-12T15:19:17.001Z</time></trkpt><trkpt lat="45.764006629335626" lon="11.76901785033981"><ele>119.0</ele><time>2026-04-12T15:19:18.001Z</time></trkpt><trkpt lat="45.76374297866325" lon="11.76923225722365"><ele>119.0</ele><time>2026-04-12T15:19:19.001Z</time></trkpt><trkpt lat="45.76347572635408" lon="11.769450887905103"><ele>117.5</ele><time>2026-04-12T15:19:20.001Z</time></trkpt><trkpt lat="45.763205524012214" lon="11.76967676592002"><ele>116.0</ele><time>2026-04-12T15:19:21.001Z</time></trkpt><trkpt lat="45.762947058214955" lon="11.769890773473355"><ele>115.0</ele><time>2026-04-12T15:19:22.001Z</time></trkpt><trkpt lat="45.76269290431792" lon="11.770099418506593"><ele>114.0</ele><time>2026-04-12T15:19:23.001Z</time></trkpt><trkpt lat="45.762447368422905" lon="11.770302226688901"><ele>114.0</ele><time>2026-04-12T15:19:24.001Z</time></trkpt><trkpt lat="45.762206164338494" lon="11.770502360975911"><ele>114.0</ele><time>2026-04-12T15:19:25.001Z</time></trkpt><trkpt lat="45.76197615212419" lon="11.770693366620375"><ele>114.0</ele><time>2026-04-12T15:19:26.001Z</time></trkpt><trkpt lat="45.761757224355534" lon="11.770874603636182"><ele>114.0</ele><time>2026-04-12T15:19:27.001Z</time></trkpt><trkpt lat="45.76155022151035" lon="11.771048679948827"><ele>114.5</ele><time>2026-04-12T15:19:28.001Z</time></trkpt><trkpt lat="45.76135708023533" lon="11.771221845056138"><ele>115.0</ele><time>2026-04-12T15:19:29.001Z</time></trkpt><trkpt lat="45.76115872823906" lon="11.771386705588009"><ele>115.0</ele><time>2026-04-12T15:19:30.001Z</time></trkpt><trkpt lat="45.760946130196025" lon="11.77157241602961"><ele>115.0</ele><time>2026-04-12T15:19:31.001Z</time></trkpt><trkpt lat="45.760715070179536" lon="11.771769085097882"><ele>114.0</ele><time>2026-04-12T15:19:32.001Z</time></trkpt><trkpt lat="45.76047038728662" lon="11.771968011793522"><ele>113.0</ele><time>2026-04-12T15:19:33.001Z</time></trkpt><trkpt lat="45.760206131642775" lon="11.772152403822346"><ele>113.5</ele><time>2026-04-12T15:19:34.001Z</time></trkpt><trkpt lat="45.75992785165273" lon="11.772344533058982"><ele>114.0</ele><time>2026-04-12T15:19:35.001Z</time></trkpt><trkpt lat="45.75964343930846" lon="11.772538063594897"><ele>112.0</ele><time>2026-04-12T15:19:36.001Z</time></trkpt><trkpt lat="45.75935072915917" lon="11.772739205837782"><ele>110.0</ele><time>2026-04-12T15:19:37.001Z</time></trkpt><trkpt lat="45.75904673046178" lon="11.772947256620276"><ele>110.0</ele><time>2026-04-12T15:19:38.001Z</time></trkpt><trkpt lat="45.75873399528651" lon="11.773152773810022"><ele>110.0</ele><time>2026-04-12T15:19:39.001Z</time></trkpt><trkpt lat="45.75845157637398" lon="11.773329572143616"><ele>110.5</ele><time>2026-04-12T15:19:40.001Z</time></trkpt><trkpt lat="45.75818527408326" lon="11.773490297244741"><ele>111.0</ele><time>2026-04-12T15:19:41.001Z</time></trkpt><trkpt lat="45.75793045913993" lon="11.773637692177925"><ele>111.0</ele><time>2026-04-12T15:19:42.001Z</time></trkpt><trkpt lat="45.75768332733199" lon="11.773775824714066"><ele>111.0</ele><time>2026-04-12T15:19:43.001Z</time></trkpt><trkpt lat="45.757438514020265" lon="11.773905834700402"><ele>111.0</ele><time>2026-04-12T15:19:44.001Z</time></trkpt><trkpt lat="45.75720487206119" lon="11.774028769488023"><ele>111.0</ele><time>2026-04-12T15:19:45.001Z</time></trkpt><trkpt lat="45.7569788106702" lon="11.774141991318404"><ele>111.0</ele><time>2026-04-12T15:19:46.001Z</time></trkpt><trkpt lat="45.75674793488178" lon="11.774259167300944"><ele>111.0</ele><time>2026-04-12T15:19:47.001Z</time></trkpt><trkpt lat="45.7565095147595" lon="11.774368044145552"><ele>111.0</ele><time>2026-04-12T15:19:48.001Z</time></trkpt><trkpt lat="45.75626364545762" lon="11.77447256939239"><ele>111.0</ele><time>2026-04-12T15:19:49.001Z</time></trkpt><trkpt lat="45.7560133311108" lon="11.774591801095326"><ele>112.0</ele><time>2026-04-12T15:19:50.002Z</time></trkpt><trkpt lat="45.7557633614766" lon="11.774705989963403"><ele>113.0</ele><time>2026-04-12T15:19:51.002Z</time></trkpt><trkpt lat="45.75551054731274" lon="11.774807817381614"><ele>113.0</ele><time>2026-04-12T15:19:52.002Z</time></trkpt><trkpt lat="45.755257459389135" lon="11.774913319952326"><ele>113.0</ele><time>2026-04-12T15:19:53.002Z</time></trkpt><trkpt lat="45.75499840841483" lon="11.775021765691019"><ele>111.0</ele><time>2026-04-12T15:19:54.002Z</time></trkpt><trkpt lat="45.754743231842085" lon="11.775133507867347"><ele>109.0</ele><time>2026-04-12T15:19:55.002Z</time></trkpt><trkpt lat="45.75449518142192" lon="11.775244817431602"><ele>109.0</ele><time>2026-04-12T15:19:56.002Z</time></trkpt><trkpt lat="45.754263035841916" lon="11.775349139750139"><ele>109.0</ele><time>2026-04-12T15:19:57.002Z</time></trkpt><trkpt lat="45.754045930079755" lon="11.775451236036773"><ele>109.0</ele><time>2026-04-12T15:19:58.002Z</time></trkpt><trkpt lat="45.75381995152586" lon="11.775532323125137"><ele>109.0</ele><time>2026-04-12T15:19:59.002Z</time></trkpt><trkpt lat="45.75358808547071" lon="11.77562718479567"><ele>108.5</ele><time>2026-04-12T15:20:00.002Z</time></trkpt><trkpt lat="45.75334666244539" lon="11.775717024577894"><ele>108.0</ele><time>2026-04-12T15:20:01.002Z</time></trkpt><trkpt lat="45.75309398557639" lon="11.775798221898995"><ele>108.0</ele><time>2026-04-12T15:20:02.002Z</time></trkpt><trkpt lat="45.752836297394694" lon="11.775870345076113"><ele>108.0</ele><time>2026-04-12T15:20:03.002Z</time></trkpt><trkpt lat="45.75259342724678" lon="11.775928758420994"><ele>108.0</ele><time>2026-04-12T15:20:04.002Z</time></trkpt><trkpt lat="45.75236354968592" lon="11.77597187273792"><ele>108.0</ele><time>2026-04-12T15:20:05.002Z</time></trkpt><trkpt lat="45.75212169610503" lon="11.776016510201163"><ele>108.0</ele><time>2026-04-12T15:20:06.002Z</time></trkpt><trkpt lat="45.751880271599454" lon="11.776049836748617"><ele>108.0</ele><time>2026-04-12T15:20:07.002Z</time></trkpt><trkpt lat="45.75162639899972" lon="11.776084579996493"><ele>107.5</ele><time>2026-04-12T15:20:08.002Z</time></trkpt><trkpt lat="45.751359266694344" lon="11.776111188700302"><ele>107.0</ele><time>2026-04-12T15:20:09.002Z</time></trkpt><trkpt lat="45.751083810661726" lon="11.7761305922416"><ele>106.5</ele><time>2026-04-12T15:20:10.002Z</time></trkpt><trkpt lat="45.750802229761234" lon="11.77613924799888"><ele>106.0</ele><time>2026-04-12T15:20:11.002Z</time></trkpt><trkpt lat="45.7505287957291" lon="11.776147732866882"><ele>106.0</ele><time>2026-04-12T15:20:12.002Z</time></trkpt><trkpt lat="45.75026861430931" lon="11.776165762872353"><ele>106.0</ele><time>2026-04-12T15:20:13.002Z</time></trkpt><trkpt lat="45.75000740106207" lon="11.776173984438419"><ele>106.0</ele><time>2026-04-12T15:20:14.002Z</time></trkpt><trkpt lat="45.74976029890065" lon="11.77617336379125"><ele>106.0</ele><time>2026-04-12T15:20:15.002Z</time></trkpt><trkpt lat="45.749513794989845" lon="11.776169838646807"><ele>105.5</ele><time>2026-04-12T15:20:16.002Z</time></trkpt><trkpt lat="45.749257035938854" lon="11.776177539768687"><ele>105.0</ele><time>2026-04-12T15:20:17.002Z</time></trkpt><trkpt lat="45.748994404812024" lon="11.776186536800571"><ele>105.0</ele><time>2026-04-12T15:20:18.002Z</time></trkpt><trkpt lat="45.74873918158395" lon="11.77619126916445"><ele>105.0</ele><time>2026-04-12T15:20:19.002Z</time></trkpt><trkpt lat="45.748489953751026" lon="11.776206347595686"><ele>105.0</ele><time>2026-04-12T15:20:20.002Z</time></trkpt><trkpt lat="45.7482421640146" lon="11.776209010535569"><ele>105.0</ele><time>2026-04-12T15:20:21.002Z</time></trkpt><trkpt lat="45.74798958143447" lon="11.776210415938447"><ele>105.0</ele><time>2026-04-12T15:20:22.002Z</time></trkpt><trkpt lat="45.747742798603085" lon="11.776217627439797"><ele>105.0</ele><time>2026-04-12T15:20:23.002Z</time></trkpt><trkpt lat="45.74749626188581" lon="11.776221863418826"><ele>105.5</ele><time>2026-04-12T15:20:24.002Z</time></trkpt><trkpt lat="45.74725155532213" lon="11.776225688641002"><ele>106.0</ele><time>2026-04-12T15:20:25.002Z</time></trkpt><trkpt lat="45.74700284708901" lon="11.776224357385663"><ele>104.5</ele><time>2026-04-12T15:20:26.002Z</time></trkpt><trkpt lat="45.74675132346472" lon="11.776221127908077"><ele>103.0</ele><time>2026-04-12T15:20:27.002Z</time></trkpt><trkpt lat="45.746493643030384" lon="11.776214621643755"><ele>103.0</ele><time>2026-04-12T15:20:28.002Z</time></trkpt><trkpt lat="45.74623785238016" lon="11.776212015235545"><ele>103.0</ele><time>2026-04-12T15:20:29.002Z</time></trkpt><trkpt lat="45.74600057841291" lon="11.776210437951208"><ele>102.5</ele><time>2026-04-12T15:20:30.002Z</time></trkpt><trkpt lat="45.745770566350735" lon="11.776209528903"><ele>102.0</ele><time>2026-04-12T15:20:31.002Z</time></trkpt><trkpt lat="45.745540766308544" lon="11.77620634211544"><ele>102.0</ele><time>2026-04-12T15:20:32.002Z</time></trkpt><trkpt lat="45.74531031203408" lon="11.776203843152578"><ele>102.0</ele><time>2026-04-12T15:20:33.002Z</time></trkpt><trkpt lat="45.74509009763731" lon="11.77619665560798"><ele>102.33333333333334</ele><time>2026-04-12T15:20:34.002Z</time></trkpt><trkpt lat="45.744871727646206" lon="11.776180156711701"><ele>102.66666666666667</ele><time>2026-04-12T15:20:35.002Z</time></trkpt><trkpt lat="45.744641727144426" lon="11.776186069610917"><ele>103.0</ele><time>2026-04-12T15:20:36.002Z</time></trkpt><trkpt lat="45.74441674563747" lon="11.776121035692762"><ele>103.0</ele><time>2026-04-12T15:20:37.002Z</time></trkpt><trkpt lat="45.74419555158917" lon="11.776085357786167"><ele>103.0</ele><time>2026-04-12T15:20:38.002Z</time></trkpt><trkpt lat="45.74398139157416" lon="11.77604883092791"><ele>103.0</ele><time>2026-04-12T15:20:39.002Z</time></trkpt><trkpt lat="45.74376308985356" lon="11.776010547585742"><ele>102.66666666666667</ele><time>2026-04-12T15:20:40.002Z</time></trkpt><trkpt lat="45.743552281550755" lon="11.77596862284311"><ele>102.33333333333334</ele><time>2026-04-12T15:20:41.002Z</time></trkpt><trkpt lat="45.74336101977444" lon="11.77590180538627"><ele>102.0</ele><time>2026-04-12T15:20:42.002Z</time></trkpt><trkpt lat="45.743175300322754" lon="11.775858904960408"><ele>102.0</ele><time>2026-04-12T15:20:43.002Z</time></trkpt><trkpt lat="45.742999139303805" lon="11.775780268476087"><ele>102.0</ele><time>2026-04-12T15:20:44.002Z</time></trkpt><trkpt lat="45.74280530481139" lon="11.775659913198707"><ele>102.0</ele><time>2026-04-12T15:20:45.002Z</time></trkpt><trkpt lat="45.74261427440518" lon="11.77551126628949"><ele>102.0</ele><time>2026-04-12T15:20:46.002Z</time></trkpt><trkpt lat="45.74243954895453" lon="11.775368152425992"><ele>102.0</ele><time>2026-04-12T15:20:47.002Z</time></trkpt><trkpt lat="45.74228350289388" lon="11.775252665995472"><ele>102.0</ele><time>2026-04-12T15:20:48.002Z</time></trkpt><trkpt lat="45.74213787136751" lon="11.775161134584273"><ele>102.0</ele><time>2026-04-12T15:20:49.002Z</time></trkpt><trkpt lat="45.74200465391094" lon="11.775094991298213"><ele>102.0</ele><time>2026-04-12T15:20:50.002Z</time></trkpt><trkpt lat="45.74189812726305" lon="11.775056130236909"><ele>102.0</ele><time>2026-04-12T15:20:51.002Z</time></trkpt><trkpt lat="45.74181958767095" lon="11.775022898689782"><ele>102.0</ele><time>2026-04-12T15:20:52.002Z</time></trkpt><trkpt lat="45.74175824529024" lon="11.774932463626172"><ele>102.0</ele><time>2026-04-12T15:20:53.002Z</time></trkpt><trkpt lat="45.74170920042826" lon="11.774800474880434"><ele>102.39999999999999</ele><time>2026-04-12T15:20:54.002Z</time></trkpt><trkpt lat="45.741633003647124" lon="11.774688560964186"><ele>102.8</ele><time>2026-04-12T15:20:55.002Z</time></trkpt><trkpt lat="45.74153937691739" lon="11.774629299872418"><ele>103.2</ele><time>2026-04-12T15:20:56.002Z</time></trkpt><trkpt lat="45.74143460302975" lon="11.774631304065027"><ele>103.6</ele><time>2026-04-12T15:20:57.002Z</time></trkpt><trkpt lat="45.741328713703844" lon="11.774692324496371"><ele>104.0</ele><time>2026-04-12T15:20:58.002Z</time></trkpt><trkpt lat="45.74123773415975" lon="11.774792706299621"><ele>104.0</ele><time>2026-04-12T15:20:59.002Z</time></trkpt><trkpt lat="45.741145903993555" lon="11.77486650807078"><ele>104.0</ele><time>2026-04-12T15:21:00.002Z</time></trkpt><trkpt lat="45.741043247898794" lon="11.77486207894766"><ele>104.0</ele><time>2026-04-12T15:21:01.002Z</time></trkpt><trkpt lat="45.7409447105788" lon="11.774881801670487"><ele>104.0</ele><time>2026-04-12T15:21:02.002Z</time></trkpt><trkpt lat="45.74083512959879" lon="11.774670528607178"><ele>103.75</ele><time>2026-04-12T15:21:03.002Z</time></trkpt><trkpt lat="45.740749201603165" lon="11.774504618124489"><ele>103.5</ele><time>2026-04-12T15:21:04.002Z</time></trkpt><trkpt lat="45.740660230378666" lon="11.77433418100166"><ele>103.25</ele><time>2026-04-12T15:21:05.002Z</time></trkpt><trkpt lat="45.74055904142962" lon="11.774182489932105"><ele>103.0</ele><time>2026-04-12T15:21:06.002Z</time></trkpt><trkpt lat="45.740448125909545" lon="11.774037846241223"><ele>103.0</ele><time>2026-04-12T15:21:07.002Z</time></trkpt><trkpt lat="45.74034471083323" lon="11.773917115654571"><ele>103.0</ele><time>2026-04-12T15:21:08.002Z</time></trkpt><trkpt lat="45.74023213076058" lon="11.773858442710912"><ele>103.0</ele><time>2026-04-12T15:21:09.002Z</time></trkpt><trkpt lat="45.74009399169941" lon="11.77388216748318"><ele>103.0</ele><time>2026-04-12T15:21:10.002Z</time></trkpt><trkpt lat="45.7399958932861" lon="11.773852836446403"><ele>103.0</ele><time>2026-04-12T15:21:11.002Z</time></trkpt><trkpt lat="45.739890768812245" lon="11.773836748125499"><ele>103.0</ele><time>2026-04-12T15:21:12.002Z</time></trkpt><trkpt lat="45.73978094723676" lon="11.773804053911459"><ele>103.0</ele><time>2026-04-12T15:21:13.002Z</time></trkpt><trkpt lat="45.739669372387596" lon="11.773807302372019"><ele>103.0</ele><time>2026-04-12T15:21:14.002Z</time></trkpt><trkpt lat="45.73962610696225" lon="11.77355382480048"><ele>103.33333333333334</ele><time>2026-04-12T15:21:15.002Z</time></trkpt><trkpt lat="45.7395354566411" lon="11.773428921417278"><ele>103.66666666666666</ele><time>2026-04-12T15:21:16.002Z</time></trkpt><trkpt lat="45.73950194428279" lon="11.773204526926005"><ele>104.0</ele><time>2026-04-12T15:21:17.002Z</time></trkpt><trkpt lat="45.73943203654656" lon="11.772968718952065"><ele>103.33333333333333</ele><time>2026-04-12T15:21:18.002Z</time></trkpt><trkpt lat="45.73937057801047" lon="11.772745459488826"><ele>102.66666666666666</ele><time>2026-04-12T15:21:19.002Z</time></trkpt><trkpt lat="45.739300916478825" lon="11.772541390924559"><ele>102.0</ele><time>2026-04-12T15:21:20.002Z</time></trkpt><trkpt lat="45.73924855850831" lon="11.772332957326029"><ele>101.75</ele><time>2026-04-12T15:21:21.002Z</time></trkpt><trkpt lat="45.739226032490215" lon="11.772118100036732"><ele>101.5</ele><time>2026-04-12T15:21:22.002Z</time></trkpt><trkpt lat="45.739188741940154" lon="11.771913091057339"><ele>101.25</ele><time>2026-04-12T15:21:23.002Z</time></trkpt><trkpt lat="45.739140461939435" lon="11.771717664999985"><ele>101.0</ele><time>2026-04-12T15:21:24.002Z</time></trkpt><trkpt lat="45.73911114778413" lon="11.771515087473347"><ele>101.0</ele><time>2026-04-12T15:21:25.002Z</time></trkpt><trkpt lat="45.73908386870872" lon="11.771317280738645"><ele>101.0</ele><time>2026-04-12T15:21:26.002Z</time></trkpt><trkpt lat="45.739058892099294" lon="11.771122712829337"><ele>101.0</ele><time>2026-04-12T15:21:27.002Z</time></trkpt><trkpt lat="45.73905556514971" lon="11.770943782131866"><ele>101.0</ele><time>2026-04-12T15:21:28.002Z</time></trkpt><trkpt lat="45.739027414160184" lon="11.770745430252623"><ele>101.19999999999999</ele><time>2026-04-12T15:21:29.002Z</time></trkpt><trkpt lat="45.738996069890625" lon="11.770562604076853"><ele>101.39999999999999</ele><time>2026-04-12T15:21:30.002Z</time></trkpt><trkpt lat="45.73896953328889" lon="11.770401466119914"><ele>101.6</ele><time>2026-04-12T15:21:31.002Z</time></trkpt><trkpt lat="45.738942129183044" lon="11.770264884084932"><ele>101.8</ele><time>2026-04-12T15:21:32.002Z</time></trkpt><trkpt lat="45.73892350700118" lon="11.770174911363275"><ele>102.0</ele><time>2026-04-12T15:21:33.002Z</time></trkpt><trkpt lat="45.73889058759876" lon="11.770027121354435"><ele>102.0</ele><time>2026-04-12T15:21:35.002Z</time></trkpt><trkpt lat="45.738865844073125" lon="11.76988234091389"><ele>102.0</ele><time>2026-04-12T15:21:37.002Z</time></trkpt><trkpt lat="45.738855960952854" lon="11.769781862965724"><ele>102.0</ele><time>2026-04-12T15:21:39.002Z</time></trkpt><trkpt lat="45.73882826261765" lon="11.769673433248185"><ele>102.0</ele><time>2026-04-12T15:21:40.002Z</time></trkpt><trkpt lat="45.73880702647838" lon="11.76950126455555"><ele>102.0</ele><time>2026-04-12T15:21:41.002Z</time></trkpt><trkpt lat="45.73876549645805" lon="11.76930209148239"><ele>102.0</ele><time>2026-04-12T15:21:42.002Z</time></trkpt><trkpt lat="45.738734060851364" lon="11.769116858012291"><ele>102.0</ele><time>2026-04-12T15:21:43.002Z</time></trkpt><trkpt lat="45.738691019209604" lon="11.768949830457586"><ele>102.0</ele><time>2026-04-12T15:21:44.002Z</time></trkpt><trkpt lat="45.7386634699967" lon="11.768802381460548"><ele>102.0</ele><time>2026-04-12T15:21:45.002Z</time></trkpt><trkpt lat="45.738650560142894" lon="11.768656253824766"><ele>102.0</ele><time>2026-04-12T15:21:46.002Z</time></trkpt><trkpt lat="45.738614064476856" lon="11.768511626302608"><ele>102.0</ele><time>2026-04-12T15:21:47.002Z</time></trkpt><trkpt lat="45.738569256201906" lon="11.768388733164322"><ele>102.0</ele><time>2026-04-12T15:21:48.002Z</time></trkpt><trkpt lat="45.738506569633486" lon="11.768245396354947"><ele>102.0</ele><time>2026-04-12T15:21:49.002Z</time></trkpt><trkpt lat="45.73846091259977" lon="11.768101356129351"><ele>102.0</ele><time>2026-04-12T15:21:50.002Z</time></trkpt><trkpt lat="45.73842006426283" lon="11.767946053351434"><ele>102.25</ele><time>2026-04-12T15:21:51.002Z</time></trkpt><trkpt lat="45.73838619898804" lon="11.767784477233754"><ele>102.5</ele><time>2026-04-12T15:21:52.002Z</time></trkpt><trkpt lat="45.73835162722035" lon="11.76760692206985"><ele>102.75</ele><time>2026-04-12T15:21:53.002Z</time></trkpt><trkpt lat="45.738320938056475" lon="11.767417228560584"><ele>103.0</ele><time>2026-04-12T15:21:54.002Z</time></trkpt><trkpt lat="45.738286293775964" lon="11.767216928078584"><ele>103.0</ele><time>2026-04-12T15:21:55.002Z</time></trkpt><trkpt lat="45.73824877257666" lon="11.76700011190514"><ele>103.0</ele><time>2026-04-12T15:21:56.002Z</time></trkpt><trkpt lat="45.738202588307765" lon="11.766719906294066"><ele>103.0</ele><time>2026-04-12T15:21:57.002Z</time></trkpt><trkpt lat="45.738132014383154" lon="11.766400423137277"><ele>102.5</ele><time>2026-04-12T15:21:58.002Z</time></trkpt><trkpt lat="45.738060480686975" lon="11.76603592572071"><ele>102.0</ele><time>2026-04-12T15:21:59.002Z</time></trkpt><trkpt lat="45.737999559172366" lon="11.76570421599536"><ele>102.0</ele><time>2026-04-12T15:22:00.002Z</time></trkpt><trkpt lat="45.73794870541086" lon="11.765388557962089"><ele>102.0</ele><time>2026-04-12T15:22:01.002Z</time></trkpt><trkpt lat="45.73788674230054" lon="11.765061388380772"><ele>102.0</ele><time>2026-04-12T15:22:02.002Z</time></trkpt><trkpt lat="45.737823515303255" lon="11.764726386256793"><ele>102.0</ele><time>2026-04-12T15:22:03.002Z</time></trkpt><trkpt lat="45.73776425046198" lon="11.764386875432749"><ele>102.5</ele><time>2026-04-12T15:22:04.002Z</time></trkpt><trkpt lat="45.73769795961648" lon="11.764020011165073"><ele>103.0</ele><time>2026-04-12T15:22:05.002Z</time></trkpt><trkpt lat="45.73762908470525" lon="11.763632746242923"><ele>102.0</ele><time>2026-04-12T15:22:06.002Z</time></trkpt><trkpt lat="45.7375560969917" lon="11.763192391933062"><ele>101.0</ele><time>2026-04-12T15:22:07.002Z</time></trkpt><trkpt lat="45.737485661454826" lon="11.762735504701887"><ele>101.0</ele><time>2026-04-12T15:22:08.002Z</time></trkpt><trkpt lat="45.73741913603948" lon="11.762313033888756"><ele>101.0</ele><time>2026-04-12T15:22:09.002Z</time></trkpt><trkpt lat="45.73735692864824" lon="11.761927845147735"><ele>101.0</ele><time>2026-04-12T15:22:10.002Z</time></trkpt><trkpt lat="45.73728799204923" lon="11.761510480595044"><ele>101.0</ele><time>2026-04-12T15:22:11.002Z</time></trkpt><trkpt lat="45.73722564975857" lon="11.761054089782707"><ele>102.0</ele><time>2026-04-12T15:22:12.002Z</time></trkpt><trkpt lat="45.7371522905721" lon="11.760581320160693"><ele>103.0</ele><time>2026-04-12T15:22:13.002Z</time></trkpt><trkpt lat="45.737085956875134" lon="11.76013913848715"><ele>103.0</ele><time>2026-04-12T15:22:14.002Z</time></trkpt><trkpt lat="45.73703005146716" lon="11.759734039587476"><ele>103.0</ele><time>2026-04-12T15:22:15.002Z</time></trkpt><trkpt lat="45.736974822247824" lon="11.759335710628635"><ele>103.0</ele><time>2026-04-12T15:22:16.002Z</time></trkpt><trkpt lat="45.73691762950935" lon="11.758911142978658"><ele>103.0</ele><time>2026-04-12T15:22:17.002Z</time></trkpt><trkpt lat="45.73686712605435" lon="11.758491005885517"><ele>102.0</ele><time>2026-04-12T15:22:18.002Z</time></trkpt><trkpt lat="45.73680619563408" lon="11.758035071772133"><ele>101.0</ele><time>2026-04-12T15:22:19.002Z</time></trkpt><trkpt lat="45.73675391556942" lon="11.757616126420562"><ele>101.0</ele><time>2026-04-12T15:22:20.002Z</time></trkpt><trkpt lat="45.73670249807165" lon="11.757218471092205"><ele>101.0</ele><time>2026-04-12T15:22:21.002Z</time></trkpt><trkpt lat="45.73664944166609" lon="11.75680285481534"><ele>101.0</ele><time>2026-04-12T15:22:22.002Z</time></trkpt><trkpt lat="45.73659792421037" lon="11.756387926070357"><ele>101.0</ele><time>2026-04-12T15:22:23.002Z</time></trkpt><trkpt lat="45.73654336385476" lon="11.755956652550452"><ele>101.0</ele><time>2026-04-12T15:22:24.002Z</time></trkpt><trkpt lat="45.73648943240914" lon="11.755524866308956"><ele>101.0</ele><time>2026-04-12T15:22:25.002Z</time></trkpt><trkpt lat="45.73643202344542" lon="11.755101262443276"><ele>101.0</ele><time>2026-04-12T15:22:26.002Z</time></trkpt><trkpt lat="45.73637646778407" lon="11.75466916344916"><ele>101.0</ele><time>2026-04-12T15:22:27.002Z</time></trkpt><trkpt lat="45.736320856201715" lon="11.754240739931179"><ele>101.0</ele><time>2026-04-12T15:22:28.002Z</time></trkpt><trkpt lat="45.736266007532606" lon="11.753816032999342"><ele>101.0</ele><time>2026-04-12T15:22:29.002Z</time></trkpt><trkpt lat="45.736212464655075" lon="11.75341160788322"><ele>100.5</ele><time>2026-04-12T15:22:30.002Z</time></trkpt><trkpt lat="45.73615915697059" lon="11.753005802804255"><ele>100.0</ele><time>2026-04-12T15:22:31.002Z</time></trkpt><trkpt lat="45.73610855388138" lon="11.752592753770788"><ele>100.5</ele><time>2026-04-12T15:22:32.002Z</time></trkpt><trkpt lat="45.73606689472232" lon="11.752169204489725"><ele>101.0</ele><time>2026-04-12T15:22:33.002Z</time></trkpt><trkpt lat="45.7360312853599" lon="11.751744517969037"><ele>101.0</ele><time>2026-04-12T15:22:34.002Z</time></trkpt><trkpt lat="45.73600286000052" lon="11.751312396885076"><ele>101.0</ele><time>2026-04-12T15:22:35.002Z</time></trkpt><trkpt lat="45.735985033319075" lon="11.750875619654058"><ele>101.0</ele><time>2026-04-12T15:22:36.002Z</time></trkpt><trkpt lat="45.735976564781616" lon="11.750431595751543"><ele>101.0</ele><time>2026-04-12T15:22:37.002Z</time></trkpt><trkpt lat="45.735969608608315" lon="11.749975535537672"><ele>101.0</ele><time>2026-04-12T15:22:38.002Z</time></trkpt><trkpt lat="45.735977561445466" lon="11.749514043451736"><ele>101.0</ele><time>2026-04-12T15:22:39.002Z</time></trkpt><trkpt lat="45.73598204047456" lon="11.74905369937684"><ele>101.5</ele><time>2026-04-12T15:22:40.002Z</time></trkpt><trkpt lat="45.736002536429645" lon="11.748604271425991"><ele>102.0</ele><time>2026-04-12T15:22:41.002Z</time></trkpt><trkpt lat="45.73603625760373" lon="11.748165548175747"><ele>102.5</ele><time>2026-04-12T15:22:42.002Z</time></trkpt><trkpt lat="45.73607645333662" lon="11.747731433492051"><ele>103.0</ele><time>2026-04-12T15:22:43.002Z</time></trkpt><trkpt lat="45.736125938538315" lon="11.747318837944938"><ele>101.0</ele><time>2026-04-12T15:22:44.002Z</time></trkpt><trkpt lat="45.73611605340247" lon="11.74681344714135"><ele>99.0</ele><time>2026-04-12T15:22:45.002Z</time></trkpt><trkpt lat="45.73613131715298" lon="11.746354845629062"><ele>100.5</ele><time>2026-04-12T15:22:46.002Z</time></trkpt><trkpt lat="45.73615277862546" lon="11.74590712063267"><ele>102.0</ele><time>2026-04-12T15:22:47.002Z</time></trkpt><trkpt lat="45.736172516698666" lon="11.745465423408115"><ele>101.5</ele><time>2026-04-12T15:22:48.002Z</time></trkpt><trkpt lat="45.73619484756984" lon="11.74502951934023"><ele>101.0</ele><time>2026-04-12T15:22:49.002Z</time></trkpt><trkpt lat="45.736224138137345" lon="11.74460062878091"><ele>101.5</ele><time>2026-04-12T15:22:50.002Z</time></trkpt><trkpt lat="45.736248262151506" lon="11.744167140417463"><ele>102.0</ele><time>2026-04-12T15:22:51.002Z</time></trkpt><trkpt lat="45.73627380589644" lon="11.743734968399025"><ele>102.5</ele><time>2026-04-12T15:22:52.002Z</time></trkpt><trkpt lat="45.73629802722398" lon="11.743305276040557"><ele>103.0</ele><time>2026-04-12T15:22:53.002Z</time></trkpt><trkpt lat="45.736318877216945" lon="11.742876738775598"><ele>103.0</ele><time>2026-04-12T15:22:54.002Z</time></trkpt><trkpt lat="45.736342464208114" lon="11.742464759841218"><ele>103.0</ele><time>2026-04-12T15:22:55.002Z</time></trkpt><trkpt lat="45.736364973377114" lon="11.74206150243436"><ele>103.0</ele><time>2026-04-12T15:22:56.002Z</time></trkpt><trkpt lat="45.73638111380231" lon="11.741674907117556"><ele>103.0</ele><time>2026-04-12T15:22:57.002Z</time></trkpt><trkpt lat="45.73639055135512" lon="11.741284077757781"><ele>102.0</ele><time>2026-04-12T15:22:58.002Z</time></trkpt><trkpt lat="45.73639887885074" lon="11.74089302546626"><ele>101.0</ele><time>2026-04-12T15:22:59.002Z</time></trkpt><trkpt lat="45.736410437685194" lon="11.74049891988564"><ele>100.0</ele><time>2026-04-12T15:23:00.002Z</time></trkpt><trkpt lat="45.73652190320238" lon="11.740005579683714"><ele>99.0</ele><time>2026-04-12T15:23:01.002Z</time></trkpt><trkpt lat="45.73657808666436" lon="11.739548820641058"><ele>99.5</ele><time>2026-04-12T15:23:02.002Z</time></trkpt><trkpt lat="45.73664058193003" lon="11.739085108682922"><ele>100.0</ele><time>2026-04-12T15:23:03.002Z</time></trkpt><trkpt lat="45.73672032047896" lon="11.738605858681874"><ele>100.5</ele><time>2026-04-12T15:23:04.002Z</time></trkpt><trkpt lat="45.73680724925543" lon="11.738126632444065"><ele>101.0</ele><time>2026-04-12T15:23:05.002Z</time></trkpt><trkpt lat="45.73690665961522" lon="11.737656894264939"><ele>101.5</ele><time>2026-04-12T15:23:06.002Z</time></trkpt><trkpt lat="45.737013430619044" lon="11.737195261079176"><ele>102.0</ele><time>2026-04-12T15:23:07.002Z</time></trkpt><trkpt lat="45.73712080631671" lon="11.73673092402785"><ele>101.5</ele><time>2026-04-12T15:23:08.002Z</time></trkpt><trkpt lat="45.737224771360516" lon="11.736266425911587"><ele>101.0</ele><time>2026-04-12T15:23:09.002Z</time></trkpt><trkpt lat="45.7373292279392" lon="11.73579730319726"><ele>101.0</ele><time>2026-04-12T15:23:10.002Z</time></trkpt><trkpt lat="45.73743807577229" lon="11.73534465090046"><ele>101.0</ele><time>2026-04-12T15:23:11.002Z</time></trkpt><trkpt lat="45.737542921308446" lon="11.73488548819292"><ele>100.5</ele><time>2026-04-12T15:23:12.002Z</time></trkpt><trkpt lat="45.737642215234914" lon="11.73442143006805"><ele>100.0</ele><time>2026-04-12T15:23:13.002Z</time></trkpt><trkpt lat="45.73774906395816" lon="11.73396153188888"><ele>100.0</ele><time>2026-04-12T15:23:14.002Z</time></trkpt><trkpt lat="45.73785730055385" lon="11.733506463695697"><ele>100.0</ele><time>2026-04-12T15:23:15.002Z</time></trkpt><trkpt lat="45.737963559920864" lon="11.733047008974497"><ele>99.5</ele><time>2026-04-12T15:23:16.002Z</time></trkpt><trkpt lat="45.73806786648694" lon="11.732597458331318"><ele>99.0</ele><time>2026-04-12T15:23:17.002Z</time></trkpt><trkpt lat="45.738167188534405" lon="11.732149573771943"><ele>99.5</ele><time>2026-04-12T15:23:18.002Z</time></trkpt><trkpt lat="45.73826707416056" lon="11.73170756868294"><ele>100.0</ele><time>2026-04-12T15:23:19.002Z</time></trkpt><trkpt lat="45.7383580843513" lon="11.731280470385732"><ele>99.0</ele><time>2026-04-12T15:23:20.002Z</time></trkpt><trkpt lat="45.73846336168762" lon="11.730841446421573"><ele>98.0</ele><time>2026-04-12T15:23:21.002Z</time></trkpt><trkpt lat="45.738533350146184" lon="11.730411862031787"><ele>97.5</ele><time>2026-04-12T15:23:22.002Z</time></trkpt><trkpt lat="45.73861468090296" lon="11.729995669201042"><ele>97.0</ele><time>2026-04-12T15:23:23.002Z</time></trkpt><trkpt lat="45.738685176572126" lon="11.729575597015613"><ele>96.5</ele><time>2026-04-12T15:23:24.002Z</time></trkpt><trkpt lat="45.73874447768138" lon="11.729148540683637"><ele>96.0</ele><time>2026-04-12T15:23:25.002Z</time></trkpt><trkpt lat="45.73879903449599" lon="11.728714853461865"><ele>95.5</ele><time>2026-04-12T15:23:26.002Z</time></trkpt><trkpt lat="45.73884241244859" lon="11.728278503136034"><ele>95.0</ele><time>2026-04-12T15:23:27.002Z</time></trkpt><trkpt lat="45.73888025812461" lon="11.7278389279149"><ele>96.5</ele><time>2026-04-12T15:23:28.002Z</time></trkpt><trkpt lat="45.738905908824904" lon="11.727394436047748"><ele>98.0</ele><time>2026-04-12T15:23:29.002Z</time></trkpt><trkpt lat="45.738924725503374" lon="11.72694290685909"><ele>98.0</ele><time>2026-04-12T15:23:30.002Z</time></trkpt><trkpt lat="45.738935969365926" lon="11.726497561639542"><ele>98.0</ele><time>2026-04-12T15:23:31.002Z</time></trkpt><trkpt lat="45.73893908455487" lon="11.726048095874429"><ele>98.0</ele><time>2026-04-12T15:23:32.002Z</time></trkpt><trkpt lat="45.73893139235889" lon="11.72563025592086"><ele>98.0</ele><time>2026-04-12T15:23:33.002Z</time></trkpt><trkpt lat="45.738919863765965" lon="11.72522296436402"><ele>98.0</ele><time>2026-04-12T15:23:34.002Z</time></trkpt><trkpt lat="45.73890290877083" lon="11.724834793676516"><ele>98.0</ele><time>2026-04-12T15:23:35.002Z</time></trkpt><trkpt lat="45.7388760235029" lon="11.724424916719833"><ele>97.0</ele><time>2026-04-12T15:23:36.002Z</time></trkpt><trkpt lat="45.73883997910344" lon="11.723990551318133"><ele>96.0</ele><time>2026-04-12T15:23:37.002Z</time></trkpt><trkpt lat="45.738794649953704" lon="11.723530341320794"><ele>96.0</ele><time>2026-04-12T15:23:38.002Z</time></trkpt><trkpt lat="45.738748753306155" lon="11.723062774390687"><ele>96.0</ele><time>2026-04-12T15:23:39.002Z</time></trkpt><trkpt lat="45.73870083577077" lon="11.722576003229065"><ele>96.0</ele><time>2026-04-12T15:23:40.002Z</time></trkpt><trkpt lat="45.738648328646875" lon="11.72206569853251"><ele>96.0</ele><time>2026-04-12T15:23:41.002Z</time></trkpt><trkpt lat="45.73860654816497" lon="11.721558713085745"><ele>95.5</ele><time>2026-04-12T15:23:42.002Z</time></trkpt><trkpt lat="45.738559298732355" lon="11.721048585834223"><ele>95.0</ele><time>2026-04-12T15:23:43.002Z</time></trkpt><trkpt lat="45.738510644756836" lon="11.720554203661436"><ele>95.5</ele><time>2026-04-12T15:23:44.002Z</time></trkpt><trkpt lat="45.73846386605589" lon="11.720056158294188"><ele>96.0</ele><time>2026-04-12T15:23:45.002Z</time></trkpt><trkpt lat="45.73841879276598" lon="11.719568366124877"><ele>96.0</ele><time>2026-04-12T15:23:46.002Z</time></trkpt><trkpt lat="45.738373835836285" lon="11.71909035088213"><ele>96.0</ele><time>2026-04-12T15:23:47.002Z</time></trkpt><trkpt lat="45.738333152208064" lon="11.718613724549018"><ele>96.0</ele><time>2026-04-12T15:23:48.002Z</time></trkpt><trkpt lat="45.738293223346616" lon="11.718145270044468"><ele>96.0</ele><time>2026-04-12T15:23:49.002Z</time></trkpt><trkpt lat="45.73825342743702" lon="11.717686384910888"><ele>96.5</ele><time>2026-04-12T15:23:50.002Z</time></trkpt><trkpt lat="45.73820924286356" lon="11.717228295750202"><ele>97.0</ele><time>2026-04-12T15:23:51.002Z</time></trkpt><trkpt lat="45.738167984080036" lon="11.71676942561154"><ele>96.0</ele><time>2026-04-12T15:23:52.002Z</time></trkpt><trkpt lat="45.738123893018724" lon="11.71631213417682"><ele>95.0</ele><time>2026-04-12T15:23:53.002Z</time></trkpt><trkpt lat="45.73808134609739" lon="11.715850766027987"><ele>95.0</ele><time>2026-04-12T15:23:54.002Z</time></trkpt><trkpt lat="45.73803794130937" lon="11.715394073720669"><ele>95.0</ele><time>2026-04-12T15:23:55.002Z</time></trkpt><trkpt lat="45.73799627797367" lon="11.714943985131201"><ele>94.5</ele><time>2026-04-12T15:23:56.002Z</time></trkpt><trkpt lat="45.73791781826954" lon="11.714446971795013"><ele>94.0</ele><time>2026-04-12T15:23:57.002Z</time></trkpt><trkpt lat="45.73786512721572" lon="11.71391020567072"><ele>93.5</ele><time>2026-04-12T15:23:58.002Z</time></trkpt><trkpt lat="45.73781893577161" lon="11.713339187674046"><ele>93.0</ele><time>2026-04-12T15:23:59.002Z</time></trkpt><trkpt lat="45.737857326494996" lon="11.71311790958632"><ele>92.5</ele><time>2026-04-12T15:24:00.002Z</time></trkpt><trkpt lat="45.73782169732458" lon="11.712642698136719"><ele>92.0</ele><time>2026-04-12T15:24:01.002Z</time></trkpt><trkpt lat="45.73779163046097" lon="11.712166143569313"><ele>93.0</ele><time>2026-04-12T15:24:02.003Z</time></trkpt><trkpt lat="45.73777589728797" lon="11.711689104954258"><ele>94.0</ele><time>2026-04-12T15:24:03.003Z</time></trkpt><trkpt lat="45.737765862209514" lon="11.71120876698361"><ele>94.0</ele><time>2026-04-12T15:24:04.003Z</time></trkpt><trkpt lat="45.73776702429499" lon="11.710729367204372"><ele>94.0</ele><time>2026-04-12T15:24:05.003Z</time></trkpt><trkpt lat="45.73777907377453" lon="11.71023442527696"><ele>94.0</ele><time>2026-04-12T15:24:06.003Z</time></trkpt><trkpt lat="45.73779354064051" lon="11.70974213746855"><ele>94.0</ele><time>2026-04-12T15:24:07.003Z</time></trkpt><trkpt lat="45.73782412744377" lon="11.709261233349581"><ele>93.5</ele><time>2026-04-12T15:24:08.003Z</time></trkpt><trkpt lat="45.73786012607032" lon="11.708782216553347"><ele>93.0</ele><time>2026-04-12T15:24:09.003Z</time></trkpt><trkpt lat="45.73789339125086" lon="11.708297721579303"><ele>92.5</ele><time>2026-04-12T15:24:10.003Z</time></trkpt><trkpt lat="45.73792992926161" lon="11.707819360481219"><ele>92.0</ele><time>2026-04-12T15:24:11.003Z</time></trkpt><trkpt lat="45.73796630499958" lon="11.707355595708865"><ele>91.5</ele><time>2026-04-12T15:24:12.003Z</time></trkpt><trkpt lat="45.7380021312582" lon="11.706896118269642"><ele>91.0</ele><time>2026-04-12T15:24:13.003Z</time></trkpt><trkpt lat="45.73803570096909" lon="11.706436345491047"><ele>90.5</ele><time>2026-04-12T15:24:14.003Z</time></trkpt><trkpt lat="45.73806988880411" lon="11.705980298532113"><ele>90.0</ele><time>2026-04-12T15:24:15.003Z</time></trkpt><trkpt lat="45.73810824674775" lon="11.70552719325184"><ele>92.0</ele><time>2026-04-12T15:24:16.003Z</time></trkpt><trkpt lat="45.73814263043067" lon="11.705076708748972"><ele>94.0</ele><time>2026-04-12T15:24:17.003Z</time></trkpt><trkpt lat="45.738178820528006" lon="11.704623991709479"><ele>92.5</ele><time>2026-04-12T15:24:18.003Z</time></trkpt><trkpt lat="45.738213755158405" lon="11.704172370696462"><ele>91.0</ele><time>2026-04-12T15:24:19.003Z</time></trkpt><trkpt lat="45.738245563956916" lon="11.703713271422997"><ele>91.0</ele><time>2026-04-12T15:24:20.003Z</time></trkpt><trkpt lat="45.73827810267578" lon="11.703238579729234"><ele>91.0</ele><time>2026-04-12T15:24:21.003Z</time></trkpt><trkpt lat="45.73830012093778" lon="11.702722695442896"><ele>91.0</ele><time>2026-04-12T15:24:22.003Z</time></trkpt><trkpt lat="45.73833610922782" lon="11.702206511573026"><ele>91.0</ele><time>2026-04-12T15:24:23.003Z</time></trkpt><trkpt lat="45.73837567008876" lon="11.701677442217223"><ele>90.0</ele><time>2026-04-12T15:24:24.003Z</time></trkpt><trkpt lat="45.738411619319166" lon="11.701142461081584"><ele>89.0</ele><time>2026-04-12T15:24:25.003Z</time></trkpt><trkpt lat="45.73844143852355" lon="11.700630667646713"><ele>87.5</ele><time>2026-04-12T15:24:26.003Z</time></trkpt><trkpt lat="45.73847695765876" lon="11.70014834001458"><ele>86.0</ele><time>2026-04-12T15:24:27.003Z</time></trkpt><trkpt lat="45.73850230730261" lon="11.699667087422183"><ele>86.5</ele><time>2026-04-12T15:24:28.003Z</time></trkpt><trkpt lat="45.73853414072858" lon="11.699188824732962"><ele>87.0</ele><time>2026-04-12T15:24:29.003Z</time></trkpt><trkpt lat="45.738562654400575" lon="11.698709516751814"><ele>86.5</ele><time>2026-04-12T15:24:30.003Z</time></trkpt><trkpt lat="45.73858029676483" lon="11.69822504284475"><ele>86.0</ele><time>2026-04-12T15:24:31.003Z</time></trkpt><trkpt lat="45.738607099989544" lon="11.697742031725479"><ele>86.0</ele><time>2026-04-12T15:24:32.003Z</time></trkpt><trkpt lat="45.73863604709478" lon="11.697258551854253"><ele>86.0</ele><time>2026-04-12T15:24:33.003Z</time></trkpt><trkpt lat="45.738656216509014" lon="11.696773816085546"><ele>86.0</ele><time>2026-04-12T15:24:34.003Z</time></trkpt><trkpt lat="45.73867475759707" lon="11.696286995382627"><ele>86.0</ele><time>2026-04-12T15:24:35.003Z</time></trkpt><trkpt lat="45.73868818991746" lon="11.695802777581715"><ele>87.0</ele><time>2026-04-12T15:24:36.003Z</time></trkpt><trkpt lat="45.73870651656493" lon="11.695319412600858"><ele>88.0</ele><time>2026-04-12T15:24:37.003Z</time></trkpt><trkpt lat="45.738715565502964" lon="11.694828048434275"><ele>87.5</ele><time>2026-04-12T15:24:38.003Z</time></trkpt><trkpt lat="45.738727450439605" lon="11.694347177237903"><ele>87.0</ele><time>2026-04-12T15:24:39.003Z</time></trkpt><trkpt lat="45.73873264894358" lon="11.693857411525117"><ele>87.0</ele><time>2026-04-12T15:24:40.003Z</time></trkpt><trkpt lat="45.738740351037244" lon="11.693359648090953"><ele>87.0</ele><time>2026-04-12T15:24:41.003Z</time></trkpt><trkpt lat="45.73874249764391" lon="11.692837905659795"><ele>87.5</ele><time>2026-04-12T15:24:42.003Z</time></trkpt><trkpt lat="45.73874497790171" lon="11.6923227016106"><ele>88.0</ele><time>2026-04-12T15:24:43.003Z</time></trkpt><trkpt lat="45.73874459151942" lon="11.691807039376549"><ele>88.0</ele><time>2026-04-12T15:24:44.003Z</time></trkpt><trkpt lat="45.73873446259971" lon="11.691291264931968"><ele>88.0</ele><time>2026-04-12T15:24:45.003Z</time></trkpt><trkpt lat="45.7387267313486" lon="11.690777965213126"><ele>88.0</ele><time>2026-04-12T15:24:46.003Z</time></trkpt><trkpt lat="45.7387213034107" lon="11.690273254896782"><ele>88.0</ele><time>2026-04-12T15:24:47.003Z</time></trkpt><trkpt lat="45.738710168514146" lon="11.689770941725634"><ele>88.0</ele><time>2026-04-12T15:24:48.003Z</time></trkpt><trkpt lat="45.7387037986804" lon="11.689280315734484"><ele>88.0</ele><time>2026-04-12T15:24:49.003Z</time></trkpt><trkpt lat="45.7386947581717" lon="11.688797469591346"><ele>88.0</ele><time>2026-04-12T15:24:50.003Z</time></trkpt><trkpt lat="45.73868378643872" lon="11.688328856511477"><ele>88.0</ele><time>2026-04-12T15:24:51.003Z</time></trkpt><trkpt lat="45.73867204488556" lon="11.687887458992746"><ele>88.0</ele><time>2026-04-12T15:24:52.003Z</time></trkpt><trkpt lat="45.73867023825318" lon="11.687476317717376"><ele>88.0</ele><time>2026-04-12T15:24:53.003Z</time></trkpt><trkpt lat="45.738660400435094" lon="11.687053455108163"><ele>88.0</ele><time>2026-04-12T15:24:54.003Z</time></trkpt><trkpt lat="45.73864901383453" lon="11.686633419498712"><ele>88.0</ele><time>2026-04-12T15:24:55.003Z</time></trkpt><trkpt lat="45.73863102453829" lon="11.686212773536345"><ele>88.0</ele><time>2026-04-12T15:24:56.003Z</time></trkpt><trkpt lat="45.73859867179648" lon="11.685797897225806"><ele>88.0</ele><time>2026-04-12T15:24:57.003Z</time></trkpt><trkpt lat="45.73855788364188" lon="11.685384642140257"><ele>87.5</ele><time>2026-04-12T15:24:58.003Z</time></trkpt><trkpt lat="45.738504914851404" lon="11.684963601866581"><ele>87.0</ele><time>2026-04-12T15:24:59.003Z</time></trkpt><trkpt lat="45.73843984709267" lon="11.684552391932906"><ele>87.0</ele><time>2026-04-12T15:25:00.003Z</time></trkpt><trkpt lat="45.738361548729706" lon="11.684142876926156"><ele>87.0</ele><time>2026-04-12T15:25:01.003Z</time></trkpt><trkpt lat="45.738276139792454" lon="11.683732383004214"><ele>87.5</ele><time>2026-04-12T15:25:02.003Z</time></trkpt><trkpt lat="45.73818074009904" lon="11.683316318021335"><ele>88.0</ele><time>2026-04-12T15:25:03.003Z</time></trkpt><trkpt lat="45.73807591209786" lon="11.682895213858389"><ele>88.0</ele><time>2026-04-12T15:25:04.003Z</time></trkpt><trkpt lat="45.73795158495162" lon="11.682459293143788"><ele>88.0</ele><time>2026-04-12T15:25:05.003Z</time></trkpt><trkpt lat="45.73781119748082" lon="11.682023327061113"><ele>87.5</ele><time>2026-04-12T15:25:06.003Z</time></trkpt><trkpt lat="45.73765894811294" lon="11.681586899710995"><ele>87.0</ele><time>2026-04-12T15:25:07.003Z</time></trkpt><trkpt lat="45.73749239780552" lon="11.681145303385065"><ele>87.0</ele><time>2026-04-12T15:25:08.003Z</time></trkpt><trkpt lat="45.73731117381378" lon="11.680682906803824"><ele>87.0</ele><time>2026-04-12T15:25:09.003Z</time></trkpt><trkpt lat="45.737124250654986" lon="11.680217534195636"><ele>87.0</ele><time>2026-04-12T15:25:10.003Z</time></trkpt><trkpt lat="45.73693486466741" lon="11.679733120886182"><ele>87.0</ele><time>2026-04-12T15:25:11.003Z</time></trkpt><trkpt lat="45.736746155168795" lon="11.679248142624122"><ele>87.0</ele><time>2026-04-12T15:25:12.003Z</time></trkpt><trkpt lat="45.736568031669506" lon="11.678775742043879"><ele>87.0</ele><time>2026-04-12T15:25:13.003Z</time></trkpt><trkpt lat="45.73639476150896" lon="11.678319347503571"><ele>87.0</ele><time>2026-04-12T15:25:14.003Z</time></trkpt><trkpt lat="45.73622682405448" lon="11.677879435635683"><ele>87.0</ele><time>2026-04-12T15:25:15.003Z</time></trkpt><trkpt lat="45.73606585721613" lon="11.677456445678462"><ele>87.0</ele><time>2026-04-12T15:25:16.003Z</time></trkpt><trkpt lat="45.73591364427726" lon="11.677047271458685"><ele>87.0</ele><time>2026-04-12T15:25:17.003Z</time></trkpt><trkpt lat="45.7357672596669" lon="11.676649800733008"><ele>87.0</ele><time>2026-04-12T15:25:18.003Z</time></trkpt><trkpt lat="45.73562963669999" lon="11.676261977135795"><ele>87.0</ele><time>2026-04-12T15:25:19.003Z</time></trkpt><trkpt lat="45.73548288274114" lon="11.675874274879554"><ele>87.5</ele><time>2026-04-12T15:25:20.003Z</time></trkpt><trkpt lat="45.73533874363791" lon="11.675489454059646"><ele>88.0</ele><time>2026-04-12T15:25:21.003Z</time></trkpt><trkpt lat="45.735196064969784" lon="11.675115323591053"><ele>88.0</ele><time>2026-04-12T15:25:22.003Z</time></trkpt><trkpt lat="45.735044777655595" lon="11.674750377727111"><ele>88.0</ele><time>2026-04-12T15:25:23.003Z</time></trkpt><trkpt lat="45.73488902566616" lon="11.674399085060461"><ele>87.0</ele><time>2026-04-12T15:25:24.003Z</time></trkpt><trkpt lat="45.73472481211837" lon="11.674052566911188"><ele>86.0</ele><time>2026-04-12T15:25:25.003Z</time></trkpt><trkpt lat="45.73455240006403" lon="11.673703518194818"><ele>87.5</ele><time>2026-04-12T15:25:26.003Z</time></trkpt><trkpt lat="45.73436804457659" lon="11.673358270949961"><ele>89.0</ele><time>2026-04-12T15:25:27.003Z</time></trkpt><trkpt lat="45.73416866548704" lon="11.673003274549128"><ele>88.5</ele><time>2026-04-12T15:25:28.003Z</time></trkpt><trkpt lat="45.733955121845376" lon="11.672642122182046"><ele>88.0</ele><time>2026-04-12T15:25:29.003Z</time></trkpt><trkpt lat="45.73372918480524" lon="11.672283488395818"><ele>88.0</ele><time>2026-04-12T15:25:30.003Z</time></trkpt><trkpt lat="45.73348784931224" lon="11.671932783991597"><ele>88.0</ele><time>2026-04-12T15:25:31.003Z</time></trkpt><trkpt lat="45.73323058265859" lon="11.671580579596966"><ele>88.0</ele><time>2026-04-12T15:25:32.003Z</time></trkpt><trkpt lat="45.73295112811937" lon="11.671229507470391"><ele>88.0</ele><time>2026-04-12T15:25:33.003Z</time></trkpt><trkpt lat="45.73266901243824" lon="11.67087522064403"><ele>87.5</ele><time>2026-04-12T15:25:34.003Z</time></trkpt><trkpt lat="45.73238171157807" lon="11.670517176752229"><ele>87.0</ele><time>2026-04-12T15:25:35.003Z</time></trkpt><trkpt lat="45.73214209514104" lon="11.670205539744027"><ele>86.5</ele><time>2026-04-12T15:25:36.003Z</time></trkpt><trkpt lat="45.731916380613924" lon="11.669908368577609"><ele>86.0</ele><time>2026-04-12T15:25:37.003Z</time></trkpt><trkpt lat="45.73170080836842" lon="11.669612207274131"><ele>86.0</ele><time>2026-04-12T15:25:38.003Z</time></trkpt><trkpt lat="45.73148633720913" lon="11.669320020295224"><ele>86.0</ele><time>2026-04-12T15:25:39.003Z</time></trkpt><trkpt lat="45.73127064600753" lon="11.669030953429445"><ele>86.0</ele><time>2026-04-12T15:25:40.003Z</time></trkpt><trkpt lat="45.731058900363315" lon="11.668735465562637"><ele>86.0</ele><time>2026-04-12T15:25:41.003Z</time></trkpt><trkpt lat="45.73086000672649" lon="11.668427168113087"><ele>85.5</ele><time>2026-04-12T15:25:42.003Z</time></trkpt><trkpt lat="45.73066544787793" lon="11.668111308415927"><ele>85.0</ele><time>2026-04-12T15:25:43.003Z</time></trkpt><trkpt lat="45.73047925133032" lon="11.667794811529543"><ele>85.0</ele><time>2026-04-12T15:25:44.003Z</time></trkpt><trkpt lat="45.730292848968425" lon="11.667479945767948"><ele>85.0</ele><time>2026-04-12T15:25:45.003Z</time></trkpt><trkpt lat="45.730114909582355" lon="11.667169027890251"><ele>85.5</ele><time>2026-04-12T15:25:46.003Z</time></trkpt><trkpt lat="45.72994351213156" lon="11.666850562331296"><ele>86.0</ele><time>2026-04-12T15:25:47.003Z</time></trkpt><trkpt lat="45.72977421041673" lon="11.666516009466063"><ele>86.0</ele><time>2026-04-12T15:25:48.003Z</time></trkpt><trkpt lat="45.72960422876776" lon="11.66617054521278"><ele>86.0</ele><time>2026-04-12T15:25:49.003Z</time></trkpt><trkpt lat="45.729423485092795" lon="11.665823989035319"><ele>86.0</ele><time>2026-04-12T15:25:50.003Z</time></trkpt><trkpt lat="45.72923586996401" lon="11.665475015646848"><ele>86.0</ele><time>2026-04-12T15:25:51.003Z</time></trkpt><trkpt lat="45.729071073880064" lon="11.665109806923377"><ele>86.0</ele><time>2026-04-12T15:25:52.024Z</time></trkpt><trkpt lat="45.728945529751044" lon="11.664734403569177"><ele>86.0</ele><time>2026-04-12T15:25:53.024Z</time></trkpt><trkpt lat="45.728802620334335" lon="11.664297310247287"><ele>86.0</ele><time>2026-04-12T15:25:54.02Z</time></trkpt><trkpt lat="45.72861443472849" lon="11.66397415515899"><ele>86.0</ele><time>2026-04-12T15:25:55.024Z</time></trkpt><trkpt lat="45.72849324524228" lon="11.663646803427133"><ele>86.0</ele><time>2026-04-12T15:25:56.021Z</time></trkpt><trkpt lat="45.728390998524695" lon="11.663300164392172"><ele>86.0</ele><time>2026-04-12T15:25:57.003Z</time></trkpt><trkpt lat="45.72830424531794" lon="11.662818789606746"><ele>86.5</ele><time>2026-04-12T15:25:58.003Z</time></trkpt><trkpt lat="45.72818733075422" lon="11.662423846079932"><ele>87.0</ele><time>2026-04-12T15:25:59.003Z</time></trkpt><trkpt lat="45.728081503235195" lon="11.662016819508942"><ele>86.0</ele><time>2026-04-12T15:26:00.003Z</time></trkpt><trkpt lat="45.727985298087056" lon="11.661609443699488"><ele>85.0</ele><time>2026-04-12T15:26:01.003Z</time></trkpt><trkpt lat="45.727893175485946" lon="11.661208676537937"><ele>85.0</ele><time>2026-04-12T15:26:02.003Z</time></trkpt><trkpt lat="45.727806178278215" lon="11.660808842040186"><ele>85.0</ele><time>2026-04-12T15:26:03.003Z</time></trkpt><trkpt lat="45.727726100495026" lon="11.660405462934312"><ele>86.5</ele><time>2026-04-12T15:26:04.003Z</time></trkpt><trkpt lat="45.72765468275936" lon="11.660000980997394"><ele>88.0</ele><time>2026-04-12T15:26:05.003Z</time></trkpt><trkpt lat="45.72758704671284" lon="11.659611250964478"><ele>87.0</ele><time>2026-04-12T15:26:06.003Z</time></trkpt><trkpt lat="45.727529230626175" lon="11.659221572515623"><ele>86.0</ele><time>2026-04-12T15:26:07.003Z</time></trkpt><trkpt lat="45.727469415337644" lon="11.658822981581395"><ele>85.5</ele><time>2026-04-12T15:26:08.004Z</time></trkpt><trkpt lat="45.72741474608066" lon="11.658420746006556"><ele>85.0</ele><time>2026-04-12T15:26:09.004Z</time></trkpt><trkpt lat="45.72736733055757" lon="11.65801590911012"><ele>86.0</ele><time>2026-04-12T15:26:10.004Z</time></trkpt><trkpt lat="45.72731331357378" lon="11.65761209944041"><ele>87.0</ele><time>2026-04-12T15:26:11.004Z</time></trkpt><trkpt lat="45.727258938339986" lon="11.657209406797238"><ele>88.0</ele><time>2026-04-12T15:26:12.004Z</time></trkpt><trkpt lat="45.72720643317853" lon="11.656795378322448"><ele>89.0</ele><time>2026-04-12T15:26:13.024Z</time></trkpt><trkpt lat="45.72715525490366" lon="11.656394357815095"><ele>88.5</ele><time>2026-04-12T15:26:14.019Z</time></trkpt><trkpt lat="45.727104863297804" lon="11.655994958120996"><ele>88.0</ele><time>2026-04-12T15:26:15.02Z</time></trkpt><trkpt lat="45.727057828369155" lon="11.655584710203362"><ele>88.0</ele><time>2026-04-12T15:26:16.021Z</time></trkpt><trkpt lat="45.72703610792273" lon="11.65517023749395"><ele>88.0</ele><time>2026-04-12T15:26:17.02Z</time></trkpt><trkpt lat="45.7263292219213" lon="11.649201668412756"><ele>85.0</ele><time>2026-04-12T15:26:32.004Z</time></trkpt><trkpt lat="45.72616883478691" lon="11.648810322075436"><ele>82.0</ele><time>2026-04-12T15:26:33.004Z</time></trkpt><trkpt lat="45.72600387894176" lon="11.648416625675477"><ele>82.0</ele><time>2026-04-12T15:26:34.004Z</time></trkpt><trkpt lat="45.72582626255269" lon="11.648009991237808"><ele>82.0</ele><time>2026-04-12T15:26:35.004Z</time></trkpt><trkpt lat="45.72565705717034" lon="11.647617801843015"><ele>82.5</ele><time>2026-04-12T15:26:36.004Z</time></trkpt><trkpt lat="45.72545796417227" lon="11.647248720336467"><ele>83.0</ele><time>2026-04-12T15:26:37.004Z</time></trkpt><trkpt lat="45.72526266162099" lon="11.646883722489173"><ele>83.0</ele><time>2026-04-12T15:26:38.004Z</time></trkpt><trkpt lat="45.72505096839692" lon="11.646548147407467"><ele>83.0</ele><time>2026-04-12T15:26:39.004Z</time></trkpt><trkpt lat="45.724836779245834" lon="11.646217469438225"><ele>83.0</ele><time>2026-04-12T15:26:40.004Z</time></trkpt><trkpt lat="45.724609862312874" lon="11.645883661230476"><ele>83.0</ele><time>2026-04-12T15:26:41.004Z</time></trkpt><trkpt lat="45.724376114611" lon="11.645568630251512"><ele>82.5</ele><time>2026-04-12T15:26:42.004Z</time></trkpt><trkpt lat="45.72415020868286" lon="11.645251439206046"><ele>82.0</ele><time>2026-04-12T15:26:43.004Z</time></trkpt><trkpt lat="45.72389538643351" lon="11.644954735933464"><ele>82.0</ele><time>2026-04-12T15:26:44.004Z</time></trkpt><trkpt lat="45.723620827620756" lon="11.644663851997098"><ele>82.0</ele><time>2026-04-12T15:26:45.004Z</time></trkpt><trkpt lat="45.72333682641244" lon="11.644370596721242"><ele>81.5</ele><time>2026-04-12T15:26:46.004Z</time></trkpt><trkpt lat="45.723044002640385" lon="11.644073155405248"><ele>81.0</ele><time>2026-04-12T15:26:47.004Z</time></trkpt><trkpt lat="45.72273949695378" lon="11.643779350763337"><ele>80.5</ele><time>2026-04-12T15:26:48.004Z</time></trkpt><trkpt lat="45.72243750742562" lon="11.643489596310477"><ele>80.0</ele><time>2026-04-12T15:26:49.004Z</time></trkpt><trkpt lat="45.72215160839307" lon="11.643194756205158"><ele>80.5</ele><time>2026-04-12T15:26:50.004Z</time></trkpt><trkpt lat="45.72186931383455" lon="11.642897956150223"><ele>81.0</ele><time>2026-04-12T15:26:51.004Z</time></trkpt><trkpt lat="45.72159266061885" lon="11.642607807786597"><ele>81.5</ele><time>2026-04-12T15:26:52.004Z</time></trkpt><trkpt lat="45.72131678159071" lon="11.642327547060393"><ele>82.0</ele><time>2026-04-12T15:26:53.004Z</time></trkpt><trkpt lat="45.721046027704176" lon="11.642045110000566"><ele>81.5</ele><time>2026-04-12T15:26:54.004Z</time></trkpt><trkpt lat="45.720776516254155" lon="11.641765332618"><ele>81.0</ele><time>2026-04-12T15:26:55.004Z</time></trkpt><trkpt lat="45.72050197470344" lon="11.641482436349186"><ele>81.0</ele><time>2026-04-12T15:26:56.004Z</time></trkpt><trkpt lat="45.72021747773084" lon="11.641195289141715"><ele>81.0</ele><time>2026-04-12T15:26:57.004Z</time></trkpt><trkpt lat="45.71993058451318" lon="11.640906246074053"><ele>81.0</ele><time>2026-04-12T15:26:58.004Z</time></trkpt><trkpt lat="45.719665197832434" lon="11.640631942549733"><ele>81.0</ele><time>2026-04-12T15:26:59.004Z</time></trkpt><trkpt lat="45.7194013860249" lon="11.640359362911251"><ele>81.5</ele><time>2026-04-12T15:27:00.004Z</time></trkpt><trkpt lat="45.719139932490805" lon="11.64009308203274"><ele>82.0</ele><time>2026-04-12T15:27:01.004Z</time></trkpt><trkpt lat="45.71887847413842" lon="11.639820052039646"><ele>82.0</ele><time>2026-04-12T15:27:02.004Z</time></trkpt><trkpt lat="45.71861448518361" lon="11.639549172798606"><ele>82.0</ele><time>2026-04-12T15:27:03.004Z</time></trkpt><trkpt lat="45.71835039377683" lon="11.63927607350837"><ele>82.5</ele><time>2026-04-12T15:27:04.004Z</time></trkpt><trkpt lat="45.71808952163008" lon="11.639003615819522"><ele>83.0</ele><time>2026-04-12T15:27:05.004Z</time></trkpt><trkpt lat="45.71782647357954" lon="11.638732988443577"><ele>82.0</ele><time>2026-04-12T15:27:06.004Z</time></trkpt><trkpt lat="45.717564574928026" lon="11.638458929512117"><ele>81.0</ele><time>2026-04-12T15:27:07.004Z</time></trkpt><trkpt lat="45.717297224720745" lon="11.63818324088932"><ele>81.0</ele><time>2026-04-12T15:27:08.004Z</time></trkpt><trkpt lat="45.71703279938972" lon="11.63791054346759"><ele>81.0</ele><time>2026-04-12T15:27:09.004Z</time></trkpt><trkpt lat="45.71676812147857" lon="11.637643488890209"><ele>81.0</ele><time>2026-04-12T15:27:10.004Z</time></trkpt><trkpt lat="45.71650164538255" lon="11.63737208987006"><ele>81.0</ele><time>2026-04-12T15:27:11.004Z</time></trkpt><trkpt lat="45.71623599979" lon="11.637096122248725"><ele>79.5</ele><time>2026-04-12T15:27:12.004Z</time></trkpt><trkpt lat="45.71597479741105" lon="11.636824150833156"><ele>78.0</ele><time>2026-04-12T15:27:13.004Z</time></trkpt><trkpt lat="45.715707071923035" lon="11.636550577315168"><ele>78.0</ele><time>2026-04-12T15:27:14.004Z</time></trkpt><trkpt lat="45.71544278572401" lon="11.63627937132051"><ele>78.0</ele><time>2026-04-12T15:27:15.004Z</time></trkpt><trkpt lat="45.71518410228148" lon="11.636012514846401"><ele>78.5</ele><time>2026-04-12T15:27:16.004Z</time></trkpt><trkpt lat="45.71493133651907" lon="11.635745696553085"><ele>79.0</ele><time>2026-04-12T15:27:17.004Z</time></trkpt><trkpt lat="45.714678743428365" lon="11.635477513350391"><ele>79.5</ele><time>2026-04-12T15:27:18.004Z</time></trkpt><trkpt lat="45.71443246709589" lon="11.635199897703213"><ele>80.0</ele><time>2026-04-12T15:27:19.004Z</time></trkpt><trkpt lat="45.7141989104082" lon="11.634907374471961"><ele>80.0</ele><time>2026-04-12T15:27:20.004Z</time></trkpt><trkpt lat="45.71394861075311" lon="11.634598286441008"><ele>80.0</ele><time>2026-04-12T15:27:21.004Z</time></trkpt><trkpt lat="45.713706993930515" lon="11.63428163413213"><ele>78.5</ele><time>2026-04-12T15:27:22.004Z</time></trkpt><trkpt lat="45.71347331841177" lon="11.63395439340328"><ele>77.0</ele><time>2026-04-12T15:27:23.004Z</time></trkpt><trkpt lat="45.71324343478739" lon="11.6336157095378"><ele>77.0</ele><time>2026-04-12T15:27:24.004Z</time></trkpt><trkpt lat="45.71301616399965" lon="11.633271027372778"><ele>77.0</ele><time>2026-04-12T15:27:25.004Z</time></trkpt><trkpt lat="45.71279369920283" lon="11.632918542801603"><ele>76.5</ele><time>2026-04-12T15:27:26.004Z</time></trkpt><trkpt lat="45.71257192883357" lon="11.632560545416874"><ele>76.0</ele><time>2026-04-12T15:27:27.004Z</time></trkpt><trkpt lat="45.71234857272916" lon="11.632188176197332"><ele>76.0</ele><time>2026-04-12T15:27:28.004Z</time></trkpt><trkpt lat="45.7121315980813" lon="11.631798609666047"><ele>76.0</ele><time>2026-04-12T15:27:29.004Z</time></trkpt><trkpt lat="45.7119198096107" lon="11.631387120874516"><ele>75.5</ele><time>2026-04-12T15:27:30.004Z</time></trkpt><trkpt lat="45.71171382667105" lon="11.630968930214348"><ele>75.0</ele><time>2026-04-12T15:27:31.004Z</time></trkpt><trkpt lat="45.71152090287435" lon="11.630548912083428"><ele>77.0</ele><time>2026-04-12T15:27:32.004Z</time></trkpt><trkpt lat="45.7113366092247" lon="11.630125133698757"><ele>79.0</ele><time>2026-04-12T15:27:33.004Z</time></trkpt><trkpt lat="45.711156622954775" lon="11.629702179271282"><ele>78.5</ele><time>2026-04-12T15:27:34.004Z</time></trkpt><trkpt lat="45.710984725110784" lon="11.629278317136606"><ele>78.0</ele><time>2026-04-12T15:27:35.004Z</time></trkpt><trkpt lat="45.710824816548914" lon="11.628850649155963"><ele>78.5</ele><time>2026-04-12T15:27:36.004Z</time></trkpt><trkpt lat="45.71067522574725" lon="11.62842644781474"><ele>79.0</ele><time>2026-04-12T15:27:37.004Z</time></trkpt><trkpt lat="45.71053416649075" lon="11.627994454789057"><ele>78.5</ele><time>2026-04-12T15:27:38.004Z</time></trkpt><trkpt lat="45.71040015238063" lon="11.627557205344187"><ele>78.0</ele><time>2026-04-12T15:27:39.004Z</time></trkpt><trkpt lat="45.71028131758638" lon="11.627123272917304"><ele>78.0</ele><time>2026-04-12T15:27:40.004Z</time></trkpt><trkpt lat="45.71016440114882" lon="11.626685680901446"><ele>78.0</ele><time>2026-04-12T15:27:41.004Z</time></trkpt><trkpt lat="45.71006209632453" lon="11.62625752943572"><ele>78.0</ele><time>2026-04-12T15:27:42.004Z</time></trkpt><trkpt lat="45.70996856593327" lon="11.625840502753759"><ele>78.0</ele><time>2026-04-12T15:27:43.004Z</time></trkpt><trkpt lat="45.70988052922141" lon="11.625419169514034"><ele>77.5</ele><time>2026-04-12T15:27:44.004Z</time></trkpt><trkpt lat="45.709798008050726" lon="11.624993819018503"><ele>77.0</ele><time>2026-04-12T15:27:45.004Z</time></trkpt><trkpt lat="45.7097151276774" lon="11.624557619833313"><ele>76.5</ele><time>2026-04-12T15:27:46.004Z</time></trkpt><trkpt lat="45.70963956960636" lon="11.624120031450632"><ele>76.0</ele><time>2026-04-12T15:27:47.004Z</time></trkpt><trkpt lat="45.709568609863275" lon="11.623682520705374"><ele>76.0</ele><time>2026-04-12T15:27:48.004Z</time></trkpt><trkpt lat="45.70949929018331" lon="11.623249671591996"><ele>76.0</ele><time>2026-04-12T15:27:49.004Z</time></trkpt><trkpt lat="45.709421122695574" lon="11.622800373985815"><ele>77.0</ele><time>2026-04-12T15:27:50.004Z</time></trkpt><trkpt lat="45.70934325743128" lon="11.622340201684978"><ele>78.0</ele><time>2026-04-12T15:27:51.004Z</time></trkpt><trkpt lat="45.70927146174276" lon="11.621878309972553"><ele>78.0</ele><time>2026-04-12T15:27:52.004Z</time></trkpt><trkpt lat="45.70919777318917" lon="11.621396101965438"><ele>78.0</ele><time>2026-04-12T15:27:53.004Z</time></trkpt><trkpt lat="45.709116981930826" lon="11.620945506762185"><ele>78.0</ele><time>2026-04-12T15:27:54.004Z</time></trkpt><trkpt lat="45.709048754141904" lon="11.620484199359352"><ele>78.0</ele><time>2026-04-12T15:27:55.004Z</time></trkpt><trkpt lat="45.70897171577243" lon="11.620031121154376"><ele>78.0</ele><time>2026-04-12T15:27:56.004Z</time></trkpt><trkpt lat="45.70889542117532" lon="11.619577877231315"><ele>78.0</ele><time>2026-04-12T15:27:57.004Z</time></trkpt><trkpt lat="45.708817810744605" lon="11.619121678038365"><ele>78.0</ele><time>2026-04-12T15:27:58.004Z</time></trkpt><trkpt lat="45.70873592556952" lon="11.618662880521292"><ele>78.0</ele><time>2026-04-12T15:27:59.004Z</time></trkpt><trkpt lat="45.70864536597495" lon="11.618194549353502"><ele>77.0</ele><time>2026-04-12T15:28:00.004Z</time></trkpt><trkpt lat="45.70856320043436" lon="11.617723761691048"><ele>76.0</ele><time>2026-04-12T15:28:01.004Z</time></trkpt><trkpt lat="45.708459760278046" lon="11.617219657128308"><ele>75.5</ele><time>2026-04-12T15:28:02.004Z</time></trkpt><trkpt lat="45.70835026196038" lon="11.616710345916621"><ele>75.0</ele><time>2026-04-12T15:28:03.004Z</time></trkpt><trkpt lat="45.70823921667004" lon="11.616190412495586"><ele>76.5</ele><time>2026-04-12T15:28:04.004Z</time></trkpt><trkpt lat="45.708126874527" lon="11.61566903635952"><ele>78.0</ele><time>2026-04-12T15:28:05.004Z</time></trkpt><trkpt lat="45.70801427515484" lon="11.615161864766643"><ele>78.0</ele><time>2026-04-12T15:28:06.004Z</time></trkpt><trkpt lat="45.7079063846942" lon="11.614668394192641"><ele>78.0</ele><time>2026-04-12T15:28:07.004Z</time></trkpt><trkpt lat="45.707789194470266" lon="11.61416828513925"><ele>78.0</ele><time>2026-04-12T15:28:08.004Z</time></trkpt><trkpt lat="45.707665493826426" lon="11.613653704014371"><ele>78.0</ele><time>2026-04-12T15:28:09.004Z</time></trkpt><trkpt lat="45.70754123571571" lon="11.613134536990648"><ele>77.5</ele><time>2026-04-12T15:28:10.004Z</time></trkpt><trkpt lat="45.70742013600846" lon="11.612642552645545"><ele>77.0</ele><time>2026-04-12T15:28:11.004Z</time></trkpt><trkpt lat="45.70730064075236" lon="11.612170524754458"><ele>76.5</ele><time>2026-04-12T15:28:12.004Z</time></trkpt><trkpt lat="45.707181049040656" lon="11.611711553842738"><ele>76.0</ele><time>2026-04-12T15:28:13.004Z</time></trkpt><trkpt lat="45.70705677162149" lon="11.611268602797704"><ele>76.0</ele><time>2026-04-12T15:28:14.005Z</time></trkpt><trkpt lat="45.706941191355334" lon="11.610837752552905"><ele>76.0</ele><time>2026-04-12T15:28:15.005Z</time></trkpt><trkpt lat="45.70682116399656" lon="11.610417361600666"><ele>76.5</ele><time>2026-04-12T15:28:16.005Z</time></trkpt><trkpt lat="45.70670059377416" lon="11.610002408960188"><ele>77.0</ele><time>2026-04-12T15:28:17.005Z</time></trkpt><trkpt lat="45.70656866041999" lon="11.609583248950662"><ele>77.5</ele><time>2026-04-12T15:28:18.005Z</time></trkpt><trkpt lat="45.70643859047008" lon="11.609164129374983"><ele>78.0</ele><time>2026-04-12T15:28:19.005Z</time></trkpt><trkpt lat="45.706317011625565" lon="11.608765141119497"><ele>78.5</ele><time>2026-04-12T15:28:20.005Z</time></trkpt><trkpt lat="45.70618137084236" lon="11.608341839455907"><ele>79.0</ele><time>2026-04-12T15:28:21.005Z</time></trkpt><trkpt lat="45.70604265694828" lon="11.607920961266743"><ele>79.0</ele><time>2026-04-12T15:28:22.005Z</time></trkpt><trkpt lat="45.70590066357396" lon="11.607493736568335"><ele>79.0</ele><time>2026-04-12T15:28:23.005Z</time></trkpt><trkpt lat="45.705761893768326" lon="11.607058458161982"><ele>78.0</ele><time>2026-04-12T15:28:24.005Z</time></trkpt><trkpt lat="45.705621996113145" lon="11.606621846746307"><ele>77.0</ele><time>2026-04-12T15:28:25.005Z</time></trkpt><trkpt lat="45.705475544088074" lon="11.60618698515282"><ele>77.5</ele><time>2026-04-12T15:28:26.005Z</time></trkpt><trkpt lat="45.7053228451946" lon="11.605749534935905"><ele>78.0</ele><time>2026-04-12T15:28:27.005Z</time></trkpt><trkpt lat="45.70516690485895" lon="11.605314745673375"><ele>78.0</ele><time>2026-04-12T15:28:28.005Z</time></trkpt><trkpt lat="45.705013261643806" lon="11.604877810812864"><ele>78.0</ele><time>2026-04-12T15:28:29.005Z</time></trkpt><trkpt lat="45.704857613929896" lon="11.604433338160383"><ele>78.0</ele><time>2026-04-12T15:28:30.005Z</time></trkpt><trkpt lat="45.704703020088196" lon="11.603987826501687"><ele>78.0</ele><time>2026-04-12T15:28:31.005Z</time></trkpt><trkpt lat="45.70454589890977" lon="11.603539654521644"><ele>77.0</ele><time>2026-04-12T15:28:32.005Z</time></trkpt><trkpt lat="45.70438934364405" lon="11.603090405430246"><ele>76.0</ele><time>2026-04-12T15:28:33.005Z</time></trkpt><trkpt lat="45.704229408188375" lon="11.602638267747235"><ele>76.0</ele><time>2026-04-12T15:28:34.005Z</time></trkpt><trkpt lat="45.704073813966446" lon="11.60218811559389"><ele>76.0</ele><time>2026-04-12T15:28:35.005Z</time></trkpt><trkpt lat="45.70392128100791" lon="11.601749160829437"><ele>76.5</ele><time>2026-04-12T15:28:36.005Z</time></trkpt><trkpt lat="45.70377090990477" lon="11.601312862563892"><ele>77.0</ele><time>2026-04-12T15:28:37.005Z</time></trkpt><trkpt lat="45.70362137324223" lon="11.600869330237664"><ele>77.0</ele><time>2026-04-12T15:28:38.005Z</time></trkpt><trkpt lat="45.70347672137914" lon="11.600428938307052"><ele>77.0</ele><time>2026-04-12T15:28:39.005Z</time></trkpt><trkpt lat="45.703331439893155" lon="11.599983456667264"><ele>77.0</ele><time>2026-04-12T15:28:40.005Z</time></trkpt><trkpt lat="45.703189661242355" lon="11.599537560845494"><ele>77.0</ele><time>2026-04-12T15:28:41.005Z</time></trkpt><trkpt lat="45.70305172735586" lon="11.599091438499809"><ele>77.5</ele><time>2026-04-12T15:28:42.005Z</time></trkpt><trkpt lat="45.702913764790516" lon="11.598645788815066"><ele>78.0</ele><time>2026-04-12T15:28:43.005Z</time></trkpt><trkpt lat="45.70278099022226" lon="11.598197917562048"><ele>79.0</ele><time>2026-04-12T15:28:44.005Z</time></trkpt><trkpt lat="45.702649354708356" lon="11.597746501999351"><ele>80.0</ele><time>2026-04-12T15:28:45.005Z</time></trkpt><trkpt lat="45.70251366902164" lon="11.597285007350902"><ele>80.5</ele><time>2026-04-12T15:28:46.005Z</time></trkpt><trkpt lat="45.702382668609914" lon="11.596828797723242"><ele>81.0</ele><time>2026-04-12T15:28:47.005Z</time></trkpt><trkpt lat="45.70224764085826" lon="11.59637002248915"><ele>81.0</ele><time>2026-04-12T15:28:48.005Z</time></trkpt><trkpt lat="45.702111269013436" lon="11.595912514786985"><ele>81.0</ele><time>2026-04-12T15:28:49.005Z</time></trkpt><trkpt lat="45.701979050061134" lon="11.595456850624418"><ele>82.0</ele><time>2026-04-12T15:28:50.005Z</time></trkpt><trkpt lat="45.7018411445974" lon="11.595006549842966"><ele>83.0</ele><time>2026-04-12T15:28:51.005Z</time></trkpt><trkpt lat="45.70171315299161" lon="11.594554821459512"><ele>82.5</ele><time>2026-04-12T15:28:52.005Z</time></trkpt><trkpt lat="45.701582442227576" lon="11.594106017902073"><ele>82.0</ele><time>2026-04-12T15:28:53.005Z</time></trkpt><trkpt lat="45.701453571045256" lon="11.59366779012341"><ele>82.0</ele><time>2026-04-12T15:28:54.005Z</time></trkpt><trkpt lat="45.70132492478395" lon="11.593231254587051"><ele>82.0</ele><time>2026-04-12T15:28:55.005Z</time></trkpt><trkpt lat="45.70119874792055" lon="11.592800859282699"><ele>83.0</ele><time>2026-04-12T15:28:56.005Z</time></trkpt><trkpt lat="45.70107402530472" lon="11.59237666295363"><ele>84.0</ele><time>2026-04-12T15:28:57.005Z</time></trkpt><trkpt lat="45.70095118509031" lon="11.591944673763827"><ele>84.0</ele><time>2026-04-12T15:28:58.005Z</time></trkpt><trkpt lat="45.70082808077069" lon="11.591523628879024"><ele>84.0</ele><time>2026-04-12T15:28:59.005Z</time></trkpt><trkpt lat="45.700707222699734" lon="11.591100550342372"><ele>84.0</ele><time>2026-04-12T15:29:00.005Z</time></trkpt><trkpt lat="45.70059009363675" lon="11.590692983034653"><ele>84.0</ele><time>2026-04-12T15:29:01.005Z</time></trkpt><trkpt lat="45.70047094147767" lon="11.590280429908548"><ele>84.0</ele><time>2026-04-12T15:29:02.005Z</time></trkpt><trkpt lat="45.70034418131149" lon="11.589858653577746"><ele>84.0</ele><time>2026-04-12T15:29:03.005Z</time></trkpt><trkpt lat="45.70021763577896" lon="11.589426626331129"><ele>86.0</ele><time>2026-04-12T15:29:04.005Z</time></trkpt><trkpt lat="45.700092911053034" lon="11.588990965455293"><ele>88.0</ele><time>2026-04-12T15:29:05.005Z</time></trkpt><trkpt lat="45.699959465254246" lon="11.588538360866472"><ele>88.0</ele><time>2026-04-12T15:29:06.005Z</time></trkpt><trkpt lat="45.69982323309126" lon="11.588074114673912"><ele>88.0</ele><time>2026-04-12T15:29:07.005Z</time></trkpt><trkpt lat="45.699682954217124" lon="11.587593190821227"><ele>88.5</ele><time>2026-04-12T15:29:08.005Z</time></trkpt><trkpt lat="45.69953869291862" lon="11.587101043173956"><ele>89.0</ele><time>2026-04-12T15:29:09.005Z</time></trkpt><trkpt lat="45.699393016168145" lon="11.586604222005613"><ele>89.5</ele><time>2026-04-12T15:29:10.005Z</time></trkpt><trkpt lat="45.69925167982517" lon="11.58611927065021"><ele>90.0</ele><time>2026-04-12T15:29:11.005Z</time></trkpt><trkpt lat="45.69910975204626" lon="11.58564295362645"><ele>90.0</ele><time>2026-04-12T15:29:12.005Z</time></trkpt><trkpt lat="45.69897148813972" lon="11.5851775385473"><ele>90.0</ele><time>2026-04-12T15:29:13.005Z</time></trkpt><trkpt lat="45.69883914163181" lon="11.58471673930155"><ele>90.0</ele><time>2026-04-12T15:29:14.005Z</time></trkpt><trkpt lat="45.69870802228997" lon="11.58426292375626"><ele>90.0</ele><time>2026-04-12T15:29:15.005Z</time></trkpt><trkpt lat="45.69857756542409" lon="11.583817342939312"><ele>90.5</ele><time>2026-04-12T15:29:16.005Z</time></trkpt><trkpt lat="45.698446572624846" lon="11.583377703675723"><ele>91.0</ele><time>2026-04-12T15:29:17.005Z</time></trkpt><trkpt lat="45.698321488660525" lon="11.58294076183097"><ele>91.5</ele><time>2026-04-12T15:29:18.005Z</time></trkpt><trkpt lat="45.69819797735217" lon="11.582504948407577"><ele>92.0</ele><time>2026-04-12T15:29:19.005Z</time></trkpt><trkpt lat="45.69807334519036" lon="11.582071207813366"><ele>92.5</ele><time>2026-04-12T15:29:20.005Z</time></trkpt><trkpt lat="45.69795367390003" lon="11.58163980785466"><ele>93.0</ele><time>2026-04-12T15:29:21.005Z</time></trkpt><trkpt lat="45.69783248344335" lon="11.581206705844213"><ele>93.5</ele><time>2026-04-12T15:29:22.005Z</time></trkpt><trkpt lat="45.697714821218156" lon="11.580775231417912"><ele>94.0</ele><time>2026-04-12T15:29:23.005Z</time></trkpt><trkpt lat="45.697600202312074" lon="11.580334971121673"><ele>94.5</ele><time>2026-04-12T15:29:24.005Z</time></trkpt><trkpt lat="45.69749382419219" lon="11.579889955982868"><ele>95.0</ele><time>2026-04-12T15:29:25.005Z</time></trkpt><trkpt lat="45.697386838304666" lon="11.579442683003979"><ele>95.0</ele><time>2026-04-12T15:29:26.005Z</time></trkpt><trkpt lat="45.69729004218299" lon="11.579002345906613"><ele>95.0</ele><time>2026-04-12T15:29:27.005Z</time></trkpt><trkpt lat="45.697185201834486" lon="11.578556951855559"><ele>94.5</ele><time>2026-04-12T15:29:28.005Z</time></trkpt><trkpt lat="45.697084471839496" lon="11.578113597632328"><ele>94.0</ele><time>2026-04-12T15:29:29.005Z</time></trkpt><trkpt lat="45.69697888369202" lon="11.577661264853472"><ele>93.5</ele><time>2026-04-12T15:29:30.005Z</time></trkpt><trkpt lat="45.69688058637464" lon="11.577164946730349"><ele>93.0</ele><time>2026-04-12T15:29:31.005Z</time></trkpt><trkpt lat="45.696827373025556" lon="11.57669022005778"><ele>93.0</ele><time>2026-04-12T15:29:32.005Z</time></trkpt><trkpt lat="45.6967386202751" lon="11.576211948036907"><ele>93.0</ele><time>2026-04-12T15:29:33.005Z</time></trkpt><trkpt lat="45.69666314085563" lon="11.575727677967627"><ele>94.5</ele><time>2026-04-12T15:29:34.005Z</time></trkpt><trkpt lat="45.696590679619206" lon="11.575253908139702"><ele>96.0</ele><time>2026-04-12T15:29:35.005Z</time></trkpt><trkpt lat="45.69652618801463" lon="11.574785099881582"><ele>95.5</ele><time>2026-04-12T15:29:36.005Z</time></trkpt><trkpt lat="45.69646784900907" lon="11.574320244435176"><ele>95.0</ele><time>2026-04-12T15:29:37.005Z</time></trkpt><trkpt lat="45.69640831956206" lon="11.57385213681153"><ele>95.0</ele><time>2026-04-12T15:29:38.005Z</time></trkpt><trkpt lat="45.69635068740288" lon="11.573380982574337"><ele>95.0</ele><time>2026-04-12T15:29:39.005Z</time></trkpt><trkpt lat="45.69629184903935" lon="11.57290199672657"><ele>95.5</ele><time>2026-04-12T15:29:40.005Z</time></trkpt><trkpt lat="45.69624066741017" lon="11.572421522625222"><ele>96.0</ele><time>2026-04-12T15:29:41.005Z</time></trkpt><trkpt lat="45.6961904196424" lon="11.571938643210324"><ele>96.0</ele><time>2026-04-12T15:29:42.005Z</time></trkpt><trkpt lat="45.69614978626625" lon="11.571459253348568"><ele>96.0</ele><time>2026-04-12T15:29:43.005Z</time></trkpt><trkpt lat="45.696111537326594" lon="11.57097800245712"><ele>96.0</ele><time>2026-04-12T15:29:44.005Z</time></trkpt><trkpt lat="45.69607592097633" lon="11.57049295884908"><ele>96.0</ele><time>2026-04-12T15:29:45.005Z</time></trkpt><trkpt lat="45.696046425429785" lon="11.569998170073596"><ele>96.0</ele><time>2026-04-12T15:29:46.005Z</time></trkpt><trkpt lat="45.69602402479978" lon="11.569485714652814"><ele>96.0</ele><time>2026-04-12T15:29:47.005Z</time></trkpt><trkpt lat="45.69600139267241" lon="11.5689604872513"><ele>96.5</ele><time>2026-04-12T15:29:48.005Z</time></trkpt><trkpt lat="45.69598226301773" lon="11.56843066005125"><ele>97.0</ele><time>2026-04-12T15:29:49.005Z</time></trkpt><trkpt lat="45.695968070463394" lon="11.567892600469033"><ele>97.5</ele><time>2026-04-12T15:29:50.005Z</time></trkpt><trkpt lat="45.69596260673011" lon="11.567351701225268"><ele>98.0</ele><time>2026-04-12T15:29:51.005Z</time></trkpt><trkpt lat="45.69595980447376" lon="11.566825801110317"><ele>97.5</ele><time>2026-04-12T15:29:52.005Z</time></trkpt><trkpt lat="45.69594960914632" lon="11.566294639409797"><ele>97.0</ele><time>2026-04-12T15:29:53.005Z</time></trkpt><trkpt lat="45.69592694601222" lon="11.565756999685986"><ele>98.5</ele><time>2026-04-12T15:29:54.005Z</time></trkpt><trkpt lat="45.69590792039928" lon="11.565225445300761"><ele>100.0</ele><time>2026-04-12T15:29:55.005Z</time></trkpt><trkpt lat="45.69589476655474" lon="11.5646992980393"><ele>100.5</ele><time>2026-04-12T15:29:56.005Z</time></trkpt><trkpt lat="45.695881784118285" lon="11.564183745135676"><ele>101.0</ele><time>2026-04-12T15:29:57.005Z</time></trkpt><trkpt lat="45.69586783233709" lon="11.563680212603119"><ele>101.0</ele><time>2026-04-12T15:29:58.005Z</time></trkpt><trkpt lat="45.69585001194034" lon="11.563183842784252"><ele>101.0</ele><time>2026-04-12T15:29:59.005Z</time></trkpt><trkpt lat="45.69582946974109" lon="11.562685908960399"><ele>101.0</ele><time>2026-04-12T15:30:00.005Z</time></trkpt><trkpt lat="45.69581670852601" lon="11.562177096578905"><ele>101.0</ele><time>2026-04-12T15:30:01.005Z</time></trkpt><trkpt lat="45.69580587141485" lon="11.561676112959812"><ele>101.5</ele><time>2026-04-12T15:30:02.005Z</time></trkpt><trkpt lat="45.69579306404814" lon="11.56115858134838"><ele>102.0</ele><time>2026-04-12T15:30:03.005Z</time></trkpt><trkpt lat="45.695773868252694" lon="11.560635567264253"><ele>102.0</ele><time>2026-04-12T15:30:04.005Z</time></trkpt><trkpt lat="45.69575355626979" lon="11.560126392500111"><ele>102.0</ele><time>2026-04-12T15:30:05.005Z</time></trkpt><trkpt lat="45.695730234130195" lon="11.55962886384497"><ele>102.5</ele><time>2026-04-12T15:30:06.005Z</time></trkpt><trkpt lat="45.69570380804405" lon="11.559124766319066"><ele>103.0</ele><time>2026-04-12T15:30:07.005Z</time></trkpt><trkpt lat="45.69567926064987" lon="11.558630155605776"><ele>103.0</ele><time>2026-04-12T15:30:08.005Z</time></trkpt><trkpt lat="45.695655445301" lon="11.558118735797404"><ele>103.0</ele><time>2026-04-12T15:30:09.005Z</time></trkpt><trkpt lat="45.695621601503966" lon="11.557587895311977"><ele>103.0</ele><time>2026-04-12T15:30:10.005Z</time></trkpt><trkpt lat="45.69558309713814" lon="11.557045712165467"><ele>103.0</ele><time>2026-04-12T15:30:11.005Z</time></trkpt><trkpt lat="45.69554635144986" lon="11.556502099054248"><ele>104.0</ele><time>2026-04-12T15:30:12.005Z</time></trkpt><trkpt lat="45.69550903909234" lon="11.555954714035682"><ele>105.0</ele><time>2026-04-12T15:30:13.005Z</time></trkpt><trkpt lat="45.69546565290588" lon="11.555417753664997"><ele>104.5</ele><time>2026-04-12T15:30:14.005Z</time></trkpt><trkpt lat="45.69542806503457" lon="11.55490559755299"><ele>104.0</ele><time>2026-04-12T15:30:15.005Z</time></trkpt><trkpt lat="45.69539530507662" lon="11.55441162510635"><ele>102.5</ele><time>2026-04-12T15:30:16.005Z</time></trkpt><trkpt lat="45.69536166179388" lon="11.55393868328965"><ele>101.0</ele><time>2026-04-12T15:30:17.005Z</time></trkpt><trkpt lat="45.69532059671436" lon="11.553467734010656"><ele>101.0</ele><time>2026-04-12T15:30:18.005Z</time></trkpt><trkpt lat="45.6952809046563" lon="11.553000259376958"><ele>101.0</ele><time>2026-04-12T15:30:19.005Z</time></trkpt><trkpt lat="45.69523767622041" lon="11.55253181127289"><ele>101.0</ele><time>2026-04-12T15:30:20.006Z</time></trkpt><trkpt lat="45.69519647277129" lon="11.552067035978228"><ele>101.0</ele><time>2026-04-12T15:30:21.006Z</time></trkpt><trkpt lat="45.69515425716362" lon="11.551601594859525"><ele>100.5</ele><time>2026-04-12T15:30:22.006Z</time></trkpt><trkpt lat="45.69510890489268" lon="11.551132119173964"><ele>100.0</ele><time>2026-04-12T15:30:23.006Z</time></trkpt><trkpt lat="45.69506533416641" lon="11.550664206747701"><ele>98.0</ele><time>2026-04-12T15:30:24.006Z</time></trkpt><trkpt lat="45.69501676471435" lon="11.550192892947369"><ele>96.0</ele><time>2026-04-12T15:30:25.006Z</time></trkpt><trkpt lat="45.694967890571164" lon="11.549718845009805"><ele>95.5</ele><time>2026-04-12T15:30:26.006Z</time></trkpt><trkpt lat="45.69492042100284" lon="11.549238392903543"><ele>95.0</ele><time>2026-04-12T15:30:27.006Z</time></trkpt><trkpt lat="45.69487070591128" lon="11.548763594370982"><ele>98.0</ele><time>2026-04-12T15:30:28.006Z</time></trkpt><trkpt lat="45.694816684385174" lon="11.548292230099019"><ele>101.0</ele><time>2026-04-12T15:30:29.006Z</time></trkpt><trkpt lat="45.6947632717191" lon="11.547822683658994"><ele>101.5</ele><time>2026-04-12T15:30:30.006Z</time></trkpt><trkpt lat="45.69470844392797" lon="11.547352872661728"><ele>102.0</ele><time>2026-04-12T15:30:31.006Z</time></trkpt><trkpt lat="45.69465256191186" lon="11.546866429812107"><ele>102.0</ele><time>2026-04-12T15:30:32.006Z</time></trkpt><trkpt lat="45.69459659795111" lon="11.546365417037329"><ele>102.0</ele><time>2026-04-12T15:30:33.006Z</time></trkpt><trkpt lat="45.69453798350554" lon="11.545848233307193"><ele>100.0</ele><time>2026-04-12T15:30:34.006Z</time></trkpt><trkpt lat="45.69448253307565" lon="11.545348864738775"><ele>98.0</ele><time>2026-04-12T15:30:35.006Z</time></trkpt><trkpt lat="45.694424686277436" lon="11.544867143903481"><ele>100.0</ele><time>2026-04-12T15:30:36.006Z</time></trkpt><trkpt lat="45.69437355689083" lon="11.544407501547528"><ele>102.0</ele><time>2026-04-12T15:30:37.006Z</time></trkpt><trkpt lat="45.69432780858519" lon="11.543961294262736"><ele>102.0</ele><time>2026-04-12T15:30:38.006Z</time></trkpt><trkpt lat="45.69427811200303" lon="11.54352281765364"><ele>102.0</ele><time>2026-04-12T15:30:39.006Z</time></trkpt><trkpt lat="45.69422650780471" lon="11.543093342241685"><ele>102.5</ele><time>2026-04-12T15:30:40.006Z</time></trkpt><trkpt lat="45.69416582578006" lon="11.542663637680716"><ele>103.0</ele><time>2026-04-12T15:30:41.006Z</time></trkpt><trkpt lat="45.69409983979605" lon="11.54224344061649"><ele>104.0</ele><time>2026-04-12T15:30:42.006Z</time></trkpt><trkpt lat="45.69402702952419" lon="11.541826827632539"><ele>105.0</ele><time>2026-04-12T15:30:43.006Z</time></trkpt><trkpt lat="45.693944484260186" lon="11.541410036058778"><ele>104.5</ele><time>2026-04-12T15:30:44.006Z</time></trkpt><trkpt lat="45.69385800389729" lon="11.541002959505272"><ele>104.0</ele><time>2026-04-12T15:30:45.006Z</time></trkpt><trkpt lat="45.693765714003746" lon="11.540599046317848"><ele>104.0</ele><time>2026-04-12T15:30:46.006Z</time></trkpt><trkpt lat="45.69366693836111" lon="11.540195560296581"><ele>104.0</ele><time>2026-04-12T15:30:47.006Z</time></trkpt><trkpt lat="45.693552846518756" lon="11.539808973944329"><ele>105.0</ele><time>2026-04-12T15:30:48.006Z</time></trkpt><trkpt lat="45.69343956398289" lon="11.539427798458654"><ele>106.0</ele><time>2026-04-12T15:30:49.006Z</time></trkpt><trkpt lat="45.69332771005701" lon="11.539052320225396"><ele>105.0</ele><time>2026-04-12T15:30:50.006Z</time></trkpt><trkpt lat="45.69321264948178" lon="11.538668162669426"><ele>104.0</ele><time>2026-04-12T15:30:51.021Z</time></trkpt><trkpt lat="45.693100668724824" lon="11.538289194550062"><ele>104.0</ele><time>2026-04-12T15:30:52.028Z</time></trkpt><trkpt lat="45.692989234497965" lon="11.537917178464127"><ele>104.0</ele><time>2026-04-12T15:30:53.006Z</time></trkpt><trkpt lat="45.692790924665694" lon="11.537453220913665"><ele>104.0</ele><time>2026-04-12T15:30:54.006Z</time></trkpt><trkpt lat="45.69263953744012" lon="11.53706373725517"><ele>104.0</ele><time>2026-04-12T15:30:55.006Z</time></trkpt><trkpt lat="45.69248648905673" lon="11.536684761179504"><ele>103.0</ele><time>2026-04-12T15:30:56.006Z</time></trkpt><trkpt lat="45.692321156846326" lon="11.536303205397356"><ele>102.0</ele><time>2026-04-12T15:30:57.006Z</time></trkpt><trkpt lat="45.69214953457904" lon="11.535933014519546"><ele>102.0</ele><time>2026-04-12T15:30:58.006Z</time></trkpt><trkpt lat="45.69196721469651" lon="11.535560177009142"><ele>102.0</ele><time>2026-04-12T15:30:59.006Z</time></trkpt><trkpt lat="45.69178040979046" lon="11.535194712773935"><ele>102.0</ele><time>2026-04-12T15:31:00.006Z</time></trkpt><trkpt lat="45.69159650669391" lon="11.534832423502685"><ele>102.0</ele><time>2026-04-12T15:31:01.006Z</time></trkpt><trkpt lat="45.69139319776068" lon="11.534464805409868"><ele>102.0</ele><time>2026-04-12T15:31:02.006Z</time></trkpt><trkpt lat="45.69117288385002" lon="11.534112433194858"><ele>102.0</ele><time>2026-04-12T15:31:03.006Z</time></trkpt><trkpt lat="45.69094290595642" lon="11.53374758428634"><ele>102.5</ele><time>2026-04-12T15:31:04.006Z</time></trkpt><trkpt lat="45.69070414465745" lon="11.533377392195403"><ele>103.0</ele><time>2026-04-12T15:31:05.006Z</time></trkpt><trkpt lat="45.69045652817686" lon="11.532996602133121"><ele>102.5</ele><time>2026-04-12T15:31:06.006Z</time></trkpt><trkpt lat="45.690203045001354" lon="11.53260970220774"><ele>102.0</ele><time>2026-04-12T15:31:07.006Z</time></trkpt><trkpt lat="45.68995180431803" lon="11.532212172282756"><ele>101.5</ele><time>2026-04-12T15:31:08.006Z</time></trkpt><trkpt lat="45.68970256259761" lon="11.531820966618284"><ele>101.0</ele><time>2026-04-12T15:31:09.006Z</time></trkpt><trkpt lat="45.68946297958778" lon="11.531438145974255"><ele>100.0</ele><time>2026-04-12T15:31:10.006Z</time></trkpt><trkpt lat="45.68922983646352" lon="11.531082535113445"><ele>99.0</ele><time>2026-04-12T15:31:11.006Z</time></trkpt><trkpt lat="45.68901092413647" lon="11.530752500405566"><ele>99.0</ele><time>2026-04-12T15:31:12.006Z</time></trkpt><trkpt lat="45.68881047773226" lon="11.530443235216815"><ele>99.0</ele><time>2026-04-12T15:31:13.025Z</time></trkpt><trkpt lat="45.68863592348947" lon="11.530174614493964"><ele>98.0</ele><time>2026-04-12T15:31:14.022Z</time></trkpt><trkpt lat="45.688494051024094" lon="11.529918591156413"><ele>97.0</ele><time>2026-04-12T15:31:15.025Z</time></trkpt><trkpt lat="45.68795660720544" lon="11.529091821873594"><ele>95.5</ele><time>2026-04-12T15:31:16.023Z</time></trkpt><trkpt lat="45.6877060864429" lon="11.528703151212044"><ele>94.0</ele><time>2026-04-12T15:31:17.023Z</time></trkpt><trkpt lat="45.685599488248755" lon="11.52524200269163"><ele>94.0</ele><time>2026-04-12T15:31:30.006Z</time></trkpt><trkpt lat="45.6854116997907" lon="11.524935228185566"><ele>94.0</ele><time>2026-04-12T15:31:31.006Z</time></trkpt><trkpt lat="45.685226794723214" lon="11.524628367268221"><ele>91.5</ele><time>2026-04-12T15:31:32.006Z</time></trkpt><trkpt lat="45.68505242764852" lon="11.524345612169181"><ele>89.0</ele><time>2026-04-12T15:31:33.006Z</time></trkpt><trkpt lat="45.68487202991836" lon="11.52405202007613"><ele>89.0</ele><time>2026-04-12T15:31:34.006Z</time></trkpt><trkpt lat="45.684688298493796" lon="11.523753876588641"><ele>89.0</ele><time>2026-04-12T15:31:35.006Z</time></trkpt><trkpt lat="45.68450579777396" lon="11.523460628795252"><ele>89.5</ele><time>2026-04-12T15:31:36.006Z</time></trkpt><trkpt lat="45.68429518123376" lon="11.523156897595939"><ele>90.0</ele><time>2026-04-12T15:31:37.006Z</time></trkpt><trkpt lat="45.6840880287219" lon="11.522870135269685"><ele>89.0</ele><time>2026-04-12T15:31:38.006Z</time></trkpt><trkpt lat="45.683872112194834" lon="11.522592147211817"><ele>88.0</ele><time>2026-04-12T15:31:39.006Z</time></trkpt><trkpt lat="45.68365478297519" lon="11.522326576420692"><ele>88.5</ele><time>2026-04-12T15:31:40.006Z</time></trkpt><trkpt lat="45.68342334917537" lon="11.522072676499459"><ele>89.0</ele><time>2026-04-12T15:31:41.006Z</time></trkpt><trkpt lat="45.68317700806947" lon="11.521829454032256"><ele>89.5</ele><time>2026-04-12T15:31:42.006Z</time></trkpt><trkpt lat="45.682944204398744" lon="11.521583830024923"><ele>90.0</ele><time>2026-04-12T15:31:43.006Z</time></trkpt><trkpt lat="45.68270314581229" lon="11.521348368427036"><ele>89.0</ele><time>2026-04-12T15:31:44.006Z</time></trkpt><trkpt lat="45.68245887481474" lon="11.521119517672457"><ele>88.0</ele><time>2026-04-12T15:31:45.006Z</time></trkpt><trkpt lat="45.682208001071466" lon="11.520900365608536"><ele>88.0</ele><time>2026-04-12T15:31:46.006Z</time></trkpt><trkpt lat="45.68195225053963" lon="11.52068989608671"><ele>88.0</ele><time>2026-04-12T15:31:47.006Z</time></trkpt><trkpt lat="45.681688921827885" lon="11.520488150812236"><ele>88.5</ele><time>2026-04-12T15:31:48.006Z</time></trkpt><trkpt lat="45.68141700901286" lon="11.520296406265075"><ele>89.0</ele><time>2026-04-12T15:31:49.006Z</time></trkpt><trkpt lat="45.68114167789667" lon="11.520106323474657"><ele>88.0</ele><time>2026-04-12T15:31:50.006Z</time></trkpt><trkpt lat="45.68086250041697" lon="11.519931185253666"><ele>87.0</ele><time>2026-04-12T15:31:51.006Z</time></trkpt><trkpt lat="45.68057736497882" lon="11.519764068330979"><ele>87.0</ele><time>2026-04-12T15:31:52.006Z</time></trkpt><trkpt lat="45.68028838526825" lon="11.51960974557273"><ele>87.0</ele><time>2026-04-12T15:31:53.006Z</time></trkpt><trkpt lat="45.679991949470484" lon="11.519467264478354"><ele>87.0</ele><time>2026-04-12T15:31:54.006Z</time></trkpt><trkpt lat="45.67970080706656" lon="11.519338910115154"><ele>87.0</ele><time>2026-04-12T15:31:55.006Z</time></trkpt><trkpt lat="45.67940951465374" lon="11.519216926221864"><ele>86.5</ele><time>2026-04-12T15:31:56.006Z</time></trkpt><trkpt lat="45.67912029255997" lon="11.519107984529082"><ele>86.0</ele><time>2026-04-12T15:31:57.006Z</time></trkpt><trkpt lat="45.67883747073033" lon="11.519015582298115"><ele>85.0</ele><time>2026-04-12T15:31:58.006Z</time></trkpt><trkpt lat="45.67855070260235" lon="11.51893525919043"><ele>84.0</ele><time>2026-04-12T15:31:59.006Z</time></trkpt><trkpt lat="45.678270975187" lon="11.518869861415434"><ele>84.0</ele><time>2026-04-12T15:32:00.006Z</time></trkpt><trkpt lat="45.677990897887994" lon="11.518821102695822"><ele>84.0</ele><time>2026-04-12T15:32:01.006Z</time></trkpt><trkpt lat="45.67770402970122" lon="11.518776215207318"><ele>84.0</ele><time>2026-04-12T15:32:02.006Z</time></trkpt><trkpt lat="45.67741510924419" lon="11.518732465633551"><ele>84.0</ele><time>2026-04-12T15:32:03.006Z</time></trkpt><trkpt lat="45.67712648821893" lon="11.518690097933241"><ele>84.5</ele><time>2026-04-12T15:32:04.006Z</time></trkpt><trkpt lat="45.676839558180404" lon="11.518651465763464"><ele>85.0</ele><time>2026-04-12T15:32:05.006Z</time></trkpt><trkpt lat="45.676538049090965" lon="11.518626610545526"><ele>85.0</ele><time>2026-04-12T15:32:06.006Z</time></trkpt><trkpt lat="45.67625189032712" lon="11.518575165606965"><ele>85.0</ele><time>2026-04-12T15:32:07.006Z</time></trkpt><trkpt lat="45.67595959744801" lon="11.518533135241665"><ele>83.5</ele><time>2026-04-12T15:32:08.006Z</time></trkpt><trkpt lat="45.6756636535059" lon="11.518486459975588"><ele>82.0</ele><time>2026-04-12T15:32:09.006Z</time></trkpt><trkpt lat="45.6753635424437" lon="11.51843446500426"><ele>82.5</ele><time>2026-04-12T15:32:10.006Z</time></trkpt><trkpt lat="45.675063328139025" lon="11.518380441105954"><ele>83.0</ele><time>2026-04-12T15:32:11.006Z</time></trkpt><trkpt lat="45.674762179265564" lon="11.518327768369828"><ele>83.0</ele><time>2026-04-12T15:32:12.006Z</time></trkpt><trkpt lat="45.674461879361445" lon="11.518273258127397"><ele>83.0</ele><time>2026-04-12T15:32:13.006Z</time></trkpt><trkpt lat="45.674171484319075" lon="11.518211275034199"><ele>81.0</ele><time>2026-04-12T15:32:14.006Z</time></trkpt><trkpt lat="45.67387311413427" lon="11.518138677887007"><ele>79.0</ele><time>2026-04-12T15:32:15.006Z</time></trkpt><trkpt lat="45.673566674872184" lon="11.518052129977677"><ele>78.0</ele><time>2026-04-12T15:32:16.006Z</time></trkpt><trkpt lat="45.67325702845116" lon="11.51795163095595"><ele>77.0</ele><time>2026-04-12T15:32:17.006Z</time></trkpt><trkpt lat="45.67295168456153" lon="11.517838764650381"><ele>79.0</ele><time>2026-04-12T15:32:18.006Z</time></trkpt><trkpt lat="45.67264969480745" lon="11.517709502276988"><ele>81.0</ele><time>2026-04-12T15:32:19.006Z</time></trkpt><trkpt lat="45.67235453337121" lon="11.517563514827351"><ele>81.0</ele><time>2026-04-12T15:32:20.006Z</time></trkpt><trkpt lat="45.67206364778396" lon="11.517402408472526"><ele>81.0</ele><time>2026-04-12T15:32:21.006Z</time></trkpt><trkpt lat="45.6717770972961" lon="11.517229651888645"><ele>81.0</ele><time>2026-04-12T15:32:22.006Z</time></trkpt><trkpt lat="45.67149425799301" lon="11.517048201897396"><ele>81.0</ele><time>2026-04-12T15:32:23.006Z</time></trkpt><trkpt lat="45.6712149338755" lon="11.516857296491702"><ele>81.0</ele><time>2026-04-12T15:32:24.006Z</time></trkpt><trkpt lat="45.67094090260511" lon="11.51665439053164"><ele>81.0</ele><time>2026-04-12T15:32:25.006Z</time></trkpt><trkpt lat="45.670676071890355" lon="11.51643882478108"><ele>80.0</ele><time>2026-04-12T15:32:26.008Z</time></trkpt><trkpt lat="45.6704151296377" lon="11.51623409683847"><ele>79.0</ele><time>2026-04-12T15:32:27.008Z</time></trkpt><trkpt lat="45.670153067029574" lon="11.51602230486023"><ele>79.0</ele><time>2026-04-12T15:32:28.008Z</time></trkpt><trkpt lat="45.66988845096156" lon="11.5158091686302"><ele>79.0</ele><time>2026-04-12T15:32:29.008Z</time></trkpt><trkpt lat="45.669618682167126" lon="11.51559884058832"><ele>79.0</ele><time>2026-04-12T15:32:30.008Z</time></trkpt><trkpt lat="45.669395227901795" lon="11.515188111318418"><ele>79.0</ele><time>2026-04-12T15:32:31.008Z</time></trkpt><trkpt lat="45.66916419311851" lon="11.514894185626918"><ele>79.0</ele><time>2026-04-12T15:32:32.008Z</time></trkpt><trkpt lat="45.668936979155006" lon="11.514601796913713"><ele>79.0</ele><time>2026-04-12T15:32:33.008Z</time></trkpt><trkpt lat="45.66872518084252" lon="11.514294453703911"><ele>79.0</ele><time>2026-04-12T15:32:34.008Z</time></trkpt><trkpt lat="45.66851548302647" lon="11.513982842960528"><ele>79.0</ele><time>2026-04-12T15:32:35.008Z</time></trkpt><trkpt lat="45.66831010932906" lon="11.513669156135174"><ele>78.5</ele><time>2026-04-12T15:32:36.008Z</time></trkpt><trkpt lat="45.66811758438569" lon="11.513337273073871"><ele>78.0</ele><time>2026-04-12T15:32:37.008Z</time></trkpt><trkpt lat="45.667926601822295" lon="11.512997767901991"><ele>77.0</ele><time>2026-04-12T15:32:38.008Z</time></trkpt><trkpt lat="45.667735480077646" lon="11.512642447569283"><ele>76.0</ele><time>2026-04-12T15:32:39.008Z</time></trkpt><trkpt lat="45.66756015037402" lon="11.512268760057554"><ele>76.5</ele><time>2026-04-12T15:32:40.008Z</time></trkpt><trkpt lat="45.66737445984507" lon="11.511900265219886"><ele>77.0</ele><time>2026-04-12T15:32:41.008Z</time></trkpt><trkpt lat="45.667213189185745" lon="11.511513776990778"><ele>77.0</ele><time>2026-04-12T15:32:42.008Z</time></trkpt><trkpt lat="45.667060967798065" lon="11.51112056420225"><ele>77.0</ele><time>2026-04-12T15:32:43.008Z</time></trkpt><trkpt lat="45.666895923344896" lon="11.51070320063819"><ele>76.5</ele><time>2026-04-12T15:32:44.008Z</time></trkpt><trkpt lat="45.66674667050725" lon="11.51028638056477"><ele>76.0</ele><time>2026-04-12T15:32:45.008Z</time></trkpt><trkpt lat="45.66661204019041" lon="11.509861480958762"><ele>76.0</ele><time>2026-04-12T15:32:46.008Z</time></trkpt><trkpt lat="45.666483483955105" lon="11.5094116430804"><ele>76.0</ele><time>2026-04-12T15:32:47.008Z</time></trkpt><trkpt lat="45.66636983659197" lon="11.508972017748825"><ele>77.5</ele><time>2026-04-12T15:32:48.008Z</time></trkpt><trkpt lat="45.66625761188111" lon="11.508528721302126"><ele>79.0</ele><time>2026-04-12T15:32:49.008Z</time></trkpt><trkpt lat="45.666142676731866" lon="11.508068313251007"><ele>77.0</ele><time>2026-04-12T15:32:50.008Z</time></trkpt><trkpt lat="45.66602841905059" lon="11.507598898042621"><ele>75.0</ele><time>2026-04-12T15:32:51.008Z</time></trkpt><trkpt lat="45.665913937403054" lon="11.507115496949062"><ele>76.0</ele><time>2026-04-12T15:32:52.008Z</time></trkpt><trkpt lat="45.665804515231386" lon="11.50661375726048"><ele>77.0</ele><time>2026-04-12T15:32:53.008Z</time></trkpt><trkpt lat="45.66567863868537" lon="11.506101104003418"><ele>77.5</ele><time>2026-04-12T15:32:54.008Z</time></trkpt><trkpt lat="45.66556205002238" lon="11.505606049963825"><ele>78.0</ele><time>2026-04-12T15:32:55.008Z</time></trkpt><trkpt lat="45.66544973000353" lon="11.505117682093685"><ele>78.5</ele><time>2026-04-12T15:32:56.008Z</time></trkpt><trkpt lat="45.665342687540345" lon="11.50465373261158"><ele>79.0</ele><time>2026-04-12T15:32:57.008Z</time></trkpt><trkpt lat="45.665232784325575" lon="11.504194423052759"><ele>78.0</ele><time>2026-04-12T15:32:58.008Z</time></trkpt><trkpt lat="45.66512520323226" lon="11.503746669925674"><ele>77.0</ele><time>2026-04-12T15:32:59.008Z</time></trkpt><trkpt lat="45.66502164682455" lon="11.50330305527974"><ele>78.0</ele><time>2026-04-12T15:33:00.008Z</time></trkpt><trkpt lat="45.66491980710659" lon="11.502868203207829"><ele>79.0</ele><time>2026-04-12T15:33:01.008Z</time></trkpt><trkpt lat="45.664821756714026" lon="11.502443963180752"><ele>77.5</ele><time>2026-04-12T15:33:02.008Z</time></trkpt><trkpt lat="45.66474171111689" lon="11.502049623009155"><ele>76.0</ele><time>2026-04-12T15:33:03.008Z</time></trkpt><trkpt lat="45.66461567775872" lon="11.501605956484909"><ele>76.0</ele><time>2026-04-12T15:33:04.008Z</time></trkpt><trkpt lat="45.66451332469465" lon="11.501179895872113"><ele>76.0</ele><time>2026-04-12T15:33:05.008Z</time></trkpt><trkpt lat="45.66441018275983" lon="11.50074525059916"><ele>76.5</ele><time>2026-04-12T15:33:06.008Z</time></trkpt><trkpt lat="45.664293028377095" lon="11.500299910549074"><ele>77.0</ele><time>2026-04-12T15:33:07.008Z</time></trkpt><trkpt lat="45.66417436585957" lon="11.499849092390749"><ele>77.0</ele><time>2026-04-12T15:33:08.026Z</time></trkpt><trkpt lat="45.66406029723083" lon="11.499410297393233"><ele>77.0</ele><time>2026-04-12T15:33:09.023Z</time></trkpt><trkpt lat="45.66394905019993" lon="11.498979133527822"><ele>76.5</ele><time>2026-04-12T15:33:10.027Z</time></trkpt><trkpt lat="45.66383918963162" lon="11.498545456569857"><ele>76.0</ele><time>2026-04-12T15:33:11.027Z</time></trkpt><trkpt lat="45.66380399825988" lon="11.498100499300053"><ele>76.0</ele><time>2026-04-12T15:33:12.008Z</time></trkpt><trkpt lat="45.66371837385456" lon="11.497800951055547"><ele>76.0</ele><time>2026-04-12T15:33:13.008Z</time></trkpt><trkpt lat="45.66361964908487" lon="11.497366233051169"><ele>77.5</ele><time>2026-04-12T15:33:14.008Z</time></trkpt><trkpt lat="45.66353231341577" lon="11.496940464767532"><ele>79.0</ele><time>2026-04-12T15:33:15.008Z</time></trkpt><trkpt lat="45.663426390911425" lon="11.49652810319752"><ele>79.0</ele><time>2026-04-12T15:33:16.008Z</time></trkpt><trkpt lat="45.66333182046145" lon="11.496096349275666"><ele>79.0</ele><time>2026-04-12T15:33:17.008Z</time></trkpt><trkpt lat="45.663237594872456" lon="11.495667638097688"><ele>79.5</ele><time>2026-04-12T15:33:18.008Z</time></trkpt><trkpt lat="45.663142616729964" lon="11.495232818848573"><ele>80.0</ele><time>2026-04-12T15:33:19.024Z</time></trkpt><trkpt lat="45.66305052836435" lon="11.494802345829003"><ele>79.5</ele><time>2026-04-12T15:33:20.026Z</time></trkpt><trkpt lat="45.6629563473359" lon="11.494373970522515"><ele>79.0</ele><time>2026-04-12T15:33:21.026Z</time></trkpt><trkpt lat="45.66285612588104" lon="11.493949797524209"><ele>79.0</ele><time>2026-04-12T15:33:22.026Z</time></trkpt><trkpt lat="45.66276289612458" lon="11.493522872530233"><ele>79.0</ele><time>2026-04-12T15:33:23.027Z</time></trkpt><trkpt lat="45.661897938741056" lon="11.490065837289663"><ele>79.0</ele><time>2026-04-12T15:33:32.008Z</time></trkpt><trkpt lat="45.66180555925093" lon="11.489690386828245"><ele>79.0</ele><time>2026-04-12T15:33:33.008Z</time></trkpt><trkpt lat="45.66170535706829" lon="11.489349296938064"><ele>79.0</ele><time>2026-04-12T15:33:34.008Z</time></trkpt><trkpt lat="45.661615528235" lon="11.488977365232277"><ele>79.0</ele><time>2026-04-12T15:33:35.008Z</time></trkpt><trkpt lat="45.66151106440365" lon="11.488580849647168"><ele>79.0</ele><time>2026-04-12T15:33:36.008Z</time></trkpt><trkpt lat="45.661403538102775" lon="11.488162885983566"><ele>79.0</ele><time>2026-04-12T15:33:37.008Z</time></trkpt><trkpt lat="45.661277418848975" lon="11.487709600720716"><ele>79.0</ele><time>2026-04-12T15:33:38.008Z</time></trkpt><trkpt lat="45.66116749074507" lon="11.487273590725833"><ele>79.0</ele><time>2026-04-12T15:33:39.008Z</time></trkpt><trkpt lat="45.661067724692565" lon="11.486843701809448"><ele>78.5</ele><time>2026-04-12T15:33:40.008Z</time></trkpt><trkpt lat="45.66095819484937" lon="11.48643133267603"><ele>78.0</ele><time>2026-04-12T15:33:41.008Z</time></trkpt><trkpt lat="45.660853683044635" lon="11.486012924837858"><ele>79.0</ele><time>2026-04-12T15:33:42.008Z</time></trkpt><trkpt lat="45.66074697722668" lon="11.48559802225809"><ele>80.0</ele><time>2026-04-12T15:33:43.008Z</time></trkpt><trkpt lat="45.66063148140514" lon="11.485168513899463"><ele>80.5</ele><time>2026-04-12T15:33:44.008Z</time></trkpt><trkpt lat="45.66052145714911" lon="11.484742573438789"><ele>81.0</ele><time>2026-04-12T15:33:45.008Z</time></trkpt><trkpt lat="45.66038818688109" lon="11.484329925575341"><ele>80.5</ele><time>2026-04-12T15:33:46.008Z</time></trkpt><trkpt lat="45.660264449421554" lon="11.483951612735787"><ele>80.0</ele><time>2026-04-12T15:33:47.008Z</time></trkpt><trkpt lat="45.66014022227623" lon="11.483601947736888"><ele>80.0</ele><time>2026-04-12T15:33:48.008Z</time></trkpt><trkpt lat="45.66001941623527" lon="11.483268370661618"><ele>80.0</ele><time>2026-04-12T15:33:49.008Z</time></trkpt><trkpt lat="45.65988408816107" lon="11.482911573861626"><ele>80.0</ele><time>2026-04-12T15:33:50.008Z</time></trkpt><trkpt lat="45.65973756577082" lon="11.482540521958962"><ele>80.0</ele><time>2026-04-12T15:33:51.008Z</time></trkpt><trkpt lat="45.65957829673455" lon="11.482159416640942"><ele>79.5</ele><time>2026-04-12T15:33:52.008Z</time></trkpt><trkpt lat="45.65940077068827" lon="11.481759445135625"><ele>79.0</ele><time>2026-04-12T15:33:53.008Z</time></trkpt><trkpt lat="45.65921903253129" lon="11.481356313061813"><ele>79.5</ele><time>2026-04-12T15:33:54.008Z</time></trkpt><trkpt lat="45.659038586760545" lon="11.48094709805954"><ele>80.0</ele><time>2026-04-12T15:33:55.008Z</time></trkpt><trkpt lat="45.65884533799637" lon="11.480521359127629"><ele>80.5</ele><time>2026-04-12T15:33:56.008Z</time></trkpt><trkpt lat="45.65863572150303" lon="11.48009174845668"><ele>81.0</ele><time>2026-04-12T15:33:57.008Z</time></trkpt><trkpt lat="45.65841933958309" lon="11.479666942464025"><ele>80.0</ele><time>2026-04-12T15:33:58.008Z</time></trkpt><trkpt lat="45.65819609300307" lon="11.479250386952414"><ele>79.0</ele><time>2026-04-12T15:33:59.008Z</time></trkpt><trkpt lat="45.65797500646393" lon="11.478843171686938"><ele>80.0</ele><time>2026-04-12T15:34:00.008Z</time></trkpt><trkpt lat="45.65774753399807" lon="11.478445492596551"><ele>81.0</ele><time>2026-04-12T15:34:01.008Z</time></trkpt><trkpt lat="45.65753279506266" lon="11.478075688694165"><ele>81.0</ele><time>2026-04-12T15:34:02.008Z</time></trkpt><trkpt lat="45.657314468348176" lon="11.477702099004377"><ele>81.0</ele><time>2026-04-12T15:34:03.008Z</time></trkpt><trkpt lat="45.657090653798086" lon="11.477319389923347"><ele>80.5</ele><time>2026-04-12T15:34:04.027Z</time></trkpt><trkpt lat="45.6568707031638" lon="11.476944228876473"><ele>80.0</ele><time>2026-04-12T15:34:05.025Z</time></trkpt><trkpt lat="45.65665272013903" lon="11.476574534467877"><ele>80.5</ele><time>2026-04-12T15:34:06.008Z</time></trkpt><trkpt lat="45.6563975040412" lon="11.476187915061702"><ele>81.0</ele><time>2026-04-12T15:34:07.008Z</time></trkpt><trkpt lat="45.65615825583882" lon="11.475792037630427"><ele>81.0</ele><time>2026-04-12T15:34:08.008Z</time></trkpt><trkpt lat="45.65592041916721" lon="11.475400318149752"><ele>81.0</ele><time>2026-04-12T15:34:09.008Z</time></trkpt><trkpt lat="45.655678140168604" lon="11.474990683962128"><ele>81.0</ele><time>2026-04-12T15:34:10.008Z</time></trkpt><trkpt lat="45.65543518099381" lon="11.474585209414034"><ele>81.0</ele><time>2026-04-12T15:34:11.008Z</time></trkpt><trkpt lat="45.655208962023934" lon="11.474192885602003"><ele>81.0</ele><time>2026-04-12T15:34:12.008Z</time></trkpt><trkpt lat="45.65499276590102" lon="11.473815664873184"><ele>81.0</ele><time>2026-04-12T15:34:13.008Z</time></trkpt><trkpt lat="45.654772594312426" lon="11.473432439919172"><ele>81.0</ele><time>2026-04-12T15:34:14.026Z</time></trkpt><trkpt lat="45.65455660967566" lon="11.47305169049804"><ele>81.0</ele><time>2026-04-12T15:34:15.029Z</time></trkpt><trkpt lat="45.654340590569134" lon="11.472673393217043"><ele>81.0</ele><time>2026-04-12T15:34:16.028Z</time></trkpt><trkpt lat="45.654132489002095" lon="11.472301764876077"><ele>81.0</ele><time>2026-04-12T15:34:17.029Z</time></trkpt><trkpt lat="45.65392617090219" lon="11.471931226039684"><ele>81.0</ele><time>2026-04-12T15:34:18.027Z</time></trkpt><trkpt lat="45.65384380989303" lon="11.471611484895899"><ele>81.0</ele><time>2026-04-12T15:34:19.008Z</time></trkpt><trkpt lat="45.65366624866729" lon="11.47123754760194"><ele>80.5</ele><time>2026-04-12T15:34:20.008Z</time></trkpt><trkpt lat="45.6535069372041" lon="11.470850579660274"><ele>80.0</ele><time>2026-04-12T15:34:21.008Z</time></trkpt><trkpt lat="45.65334432026622" lon="11.470448992485077"><ele>80.5</ele><time>2026-04-12T15:34:22.008Z</time></trkpt><trkpt lat="45.653167652077464" lon="11.470068015171977"><ele>81.0</ele><time>2026-04-12T15:34:23.008Z</time></trkpt><trkpt lat="45.65301226441614" lon="11.469620715842364"><ele>81.0</ele><time>2026-04-12T15:34:24.008Z</time></trkpt><trkpt lat="45.652845700592444" lon="11.46922000077272"><ele>81.0</ele><time>2026-04-12T15:34:25.008Z</time></trkpt><trkpt lat="45.65268130546267" lon="11.468820922976446"><ele>81.0</ele><time>2026-04-12T15:34:26.008Z</time></trkpt><trkpt lat="45.65253793768768" lon="11.468434809314244"><ele>81.0</ele><time>2026-04-12T15:34:27.008Z</time></trkpt><trkpt lat="45.65240018498578" lon="11.468058385994196"><ele>82.0</ele><time>2026-04-12T15:34:28.008Z</time></trkpt><trkpt lat="45.652282907081364" lon="11.467681089191204"><ele>83.0</ele><time>2026-04-12T15:34:29.008Z</time></trkpt><trkpt lat="45.65215378631884" lon="11.467314296402602"><ele>83.0</ele><time>2026-04-12T15:34:30.008Z</time></trkpt><trkpt lat="45.65203922677014" lon="11.466954576327709"><ele>83.0</ele><time>2026-04-12T15:34:31.008Z</time></trkpt><trkpt lat="45.65192115968353" lon="11.466603850524354"><ele>81.5</ele><time>2026-04-12T15:34:32.009Z</time></trkpt><trkpt lat="45.65181371659232" lon="11.466260079131615"><ele>80.0</ele><time>2026-04-12T15:34:33.009Z</time></trkpt><trkpt lat="45.6517049423908" lon="11.465920114294747"><ele>80.0</ele><time>2026-04-12T15:34:34.009Z</time></trkpt><trkpt lat="45.651599824774024" lon="11.46558051752743"><ele>80.0</ele><time>2026-04-12T15:34:35.009Z</time></trkpt><trkpt lat="45.65149455653809" lon="11.465236691597502"><ele>80.5</ele><time>2026-04-12T15:34:36.009Z</time></trkpt><trkpt lat="45.651379348147465" lon="11.464888248885982"><ele>81.0</ele><time>2026-04-12T15:34:37.009Z</time></trkpt><trkpt lat="45.651257411272645" lon="11.464517465626026"><ele>81.0</ele><time>2026-04-12T15:34:38.009Z</time></trkpt><trkpt lat="45.651128820097426" lon="11.464130603617251"><ele>81.0</ele><time>2026-04-12T15:34:39.009Z</time></trkpt><trkpt lat="45.65100151946567" lon="11.46372614877399"><ele>81.0</ele><time>2026-04-12T15:34:40.009Z</time></trkpt><trkpt lat="45.65086590027585" lon="11.463316181062957"><ele>81.0</ele><time>2026-04-12T15:34:41.009Z</time></trkpt><trkpt lat="45.65072887205214" lon="11.462890316291768"><ele>81.0</ele><time>2026-04-12T15:34:42.009Z</time></trkpt><trkpt lat="45.65059167081407" lon="11.462453092937933"><ele>81.0</ele><time>2026-04-12T15:34:43.009Z</time></trkpt><trkpt lat="45.65046111892777" lon="11.462028100419147"><ele>82.5</ele><time>2026-04-12T15:34:44.009Z</time></trkpt><trkpt lat="45.650337425870795" lon="11.461606438605983"><ele>84.0</ele><time>2026-04-12T15:34:45.009Z</time></trkpt><trkpt lat="45.650211970327874" lon="11.461186974534371"><ele>84.0</ele><time>2026-04-12T15:34:46.009Z</time></trkpt><trkpt lat="45.65009983352791" lon="11.460778646508654"><ele>84.0</ele><time>2026-04-12T15:34:47.009Z</time></trkpt><trkpt lat="45.64999049757816" lon="11.460371607987415"><ele>85.0</ele><time>2026-04-12T15:34:48.009Z</time></trkpt><trkpt lat="45.64988411447099" lon="11.459959050294417"><ele>86.0</ele><time>2026-04-12T15:34:49.009Z</time></trkpt><trkpt lat="45.649777907638736" lon="11.459536489866995"><ele>86.0</ele><time>2026-04-12T15:34:50.009Z</time></trkpt><trkpt lat="45.649680259808925" lon="11.459121506625799"><ele>86.0</ele><time>2026-04-12T15:34:51.009Z</time></trkpt><trkpt lat="45.64958715074737" lon="11.458712666561926"><ele>86.0</ele><time>2026-04-12T15:34:52.009Z</time></trkpt><trkpt lat="45.649502301356065" lon="11.458304158712313"><ele>86.0</ele><time>2026-04-12T15:34:53.009Z</time></trkpt><trkpt lat="45.64942335408371" lon="11.457898355851976"><ele>86.5</ele><time>2026-04-12T15:34:54.009Z</time></trkpt><trkpt lat="45.64934728026315" lon="11.45748417727783"><ele>87.0</ele><time>2026-04-12T15:34:55.009Z</time></trkpt><trkpt lat="45.64927727103341" lon="11.457068799535493"><ele>86.0</ele><time>2026-04-12T15:34:56.009Z</time></trkpt><trkpt lat="45.64920913200061" lon="11.45664466924436"><ele>85.0</ele><time>2026-04-12T15:34:57.009Z</time></trkpt><trkpt lat="45.649154028793426" lon="11.456218129389363"><ele>85.0</ele><time>2026-04-12T15:34:58.009Z</time></trkpt><trkpt lat="45.649096190854685" lon="11.45577699609194"><ele>85.0</ele><time>2026-04-12T15:34:59.009Z</time></trkpt><trkpt lat="45.649047834184536" lon="11.45533352876641"><ele>85.0</ele><time>2026-04-12T15:35:00.009Z</time></trkpt><trkpt lat="45.64900859679238" lon="11.45488790871013"><ele>85.0</ele><time>2026-04-12T15:35:01.009Z</time></trkpt><trkpt lat="45.64896513936748" lon="11.454437018382764"><ele>85.0</ele><time>2026-04-12T15:35:02.009Z</time></trkpt><trkpt lat="45.648929897133385" lon="11.45399039835171"><ele>85.0</ele><time>2026-04-12T15:35:03.009Z</time></trkpt><trkpt lat="45.648899080172505" lon="11.453544573647438"><ele>85.5</ele><time>2026-04-12T15:35:04.009Z</time></trkpt><trkpt lat="45.64887781648478" lon="11.453096603142415"><ele>86.0</ele><time>2026-04-12T15:35:05.009Z</time></trkpt><trkpt lat="45.64886108810775" lon="11.452649706077494"><ele>86.5</ele><time>2026-04-12T15:35:06.009Z</time></trkpt><trkpt lat="45.64884606824626" lon="11.452182549055365"><ele>87.0</ele><time>2026-04-12T15:35:07.009Z</time></trkpt><trkpt lat="45.648844705235604" lon="11.451705831211944"><ele>87.5</ele><time>2026-04-12T15:35:08.009Z</time></trkpt><trkpt lat="45.64884406665443" lon="11.451230445115472"><ele>88.0</ele><time>2026-04-12T15:35:09.009Z</time></trkpt><trkpt lat="45.64884799812668" lon="11.450731082918312"><ele>87.5</ele><time>2026-04-12T15:35:10.009Z</time></trkpt><trkpt lat="45.64885396035743" lon="11.450240250429651"><ele>87.0</ele><time>2026-04-12T15:35:11.009Z</time></trkpt><trkpt lat="45.648862898961774" lon="11.44976296775731"><ele>87.5</ele><time>2026-04-12T15:35:12.009Z</time></trkpt><trkpt lat="45.648877139024954" lon="11.449293865689727"><ele>88.0</ele><time>2026-04-12T15:35:13.009Z</time></trkpt><trkpt lat="45.64889055642493" lon="11.44882613074356"><ele>88.5</ele><time>2026-04-12T15:35:14.009Z</time></trkpt><trkpt lat="45.64890632962942" lon="11.44835639732915"><ele>89.0</ele><time>2026-04-12T15:35:15.009Z</time></trkpt><trkpt lat="45.6489195089167" lon="11.447887204695714"><ele>89.0</ele><time>2026-04-12T15:35:16.009Z</time></trkpt><trkpt lat="45.64892991316357" lon="11.44742221337075"><ele>89.0</ele><time>2026-04-12T15:35:17.009Z</time></trkpt><trkpt lat="45.648939102735234" lon="11.446966292593375"><ele>89.0</ele><time>2026-04-12T15:35:18.009Z</time></trkpt><trkpt lat="45.64894817504399" lon="11.446528445475405"><ele>89.0</ele><time>2026-04-12T15:35:19.009Z</time></trkpt><trkpt lat="45.64895130491033" lon="11.446080406006724"><ele>89.0</ele><time>2026-04-12T15:35:20.009Z</time></trkpt><trkpt lat="45.648956440469334" lon="11.445635636484347"><ele>89.0</ele><time>2026-04-12T15:35:21.009Z</time></trkpt><trkpt lat="45.64896040552649" lon="11.445188458138787"><ele>89.0</ele><time>2026-04-12T15:35:22.009Z</time></trkpt><trkpt lat="45.64895403099988" lon="11.444737635949652"><ele>89.0</ele><time>2026-04-12T15:35:23.009Z</time></trkpt><trkpt lat="45.64894949488811" lon="11.444289756964316"><ele>89.0</ele><time>2026-04-12T15:35:24.009Z</time></trkpt><trkpt lat="45.648938651373896" lon="11.443834800965288"><ele>89.0</ele><time>2026-04-12T15:35:25.009Z</time></trkpt><trkpt lat="45.64892568765167" lon="11.443395372724869"><ele>89.5</ele><time>2026-04-12T15:35:26.009Z</time></trkpt><trkpt lat="45.64891090203846" lon="11.442959282818844"><ele>90.0</ele><time>2026-04-12T15:35:27.009Z</time></trkpt><trkpt lat="45.64890246554216" lon="11.44254978370824"><ele>91.0</ele><time>2026-04-12T15:35:28.009Z</time></trkpt><trkpt lat="45.64883567092425" lon="11.442029004307546"><ele>92.0</ele><time>2026-04-12T15:35:29.009Z</time></trkpt><trkpt lat="45.64879689049922" lon="11.441580884737084"><ele>92.0</ele><time>2026-04-12T15:35:30.009Z</time></trkpt><trkpt lat="45.64875879478465" lon="11.441139552694493"><ele>92.0</ele><time>2026-04-12T15:35:31.009Z</time></trkpt><trkpt lat="45.648716829720925" lon="11.440705837893367"><ele>92.0</ele><time>2026-04-12T15:35:32.009Z</time></trkpt><trkpt lat="45.64867540213836" lon="11.44027516593208"><ele>92.0</ele><time>2026-04-12T15:35:33.009Z</time></trkpt><trkpt lat="45.64862224187838" lon="11.439838261742713"><ele>91.5</ele><time>2026-04-12T15:35:34.009Z</time></trkpt><trkpt lat="45.648566074216234" lon="11.43940325757115"><ele>91.0</ele><time>2026-04-12T15:35:35.009Z</time></trkpt><trkpt lat="45.64850249388751" lon="11.438965084777678"><ele>90.5</ele><time>2026-04-12T15:35:36.009Z</time></trkpt><trkpt lat="45.64844065601124" lon="11.438528826973043"><ele>90.0</ele><time>2026-04-12T15:35:37.009Z</time></trkpt><trkpt lat="45.64837017227393" lon="11.438088538981654"><ele>89.5</ele><time>2026-04-12T15:35:38.009Z</time></trkpt><trkpt lat="45.648301146100955" lon="11.437648213849098"><ele>89.0</ele><time>2026-04-12T15:35:39.009Z</time></trkpt><trkpt lat="45.64823085340248" lon="11.43721062418747"><ele>88.5</ele><time>2026-04-12T15:35:40.009Z</time></trkpt><trkpt lat="45.648158186066155" lon="11.436772120143374"><ele>88.0</ele><time>2026-04-12T15:35:41.009Z</time></trkpt><trkpt lat="45.64808536791447" lon="11.436331412620348"><ele>88.5</ele><time>2026-04-12T15:35:42.009Z</time></trkpt><trkpt lat="45.648011736410346" lon="11.43589372448868"><ele>89.0</ele><time>2026-04-12T15:35:43.009Z</time></trkpt><trkpt lat="45.64793804363104" lon="11.43545851830521"><ele>89.0</ele><time>2026-04-12T15:35:44.009Z</time></trkpt><trkpt lat="45.64786599564505" lon="11.435027656365895"><ele>89.0</ele><time>2026-04-12T15:35:45.009Z</time></trkpt><trkpt lat="45.64779410046033" lon="11.434601614903114"><ele>89.0</ele><time>2026-04-12T15:35:46.009Z</time></trkpt><trkpt lat="45.64771946633627" lon="11.434175092748191"><ele>89.0</ele><time>2026-04-12T15:35:47.009Z</time></trkpt><trkpt lat="45.64764556003426" lon="11.433752072775315"><ele>89.0</ele><time>2026-04-12T15:35:48.009Z</time></trkpt><trkpt lat="45.64757491967502" lon="11.43333549791544"><ele>89.0</ele><time>2026-04-12T15:35:49.009Z</time></trkpt><trkpt lat="45.64749931636968" lon="11.432919733350316"><ele>89.0</ele><time>2026-04-12T15:35:50.009Z</time></trkpt><trkpt lat="45.64742060043648" lon="11.432510352536447"><ele>89.0</ele><time>2026-04-12T15:35:51.009Z</time></trkpt><trkpt lat="45.64733228796071" lon="11.432099790669653"><ele>90.0</ele><time>2026-04-12T15:35:52.009Z</time></trkpt><trkpt lat="45.64724164751009" lon="11.431702354439194"><ele>91.0</ele><time>2026-04-12T15:35:53.009Z</time></trkpt><trkpt lat="45.64714889103626" lon="11.431312704768667"><ele>91.5</ele><time>2026-04-12T15:35:54.009Z</time></trkpt><trkpt lat="45.6470524286297" lon="11.430932422885048"><ele>92.0</ele><time>2026-04-12T15:35:55.009Z</time></trkpt><trkpt lat="45.64695349597693" lon="11.430554383529406"><ele>93.0</ele><time>2026-04-12T15:35:56.009Z</time></trkpt><trkpt lat="45.646852431065795" lon="11.430179528205048"><ele>94.0</ele><time>2026-04-12T15:35:57.009Z</time></trkpt><trkpt lat="45.64674780947703" lon="11.42980426065678"><ele>93.5</ele><time>2026-04-12T15:35:58.009Z</time></trkpt><trkpt lat="45.64664199024455" lon="11.429433066604648"><ele>93.0</ele><time>2026-04-12T15:35:59.009Z</time></trkpt><trkpt lat="45.646533796887994" lon="11.429063426990528"><ele>93.5</ele><time>2026-04-12T15:36:00.009Z</time></trkpt><trkpt lat="45.646418886162834" lon="11.428697484499153"><ele>94.0</ele><time>2026-04-12T15:36:01.009Z</time></trkpt><trkpt lat="45.646303426064485" lon="11.428323008514532"><ele>94.5</ele><time>2026-04-12T15:36:02.009Z</time></trkpt><trkpt lat="45.646179881272666" lon="11.427935660914017"><ele>95.0</ele><time>2026-04-12T15:36:03.009Z</time></trkpt><trkpt lat="45.646051143045206" lon="11.42753421923488"><ele>94.5</ele><time>2026-04-12T15:36:04.009Z</time></trkpt><trkpt lat="45.645913531004375" lon="11.427130663225464"><ele>94.0</ele><time>2026-04-12T15:36:05.009Z</time></trkpt><trkpt lat="45.645778243804976" lon="11.426728936714108"><ele>94.0</ele><time>2026-04-12T15:36:06.009Z</time></trkpt><trkpt lat="45.64564707801419" lon="11.426331819740104"><ele>94.0</ele><time>2026-04-12T15:36:07.009Z</time></trkpt><trkpt lat="45.64551379873298" lon="11.425927719872817"><ele>93.5</ele><time>2026-04-12T15:36:08.026Z</time></trkpt><trkpt lat="45.64537960219572" lon="11.42552738608191"><ele>93.0</ele><time>2026-04-12T15:36:09.027Z</time></trkpt><trkpt lat="45.64525489562001" lon="11.425134348451436"><ele>93.0</ele><time>2026-04-12T15:36:10.026Z</time></trkpt><trkpt lat="45.6451298195791" lon="11.424742010854313"><ele>93.0</ele><time>2026-04-12T15:36:11.03Z</time></trkpt><trkpt lat="45.645000118150705" lon="11.424346364323096"><ele>92.5</ele><time>2026-04-12T15:36:12.027Z</time></trkpt><trkpt lat="45.644877420216815" lon="11.423957805447493"><ele>92.0</ele><time>2026-04-12T15:36:13.026Z</time></trkpt><trkpt lat="45.64458585261039" lon="11.423150635203406"><ele>94.0</ele><time>2026-04-12T15:36:36.66Z</time></trkpt><trkpt lat="45.644158837383515" lon="11.421877732720745"><ele>111.0</ele><time>2026-04-12T15:36:37.66Z</time></trkpt><trkpt lat="45.64373138698187" lon="11.420604310667377"><ele>151.0</ele><time>2026-04-12T15:36:38.661Z</time></trkpt><trkpt lat="45.64330392002412" lon="11.419331836292264"><ele>145.0</ele><time>2026-04-12T15:36:39.661Z</time></trkpt><trkpt lat="45.64283793832487" lon="11.418088234025085"><ele>166.0</ele><time>2026-04-12T15:36:40.661Z</time></trkpt><trkpt lat="45.642382935473606" lon="11.416835443369921"><ele>189.0</ele><time>2026-04-12T15:36:41.66Z</time></trkpt><trkpt lat="45.641888684051956" lon="11.415613116325853"><ele>231.0</ele><time>2026-04-12T15:36:42.661Z</time></trkpt><trkpt lat="45.641351897071246" lon="11.414428116562146"><ele>259.0</ele><time>2026-04-12T15:36:43.66Z</time></trkpt><trkpt lat="45.640786799159294" lon="11.413269718538588"><ele>298.0</ele><time>2026-04-12T15:36:44.661Z</time></trkpt><trkpt lat="45.6401888744548" lon="11.412145937294934"><ele>293.0</ele><time>2026-04-12T15:36:45.661Z</time></trkpt><trkpt lat="45.63955487351939" lon="11.411062598768916"><ele>267.0</ele><time>2026-04-12T15:36:46.66Z</time></trkpt><trkpt lat="45.63892681877461" lon="11.409972165921873"><ele>264.0</ele><time>2026-04-12T15:36:47.66Z</time></trkpt><trkpt lat="45.638293656866175" lon="11.408887821348758"><ele>306.0</ele><time>2026-04-12T15:36:48.66Z</time></trkpt><trkpt lat="45.637622598482544" lon="11.407849779285478"><ele>317.0</ele><time>2026-04-12T15:36:49.661Z</time></trkpt><trkpt lat="45.63694575514628" lon="11.406820221145196"><ele>328.0</ele><time>2026-04-12T15:36:50.661Z</time></trkpt><trkpt lat="45.63626994890921" lon="11.405789961109543"><ele>343.0</ele><time>2026-04-12T15:36:51.661Z</time></trkpt><trkpt lat="45.635593511227036" lon="11.404760789885783"><ele>358.0</ele><time>2026-04-12T15:36:52.661Z</time></trkpt><trkpt lat="45.634916955092955" lon="11.403731411299226"><ele>312.0</ele><time>2026-04-12T15:36:53.661Z</time></trkpt><trkpt lat="45.63423852214118" lon="11.40270279831039"><ele>272.0</ele><time>2026-04-12T15:36:54.661Z</time></trkpt><trkpt lat="45.63354979795734" lon="11.401689825092216"><ele>296.0</ele><time>2026-04-12T15:36:55.661Z</time></trkpt><trkpt lat="45.6328081581392" lon="11.400755779522637"><ele>274.0</ele><time>2026-04-12T15:36:56.662Z</time></trkpt><trkpt lat="45.63203442429293" lon="11.399878965912077"><ele>263.0</ele><time>2026-04-12T15:36:57.66Z</time></trkpt><trkpt lat="45.63124133205112" lon="11.399035053242875"><ele>290.0</ele><time>2026-04-12T15:36:58.66Z</time></trkpt><trkpt lat="45.630427451397686" lon="11.398232524804301"><ele>303.0</ele><time>2026-04-12T15:36:59.66Z</time></trkpt><trkpt lat="45.629604503246036" lon="11.397448851102267"><ele>262.0</ele><time>2026-04-12T15:37:00.66Z</time></trkpt><trkpt lat="45.62877591006799" lon="11.396674481557397"><ele>257.0</ele><time>2026-04-12T15:37:01.662Z</time></trkpt><trkpt lat="45.627951462062846" lon="11.395897007468625"><ele>257.0</ele><time>2026-04-12T15:37:02.66Z</time></trkpt><trkpt lat="45.62711665772419" lon="11.395139930334679"><ele>206.0</ele><time>2026-04-12T15:37:03.66Z</time></trkpt><trkpt lat="45.62625295222387" lon="11.394451311947428"><ele>196.0</ele><time>2026-04-12T15:37:04.66Z</time></trkpt><trkpt lat="45.62537529785134" lon="11.393799410441668"><ele>224.0</ele><time>2026-04-12T15:37:05.66Z</time></trkpt><trkpt lat="45.6244889638555" lon="11.393171871747535"><ele>338.0</ele><time>2026-04-12T15:37:06.66Z</time></trkpt><trkpt lat="45.62360219386286" lon="11.39254511067879"><ele>424.0</ele><time>2026-04-12T15:37:07.661Z</time></trkpt><trkpt lat="45.62271471280999" lon="11.391921127297282"><ele>448.0</ele><time>2026-04-12T15:37:08.66Z</time></trkpt><trkpt lat="45.62182287785664" lon="11.39130714444918"><ele>464.0</ele><time>2026-04-12T15:37:09.661Z</time></trkpt><trkpt lat="45.620923507455636" lon="11.390718468568314"><ele>475.0</ele><time>2026-04-12T15:37:10.661Z</time></trkpt><trkpt lat="45.62001410715781" lon="11.390165064430086"><ele>427.0</ele><time>2026-04-12T15:37:11.66Z</time></trkpt><trkpt lat="45.61909317428198" lon="11.389648563265345"><ele>390.0</ele><time>2026-04-12T15:37:12.66Z</time></trkpt><trkpt lat="45.618179119924456" lon="11.389107996966064"><ele>329.0</ele><time>2026-04-12T15:37:13.66Z</time></trkpt><trkpt lat="45.61726542510226" lon="11.388566257946422"><ele>288.0</ele><time>2026-04-12T15:37:14.66Z</time></trkpt><trkpt lat="45.61634174967034" lon="11.388059780180539"><ele>243.0</ele><time>2026-04-12T15:37:15.66Z</time></trkpt><trkpt lat="45.615413179177615" lon="11.387571946730603"><ele>192.0</ele><time>2026-04-12T15:37:16.66Z</time></trkpt><trkpt lat="45.614476949960874" lon="11.387114607220537"><ele>182.0</ele><time>2026-04-12T15:37:17.66Z</time></trkpt><trkpt lat="45.61353331096912" lon="11.386689648273235"><ele>170.0</ele><time>2026-04-12T15:37:18.66Z</time></trkpt><trkpt lat="45.6125741850133" lon="11.386343788601918"><ele>166.0</ele><time>2026-04-12T15:37:19.66Z</time></trkpt><trkpt lat="45.61159549383178" lon="11.386134642955785"><ele>165.0</ele><time>2026-04-12T15:37:20.66Z</time></trkpt><trkpt lat="45.61061449425164" lon="11.385948640900557"><ele>162.0</ele><time>2026-04-12T15:37:21.66Z</time></trkpt><trkpt lat="45.609630642011695" lon="11.38579568505112"><ele>157.0</ele><time>2026-04-12T15:37:22.66Z</time></trkpt><trkpt lat="45.60865073660861" lon="11.385596710759131"><ele>155.0</ele><time>2026-04-12T15:37:23.661Z</time></trkpt><trkpt lat="45.60767193087791" lon="11.385382488379214"><ele>154.0</ele><time>2026-04-12T15:37:24.661Z</time></trkpt><trkpt lat="45.606693874585574" lon="11.38517367029264"><ele>152.0</ele><time>2026-04-12T15:37:25.66Z</time></trkpt><trkpt lat="45.60571020912924" lon="11.38501162483729"><ele>154.0</ele><time>2026-04-12T15:37:26.661Z</time></trkpt><trkpt lat="45.604732763285135" lon="11.38479634508708"><ele>151.0</ele><time>2026-04-12T15:37:27.66Z</time></trkpt><trkpt lat="45.60376037342113" lon="11.384529325502156"><ele>149.0</ele><time>2026-04-12T15:37:28.661Z</time></trkpt><trkpt lat="45.6027917856187" lon="11.384241461746374"><ele>148.0</ele><time>2026-04-12T15:37:29.661Z</time></trkpt><trkpt lat="45.60182483137886" lon="11.383943188257518"><ele>150.0</ele><time>2026-04-12T15:37:30.66Z</time></trkpt><trkpt lat="45.60082635302206" lon="11.383862608031013"><ele>151.0</ele><time>2026-04-12T15:39:11.89Z</time></trkpt><trkpt lat="45.60012359059238" lon="11.383315161662784"><ele>151.0</ele><time>2026-04-12T15:39:13.009Z</time></trkpt><trkpt lat="45.59984342589744" lon="11.38322438634557"><ele>151.0</ele><time>2026-04-12T15:39:14.009Z</time></trkpt><trkpt lat="45.59957616446453" lon="11.383068431498955"><ele>151.5</ele><time>2026-04-12T15:39:15.009Z</time></trkpt><trkpt lat="45.59929084464765" lon="11.382948403407296"><ele>152.0</ele><time>2026-04-12T15:39:16.009Z</time></trkpt><trkpt lat="45.59900576396047" lon="11.382798636613654"><ele>152.0</ele><time>2026-04-12T15:39:17.009Z</time></trkpt><trkpt lat="45.59871870341126" lon="11.382649770538913"><ele>152.0</ele><time>2026-04-12T15:39:18.012Z</time></trkpt><trkpt lat="45.59844303381853" lon="11.382503664322385"><ele>152.5</ele><time>2026-04-12T15:39:19.012Z</time></trkpt><trkpt lat="45.59816632891326" lon="11.382362621106338"><ele>153.0</ele><time>2026-04-12T15:39:20.012Z</time></trkpt><trkpt lat="45.59788125916288" lon="11.382215162332642"><ele>150.0</ele><time>2026-04-12T15:39:21.031Z</time></trkpt><trkpt lat="45.59695235457792" lon="11.381650445993413"><ele>150.0</ele><time>2026-04-12T15:39:24.012Z</time></trkpt><trkpt lat="45.59664493740956" lon="11.381472198853674"><ele>150.0</ele><time>2026-04-12T15:39:25.012Z</time></trkpt><trkpt lat="45.596344065940215" lon="11.381274816684815"><ele>149.5</ele><time>2026-04-12T15:39:26.012Z</time></trkpt><trkpt lat="45.596061045022864" lon="11.381106545184632"><ele>149.0</ele><time>2026-04-12T15:39:27.012Z</time></trkpt><trkpt lat="45.595803286665955" lon="11.380988384307305"><ele>149.0</ele><time>2026-04-12T15:39:28.012Z</time></trkpt><trkpt lat="45.59560008259621" lon="11.380860922908486"><ele>149.0</ele><time>2026-04-12T15:39:29.012Z</time></trkpt><trkpt lat="45.59533253956317" lon="11.380701670879404"><ele>149.5</ele><time>2026-04-12T15:39:30.012Z</time></trkpt><trkpt lat="45.595085953090056" lon="11.38054392738071"><ele>150.0</ele><time>2026-04-12T15:39:31.012Z</time></trkpt><trkpt lat="45.59483144424539" lon="11.380383676146081"><ele>150.5</ele><time>2026-04-12T15:39:32.012Z</time></trkpt><trkpt lat="45.594551032892454" lon="11.380259199118187"><ele>151.0</ele><time>2026-04-12T15:39:33.012Z</time></trkpt><trkpt lat="45.594252771336535" lon="11.380083816055595"><ele>152.5</ele><time>2026-04-12T15:39:34.012Z</time></trkpt><trkpt lat="45.5939588645789" lon="11.379909680692425"><ele>154.0</ele><time>2026-04-12T15:39:35.012Z</time></trkpt><trkpt lat="45.593658041550974" lon="11.379747061205824"><ele>153.5</ele><time>2026-04-12T15:39:36.012Z</time></trkpt><trkpt lat="45.593358003361566" lon="11.379590208334088"><ele>153.0</ele><time>2026-04-12T15:39:37.031Z</time></trkpt><trkpt lat="45.59308768771478" lon="11.379389183096064"><ele>152.5</ele><time>2026-04-12T15:39:38.027Z</time></trkpt><trkpt lat="45.59281883743906" lon="11.379215291579559"><ele>152.0</ele><time>2026-04-12T15:39:39.028Z</time></trkpt><trkpt lat="45.592543760876474" lon="11.37904329150492"><ele>152.0</ele><time>2026-04-12T15:39:40.029Z</time></trkpt><trkpt lat="45.592264415395206" lon="11.378868622200445"><ele>152.0</ele><time>2026-04-12T15:39:41.029Z</time></trkpt><trkpt lat="45.59107576035483" lon="11.378027871261702"><ele>151.5</ele><time>2026-04-12T15:39:46.012Z</time></trkpt><trkpt lat="45.5908286957353" lon="11.377899518313695"><ele>151.0</ele><time>2026-04-12T15:39:47.012Z</time></trkpt><trkpt lat="45.59059485124174" lon="11.377832115800649"><ele>151.0</ele><time>2026-04-12T15:39:48.012Z</time></trkpt><trkpt lat="45.59037378119033" lon="11.37774065617375"><ele>151.0</ele><time>2026-04-12T15:39:49.012Z</time></trkpt><trkpt lat="45.590152832887085" lon="11.37766917400836"><ele>149.5</ele><time>2026-04-12T15:39:50.012Z</time></trkpt><trkpt lat="45.58991646482874" lon="11.377603392343993"><ele>148.0</ele><time>2026-04-12T15:39:51.012Z</time></trkpt><trkpt lat="45.5896821550025" lon="11.37752185114454"><ele>148.0</ele><time>2026-04-12T15:39:52.012Z</time></trkpt><trkpt lat="45.58944687496808" lon="11.377445911415458"><ele>148.0</ele><time>2026-04-12T15:39:53.012Z</time></trkpt><trkpt lat="45.589216577383965" lon="11.377434370879136"><ele>148.0</ele><time>2026-04-12T15:39:54.012Z</time></trkpt><trkpt lat="45.58906161240246" lon="11.377427104069193"><ele>148.0</ele><time>2026-04-12T15:39:55.012Z</time></trkpt><trkpt lat="45.58888008147273" lon="11.377400794633763"><ele>148.0</ele><time>2026-04-12T15:39:56.012Z</time></trkpt><trkpt lat="45.58870254274294" lon="11.37737342310929"><ele>148.0</ele><time>2026-04-12T15:39:57.012Z</time></trkpt><trkpt lat="45.5885205574094" lon="11.377332100960203"><ele>148.0</ele><time>2026-04-12T15:39:58.012Z</time></trkpt><trkpt lat="45.58835874313334" lon="11.377318259545975"><ele>148.0</ele><time>2026-04-12T15:39:59.012Z</time></trkpt><trkpt lat="45.58822552699545" lon="11.377280576205639"><ele>148.0</ele><time>2026-04-12T15:40:00.012Z</time></trkpt><trkpt lat="45.58810528512825" lon="11.377209773127424"><ele>148.0</ele><time>2026-04-12T15:40:01.012Z</time></trkpt><trkpt lat="45.58802907392324" lon="11.377065782041226"><ele>148.0</ele><time>2026-04-12T15:40:02.012Z</time></trkpt><trkpt lat="45.5879834039055" lon="11.376883035517759"><ele>148.0</ele><time>2026-04-12T15:40:03.012Z</time></trkpt><trkpt lat="45.58795735183989" lon="11.376702758413177"><ele>148.0</ele><time>2026-04-12T15:40:04.012Z</time></trkpt><trkpt lat="45.58798223462758" lon="11.376507508744476"><ele>148.0</ele><time>2026-04-12T15:40:05.012Z</time></trkpt><trkpt lat="45.58805891192765" lon="11.376344096170389"><ele>148.0</ele><time>2026-04-12T15:40:06.012Z</time></trkpt><trkpt lat="45.58816739104455" lon="11.37621378887713"><ele>148.0</ele><time>2026-04-12T15:40:07.012Z</time></trkpt><trkpt lat="45.58830011824398" lon="11.376147728801069"><ele>148.5</ele><time>2026-04-12T15:40:08.012Z</time></trkpt><trkpt lat="45.58844082580368" lon="11.37613016184956"><ele>149.0</ele><time>2026-04-12T15:40:09.012Z</time></trkpt><trkpt lat="45.58858703818093" lon="11.376196154250241"><ele>149.5</ele><time>2026-04-12T15:40:10.012Z</time></trkpt><trkpt lat="45.58872316498707" lon="11.376257304572064"><ele>150.0</ele><time>2026-04-12T15:40:11.012Z</time></trkpt><trkpt lat="45.58884226679132" lon="11.376471479846053"><ele>150.0</ele><time>2026-04-12T15:40:12.012Z</time></trkpt><trkpt lat="45.58897167515149" lon="11.376598968391347"><ele>150.0</ele><time>2026-04-12T15:40:13.012Z</time></trkpt><trkpt lat="45.58908918009079" lon="11.376697542245688"><ele>150.0</ele><time>2026-04-12T15:40:14.012Z</time></trkpt><trkpt lat="45.589197652935745" lon="11.376765240508494"><ele>150.0</ele><time>2026-04-12T15:40:15.012Z</time></trkpt><trkpt lat="45.58930178991379" lon="11.376799386959028"><ele>150.0</ele><time>2026-04-12T15:40:16.012Z</time></trkpt><trkpt lat="45.58940279663623" lon="11.376810010556051"><ele>150.0</ele><time>2026-04-12T15:40:17.012Z</time></trkpt><trkpt lat="45.5895033900296" lon="11.376818312795544"><ele>150.0</ele><time>2026-04-12T15:40:18.012Z</time></trkpt><trkpt lat="45.58959301410698" lon="11.376815225930565"><ele>150.0</ele><time>2026-04-12T15:40:19.012Z</time></trkpt><trkpt lat="45.58967822862082" lon="11.376817670883646"><ele>150.0</ele><time>2026-04-12T15:40:20.012Z</time></trkpt><trkpt lat="45.58975586627442" lon="11.376796312851772"><ele>149.8</ele><time>2026-04-12T15:40:21.012Z</time></trkpt><trkpt lat="45.58982872681421" lon="11.37678812131863"><ele>149.6</ele><time>2026-04-12T15:40:22.012Z</time></trkpt><trkpt lat="45.5898965770049" lon="11.37678521128718"><ele>149.4</ele><time>2026-04-12T15:40:23.012Z</time></trkpt><trkpt lat="45.59001846494657" lon="11.376776128194114"><ele>149.2</ele><time>2026-04-12T15:40:25.012Z</time></trkpt><trkpt lat="45.59014805810604" lon="11.376767235305266"><ele>149.0</ele><time>2026-04-12T15:40:27.012Z</time></trkpt><trkpt lat="45.590233748247904" lon="11.376769070340925"><ele>149.0</ele><time>2026-04-12T15:40:28.012Z</time></trkpt><trkpt lat="45.590327861746424" lon="11.376771715276035"><ele>149.0</ele><time>2026-04-12T15:40:29.012Z</time></trkpt><trkpt lat="45.5904246017175" lon="11.376768546485494"><ele>149.0</ele><time>2026-04-12T15:40:30.012Z</time></trkpt><trkpt lat="45.590527916424165" lon="11.376759775692893"><ele>149.0</ele><time>2026-04-12T15:40:31.012Z</time></trkpt><trkpt lat="45.59063380837104" lon="11.376741225377632"><ele>149.0</ele><time>2026-04-12T15:40:32.012Z</time></trkpt><trkpt lat="45.590742806516005" lon="11.376667635796364"><ele>149.4</ele><time>2026-04-12T15:40:33.012Z</time></trkpt><trkpt lat="45.59084626010051" lon="11.376608007291924"><ele>149.8</ele><time>2026-04-12T15:40:34.012Z</time></trkpt><trkpt lat="45.590938550328254" lon="11.37654391313571"><ele>150.2</ele><time>2026-04-12T15:40:35.012Z</time></trkpt><trkpt lat="45.59101268336885" lon="11.37649090820329"><ele>150.6</ele><time>2026-04-12T15:40:36.012Z</time></trkpt><trkpt lat="45.59110644861298" lon="11.376441010347476"><ele>151.0</ele><time>2026-04-12T15:40:37.012Z</time></trkpt><trkpt lat="45.59118744495231" lon="11.376362743569311"><ele>151.8</ele><time>2026-04-12T15:40:38.012Z</time></trkpt><trkpt lat="45.591289449347556" lon="11.37637040232811"><ele>152.6</ele><time>2026-04-12T15:40:39.012Z</time></trkpt><trkpt lat="45.59137817991356" lon="11.37638432432739"><ele>153.4</ele><time>2026-04-12T15:40:40.012Z</time></trkpt><trkpt lat="45.59144862599462" lon="11.376498102376416"><ele>154.2</ele><time>2026-04-12T15:40:41.012Z</time></trkpt><trkpt lat="45.59148810381012" lon="11.3766148471618"><ele>155.0</ele><time>2026-04-12T15:40:42.012Z</time></trkpt><trkpt lat="45.5915024949143" lon="11.376751822023781"><ele>155.0</ele><time>2026-04-12T15:40:43.012Z</time></trkpt><trkpt lat="45.59147256337926" lon="11.37689429791502"><ele>155.0</ele><time>2026-04-12T15:40:44.012Z</time></trkpt><trkpt lat="45.59143377104783" lon="11.377037713906683"><ele>155.0</ele><time>2026-04-12T15:40:45.012Z</time></trkpt><trkpt lat="45.59129627873145" lon="11.37715413707111"><ele>155.0</ele><time>2026-04-12T15:40:46.012Z</time></trkpt><trkpt lat="45.59116573750628" lon="11.37724560840618"><ele>153.66666666666666</ele><time>2026-04-12T15:40:47.012Z</time></trkpt><trkpt lat="45.59098754064551" lon="11.377299599930156"><ele>152.33333333333334</ele><time>2026-04-12T15:40:48.012Z</time></trkpt><trkpt lat="45.59078339405117" lon="11.377280201369343"><ele>151.0</ele><time>2026-04-12T15:40:49.012Z</time></trkpt><trkpt lat="45.590599116972506" lon="11.377290190132022"><ele>151.0</ele><time>2026-04-12T15:40:50.012Z</time></trkpt><trkpt lat="45.590429726128534" lon="11.37733662979674"><ele>151.0</ele><time>2026-04-12T15:40:51.012Z</time></trkpt><trkpt lat="45.590271923286835" lon="11.37740344905605"><ele>151.0</ele><time>2026-04-12T15:40:52.012Z</time></trkpt><trkpt lat="45.590103224284896" lon="11.377525521323117"><ele>149.5</ele><time>2026-04-12T15:40:53.012Z</time></trkpt><trkpt lat="45.589919592833056" lon="11.377695715788779"><ele>148.0</ele><time>2026-04-12T15:40:54.012Z</time></trkpt><trkpt lat="45.589720155490014" lon="11.377892626441518"><ele>149.0</ele><time>2026-04-12T15:40:55.012Z</time></trkpt><trkpt lat="45.58949703631396" lon="11.378087463533463"><ele>150.0</ele><time>2026-04-12T15:40:56.012Z</time></trkpt><trkpt lat="45.58924700707669" lon="11.378282156675892"><ele>150.0</ele><time>2026-04-12T15:40:57.012Z</time></trkpt><trkpt lat="45.58897474029553" lon="11.378468342585053"><ele>150.0</ele><time>2026-04-12T15:40:58.012Z</time></trkpt><trkpt lat="45.58871876210798" lon="11.378619552563766"><ele>150.5</ele><time>2026-04-12T15:40:59.012Z</time></trkpt><trkpt lat="45.588486705777456" lon="11.378749373100641"><ele>151.0</ele><time>2026-04-12T15:41:00.012Z</time></trkpt><trkpt lat="45.58825162067409" lon="11.378877027592788"><ele>150.0</ele><time>2026-04-12T15:41:01.012Z</time></trkpt><trkpt lat="45.588009563248" lon="11.379015771565758"><ele>149.0</ele><time>2026-04-12T15:41:02.012Z</time></trkpt><trkpt lat="45.587749392310364" lon="11.379171440507207"><ele>149.0</ele><time>2026-04-12T15:41:03.012Z</time></trkpt><trkpt lat="45.58746363784645" lon="11.379331807456628"><ele>149.0</ele><time>2026-04-12T15:41:04.012Z</time></trkpt><trkpt lat="45.58716919437277" lon="11.379488137551524"><ele>149.0</ele><time>2026-04-12T15:41:05.012Z</time></trkpt><trkpt lat="45.58685600594706" lon="11.379651216269231"><ele>149.0</ele><time>2026-04-12T15:41:06.012Z</time></trkpt><trkpt lat="45.58654578445085" lon="11.379805265615625"><ele>148.0</ele><time>2026-04-12T15:41:07.012Z</time></trkpt><trkpt lat="45.586261956109254" lon="11.379952957048129"><ele>147.0</ele><time>2026-04-12T15:41:08.012Z</time></trkpt><trkpt lat="45.58597642490488" lon="11.380084792172786"><ele>146.5</ele><time>2026-04-12T15:41:09.012Z</time></trkpt><trkpt lat="45.58568730162695" lon="11.38020721940276"><ele>146.0</ele><time>2026-04-12T15:41:10.012Z</time></trkpt><trkpt lat="45.585400409233806" lon="11.380320825360812"><ele>146.5</ele><time>2026-04-12T15:41:11.012Z</time></trkpt><trkpt lat="45.58511497483848" lon="11.380419623465517"><ele>147.0</ele><time>2026-04-12T15:41:12.012Z</time></trkpt><trkpt lat="45.584830415278944" lon="11.380516053112196"><ele>147.0</ele><time>2026-04-12T15:41:13.012Z</time></trkpt><trkpt lat="45.584553003507686" lon="11.380614022280843"><ele>147.0</ele><time>2026-04-12T15:41:14.012Z</time></trkpt><trkpt lat="45.58427719540021" lon="11.380711975587792"><ele>147.0</ele><time>2026-04-12T15:41:15.012Z</time></trkpt><trkpt lat="45.584008205504674" lon="11.380806082635956"><ele>147.0</ele><time>2026-04-12T15:41:16.012Z</time></trkpt><trkpt lat="45.583758794638264" lon="11.380896851360005"><ele>147.0</ele><time>2026-04-12T15:41:17.012Z</time></trkpt><trkpt lat="45.583523262849575" lon="11.380981963640526"><ele>147.0</ele><time>2026-04-12T15:41:18.012Z</time></trkpt><trkpt lat="45.58329571074859" lon="11.381063600405682"><ele>147.0</ele><time>2026-04-12T15:41:19.012Z</time></trkpt><trkpt lat="45.58306423604717" lon="11.381147280682546"><ele>147.0</ele><time>2026-04-12T15:41:20.012Z</time></trkpt><trkpt lat="45.582835490158395" lon="11.381231232088332"><ele>147.0</ele><time>2026-04-12T15:41:21.012Z</time></trkpt><trkpt lat="45.58261510396318" lon="11.381313917889456"><ele>147.0</ele><time>2026-04-12T15:41:22.012Z</time></trkpt><trkpt lat="45.58241085186249" lon="11.381383444663596"><ele>147.0</ele><time>2026-04-12T15:41:23.012Z</time></trkpt><trkpt lat="45.58221665518904" lon="11.381450477985467"><ele>146.0</ele><time>2026-04-12T15:41:24.013Z</time></trkpt><trkpt lat="45.58203613735906" lon="11.381506252022906"><ele>145.0</ele><time>2026-04-12T15:41:25.013Z</time></trkpt><trkpt lat="45.581862752408874" lon="11.381537213966952"><ele>144.0</ele><time>2026-04-12T15:41:26.013Z</time></trkpt><trkpt lat="45.581695959160456" lon="11.381531361743848"><ele>144.0</ele><time>2026-04-12T15:41:27.013Z</time></trkpt><trkpt lat="45.58152956523817" lon="11.381494060440312"><ele>144.0</ele><time>2026-04-12T15:41:28.013Z</time></trkpt><trkpt lat="45.5813717101819" lon="11.38141558661583"><ele>144.0</ele><time>2026-04-12T15:41:29.013Z</time></trkpt><trkpt lat="45.58120983864771" lon="11.38132425864841"><ele>143.66666666666666</ele><time>2026-04-12T15:41:30.013Z</time></trkpt><trkpt lat="45.58104152479637" lon="11.38127047461781"><ele>143.33333333333331</ele><time>2026-04-12T15:41:31.013Z</time></trkpt><trkpt lat="45.580872968738085" lon="11.381257873797567"><ele>143.0</ele><time>2026-04-12T15:41:32.013Z</time></trkpt><trkpt lat="45.5806964966872" lon="11.381285238304773"><ele>143.0</ele><time>2026-04-12T15:41:33.013Z</time></trkpt><trkpt lat="45.58052169673615" lon="11.381345081296022"><ele>143.0</ele><time>2026-04-12T15:41:34.013Z</time></trkpt><trkpt lat="45.5803659387312" lon="11.381452442883562"><ele>143.0</ele><time>2026-04-12T15:41:35.013Z</time></trkpt><trkpt lat="45.58019932224545" lon="11.381553344174018"><ele>143.0</ele><time>2026-04-12T15:41:36.013Z</time></trkpt><trkpt lat="45.580044201114994" lon="11.381703363728171"><ele>143.0</ele><time>2026-04-12T15:41:37.013Z</time></trkpt><trkpt lat="45.579901167324216" lon="11.381851417134813"><ele>143.0</ele><time>2026-04-12T15:41:38.013Z</time></trkpt><trkpt lat="45.57976013319072" lon="11.381979618994041"><ele>143.0</ele><time>2026-04-12T15:41:39.013Z</time></trkpt><trkpt lat="45.57962104023941" lon="11.38209474477169"><ele>143.0</ele><time>2026-04-12T15:41:40.013Z</time></trkpt><trkpt lat="45.579488013595224" lon="11.3821948241543"><ele>143.0</ele><time>2026-04-12T15:41:41.013Z</time></trkpt><trkpt lat="45.57935404585192" lon="11.38228943320078"><ele>143.0</ele><time>2026-04-12T15:41:42.013Z</time></trkpt><trkpt lat="45.57921929756155" lon="11.382382867140459"><ele>143.0</ele><time>2026-04-12T15:41:43.013Z</time></trkpt><trkpt lat="45.579079100062266" lon="11.38247143544348"><ele>143.0</ele><time>2026-04-12T15:41:44.013Z</time></trkpt><trkpt lat="45.57893194146256" lon="11.38255800257483"><ele>143.0</ele><time>2026-04-12T15:41:45.013Z</time></trkpt><trkpt lat="45.578796846032255" lon="11.382653453648413"><ele>143.0</ele><time>2026-04-12T15:41:46.013Z</time></trkpt><trkpt lat="45.57865024453727" lon="11.382708070638886"><ele>143.0</ele><time>2026-04-12T15:41:47.013Z</time></trkpt><trkpt lat="45.57850090183122" lon="11.382776686338662"><ele>142.33333333333331</ele><time>2026-04-12T15:41:48.013Z</time></trkpt><trkpt lat="45.578343994090886" lon="11.382851450667804"><ele>141.66666666666666</ele><time>2026-04-12T15:41:49.013Z</time></trkpt><trkpt lat="45.578159776048146" lon="11.382912920318393"><ele>141.0</ele><time>2026-04-12T15:41:50.013Z</time></trkpt><trkpt lat="45.57796662621857" lon="11.382991579917737"><ele>140.33333333333334</ele><time>2026-04-12T15:41:51.013Z</time></trkpt><trkpt lat="45.57775974044789" lon="11.383026789904864"><ele>139.66666666666669</ele><time>2026-04-12T15:41:52.013Z</time></trkpt><trkpt lat="45.577587973991115" lon="11.38301905891582"><ele>139.0</ele><time>2026-04-12T15:41:53.013Z</time></trkpt><trkpt lat="45.57741680089047" lon="11.383002780213605"><ele>139.0</ele><time>2026-04-12T15:41:54.013Z</time></trkpt><trkpt lat="45.577253993091155" lon="11.383020077067542"><ele>139.0</ele><time>2026-04-12T15:41:55.013Z</time></trkpt><trkpt lat="45.577065097292675" lon="11.383125015515247"><ele>139.0</ele><time>2026-04-12T15:41:56.013Z</time></trkpt><trkpt lat="45.57687710260052" lon="11.383156293497194"><ele>138.33333333333334</ele><time>2026-04-12T15:41:57.013Z</time></trkpt><trkpt lat="45.57666929674555" lon="11.383192547783814"><ele>137.66666666666666</ele><time>2026-04-12T15:41:58.013Z</time></trkpt><trkpt lat="45.57643210406952" lon="11.38322491776913"><ele>137.0</ele><time>2026-04-12T15:41:59.013Z</time></trkpt><trkpt lat="45.5761812846887" lon="11.383287267426686"><ele>137.0</ele><time>2026-04-12T15:42:00.013Z</time></trkpt><trkpt lat="45.575939269850856" lon="11.38334013158615"><ele>137.0</ele><time>2026-04-12T15:42:01.013Z</time></trkpt><trkpt lat="45.57598450691929" lon="11.383258689501252"><ele>137.0</ele><time>2026-04-12T15:42:02.013Z</time></trkpt><trkpt lat="45.575815628195926" lon="11.38327420830398"><ele>137.0</ele><time>2026-04-12T15:42:03.013Z</time></trkpt><trkpt lat="45.57564143123979" lon="11.383296085339873"><ele>137.0</ele><time>2026-04-12T15:42:04.013Z</time></trkpt><trkpt lat="45.57546745874933" lon="11.38330829792056"><ele>137.0</ele><time>2026-04-12T15:42:05.013Z</time></trkpt><trkpt lat="45.575286515895115" lon="11.383327524862285"><ele>136.66666666666666</ele><time>2026-04-12T15:42:06.013Z</time></trkpt><trkpt lat="45.57510309784229" lon="11.38334862657019"><ele>136.33333333333334</ele><time>2026-04-12T15:42:07.013Z</time></trkpt><trkpt lat="45.57491467153771" lon="11.38337389669972"><ele>136.0</ele><time>2026-04-12T15:42:08.013Z</time></trkpt><trkpt lat="45.57472168742708" lon="11.383401507880729"><ele>136.0</ele><time>2026-04-12T15:42:09.013Z</time></trkpt><trkpt lat="45.57452933553924" lon="11.383422348089642"><ele>136.0</ele><time>2026-04-12T15:42:10.013Z</time></trkpt><trkpt lat="45.57433564810228" lon="11.383437705321455"><ele>136.0</ele><time>2026-04-12T15:42:11.013Z</time></trkpt><trkpt lat="45.57414211049155" lon="11.383455607739709"><ele>136.0</ele><time>2026-04-12T15:42:12.013Z</time></trkpt><trkpt lat="45.57394852605683" lon="11.383479403843593"><ele>136.0</ele><time>2026-04-12T15:42:13.013Z</time></trkpt><trkpt lat="45.57375743328692" lon="11.383503367519678"><ele>136.0</ele><time>2026-04-12T15:42:14.013Z</time></trkpt><trkpt lat="45.57356270353543" lon="11.383527370500687"><ele>136.0</ele><time>2026-04-12T15:42:15.013Z</time></trkpt><trkpt lat="45.57336729656272" lon="11.38355303086082"><ele>136.0</ele><time>2026-04-12T15:42:16.013Z</time></trkpt><trkpt lat="45.57318433780231" lon="11.383575493697286"><ele>136.0</ele><time>2026-04-12T15:42:17.013Z</time></trkpt><trkpt lat="45.57300744846058" lon="11.383595523729781"><ele>135.33333333333334</ele><time>2026-04-12T15:42:18.013Z</time></trkpt><trkpt lat="45.57283803005115" lon="11.383616565623287"><ele>134.66666666666666</ele><time>2026-04-12T15:42:19.013Z</time></trkpt><trkpt lat="45.57267668920726" lon="11.383633525956364"><ele>134.0</ele><time>2026-04-12T15:42:20.013Z</time></trkpt><trkpt lat="45.57252010394228" lon="11.383651512922098"><ele>134.0</ele><time>2026-04-12T15:42:21.013Z</time></trkpt><trkpt lat="45.57236717167155" lon="11.383644955030329"><ele>134.0</ele><time>2026-04-12T15:42:22.013Z</time></trkpt><trkpt lat="45.57222672962278" lon="11.383660660631616"><ele>134.0</ele><time>2026-04-12T15:42:23.013Z</time></trkpt><trkpt lat="45.572089109747985" lon="11.383676050635275"><ele>134.0</ele><time>2026-04-12T15:42:24.013Z</time></trkpt><trkpt lat="45.57195251579976" lon="11.383711960635338"><ele>134.0</ele><time>2026-04-12T15:42:25.013Z</time></trkpt><trkpt lat="45.57181590769869" lon="11.383728856427929"><ele>134.0</ele><time>2026-04-12T15:42:26.013Z</time></trkpt><trkpt lat="45.57165882144378" lon="11.383743642083072"><ele>134.0</ele><time>2026-04-12T15:42:27.013Z</time></trkpt><trkpt lat="45.57151540940346" lon="11.3837401793546"><ele>134.0</ele><time>2026-04-12T15:42:28.013Z</time></trkpt><trkpt lat="45.571372050221036" lon="11.383777721688865"><ele>134.0</ele><time>2026-04-12T15:42:29.013Z</time></trkpt><trkpt lat="45.5712223337565" lon="11.383792351463565"><ele>134.0</ele><time>2026-04-12T15:42:30.013Z</time></trkpt><trkpt lat="45.571072914079636" lon="11.38380478444071"><ele>134.0</ele><time>2026-04-12T15:42:31.013Z</time></trkpt><trkpt lat="45.570922209985284" lon="11.38381975726344"><ele>134.0</ele><time>2026-04-12T15:42:32.013Z</time></trkpt><trkpt lat="45.57077075789652" lon="11.38383862678916"><ele>134.0</ele><time>2026-04-12T15:42:33.013Z</time></trkpt><trkpt lat="45.57061877090929" lon="11.383860040496613"><ele>134.0</ele><time>2026-04-12T15:42:34.013Z</time></trkpt><trkpt lat="45.57047232544913" lon="11.38387505309167"><ele>133.5</ele><time>2026-04-12T15:42:35.013Z</time></trkpt><trkpt lat="45.570329033737806" lon="11.383887094124542"><ele>133.0</ele><time>2026-04-12T15:42:36.013Z</time></trkpt><trkpt lat="45.57019077516213" lon="11.383900553040968"><ele>132.5</ele><time>2026-04-12T15:42:37.013Z</time></trkpt><trkpt lat="45.570060793176296" lon="11.383915074938026"><ele>132.0</ele><time>2026-04-12T15:42:38.013Z</time></trkpt><trkpt lat="45.569932957324" lon="11.383930323982248"><ele>132.0</ele><time>2026-04-12T15:42:39.013Z</time></trkpt><trkpt lat="45.56980778653246" lon="11.38394176131009"><ele>132.0</ele><time>2026-04-12T15:42:40.013Z</time></trkpt><trkpt lat="45.56968474543933" lon="11.38395826220534"><ele>132.0</ele><time>2026-04-12T15:42:41.013Z</time></trkpt><trkpt lat="45.569568739084076" lon="11.383972721284822"><ele>132.0</ele><time>2026-04-12T15:42:42.013Z</time></trkpt><trkpt lat="45.56946023983192" lon="11.383981205178554"><ele>132.0</ele><time>2026-04-12T15:42:43.013Z</time></trkpt><trkpt lat="45.56934919174954" lon="11.383991234744938"><ele>132.0</ele><time>2026-04-12T15:42:44.013Z</time></trkpt><trkpt lat="45.569245274743615" lon="11.383998059629214"><ele>132.0</ele><time>2026-04-12T15:42:45.013Z</time></trkpt><trkpt lat="45.56913973541498" lon="11.384011412655193"><ele>132.0</ele><time>2026-04-12T15:42:46.013Z</time></trkpt><trkpt lat="45.569020642443384" lon="11.384020319718863"><ele>132.0</ele><time>2026-04-12T15:42:47.013Z</time></trkpt><trkpt lat="45.56889494767932" lon="11.384016412642994"><ele>132.0</ele><time>2026-04-12T15:42:48.013Z</time></trkpt><trkpt lat="45.56877444459742" lon="11.384007749745733"><ele>132.0</ele><time>2026-04-12T15:42:49.013Z</time></trkpt><trkpt lat="45.56866462936697" lon="11.38400253072049"><ele>132.0</ele><time>2026-04-12T15:42:50.013Z</time></trkpt><trkpt lat="45.56856610044933" lon="11.383986344273952"><ele>132.0</ele><time>2026-04-12T15:42:51.013Z</time></trkpt><trkpt lat="45.56848286273558" lon="11.383935482473817"><ele>132.0</ele><time>2026-04-12T15:42:52.013Z</time></trkpt><trkpt lat="45.5684196648861" lon="11.383837113840187"><ele>131.6</ele><time>2026-04-12T15:42:53.013Z</time></trkpt><trkpt lat="45.568359840108414" lon="11.383718217444065"><ele>131.2</ele><time>2026-04-12T15:42:54.013Z</time></trkpt><trkpt lat="45.568290275213926" lon="11.383628867388618"><ele>130.8</ele><time>2026-04-12T15:42:55.013Z</time></trkpt><trkpt lat="45.568219048610125" lon="11.38353909601878"><ele>130.4</ele><time>2026-04-12T15:42:56.013Z</time></trkpt><trkpt lat="45.568198498736294" lon="11.383391792816909"><ele>130.0</ele><time>2026-04-12T15:42:57.013Z</time></trkpt><trkpt lat="45.568155605432686" lon="11.383274281130948"><ele>130.0</ele><time>2026-04-12T15:42:58.013Z</time></trkpt><trkpt lat="45.56823951987913" lon="11.383104523310072"><ele>130.0</ele><time>2026-04-12T15:42:59.013Z</time></trkpt><trkpt lat="45.568322472139975" lon="11.382985718140214"><ele>130.0</ele><time>2026-04-12T15:43:00.013Z</time></trkpt><trkpt lat="45.56843412068334" lon="11.382873028568335"><ele>130.0</ele><time>2026-04-12T15:43:01.013Z</time></trkpt><trkpt lat="45.568584084203074" lon="11.382738480725802"><ele>130.0</ele><time>2026-04-12T15:43:02.013Z</time></trkpt><trkpt lat="45.568769903182265" lon="11.382627111523455"><ele>130.0</ele><time>2026-04-12T15:43:03.013Z</time></trkpt><trkpt lat="45.56898344347144" lon="11.382490778333498"><ele>130.0</ele><time>2026-04-12T15:43:04.013Z</time></trkpt><trkpt lat="45.569223122369536" lon="11.382329282502392"><ele>130.0</ele><time>2026-04-12T15:43:05.013Z</time></trkpt><trkpt lat="45.5694688154247" lon="11.382166430398746"><ele>130.0</ele><time>2026-04-12T15:43:06.013Z</time></trkpt><trkpt lat="45.56968733264125" lon="11.382008960119299"><ele>131.0</ele><time>2026-04-12T15:43:07.013Z</time></trkpt><trkpt lat="45.569896738860095" lon="11.38186414656877"><ele>132.0</ele><time>2026-04-12T15:43:08.013Z</time></trkpt><trkpt lat="45.57013111954011" lon="11.381727324796941"><ele>132.5</ele><time>2026-04-12T15:43:09.013Z</time></trkpt><trkpt lat="45.570375380928496" lon="11.381575648144493"><ele>133.0</ele><time>2026-04-12T15:43:10.013Z</time></trkpt><trkpt lat="45.57060378559526" lon="11.381425942375113"><ele>133.66666666666669</ele><time>2026-04-12T15:43:11.013Z</time></trkpt><trkpt lat="45.570816363301134" lon="11.381317700035408"><ele>134.33333333333334</ele><time>2026-04-12T15:43:12.013Z</time></trkpt><trkpt lat="45.57100553102792" lon="11.381222386328748"><ele>135.0</ele><time>2026-04-12T15:43:13.013Z</time></trkpt><trkpt lat="45.57117659012001" lon="11.381140662938915"><ele>135.0</ele><time>2026-04-12T15:43:14.013Z</time></trkpt><trkpt lat="45.57133706646441" lon="11.381064140207949"><ele>135.0</ele><time>2026-04-12T15:43:15.013Z</time></trkpt><trkpt lat="45.571480393671024" lon="11.38099955904217"><ele>135.0</ele><time>2026-04-12T15:43:16.013Z</time></trkpt><trkpt lat="45.57160477710199" lon="11.380952590227931"><ele>135.0</ele><time>2026-04-12T15:43:17.013Z</time></trkpt><trkpt lat="45.57171981189725" lon="11.38092452960004"><ele>135.0</ele><time>2026-04-12T15:43:18.013Z</time></trkpt><trkpt lat="45.571831335682994" lon="11.380933037067873"><ele>135.0</ele><time>2026-04-12T15:43:19.013Z</time></trkpt><trkpt lat="45.571922765786084" lon="11.380991075493743"><ele>135.0</ele><time>2026-04-12T15:43:20.013Z</time></trkpt><trkpt lat="45.57200254269139" lon="11.38100508314145"><ele>135.0</ele><time>2026-04-12T15:43:21.013Z</time></trkpt><trkpt lat="45.57207658618422" lon="11.380952092261763"><ele>135.0</ele><time>2026-04-12T15:43:22.013Z</time></trkpt><trkpt lat="45.572137137788225" lon="11.380866592493364"><ele>135.25</ele><time>2026-04-12T15:43:23.013Z</time></trkpt><trkpt lat="45.57216418136981" lon="11.380706943217183"><ele>135.5</ele><time>2026-04-12T15:43:24.013Z</time></trkpt><trkpt lat="45.572089512042325" lon="11.38053399653541"><ele>135.75</ele><time>2026-04-12T15:43:25.013Z</time></trkpt><trkpt lat="45.572014860668105" lon="11.3803986779319"><ele>136.0</ele><time>2026-04-12T15:43:26.013Z</time></trkpt><trkpt lat="45.5719519895372" lon="11.380257475952913"><ele>135.33333333333334</ele><time>2026-04-12T15:43:27.013Z</time></trkpt><trkpt lat="45.5719360570119" lon="11.38005493064605"><ele>134.66666666666666</ele><time>2026-04-12T15:43:28.013Z</time></trkpt><trkpt lat="45.57195309755196" lon="11.37980222061434"><ele>134.0</ele><time>2026-04-12T15:43:29.013Z</time></trkpt><trkpt lat="45.57196376129181" lon="11.379521801406433"><ele>134.0</ele><time>2026-04-12T15:43:30.014Z</time></trkpt><trkpt lat="45.572002643411174" lon="11.37926995600803"><ele>134.0</ele><time>2026-04-12T15:43:31.014Z</time></trkpt><trkpt lat="45.572000057601784" lon="11.379035026438277"><ele>134.0</ele><time>2026-04-12T15:43:32.014Z</time></trkpt><trkpt lat="45.57199742613304" lon="11.37879594852199"><ele>134.33333333333331</ele><time>2026-04-12T15:43:33.014Z</time></trkpt><trkpt lat="45.57199477725563" lon="11.378564680158958"><ele>134.66666666666666</ele><time>2026-04-12T15:43:34.014Z</time></trkpt><trkpt lat="45.57199208585486" lon="11.378349368003"><ele>135.0</ele><time>2026-04-12T15:43:35.014Z</time></trkpt><trkpt lat="45.571989507133075" lon="11.37814306999283"><ele>135.0</ele><time>2026-04-12T15:43:36.014Z</time></trkpt><trkpt lat="45.57198563217931" lon="11.377920801598746"><ele>135.0</ele><time>2026-04-12T15:43:37.014Z</time></trkpt><trkpt lat="45.571975531325826" lon="11.377702322319232"><ele>135.0</ele><time>2026-04-12T15:43:38.014Z</time></trkpt><trkpt lat="45.57196613087859" lon="11.377498992647693"><ele>135.0</ele><time>2026-04-12T15:43:39.014Z</time></trkpt><trkpt lat="45.57195799426228" lon="11.377323639765164"><ele>135.0</ele><time>2026-04-12T15:43:40.014Z</time></trkpt><trkpt lat="45.571950897385186" lon="11.377170945358763"><ele>135.0</ele><time>2026-04-12T15:43:41.014Z</time></trkpt><trkpt lat="45.57194525741187" lon="11.377049597357322"><ele>135.0</ele><time>2026-04-12T15:43:42.014Z</time></trkpt><trkpt lat="45.571991151893606" lon="11.376978623324606"><ele>135.0</ele><time>2026-04-12T15:43:43.014Z</time></trkpt><trkpt lat="45.5719757784257" lon="11.376882493602865"><ele>135.0</ele><time>2026-04-12T15:43:44.014Z</time></trkpt><trkpt lat="45.57186039231262" lon="11.376788515231611"><ele>135.0</ele><time>2026-04-12T15:43:46.014Z</time></trkpt><trkpt lat="45.571767131649466" lon="11.376833713270711"><ele>135.0</ele><time>2026-04-12T15:43:47.014Z</time></trkpt><trkpt lat="45.57167439374374" lon="11.376925867026554"><ele>135.0</ele><time>2026-04-12T15:43:48.014Z</time></trkpt><trkpt lat="45.57156925366176" lon="11.37699952366823"><ele>135.0</ele><time>2026-04-12T15:43:49.014Z</time></trkpt><trkpt lat="45.57142123954813" lon="11.376981271766294"><ele>135.0</ele><time>2026-04-12T15:43:50.014Z</time></trkpt><trkpt lat="45.571239309679974" lon="11.376935172632914"><ele>135.0</ele><time>2026-04-12T15:43:51.014Z</time></trkpt><trkpt lat="45.571058715614456" lon="11.376888059126067"><ele>135.0</ele><time>2026-04-12T15:43:52.014Z</time></trkpt><trkpt lat="45.57090099702043" lon="11.376846900682"><ele>135.0</ele><time>2026-04-12T15:43:53.014Z</time></trkpt><trkpt lat="45.57076391671741" lon="11.376811138455723"><ele>135.0</ele><time>2026-04-12T15:43:54.014Z</time></trkpt><trkpt lat="45.57062937353032" lon="11.376795984221333"><ele>135.0</ele><time>2026-04-12T15:43:55.014Z</time></trkpt><trkpt lat="45.57050235878538" lon="11.376760255121976"><ele>135.0</ele><time>2026-04-12T15:43:56.014Z</time></trkpt><trkpt lat="45.570387529971455" lon="11.376730883838887"><ele>135.0</ele><time>2026-04-12T15:43:57.014Z</time></trkpt><trkpt lat="45.57028588404652" lon="11.376696436096635"><ele>135.0</ele><time>2026-04-12T15:43:58.014Z</time></trkpt><trkpt lat="45.57017458925396" lon="11.376667211751933"><ele>135.0</ele><time>2026-04-12T15:43:59.014Z</time></trkpt><trkpt lat="45.5700493331004" lon="11.376633263464038"><ele>134.25</ele><time>2026-04-12T15:44:00.014Z</time></trkpt><trkpt lat="45.56992417324156" lon="11.376597121432054"><ele>133.5</ele><time>2026-04-12T15:44:01.014Z</time></trkpt><trkpt lat="45.56979819598548" lon="11.376563269316492"><ele>132.75</ele><time>2026-04-12T15:44:02.014Z</time></trkpt><trkpt lat="45.56967088922186" lon="11.37652713144667"><ele>132.0</ele><time>2026-04-12T15:44:03.014Z</time></trkpt><trkpt lat="45.5695413560985" lon="11.376491102149025"><ele>131.33333333333334</ele><time>2026-04-12T15:44:04.014Z</time></trkpt><trkpt lat="45.5693825717798" lon="11.376448794829374"><ele>130.66666666666669</ele><time>2026-04-12T15:44:05.014Z</time></trkpt><trkpt lat="45.56921057712605" lon="11.376405121003582"><ele>130.0</ele><time>2026-04-12T15:44:06.014Z</time></trkpt><trkpt lat="45.5690553437406" lon="11.376361615080501"><ele>131.0</ele><time>2026-04-12T15:44:07.014Z</time></trkpt><trkpt lat="45.56890071931371" lon="11.376314578036478"><ele>132.0</ele><time>2026-04-12T15:44:08.014Z</time></trkpt><trkpt lat="45.568732597483894" lon="11.376252979120455"><ele>133.0</ele><time>2026-04-12T15:44:09.014Z</time></trkpt><trkpt lat="45.56855722367048" lon="11.376197541191658"><ele>133.0</ele><time>2026-04-12T15:44:10.014Z</time></trkpt><trkpt lat="45.56838361844491" lon="11.376149472145746"><ele>133.0</ele><time>2026-04-12T15:44:11.014Z</time></trkpt><trkpt lat="45.56822284281668" lon="11.376105338958533"><ele>133.0</ele><time>2026-04-12T15:44:12.014Z</time></trkpt><trkpt lat="45.56807295795658" lon="11.376061395500768"><ele>133.0</ele><time>2026-04-12T15:44:13.014Z</time></trkpt><trkpt lat="45.5679299475187" lon="11.376021795700598"><ele>133.0</ele><time>2026-04-12T15:44:14.014Z</time></trkpt><trkpt lat="45.567790060829964" lon="11.375986376532774"><ele>133.0</ele><time>2026-04-12T15:44:15.014Z</time></trkpt><trkpt lat="45.567653205225746" lon="11.37595660707763"><ele>133.0</ele><time>2026-04-12T15:44:16.014Z</time></trkpt><trkpt lat="45.567512930992315" lon="11.375923091229978"><ele>133.66666666666669</ele><time>2026-04-12T15:44:17.014Z</time></trkpt><trkpt lat="45.567368455337096" lon="11.375889057109587"><ele>134.33333333333334</ele><time>2026-04-12T15:44:18.014Z</time></trkpt><trkpt lat="45.567199619138826" lon="11.375868286293025"><ele>135.0</ele><time>2026-04-12T15:44:19.014Z</time></trkpt><trkpt lat="45.56700673048534" lon="11.37584562743271"><ele>135.0</ele><time>2026-04-12T15:44:20.014Z</time></trkpt><trkpt lat="45.566827576551084" lon="11.375805599698216"><ele>135.0</ele><time>2026-04-12T15:44:21.014Z</time></trkpt><trkpt lat="45.56666898682433" lon="11.375717413492277"><ele>135.0</ele><time>2026-04-12T15:44:22.014Z</time></trkpt><trkpt lat="45.566514477726955" lon="11.375642323342195"><ele>135.0</ele><time>2026-04-12T15:44:23.014Z</time></trkpt><trkpt lat="45.56636430357795" lon="11.37558268067924"><ele>135.0</ele><time>2026-04-12T15:44:24.014Z</time></trkpt><trkpt lat="45.56622334913652" lon="11.37551634336693"><ele>135.0</ele><time>2026-04-12T15:44:25.014Z</time></trkpt><trkpt lat="45.566077984747345" lon="11.375447134633882"><ele>134.66666666666666</ele><time>2026-04-12T15:44:26.014Z</time></trkpt><trkpt lat="45.56593336268543" lon="11.375390059595762"><ele>134.33333333333331</ele><time>2026-04-12T15:44:27.014Z</time></trkpt><trkpt lat="45.565789811287026" lon="11.375321169047979"><ele>134.0</ele><time>2026-04-12T15:44:28.014Z</time></trkpt><trkpt lat="45.565647651184165" lon="11.375257193023767"><ele>134.0</ele><time>2026-04-12T15:44:29.014Z</time></trkpt><trkpt lat="45.56550710570827" lon="11.375200283141812"><ele>134.0</ele><time>2026-04-12T15:44:30.014Z</time></trkpt><trkpt lat="45.565377509252635" lon="11.37516013058796"><ele>134.0</ele><time>2026-04-12T15:44:31.014Z</time></trkpt><trkpt lat="45.565287882462414" lon="11.375119046154603"><ele>134.0</ele><time>2026-04-12T15:44:32.014Z</time></trkpt><trkpt lat="45.56520755567375" lon="11.375087753049016"><ele>133.42857142857144</ele><time>2026-04-12T15:44:33.014Z</time></trkpt><trkpt lat="45.56514973587265" lon="11.37504368770933"><ele>132.85714285714286</ele><time>2026-04-12T15:44:34.014Z</time></trkpt><trkpt lat="45.5651356793919" lon="11.374951732765558"><ele>132.28571428571428</ele><time>2026-04-12T15:44:35.014Z</time></trkpt><trkpt lat="45.56516392338535" lon="11.37486236746682"><ele>131.71428571428572</ele><time>2026-04-12T15:44:36.014Z</time></trkpt><trkpt lat="45.565147841898224" lon="11.374767070738853"><ele>131.14285714285714</ele><time>2026-04-12T15:44:37.014Z</time></trkpt><trkpt lat="45.56514648415048" lon="11.374656711913145"><ele>130.57142857142858</ele><time>2026-04-12T15:44:38.014Z</time></trkpt><trkpt lat="45.565145514621975" lon="11.374542794782672"><ele>130.0</ele><time>2026-04-12T15:44:39.014Z</time></trkpt><trkpt lat="45.56514146910643" lon="11.374413854953662"><ele>130.0</ele><time>2026-04-12T15:44:41.014Z</time></trkpt><trkpt lat="45.56513341189529" lon="11.374323892652342"><ele>130.0</ele><time>2026-04-12T15:44:43.014Z</time></trkpt><trkpt lat="45.56514462188199" lon="11.374229224131671"><ele>130.0</ele><time>2026-04-12T15:44:45.014Z</time></trkpt><trkpt lat="45.56526075672362" lon="11.374192900958686"><ele>130.0</ele><time>2026-04-12T15:44:47.014Z</time></trkpt><trkpt lat="45.56532274707703" lon="11.374068230350339"><ele>130.0</ele><time>2026-04-12T15:44:49.014Z</time></trkpt><trkpt lat="45.56530155646218" lon="11.373955841136958"><ele>130.0</ele><time>2026-04-12T15:44:50.014Z</time></trkpt><trkpt lat="45.56526335588661" lon="11.3738582959113"><ele>130.2</ele><time>2026-04-12T15:44:51.014Z</time></trkpt><trkpt lat="45.56521538700222" lon="11.37372663710576"><ele>130.4</ele><time>2026-04-12T15:44:52.014Z</time></trkpt><trkpt lat="45.56516421769703" lon="11.373568003702516"><ele>130.6</ele><time>2026-04-12T15:44:53.014Z</time></trkpt><trkpt lat="45.565132867054714" lon="11.37342133945919"><ele>130.8</ele><time>2026-04-12T15:44:54.014Z</time></trkpt><trkpt lat="45.565116009657054" lon="11.373283917934218"><ele>131.0</ele><time>2026-04-12T15:44:55.014Z</time></trkpt><trkpt lat="45.565094350675466" lon="11.373107754525568"><ele>131.2</ele><time>2026-04-12T15:44:56.014Z</time></trkpt><trkpt lat="45.56510616143022" lon="11.372915668448995"><ele>131.39999999999998</ele><time>2026-04-12T15:44:57.014Z</time></trkpt><trkpt lat="45.56510588492363" lon="11.372794528612923"><ele>131.6</ele><time>2026-04-12T15:44:58.014Z</time></trkpt><trkpt lat="45.56510554383944" lon="11.372645096140158"><ele>131.79999999999998</ele><time>2026-04-12T15:45:00.014Z</time></trkpt><trkpt lat="45.565105095431505" lon="11.372554132403492"><ele>132.0</ele><time>2026-04-12T15:45:02.014Z</time></trkpt><trkpt lat="45.564973144853134" lon="11.37256375078583"><ele>132.0</ele><time>2026-04-12T15:45:03.014Z</time></trkpt><trkpt lat="45.56490929452281" lon="11.372588183863844"><ele>132.0</ele><time>2026-04-12T15:45:04.014Z</time></trkpt><trkpt lat="45.564819829567114" lon="11.372596566876396"><ele>132.0</ele><time>2026-04-12T15:45:05.014Z</time></trkpt><trkpt lat="45.5647018074852" lon="11.37259974687028"><ele>132.0</ele><time>2026-04-12T15:45:06.014Z</time></trkpt><trkpt lat="45.56461262497965" lon="11.372603657469469"><ele>132.0</ele><time>2026-04-12T15:45:07.014Z</time></trkpt><trkpt lat="45.56453493538171" lon="11.372599297473855"><ele>132.0</ele><time>2026-04-12T15:45:08.014Z</time></trkpt><trkpt lat="45.56445229905849" lon="11.372594264822327"><ele>131.4</ele><time>2026-04-12T15:45:09.014Z</time></trkpt><trkpt lat="45.564370367506385" lon="11.372590007016349"><ele>130.79999999999998</ele><time>2026-04-12T15:45:10.014Z</time></trkpt><trkpt lat="45.56428821767008" lon="11.372591405836479"><ele>130.2</ele><time>2026-04-12T15:45:11.014Z</time></trkpt><trkpt lat="45.564217703156075" lon="11.372577630745644"><ele>129.6</ele><time>2026-04-12T15:45:12.014Z</time></trkpt><trkpt lat="45.56413268975113" lon="11.372527379364422"><ele>129.0</ele><time>2026-04-12T15:45:14.014Z</time></trkpt><trkpt lat="45.56412427046763" lon="11.372324329472018"><ele>129.0</ele><time>2026-04-12T15:45:16.014Z</time></trkpt><trkpt lat="45.564153936333845" lon="11.372210344407334"><ele>129.0</ele><time>2026-04-12T15:45:17.014Z</time></trkpt><trkpt lat="45.564275096187934" lon="11.372190648772198"><ele>129.0</ele><time>2026-04-12T15:45:19.014Z</time></trkpt><trkpt lat="45.56440226651577" lon="11.372238136050024"><ele>129.0</ele><time>2026-04-12T15:45:20.014Z</time></trkpt><trkpt lat="45.564497292047186" lon="11.372254370968275"><ele>129.0</ele><time>2026-04-12T15:45:21.014Z</time></trkpt><trkpt lat="45.564600003055865" lon="11.372248214942708"><ele>132.0</ele><time>2026-04-12T15:45:22.014Z</time></trkpt><trkpt lat="45.56467020147432" lon="11.372259643716303"><ele>132.0</ele><time>2026-04-12T15:45:23.014Z</time></trkpt><trkpt lat="45.56476298687039" lon="11.37225544596355"><ele>132.0</ele><time>2026-04-12T15:45:25.014Z</time></trkpt><trkpt lat="45.564816337097604" lon="11.372308504785092"><ele>132.0</ele><time>2026-04-12T15:45:28.014Z</time></trkpt><trkpt lat="45.56481501991043" lon="11.372195354413712"><ele>132.0</ele><time>2026-04-12T15:46:40.015Z</time></trkpt></trkseg></trk></gpx>